<?xml version="1.0" encoding="UTF-8"?>
<gpx version="1.1" creator="https://www.youtrack.es" xsi:schemaLocation="http://www.topografix.com/GPX/1/1 http://www.topografix.com/GPX/1/1/gpx.xsd http://www.garmin.com/xmlschemas/GpxExtensions/v3 http://www.garmin.com/xmlschemas/GpxExtensionsv3.xsd http://www.garmin.com/xmlschemas/TrackPointExtension/v1 http://www.garmin.com/xmlschemas/TrackPointExtensionv1.xsd" xmlns:gpxtpx="http://www.garmin.com/xmlschemas/TrackPointExtension/v1" xmlns:gpxx="http://www.garmin.com/xmlschemas/GpxExtensions/v3" xmlns:xsi="http://www.w3.org/2001/XMLSchema-instance">
  <metadata>
    <author>
      <name>Antonio Carrero</name>
      <email id="acarrerol21" domain="gmail.com"/>
    </author>
    <link href="https://www.youtrack.es">
      <text>YouTrack.es</text>
    </link>
    <time>2026-05-08T05:11:03Z</time>
  </metadata>
  <trk>
    <src>https://www.youtrack.es</src>
    <link href="https://www.youtrack.es/ruta/33511-ariegoise">
      <text>YouTrack.es</text>
    </link>
    <trkseg>
      <trkpt lat="42.8460700" lon="1.6004970">
        <ele>481.2</ele>
        <time>2022-06-26T05:39:28Z</time>
      </trkpt>
      <trkpt lat="42.8463600" lon="1.6002960">
        <ele>479.3</ele>
        <time>2022-06-26T05:39:33Z</time>
      </trkpt>
      <trkpt lat="42.8466500" lon="1.6001270">
        <ele>477.5</ele>
        <time>2022-06-26T05:39:37Z</time>
      </trkpt>
      <trkpt lat="42.8468110" lon="1.6000540">
        <ele>477.2</ele>
        <time>2022-06-26T05:39:39Z</time>
      </trkpt>
      <trkpt lat="42.8469780" lon="1.5999920">
        <ele>477.1</ele>
        <time>2022-06-26T05:39:41Z</time>
      </trkpt>
      <trkpt lat="42.8471450" lon="1.5999430">
        <ele>477.1</ele>
        <time>2022-06-26T05:39:43Z</time>
      </trkpt>
      <trkpt lat="42.8473080" lon="1.5999060">
        <ele>477.0</ele>
        <time>2022-06-26T05:39:45Z</time>
      </trkpt>
      <trkpt lat="42.8473870" lon="1.5998900">
        <ele>476.9</ele>
        <time>2022-06-26T05:39:46Z</time>
      </trkpt>
      <trkpt lat="42.8474640" lon="1.5998760">
        <ele>476.9</ele>
        <time>2022-06-26T05:39:47Z</time>
      </trkpt>
      <trkpt lat="42.8476860" lon="1.5998430">
        <ele>476.4</ele>
        <time>2022-06-26T05:39:50Z</time>
      </trkpt>
      <trkpt lat="42.8479690" lon="1.5997990">
        <ele>476.3</ele>
        <time>2022-06-26T05:39:54Z</time>
      </trkpt>
      <trkpt lat="42.8485650" lon="1.5997040">
        <ele>476.4</ele>
        <time>2022-06-26T05:40:03Z</time>
      </trkpt>
      <trkpt lat="42.8486300" lon="1.5996950">
        <ele>476.4</ele>
        <time>2022-06-26T05:40:04Z</time>
      </trkpt>
      <trkpt lat="42.8492180" lon="1.5996020">
        <ele>476.5</ele>
        <time>2022-06-26T05:40:13Z</time>
      </trkpt>
      <trkpt lat="42.8492830" lon="1.5995930">
        <ele>476.5</ele>
        <time>2022-06-26T05:40:14Z</time>
      </trkpt>
      <trkpt lat="42.8497320" lon="1.5994740">
        <ele>477.1</ele>
        <time>2022-06-26T05:40:21Z</time>
      </trkpt>
      <trkpt lat="42.8497930" lon="1.5994470">
        <ele>477.2</ele>
        <time>2022-06-26T05:40:22Z</time>
      </trkpt>
      <trkpt lat="42.8500960" lon="1.5993260">
        <ele>477.7</ele>
        <time>2022-06-26T05:40:27Z</time>
      </trkpt>
      <trkpt lat="42.8501480" lon="1.5992870">
        <ele>477.7</ele>
        <time>2022-06-26T05:40:28Z</time>
      </trkpt>
      <trkpt lat="42.8502160" lon="1.5990830">
        <ele>478.0</ele>
        <time>2022-06-26T05:40:31Z</time>
      </trkpt>
      <trkpt lat="42.8502160" lon="1.5990050">
        <ele>478.0</ele>
        <time>2022-06-26T05:40:32Z</time>
      </trkpt>
      <trkpt lat="42.8502190" lon="1.5989290">
        <ele>478.1</ele>
        <time>2022-06-26T05:40:33Z</time>
      </trkpt>
      <trkpt lat="42.8502620" lon="1.5987080">
        <ele>478.4</ele>
        <time>2022-06-26T05:40:36Z</time>
      </trkpt>
      <trkpt lat="42.8503310" lon="1.5985040">
        <ele>478.7</ele>
        <time>2022-06-26T05:40:39Z</time>
      </trkpt>
      <trkpt lat="42.8504730" lon="1.5981160">
        <ele>479.3</ele>
        <time>2022-06-26T05:40:45Z</time>
      </trkpt>
      <trkpt lat="42.8506450" lon="1.5976460">
        <ele>480.2</ele>
        <time>2022-06-26T05:40:52Z</time>
      </trkpt>
      <trkpt lat="42.8506920" lon="1.5975130">
        <ele>480.5</ele>
        <time>2022-06-26T05:40:54Z</time>
      </trkpt>
      <trkpt lat="42.8508010" lon="1.5971950">
        <ele>480.9</ele>
        <time>2022-06-26T05:40:59Z</time>
      </trkpt>
      <trkpt lat="42.8509100" lon="1.5968850">
        <ele>481.4</ele>
        <time>2022-06-26T05:41:04Z</time>
      </trkpt>
      <trkpt lat="42.8510190" lon="1.5965690">
        <ele>481.9</ele>
        <time>2022-06-26T05:41:09Z</time>
      </trkpt>
      <trkpt lat="42.8511460" lon="1.5961910">
        <ele>482.7</ele>
        <time>2022-06-26T05:41:15Z</time>
      </trkpt>
      <trkpt lat="42.8511680" lon="1.5961280">
        <ele>482.8</ele>
        <time>2022-06-26T05:41:16Z</time>
      </trkpt>
      <trkpt lat="42.8513260" lon="1.5956840">
        <ele>483.6</ele>
        <time>2022-06-26T05:41:23Z</time>
      </trkpt>
      <trkpt lat="42.8514400" lon="1.5953590">
        <ele>484.2</ele>
        <time>2022-06-26T05:41:28Z</time>
      </trkpt>
      <trkpt lat="42.8515070" lon="1.5951670">
        <ele>484.7</ele>
        <time>2022-06-26T05:41:31Z</time>
      </trkpt>
      <trkpt lat="42.8516760" lon="1.5946760">
        <ele>486.1</ele>
        <time>2022-06-26T05:41:39Z</time>
      </trkpt>
      <trkpt lat="42.8518300" lon="1.5942310">
        <ele>488.1</ele>
        <time>2022-06-26T05:41:47Z</time>
      </trkpt>
      <trkpt lat="42.8518650" lon="1.5941290">
        <ele>488.6</ele>
        <time>2022-06-26T05:41:49Z</time>
      </trkpt>
      <trkpt lat="42.8519290" lon="1.5939510">
        <ele>489.6</ele>
        <time>2022-06-26T05:41:53Z</time>
      </trkpt>
      <trkpt lat="42.8519800" lon="1.5937820">
        <ele>490.5</ele>
        <time>2022-06-26T05:41:57Z</time>
      </trkpt>
      <trkpt lat="42.8520300" lon="1.5936530">
        <ele>491.1</ele>
        <time>2022-06-26T05:42:00Z</time>
      </trkpt>
      <trkpt lat="42.8520800" lon="1.5935150">
        <ele>491.6</ele>
        <time>2022-06-26T05:42:03Z</time>
      </trkpt>
      <trkpt lat="42.8521320" lon="1.5933740">
        <ele>491.9</ele>
        <time>2022-06-26T05:42:06Z</time>
      </trkpt>
      <trkpt lat="42.8521680" lon="1.5932780">
        <ele>492.1</ele>
        <time>2022-06-26T05:42:08Z</time>
      </trkpt>
      <trkpt lat="42.8523180" lon="1.5928380">
        <ele>493.5</ele>
        <time>2022-06-26T05:42:17Z</time>
      </trkpt>
      <trkpt lat="42.8523330" lon="1.5927900">
        <ele>493.6</ele>
        <time>2022-06-26T05:42:18Z</time>
      </trkpt>
      <trkpt lat="42.8524690" lon="1.5924040">
        <ele>494.5</ele>
        <time>2022-06-26T05:42:26Z</time>
      </trkpt>
      <trkpt lat="42.8525030" lon="1.5923010">
        <ele>494.5</ele>
        <time>2022-06-26T05:42:28Z</time>
      </trkpt>
      <trkpt lat="42.8526750" lon="1.5918710">
        <ele>495.1</ele>
        <time>2022-06-26T05:42:37Z</time>
      </trkpt>
      <trkpt lat="42.8527320" lon="1.5917980">
        <ele>495.2</ele>
        <time>2022-06-26T05:42:39Z</time>
      </trkpt>
      <trkpt lat="42.8527650" lon="1.5917660">
        <ele>495.2</ele>
        <time>2022-06-26T05:42:40Z</time>
      </trkpt>
      <trkpt lat="42.8528440" lon="1.5917130">
        <ele>495.3</ele>
        <time>2022-06-26T05:42:42Z</time>
      </trkpt>
      <trkpt lat="42.8530370" lon="1.5916280">
        <ele>495.4</ele>
        <time>2022-06-26T05:42:46Z</time>
      </trkpt>
      <trkpt lat="42.8531370" lon="1.5915580">
        <ele>495.4</ele>
        <time>2022-06-26T05:42:48Z</time>
      </trkpt>
      <trkpt lat="42.8532980" lon="1.5913310">
        <ele>495.4</ele>
        <time>2022-06-26T05:42:52Z</time>
      </trkpt>
      <trkpt lat="42.8533520" lon="1.5910220">
        <ele>495.4</ele>
        <time>2022-06-26T05:42:56Z</time>
      </trkpt>
      <trkpt lat="42.8532930" lon="1.5907280">
        <ele>495.5</ele>
        <time>2022-06-26T05:43:00Z</time>
      </trkpt>
      <trkpt lat="42.8531710" lon="1.5904850">
        <ele>495.7</ele>
        <time>2022-06-26T05:43:04Z</time>
      </trkpt>
      <trkpt lat="42.8531410" lon="1.5904270">
        <ele>495.7</ele>
        <time>2022-06-26T05:43:05Z</time>
      </trkpt>
      <trkpt lat="42.8531200" lon="1.5903610">
        <ele>496.0</ele>
        <time>2022-06-26T05:43:06Z</time>
      </trkpt>
      <trkpt lat="42.8531280" lon="1.5901550">
        <ele>496.5</ele>
        <time>2022-06-26T05:43:09Z</time>
      </trkpt>
      <trkpt lat="42.8532280" lon="1.5899130">
        <ele>496.9</ele>
        <time>2022-06-26T05:43:13Z</time>
      </trkpt>
      <trkpt lat="42.8532600" lon="1.5898570">
        <ele>496.9</ele>
        <time>2022-06-26T05:43:14Z</time>
      </trkpt>
      <trkpt lat="42.8535150" lon="1.5893070">
        <ele>497.6</ele>
        <time>2022-06-26T05:43:23Z</time>
      </trkpt>
      <trkpt lat="42.8536130" lon="1.5890490">
        <ele>498.0</ele>
        <time>2022-06-26T05:43:27Z</time>
      </trkpt>
      <trkpt lat="42.8537160" lon="1.5887390">
        <ele>498.7</ele>
        <time>2022-06-26T05:43:32Z</time>
      </trkpt>
      <trkpt lat="42.8537350" lon="1.5886810">
        <ele>498.9</ele>
        <time>2022-06-26T05:43:33Z</time>
      </trkpt>
      <trkpt lat="42.8538180" lon="1.5883990">
        <ele>499.9</ele>
        <time>2022-06-26T05:43:38Z</time>
      </trkpt>
      <trkpt lat="42.8539210" lon="1.5880940">
        <ele>501.1</ele>
        <time>2022-06-26T05:43:44Z</time>
      </trkpt>
      <trkpt lat="42.8539380" lon="1.5880430">
        <ele>501.3</ele>
        <time>2022-06-26T05:43:45Z</time>
      </trkpt>
      <trkpt lat="42.8540240" lon="1.5877880">
        <ele>502.1</ele>
        <time>2022-06-26T05:43:50Z</time>
      </trkpt>
      <trkpt lat="42.8541030" lon="1.5875430">
        <ele>502.6</ele>
        <time>2022-06-26T05:43:54Z</time>
      </trkpt>
      <trkpt lat="42.8542700" lon="1.5870610">
        <ele>502.6</ele>
        <time>2022-06-26T05:44:01Z</time>
      </trkpt>
      <trkpt lat="42.8544990" lon="1.5865220">
        <ele>502.8</ele>
        <time>2022-06-26T05:44:09Z</time>
      </trkpt>
      <trkpt lat="42.8548110" lon="1.5859330">
        <ele>503.2</ele>
        <time>2022-06-26T05:44:19Z</time>
      </trkpt>
      <trkpt lat="42.8551690" lon="1.5853870">
        <ele>503.4</ele>
        <time>2022-06-26T05:44:29Z</time>
      </trkpt>
      <trkpt lat="42.8552420" lon="1.5852800">
        <ele>503.4</ele>
        <time>2022-06-26T05:44:31Z</time>
      </trkpt>
      <trkpt lat="42.8556290" lon="1.5847260">
        <ele>503.4</ele>
        <time>2022-06-26T05:44:41Z</time>
      </trkpt>
      <trkpt lat="42.8556680" lon="1.5846690">
        <ele>503.5</ele>
        <time>2022-06-26T05:44:42Z</time>
      </trkpt>
      <trkpt lat="42.8559230" lon="1.5843890">
        <ele>504.4</ele>
        <time>2022-06-26T05:44:48Z</time>
      </trkpt>
      <trkpt lat="42.8560110" lon="1.5843330">
        <ele>504.7</ele>
        <time>2022-06-26T05:44:50Z</time>
      </trkpt>
      <trkpt lat="42.8561430" lon="1.5842730">
        <ele>505.0</ele>
        <time>2022-06-26T05:44:53Z</time>
      </trkpt>
      <trkpt lat="42.8561880" lon="1.5842510">
        <ele>505.1</ele>
        <time>2022-06-26T05:44:54Z</time>
      </trkpt>
      <trkpt lat="42.8562800" lon="1.5841980">
        <ele>505.3</ele>
        <time>2022-06-26T05:44:56Z</time>
      </trkpt>
      <trkpt lat="42.8563250" lon="1.5841620">
        <ele>505.3</ele>
        <time>2022-06-26T05:44:57Z</time>
      </trkpt>
      <trkpt lat="42.8564100" lon="1.5840760">
        <ele>505.5</ele>
        <time>2022-06-26T05:44:59Z</time>
      </trkpt>
      <trkpt lat="42.8565460" lon="1.5838690">
        <ele>505.7</ele>
        <time>2022-06-26T05:45:03Z</time>
      </trkpt>
      <trkpt lat="42.8565720" lon="1.5838160">
        <ele>505.8</ele>
        <time>2022-06-26T05:45:04Z</time>
      </trkpt>
      <trkpt lat="42.8566190" lon="1.5837180">
        <ele>506.0</ele>
        <time>2022-06-26T05:45:06Z</time>
      </trkpt>
      <trkpt lat="42.8567150" lon="1.5835390">
        <ele>506.5</ele>
        <time>2022-06-26T05:45:10Z</time>
      </trkpt>
      <trkpt lat="42.8567660" lon="1.5834570">
        <ele>506.8</ele>
        <time>2022-06-26T05:45:12Z</time>
      </trkpt>
      <trkpt lat="42.8568860" lon="1.5833190">
        <ele>508.0</ele>
        <time>2022-06-26T05:45:16Z</time>
      </trkpt>
      <trkpt lat="42.8569190" lon="1.5832920">
        <ele>508.3</ele>
        <time>2022-06-26T05:45:17Z</time>
      </trkpt>
      <trkpt lat="42.8570470" lon="1.5832170">
        <ele>509.4</ele>
        <time>2022-06-26T05:45:21Z</time>
      </trkpt>
      <trkpt lat="42.8571410" lon="1.5831900">
        <ele>510.2</ele>
        <time>2022-06-26T05:45:24Z</time>
      </trkpt>
      <trkpt lat="42.8572050" lon="1.5831780">
        <ele>510.8</ele>
        <time>2022-06-26T05:45:26Z</time>
      </trkpt>
      <trkpt lat="42.8572350" lon="1.5831740">
        <ele>511.0</ele>
        <time>2022-06-26T05:45:27Z</time>
      </trkpt>
      <trkpt lat="42.8573250" lon="1.5831510">
        <ele>511.8</ele>
        <time>2022-06-26T05:45:30Z</time>
      </trkpt>
      <trkpt lat="42.8574160" lon="1.5831200">
        <ele>512.6</ele>
        <time>2022-06-26T05:45:33Z</time>
      </trkpt>
      <trkpt lat="42.8574750" lon="1.5830900">
        <ele>513.1</ele>
        <time>2022-06-26T05:45:35Z</time>
      </trkpt>
      <trkpt lat="42.8575820" lon="1.5830100">
        <ele>514.0</ele>
        <time>2022-06-26T05:45:39Z</time>
      </trkpt>
      <trkpt lat="42.8576300" lon="1.5829560">
        <ele>514.5</ele>
        <time>2022-06-26T05:45:41Z</time>
      </trkpt>
      <trkpt lat="42.8576740" lon="1.5828970">
        <ele>514.9</ele>
        <time>2022-06-26T05:45:43Z</time>
      </trkpt>
      <trkpt lat="42.8577810" lon="1.5826890">
        <ele>516.0</ele>
        <time>2022-06-26T05:45:49Z</time>
      </trkpt>
      <trkpt lat="42.8578520" lon="1.5825050">
        <ele>516.9</ele>
        <time>2022-06-26T05:45:54Z</time>
      </trkpt>
      <trkpt lat="42.8579070" lon="1.5823130">
        <ele>517.9</ele>
        <time>2022-06-26T05:45:59Z</time>
      </trkpt>
      <trkpt lat="42.8579760" lon="1.5820980">
        <ele>519.0</ele>
        <time>2022-06-26T05:46:05Z</time>
      </trkpt>
      <trkpt lat="42.8580180" lon="1.5820000">
        <ele>519.5</ele>
        <time>2022-06-26T05:46:08Z</time>
      </trkpt>
      <trkpt lat="42.8580450" lon="1.5819350">
        <ele>519.9</ele>
        <time>2022-06-26T05:46:10Z</time>
      </trkpt>
      <trkpt lat="42.8581140" lon="1.5817480">
        <ele>520.9</ele>
        <time>2022-06-26T05:46:16Z</time>
      </trkpt>
      <trkpt lat="42.8581270" lon="1.5817140">
        <ele>521.1</ele>
        <time>2022-06-26T05:46:17Z</time>
      </trkpt>
      <trkpt lat="42.8581690" lon="1.5816060">
        <ele>521.7</ele>
        <time>2022-06-26T05:46:20Z</time>
      </trkpt>
      <trkpt lat="42.8582710" lon="1.5813600">
        <ele>523.0</ele>
        <time>2022-06-26T05:46:27Z</time>
      </trkpt>
      <trkpt lat="42.8582850" lon="1.5813240">
        <ele>523.2</ele>
        <time>2022-06-26T05:46:28Z</time>
      </trkpt>
      <trkpt lat="42.8583770" lon="1.5811090">
        <ele>524.4</ele>
        <time>2022-06-26T05:46:34Z</time>
      </trkpt>
      <trkpt lat="42.8583920" lon="1.5810730">
        <ele>524.6</ele>
        <time>2022-06-26T05:46:35Z</time>
      </trkpt>
      <trkpt lat="42.8584690" lon="1.5808850">
        <ele>525.6</ele>
        <time>2022-06-26T05:46:40Z</time>
      </trkpt>
      <trkpt lat="42.8585450" lon="1.5806940">
        <ele>526.7</ele>
        <time>2022-06-26T05:46:45Z</time>
      </trkpt>
      <trkpt lat="42.8585580" lon="1.5806560">
        <ele>526.9</ele>
        <time>2022-06-26T05:46:46Z</time>
      </trkpt>
      <trkpt lat="42.8586140" lon="1.5804470">
        <ele>528.0</ele>
        <time>2022-06-26T05:46:51Z</time>
      </trkpt>
      <trkpt lat="42.8586330" lon="1.5803200">
        <ele>528.6</ele>
        <time>2022-06-26T05:46:54Z</time>
      </trkpt>
      <trkpt lat="42.8586450" lon="1.5802380">
        <ele>529.0</ele>
        <time>2022-06-26T05:46:56Z</time>
      </trkpt>
      <trkpt lat="42.8586740" lon="1.5800550">
        <ele>529.9</ele>
        <time>2022-06-26T05:47:01Z</time>
      </trkpt>
      <trkpt lat="42.8586820" lon="1.5800180">
        <ele>530.1</ele>
        <time>2022-06-26T05:47:02Z</time>
      </trkpt>
      <trkpt lat="42.8586890" lon="1.5798690">
        <ele>530.8</ele>
        <time>2022-06-26T05:47:06Z</time>
      </trkpt>
      <trkpt lat="42.8586890" lon="1.5798320">
        <ele>531.0</ele>
        <time>2022-06-26T05:47:07Z</time>
      </trkpt>
      <trkpt lat="42.8586960" lon="1.5796480">
        <ele>531.9</ele>
        <time>2022-06-26T05:47:12Z</time>
      </trkpt>
      <trkpt lat="42.8586990" lon="1.5795780">
        <ele>532.2</ele>
        <time>2022-06-26T05:47:14Z</time>
      </trkpt>
      <trkpt lat="42.8587070" lon="1.5794440">
        <ele>532.9</ele>
        <time>2022-06-26T05:47:18Z</time>
      </trkpt>
      <trkpt lat="42.8587170" lon="1.5793770">
        <ele>533.3</ele>
        <time>2022-06-26T05:47:20Z</time>
      </trkpt>
      <trkpt lat="42.8587300" lon="1.5792080">
        <ele>534.3</ele>
        <time>2022-06-26T05:47:25Z</time>
      </trkpt>
      <trkpt lat="42.8587390" lon="1.5791420">
        <ele>534.7</ele>
        <time>2022-06-26T05:47:27Z</time>
      </trkpt>
      <trkpt lat="42.8587510" lon="1.5790790">
        <ele>535.0</ele>
        <time>2022-06-26T05:47:29Z</time>
      </trkpt>
      <trkpt lat="42.8587660" lon="1.5789220">
        <ele>535.8</ele>
        <time>2022-06-26T05:47:34Z</time>
      </trkpt>
      <trkpt lat="42.8587690" lon="1.5788910">
        <ele>535.9</ele>
        <time>2022-06-26T05:47:35Z</time>
      </trkpt>
      <trkpt lat="42.8587830" lon="1.5787610">
        <ele>536.6</ele>
        <time>2022-06-26T05:47:39Z</time>
      </trkpt>
      <trkpt lat="42.8587920" lon="1.5786440">
        <ele>537.1</ele>
        <time>2022-06-26T05:47:42Z</time>
      </trkpt>
      <trkpt lat="42.8588070" lon="1.5784850">
        <ele>538.0</ele>
        <time>2022-06-26T05:47:46Z</time>
      </trkpt>
      <trkpt lat="42.8588000" lon="1.5783550">
        <ele>538.7</ele>
        <time>2022-06-26T05:47:49Z</time>
      </trkpt>
      <trkpt lat="42.8587800" lon="1.5782620">
        <ele>539.3</ele>
        <time>2022-06-26T05:47:51Z</time>
      </trkpt>
      <trkpt lat="42.8587120" lon="1.5780280">
        <ele>540.7</ele>
        <time>2022-06-26T05:47:56Z</time>
      </trkpt>
      <trkpt lat="42.8586290" lon="1.5777670">
        <ele>542.3</ele>
        <time>2022-06-26T05:48:02Z</time>
      </trkpt>
      <trkpt lat="42.8586070" lon="1.5776460">
        <ele>543.0</ele>
        <time>2022-06-26T05:48:05Z</time>
      </trkpt>
      <trkpt lat="42.8586000" lon="1.5774840">
        <ele>543.9</ele>
        <time>2022-06-26T05:48:09Z</time>
      </trkpt>
      <trkpt lat="42.8586160" lon="1.5773620">
        <ele>544.6</ele>
        <time>2022-06-26T05:48:12Z</time>
      </trkpt>
      <trkpt lat="42.8586530" lon="1.5772510">
        <ele>545.3</ele>
        <time>2022-06-26T05:48:15Z</time>
      </trkpt>
      <trkpt lat="42.8587170" lon="1.5771050">
        <ele>546.2</ele>
        <time>2022-06-26T05:48:19Z</time>
      </trkpt>
      <trkpt lat="42.8587520" lon="1.5770400">
        <ele>546.7</ele>
        <time>2022-06-26T05:48:21Z</time>
      </trkpt>
      <trkpt lat="42.8588360" lon="1.5768680">
        <ele>547.8</ele>
        <time>2022-06-26T05:48:26Z</time>
      </trkpt>
      <trkpt lat="42.8588710" lon="1.5767990">
        <ele>548.3</ele>
        <time>2022-06-26T05:48:28Z</time>
      </trkpt>
      <trkpt lat="42.8589250" lon="1.5766930">
        <ele>549.0</ele>
        <time>2022-06-26T05:48:31Z</time>
      </trkpt>
      <trkpt lat="42.8590450" lon="1.5764990">
        <ele>550.3</ele>
        <time>2022-06-26T05:48:37Z</time>
      </trkpt>
      <trkpt lat="42.8590670" lon="1.5764720">
        <ele>550.6</ele>
        <time>2022-06-26T05:48:38Z</time>
      </trkpt>
      <trkpt lat="42.8591950" lon="1.5763650">
        <ele>551.6</ele>
        <time>2022-06-26T05:48:43Z</time>
      </trkpt>
      <trkpt lat="42.8592510" lon="1.5763340">
        <ele>552.1</ele>
        <time>2022-06-26T05:48:45Z</time>
      </trkpt>
      <trkpt lat="42.8593680" lon="1.5762750">
        <ele>552.9</ele>
        <time>2022-06-26T05:48:49Z</time>
      </trkpt>
      <trkpt lat="42.8594290" lon="1.5762470">
        <ele>552.7</ele>
        <time>2022-06-26T05:48:51Z</time>
      </trkpt>
      <trkpt lat="42.8594920" lon="1.5762200">
        <ele>553.1</ele>
        <time>2022-06-26T05:48:53Z</time>
      </trkpt>
      <trkpt lat="42.8596140" lon="1.5761600">
        <ele>553.8</ele>
        <time>2022-06-26T05:48:57Z</time>
      </trkpt>
      <trkpt lat="42.8598530" lon="1.5760550">
        <ele>555.3</ele>
        <time>2022-06-26T05:49:05Z</time>
      </trkpt>
      <trkpt lat="42.8599710" lon="1.5759910">
        <ele>556.1</ele>
        <time>2022-06-26T05:49:09Z</time>
      </trkpt>
      <trkpt lat="42.8600310" lon="1.5759590">
        <ele>556.4</ele>
        <time>2022-06-26T05:49:11Z</time>
      </trkpt>
      <trkpt lat="42.8602340" lon="1.5758200">
        <ele>557.3</ele>
        <time>2022-06-26T05:49:18Z</time>
      </trkpt>
      <trkpt lat="42.8603190" lon="1.5757550">
        <ele>557.6</ele>
        <time>2022-06-26T05:49:21Z</time>
      </trkpt>
      <trkpt lat="42.8603750" lon="1.5757110">
        <ele>557.9</ele>
        <time>2022-06-26T05:49:23Z</time>
      </trkpt>
      <trkpt lat="42.8605370" lon="1.5755570">
        <ele>558.7</ele>
        <time>2022-06-26T05:49:29Z</time>
      </trkpt>
      <trkpt lat="42.8606120" lon="1.5754800">
        <ele>559.1</ele>
        <time>2022-06-26T05:49:32Z</time>
      </trkpt>
      <trkpt lat="42.8607070" lon="1.5753660">
        <ele>559.7</ele>
        <time>2022-06-26T05:49:36Z</time>
      </trkpt>
      <trkpt lat="42.8608510" lon="1.5751780">
        <ele>560.5</ele>
        <time>2022-06-26T05:49:42Z</time>
      </trkpt>
      <trkpt lat="42.8608730" lon="1.5751450">
        <ele>560.7</ele>
        <time>2022-06-26T05:49:43Z</time>
      </trkpt>
      <trkpt lat="42.8609830" lon="1.5749820">
        <ele>561.4</ele>
        <time>2022-06-26T05:49:48Z</time>
      </trkpt>
      <trkpt lat="42.8611050" lon="1.5747860">
        <ele>562.2</ele>
        <time>2022-06-26T05:49:54Z</time>
      </trkpt>
      <trkpt lat="42.8611650" lon="1.5746890">
        <ele>562.7</ele>
        <time>2022-06-26T05:49:57Z</time>
      </trkpt>
      <trkpt lat="42.8612260" lon="1.5745910">
        <ele>563.2</ele>
        <time>2022-06-26T05:50:00Z</time>
      </trkpt>
      <trkpt lat="42.8613470" lon="1.5743830">
        <ele>564.2</ele>
        <time>2022-06-26T05:50:06Z</time>
      </trkpt>
      <trkpt lat="42.8614080" lon="1.5742850">
        <ele>564.7</ele>
        <time>2022-06-26T05:50:09Z</time>
      </trkpt>
      <trkpt lat="42.8614860" lon="1.5741560">
        <ele>565.4</ele>
        <time>2022-06-26T05:50:13Z</time>
      </trkpt>
      <trkpt lat="42.8616140" lon="1.5739220">
        <ele>566.6</ele>
        <time>2022-06-26T05:50:20Z</time>
      </trkpt>
      <trkpt lat="42.8616470" lon="1.5738520">
        <ele>567.0</ele>
        <time>2022-06-26T05:50:22Z</time>
      </trkpt>
      <trkpt lat="42.8617070" lon="1.5737050">
        <ele>567.7</ele>
        <time>2022-06-26T05:50:26Z</time>
      </trkpt>
      <trkpt lat="42.8617900" lon="1.5734750">
        <ele>568.8</ele>
        <time>2022-06-26T05:50:32Z</time>
      </trkpt>
      <trkpt lat="42.8618040" lon="1.5734350">
        <ele>569.0</ele>
        <time>2022-06-26T05:50:33Z</time>
      </trkpt>
      <trkpt lat="42.8618980" lon="1.5731640">
        <ele>570.2</ele>
        <time>2022-06-26T05:50:40Z</time>
      </trkpt>
      <trkpt lat="42.8619460" lon="1.5730530">
        <ele>570.7</ele>
        <time>2022-06-26T05:50:43Z</time>
      </trkpt>
      <trkpt lat="42.8619980" lon="1.5729470">
        <ele>571.2</ele>
        <time>2022-06-26T05:50:46Z</time>
      </trkpt>
      <trkpt lat="42.8620930" lon="1.5727860">
        <ele>572.1</ele>
        <time>2022-06-26T05:50:51Z</time>
      </trkpt>
      <trkpt lat="42.8621620" lon="1.5727020">
        <ele>572.6</ele>
        <time>2022-06-26T05:50:54Z</time>
      </trkpt>
      <trkpt lat="42.8622350" lon="1.5726210">
        <ele>573.1</ele>
        <time>2022-06-26T05:50:57Z</time>
      </trkpt>
      <trkpt lat="42.8623940" lon="1.5724770">
        <ele>574.2</ele>
        <time>2022-06-26T05:51:03Z</time>
      </trkpt>
      <trkpt lat="42.8624200" lon="1.5724550">
        <ele>574.4</ele>
        <time>2022-06-26T05:51:04Z</time>
      </trkpt>
      <trkpt lat="42.8625210" lon="1.5723650">
        <ele>575.1</ele>
        <time>2022-06-26T05:51:08Z</time>
      </trkpt>
      <trkpt lat="42.8625460" lon="1.5723410">
        <ele>575.3</ele>
        <time>2022-06-26T05:51:09Z</time>
      </trkpt>
      <trkpt lat="42.8627000" lon="1.5721820">
        <ele>576.3</ele>
        <time>2022-06-26T05:51:14Z</time>
      </trkpt>
      <trkpt lat="42.8627250" lon="1.5721560">
        <ele>576.5</ele>
        <time>2022-06-26T05:51:16Z</time>
      </trkpt>
      <trkpt lat="42.8628640" lon="1.5719850">
        <ele>577.5</ele>
        <time>2022-06-26T05:51:21Z</time>
      </trkpt>
      <trkpt lat="42.8629080" lon="1.5719190">
        <ele>577.9</ele>
        <time>2022-06-26T05:51:24Z</time>
      </trkpt>
      <trkpt lat="42.8629770" lon="1.5718220">
        <ele>578.4</ele>
        <time>2022-06-26T05:51:27Z</time>
      </trkpt>
      <trkpt lat="42.8631080" lon="1.5716260">
        <ele>579.5</ele>
        <time>2022-06-26T05:51:33Z</time>
      </trkpt>
      <trkpt lat="42.8631510" lon="1.5715630">
        <ele>579.8</ele>
        <time>2022-06-26T05:51:35Z</time>
      </trkpt>
      <trkpt lat="42.8632360" lon="1.5714340">
        <ele>580.5</ele>
        <time>2022-06-26T05:51:39Z</time>
      </trkpt>
      <trkpt lat="42.8633400" lon="1.5712790">
        <ele>581.4</ele>
        <time>2022-06-26T05:51:44Z</time>
      </trkpt>
      <trkpt lat="42.8633790" lon="1.5712180">
        <ele>581.7</ele>
        <time>2022-06-26T05:51:46Z</time>
      </trkpt>
      <trkpt lat="42.8634640" lon="1.5711040">
        <ele>582.4</ele>
        <time>2022-06-26T05:51:50Z</time>
      </trkpt>
      <trkpt lat="42.8635900" lon="1.5709450">
        <ele>583.4</ele>
        <time>2022-06-26T05:51:56Z</time>
      </trkpt>
      <trkpt lat="42.8636350" lon="1.5709010">
        <ele>583.7</ele>
        <time>2022-06-26T05:51:58Z</time>
      </trkpt>
      <trkpt lat="42.8637550" lon="1.5707840">
        <ele>584.6</ele>
        <time>2022-06-26T05:52:03Z</time>
      </trkpt>
      <trkpt lat="42.8638050" lon="1.5707440">
        <ele>584.9</ele>
        <time>2022-06-26T05:52:05Z</time>
      </trkpt>
      <trkpt lat="42.8638790" lon="1.5706840">
        <ele>585.4</ele>
        <time>2022-06-26T05:52:08Z</time>
      </trkpt>
      <trkpt lat="42.8640340" lon="1.5705520">
        <ele>586.5</ele>
        <time>2022-06-26T05:52:14Z</time>
      </trkpt>
      <trkpt lat="42.8640610" lon="1.5705320">
        <ele>586.7</ele>
        <time>2022-06-26T05:52:15Z</time>
      </trkpt>
      <trkpt lat="42.8642050" lon="1.5704570">
        <ele>587.6</ele>
        <time>2022-06-26T05:52:20Z</time>
      </trkpt>
      <trkpt lat="42.8643170" lon="1.5703860">
        <ele>588.3</ele>
        <time>2022-06-26T05:52:24Z</time>
      </trkpt>
      <trkpt lat="42.8643470" lon="1.5703460">
        <ele>588.5</ele>
        <time>2022-06-26T05:52:25Z</time>
      </trkpt>
      <trkpt lat="42.8645140" lon="1.5702250">
        <ele>589.6</ele>
        <time>2022-06-26T05:52:31Z</time>
      </trkpt>
      <trkpt lat="42.8645650" lon="1.5701800">
        <ele>590.0</ele>
        <time>2022-06-26T05:52:33Z</time>
      </trkpt>
      <trkpt lat="42.8647050" lon="1.5700860">
        <ele>590.9</ele>
        <time>2022-06-26T05:52:38Z</time>
      </trkpt>
      <trkpt lat="42.8649000" lon="1.5699640">
        <ele>592.1</ele>
        <time>2022-06-26T05:52:45Z</time>
      </trkpt>
      <trkpt lat="42.8650710" lon="1.5698940">
        <ele>593.1</ele>
        <time>2022-06-26T05:52:51Z</time>
      </trkpt>
      <trkpt lat="42.8652130" lon="1.5698360">
        <ele>594.0</ele>
        <time>2022-06-26T05:52:56Z</time>
      </trkpt>
      <trkpt lat="42.8652700" lon="1.5698140">
        <ele>594.4</ele>
        <time>2022-06-26T05:52:58Z</time>
      </trkpt>
      <trkpt lat="42.8654450" lon="1.5697450">
        <ele>595.5</ele>
        <time>2022-06-26T05:53:04Z</time>
      </trkpt>
      <trkpt lat="42.8655900" lon="1.5696730">
        <ele>596.3</ele>
        <time>2022-06-26T05:53:09Z</time>
      </trkpt>
      <trkpt lat="42.8656470" lon="1.5696340">
        <ele>596.7</ele>
        <time>2022-06-26T05:53:11Z</time>
      </trkpt>
      <trkpt lat="42.8658660" lon="1.5694790">
        <ele>598.0</ele>
        <time>2022-06-26T05:53:18Z</time>
      </trkpt>
      <trkpt lat="42.8658950" lon="1.5694610">
        <ele>598.2</ele>
        <time>2022-06-26T05:53:20Z</time>
      </trkpt>
      <trkpt lat="42.8659780" lon="1.5694100">
        <ele>598.7</ele>
        <time>2022-06-26T05:53:23Z</time>
      </trkpt>
      <trkpt lat="42.8661450" lon="1.5693300">
        <ele>599.7</ele>
        <time>2022-06-26T05:53:29Z</time>
      </trkpt>
      <trkpt lat="42.8662810" lon="1.5692650">
        <ele>600.5</ele>
        <time>2022-06-26T05:53:34Z</time>
      </trkpt>
      <trkpt lat="42.8663680" lon="1.5692140">
        <ele>601.0</ele>
        <time>2022-06-26T05:53:37Z</time>
      </trkpt>
      <trkpt lat="42.8665140" lon="1.5691180">
        <ele>601.9</ele>
        <time>2022-06-26T05:53:42Z</time>
      </trkpt>
      <trkpt lat="42.8666500" lon="1.5690160">
        <ele>602.8</ele>
        <time>2022-06-26T05:53:46Z</time>
      </trkpt>
      <trkpt lat="42.8666770" lon="1.5689970">
        <ele>602.9</ele>
        <time>2022-06-26T05:53:48Z</time>
      </trkpt>
      <trkpt lat="42.8668920" lon="1.5688420">
        <ele>604.3</ele>
        <time>2022-06-26T05:53:55Z</time>
      </trkpt>
      <trkpt lat="42.8669690" lon="1.5687820">
        <ele>604.8</ele>
        <time>2022-06-26T05:53:58Z</time>
      </trkpt>
      <trkpt lat="42.8670730" lon="1.5687070">
        <ele>605.5</ele>
        <time>2022-06-26T05:54:02Z</time>
      </trkpt>
      <trkpt lat="42.8671780" lon="1.5686310">
        <ele>606.2</ele>
        <time>2022-06-26T05:54:07Z</time>
      </trkpt>
      <trkpt lat="42.8672320" lon="1.5685930">
        <ele>606.6</ele>
        <time>2022-06-26T05:54:09Z</time>
      </trkpt>
      <trkpt lat="42.8673660" lon="1.5684960">
        <ele>607.4</ele>
        <time>2022-06-26T05:54:14Z</time>
      </trkpt>
      <trkpt lat="42.8674800" lon="1.5684260">
        <ele>608.1</ele>
        <time>2022-06-26T05:54:17Z</time>
      </trkpt>
      <trkpt lat="42.8675630" lon="1.5683770">
        <ele>608.7</ele>
        <time>2022-06-26T05:54:20Z</time>
      </trkpt>
      <trkpt lat="42.8677750" lon="1.5682840">
        <ele>610.0</ele>
        <time>2022-06-26T05:54:27Z</time>
      </trkpt>
      <trkpt lat="42.8678080" lon="1.5682770">
        <ele>610.2</ele>
        <time>2022-06-26T05:54:28Z</time>
      </trkpt>
      <trkpt lat="42.8679720" lon="1.5682500">
        <ele>611.1</ele>
        <time>2022-06-26T05:54:33Z</time>
      </trkpt>
      <trkpt lat="42.8680710" lon="1.5682580">
        <ele>611.7</ele>
        <time>2022-06-26T05:54:36Z</time>
      </trkpt>
      <trkpt lat="42.8681670" lon="1.5682660">
        <ele>612.3</ele>
        <time>2022-06-26T05:54:39Z</time>
      </trkpt>
      <trkpt lat="42.8683560" lon="1.5682750">
        <ele>613.6</ele>
        <time>2022-06-26T05:54:45Z</time>
      </trkpt>
      <trkpt lat="42.8684180" lon="1.5682730">
        <ele>614.0</ele>
        <time>2022-06-26T05:54:47Z</time>
      </trkpt>
      <trkpt lat="42.8685130" lon="1.5682660">
        <ele>614.6</ele>
        <time>2022-06-26T05:54:50Z</time>
      </trkpt>
      <trkpt lat="42.8686400" lon="1.5682600">
        <ele>615.4</ele>
        <time>2022-06-26T05:54:54Z</time>
      </trkpt>
      <trkpt lat="42.8687660" lon="1.5682390">
        <ele>616.1</ele>
        <time>2022-06-26T05:54:58Z</time>
      </trkpt>
      <trkpt lat="42.8688280" lon="1.5682230">
        <ele>616.5</ele>
        <time>2022-06-26T05:55:00Z</time>
      </trkpt>
      <trkpt lat="42.8689790" lon="1.5681880">
        <ele>617.4</ele>
        <time>2022-06-26T05:55:05Z</time>
      </trkpt>
      <trkpt lat="42.8690980" lon="1.5681580">
        <ele>618.2</ele>
        <time>2022-06-26T05:55:09Z</time>
      </trkpt>
      <trkpt lat="42.8691580" lon="1.5681440">
        <ele>618.5</ele>
        <time>2022-06-26T05:55:11Z</time>
      </trkpt>
      <trkpt lat="42.8693400" lon="1.5680940">
        <ele>619.7</ele>
        <time>2022-06-26T05:55:17Z</time>
      </trkpt>
      <trkpt lat="42.8694310" lon="1.5680610">
        <ele>620.3</ele>
        <time>2022-06-26T05:55:20Z</time>
      </trkpt>
      <trkpt lat="42.8694910" lon="1.5680420">
        <ele>620.7</ele>
        <time>2022-06-26T05:55:22Z</time>
      </trkpt>
      <trkpt lat="42.8696780" lon="1.5679860">
        <ele>621.8</ele>
        <time>2022-06-26T05:55:28Z</time>
      </trkpt>
      <trkpt lat="42.8698390" lon="1.5679220">
        <ele>622.8</ele>
        <time>2022-06-26T05:55:33Z</time>
      </trkpt>
      <trkpt lat="42.8699640" lon="1.5678480">
        <ele>623.5</ele>
        <time>2022-06-26T05:55:37Z</time>
      </trkpt>
      <trkpt lat="42.8700280" lon="1.5678100">
        <ele>623.9</ele>
        <time>2022-06-26T05:55:40Z</time>
      </trkpt>
      <trkpt lat="42.8702210" lon="1.5677010">
        <ele>625.1</ele>
        <time>2022-06-26T05:55:45Z</time>
      </trkpt>
      <trkpt lat="42.8702530" lon="1.5676890">
        <ele>625.3</ele>
        <time>2022-06-26T05:55:46Z</time>
      </trkpt>
      <trkpt lat="42.8703480" lon="1.5676660">
        <ele>625.9</ele>
        <time>2022-06-26T05:55:49Z</time>
      </trkpt>
      <trkpt lat="42.8704690" lon="1.5676460">
        <ele>626.6</ele>
        <time>2022-06-26T05:55:54Z</time>
      </trkpt>
      <trkpt lat="42.8705310" lon="1.5676350">
        <ele>627.0</ele>
        <time>2022-06-26T05:55:56Z</time>
      </trkpt>
      <trkpt lat="42.8706590" lon="1.5676190">
        <ele>627.8</ele>
        <time>2022-06-26T05:56:00Z</time>
      </trkpt>
      <trkpt lat="42.8707860" lon="1.5675760">
        <ele>628.6</ele>
        <time>2022-06-26T05:56:04Z</time>
      </trkpt>
      <trkpt lat="42.8708470" lon="1.5675370">
        <ele>629.0</ele>
        <time>2022-06-26T05:56:06Z</time>
      </trkpt>
      <trkpt lat="42.8709510" lon="1.5674460">
        <ele>629.7</ele>
        <time>2022-06-26T05:56:10Z</time>
      </trkpt>
      <trkpt lat="42.8710210" lon="1.5673680">
        <ele>630.2</ele>
        <time>2022-06-26T05:56:13Z</time>
      </trkpt>
      <trkpt lat="42.8710980" lon="1.5672360">
        <ele>631.0</ele>
        <time>2022-06-26T05:56:17Z</time>
      </trkpt>
      <trkpt lat="42.8711150" lon="1.5672020">
        <ele>631.2</ele>
        <time>2022-06-26T05:56:18Z</time>
      </trkpt>
      <trkpt lat="42.8711820" lon="1.5670020">
        <ele>632.2</ele>
        <time>2022-06-26T05:56:23Z</time>
      </trkpt>
      <trkpt lat="42.8712050" lon="1.5669210">
        <ele>632.6</ele>
        <time>2022-06-26T05:56:25Z</time>
      </trkpt>
      <trkpt lat="42.8712460" lon="1.5667580">
        <ele>633.3</ele>
        <time>2022-06-26T05:56:29Z</time>
      </trkpt>
      <trkpt lat="42.8713010" lon="1.5665100">
        <ele>634.5</ele>
        <time>2022-06-26T05:56:35Z</time>
      </trkpt>
      <trkpt lat="42.8713200" lon="1.5664310">
        <ele>634.9</ele>
        <time>2022-06-26T05:56:37Z</time>
      </trkpt>
      <trkpt lat="42.8713550" lon="1.5662910">
        <ele>635.6</ele>
        <time>2022-06-26T05:56:41Z</time>
      </trkpt>
      <trkpt lat="42.8714100" lon="1.5660690">
        <ele>636.8</ele>
        <time>2022-06-26T05:56:47Z</time>
      </trkpt>
      <trkpt lat="42.8714640" lon="1.5658490">
        <ele>638.0</ele>
        <time>2022-06-26T05:56:53Z</time>
      </trkpt>
      <trkpt lat="42.8715100" lon="1.5656520">
        <ele>639.0</ele>
        <time>2022-06-26T05:56:58Z</time>
      </trkpt>
      <trkpt lat="42.8715190" lon="1.5656110">
        <ele>639.2</ele>
        <time>2022-06-26T05:56:59Z</time>
      </trkpt>
      <trkpt lat="42.8715820" lon="1.5653830">
        <ele>640.6</ele>
        <time>2022-06-26T05:57:05Z</time>
      </trkpt>
      <trkpt lat="42.8716150" lon="1.5653100">
        <ele>641.0</ele>
        <time>2022-06-26T05:57:07Z</time>
      </trkpt>
      <trkpt lat="42.8716790" lon="1.5652110">
        <ele>641.7</ele>
        <time>2022-06-26T05:57:10Z</time>
      </trkpt>
      <trkpt lat="42.8717830" lon="1.5651000">
        <ele>642.6</ele>
        <time>2022-06-26T05:57:14Z</time>
      </trkpt>
      <trkpt lat="42.8718400" lon="1.5650480">
        <ele>643.0</ele>
        <time>2022-06-26T05:57:16Z</time>
      </trkpt>
      <trkpt lat="42.8720200" lon="1.5648970">
        <ele>644.0</ele>
        <time>2022-06-26T05:57:22Z</time>
      </trkpt>
      <trkpt lat="42.8720810" lon="1.5648520">
        <ele>644.3</ele>
        <time>2022-06-26T05:57:24Z</time>
      </trkpt>
      <trkpt lat="42.8722730" lon="1.5647150">
        <ele>645.0</ele>
        <time>2022-06-26T05:57:30Z</time>
      </trkpt>
      <trkpt lat="42.8725040" lon="1.5645540">
        <ele>645.9</ele>
        <time>2022-06-26T05:57:36Z</time>
      </trkpt>
      <trkpt lat="42.8726390" lon="1.5644650">
        <ele>646.4</ele>
        <time>2022-06-26T05:57:41Z</time>
      </trkpt>
      <trkpt lat="42.8728630" lon="1.5643080">
        <ele>647.6</ele>
        <time>2022-06-26T05:57:47Z</time>
      </trkpt>
      <trkpt lat="42.8728630" lon="1.5643080">
        <ele>647.6</ele>
        <time>2022-06-26T05:57:48Z</time>
      </trkpt>
      <trkpt lat="42.8731910" lon="1.5640270">
        <ele>649.3</ele>
        <time>2022-06-26T05:57:58Z</time>
      </trkpt>
      <trkpt lat="42.8731910" lon="1.5640270">
        <ele>649.3</ele>
        <time>2022-06-26T05:57:59Z</time>
      </trkpt>
      <trkpt lat="42.8733560" lon="1.5638010">
        <ele>649.7</ele>
        <time>2022-06-26T05:58:06Z</time>
      </trkpt>
      <trkpt lat="42.8733750" lon="1.5637700">
        <ele>650.0</ele>
        <time>2022-06-26T05:58:07Z</time>
      </trkpt>
      <trkpt lat="42.8734800" lon="1.5635730">
        <ele>651.2</ele>
        <time>2022-06-26T05:58:13Z</time>
      </trkpt>
      <trkpt lat="42.8734960" lon="1.5635370">
        <ele>651.4</ele>
        <time>2022-06-26T05:58:14Z</time>
      </trkpt>
      <trkpt lat="42.8735310" lon="1.5634690">
        <ele>651.7</ele>
        <time>2022-06-26T05:58:16Z</time>
      </trkpt>
      <trkpt lat="42.8735890" lon="1.5633120">
        <ele>652.4</ele>
        <time>2022-06-26T05:58:20Z</time>
      </trkpt>
      <trkpt lat="42.8736940" lon="1.5630120">
        <ele>652.9</ele>
        <time>2022-06-26T05:58:27Z</time>
      </trkpt>
      <trkpt lat="42.8737400" lon="1.5628730">
        <ele>653.0</ele>
        <time>2022-06-26T05:58:30Z</time>
      </trkpt>
      <trkpt lat="42.8738590" lon="1.5624720">
        <ele>653.2</ele>
        <time>2022-06-26T05:58:38Z</time>
      </trkpt>
      <trkpt lat="42.8740750" lon="1.5620390">
        <ele>653.7</ele>
        <time>2022-06-26T05:58:46Z</time>
      </trkpt>
      <trkpt lat="42.8741770" lon="1.5618510">
        <ele>654.5</ele>
        <time>2022-06-26T05:58:50Z</time>
      </trkpt>
      <trkpt lat="42.8742720" lon="1.5616790">
        <ele>655.4</ele>
        <time>2022-06-26T05:58:54Z</time>
      </trkpt>
      <trkpt lat="42.8743620" lon="1.5615160">
        <ele>656.4</ele>
        <time>2022-06-26T05:58:58Z</time>
      </trkpt>
      <trkpt lat="42.8744780" lon="1.5613150">
        <ele>657.8</ele>
        <time>2022-06-26T05:59:03Z</time>
      </trkpt>
      <trkpt lat="42.8745440" lon="1.5611910">
        <ele>658.7</ele>
        <time>2022-06-26T05:59:06Z</time>
      </trkpt>
      <trkpt lat="42.8745670" lon="1.5611500">
        <ele>659.0</ele>
        <time>2022-06-26T05:59:07Z</time>
      </trkpt>
      <trkpt lat="42.8746560" lon="1.5609430">
        <ele>660.4</ele>
        <time>2022-06-26T05:59:12Z</time>
      </trkpt>
      <trkpt lat="42.8747200" lon="1.5607880">
        <ele>661.5</ele>
        <time>2022-06-26T05:59:16Z</time>
      </trkpt>
      <trkpt lat="42.8747350" lon="1.5607520">
        <ele>661.8</ele>
        <time>2022-06-26T05:59:17Z</time>
      </trkpt>
      <trkpt lat="42.8747840" lon="1.5605950">
        <ele>662.7</ele>
        <time>2022-06-26T05:59:21Z</time>
      </trkpt>
      <trkpt lat="42.8748190" lon="1.5604730">
        <ele>663.4</ele>
        <time>2022-06-26T05:59:24Z</time>
      </trkpt>
      <trkpt lat="42.8748300" lon="1.5604310">
        <ele>663.6</ele>
        <time>2022-06-26T05:59:25Z</time>
      </trkpt>
      <trkpt lat="42.8748690" lon="1.5602130">
        <ele>664.5</ele>
        <time>2022-06-26T05:59:30Z</time>
      </trkpt>
      <trkpt lat="42.8748750" lon="1.5601750">
        <ele>664.6</ele>
        <time>2022-06-26T05:59:31Z</time>
      </trkpt>
      <trkpt lat="42.8749000" lon="1.5600540">
        <ele>664.9</ele>
        <time>2022-06-26T05:59:34Z</time>
      </trkpt>
      <trkpt lat="42.8749340" lon="1.5598530">
        <ele>665.3</ele>
        <time>2022-06-26T05:59:38Z</time>
      </trkpt>
      <trkpt lat="42.8749400" lon="1.5598000">
        <ele>665.3</ele>
        <time>2022-06-26T05:59:39Z</time>
      </trkpt>
      <trkpt lat="42.8750150" lon="1.5594000">
        <ele>665.0</ele>
        <time>2022-06-26T05:59:46Z</time>
      </trkpt>
      <trkpt lat="42.8750230" lon="1.5593370">
        <ele>664.8</ele>
        <time>2022-06-26T05:59:47Z</time>
      </trkpt>
      <trkpt lat="42.8750480" lon="1.5590410">
        <ele>663.7</ele>
        <time>2022-06-26T05:59:51Z</time>
      </trkpt>
      <trkpt lat="42.8750420" lon="1.5585610">
        <ele>661.5</ele>
        <time>2022-06-26T05:59:56Z</time>
      </trkpt>
      <trkpt lat="42.8750190" lon="1.5582160">
        <ele>659.6</ele>
        <time>2022-06-26T05:59:59Z</time>
      </trkpt>
      <trkpt lat="42.8749980" lon="1.5579640">
        <ele>658.2</ele>
        <time>2022-06-26T06:00:01Z</time>
      </trkpt>
      <trkpt lat="42.8749830" lon="1.5577070">
        <ele>656.9</ele>
        <time>2022-06-26T06:00:03Z</time>
      </trkpt>
      <trkpt lat="42.8749780" lon="1.5574340">
        <ele>655.6</ele>
        <time>2022-06-26T06:00:05Z</time>
      </trkpt>
      <trkpt lat="42.8749780" lon="1.5572960">
        <ele>654.9</ele>
        <time>2022-06-26T06:00:06Z</time>
      </trkpt>
      <trkpt lat="42.8749800" lon="1.5571540">
        <ele>654.2</ele>
        <time>2022-06-26T06:00:07Z</time>
      </trkpt>
      <trkpt lat="42.8749900" lon="1.5568600">
        <ele>652.8</ele>
        <time>2022-06-26T06:00:09Z</time>
      </trkpt>
      <trkpt lat="42.8750190" lon="1.5565600">
        <ele>651.5</ele>
        <time>2022-06-26T06:00:11Z</time>
      </trkpt>
      <trkpt lat="42.8750530" lon="1.5562720">
        <ele>650.5</ele>
        <time>2022-06-26T06:00:13Z</time>
      </trkpt>
      <trkpt lat="42.8750890" lon="1.5559920">
        <ele>649.8</ele>
        <time>2022-06-26T06:00:15Z</time>
      </trkpt>
      <trkpt lat="42.8751130" lon="1.5557190">
        <ele>649.2</ele>
        <time>2022-06-26T06:00:17Z</time>
      </trkpt>
      <trkpt lat="42.8751530" lon="1.5554460">
        <ele>648.4</ele>
        <time>2022-06-26T06:00:19Z</time>
      </trkpt>
      <trkpt lat="42.8752470" lon="1.5550640">
        <ele>647.2</ele>
        <time>2022-06-26T06:00:22Z</time>
      </trkpt>
      <trkpt lat="42.8752770" lon="1.5549400">
        <ele>646.8</ele>
        <time>2022-06-26T06:00:23Z</time>
      </trkpt>
      <trkpt lat="42.8753240" lon="1.5545460">
        <ele>645.7</ele>
        <time>2022-06-26T06:00:26Z</time>
      </trkpt>
      <trkpt lat="42.8753230" lon="1.5544130">
        <ele>645.3</ele>
        <time>2022-06-26T06:00:27Z</time>
      </trkpt>
      <trkpt lat="42.8752950" lon="1.5540120">
        <ele>643.5</ele>
        <time>2022-06-26T06:00:30Z</time>
      </trkpt>
      <trkpt lat="42.8752530" lon="1.5535810">
        <ele>641.6</ele>
        <time>2022-06-26T06:00:33Z</time>
      </trkpt>
      <trkpt lat="42.8752480" lon="1.5531280">
        <ele>639.9</ele>
        <time>2022-06-26T06:00:36Z</time>
      </trkpt>
      <trkpt lat="42.8752820" lon="1.5528370">
        <ele>639.0</ele>
        <time>2022-06-26T06:00:38Z</time>
      </trkpt>
      <trkpt lat="42.8753140" lon="1.5525470">
        <ele>638.1</ele>
        <time>2022-06-26T06:00:40Z</time>
      </trkpt>
      <trkpt lat="42.8753490" lon="1.5522660">
        <ele>637.2</ele>
        <time>2022-06-26T06:00:42Z</time>
      </trkpt>
      <trkpt lat="42.8753970" lon="1.5518360">
        <ele>635.3</ele>
        <time>2022-06-26T06:00:45Z</time>
      </trkpt>
      <trkpt lat="42.8754330" lon="1.5515410">
        <ele>634.0</ele>
        <time>2022-06-26T06:00:47Z</time>
      </trkpt>
      <trkpt lat="42.8754520" lon="1.5513940">
        <ele>633.3</ele>
        <time>2022-06-26T06:00:48Z</time>
      </trkpt>
      <trkpt lat="42.8755040" lon="1.5509540">
        <ele>631.6</ele>
        <time>2022-06-26T06:00:51Z</time>
      </trkpt>
      <trkpt lat="42.8755210" lon="1.5508220">
        <ele>631.0</ele>
        <time>2022-06-26T06:00:52Z</time>
      </trkpt>
      <trkpt lat="42.8755470" lon="1.5507000">
        <ele>630.4</ele>
        <time>2022-06-26T06:00:53Z</time>
      </trkpt>
      <trkpt lat="42.8756320" lon="1.5504760">
        <ele>629.2</ele>
        <time>2022-06-26T06:00:55Z</time>
      </trkpt>
      <trkpt lat="42.8756950" lon="1.5503720">
        <ele>628.5</ele>
        <time>2022-06-26T06:00:56Z</time>
      </trkpt>
      <trkpt lat="42.8757690" lon="1.5502770">
        <ele>627.9</ele>
        <time>2022-06-26T06:00:57Z</time>
      </trkpt>
      <trkpt lat="42.8759380" lon="1.5501210">
        <ele>627.0</ele>
        <time>2022-06-26T06:00:59Z</time>
      </trkpt>
      <trkpt lat="42.8760260" lon="1.5500540">
        <ele>626.7</ele>
        <time>2022-06-26T06:01:00Z</time>
      </trkpt>
      <trkpt lat="42.8762780" lon="1.5498870">
        <ele>626.8</ele>
        <time>2022-06-26T06:01:03Z</time>
      </trkpt>
      <trkpt lat="42.8763570" lon="1.5498400">
        <ele>626.9</ele>
        <time>2022-06-26T06:01:04Z</time>
      </trkpt>
      <trkpt lat="42.8764350" lon="1.5497900">
        <ele>627.0</ele>
        <time>2022-06-26T06:01:05Z</time>
      </trkpt>
      <trkpt lat="42.8767100" lon="1.5496270">
        <ele>628.0</ele>
        <time>2022-06-26T06:01:09Z</time>
      </trkpt>
      <trkpt lat="42.8769700" lon="1.5494700">
        <ele>629.5</ele>
        <time>2022-06-26T06:01:14Z</time>
      </trkpt>
      <trkpt lat="42.8771130" lon="1.5493470">
        <ele>630.6</ele>
        <time>2022-06-26T06:01:18Z</time>
      </trkpt>
      <trkpt lat="42.8771790" lon="1.5492860">
        <ele>631.1</ele>
        <time>2022-06-26T06:01:20Z</time>
      </trkpt>
      <trkpt lat="42.8772090" lon="1.5492540">
        <ele>631.4</ele>
        <time>2022-06-26T06:01:21Z</time>
      </trkpt>
      <trkpt lat="42.8772380" lon="1.5492210">
        <ele>631.6</ele>
        <time>2022-06-26T06:01:22Z</time>
      </trkpt>
      <trkpt lat="42.8773240" lon="1.5491110">
        <ele>631.9</ele>
        <time>2022-06-26T06:01:25Z</time>
      </trkpt>
      <trkpt lat="42.8774110" lon="1.5490060">
        <ele>632.3</ele>
        <time>2022-06-26T06:01:28Z</time>
      </trkpt>
      <trkpt lat="42.8774670" lon="1.5489370">
        <ele>632.9</ele>
        <time>2022-06-26T06:01:30Z</time>
      </trkpt>
      <trkpt lat="42.8775490" lon="1.5488400">
        <ele>633.7</ele>
        <time>2022-06-26T06:01:33Z</time>
      </trkpt>
      <trkpt lat="42.8776010" lon="1.5487750">
        <ele>634.3</ele>
        <time>2022-06-26T06:01:35Z</time>
      </trkpt>
      <trkpt lat="42.8776690" lon="1.5486740">
        <ele>635.1</ele>
        <time>2022-06-26T06:01:38Z</time>
      </trkpt>
      <trkpt lat="42.8777130" lon="1.5486020">
        <ele>635.6</ele>
        <time>2022-06-26T06:01:40Z</time>
      </trkpt>
      <trkpt lat="42.8777590" lon="1.5485280">
        <ele>636.1</ele>
        <time>2022-06-26T06:01:42Z</time>
      </trkpt>
      <trkpt lat="42.8778420" lon="1.5483730">
        <ele>637.1</ele>
        <time>2022-06-26T06:01:46Z</time>
      </trkpt>
      <trkpt lat="42.8779130" lon="1.5482190">
        <ele>638.0</ele>
        <time>2022-06-26T06:01:50Z</time>
      </trkpt>
      <trkpt lat="42.8779680" lon="1.5481010">
        <ele>638.7</ele>
        <time>2022-06-26T06:01:53Z</time>
      </trkpt>
      <trkpt lat="42.8780360" lon="1.5479830">
        <ele>639.5</ele>
        <time>2022-06-26T06:01:56Z</time>
      </trkpt>
      <trkpt lat="42.8780830" lon="1.5479150">
        <ele>640.0</ele>
        <time>2022-06-26T06:01:58Z</time>
      </trkpt>
      <trkpt lat="42.8782060" lon="1.5477800">
        <ele>641.2</ele>
        <time>2022-06-26T06:02:03Z</time>
      </trkpt>
      <trkpt lat="42.8782970" lon="1.5476870">
        <ele>642.2</ele>
        <time>2022-06-26T06:02:07Z</time>
      </trkpt>
      <trkpt lat="42.8783610" lon="1.5476170">
        <ele>642.9</ele>
        <time>2022-06-26T06:02:10Z</time>
      </trkpt>
      <trkpt lat="42.8783980" lon="1.5475670">
        <ele>643.4</ele>
        <time>2022-06-26T06:02:12Z</time>
      </trkpt>
      <trkpt lat="42.8784730" lon="1.5474770">
        <ele>644.2</ele>
        <time>2022-06-26T06:02:16Z</time>
      </trkpt>
      <trkpt lat="42.8785770" lon="1.5473380">
        <ele>645.4</ele>
        <time>2022-06-26T06:02:21Z</time>
      </trkpt>
      <trkpt lat="42.8786750" lon="1.5471820">
        <ele>646.5</ele>
        <time>2022-06-26T06:02:26Z</time>
      </trkpt>
      <trkpt lat="42.8787650" lon="1.5470600">
        <ele>647.2</ele>
        <time>2022-06-26T06:02:30Z</time>
      </trkpt>
      <trkpt lat="42.8788210" lon="1.5470050">
        <ele>647.7</ele>
        <time>2022-06-26T06:02:32Z</time>
      </trkpt>
      <trkpt lat="42.8790130" lon="1.5468540">
        <ele>649.0</ele>
        <time>2022-06-26T06:02:39Z</time>
      </trkpt>
      <trkpt lat="42.8790410" lon="1.5468360">
        <ele>649.2</ele>
        <time>2022-06-26T06:02:40Z</time>
      </trkpt>
      <trkpt lat="42.8792080" lon="1.5467380">
        <ele>650.5</ele>
        <time>2022-06-26T06:02:46Z</time>
      </trkpt>
      <trkpt lat="42.8792890" lon="1.5466980">
        <ele>651.2</ele>
        <time>2022-06-26T06:02:49Z</time>
      </trkpt>
      <trkpt lat="42.8793390" lon="1.5466640">
        <ele>651.7</ele>
        <time>2022-06-26T06:02:51Z</time>
      </trkpt>
      <trkpt lat="42.8794730" lon="1.5465770">
        <ele>652.9</ele>
        <time>2022-06-26T06:02:56Z</time>
      </trkpt>
      <trkpt lat="42.8795220" lon="1.5465390">
        <ele>653.4</ele>
        <time>2022-06-26T06:02:58Z</time>
      </trkpt>
      <trkpt lat="42.8795670" lon="1.5465020">
        <ele>653.8</ele>
        <time>2022-06-26T06:03:00Z</time>
      </trkpt>
      <trkpt lat="42.8796380" lon="1.5464270">
        <ele>654.5</ele>
        <time>2022-06-26T06:03:03Z</time>
      </trkpt>
      <trkpt lat="42.8797050" lon="1.5463440">
        <ele>655.2</ele>
        <time>2022-06-26T06:03:06Z</time>
      </trkpt>
      <trkpt lat="42.8798080" lon="1.5461990">
        <ele>656.3</ele>
        <time>2022-06-26T06:03:11Z</time>
      </trkpt>
      <trkpt lat="42.8798300" lon="1.5461690">
        <ele>656.5</ele>
        <time>2022-06-26T06:03:12Z</time>
      </trkpt>
      <trkpt lat="42.8799340" lon="1.5459820">
        <ele>657.6</ele>
        <time>2022-06-26T06:03:18Z</time>
      </trkpt>
      <trkpt lat="42.8800270" lon="1.5457150">
        <ele>659.0</ele>
        <time>2022-06-26T06:03:25Z</time>
      </trkpt>
      <trkpt lat="42.8800620" lon="1.5454250">
        <ele>660.2</ele>
        <time>2022-06-26T06:03:32Z</time>
      </trkpt>
      <trkpt lat="42.8800870" lon="1.5452910">
        <ele>660.6</ele>
        <time>2022-06-26T06:03:35Z</time>
      </trkpt>
      <trkpt lat="42.8800940" lon="1.5451550">
        <ele>660.7</ele>
        <time>2022-06-26T06:03:38Z</time>
      </trkpt>
      <trkpt lat="42.8800990" lon="1.5449310">
        <ele>660.9</ele>
        <time>2022-06-26T06:03:43Z</time>
      </trkpt>
      <trkpt lat="42.8800980" lon="1.5448870">
        <ele>661.1</ele>
        <time>2022-06-26T06:03:44Z</time>
      </trkpt>
      <trkpt lat="42.8800870" lon="1.5446200">
        <ele>662.4</ele>
        <time>2022-06-26T06:03:50Z</time>
      </trkpt>
      <trkpt lat="42.8800790" lon="1.5445300">
        <ele>662.9</ele>
        <time>2022-06-26T06:03:52Z</time>
      </trkpt>
      <trkpt lat="42.8800530" lon="1.5443020">
        <ele>664.0</ele>
        <time>2022-06-26T06:03:57Z</time>
      </trkpt>
      <trkpt lat="42.8800130" lon="1.5440850">
        <ele>665.2</ele>
        <time>2022-06-26T06:04:02Z</time>
      </trkpt>
      <trkpt lat="42.8799960" lon="1.5440020">
        <ele>665.7</ele>
        <time>2022-06-26T06:04:04Z</time>
      </trkpt>
      <trkpt lat="42.8799540" lon="1.5438490">
        <ele>666.8</ele>
        <time>2022-06-26T06:04:08Z</time>
      </trkpt>
      <trkpt lat="42.8798610" lon="1.5435890">
        <ele>668.8</ele>
        <time>2022-06-26T06:04:15Z</time>
      </trkpt>
      <trkpt lat="42.8797750" lon="1.5434190">
        <ele>670.4</ele>
        <time>2022-06-26T06:04:20Z</time>
      </trkpt>
      <trkpt lat="42.8796800" lon="1.5432620">
        <ele>671.8</ele>
        <time>2022-06-26T06:04:25Z</time>
      </trkpt>
      <trkpt lat="42.8794450" lon="1.5429210">
        <ele>674.0</ele>
        <time>2022-06-26T06:04:36Z</time>
      </trkpt>
      <trkpt lat="42.8793130" lon="1.5427000">
        <ele>674.4</ele>
        <time>2022-06-26T06:04:42Z</time>
      </trkpt>
      <trkpt lat="42.8792210" lon="1.5425270">
        <ele>674.6</ele>
        <time>2022-06-26T06:04:46Z</time>
      </trkpt>
      <trkpt lat="42.8789870" lon="1.5419700">
        <ele>675.0</ele>
        <time>2022-06-26T06:04:57Z</time>
      </trkpt>
      <trkpt lat="42.8789670" lon="1.5419130">
        <ele>675.0</ele>
        <time>2022-06-26T06:04:58Z</time>
      </trkpt>
      <trkpt lat="42.8788190" lon="1.5413870">
        <ele>675.6</ele>
        <time>2022-06-26T06:05:07Z</time>
      </trkpt>
      <trkpt lat="42.8787100" lon="1.5408030">
        <ele>676.3</ele>
        <time>2022-06-26T06:05:17Z</time>
      </trkpt>
      <trkpt lat="42.8786850" lon="1.5406850">
        <ele>676.4</ele>
        <time>2022-06-26T06:05:19Z</time>
      </trkpt>
      <trkpt lat="42.8785420" lon="1.5399610">
        <ele>676.7</ele>
        <time>2022-06-26T06:05:31Z</time>
      </trkpt>
      <trkpt lat="42.8784310" lon="1.5393870">
        <ele>676.8</ele>
        <time>2022-06-26T06:05:40Z</time>
      </trkpt>
      <trkpt lat="42.8784180" lon="1.5393190">
        <ele>676.8</ele>
        <time>2022-06-26T06:05:41Z</time>
      </trkpt>
      <trkpt lat="42.8783120" lon="1.5387490">
        <ele>676.4</ele>
        <time>2022-06-26T06:05:49Z</time>
      </trkpt>
      <trkpt lat="42.8782590" lon="1.5381520">
        <ele>676.4</ele>
        <time>2022-06-26T06:05:57Z</time>
      </trkpt>
      <trkpt lat="42.8782510" lon="1.5374430">
        <ele>676.8</ele>
        <time>2022-06-26T06:06:07Z</time>
      </trkpt>
      <trkpt lat="42.8782560" lon="1.5369510">
        <ele>677.3</ele>
        <time>2022-06-26T06:06:14Z</time>
      </trkpt>
      <trkpt lat="42.8782630" lon="1.5366810">
        <ele>677.5</ele>
        <time>2022-06-26T06:06:18Z</time>
      </trkpt>
      <trkpt lat="42.8782640" lon="1.5366130">
        <ele>677.6</ele>
        <time>2022-06-26T06:06:19Z</time>
      </trkpt>
      <trkpt lat="42.8782790" lon="1.5358730">
        <ele>678.3</ele>
        <time>2022-06-26T06:06:30Z</time>
      </trkpt>
      <trkpt lat="42.8782920" lon="1.5352620">
        <ele>679.2</ele>
        <time>2022-06-26T06:06:39Z</time>
      </trkpt>
      <trkpt lat="42.8783190" lon="1.5346180">
        <ele>680.4</ele>
        <time>2022-06-26T06:06:49Z</time>
      </trkpt>
      <trkpt lat="42.8783990" lon="1.5339310">
        <ele>681.8</ele>
        <time>2022-06-26T06:07:00Z</time>
      </trkpt>
      <trkpt lat="42.8784910" lon="1.5333200">
        <ele>682.7</ele>
        <time>2022-06-26T06:07:10Z</time>
      </trkpt>
      <trkpt lat="42.8785840" lon="1.5326320">
        <ele>683.6</ele>
        <time>2022-06-26T06:07:21Z</time>
      </trkpt>
      <trkpt lat="42.8785960" lon="1.5320480">
        <ele>684.2</ele>
        <time>2022-06-26T06:07:30Z</time>
      </trkpt>
      <trkpt lat="42.8785260" lon="1.5314660">
        <ele>684.8</ele>
        <time>2022-06-26T06:07:39Z</time>
      </trkpt>
      <trkpt lat="42.8784080" lon="1.5308180">
        <ele>685.3</ele>
        <time>2022-06-26T06:07:49Z</time>
      </trkpt>
      <trkpt lat="42.8782590" lon="1.5300940">
        <ele>685.7</ele>
        <time>2022-06-26T06:08:00Z</time>
      </trkpt>
      <trkpt lat="42.8782450" lon="1.5300280">
        <ele>685.7</ele>
        <time>2022-06-26T06:08:01Z</time>
      </trkpt>
      <trkpt lat="42.8781190" lon="1.5294380">
        <ele>686.0</ele>
        <time>2022-06-26T06:08:10Z</time>
      </trkpt>
      <trkpt lat="42.8780690" lon="1.5290970">
        <ele>686.2</ele>
        <time>2022-06-26T06:08:15Z</time>
      </trkpt>
      <trkpt lat="42.8780570" lon="1.5288840">
        <ele>686.4</ele>
        <time>2022-06-26T06:08:18Z</time>
      </trkpt>
      <trkpt lat="42.8780810" lon="1.5283310">
        <ele>686.8</ele>
        <time>2022-06-26T06:08:26Z</time>
      </trkpt>
      <trkpt lat="42.8781080" lon="1.5281310">
        <ele>686.9</ele>
        <time>2022-06-26T06:08:29Z</time>
      </trkpt>
      <trkpt lat="42.8781670" lon="1.5278040">
        <ele>687.3</ele>
        <time>2022-06-26T06:08:34Z</time>
      </trkpt>
      <trkpt lat="42.8781940" lon="1.5276740">
        <ele>687.6</ele>
        <time>2022-06-26T06:08:36Z</time>
      </trkpt>
      <trkpt lat="42.8782900" lon="1.5271850">
        <ele>688.6</ele>
        <time>2022-06-26T06:08:44Z</time>
      </trkpt>
      <trkpt lat="42.8783990" lon="1.5266190">
        <ele>689.4</ele>
        <time>2022-06-26T06:08:53Z</time>
      </trkpt>
      <trkpt lat="42.8784290" lon="1.5264950">
        <ele>689.6</ele>
        <time>2022-06-26T06:08:55Z</time>
      </trkpt>
      <trkpt lat="42.8784910" lon="1.5261700">
        <ele>690.0</ele>
        <time>2022-06-26T06:09:00Z</time>
      </trkpt>
      <trkpt lat="42.8785040" lon="1.5261070">
        <ele>690.1</ele>
        <time>2022-06-26T06:09:01Z</time>
      </trkpt>
      <trkpt lat="42.8785700" lon="1.5257360">
        <ele>690.8</ele>
        <time>2022-06-26T06:09:07Z</time>
      </trkpt>
      <trkpt lat="42.8786180" lon="1.5254930">
        <ele>691.3</ele>
        <time>2022-06-26T06:09:11Z</time>
      </trkpt>
      <trkpt lat="42.8786730" lon="1.5251860">
        <ele>691.9</ele>
        <time>2022-06-26T06:09:16Z</time>
      </trkpt>
      <trkpt lat="42.8787520" lon="1.5247780">
        <ele>692.8</ele>
        <time>2022-06-26T06:09:23Z</time>
      </trkpt>
      <trkpt lat="42.8787620" lon="1.5247220">
        <ele>693.0</ele>
        <time>2022-06-26T06:09:24Z</time>
      </trkpt>
      <trkpt lat="42.8788440" lon="1.5243030">
        <ele>693.8</ele>
        <time>2022-06-26T06:09:31Z</time>
      </trkpt>
      <trkpt lat="42.8788700" lon="1.5241760">
        <ele>694.0</ele>
        <time>2022-06-26T06:09:33Z</time>
      </trkpt>
      <trkpt lat="42.8790050" lon="1.5235020">
        <ele>695.0</ele>
        <time>2022-06-26T06:09:44Z</time>
      </trkpt>
      <trkpt lat="42.8790160" lon="1.5234410">
        <ele>695.1</ele>
        <time>2022-06-26T06:09:45Z</time>
      </trkpt>
      <trkpt lat="42.8790970" lon="1.5230370">
        <ele>696.3</ele>
        <time>2022-06-26T06:09:52Z</time>
      </trkpt>
      <trkpt lat="42.8791410" lon="1.5227760">
        <ele>697.2</ele>
        <time>2022-06-26T06:09:57Z</time>
      </trkpt>
      <trkpt lat="42.8791910" lon="1.5224740">
        <ele>698.4</ele>
        <time>2022-06-26T06:10:03Z</time>
      </trkpt>
      <trkpt lat="42.8792080" lon="1.5223750">
        <ele>698.8</ele>
        <time>2022-06-26T06:10:05Z</time>
      </trkpt>
      <trkpt lat="42.8792590" lon="1.5220880">
        <ele>700.1</ele>
        <time>2022-06-26T06:10:11Z</time>
      </trkpt>
      <trkpt lat="42.8793360" lon="1.5216910">
        <ele>701.6</ele>
        <time>2022-06-26T06:10:19Z</time>
      </trkpt>
      <trkpt lat="42.8793560" lon="1.5215920">
        <ele>701.9</ele>
        <time>2022-06-26T06:10:21Z</time>
      </trkpt>
      <trkpt lat="42.8794630" lon="1.5210770">
        <ele>702.9</ele>
        <time>2022-06-26T06:10:31Z</time>
      </trkpt>
      <trkpt lat="42.8794730" lon="1.5210220">
        <ele>703.0</ele>
        <time>2022-06-26T06:10:32Z</time>
      </trkpt>
      <trkpt lat="42.8794820" lon="1.5209660">
        <ele>703.1</ele>
        <time>2022-06-26T06:10:33Z</time>
      </trkpt>
      <trkpt lat="42.8794910" lon="1.5209110">
        <ele>703.2</ele>
        <time>2022-06-26T06:10:34Z</time>
      </trkpt>
      <trkpt lat="42.8795130" lon="1.5208010">
        <ele>703.3</ele>
        <time>2022-06-26T06:10:35Z</time>
      </trkpt>
      <trkpt lat="42.8795250" lon="1.5207460">
        <ele>703.4</ele>
        <time>2022-06-26T06:10:36Z</time>
      </trkpt>
      <trkpt lat="42.8795360" lon="1.5206910">
        <ele>703.5</ele>
        <time>2022-06-26T06:10:38Z</time>
      </trkpt>
      <trkpt lat="42.8795540" lon="1.5206360">
        <ele>703.6</ele>
        <time>2022-06-26T06:10:39Z</time>
      </trkpt>
      <trkpt lat="42.8796240" lon="1.5203780">
        <ele>704.2</ele>
        <time>2022-06-26T06:10:44Z</time>
      </trkpt>
      <trkpt lat="42.8796620" lon="1.5201870">
        <ele>704.9</ele>
        <time>2022-06-26T06:10:47Z</time>
      </trkpt>
      <trkpt lat="42.8796940" lon="1.5200480">
        <ele>705.4</ele>
        <time>2022-06-26T06:10:50Z</time>
      </trkpt>
      <trkpt lat="42.8797110" lon="1.5199000">
        <ele>706.1</ele>
        <time>2022-06-26T06:10:53Z</time>
      </trkpt>
      <trkpt lat="42.8797220" lon="1.5197600">
        <ele>706.8</ele>
        <time>2022-06-26T06:10:57Z</time>
      </trkpt>
      <trkpt lat="42.8797410" lon="1.5196310">
        <ele>707.5</ele>
        <time>2022-06-26T06:10:59Z</time>
      </trkpt>
      <trkpt lat="42.8797460" lon="1.5195870">
        <ele>707.8</ele>
        <time>2022-06-26T06:11:01Z</time>
      </trkpt>
      <trkpt lat="42.8797660" lon="1.5193540">
        <ele>708.9</ele>
        <time>2022-06-26T06:11:06Z</time>
      </trkpt>
      <trkpt lat="42.8797730" lon="1.5192630">
        <ele>709.3</ele>
        <time>2022-06-26T06:11:08Z</time>
      </trkpt>
      <trkpt lat="42.8797790" lon="1.5191300">
        <ele>710.0</ele>
        <time>2022-06-26T06:11:11Z</time>
      </trkpt>
      <trkpt lat="42.8797980" lon="1.5189100">
        <ele>710.9</ele>
        <time>2022-06-26T06:11:16Z</time>
      </trkpt>
      <trkpt lat="42.8798210" lon="1.5186550">
        <ele>712.1</ele>
        <time>2022-06-26T06:11:22Z</time>
      </trkpt>
      <trkpt lat="42.8798530" lon="1.5184940">
        <ele>712.8</ele>
        <time>2022-06-26T06:11:26Z</time>
      </trkpt>
      <trkpt lat="42.8798770" lon="1.5184090">
        <ele>713.2</ele>
        <time>2022-06-26T06:11:28Z</time>
      </trkpt>
      <trkpt lat="42.8799750" lon="1.5181890">
        <ele>714.4</ele>
        <time>2022-06-26T06:11:34Z</time>
      </trkpt>
      <trkpt lat="42.8800120" lon="1.5181280">
        <ele>714.8</ele>
        <time>2022-06-26T06:11:36Z</time>
      </trkpt>
      <trkpt lat="42.8801210" lon="1.5179570">
        <ele>716.0</ele>
        <time>2022-06-26T06:11:42Z</time>
      </trkpt>
      <trkpt lat="42.8801960" lon="1.5178460">
        <ele>716.8</ele>
        <time>2022-06-26T06:11:46Z</time>
      </trkpt>
      <trkpt lat="42.8802140" lon="1.5178190">
        <ele>717.0</ele>
        <time>2022-06-26T06:11:47Z</time>
      </trkpt>
      <trkpt lat="42.8802860" lon="1.5177050">
        <ele>717.8</ele>
        <time>2022-06-26T06:11:51Z</time>
      </trkpt>
      <trkpt lat="42.8803710" lon="1.5175460">
        <ele>718.9</ele>
        <time>2022-06-26T06:11:56Z</time>
      </trkpt>
      <trkpt lat="42.8803840" lon="1.5175110">
        <ele>719.1</ele>
        <time>2022-06-26T06:11:57Z</time>
      </trkpt>
      <trkpt lat="42.8804160" lon="1.5173590">
        <ele>719.9</ele>
        <time>2022-06-26T06:12:01Z</time>
      </trkpt>
      <trkpt lat="42.8804150" lon="1.5172390">
        <ele>720.5</ele>
        <time>2022-06-26T06:12:04Z</time>
      </trkpt>
      <trkpt lat="42.8804060" lon="1.5171220">
        <ele>721.1</ele>
        <time>2022-06-26T06:12:07Z</time>
      </trkpt>
      <trkpt lat="42.8803580" lon="1.5169070">
        <ele>722.3</ele>
        <time>2022-06-26T06:12:13Z</time>
      </trkpt>
      <trkpt lat="42.8803480" lon="1.5168710">
        <ele>722.6</ele>
        <time>2022-06-26T06:12:14Z</time>
      </trkpt>
      <trkpt lat="42.8803000" lon="1.5167370">
        <ele>723.5</ele>
        <time>2022-06-26T06:12:18Z</time>
      </trkpt>
      <trkpt lat="42.8802580" lon="1.5166520">
        <ele>724.1</ele>
        <time>2022-06-26T06:12:21Z</time>
      </trkpt>
      <trkpt lat="42.8802420" lon="1.5166210">
        <ele>724.4</ele>
        <time>2022-06-26T06:12:22Z</time>
      </trkpt>
      <trkpt lat="42.8801830" lon="1.5164560">
        <ele>725.5</ele>
        <time>2022-06-26T06:12:27Z</time>
      </trkpt>
      <trkpt lat="42.8801540" lon="1.5163580">
        <ele>726.1</ele>
        <time>2022-06-26T06:12:30Z</time>
      </trkpt>
      <trkpt lat="42.8801340" lon="1.5162570">
        <ele>726.8</ele>
        <time>2022-06-26T06:12:33Z</time>
      </trkpt>
      <trkpt lat="42.8801040" lon="1.5161260">
        <ele>727.6</ele>
        <time>2022-06-26T06:12:37Z</time>
      </trkpt>
      <trkpt lat="42.8800940" lon="1.5160570">
        <ele>728.0</ele>
        <time>2022-06-26T06:12:39Z</time>
      </trkpt>
      <trkpt lat="42.8800740" lon="1.5159170">
        <ele>728.8</ele>
        <time>2022-06-26T06:12:43Z</time>
      </trkpt>
      <trkpt lat="42.8800660" lon="1.5157210">
        <ele>729.8</ele>
        <time>2022-06-26T06:12:48Z</time>
      </trkpt>
      <trkpt lat="42.8800650" lon="1.5156820">
        <ele>730.0</ele>
        <time>2022-06-26T06:12:49Z</time>
      </trkpt>
      <trkpt lat="42.8800650" lon="1.5155010">
        <ele>730.9</ele>
        <time>2022-06-26T06:12:54Z</time>
      </trkpt>
      <trkpt lat="42.8800650" lon="1.5153900">
        <ele>731.5</ele>
        <time>2022-06-26T06:12:57Z</time>
      </trkpt>
      <trkpt lat="42.8800640" lon="1.5153530">
        <ele>731.7</ele>
        <time>2022-06-26T06:12:58Z</time>
      </trkpt>
      <trkpt lat="42.8800640" lon="1.5151280">
        <ele>732.8</ele>
        <time>2022-06-26T06:13:04Z</time>
      </trkpt>
      <trkpt lat="42.8800620" lon="1.5149390">
        <ele>733.8</ele>
        <time>2022-06-26T06:13:09Z</time>
      </trkpt>
      <trkpt lat="42.8800620" lon="1.5148650">
        <ele>734.2</ele>
        <time>2022-06-26T06:13:11Z</time>
      </trkpt>
      <trkpt lat="42.8800950" lon="1.5146230">
        <ele>735.7</ele>
        <time>2022-06-26T06:13:18Z</time>
      </trkpt>
      <trkpt lat="42.8801290" lon="1.5145210">
        <ele>736.5</ele>
        <time>2022-06-26T06:13:21Z</time>
      </trkpt>
      <trkpt lat="42.8801880" lon="1.5143890">
        <ele>737.5</ele>
        <time>2022-06-26T06:13:25Z</time>
      </trkpt>
      <trkpt lat="42.8802200" lon="1.5143240">
        <ele>737.9</ele>
        <time>2022-06-26T06:13:27Z</time>
      </trkpt>
      <trkpt lat="42.8803210" lon="1.5140900">
        <ele>739.6</ele>
        <time>2022-06-26T06:13:34Z</time>
      </trkpt>
      <trkpt lat="42.8803670" lon="1.5139670">
        <ele>740.5</ele>
        <time>2022-06-26T06:13:38Z</time>
      </trkpt>
      <trkpt lat="42.8803850" lon="1.5138670">
        <ele>741.2</ele>
        <time>2022-06-26T06:13:41Z</time>
      </trkpt>
      <trkpt lat="42.8803950" lon="1.5138410">
        <ele>741.4</ele>
        <time>2022-06-26T06:13:42Z</time>
      </trkpt>
      <trkpt lat="42.8804430" lon="1.5137300">
        <ele>742.2</ele>
        <time>2022-06-26T06:13:47Z</time>
      </trkpt>
      <trkpt lat="42.8805010" lon="1.5136100">
        <ele>743.1</ele>
        <time>2022-06-26T06:13:51Z</time>
      </trkpt>
      <trkpt lat="42.8805370" lon="1.5135150">
        <ele>743.7</ele>
        <time>2022-06-26T06:13:54Z</time>
      </trkpt>
      <trkpt lat="42.8805580" lon="1.5134530">
        <ele>744.1</ele>
        <time>2022-06-26T06:13:56Z</time>
      </trkpt>
      <trkpt lat="42.8806140" lon="1.5132250">
        <ele>745.5</ele>
        <time>2022-06-26T06:14:03Z</time>
      </trkpt>
      <trkpt lat="42.8806510" lon="1.5129930">
        <ele>746.8</ele>
        <time>2022-06-26T06:14:10Z</time>
      </trkpt>
      <trkpt lat="42.8806540" lon="1.5129600">
        <ele>747.0</ele>
        <time>2022-06-26T06:14:11Z</time>
      </trkpt>
      <trkpt lat="42.8806680" lon="1.5128260">
        <ele>747.8</ele>
        <time>2022-06-26T06:14:15Z</time>
      </trkpt>
      <trkpt lat="42.8806870" lon="1.5126550">
        <ele>748.8</ele>
        <time>2022-06-26T06:14:20Z</time>
      </trkpt>
      <trkpt lat="42.8806930" lon="1.5125230">
        <ele>749.6</ele>
        <time>2022-06-26T06:14:24Z</time>
      </trkpt>
      <trkpt lat="42.8806940" lon="1.5123620">
        <ele>750.5</ele>
        <time>2022-06-26T06:14:29Z</time>
      </trkpt>
      <trkpt lat="42.8806950" lon="1.5123300">
        <ele>750.7</ele>
        <time>2022-06-26T06:14:30Z</time>
      </trkpt>
      <trkpt lat="42.8807100" lon="1.5122060">
        <ele>751.4</ele>
        <time>2022-06-26T06:14:34Z</time>
      </trkpt>
      <trkpt lat="42.8807090" lon="1.5121440">
        <ele>751.8</ele>
        <time>2022-06-26T06:14:36Z</time>
      </trkpt>
      <trkpt lat="42.8807250" lon="1.5119240">
        <ele>753.1</ele>
        <time>2022-06-26T06:14:42Z</time>
      </trkpt>
      <trkpt lat="42.8807570" lon="1.5117470">
        <ele>754.2</ele>
        <time>2022-06-26T06:14:47Z</time>
      </trkpt>
      <trkpt lat="42.8807830" lon="1.5116170">
        <ele>755.1</ele>
        <time>2022-06-26T06:14:51Z</time>
      </trkpt>
      <trkpt lat="42.8807890" lon="1.5115880">
        <ele>755.2</ele>
        <time>2022-06-26T06:14:52Z</time>
      </trkpt>
      <trkpt lat="42.8808280" lon="1.5114130">
        <ele>756.3</ele>
        <time>2022-06-26T06:14:57Z</time>
      </trkpt>
      <trkpt lat="42.8808350" lon="1.5113780">
        <ele>756.5</ele>
        <time>2022-06-26T06:14:58Z</time>
      </trkpt>
      <trkpt lat="42.8808500" lon="1.5112020">
        <ele>757.6</ele>
        <time>2022-06-26T06:15:03Z</time>
      </trkpt>
      <trkpt lat="42.8808640" lon="1.5111030">
        <ele>758.1</ele>
        <time>2022-06-26T06:15:06Z</time>
      </trkpt>
      <trkpt lat="42.8808740" lon="1.5110010">
        <ele>758.7</ele>
        <time>2022-06-26T06:15:09Z</time>
      </trkpt>
      <trkpt lat="42.8808780" lon="1.5108580">
        <ele>759.4</ele>
        <time>2022-06-26T06:15:13Z</time>
      </trkpt>
      <trkpt lat="42.8808820" lon="1.5107870">
        <ele>759.8</ele>
        <time>2022-06-26T06:15:15Z</time>
      </trkpt>
      <trkpt lat="42.8808970" lon="1.5106560">
        <ele>760.6</ele>
        <time>2022-06-26T06:15:19Z</time>
      </trkpt>
      <trkpt lat="42.8808990" lon="1.5105590">
        <ele>761.1</ele>
        <time>2022-06-26T06:15:22Z</time>
      </trkpt>
      <trkpt lat="42.8808900" lon="1.5104430">
        <ele>761.9</ele>
        <time>2022-06-26T06:15:25Z</time>
      </trkpt>
      <trkpt lat="42.8808700" lon="1.5102450">
        <ele>763.1</ele>
        <time>2022-06-26T06:15:30Z</time>
      </trkpt>
      <trkpt lat="42.8808730" lon="1.5102140">
        <ele>763.3</ele>
        <time>2022-06-26T06:15:31Z</time>
      </trkpt>
      <trkpt lat="42.8809020" lon="1.5100490">
        <ele>764.3</ele>
        <time>2022-06-26T06:15:36Z</time>
      </trkpt>
      <trkpt lat="42.8809150" lon="1.5099840">
        <ele>764.7</ele>
        <time>2022-06-26T06:15:38Z</time>
      </trkpt>
      <trkpt lat="42.8809200" lon="1.5098420">
        <ele>765.5</ele>
        <time>2022-06-26T06:15:42Z</time>
      </trkpt>
      <trkpt lat="42.8809250" lon="1.5097480">
        <ele>766.1</ele>
        <time>2022-06-26T06:15:45Z</time>
      </trkpt>
      <trkpt lat="42.8809590" lon="1.5096030">
        <ele>767.0</ele>
        <time>2022-06-26T06:15:50Z</time>
      </trkpt>
      <trkpt lat="42.8809850" lon="1.5094830">
        <ele>767.7</ele>
        <time>2022-06-26T06:15:54Z</time>
      </trkpt>
      <trkpt lat="42.8809870" lon="1.5094520">
        <ele>767.9</ele>
        <time>2022-06-26T06:15:55Z</time>
      </trkpt>
      <trkpt lat="42.8809970" lon="1.5092760">
        <ele>768.9</ele>
        <time>2022-06-26T06:16:00Z</time>
      </trkpt>
      <trkpt lat="42.8809990" lon="1.5092410">
        <ele>769.1</ele>
        <time>2022-06-26T06:16:01Z</time>
      </trkpt>
      <trkpt lat="42.8809790" lon="1.5090470">
        <ele>770.3</ele>
        <time>2022-06-26T06:16:06Z</time>
      </trkpt>
      <trkpt lat="42.8809740" lon="1.5090110">
        <ele>770.5</ele>
        <time>2022-06-26T06:16:07Z</time>
      </trkpt>
      <trkpt lat="42.8809390" lon="1.5088240">
        <ele>771.6</ele>
        <time>2022-06-26T06:16:12Z</time>
      </trkpt>
      <trkpt lat="42.8809120" lon="1.5087110">
        <ele>772.2</ele>
        <time>2022-06-26T06:16:15Z</time>
      </trkpt>
      <trkpt lat="42.8808900" lon="1.5086400">
        <ele>772.6</ele>
        <time>2022-06-26T06:16:17Z</time>
      </trkpt>
      <trkpt lat="42.8808390" lon="1.5084240">
        <ele>773.8</ele>
        <time>2022-06-26T06:16:23Z</time>
      </trkpt>
      <trkpt lat="42.8808350" lon="1.5083920">
        <ele>774.0</ele>
        <time>2022-06-26T06:16:24Z</time>
      </trkpt>
      <trkpt lat="42.8807950" lon="1.5081990">
        <ele>775.0</ele>
        <time>2022-06-26T06:16:30Z</time>
      </trkpt>
      <trkpt lat="42.8807890" lon="1.5081680">
        <ele>775.2</ele>
        <time>2022-06-26T06:16:31Z</time>
      </trkpt>
      <trkpt lat="42.8807590" lon="1.5080140">
        <ele>776.1</ele>
        <time>2022-06-26T06:16:36Z</time>
      </trkpt>
      <trkpt lat="42.8807450" lon="1.5078780">
        <ele>776.8</ele>
        <time>2022-06-26T06:16:39Z</time>
      </trkpt>
      <trkpt lat="42.8807430" lon="1.5078100">
        <ele>777.2</ele>
        <time>2022-06-26T06:16:41Z</time>
      </trkpt>
      <trkpt lat="42.8807470" lon="1.5077550">
        <ele>777.5</ele>
        <time>2022-06-26T06:16:44Z</time>
      </trkpt>
      <trkpt lat="42.8807390" lon="1.5076770">
        <ele>778.0</ele>
        <time>2022-06-26T06:16:47Z</time>
      </trkpt>
      <trkpt lat="42.8807400" lon="1.5076220">
        <ele>778.3</ele>
        <time>2022-06-26T06:16:48Z</time>
      </trkpt>
      <trkpt lat="42.8807380" lon="1.5075870">
        <ele>778.5</ele>
        <time>2022-06-26T06:16:50Z</time>
      </trkpt>
      <trkpt lat="42.8807360" lon="1.5075210">
        <ele>778.9</ele>
        <time>2022-06-26T06:16:52Z</time>
      </trkpt>
      <trkpt lat="42.8807240" lon="1.5073630">
        <ele>779.7</ele>
        <time>2022-06-26T06:16:57Z</time>
      </trkpt>
      <trkpt lat="42.8807240" lon="1.5073320">
        <ele>779.9</ele>
        <time>2022-06-26T06:16:58Z</time>
      </trkpt>
      <trkpt lat="42.8807240" lon="1.5071650">
        <ele>780.8</ele>
        <time>2022-06-26T06:17:03Z</time>
      </trkpt>
      <trkpt lat="42.8807040" lon="1.5069240">
        <ele>782.2</ele>
        <time>2022-06-26T06:17:10Z</time>
      </trkpt>
      <trkpt lat="42.8807000" lon="1.5068860">
        <ele>782.4</ele>
        <time>2022-06-26T06:17:11Z</time>
      </trkpt>
      <trkpt lat="42.8806930" lon="1.5067160">
        <ele>783.4</ele>
        <time>2022-06-26T06:17:16Z</time>
      </trkpt>
      <trkpt lat="42.8806870" lon="1.5066140">
        <ele>784.0</ele>
        <time>2022-06-26T06:17:19Z</time>
      </trkpt>
      <trkpt lat="42.8806890" lon="1.5065410">
        <ele>784.4</ele>
        <time>2022-06-26T06:17:21Z</time>
      </trkpt>
      <trkpt lat="42.8807050" lon="1.5063680">
        <ele>785.5</ele>
        <time>2022-06-26T06:17:26Z</time>
      </trkpt>
      <trkpt lat="42.8807130" lon="1.5063120">
        <ele>785.9</ele>
        <time>2022-06-26T06:17:28Z</time>
      </trkpt>
      <trkpt lat="42.8807320" lon="1.5062090">
        <ele>786.6</ele>
        <time>2022-06-26T06:17:32Z</time>
      </trkpt>
      <trkpt lat="42.8807360" lon="1.5061480">
        <ele>787.0</ele>
        <time>2022-06-26T06:17:34Z</time>
      </trkpt>
      <trkpt lat="42.8807230" lon="1.5060560">
        <ele>787.7</ele>
        <time>2022-06-26T06:17:37Z</time>
      </trkpt>
      <trkpt lat="42.8807090" lon="1.5059380">
        <ele>788.5</ele>
        <time>2022-06-26T06:17:41Z</time>
      </trkpt>
      <trkpt lat="42.8806650" lon="1.5057750">
        <ele>789.5</ele>
        <time>2022-06-26T06:17:45Z</time>
      </trkpt>
      <trkpt lat="42.8806500" lon="1.5057350">
        <ele>789.7</ele>
        <time>2022-06-26T06:17:46Z</time>
      </trkpt>
      <trkpt lat="42.8806340" lon="1.5056920">
        <ele>790.0</ele>
        <time>2022-06-26T06:17:47Z</time>
      </trkpt>
      <trkpt lat="42.8805850" lon="1.5055880">
        <ele>790.7</ele>
        <time>2022-06-26T06:17:50Z</time>
      </trkpt>
      <trkpt lat="42.8805450" lon="1.5054930">
        <ele>791.3</ele>
        <time>2022-06-26T06:17:53Z</time>
      </trkpt>
      <trkpt lat="42.8805030" lon="1.5053860">
        <ele>792.1</ele>
        <time>2022-06-26T06:17:56Z</time>
      </trkpt>
      <trkpt lat="42.8804950" lon="1.5052810">
        <ele>792.7</ele>
        <time>2022-06-26T06:17:59Z</time>
      </trkpt>
      <trkpt lat="42.8804950" lon="1.5052510">
        <ele>792.9</ele>
        <time>2022-06-26T06:18:00Z</time>
      </trkpt>
      <trkpt lat="42.8805030" lon="1.5051620">
        <ele>793.5</ele>
        <time>2022-06-26T06:18:03Z</time>
      </trkpt>
      <trkpt lat="42.8805180" lon="1.5051020">
        <ele>794.0</ele>
        <time>2022-06-26T06:18:05Z</time>
      </trkpt>
      <trkpt lat="42.8805390" lon="1.5050470">
        <ele>794.4</ele>
        <time>2022-06-26T06:18:07Z</time>
      </trkpt>
      <trkpt lat="42.8805680" lon="1.5049210">
        <ele>795.4</ele>
        <time>2022-06-26T06:18:11Z</time>
      </trkpt>
      <trkpt lat="42.8805760" lon="1.5048880">
        <ele>795.6</ele>
        <time>2022-06-26T06:18:12Z</time>
      </trkpt>
      <trkpt lat="42.8806100" lon="1.5047730">
        <ele>796.5</ele>
        <time>2022-06-26T06:18:16Z</time>
      </trkpt>
      <trkpt lat="42.8806580" lon="1.5046690">
        <ele>797.4</ele>
        <time>2022-06-26T06:18:20Z</time>
      </trkpt>
      <trkpt lat="42.8806790" lon="1.5046100">
        <ele>797.9</ele>
        <time>2022-06-26T06:18:22Z</time>
      </trkpt>
      <trkpt lat="42.8807260" lon="1.5044610">
        <ele>799.1</ele>
        <time>2022-06-26T06:18:27Z</time>
      </trkpt>
      <trkpt lat="42.8807610" lon="1.5043320">
        <ele>800.2</ele>
        <time>2022-06-26T06:18:32Z</time>
      </trkpt>
      <trkpt lat="42.8808060" lon="1.5042170">
        <ele>801.1</ele>
        <time>2022-06-26T06:18:37Z</time>
      </trkpt>
      <trkpt lat="42.8808400" lon="1.5041590">
        <ele>801.7</ele>
        <time>2022-06-26T06:18:40Z</time>
      </trkpt>
      <trkpt lat="42.8808530" lon="1.5041490">
        <ele>801.8</ele>
        <time>2022-06-26T06:18:41Z</time>
      </trkpt>
      <trkpt lat="42.8809120" lon="1.5040850">
        <ele>802.6</ele>
        <time>2022-06-26T06:18:45Z</time>
      </trkpt>
      <trkpt lat="42.8809500" lon="1.5040520">
        <ele>803.0</ele>
        <time>2022-06-26T06:18:47Z</time>
      </trkpt>
      <trkpt lat="42.8810470" lon="1.5039600">
        <ele>804.1</ele>
        <time>2022-06-26T06:18:51Z</time>
      </trkpt>
      <trkpt lat="42.8810920" lon="1.5039160">
        <ele>804.7</ele>
        <time>2022-06-26T06:18:53Z</time>
      </trkpt>
      <trkpt lat="42.8812130" lon="1.5038060">
        <ele>806.0</ele>
        <time>2022-06-26T06:18:58Z</time>
      </trkpt>
      <trkpt lat="42.8812370" lon="1.5037890">
        <ele>806.3</ele>
        <time>2022-06-26T06:18:59Z</time>
      </trkpt>
      <trkpt lat="42.8813260" lon="1.5037190">
        <ele>807.2</ele>
        <time>2022-06-26T06:19:03Z</time>
      </trkpt>
      <trkpt lat="42.8813910" lon="1.5036490">
        <ele>808.0</ele>
        <time>2022-06-26T06:19:07Z</time>
      </trkpt>
      <trkpt lat="42.8814490" lon="1.5035980">
        <ele>808.7</ele>
        <time>2022-06-26T06:19:10Z</time>
      </trkpt>
      <trkpt lat="42.8815100" lon="1.5035360">
        <ele>809.4</ele>
        <time>2022-06-26T06:19:13Z</time>
      </trkpt>
      <trkpt lat="42.8815300" lon="1.5035160">
        <ele>809.6</ele>
        <time>2022-06-26T06:19:14Z</time>
      </trkpt>
      <trkpt lat="42.8816450" lon="1.5034070">
        <ele>810.9</ele>
        <time>2022-06-26T06:19:20Z</time>
      </trkpt>
      <trkpt lat="42.8816990" lon="1.5033610">
        <ele>811.4</ele>
        <time>2022-06-26T06:19:22Z</time>
      </trkpt>
      <trkpt lat="42.8817370" lon="1.5033270">
        <ele>811.9</ele>
        <time>2022-06-26T06:19:25Z</time>
      </trkpt>
      <trkpt lat="42.8818520" lon="1.5032210">
        <ele>813.1</ele>
        <time>2022-06-26T06:19:31Z</time>
      </trkpt>
      <trkpt lat="42.8818880" lon="1.5031890">
        <ele>813.5</ele>
        <time>2022-06-26T06:19:32Z</time>
      </trkpt>
      <trkpt lat="42.8819780" lon="1.5031000">
        <ele>814.5</ele>
        <time>2022-06-26T06:19:37Z</time>
      </trkpt>
      <trkpt lat="42.8820350" lon="1.5030410">
        <ele>815.2</ele>
        <time>2022-06-26T06:19:41Z</time>
      </trkpt>
      <trkpt lat="42.8820920" lon="1.5029750">
        <ele>815.8</ele>
        <time>2022-06-26T06:19:43Z</time>
      </trkpt>
      <trkpt lat="42.8821760" lon="1.5028570">
        <ele>816.8</ele>
        <time>2022-06-26T06:19:49Z</time>
      </trkpt>
      <trkpt lat="42.8821890" lon="1.5028300">
        <ele>817.0</ele>
        <time>2022-06-26T06:19:50Z</time>
      </trkpt>
      <trkpt lat="42.8822680" lon="1.5026930">
        <ele>818.1</ele>
        <time>2022-06-26T06:19:55Z</time>
      </trkpt>
      <trkpt lat="42.8823380" lon="1.5025500">
        <ele>819.2</ele>
        <time>2022-06-26T06:19:59Z</time>
      </trkpt>
      <trkpt lat="42.8823510" lon="1.5025220">
        <ele>819.4</ele>
        <time>2022-06-26T06:20:01Z</time>
      </trkpt>
      <trkpt lat="42.8824200" lon="1.5023520">
        <ele>820.6</ele>
        <time>2022-06-26T06:20:07Z</time>
      </trkpt>
      <trkpt lat="42.8824700" lon="1.5022040">
        <ele>821.7</ele>
        <time>2022-06-26T06:20:11Z</time>
      </trkpt>
      <trkpt lat="42.8824820" lon="1.5021740">
        <ele>821.9</ele>
        <time>2022-06-26T06:20:12Z</time>
      </trkpt>
      <trkpt lat="42.8825060" lon="1.5020360">
        <ele>822.8</ele>
        <time>2022-06-26T06:20:17Z</time>
      </trkpt>
      <trkpt lat="42.8824870" lon="1.5018100">
        <ele>823.1</ele>
        <time>2022-06-26T06:20:23Z</time>
      </trkpt>
      <trkpt lat="42.8823520" lon="1.5017240">
        <ele>823.4</ele>
        <time>2022-06-26T06:20:27Z</time>
      </trkpt>
      <trkpt lat="42.8821750" lon="1.5017570">
        <ele>823.6</ele>
        <time>2022-06-26T06:20:33Z</time>
      </trkpt>
      <trkpt lat="42.8821750" lon="1.5017570">
        <ele>823.6</ele>
        <time>2022-06-26T06:20:34Z</time>
      </trkpt>
      <trkpt lat="42.8820970" lon="1.5017790">
        <ele>823.8</ele>
        <time>2022-06-26T06:20:37Z</time>
      </trkpt>
      <trkpt lat="42.8820120" lon="1.5018060">
        <ele>824.0</ele>
        <time>2022-06-26T06:20:40Z</time>
      </trkpt>
      <trkpt lat="42.8819070" lon="1.5018330">
        <ele>824.4</ele>
        <time>2022-06-26T06:20:43Z</time>
      </trkpt>
      <trkpt lat="42.8818120" lon="1.5018370">
        <ele>825.0</ele>
        <time>2022-06-26T06:20:47Z</time>
      </trkpt>
      <trkpt lat="42.8816720" lon="1.5017670">
        <ele>826.2</ele>
        <time>2022-06-26T06:20:51Z</time>
      </trkpt>
      <trkpt lat="42.8816210" lon="1.5017320">
        <ele>826.7</ele>
        <time>2022-06-26T06:20:53Z</time>
      </trkpt>
      <trkpt lat="42.8815690" lon="1.5016970">
        <ele>827.2</ele>
        <time>2022-06-26T06:20:56Z</time>
      </trkpt>
      <trkpt lat="42.8814470" lon="1.5016120">
        <ele>828.4</ele>
        <time>2022-06-26T06:21:01Z</time>
      </trkpt>
      <trkpt lat="42.8813300" lon="1.5015280">
        <ele>829.7</ele>
        <time>2022-06-26T06:21:06Z</time>
      </trkpt>
      <trkpt lat="42.8812410" lon="1.5014640">
        <ele>830.6</ele>
        <time>2022-06-26T06:21:10Z</time>
      </trkpt>
      <trkpt lat="42.8811530" lon="1.5014020">
        <ele>831.5</ele>
        <time>2022-06-26T06:21:14Z</time>
      </trkpt>
      <trkpt lat="42.8811300" lon="1.5013850">
        <ele>831.8</ele>
        <time>2022-06-26T06:21:15Z</time>
      </trkpt>
      <trkpt lat="42.8810390" lon="1.5013170">
        <ele>832.7</ele>
        <time>2022-06-26T06:21:19Z</time>
      </trkpt>
      <trkpt lat="42.8809090" lon="1.5012350">
        <ele>834.1</ele>
        <time>2022-06-26T06:21:24Z</time>
      </trkpt>
      <trkpt lat="42.8809090" lon="1.5012350">
        <ele>834.1</ele>
        <time>2022-06-26T06:21:25Z</time>
      </trkpt>
      <trkpt lat="42.8808090" lon="1.5011720">
        <ele>835.1</ele>
        <time>2022-06-26T06:21:30Z</time>
      </trkpt>
      <trkpt lat="42.8807420" lon="1.5011380">
        <ele>835.8</ele>
        <time>2022-06-26T06:21:33Z</time>
      </trkpt>
      <trkpt lat="42.8806780" lon="1.5011070">
        <ele>836.4</ele>
        <time>2022-06-26T06:21:35Z</time>
      </trkpt>
      <trkpt lat="42.8805770" lon="1.5010740">
        <ele>837.3</ele>
        <time>2022-06-26T06:21:40Z</time>
      </trkpt>
      <trkpt lat="42.8805510" lon="1.5010610">
        <ele>837.6</ele>
        <time>2022-06-26T06:21:41Z</time>
      </trkpt>
      <trkpt lat="42.8804480" lon="1.5009960">
        <ele>838.6</ele>
        <time>2022-06-26T06:21:45Z</time>
      </trkpt>
      <trkpt lat="42.8803580" lon="1.5009100">
        <ele>839.5</ele>
        <time>2022-06-26T06:21:49Z</time>
      </trkpt>
      <trkpt lat="42.8803400" lon="1.5008840">
        <ele>839.7</ele>
        <time>2022-06-26T06:21:50Z</time>
      </trkpt>
      <trkpt lat="42.8802610" lon="1.5007700">
        <ele>840.7</ele>
        <time>2022-06-26T06:21:55Z</time>
      </trkpt>
      <trkpt lat="42.8801830" lon="1.5006350">
        <ele>841.8</ele>
        <time>2022-06-26T06:22:00Z</time>
      </trkpt>
      <trkpt lat="42.8801280" lon="1.5005230">
        <ele>842.6</ele>
        <time>2022-06-26T06:22:03Z</time>
      </trkpt>
      <trkpt lat="42.8801140" lon="1.5004950">
        <ele>842.8</ele>
        <time>2022-06-26T06:22:05Z</time>
      </trkpt>
      <trkpt lat="42.8800750" lon="1.5003830">
        <ele>843.7</ele>
        <time>2022-06-26T06:22:09Z</time>
      </trkpt>
      <trkpt lat="42.8800110" lon="1.5002550">
        <ele>844.7</ele>
        <time>2022-06-26T06:22:14Z</time>
      </trkpt>
      <trkpt lat="42.8799980" lon="1.5002310">
        <ele>844.9</ele>
        <time>2022-06-26T06:22:15Z</time>
      </trkpt>
      <trkpt lat="42.8799530" lon="1.5001330">
        <ele>845.8</ele>
        <time>2022-06-26T06:22:19Z</time>
      </trkpt>
      <trkpt lat="42.8799390" lon="1.5001140">
        <ele>846.0</ele>
        <time>2022-06-26T06:22:20Z</time>
      </trkpt>
      <trkpt lat="42.8799050" lon="1.5000200">
        <ele>846.8</ele>
        <time>2022-06-26T06:22:24Z</time>
      </trkpt>
      <trkpt lat="42.8798970" lon="1.4999940">
        <ele>847.0</ele>
        <time>2022-06-26T06:22:25Z</time>
      </trkpt>
      <trkpt lat="42.8798610" lon="1.4999010">
        <ele>847.8</ele>
        <time>2022-06-26T06:22:28Z</time>
      </trkpt>
      <trkpt lat="42.8798570" lon="1.4998420">
        <ele>848.2</ele>
        <time>2022-06-26T06:22:30Z</time>
      </trkpt>
      <trkpt lat="42.8799200" lon="1.4998050">
        <ele>848.9</ele>
        <time>2022-06-26T06:22:34Z</time>
      </trkpt>
      <trkpt lat="42.8799540" lon="1.4998190">
        <ele>849.2</ele>
        <time>2022-06-26T06:22:36Z</time>
      </trkpt>
      <trkpt lat="42.8799840" lon="1.4998340">
        <ele>849.5</ele>
        <time>2022-06-26T06:22:38Z</time>
      </trkpt>
      <trkpt lat="42.8800000" lon="1.4998480">
        <ele>849.6</ele>
        <time>2022-06-26T06:22:39Z</time>
      </trkpt>
      <trkpt lat="42.8801400" lon="1.4999720">
        <ele>850.8</ele>
        <time>2022-06-26T06:22:45Z</time>
      </trkpt>
      <trkpt lat="42.8801910" lon="1.5000240">
        <ele>851.1</ele>
        <time>2022-06-26T06:22:47Z</time>
      </trkpt>
      <trkpt lat="42.8803080" lon="1.5001450">
        <ele>852.0</ele>
        <time>2022-06-26T06:22:52Z</time>
      </trkpt>
      <trkpt lat="42.8803840" lon="1.5002160">
        <ele>852.6</ele>
        <time>2022-06-26T06:22:55Z</time>
      </trkpt>
      <trkpt lat="42.8804580" lon="1.5002830">
        <ele>853.2</ele>
        <time>2022-06-26T06:22:58Z</time>
      </trkpt>
      <trkpt lat="42.8806070" lon="1.5004320">
        <ele>854.6</ele>
        <time>2022-06-26T06:23:05Z</time>
      </trkpt>
      <trkpt lat="42.8806450" lon="1.5004750">
        <ele>855.0</ele>
        <time>2022-06-26T06:23:07Z</time>
      </trkpt>
      <trkpt lat="42.8807070" lon="1.5005310">
        <ele>855.6</ele>
        <time>2022-06-26T06:23:10Z</time>
      </trkpt>
      <trkpt lat="42.8807990" lon="1.5005830">
        <ele>856.4</ele>
        <time>2022-06-26T06:23:14Z</time>
      </trkpt>
      <trkpt lat="42.8808230" lon="1.5005910">
        <ele>856.7</ele>
        <time>2022-06-26T06:23:15Z</time>
      </trkpt>
      <trkpt lat="42.8809560" lon="1.5006090">
        <ele>857.9</ele>
        <time>2022-06-26T06:23:21Z</time>
      </trkpt>
      <trkpt lat="42.8809780" lon="1.5006120">
        <ele>858.1</ele>
        <time>2022-06-26T06:23:22Z</time>
      </trkpt>
      <trkpt lat="42.8810840" lon="1.5005900">
        <ele>859.1</ele>
        <time>2022-06-26T06:23:27Z</time>
      </trkpt>
      <trkpt lat="42.8811300" lon="1.5005700">
        <ele>859.6</ele>
        <time>2022-06-26T06:23:29Z</time>
      </trkpt>
      <trkpt lat="42.8811960" lon="1.5005210">
        <ele>860.4</ele>
        <time>2022-06-26T06:23:33Z</time>
      </trkpt>
      <trkpt lat="42.8812090" lon="1.5005120">
        <ele>860.5</ele>
        <time>2022-06-26T06:23:34Z</time>
      </trkpt>
      <trkpt lat="42.8812260" lon="1.5004910">
        <ele>860.7</ele>
        <time>2022-06-26T06:23:36Z</time>
      </trkpt>
      <trkpt lat="42.8812690" lon="1.5004370">
        <ele>861.3</ele>
        <time>2022-06-26T06:23:40Z</time>
      </trkpt>
      <trkpt lat="42.8812800" lon="1.5004220">
        <ele>861.5</ele>
        <time>2022-06-26T06:23:41Z</time>
      </trkpt>
      <trkpt lat="42.8813040" lon="1.5003670">
        <ele>861.9</ele>
        <time>2022-06-26T06:23:44Z</time>
      </trkpt>
      <trkpt lat="42.8813470" lon="1.5003000">
        <ele>862.6</ele>
        <time>2022-06-26T06:23:48Z</time>
      </trkpt>
      <trkpt lat="42.8814010" lon="1.5002510">
        <ele>863.2</ele>
        <time>2022-06-26T06:23:52Z</time>
      </trkpt>
      <trkpt lat="42.8814250" lon="1.5002480">
        <ele>863.5</ele>
        <time>2022-06-26T06:23:53Z</time>
      </trkpt>
      <trkpt lat="42.8814360" lon="1.5002300">
        <ele>863.6</ele>
        <time>2022-06-26T06:23:54Z</time>
      </trkpt>
      <trkpt lat="42.8814940" lon="1.5001530">
        <ele>864.4</ele>
        <time>2022-06-26T06:23:58Z</time>
      </trkpt>
      <trkpt lat="42.8815030" lon="1.5001320">
        <ele>864.6</ele>
        <time>2022-06-26T06:23:59Z</time>
      </trkpt>
      <trkpt lat="42.8815320" lon="1.5000860">
        <ele>865.0</ele>
        <time>2022-06-26T06:24:01Z</time>
      </trkpt>
      <trkpt lat="42.8816150" lon="1.5000090">
        <ele>865.9</ele>
        <time>2022-06-26T06:24:05Z</time>
      </trkpt>
      <trkpt lat="42.8817680" lon="1.4999620">
        <ele>867.2</ele>
        <time>2022-06-26T06:24:09Z</time>
      </trkpt>
      <trkpt lat="42.8818400" lon="1.4999440">
        <ele>867.8</ele>
        <time>2022-06-26T06:24:11Z</time>
      </trkpt>
      <trkpt lat="42.8819160" lon="1.4999140">
        <ele>868.5</ele>
        <time>2022-06-26T06:24:14Z</time>
      </trkpt>
      <trkpt lat="42.8819560" lon="1.4998960">
        <ele>868.9</ele>
        <time>2022-06-26T06:24:16Z</time>
      </trkpt>
      <trkpt lat="42.8819860" lon="1.4998770">
        <ele>869.2</ele>
        <time>2022-06-26T06:24:18Z</time>
      </trkpt>
      <trkpt lat="42.8820050" lon="1.4998720">
        <ele>869.4</ele>
        <time>2022-06-26T06:24:19Z</time>
      </trkpt>
      <trkpt lat="42.8820200" lon="1.4998660">
        <ele>869.5</ele>
        <time>2022-06-26T06:24:20Z</time>
      </trkpt>
      <trkpt lat="42.8820810" lon="1.4998490">
        <ele>870.2</ele>
        <time>2022-06-26T06:24:24Z</time>
      </trkpt>
      <trkpt lat="42.8820980" lon="1.4998410">
        <ele>870.3</ele>
        <time>2022-06-26T06:24:25Z</time>
      </trkpt>
      <trkpt lat="42.8821680" lon="1.4997980">
        <ele>871.1</ele>
        <time>2022-06-26T06:24:30Z</time>
      </trkpt>
      <trkpt lat="42.8822530" lon="1.4997760">
        <ele>871.9</ele>
        <time>2022-06-26T06:24:33Z</time>
      </trkpt>
      <trkpt lat="42.8823260" lon="1.4997760">
        <ele>872.6</ele>
        <time>2022-06-26T06:24:35Z</time>
      </trkpt>
      <trkpt lat="42.8824330" lon="1.4997660">
        <ele>873.7</ele>
        <time>2022-06-26T06:24:39Z</time>
      </trkpt>
      <trkpt lat="42.8824970" lon="1.4997540">
        <ele>874.4</ele>
        <time>2022-06-26T06:24:41Z</time>
      </trkpt>
      <trkpt lat="42.8826510" lon="1.4997010">
        <ele>876.0</ele>
        <time>2022-06-26T06:24:46Z</time>
      </trkpt>
      <trkpt lat="42.8828090" lon="1.4996390">
        <ele>877.6</ele>
        <time>2022-06-26T06:24:51Z</time>
      </trkpt>
      <trkpt lat="42.8828330" lon="1.4996250">
        <ele>877.8</ele>
        <time>2022-06-26T06:24:52Z</time>
      </trkpt>
      <trkpt lat="42.8829500" lon="1.4995620">
        <ele>879.0</ele>
        <time>2022-06-26T06:24:56Z</time>
      </trkpt>
      <trkpt lat="42.8829740" lon="1.4995430">
        <ele>879.3</ele>
        <time>2022-06-26T06:24:57Z</time>
      </trkpt>
      <trkpt lat="42.8830950" lon="1.4994390">
        <ele>880.6</ele>
        <time>2022-06-26T06:25:02Z</time>
      </trkpt>
      <trkpt lat="42.8831370" lon="1.4993950">
        <ele>881.0</ele>
        <time>2022-06-26T06:25:04Z</time>
      </trkpt>
      <trkpt lat="42.8831770" lon="1.4993480">
        <ele>881.5</ele>
        <time>2022-06-26T06:25:06Z</time>
      </trkpt>
      <trkpt lat="42.8832770" lon="1.4992320">
        <ele>882.6</ele>
        <time>2022-06-26T06:25:11Z</time>
      </trkpt>
      <trkpt lat="42.8833410" lon="1.4991010">
        <ele>883.7</ele>
        <time>2022-06-26T06:25:16Z</time>
      </trkpt>
      <trkpt lat="42.8833560" lon="1.4990750">
        <ele>883.9</ele>
        <time>2022-06-26T06:25:17Z</time>
      </trkpt>
      <trkpt lat="42.8834100" lon="1.4989740">
        <ele>884.8</ele>
        <time>2022-06-26T06:25:21Z</time>
      </trkpt>
      <trkpt lat="42.8834230" lon="1.4989280">
        <ele>885.1</ele>
        <time>2022-06-26T06:25:23Z</time>
      </trkpt>
      <trkpt lat="42.8834680" lon="1.4988460">
        <ele>885.9</ele>
        <time>2022-06-26T06:25:27Z</time>
      </trkpt>
      <trkpt lat="42.8835000" lon="1.4988040">
        <ele>886.3</ele>
        <time>2022-06-26T06:25:30Z</time>
      </trkpt>
      <trkpt lat="42.8835230" lon="1.4987680">
        <ele>886.7</ele>
        <time>2022-06-26T06:25:32Z</time>
      </trkpt>
      <trkpt lat="42.8835770" lon="1.4986450">
        <ele>887.7</ele>
        <time>2022-06-26T06:25:37Z</time>
      </trkpt>
      <trkpt lat="42.8835910" lon="1.4986250">
        <ele>887.9</ele>
        <time>2022-06-26T06:25:38Z</time>
      </trkpt>
      <trkpt lat="42.8836410" lon="1.4985270">
        <ele>888.7</ele>
        <time>2022-06-26T06:25:42Z</time>
      </trkpt>
      <trkpt lat="42.8836700" lon="1.4984680">
        <ele>889.2</ele>
        <time>2022-06-26T06:25:44Z</time>
      </trkpt>
      <trkpt lat="42.8837370" lon="1.4983460">
        <ele>890.2</ele>
        <time>2022-06-26T06:25:48Z</time>
      </trkpt>
      <trkpt lat="42.8837530" lon="1.4983170">
        <ele>890.4</ele>
        <time>2022-06-26T06:25:49Z</time>
      </trkpt>
      <trkpt lat="42.8838160" lon="1.4981750">
        <ele>891.5</ele>
        <time>2022-06-26T06:25:54Z</time>
      </trkpt>
      <trkpt lat="42.8838300" lon="1.4981450">
        <ele>891.8</ele>
        <time>2022-06-26T06:25:55Z</time>
      </trkpt>
      <trkpt lat="42.8838760" lon="1.4980170">
        <ele>892.6</ele>
        <time>2022-06-26T06:25:59Z</time>
      </trkpt>
      <trkpt lat="42.8839000" lon="1.4979560">
        <ele>892.7</ele>
        <time>2022-06-26T06:26:01Z</time>
      </trkpt>
      <trkpt lat="42.8839220" lon="1.4978750">
        <ele>892.8</ele>
        <time>2022-06-26T06:26:04Z</time>
      </trkpt>
      <trkpt lat="42.8839480" lon="1.4978120">
        <ele>893.0</ele>
        <time>2022-06-26T06:26:07Z</time>
      </trkpt>
      <trkpt lat="42.8839590" lon="1.4977600">
        <ele>893.0</ele>
        <time>2022-06-26T06:26:09Z</time>
      </trkpt>
      <trkpt lat="42.8839680" lon="1.4977410">
        <ele>893.2</ele>
        <time>2022-06-26T06:26:10Z</time>
      </trkpt>
      <trkpt lat="42.8839770" lon="1.4976920">
        <ele>893.5</ele>
        <time>2022-06-26T06:26:12Z</time>
      </trkpt>
      <trkpt lat="42.8839800" lon="1.4976350">
        <ele>894.0</ele>
        <time>2022-06-26T06:26:14Z</time>
      </trkpt>
      <trkpt lat="42.8839620" lon="1.4975210">
        <ele>894.8</ele>
        <time>2022-06-26T06:26:18Z</time>
      </trkpt>
      <trkpt lat="42.8839720" lon="1.4974860">
        <ele>895.1</ele>
        <time>2022-06-26T06:26:19Z</time>
      </trkpt>
      <trkpt lat="42.8839550" lon="1.4973900">
        <ele>895.9</ele>
        <time>2022-06-26T06:26:22Z</time>
      </trkpt>
      <trkpt lat="42.8839450" lon="1.4973580">
        <ele>896.1</ele>
        <time>2022-06-26T06:26:23Z</time>
      </trkpt>
      <trkpt lat="42.8839300" lon="1.4972980">
        <ele>896.6</ele>
        <time>2022-06-26T06:26:25Z</time>
      </trkpt>
      <trkpt lat="42.8839750" lon="1.4972300">
        <ele>897.2</ele>
        <time>2022-06-26T06:26:28Z</time>
      </trkpt>
      <trkpt lat="42.8839960" lon="1.4971450">
        <ele>897.9</ele>
        <time>2022-06-26T06:26:31Z</time>
      </trkpt>
      <trkpt lat="42.8840030" lon="1.4970390">
        <ele>898.6</ele>
        <time>2022-06-26T06:26:34Z</time>
      </trkpt>
      <trkpt lat="42.8840060" lon="1.4970080">
        <ele>898.8</ele>
        <time>2022-06-26T06:26:35Z</time>
      </trkpt>
      <trkpt lat="42.8839710" lon="1.4967910">
        <ele>900.3</ele>
        <time>2022-06-26T06:26:41Z</time>
      </trkpt>
      <trkpt lat="42.8839770" lon="1.4967570">
        <ele>900.6</ele>
        <time>2022-06-26T06:26:42Z</time>
      </trkpt>
      <trkpt lat="42.8839530" lon="1.4966310">
        <ele>901.4</ele>
        <time>2022-06-26T06:26:46Z</time>
      </trkpt>
      <trkpt lat="42.8839290" lon="1.4965880">
        <ele>901.7</ele>
        <time>2022-06-26T06:26:48Z</time>
      </trkpt>
      <trkpt lat="42.8838770" lon="1.4964810">
        <ele>902.5</ele>
        <time>2022-06-26T06:26:52Z</time>
      </trkpt>
      <trkpt lat="42.8838450" lon="1.4964280">
        <ele>902.9</ele>
        <time>2022-06-26T06:26:54Z</time>
      </trkpt>
      <trkpt lat="42.8837590" lon="1.4962880">
        <ele>904.1</ele>
        <time>2022-06-26T06:27:00Z</time>
      </trkpt>
      <trkpt lat="42.8837410" lon="1.4962650">
        <ele>904.3</ele>
        <time>2022-06-26T06:27:01Z</time>
      </trkpt>
      <trkpt lat="42.8837050" lon="1.4962250">
        <ele>904.7</ele>
        <time>2022-06-26T06:27:03Z</time>
      </trkpt>
      <trkpt lat="42.8836680" lon="1.4961020">
        <ele>905.6</ele>
        <time>2022-06-26T06:27:07Z</time>
      </trkpt>
      <trkpt lat="42.8836610" lon="1.4960630">
        <ele>905.8</ele>
        <time>2022-06-26T06:27:08Z</time>
      </trkpt>
      <trkpt lat="42.8836610" lon="1.4960250">
        <ele>906.1</ele>
        <time>2022-06-26T06:27:09Z</time>
      </trkpt>
      <trkpt lat="42.8836640" lon="1.4959110">
        <ele>908.3</ele>
        <time>2022-06-26T06:27:12Z</time>
      </trkpt>
      <trkpt lat="42.8837040" lon="1.4958520">
        <ele>908.3</ele>
        <time>2022-06-26T06:27:14Z</time>
      </trkpt>
      <trkpt lat="42.8838100" lon="1.4957930">
        <ele>908.8</ele>
        <time>2022-06-26T06:27:17Z</time>
      </trkpt>
      <trkpt lat="42.8839560" lon="1.4957250">
        <ele>909.2</ele>
        <time>2022-06-26T06:27:23Z</time>
      </trkpt>
      <trkpt lat="42.8840070" lon="1.4957110">
        <ele>909.4</ele>
        <time>2022-06-26T06:27:25Z</time>
      </trkpt>
      <trkpt lat="42.8841170" lon="1.4957000">
        <ele>909.8</ele>
        <time>2022-06-26T06:27:29Z</time>
      </trkpt>
      <trkpt lat="42.8841720" lon="1.4956980">
        <ele>910.0</ele>
        <time>2022-06-26T06:27:31Z</time>
      </trkpt>
      <trkpt lat="42.8842240" lon="1.4956900">
        <ele>910.2</ele>
        <time>2022-06-26T06:27:33Z</time>
      </trkpt>
      <trkpt lat="42.8843370" lon="1.4956630">
        <ele>911.1</ele>
        <time>2022-06-26T06:27:38Z</time>
      </trkpt>
      <trkpt lat="42.8844910" lon="1.4956440">
        <ele>912.6</ele>
        <time>2022-06-26T06:27:45Z</time>
      </trkpt>
      <trkpt lat="42.8845330" lon="1.4956350">
        <ele>913.0</ele>
        <time>2022-06-26T06:27:47Z</time>
      </trkpt>
      <trkpt lat="42.8846170" lon="1.4956140">
        <ele>913.8</ele>
        <time>2022-06-26T06:27:51Z</time>
      </trkpt>
      <trkpt lat="42.8846890" lon="1.4955940">
        <ele>914.6</ele>
        <time>2022-06-26T06:27:54Z</time>
      </trkpt>
      <trkpt lat="42.8847310" lon="1.4955830">
        <ele>915.0</ele>
        <time>2022-06-26T06:27:56Z</time>
      </trkpt>
      <trkpt lat="42.8848220" lon="1.4955640">
        <ele>915.9</ele>
        <time>2022-06-26T06:28:00Z</time>
      </trkpt>
      <trkpt lat="42.8849700" lon="1.4955400">
        <ele>917.3</ele>
        <time>2022-06-26T06:28:06Z</time>
      </trkpt>
      <trkpt lat="42.8850430" lon="1.4955380">
        <ele>918.1</ele>
        <time>2022-06-26T06:28:09Z</time>
      </trkpt>
      <trkpt lat="42.8850880" lon="1.4955430">
        <ele>918.5</ele>
        <time>2022-06-26T06:28:11Z</time>
      </trkpt>
      <trkpt lat="42.8851960" lon="1.4956010">
        <ele>919.7</ele>
        <time>2022-06-26T06:28:16Z</time>
      </trkpt>
      <trkpt lat="42.8852780" lon="1.4956710">
        <ele>920.6</ele>
        <time>2022-06-26T06:28:20Z</time>
      </trkpt>
      <trkpt lat="42.8853350" lon="1.4957320">
        <ele>921.4</ele>
        <time>2022-06-26T06:28:23Z</time>
      </trkpt>
      <trkpt lat="42.8853730" lon="1.4957720">
        <ele>921.9</ele>
        <time>2022-06-26T06:28:25Z</time>
      </trkpt>
      <trkpt lat="42.8854360" lon="1.4958320">
        <ele>922.7</ele>
        <time>2022-06-26T06:28:28Z</time>
      </trkpt>
      <trkpt lat="42.8855250" lon="1.4958980">
        <ele>923.8</ele>
        <time>2022-06-26T06:28:32Z</time>
      </trkpt>
      <trkpt lat="42.8855480" lon="1.4959120">
        <ele>924.1</ele>
        <time>2022-06-26T06:28:33Z</time>
      </trkpt>
      <trkpt lat="42.8856690" lon="1.4959440">
        <ele>925.4</ele>
        <time>2022-06-26T06:28:38Z</time>
      </trkpt>
      <trkpt lat="42.8856950" lon="1.4959420">
        <ele>925.6</ele>
        <time>2022-06-26T06:28:39Z</time>
      </trkpt>
      <trkpt lat="42.8857710" lon="1.4958960">
        <ele>926.4</ele>
        <time>2022-06-26T06:28:43Z</time>
      </trkpt>
      <trkpt lat="42.8857870" lon="1.4958740">
        <ele>926.6</ele>
        <time>2022-06-26T06:28:44Z</time>
      </trkpt>
      <trkpt lat="42.8858690" lon="1.4957510">
        <ele>927.6</ele>
        <time>2022-06-26T06:28:49Z</time>
      </trkpt>
      <trkpt lat="42.8859120" lon="1.4956700">
        <ele>928.2</ele>
        <time>2022-06-26T06:28:52Z</time>
      </trkpt>
      <trkpt lat="42.8859400" lon="1.4955850">
        <ele>928.8</ele>
        <time>2022-06-26T06:28:55Z</time>
      </trkpt>
      <trkpt lat="42.8859790" lon="1.4954420">
        <ele>929.8</ele>
        <time>2022-06-26T06:29:00Z</time>
      </trkpt>
      <trkpt lat="42.8860300" lon="1.4952990">
        <ele>930.9</ele>
        <time>2022-06-26T06:29:05Z</time>
      </trkpt>
      <trkpt lat="42.8860440" lon="1.4952730">
        <ele>931.1</ele>
        <time>2022-06-26T06:29:06Z</time>
      </trkpt>
      <trkpt lat="42.8861310" lon="1.4951600">
        <ele>932.3</ele>
        <time>2022-06-26T06:29:11Z</time>
      </trkpt>
      <trkpt lat="42.8861950" lon="1.4950900">
        <ele>933.1</ele>
        <time>2022-06-26T06:29:15Z</time>
      </trkpt>
      <trkpt lat="42.8862390" lon="1.4950250">
        <ele>933.7</ele>
        <time>2022-06-26T06:29:18Z</time>
      </trkpt>
      <trkpt lat="42.8862790" lon="1.4949940">
        <ele>933.9</ele>
        <time>2022-06-26T06:29:20Z</time>
      </trkpt>
      <trkpt lat="42.8863760" lon="1.4949270">
        <ele>934.0</ele>
        <time>2022-06-26T06:29:24Z</time>
      </trkpt>
      <trkpt lat="42.8864000" lon="1.4949030">
        <ele>934.1</ele>
        <time>2022-06-26T06:29:25Z</time>
      </trkpt>
      <trkpt lat="42.8865030" lon="1.4947960">
        <ele>934.7</ele>
        <time>2022-06-26T06:29:29Z</time>
      </trkpt>
      <trkpt lat="42.8865900" lon="1.4946790">
        <ele>935.5</ele>
        <time>2022-06-26T06:29:33Z</time>
      </trkpt>
      <trkpt lat="42.8866590" lon="1.4945620">
        <ele>936.2</ele>
        <time>2022-06-26T06:29:37Z</time>
      </trkpt>
      <trkpt lat="42.8867250" lon="1.4944460">
        <ele>937.0</ele>
        <time>2022-06-26T06:29:41Z</time>
      </trkpt>
      <trkpt lat="42.8867550" lon="1.4943880">
        <ele>937.4</ele>
        <time>2022-06-26T06:29:42Z</time>
      </trkpt>
      <trkpt lat="42.8867950" lon="1.4942980">
        <ele>938.0</ele>
        <time>2022-06-26T06:29:46Z</time>
      </trkpt>
      <trkpt lat="42.8868700" lon="1.4941130">
        <ele>939.3</ele>
        <time>2022-06-26T06:29:52Z</time>
      </trkpt>
      <trkpt lat="42.8868930" lon="1.4940480">
        <ele>939.8</ele>
        <time>2022-06-26T06:29:53Z</time>
      </trkpt>
      <trkpt lat="42.8869240" lon="1.4939440">
        <ele>940.5</ele>
        <time>2022-06-26T06:29:56Z</time>
      </trkpt>
      <trkpt lat="42.8869410" lon="1.4938330">
        <ele>941.2</ele>
        <time>2022-06-26T06:30:00Z</time>
      </trkpt>
      <trkpt lat="42.8869480" lon="1.4937610">
        <ele>941.6</ele>
        <time>2022-06-26T06:30:02Z</time>
      </trkpt>
      <trkpt lat="42.8869670" lon="1.4935820">
        <ele>942.6</ele>
        <time>2022-06-26T06:30:07Z</time>
      </trkpt>
      <trkpt lat="42.8869840" lon="1.4934850">
        <ele>943.2</ele>
        <time>2022-06-26T06:30:10Z</time>
      </trkpt>
      <trkpt lat="42.8869920" lon="1.4934510">
        <ele>943.4</ele>
        <time>2022-06-26T06:30:11Z</time>
      </trkpt>
      <trkpt lat="42.8870530" lon="1.4932880">
        <ele>944.5</ele>
        <time>2022-06-26T06:30:16Z</time>
      </trkpt>
      <trkpt lat="42.8870960" lon="1.4931950">
        <ele>945.1</ele>
        <time>2022-06-26T06:30:19Z</time>
      </trkpt>
      <trkpt lat="42.8871240" lon="1.4931320">
        <ele>945.6</ele>
        <time>2022-06-26T06:30:21Z</time>
      </trkpt>
      <trkpt lat="42.8871910" lon="1.4929690">
        <ele>946.6</ele>
        <time>2022-06-26T06:30:26Z</time>
      </trkpt>
      <trkpt lat="42.8872170" lon="1.4929060">
        <ele>947.1</ele>
        <time>2022-06-26T06:30:28Z</time>
      </trkpt>
      <trkpt lat="42.8872640" lon="1.4927740">
        <ele>948.0</ele>
        <time>2022-06-26T06:30:32Z</time>
      </trkpt>
      <trkpt lat="42.8872900" lon="1.4927090">
        <ele>948.4</ele>
        <time>2022-06-26T06:30:34Z</time>
      </trkpt>
      <trkpt lat="42.8873310" lon="1.4926150">
        <ele>949.1</ele>
        <time>2022-06-26T06:30:37Z</time>
      </trkpt>
      <trkpt lat="42.8873630" lon="1.4925110">
        <ele>949.9</ele>
        <time>2022-06-26T06:30:40Z</time>
      </trkpt>
      <trkpt lat="42.8873790" lon="1.4924380">
        <ele>950.3</ele>
        <time>2022-06-26T06:30:42Z</time>
      </trkpt>
      <trkpt lat="42.8874090" lon="1.4922380">
        <ele>951.6</ele>
        <time>2022-06-26T06:30:48Z</time>
      </trkpt>
      <trkpt lat="42.8874170" lon="1.4920350">
        <ele>952.9</ele>
        <time>2022-06-26T06:30:53Z</time>
      </trkpt>
      <trkpt lat="42.8874150" lon="1.4919360">
        <ele>953.5</ele>
        <time>2022-06-26T06:30:57Z</time>
      </trkpt>
      <trkpt lat="42.8874140" lon="1.4919050">
        <ele>953.6</ele>
        <time>2022-06-26T06:30:58Z</time>
      </trkpt>
      <trkpt lat="42.8874020" lon="1.4917360">
        <ele>954.6</ele>
        <time>2022-06-26T06:31:03Z</time>
      </trkpt>
      <trkpt lat="42.8874150" lon="1.4916260">
        <ele>955.4</ele>
        <time>2022-06-26T06:31:05Z</time>
      </trkpt>
      <trkpt lat="42.8874210" lon="1.4915570">
        <ele>955.8</ele>
        <time>2022-06-26T06:31:08Z</time>
      </trkpt>
      <trkpt lat="42.8874530" lon="1.4913830">
        <ele>956.9</ele>
        <time>2022-06-26T06:31:13Z</time>
      </trkpt>
      <trkpt lat="42.8874590" lon="1.4913490">
        <ele>957.2</ele>
        <time>2022-06-26T06:31:14Z</time>
      </trkpt>
      <trkpt lat="42.8874700" lon="1.4912080">
        <ele>958.1</ele>
        <time>2022-06-26T06:31:18Z</time>
      </trkpt>
      <trkpt lat="42.8874670" lon="1.4910620">
        <ele>959.0</ele>
        <time>2022-06-26T06:31:22Z</time>
      </trkpt>
      <trkpt lat="42.8874670" lon="1.4910280">
        <ele>959.2</ele>
        <time>2022-06-26T06:31:23Z</time>
      </trkpt>
      <trkpt lat="42.8874570" lon="1.4908850">
        <ele>960.0</ele>
        <time>2022-06-26T06:31:27Z</time>
      </trkpt>
      <trkpt lat="42.8874450" lon="1.4907100">
        <ele>961.0</ele>
        <time>2022-06-26T06:31:32Z</time>
      </trkpt>
      <trkpt lat="42.8874380" lon="1.4906410">
        <ele>961.4</ele>
        <time>2022-06-26T06:31:34Z</time>
      </trkpt>
      <trkpt lat="42.8874180" lon="1.4904760">
        <ele>962.4</ele>
        <time>2022-06-26T06:31:39Z</time>
      </trkpt>
      <trkpt lat="42.8874140" lon="1.4903700">
        <ele>963.1</ele>
        <time>2022-06-26T06:31:42Z</time>
      </trkpt>
      <trkpt lat="42.8874130" lon="1.4903030">
        <ele>963.5</ele>
        <time>2022-06-26T06:31:44Z</time>
      </trkpt>
      <trkpt lat="42.8874210" lon="1.4901820">
        <ele>964.3</ele>
        <time>2022-06-26T06:31:48Z</time>
      </trkpt>
      <trkpt lat="42.8874260" lon="1.4901540">
        <ele>964.5</ele>
        <time>2022-06-26T06:31:49Z</time>
      </trkpt>
      <trkpt lat="42.8874550" lon="1.4900460">
        <ele>965.3</ele>
        <time>2022-06-26T06:31:53Z</time>
      </trkpt>
      <trkpt lat="42.8874640" lon="1.4900220">
        <ele>965.5</ele>
        <time>2022-06-26T06:31:54Z</time>
      </trkpt>
      <trkpt lat="42.8875030" lon="1.4899250">
        <ele>966.2</ele>
        <time>2022-06-26T06:31:58Z</time>
      </trkpt>
      <trkpt lat="42.8875180" lon="1.4898360">
        <ele>966.7</ele>
        <time>2022-06-26T06:32:01Z</time>
      </trkpt>
      <trkpt lat="42.8875330" lon="1.4897720">
        <ele>967.1</ele>
        <time>2022-06-26T06:32:03Z</time>
      </trkpt>
      <trkpt lat="42.8875710" lon="1.4895980">
        <ele>968.1</ele>
        <time>2022-06-26T06:32:08Z</time>
      </trkpt>
      <trkpt lat="42.8875970" lon="1.4894910">
        <ele>968.7</ele>
        <time>2022-06-26T06:32:11Z</time>
      </trkpt>
      <trkpt lat="42.8876280" lon="1.4893530">
        <ele>969.6</ele>
        <time>2022-06-26T06:32:15Z</time>
      </trkpt>
      <trkpt lat="42.8876730" lon="1.4891550">
        <ele>970.9</ele>
        <time>2022-06-26T06:32:21Z</time>
      </trkpt>
      <trkpt lat="42.8877080" lon="1.4889860">
        <ele>972.3</ele>
        <time>2022-06-26T06:32:26Z</time>
      </trkpt>
      <trkpt lat="42.8877350" lon="1.4888890">
        <ele>973.1</ele>
        <time>2022-06-26T06:32:29Z</time>
      </trkpt>
      <trkpt lat="42.8877540" lon="1.4888350">
        <ele>973.5</ele>
        <time>2022-06-26T06:32:31Z</time>
      </trkpt>
      <trkpt lat="42.8878180" lon="1.4887530">
        <ele>974.4</ele>
        <time>2022-06-26T06:32:35Z</time>
      </trkpt>
      <trkpt lat="42.8878400" lon="1.4887370">
        <ele>974.7</ele>
        <time>2022-06-26T06:32:36Z</time>
      </trkpt>
      <trkpt lat="42.8879220" lon="1.4886320">
        <ele>975.6</ele>
        <time>2022-06-26T06:32:40Z</time>
      </trkpt>
      <trkpt lat="42.8879710" lon="1.4885780">
        <ele>976.1</ele>
        <time>2022-06-26T06:32:42Z</time>
      </trkpt>
      <trkpt lat="42.8880430" lon="1.4885010">
        <ele>976.8</ele>
        <time>2022-06-26T06:32:45Z</time>
      </trkpt>
      <trkpt lat="42.8881630" lon="1.4883940">
        <ele>977.8</ele>
        <time>2022-06-26T06:32:50Z</time>
      </trkpt>
      <trkpt lat="42.8882430" lon="1.4882990">
        <ele>978.7</ele>
        <time>2022-06-26T06:32:54Z</time>
      </trkpt>
      <trkpt lat="42.8883000" lon="1.4882250">
        <ele>979.3</ele>
        <time>2022-06-26T06:32:57Z</time>
      </trkpt>
      <trkpt lat="42.8883180" lon="1.4882000">
        <ele>979.5</ele>
        <time>2022-06-26T06:32:58Z</time>
      </trkpt>
      <trkpt lat="42.8884100" lon="1.4880740">
        <ele>980.6</ele>
        <time>2022-06-26T06:33:03Z</time>
      </trkpt>
      <trkpt lat="42.8884780" lon="1.4879610">
        <ele>981.5</ele>
        <time>2022-06-26T06:33:07Z</time>
      </trkpt>
      <trkpt lat="42.8885100" lon="1.4879040">
        <ele>981.9</ele>
        <time>2022-06-26T06:33:09Z</time>
      </trkpt>
      <trkpt lat="42.8885850" lon="1.4877980">
        <ele>982.9</ele>
        <time>2022-06-26T06:33:13Z</time>
      </trkpt>
      <trkpt lat="42.8886240" lon="1.4877440">
        <ele>983.3</ele>
        <time>2022-06-26T06:33:15Z</time>
      </trkpt>
      <trkpt lat="42.8886780" lon="1.4876600">
        <ele>984.0</ele>
        <time>2022-06-26T06:33:18Z</time>
      </trkpt>
      <trkpt lat="42.8887520" lon="1.4875640">
        <ele>984.9</ele>
        <time>2022-06-26T06:33:22Z</time>
      </trkpt>
      <trkpt lat="42.8887880" lon="1.4875140">
        <ele>985.3</ele>
        <time>2022-06-26T06:33:24Z</time>
      </trkpt>
      <trkpt lat="42.8888390" lon="1.4874380">
        <ele>985.9</ele>
        <time>2022-06-26T06:33:27Z</time>
      </trkpt>
      <trkpt lat="42.8889270" lon="1.4873130">
        <ele>987.0</ele>
        <time>2022-06-26T06:33:32Z</time>
      </trkpt>
      <trkpt lat="42.8889610" lon="1.4872600">
        <ele>987.4</ele>
        <time>2022-06-26T06:33:34Z</time>
      </trkpt>
      <trkpt lat="42.8890050" lon="1.4871700">
        <ele>988.0</ele>
        <time>2022-06-26T06:33:37Z</time>
      </trkpt>
      <trkpt lat="42.8890510" lon="1.4869990">
        <ele>989.1</ele>
        <time>2022-06-26T06:33:42Z</time>
      </trkpt>
      <trkpt lat="42.8890560" lon="1.4869610">
        <ele>989.3</ele>
        <time>2022-06-26T06:33:43Z</time>
      </trkpt>
      <trkpt lat="42.8890710" lon="1.4867680">
        <ele>990.3</ele>
        <time>2022-06-26T06:33:48Z</time>
      </trkpt>
      <trkpt lat="42.8890740" lon="1.4866150">
        <ele>991.1</ele>
        <time>2022-06-26T06:33:52Z</time>
      </trkpt>
      <trkpt lat="42.8890740" lon="1.4865780">
        <ele>991.3</ele>
        <time>2022-06-26T06:33:53Z</time>
      </trkpt>
      <trkpt lat="42.8891050" lon="1.4863730">
        <ele>992.5</ele>
        <time>2022-06-26T06:33:59Z</time>
      </trkpt>
      <trkpt lat="42.8892180" lon="1.4861430">
        <ele>994.2</ele>
        <time>2022-06-26T06:34:07Z</time>
      </trkpt>
      <trkpt lat="42.8892900" lon="1.4860560">
        <ele>995.0</ele>
        <time>2022-06-26T06:34:11Z</time>
      </trkpt>
      <trkpt lat="42.8893640" lon="1.4859640">
        <ele>996.0</ele>
        <time>2022-06-26T06:34:15Z</time>
      </trkpt>
      <trkpt lat="42.8894390" lon="1.4858760">
        <ele>996.9</ele>
        <time>2022-06-26T06:34:19Z</time>
      </trkpt>
      <trkpt lat="42.8895050" lon="1.4857830">
        <ele>997.8</ele>
        <time>2022-06-26T06:34:23Z</time>
      </trkpt>
      <trkpt lat="42.8895320" lon="1.4857280">
        <ele>998.2</ele>
        <time>2022-06-26T06:34:25Z</time>
      </trkpt>
      <trkpt lat="42.8895910" lon="1.4856190">
        <ele>999.0</ele>
        <time>2022-06-26T06:34:29Z</time>
      </trkpt>
      <trkpt lat="42.8896570" lon="1.4854820">
        <ele>1000.0</ele>
        <time>2022-06-26T06:34:34Z</time>
      </trkpt>
      <trkpt lat="42.8896720" lon="1.4854530">
        <ele>1000.2</ele>
        <time>2022-06-26T06:34:35Z</time>
      </trkpt>
      <trkpt lat="42.8897620" lon="1.4852960">
        <ele>1001.4</ele>
        <time>2022-06-26T06:34:41Z</time>
      </trkpt>
      <trkpt lat="42.8897930" lon="1.4852490">
        <ele>1001.8</ele>
        <time>2022-06-26T06:34:43Z</time>
      </trkpt>
      <trkpt lat="42.8898430" lon="1.4851790">
        <ele>1002.4</ele>
        <time>2022-06-26T06:34:46Z</time>
      </trkpt>
      <trkpt lat="42.8899440" lon="1.4850820">
        <ele>1003.5</ele>
        <time>2022-06-26T06:34:51Z</time>
      </trkpt>
      <trkpt lat="42.8899680" lon="1.4850680">
        <ele>1003.8</ele>
        <time>2022-06-26T06:34:52Z</time>
      </trkpt>
      <trkpt lat="42.8900910" lon="1.4850310">
        <ele>1004.9</ele>
        <time>2022-06-26T06:34:57Z</time>
      </trkpt>
      <trkpt lat="42.8901660" lon="1.4850340">
        <ele>1005.6</ele>
        <time>2022-06-26T06:35:00Z</time>
      </trkpt>
      <trkpt lat="42.8902140" lon="1.4850290">
        <ele>1006.0</ele>
        <time>2022-06-26T06:35:02Z</time>
      </trkpt>
      <trkpt lat="42.8903400" lon="1.4850130">
        <ele>1007.2</ele>
        <time>2022-06-26T06:35:07Z</time>
      </trkpt>
      <trkpt lat="42.8904240" lon="1.4849160">
        <ele>1008.2</ele>
        <time>2022-06-26T06:35:11Z</time>
      </trkpt>
      <trkpt lat="42.8904410" lon="1.4848820">
        <ele>1008.4</ele>
        <time>2022-06-26T06:35:12Z</time>
      </trkpt>
      <trkpt lat="42.8904890" lon="1.4847510">
        <ele>1009.3</ele>
        <time>2022-06-26T06:35:16Z</time>
      </trkpt>
      <trkpt lat="42.8905070" lon="1.4846850">
        <ele>1009.7</ele>
        <time>2022-06-26T06:35:18Z</time>
      </trkpt>
      <trkpt lat="42.8905270" lon="1.4845800">
        <ele>1010.3</ele>
        <time>2022-06-26T06:35:21Z</time>
      </trkpt>
      <trkpt lat="42.8905600" lon="1.4844340">
        <ele>1011.1</ele>
        <time>2022-06-26T06:35:26Z</time>
      </trkpt>
      <trkpt lat="42.8905640" lon="1.4844060">
        <ele>1011.3</ele>
        <time>2022-06-26T06:35:27Z</time>
      </trkpt>
      <trkpt lat="42.8905750" lon="1.4843530">
        <ele>1011.6</ele>
        <time>2022-06-26T06:35:29Z</time>
      </trkpt>
      <trkpt lat="42.8905930" lon="1.4843010">
        <ele>1011.9</ele>
        <time>2022-06-26T06:35:31Z</time>
      </trkpt>
      <trkpt lat="42.8906430" lon="1.4841540">
        <ele>1012.9</ele>
        <time>2022-06-26T06:35:36Z</time>
      </trkpt>
      <trkpt lat="42.8906670" lon="1.4840570">
        <ele>1013.5</ele>
        <time>2022-06-26T06:35:39Z</time>
      </trkpt>
      <trkpt lat="42.8906790" lon="1.4839750">
        <ele>1014.0</ele>
        <time>2022-06-26T06:35:41Z</time>
      </trkpt>
      <trkpt lat="42.8906820" lon="1.4838070">
        <ele>1015.0</ele>
        <time>2022-06-26T06:35:45Z</time>
      </trkpt>
      <trkpt lat="42.8906870" lon="1.4836930">
        <ele>1015.6</ele>
        <time>2022-06-26T06:35:48Z</time>
      </trkpt>
      <trkpt lat="42.8906650" lon="1.4835410">
        <ele>1016.6</ele>
        <time>2022-06-26T06:35:52Z</time>
      </trkpt>
      <trkpt lat="42.8906470" lon="1.4832600">
        <ele>1018.4</ele>
        <time>2022-06-26T06:36:00Z</time>
      </trkpt>
      <trkpt lat="42.8906710" lon="1.4830210">
        <ele>1020.0</ele>
        <time>2022-06-26T06:36:07Z</time>
      </trkpt>
      <trkpt lat="42.8907370" lon="1.4827230">
        <ele>1022.1</ele>
        <time>2022-06-26T06:36:16Z</time>
      </trkpt>
      <trkpt lat="42.8907470" lon="1.4826910">
        <ele>1022.4</ele>
        <time>2022-06-26T06:36:17Z</time>
      </trkpt>
      <trkpt lat="42.8908400" lon="1.4824490">
        <ele>1024.3</ele>
        <time>2022-06-26T06:36:25Z</time>
      </trkpt>
      <trkpt lat="42.8909040" lon="1.4823100">
        <ele>1025.5</ele>
        <time>2022-06-26T06:36:30Z</time>
      </trkpt>
      <trkpt lat="42.8909260" lon="1.4822500">
        <ele>1026.0</ele>
        <time>2022-06-26T06:36:32Z</time>
      </trkpt>
      <trkpt lat="42.8910170" lon="1.4820880">
        <ele>1027.3</ele>
        <time>2022-06-26T06:36:38Z</time>
      </trkpt>
      <trkpt lat="42.8911850" lon="1.4818580">
        <ele>1029.4</ele>
        <time>2022-06-26T06:36:47Z</time>
      </trkpt>
      <trkpt lat="42.8913580" lon="1.4817110">
        <ele>1031.0</ele>
        <time>2022-06-26T06:36:55Z</time>
      </trkpt>
      <trkpt lat="42.8915310" lon="1.4816550">
        <ele>1032.6</ele>
        <time>2022-06-26T06:37:02Z</time>
      </trkpt>
      <trkpt lat="42.8916910" lon="1.4816180">
        <ele>1034.0</ele>
        <time>2022-06-26T06:37:09Z</time>
      </trkpt>
      <trkpt lat="42.8917370" lon="1.4816030">
        <ele>1034.5</ele>
        <time>2022-06-26T06:37:11Z</time>
      </trkpt>
      <trkpt lat="42.8918550" lon="1.4815410">
        <ele>1035.6</ele>
        <time>2022-06-26T06:37:16Z</time>
      </trkpt>
      <trkpt lat="42.8919880" lon="1.4813890">
        <ele>1037.1</ele>
        <time>2022-06-26T06:37:23Z</time>
      </trkpt>
      <trkpt lat="42.8921130" lon="1.4811730">
        <ele>1038.7</ele>
        <time>2022-06-26T06:37:32Z</time>
      </trkpt>
      <trkpt lat="42.8921340" lon="1.4811150">
        <ele>1039.1</ele>
        <time>2022-06-26T06:37:34Z</time>
      </trkpt>
      <trkpt lat="42.8922310" lon="1.4809140">
        <ele>1040.5</ele>
        <time>2022-06-26T06:37:41Z</time>
      </trkpt>
      <trkpt lat="42.8923320" lon="1.4807430">
        <ele>1041.8</ele>
        <time>2022-06-26T06:37:48Z</time>
      </trkpt>
      <trkpt lat="42.8923470" lon="1.4807220">
        <ele>1042.0</ele>
        <time>2022-06-26T06:37:49Z</time>
      </trkpt>
      <trkpt lat="42.8924540" lon="1.4805640">
        <ele>1043.3</ele>
        <time>2022-06-26T06:37:56Z</time>
      </trkpt>
      <trkpt lat="42.8924670" lon="1.4805490">
        <ele>1043.4</ele>
        <time>2022-06-26T06:37:57Z</time>
      </trkpt>
      <trkpt lat="42.8925270" lon="1.4804800">
        <ele>1044.1</ele>
        <time>2022-06-26T06:38:01Z</time>
      </trkpt>
      <trkpt lat="42.8925430" lon="1.4804600">
        <ele>1044.2</ele>
        <time>2022-06-26T06:38:02Z</time>
      </trkpt>
      <trkpt lat="42.8926700" lon="1.4803100">
        <ele>1045.6</ele>
        <time>2022-06-26T06:38:09Z</time>
      </trkpt>
      <trkpt lat="42.8927560" lon="1.4802420">
        <ele>1046.5</ele>
        <time>2022-06-26T06:38:13Z</time>
      </trkpt>
      <trkpt lat="42.8927930" lon="1.4802160">
        <ele>1046.9</ele>
        <time>2022-06-26T06:38:15Z</time>
      </trkpt>
      <trkpt lat="42.8929130" lon="1.4801520">
        <ele>1048.1</ele>
        <time>2022-06-26T06:38:21Z</time>
      </trkpt>
      <trkpt lat="42.8929650" lon="1.4801340">
        <ele>1048.6</ele>
        <time>2022-06-26T06:38:24Z</time>
      </trkpt>
      <trkpt lat="42.8930210" lon="1.4801010">
        <ele>1049.2</ele>
        <time>2022-06-26T06:38:27Z</time>
      </trkpt>
      <trkpt lat="42.8931470" lon="1.4800310">
        <ele>1050.6</ele>
        <time>2022-06-26T06:38:33Z</time>
      </trkpt>
      <trkpt lat="42.8931640" lon="1.4800150">
        <ele>1050.7</ele>
        <time>2022-06-26T06:38:34Z</time>
      </trkpt>
      <trkpt lat="42.8932920" lon="1.4799390">
        <ele>1052.1</ele>
        <time>2022-06-26T06:38:40Z</time>
      </trkpt>
      <trkpt lat="42.8934090" lon="1.4797760">
        <ele>1053.6</ele>
        <time>2022-06-26T06:38:47Z</time>
      </trkpt>
      <trkpt lat="42.8934650" lon="1.4796220">
        <ele>1054.8</ele>
        <time>2022-06-26T06:38:51Z</time>
      </trkpt>
      <trkpt lat="42.8934750" lon="1.4795790">
        <ele>1055.4</ele>
        <time>2022-06-26T06:38:52Z</time>
      </trkpt>
      <trkpt lat="42.8934830" lon="1.4795470">
        <ele>1055.5</ele>
        <time>2022-06-26T06:38:53Z</time>
      </trkpt>
      <trkpt lat="42.8934910" lon="1.4795100">
        <ele>1055.7</ele>
        <time>2022-06-26T06:38:54Z</time>
      </trkpt>
      <trkpt lat="42.8935000" lon="1.4794680">
        <ele>1055.9</ele>
        <time>2022-06-26T06:38:55Z</time>
      </trkpt>
      <trkpt lat="42.8935060" lon="1.4794210">
        <ele>1056.1</ele>
        <time>2022-06-26T06:38:56Z</time>
      </trkpt>
      <trkpt lat="42.8935120" lon="1.4793270">
        <ele>1056.5</ele>
        <time>2022-06-26T06:38:58Z</time>
      </trkpt>
      <trkpt lat="42.8935220" lon="1.4792370">
        <ele>1056.8</ele>
        <time>2022-06-26T06:39:00Z</time>
      </trkpt>
      <trkpt lat="42.8935250" lon="1.4790630">
        <ele>1057.5</ele>
        <time>2022-06-26T06:39:04Z</time>
      </trkpt>
      <trkpt lat="42.8935200" lon="1.4789040">
        <ele>1058.3</ele>
        <time>2022-06-26T06:39:08Z</time>
      </trkpt>
      <trkpt lat="42.8935090" lon="1.4787870">
        <ele>1058.8</ele>
        <time>2022-06-26T06:39:11Z</time>
      </trkpt>
      <trkpt lat="42.8934990" lon="1.4786370">
        <ele>1059.7</ele>
        <time>2022-06-26T06:39:14Z</time>
      </trkpt>
      <trkpt lat="42.8935000" lon="1.4785990">
        <ele>1059.9</ele>
        <time>2022-06-26T06:39:16Z</time>
      </trkpt>
      <trkpt lat="42.8935090" lon="1.4783760">
        <ele>1061.3</ele>
        <time>2022-06-26T06:39:22Z</time>
      </trkpt>
      <trkpt lat="42.8935150" lon="1.4783450">
        <ele>1061.5</ele>
        <time>2022-06-26T06:39:23Z</time>
      </trkpt>
      <trkpt lat="42.8935390" lon="1.4782140">
        <ele>1062.5</ele>
        <time>2022-06-26T06:39:28Z</time>
      </trkpt>
      <trkpt lat="42.8935450" lon="1.4781880">
        <ele>1062.8</ele>
        <time>2022-06-26T06:39:29Z</time>
      </trkpt>
      <trkpt lat="42.8935650" lon="1.4780820">
        <ele>1063.6</ele>
        <time>2022-06-26T06:39:33Z</time>
      </trkpt>
      <trkpt lat="42.8935810" lon="1.4780360">
        <ele>1064.0</ele>
        <time>2022-06-26T06:39:35Z</time>
      </trkpt>
      <trkpt lat="42.8936110" lon="1.4779720">
        <ele>1064.6</ele>
        <time>2022-06-26T06:39:38Z</time>
      </trkpt>
      <trkpt lat="42.8936190" lon="1.4779430">
        <ele>1064.9</ele>
        <time>2022-06-26T06:39:39Z</time>
      </trkpt>
      <trkpt lat="42.8936330" lon="1.4778910">
        <ele>1065.3</ele>
        <time>2022-06-26T06:39:41Z</time>
      </trkpt>
      <trkpt lat="42.8936400" lon="1.4778620">
        <ele>1065.5</ele>
        <time>2022-06-26T06:39:42Z</time>
      </trkpt>
      <trkpt lat="42.8936620" lon="1.4777640">
        <ele>1066.2</ele>
        <time>2022-06-26T06:39:45Z</time>
      </trkpt>
      <trkpt lat="42.8936940" lon="1.4776240">
        <ele>1067.1</ele>
        <time>2022-06-26T06:39:49Z</time>
      </trkpt>
      <trkpt lat="42.8937010" lon="1.4775870">
        <ele>1067.4</ele>
        <time>2022-06-26T06:39:50Z</time>
      </trkpt>
      <trkpt lat="42.8937340" lon="1.4774170">
        <ele>1068.4</ele>
        <time>2022-06-26T06:39:55Z</time>
      </trkpt>
      <trkpt lat="42.8937470" lon="1.4773480">
        <ele>1068.8</ele>
        <time>2022-06-26T06:39:57Z</time>
      </trkpt>
      <trkpt lat="42.8937690" lon="1.4771240">
        <ele>1070.1</ele>
        <time>2022-06-26T06:40:03Z</time>
      </trkpt>
      <trkpt lat="42.8937760" lon="1.4770530">
        <ele>1070.5</ele>
        <time>2022-06-26T06:40:05Z</time>
      </trkpt>
      <trkpt lat="42.8938000" lon="1.4769260">
        <ele>1071.3</ele>
        <time>2022-06-26T06:40:09Z</time>
      </trkpt>
      <trkpt lat="42.8938150" lon="1.4768600">
        <ele>1071.8</ele>
        <time>2022-06-26T06:40:11Z</time>
      </trkpt>
      <trkpt lat="42.8938230" lon="1.4767940">
        <ele>1072.2</ele>
        <time>2022-06-26T06:40:13Z</time>
      </trkpt>
      <trkpt lat="42.8938310" lon="1.4767320">
        <ele>1072.6</ele>
        <time>2022-06-26T06:40:15Z</time>
      </trkpt>
      <trkpt lat="42.8938320" lon="1.4766320">
        <ele>1073.3</ele>
        <time>2022-06-26T06:40:18Z</time>
      </trkpt>
      <trkpt lat="42.8938270" lon="1.4764980">
        <ele>1074.3</ele>
        <time>2022-06-26T06:40:22Z</time>
      </trkpt>
      <trkpt lat="42.8938340" lon="1.4764400">
        <ele>1074.7</ele>
        <time>2022-06-26T06:40:24Z</time>
      </trkpt>
      <trkpt lat="42.8938500" lon="1.4763480">
        <ele>1075.3</ele>
        <time>2022-06-26T06:40:27Z</time>
      </trkpt>
      <trkpt lat="42.8938850" lon="1.4762040">
        <ele>1076.3</ele>
        <time>2022-06-26T06:40:31Z</time>
      </trkpt>
      <trkpt lat="42.8939090" lon="1.4761390">
        <ele>1076.8</ele>
        <time>2022-06-26T06:40:33Z</time>
      </trkpt>
      <trkpt lat="42.8939390" lon="1.4760800">
        <ele>1077.3</ele>
        <time>2022-06-26T06:40:35Z</time>
      </trkpt>
      <trkpt lat="42.8940470" lon="1.4759360">
        <ele>1078.6</ele>
        <time>2022-06-26T06:40:41Z</time>
      </trkpt>
      <trkpt lat="42.8940660" lon="1.4759150">
        <ele>1078.8</ele>
        <time>2022-06-26T06:40:42Z</time>
      </trkpt>
      <trkpt lat="42.8941210" lon="1.4758460">
        <ele>1079.4</ele>
        <time>2022-06-26T06:40:45Z</time>
      </trkpt>
      <trkpt lat="42.8942020" lon="1.4757770">
        <ele>1080.2</ele>
        <time>2022-06-26T06:40:49Z</time>
      </trkpt>
      <trkpt lat="42.8942220" lon="1.4757590">
        <ele>1080.4</ele>
        <time>2022-06-26T06:40:50Z</time>
      </trkpt>
      <trkpt lat="42.8943010" lon="1.4756810">
        <ele>1081.3</ele>
        <time>2022-06-26T06:40:54Z</time>
      </trkpt>
      <trkpt lat="42.8943840" lon="1.4756150">
        <ele>1082.1</ele>
        <time>2022-06-26T06:40:58Z</time>
      </trkpt>
      <trkpt lat="42.8944300" lon="1.4755820">
        <ele>1082.6</ele>
        <time>2022-06-26T06:41:00Z</time>
      </trkpt>
      <trkpt lat="42.8945560" lon="1.4754650">
        <ele>1084.0</ele>
        <time>2022-06-26T06:41:06Z</time>
      </trkpt>
      <trkpt lat="42.8945770" lon="1.4754460">
        <ele>1084.3</ele>
        <time>2022-06-26T06:41:07Z</time>
      </trkpt>
      <trkpt lat="42.8946600" lon="1.4753550">
        <ele>1085.2</ele>
        <time>2022-06-26T06:41:11Z</time>
      </trkpt>
      <trkpt lat="42.8947030" lon="1.4752640">
        <ele>1086.0</ele>
        <time>2022-06-26T06:41:14Z</time>
      </trkpt>
      <trkpt lat="42.8947100" lon="1.4752280">
        <ele>1086.2</ele>
        <time>2022-06-26T06:41:15Z</time>
      </trkpt>
      <trkpt lat="42.8947800" lon="1.4750000">
        <ele>1087.6</ele>
        <time>2022-06-26T06:41:21Z</time>
      </trkpt>
      <trkpt lat="42.8947800" lon="1.4750000">
        <ele>1087.6</ele>
        <time>2022-06-26T06:41:22Z</time>
      </trkpt>
      <trkpt lat="42.8948170" lon="1.4748900">
        <ele>1088.3</ele>
        <time>2022-06-26T06:41:26Z</time>
      </trkpt>
      <trkpt lat="42.8948450" lon="1.4748030">
        <ele>1088.9</ele>
        <time>2022-06-26T06:41:29Z</time>
      </trkpt>
      <trkpt lat="42.8948650" lon="1.4747500">
        <ele>1089.2</ele>
        <time>2022-06-26T06:41:31Z</time>
      </trkpt>
      <trkpt lat="42.8948940" lon="1.4746260">
        <ele>1090.1</ele>
        <time>2022-06-26T06:41:35Z</time>
      </trkpt>
      <trkpt lat="42.8949030" lon="1.4745940">
        <ele>1090.3</ele>
        <time>2022-06-26T06:41:36Z</time>
      </trkpt>
      <trkpt lat="42.8949420" lon="1.4744790">
        <ele>1091.2</ele>
        <time>2022-06-26T06:41:40Z</time>
      </trkpt>
      <trkpt lat="42.8949490" lon="1.4744570">
        <ele>1091.3</ele>
        <time>2022-06-26T06:41:41Z</time>
      </trkpt>
      <trkpt lat="42.8949630" lon="1.4743540">
        <ele>1092.0</ele>
        <time>2022-06-26T06:41:45Z</time>
      </trkpt>
      <trkpt lat="42.8949750" lon="1.4742710">
        <ele>1092.5</ele>
        <time>2022-06-26T06:41:48Z</time>
      </trkpt>
      <trkpt lat="42.8949750" lon="1.4742090">
        <ele>1092.9</ele>
        <time>2022-06-26T06:41:50Z</time>
      </trkpt>
      <trkpt lat="42.8949720" lon="1.4740750">
        <ele>1093.7</ele>
        <time>2022-06-26T06:41:54Z</time>
      </trkpt>
      <trkpt lat="42.8949730" lon="1.4740390">
        <ele>1094.0</ele>
        <time>2022-06-26T06:41:55Z</time>
      </trkpt>
      <trkpt lat="42.8949580" lon="1.4738630">
        <ele>1095.0</ele>
        <time>2022-06-26T06:42:00Z</time>
      </trkpt>
      <trkpt lat="42.8949540" lon="1.4738240">
        <ele>1095.3</ele>
        <time>2022-06-26T06:42:01Z</time>
      </trkpt>
      <trkpt lat="42.8949490" lon="1.4736820">
        <ele>1096.1</ele>
        <time>2022-06-26T06:42:05Z</time>
      </trkpt>
      <trkpt lat="42.8949520" lon="1.4736500">
        <ele>1096.3</ele>
        <time>2022-06-26T06:42:06Z</time>
      </trkpt>
      <trkpt lat="42.8949550" lon="1.4736100">
        <ele>1096.5</ele>
        <time>2022-06-26T06:42:07Z</time>
      </trkpt>
      <trkpt lat="42.8949630" lon="1.4734030">
        <ele>1097.8</ele>
        <time>2022-06-26T06:42:12Z</time>
      </trkpt>
      <trkpt lat="42.8949720" lon="1.4732940">
        <ele>1098.5</ele>
        <time>2022-06-26T06:42:15Z</time>
      </trkpt>
      <trkpt lat="42.8949800" lon="1.4732190">
        <ele>1099.0</ele>
        <time>2022-06-26T06:42:17Z</time>
      </trkpt>
      <trkpt lat="42.8950000" lon="1.4730120">
        <ele>1100.3</ele>
        <time>2022-06-26T06:42:23Z</time>
      </trkpt>
      <trkpt lat="42.8950040" lon="1.4729850">
        <ele>1100.5</ele>
        <time>2022-06-26T06:42:24Z</time>
      </trkpt>
      <trkpt lat="42.8950360" lon="1.4728880">
        <ele>1101.1</ele>
        <time>2022-06-26T06:42:28Z</time>
      </trkpt>
      <trkpt lat="42.8950570" lon="1.4728330">
        <ele>1101.5</ele>
        <time>2022-06-26T06:42:30Z</time>
      </trkpt>
      <trkpt lat="42.8950890" lon="1.4727380">
        <ele>1102.1</ele>
        <time>2022-06-26T06:42:33Z</time>
      </trkpt>
      <trkpt lat="42.8951290" lon="1.4725980">
        <ele>1102.8</ele>
        <time>2022-06-26T06:42:37Z</time>
      </trkpt>
      <trkpt lat="42.8951400" lon="1.4725650">
        <ele>1103.0</ele>
        <time>2022-06-26T06:42:38Z</time>
      </trkpt>
      <trkpt lat="42.8951990" lon="1.4723870">
        <ele>1103.9</ele>
        <time>2022-06-26T06:42:43Z</time>
      </trkpt>
      <trkpt lat="42.8952350" lon="1.4722790">
        <ele>1104.4</ele>
        <time>2022-06-26T06:42:46Z</time>
      </trkpt>
      <trkpt lat="42.8952850" lon="1.4721430">
        <ele>1105.0</ele>
        <time>2022-06-26T06:42:50Z</time>
      </trkpt>
      <trkpt lat="42.8953540" lon="1.4719420">
        <ele>1106.0</ele>
        <time>2022-06-26T06:42:56Z</time>
      </trkpt>
      <trkpt lat="42.8954680" lon="1.4716720">
        <ele>1107.4</ele>
        <time>2022-06-26T06:43:04Z</time>
      </trkpt>
      <trkpt lat="42.8955360" lon="1.4714810">
        <ele>1108.4</ele>
        <time>2022-06-26T06:43:10Z</time>
      </trkpt>
      <trkpt lat="42.8955490" lon="1.4714540">
        <ele>1108.5</ele>
        <time>2022-06-26T06:43:11Z</time>
      </trkpt>
      <trkpt lat="42.8956330" lon="1.4712790">
        <ele>1109.5</ele>
        <time>2022-06-26T06:43:17Z</time>
      </trkpt>
      <trkpt lat="42.8956440" lon="1.4712400">
        <ele>1109.7</ele>
        <time>2022-06-26T06:43:18Z</time>
      </trkpt>
      <trkpt lat="42.8957080" lon="1.4710220">
        <ele>1110.6</ele>
        <time>2022-06-26T06:43:24Z</time>
      </trkpt>
      <trkpt lat="42.8957150" lon="1.4709390">
        <ele>1110.8</ele>
        <time>2022-06-26T06:43:26Z</time>
      </trkpt>
      <trkpt lat="42.8957140" lon="1.4708080">
        <ele>1111.2</ele>
        <time>2022-06-26T06:43:29Z</time>
      </trkpt>
      <trkpt lat="42.8956890" lon="1.4705760">
        <ele>1111.9</ele>
        <time>2022-06-26T06:43:34Z</time>
      </trkpt>
      <trkpt lat="42.8956870" lon="1.4704900">
        <ele>1112.2</ele>
        <time>2022-06-26T06:43:36Z</time>
      </trkpt>
      <trkpt lat="42.8956810" lon="1.4703190">
        <ele>1112.8</ele>
        <time>2022-06-26T06:43:40Z</time>
      </trkpt>
      <trkpt lat="42.8956710" lon="1.4701890">
        <ele>1113.2</ele>
        <time>2022-06-26T06:43:43Z</time>
      </trkpt>
      <trkpt lat="42.8956530" lon="1.4700600">
        <ele>1113.7</ele>
        <time>2022-06-26T06:43:46Z</time>
      </trkpt>
      <trkpt lat="42.8956330" lon="1.4698240">
        <ele>1114.6</ele>
        <time>2022-06-26T06:43:52Z</time>
      </trkpt>
      <trkpt lat="42.8956290" lon="1.4697810">
        <ele>1114.8</ele>
        <time>2022-06-26T06:43:53Z</time>
      </trkpt>
      <trkpt lat="42.8955920" lon="1.4694740">
        <ele>1116.1</ele>
        <time>2022-06-26T06:44:00Z</time>
      </trkpt>
      <trkpt lat="42.8955710" lon="1.4692880">
        <ele>1116.8</ele>
        <time>2022-06-26T06:44:04Z</time>
      </trkpt>
      <trkpt lat="42.8955460" lon="1.4691030">
        <ele>1117.6</ele>
        <time>2022-06-26T06:44:07Z</time>
      </trkpt>
      <trkpt lat="42.8955370" lon="1.4689630">
        <ele>1118.2</ele>
        <time>2022-06-26T06:44:10Z</time>
      </trkpt>
      <trkpt lat="42.8955370" lon="1.4688000">
        <ele>1118.9</ele>
        <time>2022-06-26T06:44:15Z</time>
      </trkpt>
      <trkpt lat="42.8955740" lon="1.4684140">
        <ele>1120.6</ele>
        <time>2022-06-26T06:44:23Z</time>
      </trkpt>
      <trkpt lat="42.8956730" lon="1.4680410">
        <ele>1122.3</ele>
        <time>2022-06-26T06:44:32Z</time>
      </trkpt>
      <trkpt lat="42.8957680" lon="1.4678050">
        <ele>1123.4</ele>
        <time>2022-06-26T06:44:39Z</time>
      </trkpt>
      <trkpt lat="42.8958460" lon="1.4676160">
        <ele>1124.4</ele>
        <time>2022-06-26T06:44:44Z</time>
      </trkpt>
      <trkpt lat="42.8959500" lon="1.4672380">
        <ele>1126.1</ele>
        <time>2022-06-26T06:44:52Z</time>
      </trkpt>
      <trkpt lat="42.8959570" lon="1.4671890">
        <ele>1126.3</ele>
        <time>2022-06-26T06:44:54Z</time>
      </trkpt>
      <trkpt lat="42.8959980" lon="1.4667760">
        <ele>1127.7</ele>
        <time>2022-06-26T06:45:02Z</time>
      </trkpt>
      <trkpt lat="42.8960200" lon="1.4664090">
        <ele>1129.1</ele>
        <time>2022-06-26T06:45:10Z</time>
      </trkpt>
      <trkpt lat="42.8960370" lon="1.4663190">
        <ele>1129.5</ele>
        <time>2022-06-26T06:45:12Z</time>
      </trkpt>
      <trkpt lat="42.8961210" lon="1.4658210">
        <ele>1131.7</ele>
        <time>2022-06-26T06:45:23Z</time>
      </trkpt>
      <trkpt lat="42.8961970" lon="1.4654490">
        <ele>1133.2</ele>
        <time>2022-06-26T06:45:31Z</time>
      </trkpt>
      <trkpt lat="42.8962340" lon="1.4653080">
        <ele>1133.8</ele>
        <time>2022-06-26T06:45:34Z</time>
      </trkpt>
      <trkpt lat="42.8962710" lon="1.4651720">
        <ele>1134.4</ele>
        <time>2022-06-26T06:45:37Z</time>
      </trkpt>
      <trkpt lat="42.8963680" lon="1.4648210">
        <ele>1135.9</ele>
        <time>2022-06-26T06:45:45Z</time>
      </trkpt>
      <trkpt lat="42.8965320" lon="1.4644760">
        <ele>1137.8</ele>
        <time>2022-06-26T06:45:54Z</time>
      </trkpt>
      <trkpt lat="42.8966380" lon="1.4642890">
        <ele>1138.9</ele>
        <time>2022-06-26T06:45:59Z</time>
      </trkpt>
      <trkpt lat="42.8967330" lon="1.4640890">
        <ele>1139.9</ele>
        <time>2022-06-26T06:46:04Z</time>
      </trkpt>
      <trkpt lat="42.8968180" lon="1.4638410">
        <ele>1141.0</ele>
        <time>2022-06-26T06:46:10Z</time>
      </trkpt>
      <trkpt lat="42.8968660" lon="1.4636650">
        <ele>1141.6</ele>
        <time>2022-06-26T06:46:14Z</time>
      </trkpt>
      <trkpt lat="42.8969580" lon="1.4632570">
        <ele>1143.1</ele>
        <time>2022-06-26T06:46:23Z</time>
      </trkpt>
      <trkpt lat="42.8969790" lon="1.4631680">
        <ele>1143.4</ele>
        <time>2022-06-26T06:46:25Z</time>
      </trkpt>
      <trkpt lat="42.8970180" lon="1.4627800">
        <ele>1144.6</ele>
        <time>2022-06-26T06:46:33Z</time>
      </trkpt>
      <trkpt lat="42.8970020" lon="1.4626790">
        <ele>1144.8</ele>
        <time>2022-06-26T06:46:35Z</time>
      </trkpt>
      <trkpt lat="42.8969580" lon="1.4624710">
        <ele>1145.2</ele>
        <time>2022-06-26T06:46:39Z</time>
      </trkpt>
      <trkpt lat="42.8969400" lon="1.4624190">
        <ele>1145.3</ele>
        <time>2022-06-26T06:46:40Z</time>
      </trkpt>
      <trkpt lat="42.8967530" lon="1.4620270">
        <ele>1146.3</ele>
        <time>2022-06-26T06:46:48Z</time>
      </trkpt>
      <trkpt lat="42.8967360" lon="1.4619150">
        <ele>1146.6</ele>
        <time>2022-06-26T06:46:50Z</time>
      </trkpt>
      <trkpt lat="42.8967630" lon="1.4618130">
        <ele>1147.0</ele>
        <time>2022-06-26T06:46:52Z</time>
      </trkpt>
      <trkpt lat="42.8968580" lon="1.4617390">
        <ele>1147.4</ele>
        <time>2022-06-26T06:46:55Z</time>
      </trkpt>
      <trkpt lat="42.8969630" lon="1.4617790">
        <ele>1147.7</ele>
        <time>2022-06-26T06:46:58Z</time>
      </trkpt>
      <trkpt lat="42.8970470" lon="1.4619500">
        <ele>1148.0</ele>
        <time>2022-06-26T06:47:02Z</time>
      </trkpt>
      <trkpt lat="42.8971070" lon="1.4623290">
        <ele>1148.4</ele>
        <time>2022-06-26T06:47:09Z</time>
      </trkpt>
      <trkpt lat="42.8971280" lon="1.4624910">
        <ele>1148.6</ele>
        <time>2022-06-26T06:47:12Z</time>
      </trkpt>
      <trkpt lat="42.8971690" lon="1.4628250">
        <ele>1149.0</ele>
        <time>2022-06-26T06:47:18Z</time>
      </trkpt>
      <trkpt lat="42.8971860" lon="1.4631180">
        <ele>1149.4</ele>
        <time>2022-06-26T06:47:23Z</time>
      </trkpt>
      <trkpt lat="42.8971850" lon="1.4631730">
        <ele>1149.4</ele>
        <time>2022-06-26T06:47:24Z</time>
      </trkpt>
      <trkpt lat="42.8971810" lon="1.4632290">
        <ele>1149.5</ele>
        <time>2022-06-26T06:47:25Z</time>
      </trkpt>
      <trkpt lat="42.8971440" lon="1.4635590">
        <ele>1150.1</ele>
        <time>2022-06-26T06:47:31Z</time>
      </trkpt>
      <trkpt lat="42.8970990" lon="1.4639450">
        <ele>1150.9</ele>
        <time>2022-06-26T06:47:38Z</time>
      </trkpt>
      <trkpt lat="42.8970800" lon="1.4640500">
        <ele>1151.2</ele>
        <time>2022-06-26T06:47:40Z</time>
      </trkpt>
      <trkpt lat="42.8969700" lon="1.4644530">
        <ele>1152.3</ele>
        <time>2022-06-26T06:47:48Z</time>
      </trkpt>
      <trkpt lat="42.8969700" lon="1.4644530">
        <ele>1152.3</ele>
        <time>2022-06-26T06:47:49Z</time>
      </trkpt>
      <trkpt lat="42.8968100" lon="1.4649800">
        <ele>1154.1</ele>
        <time>2022-06-26T06:47:59Z</time>
      </trkpt>
      <trkpt lat="42.8967920" lon="1.4650820">
        <ele>1154.5</ele>
        <time>2022-06-26T06:48:01Z</time>
      </trkpt>
      <trkpt lat="42.8967550" lon="1.4654420">
        <ele>1155.7</ele>
        <time>2022-06-26T06:48:08Z</time>
      </trkpt>
      <trkpt lat="42.8967480" lon="1.4655940">
        <ele>1156.2</ele>
        <time>2022-06-26T06:48:11Z</time>
      </trkpt>
      <trkpt lat="42.8967590" lon="1.4658980">
        <ele>1157.4</ele>
        <time>2022-06-26T06:48:17Z</time>
      </trkpt>
      <trkpt lat="42.8967600" lon="1.4661520">
        <ele>1158.4</ele>
        <time>2022-06-26T06:48:22Z</time>
      </trkpt>
      <trkpt lat="42.8967470" lon="1.4663960">
        <ele>1159.5</ele>
        <time>2022-06-26T06:48:27Z</time>
      </trkpt>
      <trkpt lat="42.8967300" lon="1.4665940">
        <ele>1160.3</ele>
        <time>2022-06-26T06:48:31Z</time>
      </trkpt>
      <trkpt lat="42.8967260" lon="1.4666440">
        <ele>1160.5</ele>
        <time>2022-06-26T06:48:32Z</time>
      </trkpt>
      <trkpt lat="42.8967220" lon="1.4666950">
        <ele>1160.7</ele>
        <time>2022-06-26T06:48:33Z</time>
      </trkpt>
      <trkpt lat="42.8967170" lon="1.4667440">
        <ele>1160.9</ele>
        <time>2022-06-26T06:48:34Z</time>
      </trkpt>
      <trkpt lat="42.8967110" lon="1.4667920">
        <ele>1161.1</ele>
        <time>2022-06-26T06:48:35Z</time>
      </trkpt>
      <trkpt lat="42.8967010" lon="1.4668900">
        <ele>1161.5</ele>
        <time>2022-06-26T06:48:37Z</time>
      </trkpt>
      <trkpt lat="42.8966960" lon="1.4669380">
        <ele>1161.6</ele>
        <time>2022-06-26T06:48:38Z</time>
      </trkpt>
      <trkpt lat="42.8966740" lon="1.4670810">
        <ele>1162.2</ele>
        <time>2022-06-26T06:48:41Z</time>
      </trkpt>
      <trkpt lat="42.8966340" lon="1.4673630">
        <ele>1163.3</ele>
        <time>2022-06-26T06:48:47Z</time>
      </trkpt>
      <trkpt lat="42.8966340" lon="1.4673630">
        <ele>1163.3</ele>
        <time>2022-06-26T06:48:48Z</time>
      </trkpt>
      <trkpt lat="42.8965920" lon="1.4676560">
        <ele>1164.5</ele>
        <time>2022-06-26T06:48:54Z</time>
      </trkpt>
      <trkpt lat="42.8965680" lon="1.4678020">
        <ele>1165.1</ele>
        <time>2022-06-26T06:48:57Z</time>
      </trkpt>
      <trkpt lat="42.8965440" lon="1.4679540">
        <ele>1165.8</ele>
        <time>2022-06-26T06:49:00Z</time>
      </trkpt>
      <trkpt lat="42.8965070" lon="1.4681980">
        <ele>1166.8</ele>
        <time>2022-06-26T06:49:05Z</time>
      </trkpt>
      <trkpt lat="42.8965020" lon="1.4682930">
        <ele>1167.2</ele>
        <time>2022-06-26T06:49:07Z</time>
      </trkpt>
      <trkpt lat="42.8965550" lon="1.4684750">
        <ele>1167.9</ele>
        <time>2022-06-26T06:49:11Z</time>
      </trkpt>
      <trkpt lat="42.8965780" lon="1.4685160">
        <ele>1168.1</ele>
        <time>2022-06-26T06:49:12Z</time>
      </trkpt>
      <trkpt lat="42.8967470" lon="1.4687910">
        <ele>1169.2</ele>
        <time>2022-06-26T06:49:18Z</time>
      </trkpt>
      <trkpt lat="42.8967650" lon="1.4688310">
        <ele>1169.4</ele>
        <time>2022-06-26T06:49:19Z</time>
      </trkpt>
      <trkpt lat="42.8968490" lon="1.4690430">
        <ele>1170.2</ele>
        <time>2022-06-26T06:49:24Z</time>
      </trkpt>
      <trkpt lat="42.8969150" lon="1.4691640">
        <ele>1170.8</ele>
        <time>2022-06-26T06:49:27Z</time>
      </trkpt>
      <trkpt lat="42.8969780" lon="1.4692040">
        <ele>1171.1</ele>
        <time>2022-06-26T06:49:29Z</time>
      </trkpt>
      <trkpt lat="42.8970120" lon="1.4692170">
        <ele>1171.3</ele>
        <time>2022-06-26T06:49:30Z</time>
      </trkpt>
      <trkpt lat="42.8970420" lon="1.4692170">
        <ele>1171.4</ele>
        <time>2022-06-26T06:49:31Z</time>
      </trkpt>
      <trkpt lat="42.8971020" lon="1.4691940">
        <ele>1171.7</ele>
        <time>2022-06-26T06:49:34Z</time>
      </trkpt>
      <trkpt lat="42.8971630" lon="1.4691530">
        <ele>1172.0</ele>
        <time>2022-06-26T06:49:36Z</time>
      </trkpt>
      <trkpt lat="42.8972800" lon="1.4689800">
        <ele>1172.7</ele>
        <time>2022-06-26T06:49:40Z</time>
      </trkpt>
      <trkpt lat="42.8972770" lon="1.4687770">
        <ele>1173.2</ele>
        <time>2022-06-26T06:49:44Z</time>
      </trkpt>
      <trkpt lat="42.8971530" lon="1.4685670">
        <ele>1173.7</ele>
        <time>2022-06-26T06:49:49Z</time>
      </trkpt>
      <trkpt lat="42.8969470" lon="1.4684100">
        <ele>1174.4</ele>
        <time>2022-06-26T06:49:56Z</time>
      </trkpt>
      <trkpt lat="42.8967230" lon="1.4683340">
        <ele>1175.2</ele>
        <time>2022-06-26T06:50:02Z</time>
      </trkpt>
      <trkpt lat="42.8966860" lon="1.4681830">
        <ele>1175.7</ele>
        <time>2022-06-26T06:50:05Z</time>
      </trkpt>
      <trkpt lat="42.8967120" lon="1.4680770">
        <ele>1176.0</ele>
        <time>2022-06-26T06:50:07Z</time>
      </trkpt>
      <trkpt lat="42.8967300" lon="1.4680270">
        <ele>1176.1</ele>
        <time>2022-06-26T06:50:08Z</time>
      </trkpt>
      <trkpt lat="42.8967630" lon="1.4679290">
        <ele>1176.4</ele>
        <time>2022-06-26T06:50:10Z</time>
      </trkpt>
      <trkpt lat="42.8968110" lon="1.4677840">
        <ele>1177.0</ele>
        <time>2022-06-26T06:50:13Z</time>
      </trkpt>
      <trkpt lat="42.8968910" lon="1.4675460">
        <ele>1177.9</ele>
        <time>2022-06-26T06:50:18Z</time>
      </trkpt>
      <trkpt lat="42.8969360" lon="1.4674040">
        <ele>1178.4</ele>
        <time>2022-06-26T06:50:21Z</time>
      </trkpt>
      <trkpt lat="42.8969820" lon="1.4672620">
        <ele>1179.0</ele>
        <time>2022-06-26T06:50:24Z</time>
      </trkpt>
      <trkpt lat="42.8970740" lon="1.4669730">
        <ele>1180.2</ele>
        <time>2022-06-26T06:50:30Z</time>
      </trkpt>
      <trkpt lat="42.8970900" lon="1.4669270">
        <ele>1180.4</ele>
        <time>2022-06-26T06:50:31Z</time>
      </trkpt>
      <trkpt lat="42.8971740" lon="1.4666420">
        <ele>1181.6</ele>
        <time>2022-06-26T06:50:37Z</time>
      </trkpt>
      <trkpt lat="42.8972170" lon="1.4665060">
        <ele>1182.3</ele>
        <time>2022-06-26T06:50:40Z</time>
      </trkpt>
      <trkpt lat="42.8972460" lon="1.4664140">
        <ele>1182.7</ele>
        <time>2022-06-26T06:50:42Z</time>
      </trkpt>
      <trkpt lat="42.8973210" lon="1.4661830">
        <ele>1183.8</ele>
        <time>2022-06-26T06:50:47Z</time>
      </trkpt>
      <trkpt lat="42.8974000" lon="1.4659780">
        <ele>1184.7</ele>
        <time>2022-06-26T06:50:52Z</time>
      </trkpt>
      <trkpt lat="42.8974830" lon="1.4657770">
        <ele>1185.7</ele>
        <time>2022-06-26T06:50:57Z</time>
      </trkpt>
      <trkpt lat="42.8975160" lon="1.4656960">
        <ele>1186.1</ele>
        <time>2022-06-26T06:50:58Z</time>
      </trkpt>
      <trkpt lat="42.8975720" lon="1.4655760">
        <ele>1186.7</ele>
        <time>2022-06-26T06:51:02Z</time>
      </trkpt>
      <trkpt lat="42.8977370" lon="1.4652690">
        <ele>1188.2</ele>
        <time>2022-06-26T06:51:09Z</time>
      </trkpt>
      <trkpt lat="42.8977590" lon="1.4652300">
        <ele>1188.4</ele>
        <time>2022-06-26T06:51:10Z</time>
      </trkpt>
      <trkpt lat="42.8978620" lon="1.4650270">
        <ele>1189.4</ele>
        <time>2022-06-26T06:51:15Z</time>
      </trkpt>
      <trkpt lat="42.8979780" lon="1.4647810">
        <ele>1190.6</ele>
        <time>2022-06-26T06:51:21Z</time>
      </trkpt>
      <trkpt lat="42.8979960" lon="1.4647410">
        <ele>1190.8</ele>
        <time>2022-06-26T06:51:22Z</time>
      </trkpt>
      <trkpt lat="42.8981290" lon="1.4644540">
        <ele>1192.2</ele>
        <time>2022-06-26T06:51:29Z</time>
      </trkpt>
      <trkpt lat="42.8981880" lon="1.4643340">
        <ele>1192.8</ele>
        <time>2022-06-26T06:51:32Z</time>
      </trkpt>
      <trkpt lat="42.8982090" lon="1.4642950">
        <ele>1192.9</ele>
        <time>2022-06-26T06:51:33Z</time>
      </trkpt>
      <trkpt lat="42.8983660" lon="1.4640170">
        <ele>1194.3</ele>
        <time>2022-06-26T06:51:40Z</time>
      </trkpt>
      <trkpt lat="42.8984130" lon="1.4639410">
        <ele>1194.6</ele>
        <time>2022-06-26T06:51:42Z</time>
      </trkpt>
      <trkpt lat="42.8985150" lon="1.4637350">
        <ele>1195.6</ele>
        <time>2022-06-26T06:51:47Z</time>
      </trkpt>
      <trkpt lat="42.8985560" lon="1.4635930">
        <ele>1196.1</ele>
        <time>2022-06-26T06:51:50Z</time>
      </trkpt>
      <trkpt lat="42.8985710" lon="1.4633880">
        <ele>1197.0</ele>
        <time>2022-06-26T06:51:54Z</time>
      </trkpt>
      <trkpt lat="42.8985600" lon="1.4632870">
        <ele>1197.3</ele>
        <time>2022-06-26T06:51:56Z</time>
      </trkpt>
      <trkpt lat="42.8985120" lon="1.4630400">
        <ele>1198.2</ele>
        <time>2022-06-26T06:52:01Z</time>
      </trkpt>
      <trkpt lat="42.8984400" lon="1.4627980">
        <ele>1199.1</ele>
        <time>2022-06-26T06:52:06Z</time>
      </trkpt>
      <trkpt lat="42.8982970" lon="1.4623380">
        <ele>1200.9</ele>
        <time>2022-06-26T06:52:16Z</time>
      </trkpt>
      <trkpt lat="42.8982840" lon="1.4622910">
        <ele>1201.1</ele>
        <time>2022-06-26T06:52:17Z</time>
      </trkpt>
      <trkpt lat="42.8982370" lon="1.4621550">
        <ele>1201.6</ele>
        <time>2022-06-26T06:52:20Z</time>
      </trkpt>
      <trkpt lat="42.8981680" lon="1.4619750">
        <ele>1202.4</ele>
        <time>2022-06-26T06:52:24Z</time>
      </trkpt>
      <trkpt lat="42.8981370" lon="1.4618820">
        <ele>1202.8</ele>
        <time>2022-06-26T06:52:26Z</time>
      </trkpt>
      <trkpt lat="42.8980710" lon="1.4616450">
        <ele>1203.7</ele>
        <time>2022-06-26T06:52:31Z</time>
      </trkpt>
      <trkpt lat="42.8980480" lon="1.4615500">
        <ele>1204.1</ele>
        <time>2022-06-26T06:52:34Z</time>
      </trkpt>
      <trkpt lat="42.8980050" lon="1.4613680">
        <ele>1204.9</ele>
        <time>2022-06-26T06:52:37Z</time>
      </trkpt>
      <trkpt lat="42.8979490" lon="1.4610870">
        <ele>1206.2</ele>
        <time>2022-06-26T06:52:43Z</time>
      </trkpt>
      <trkpt lat="42.8979490" lon="1.4610870">
        <ele>1206.2</ele>
        <time>2022-06-26T06:52:44Z</time>
      </trkpt>
      <trkpt lat="42.8979600" lon="1.4608010">
        <ele>1207.7</ele>
        <time>2022-06-26T06:52:50Z</time>
      </trkpt>
      <trkpt lat="42.8979750" lon="1.4607600">
        <ele>1207.9</ele>
        <time>2022-06-26T06:52:51Z</time>
      </trkpt>
      <trkpt lat="42.8980730" lon="1.4606310">
        <ele>1208.8</ele>
        <time>2022-06-26T06:52:55Z</time>
      </trkpt>
      <trkpt lat="42.8981030" lon="1.4606110">
        <ele>1209.1</ele>
        <time>2022-06-26T06:52:56Z</time>
      </trkpt>
      <trkpt lat="42.8982020" lon="1.4605710">
        <ele>1209.7</ele>
        <time>2022-06-26T06:52:59Z</time>
      </trkpt>
      <trkpt lat="42.8983060" lon="1.4605230">
        <ele>1210.4</ele>
        <time>2022-06-26T06:53:02Z</time>
      </trkpt>
      <trkpt lat="42.8983990" lon="1.4604510">
        <ele>1211.0</ele>
        <time>2022-06-26T06:53:05Z</time>
      </trkpt>
      <trkpt lat="42.8984370" lon="1.4603740">
        <ele>1211.4</ele>
        <time>2022-06-26T06:53:07Z</time>
      </trkpt>
      <trkpt lat="42.8983980" lon="1.4601490">
        <ele>1212.1</ele>
        <time>2022-06-26T06:53:11Z</time>
      </trkpt>
      <trkpt lat="42.8982730" lon="1.4599690">
        <ele>1212.7</ele>
        <time>2022-06-26T06:53:16Z</time>
      </trkpt>
      <trkpt lat="42.8982270" lon="1.4598920">
        <ele>1213.0</ele>
        <time>2022-06-26T06:53:19Z</time>
      </trkpt>
      <trkpt lat="42.8981910" lon="1.4597450">
        <ele>1213.5</ele>
        <time>2022-06-26T06:53:22Z</time>
      </trkpt>
      <trkpt lat="42.8981890" lon="1.4596940">
        <ele>1213.7</ele>
        <time>2022-06-26T06:53:23Z</time>
      </trkpt>
      <trkpt lat="42.8982120" lon="1.4594940">
        <ele>1214.5</ele>
        <time>2022-06-26T06:53:27Z</time>
      </trkpt>
      <trkpt lat="42.8982510" lon="1.4594070">
        <ele>1214.9</ele>
        <time>2022-06-26T06:53:29Z</time>
      </trkpt>
      <trkpt lat="42.8983790" lon="1.4593170">
        <ele>1215.7</ele>
        <time>2022-06-26T06:53:33Z</time>
      </trkpt>
      <trkpt lat="42.8986310" lon="1.4592830">
        <ele>1217.1</ele>
        <time>2022-06-26T06:53:40Z</time>
      </trkpt>
      <trkpt lat="42.8987360" lon="1.4592590">
        <ele>1217.7</ele>
        <time>2022-06-26T06:53:43Z</time>
      </trkpt>
      <trkpt lat="42.8988300" lon="1.4591850">
        <ele>1218.3</ele>
        <time>2022-06-26T06:53:46Z</time>
      </trkpt>
      <trkpt lat="42.8988850" lon="1.4591150">
        <ele>1218.7</ele>
        <time>2022-06-26T06:53:48Z</time>
      </trkpt>
      <trkpt lat="42.8989980" lon="1.4588660">
        <ele>1219.9</ele>
        <time>2022-06-26T06:53:54Z</time>
      </trkpt>
      <trkpt lat="42.8990140" lon="1.4587730">
        <ele>1220.3</ele>
        <time>2022-06-26T06:53:56Z</time>
      </trkpt>
      <trkpt lat="42.8990110" lon="1.4585850">
        <ele>1221.1</ele>
        <time>2022-06-26T06:53:59Z</time>
      </trkpt>
      <trkpt lat="42.8989870" lon="1.4584520">
        <ele>1221.7</ele>
        <time>2022-06-26T06:54:03Z</time>
      </trkpt>
      <trkpt lat="42.8989500" lon="1.4583730">
        <ele>1222.2</ele>
        <time>2022-06-26T06:54:04Z</time>
      </trkpt>
      <trkpt lat="42.8989250" lon="1.4583400">
        <ele>1222.4</ele>
        <time>2022-06-26T06:54:05Z</time>
      </trkpt>
      <trkpt lat="42.8988410" lon="1.4582600">
        <ele>1223.0</ele>
        <time>2022-06-26T06:54:09Z</time>
      </trkpt>
      <trkpt lat="42.8987260" lon="1.4581790">
        <ele>1223.7</ele>
        <time>2022-06-26T06:54:13Z</time>
      </trkpt>
      <trkpt lat="42.8986420" lon="1.4581190">
        <ele>1224.3</ele>
        <time>2022-06-26T06:54:16Z</time>
      </trkpt>
      <trkpt lat="42.8985810" lon="1.4580220">
        <ele>1224.9</ele>
        <time>2022-06-26T06:54:19Z</time>
      </trkpt>
      <trkpt lat="42.8985730" lon="1.4579370">
        <ele>1225.3</ele>
        <time>2022-06-26T06:54:21Z</time>
      </trkpt>
      <trkpt lat="42.8985780" lon="1.4578560">
        <ele>1225.6</ele>
        <time>2022-06-26T06:54:23Z</time>
      </trkpt>
      <trkpt lat="42.8985960" lon="1.4577780">
        <ele>1226.0</ele>
        <time>2022-06-26T06:54:25Z</time>
      </trkpt>
      <trkpt lat="42.8986230" lon="1.4576620">
        <ele>1226.6</ele>
        <time>2022-06-26T06:54:28Z</time>
      </trkpt>
      <trkpt lat="42.8986460" lon="1.4575860">
        <ele>1227.0</ele>
        <time>2022-06-26T06:54:30Z</time>
      </trkpt>
      <trkpt lat="42.8987350" lon="1.4573570">
        <ele>1228.2</ele>
        <time>2022-06-26T06:54:36Z</time>
      </trkpt>
      <trkpt lat="42.8987490" lon="1.4573200">
        <ele>1228.4</ele>
        <time>2022-06-26T06:54:37Z</time>
      </trkpt>
      <trkpt lat="42.8988230" lon="1.4570910">
        <ele>1229.6</ele>
        <time>2022-06-26T06:54:43Z</time>
      </trkpt>
      <trkpt lat="42.8988510" lon="1.4570170">
        <ele>1230.0</ele>
        <time>2022-06-26T06:54:45Z</time>
      </trkpt>
      <trkpt lat="42.8989200" lon="1.4568150">
        <ele>1231.0</ele>
        <time>2022-06-26T06:54:50Z</time>
      </trkpt>
      <trkpt lat="42.8989860" lon="1.4566590">
        <ele>1231.9</ele>
        <time>2022-06-26T06:54:54Z</time>
      </trkpt>
      <trkpt lat="42.8990040" lon="1.4566190">
        <ele>1232.1</ele>
        <time>2022-06-26T06:54:55Z</time>
      </trkpt>
      <trkpt lat="42.8990800" lon="1.4564090">
        <ele>1233.0</ele>
        <time>2022-06-26T06:55:00Z</time>
      </trkpt>
      <trkpt lat="42.8991260" lon="1.4562300">
        <ele>1233.7</ele>
        <time>2022-06-26T06:55:04Z</time>
      </trkpt>
      <trkpt lat="42.8991480" lon="1.4560910">
        <ele>1234.2</ele>
        <time>2022-06-26T06:55:07Z</time>
      </trkpt>
      <trkpt lat="42.8991700" lon="1.4558580">
        <ele>1235.1</ele>
        <time>2022-06-26T06:55:12Z</time>
      </trkpt>
      <trkpt lat="42.8991760" lon="1.4557630">
        <ele>1235.5</ele>
        <time>2022-06-26T06:55:14Z</time>
      </trkpt>
      <trkpt lat="42.8991940" lon="1.4554840">
        <ele>1236.6</ele>
        <time>2022-06-26T06:55:20Z</time>
      </trkpt>
      <trkpt lat="42.8991990" lon="1.4553890">
        <ele>1236.9</ele>
        <time>2022-06-26T06:55:22Z</time>
      </trkpt>
      <trkpt lat="42.8992030" lon="1.4552490">
        <ele>1237.5</ele>
        <time>2022-06-26T06:55:25Z</time>
      </trkpt>
      <trkpt lat="42.8992120" lon="1.4549810">
        <ele>1238.7</ele>
        <time>2022-06-26T06:55:31Z</time>
      </trkpt>
      <trkpt lat="42.8992160" lon="1.4548920">
        <ele>1239.1</ele>
        <time>2022-06-26T06:55:33Z</time>
      </trkpt>
      <trkpt lat="42.8992120" lon="1.4547050">
        <ele>1239.8</ele>
        <time>2022-06-26T06:55:37Z</time>
      </trkpt>
      <trkpt lat="42.8992160" lon="1.4544690">
        <ele>1240.7</ele>
        <time>2022-06-26T06:55:42Z</time>
      </trkpt>
      <trkpt lat="42.8992180" lon="1.4544230">
        <ele>1240.9</ele>
        <time>2022-06-26T06:55:43Z</time>
      </trkpt>
      <trkpt lat="42.8992120" lon="1.4540350">
        <ele>1242.3</ele>
        <time>2022-06-26T06:55:51Z</time>
      </trkpt>
      <trkpt lat="42.8992070" lon="1.4539860">
        <ele>1242.5</ele>
        <time>2022-06-26T06:55:52Z</time>
      </trkpt>
      <trkpt lat="42.8991730" lon="1.4537910">
        <ele>1243.3</ele>
        <time>2022-06-26T06:55:56Z</time>
      </trkpt>
      <trkpt lat="42.8991120" lon="1.4535080">
        <ele>1244.4</ele>
        <time>2022-06-26T06:56:02Z</time>
      </trkpt>
      <trkpt lat="42.8990370" lon="1.4532380">
        <ele>1245.4</ele>
        <time>2022-06-26T06:56:08Z</time>
      </trkpt>
      <trkpt lat="42.8990100" lon="1.4530980">
        <ele>1246.0</ele>
        <time>2022-06-26T06:56:11Z</time>
      </trkpt>
      <trkpt lat="42.8990240" lon="1.4529040">
        <ele>1246.6</ele>
        <time>2022-06-26T06:56:15Z</time>
      </trkpt>
      <trkpt lat="42.8990380" lon="1.4528610">
        <ele>1246.7</ele>
        <time>2022-06-26T06:56:16Z</time>
      </trkpt>
      <trkpt lat="42.8991310" lon="1.4527160">
        <ele>1246.9</ele>
        <time>2022-06-26T06:56:20Z</time>
      </trkpt>
      <trkpt lat="42.8991600" lon="1.4526870">
        <ele>1247.0</ele>
        <time>2022-06-26T06:56:21Z</time>
      </trkpt>
      <trkpt lat="42.8993390" lon="1.4526130">
        <ele>1246.6</ele>
        <time>2022-06-26T06:56:26Z</time>
      </trkpt>
      <trkpt lat="42.8995120" lon="1.4525460">
        <ele>1245.8</ele>
        <time>2022-06-26T06:56:30Z</time>
      </trkpt>
      <trkpt lat="42.8996010" lon="1.4524770">
        <ele>1245.3</ele>
        <time>2022-06-26T06:56:32Z</time>
      </trkpt>
      <trkpt lat="42.8996950" lon="1.4523020">
        <ele>1244.6</ele>
        <time>2022-06-26T06:56:35Z</time>
      </trkpt>
      <trkpt lat="42.8997150" lon="1.4522300">
        <ele>1244.4</ele>
        <time>2022-06-26T06:56:36Z</time>
      </trkpt>
      <trkpt lat="42.8998010" lon="1.4518190">
        <ele>1243.0</ele>
        <time>2022-06-26T06:56:41Z</time>
      </trkpt>
      <trkpt lat="42.8998190" lon="1.4517280">
        <ele>1242.7</ele>
        <time>2022-06-26T06:56:42Z</time>
      </trkpt>
      <trkpt lat="42.8999300" lon="1.4512350">
        <ele>1240.9</ele>
        <time>2022-06-26T06:56:47Z</time>
      </trkpt>
      <trkpt lat="42.8999790" lon="1.4510200">
        <ele>1240.2</ele>
        <time>2022-06-26T06:56:49Z</time>
      </trkpt>
      <trkpt lat="42.9000580" lon="1.4506980">
        <ele>1239.0</ele>
        <time>2022-06-26T06:56:52Z</time>
      </trkpt>
      <trkpt lat="42.9001310" lon="1.4504890">
        <ele>1238.3</ele>
        <time>2022-06-26T06:56:54Z</time>
      </trkpt>
      <trkpt lat="42.9002510" lon="1.4501630">
        <ele>1237.0</ele>
        <time>2022-06-26T06:56:56Z</time>
      </trkpt>
      <trkpt lat="42.9003520" lon="1.4498370">
        <ele>1235.6</ele>
        <time>2022-06-26T06:56:59Z</time>
      </trkpt>
      <trkpt lat="42.9004720" lon="1.4495230">
        <ele>1234.3</ele>
        <time>2022-06-26T06:57:02Z</time>
      </trkpt>
      <trkpt lat="42.9005120" lon="1.4494260">
        <ele>1233.9</ele>
        <time>2022-06-26T06:57:04Z</time>
      </trkpt>
      <trkpt lat="42.9005510" lon="1.4493260">
        <ele>1233.4</ele>
        <time>2022-06-26T06:57:05Z</time>
      </trkpt>
      <trkpt lat="42.9005780" lon="1.4492210">
        <ele>1233.0</ele>
        <time>2022-06-26T06:57:06Z</time>
      </trkpt>
      <trkpt lat="42.9005810" lon="1.4488790">
        <ele>1231.9</ele>
        <time>2022-06-26T06:57:08Z</time>
      </trkpt>
      <trkpt lat="42.9005630" lon="1.4487700">
        <ele>1231.5</ele>
        <time>2022-06-26T06:57:09Z</time>
      </trkpt>
      <trkpt lat="42.9005470" lon="1.4486640">
        <ele>1231.2</ele>
        <time>2022-06-26T06:57:10Z</time>
      </trkpt>
      <trkpt lat="42.9005320" lon="1.4484480">
        <ele>1230.5</ele>
        <time>2022-06-26T06:57:12Z</time>
      </trkpt>
      <trkpt lat="42.9005360" lon="1.4483370">
        <ele>1230.1</ele>
        <time>2022-06-26T06:57:13Z</time>
      </trkpt>
      <trkpt lat="42.9005440" lon="1.4482230">
        <ele>1229.6</ele>
        <time>2022-06-26T06:57:14Z</time>
      </trkpt>
      <trkpt lat="42.9005600" lon="1.4481090">
        <ele>1229.2</ele>
        <time>2022-06-26T06:57:15Z</time>
      </trkpt>
      <trkpt lat="42.9005790" lon="1.4480360">
        <ele>1228.9</ele>
        <time>2022-06-26T06:57:16Z</time>
      </trkpt>
      <trkpt lat="42.9005980" lon="1.4479620">
        <ele>1228.5</ele>
        <time>2022-06-26T06:57:17Z</time>
      </trkpt>
      <trkpt lat="42.9007130" lon="1.4475200">
        <ele>1226.5</ele>
        <time>2022-06-26T06:57:20Z</time>
      </trkpt>
      <trkpt lat="42.9007860" lon="1.4473400">
        <ele>1225.6</ele>
        <time>2022-06-26T06:57:21Z</time>
      </trkpt>
      <trkpt lat="42.9008600" lon="1.4471610">
        <ele>1224.7</ele>
        <time>2022-06-26T06:57:23Z</time>
      </trkpt>
      <trkpt lat="42.9009150" lon="1.4470380">
        <ele>1224.1</ele>
        <time>2022-06-26T06:57:24Z</time>
      </trkpt>
      <trkpt lat="42.9010260" lon="1.4467850">
        <ele>1222.9</ele>
        <time>2022-06-26T06:57:26Z</time>
      </trkpt>
      <trkpt lat="42.9011300" lon="1.4465220">
        <ele>1221.7</ele>
        <time>2022-06-26T06:57:28Z</time>
      </trkpt>
      <trkpt lat="42.9012270" lon="1.4462570">
        <ele>1220.6</ele>
        <time>2022-06-26T06:57:31Z</time>
      </trkpt>
      <trkpt lat="42.9012710" lon="1.4461370">
        <ele>1220.1</ele>
        <time>2022-06-26T06:57:32Z</time>
      </trkpt>
      <trkpt lat="42.9013110" lon="1.4460170">
        <ele>1219.6</ele>
        <time>2022-06-26T06:57:33Z</time>
      </trkpt>
      <trkpt lat="42.9014040" lon="1.4457960">
        <ele>1218.7</ele>
        <time>2022-06-26T06:57:35Z</time>
      </trkpt>
      <trkpt lat="42.9015050" lon="1.4455930">
        <ele>1217.8</ele>
        <time>2022-06-26T06:57:37Z</time>
      </trkpt>
      <trkpt lat="42.9015640" lon="1.4455100">
        <ele>1217.4</ele>
        <time>2022-06-26T06:57:38Z</time>
      </trkpt>
      <trkpt lat="42.9016320" lon="1.4454420">
        <ele>1217.0</ele>
        <time>2022-06-26T06:57:39Z</time>
      </trkpt>
      <trkpt lat="42.9017060" lon="1.4453830">
        <ele>1216.6</ele>
        <time>2022-06-26T06:57:40Z</time>
      </trkpt>
      <trkpt lat="42.9019630" lon="1.4452830">
        <ele>1215.2</ele>
        <time>2022-06-26T06:57:43Z</time>
      </trkpt>
      <trkpt lat="42.9020560" lon="1.4452700">
        <ele>1214.7</ele>
        <time>2022-06-26T06:57:44Z</time>
      </trkpt>
      <trkpt lat="42.9024710" lon="1.4452570">
        <ele>1212.3</ele>
        <time>2022-06-26T06:57:47Z</time>
      </trkpt>
      <trkpt lat="42.9025770" lon="1.4452520">
        <ele>1211.7</ele>
        <time>2022-06-26T06:57:48Z</time>
      </trkpt>
      <trkpt lat="42.9026810" lon="1.4452520">
        <ele>1211.1</ele>
        <time>2022-06-26T06:57:50Z</time>
      </trkpt>
      <trkpt lat="42.9028650" lon="1.4452700">
        <ele>1210.0</ele>
        <time>2022-06-26T06:57:52Z</time>
      </trkpt>
      <trkpt lat="42.9030210" lon="1.4453040">
        <ele>1209.2</ele>
        <time>2022-06-26T06:57:53Z</time>
      </trkpt>
      <trkpt lat="42.9030930" lon="1.4453260">
        <ele>1208.8</ele>
        <time>2022-06-26T06:57:55Z</time>
      </trkpt>
      <trkpt lat="42.9032230" lon="1.4453810">
        <ele>1208.0</ele>
        <time>2022-06-26T06:57:57Z</time>
      </trkpt>
      <trkpt lat="42.9032880" lon="1.4454100">
        <ele>1207.7</ele>
        <time>2022-06-26T06:57:58Z</time>
      </trkpt>
      <trkpt lat="42.9034080" lon="1.4454260">
        <ele>1207.0</ele>
        <time>2022-06-26T06:57:59Z</time>
      </trkpt>
      <trkpt lat="42.9035150" lon="1.4453450">
        <ele>1206.4</ele>
        <time>2022-06-26T06:58:01Z</time>
      </trkpt>
      <trkpt lat="42.9035280" lon="1.4452810">
        <ele>1206.1</ele>
        <time>2022-06-26T06:58:02Z</time>
      </trkpt>
      <trkpt lat="42.9035400" lon="1.4452170">
        <ele>1205.8</ele>
        <time>2022-06-26T06:58:03Z</time>
      </trkpt>
      <trkpt lat="42.9035650" lon="1.4450890">
        <ele>1205.3</ele>
        <time>2022-06-26T06:58:04Z</time>
      </trkpt>
      <trkpt lat="42.9034710" lon="1.4446670">
        <ele>1203.7</ele>
        <time>2022-06-26T06:58:08Z</time>
      </trkpt>
      <trkpt lat="42.9033370" lon="1.4443610">
        <ele>1202.5</ele>
        <time>2022-06-26T06:58:11Z</time>
      </trkpt>
      <trkpt lat="42.9032840" lon="1.4442570">
        <ele>1202.1</ele>
        <time>2022-06-26T06:58:12Z</time>
      </trkpt>
      <trkpt lat="42.9032320" lon="1.4441520">
        <ele>1201.6</ele>
        <time>2022-06-26T06:58:13Z</time>
      </trkpt>
      <trkpt lat="42.9030710" lon="1.4438210">
        <ele>1200.1</ele>
        <time>2022-06-26T06:58:16Z</time>
      </trkpt>
      <trkpt lat="42.9029670" lon="1.4435980">
        <ele>1199.1</ele>
        <time>2022-06-26T06:58:18Z</time>
      </trkpt>
      <trkpt lat="42.9028630" lon="1.4433770">
        <ele>1198.1</ele>
        <time>2022-06-26T06:58:20Z</time>
      </trkpt>
      <trkpt lat="42.9028240" lon="1.4432570">
        <ele>1197.5</ele>
        <time>2022-06-26T06:58:21Z</time>
      </trkpt>
      <trkpt lat="42.9028030" lon="1.4431600">
        <ele>1197.1</ele>
        <time>2022-06-26T06:58:22Z</time>
      </trkpt>
      <trkpt lat="42.9027820" lon="1.4430620">
        <ele>1196.6</ele>
        <time>2022-06-26T06:58:23Z</time>
      </trkpt>
      <trkpt lat="42.9027410" lon="1.4428670">
        <ele>1195.8</ele>
        <time>2022-06-26T06:58:24Z</time>
      </trkpt>
      <trkpt lat="42.9026920" lon="1.4426060">
        <ele>1194.7</ele>
        <time>2022-06-26T06:58:26Z</time>
      </trkpt>
      <trkpt lat="42.9026560" lon="1.4423580">
        <ele>1193.7</ele>
        <time>2022-06-26T06:58:28Z</time>
      </trkpt>
      <trkpt lat="42.9026490" lon="1.4422290">
        <ele>1193.2</ele>
        <time>2022-06-26T06:58:29Z</time>
      </trkpt>
      <trkpt lat="42.9026510" lon="1.4420960">
        <ele>1192.7</ele>
        <time>2022-06-26T06:58:30Z</time>
      </trkpt>
      <trkpt lat="42.9026580" lon="1.4419630">
        <ele>1192.1</ele>
        <time>2022-06-26T06:58:31Z</time>
      </trkpt>
      <trkpt lat="42.9026700" lon="1.4418300">
        <ele>1191.6</ele>
        <time>2022-06-26T06:58:32Z</time>
      </trkpt>
      <trkpt lat="42.9027030" lon="1.4415600">
        <ele>1190.7</ele>
        <time>2022-06-26T06:58:34Z</time>
      </trkpt>
      <trkpt lat="42.9027210" lon="1.4414280">
        <ele>1190.3</ele>
        <time>2022-06-26T06:58:35Z</time>
      </trkpt>
      <trkpt lat="42.9027380" lon="1.4412990">
        <ele>1189.9</ele>
        <time>2022-06-26T06:58:36Z</time>
      </trkpt>
      <trkpt lat="42.9027790" lon="1.4410550">
        <ele>1189.2</ele>
        <time>2022-06-26T06:58:39Z</time>
      </trkpt>
      <trkpt lat="42.9028070" lon="1.4409420">
        <ele>1188.9</ele>
        <time>2022-06-26T06:58:40Z</time>
      </trkpt>
      <trkpt lat="42.9028880" lon="1.4407350">
        <ele>1188.3</ele>
        <time>2022-06-26T06:58:42Z</time>
      </trkpt>
      <trkpt lat="42.9029430" lon="1.4406410">
        <ele>1188.0</ele>
        <time>2022-06-26T06:58:43Z</time>
      </trkpt>
      <trkpt lat="42.9030050" lon="1.4405560">
        <ele>1187.7</ele>
        <time>2022-06-26T06:58:44Z</time>
      </trkpt>
      <trkpt lat="42.9032130" lon="1.4403870">
        <ele>1186.8</ele>
        <time>2022-06-26T06:58:46Z</time>
      </trkpt>
      <trkpt lat="42.9033460" lon="1.4403740">
        <ele>1186.3</ele>
        <time>2022-06-26T06:58:48Z</time>
      </trkpt>
      <trkpt lat="42.9034050" lon="1.4404010">
        <ele>1186.1</ele>
        <time>2022-06-26T06:58:49Z</time>
      </trkpt>
      <trkpt lat="42.9034300" lon="1.4404240">
        <ele>1186.0</ele>
        <time>2022-06-26T06:58:50Z</time>
      </trkpt>
      <trkpt lat="42.9034550" lon="1.4404460">
        <ele>1185.9</ele>
        <time>2022-06-26T06:58:51Z</time>
      </trkpt>
      <trkpt lat="42.9035310" lon="1.4405570">
        <ele>1185.4</ele>
        <time>2022-06-26T06:58:53Z</time>
      </trkpt>
      <trkpt lat="42.9035640" lon="1.4406140">
        <ele>1185.1</ele>
        <time>2022-06-26T06:58:54Z</time>
      </trkpt>
      <trkpt lat="42.9036290" lon="1.4407340">
        <ele>1184.5</ele>
        <time>2022-06-26T06:58:56Z</time>
      </trkpt>
      <trkpt lat="42.9036650" lon="1.4407670">
        <ele>1184.2</ele>
        <time>2022-06-26T06:58:57Z</time>
      </trkpt>
      <trkpt lat="42.9037560" lon="1.4407530">
        <ele>1183.6</ele>
        <time>2022-06-26T06:58:59Z</time>
      </trkpt>
      <trkpt lat="42.9038030" lon="1.4407080">
        <ele>1183.2</ele>
        <time>2022-06-26T06:59:00Z</time>
      </trkpt>
      <trkpt lat="42.9038830" lon="1.4405440">
        <ele>1182.3</ele>
        <time>2022-06-26T06:59:02Z</time>
      </trkpt>
      <trkpt lat="42.9039320" lon="1.4404520">
        <ele>1181.9</ele>
        <time>2022-06-26T06:59:03Z</time>
      </trkpt>
      <trkpt lat="42.9039700" lon="1.4403560">
        <ele>1181.5</ele>
        <time>2022-06-26T06:59:04Z</time>
      </trkpt>
      <trkpt lat="42.9040410" lon="1.4399170">
        <ele>1180.1</ele>
        <time>2022-06-26T06:59:07Z</time>
      </trkpt>
      <trkpt lat="42.9039880" lon="1.4395650">
        <ele>1179.1</ele>
        <time>2022-06-26T06:59:10Z</time>
      </trkpt>
      <trkpt lat="42.9039590" lon="1.4394470">
        <ele>1178.8</ele>
        <time>2022-06-26T06:59:11Z</time>
      </trkpt>
      <trkpt lat="42.9038950" lon="1.4392080">
        <ele>1178.0</ele>
        <time>2022-06-26T06:59:13Z</time>
      </trkpt>
      <trkpt lat="42.9038170" lon="1.4388810">
        <ele>1177.0</ele>
        <time>2022-06-26T06:59:16Z</time>
      </trkpt>
      <trkpt lat="42.9038150" lon="1.4388280">
        <ele>1176.9</ele>
        <time>2022-06-26T06:59:17Z</time>
      </trkpt>
      <trkpt lat="42.9038140" lon="1.4387750">
        <ele>1176.7</ele>
        <time>2022-06-26T06:59:18Z</time>
      </trkpt>
      <trkpt lat="42.9039200" lon="1.4384850">
        <ele>1175.7</ele>
        <time>2022-06-26T06:59:20Z</time>
      </trkpt>
      <trkpt lat="42.9041250" lon="1.4382940">
        <ele>1174.7</ele>
        <time>2022-06-26T06:59:23Z</time>
      </trkpt>
      <trkpt lat="42.9043630" lon="1.4382270">
        <ele>1173.5</ele>
        <time>2022-06-26T06:59:26Z</time>
      </trkpt>
      <trkpt lat="42.9044410" lon="1.4382240">
        <ele>1173.1</ele>
        <time>2022-06-26T06:59:27Z</time>
      </trkpt>
      <trkpt lat="42.9045920" lon="1.4382250">
        <ele>1172.3</ele>
        <time>2022-06-26T06:59:29Z</time>
      </trkpt>
      <trkpt lat="42.9046660" lon="1.4382290">
        <ele>1171.9</ele>
        <time>2022-06-26T06:59:31Z</time>
      </trkpt>
      <trkpt lat="42.9048750" lon="1.4382200">
        <ele>1170.8</ele>
        <time>2022-06-26T06:59:33Z</time>
      </trkpt>
      <trkpt lat="42.9049440" lon="1.4381940">
        <ele>1170.5</ele>
        <time>2022-06-26T06:59:34Z</time>
      </trkpt>
      <trkpt lat="42.9050550" lon="1.4380980">
        <ele>1169.9</ele>
        <time>2022-06-26T06:59:36Z</time>
      </trkpt>
      <trkpt lat="42.9050910" lon="1.4380380">
        <ele>1169.6</ele>
        <time>2022-06-26T06:59:37Z</time>
      </trkpt>
      <trkpt lat="42.9051100" lon="1.4377560">
        <ele>1168.7</ele>
        <time>2022-06-26T06:59:40Z</time>
      </trkpt>
      <trkpt lat="42.9051040" lon="1.4376460">
        <ele>1168.3</ele>
        <time>2022-06-26T06:59:41Z</time>
      </trkpt>
      <trkpt lat="42.9051470" lon="1.4372890">
        <ele>1167.0</ele>
        <time>2022-06-26T06:59:44Z</time>
      </trkpt>
      <trkpt lat="42.9051700" lon="1.4371760">
        <ele>1166.5</ele>
        <time>2022-06-26T06:59:45Z</time>
      </trkpt>
      <trkpt lat="42.9051900" lon="1.4369450">
        <ele>1165.6</ele>
        <time>2022-06-26T06:59:47Z</time>
      </trkpt>
      <trkpt lat="42.9051750" lon="1.4368350">
        <ele>1165.3</ele>
        <time>2022-06-26T06:59:48Z</time>
      </trkpt>
      <trkpt lat="42.9050310" lon="1.4365600">
        <ele>1164.5</ele>
        <time>2022-06-26T06:59:51Z</time>
      </trkpt>
      <trkpt lat="42.9048970" lon="1.4364480">
        <ele>1164.2</ele>
        <time>2022-06-26T06:59:53Z</time>
      </trkpt>
      <trkpt lat="42.9048360" lon="1.4363870">
        <ele>1163.9</ele>
        <time>2022-06-26T06:59:54Z</time>
      </trkpt>
      <trkpt lat="42.9047500" lon="1.4362360">
        <ele>1163.4</ele>
        <time>2022-06-26T06:59:56Z</time>
      </trkpt>
      <trkpt lat="42.9046950" lon="1.4360500">
        <ele>1162.8</ele>
        <time>2022-06-26T06:59:58Z</time>
      </trkpt>
      <trkpt lat="42.9046230" lon="1.4358720">
        <ele>1162.2</ele>
        <time>2022-06-26T07:00:00Z</time>
      </trkpt>
      <trkpt lat="42.9044200" lon="1.4355750">
        <ele>1161.5</ele>
        <time>2022-06-26T07:00:04Z</time>
      </trkpt>
      <trkpt lat="42.9041960" lon="1.4352940">
        <ele>1160.4</ele>
        <time>2022-06-26T07:00:08Z</time>
      </trkpt>
      <trkpt lat="42.9041480" lon="1.4352340">
        <ele>1160.1</ele>
        <time>2022-06-26T07:00:09Z</time>
      </trkpt>
      <trkpt lat="42.9040730" lon="1.4350830">
        <ele>1159.5</ele>
        <time>2022-06-26T07:00:11Z</time>
      </trkpt>
      <trkpt lat="42.9040620" lon="1.4350380">
        <ele>1159.4</ele>
        <time>2022-06-26T07:00:12Z</time>
      </trkpt>
      <trkpt lat="42.9040510" lon="1.4349920">
        <ele>1159.2</ele>
        <time>2022-06-26T07:00:13Z</time>
      </trkpt>
      <trkpt lat="42.9040500" lon="1.4347930">
        <ele>1158.7</ele>
        <time>2022-06-26T07:00:15Z</time>
      </trkpt>
      <trkpt lat="42.9041120" lon="1.4344790">
        <ele>1157.9</ele>
        <time>2022-06-26T07:00:18Z</time>
      </trkpt>
      <trkpt lat="42.9041430" lon="1.4343760">
        <ele>1157.7</ele>
        <time>2022-06-26T07:00:19Z</time>
      </trkpt>
      <trkpt lat="42.9041810" lon="1.4342770">
        <ele>1157.4</ele>
        <time>2022-06-26T07:00:20Z</time>
      </trkpt>
      <trkpt lat="42.9043340" lon="1.4340160">
        <ele>1156.5</ele>
        <time>2022-06-26T07:00:23Z</time>
      </trkpt>
      <trkpt lat="42.9046780" lon="1.4335270">
        <ele>1154.9</ele>
        <time>2022-06-26T07:00:28Z</time>
      </trkpt>
      <trkpt lat="42.9048450" lon="1.4332640">
        <ele>1154.1</ele>
        <time>2022-06-26T07:00:32Z</time>
      </trkpt>
      <trkpt lat="42.9049090" lon="1.4331850">
        <ele>1153.9</ele>
        <time>2022-06-26T07:00:33Z</time>
      </trkpt>
      <trkpt lat="42.9050590" lon="1.4330680">
        <ele>1153.4</ele>
        <time>2022-06-26T07:00:35Z</time>
      </trkpt>
      <trkpt lat="42.9052970" lon="1.4329680">
        <ele>1152.9</ele>
        <time>2022-06-26T07:00:37Z</time>
      </trkpt>
      <trkpt lat="42.9053670" lon="1.4329440">
        <ele>1152.8</ele>
        <time>2022-06-26T07:00:39Z</time>
      </trkpt>
      <trkpt lat="42.9054890" lon="1.4328680">
        <ele>1152.3</ele>
        <time>2022-06-26T07:00:40Z</time>
      </trkpt>
      <trkpt lat="42.9055520" lon="1.4327290">
        <ele>1151.9</ele>
        <time>2022-06-26T07:00:42Z</time>
      </trkpt>
      <trkpt lat="42.9055170" lon="1.4325540">
        <ele>1151.3</ele>
        <time>2022-06-26T07:00:44Z</time>
      </trkpt>
      <trkpt lat="42.9053430" lon="1.4322480">
        <ele>1149.9</ele>
        <time>2022-06-26T07:00:48Z</time>
      </trkpt>
      <trkpt lat="42.9051850" lon="1.4320060">
        <ele>1148.9</ele>
        <time>2022-06-26T07:00:51Z</time>
      </trkpt>
      <trkpt lat="42.9050790" lon="1.4318420">
        <ele>1148.3</ele>
        <time>2022-06-26T07:00:53Z</time>
      </trkpt>
      <trkpt lat="42.9047860" lon="1.4314770">
        <ele>1147.3</ele>
        <time>2022-06-26T07:00:58Z</time>
      </trkpt>
      <trkpt lat="42.9046680" lon="1.4313830">
        <ele>1147.0</ele>
        <time>2022-06-26T07:01:00Z</time>
      </trkpt>
      <trkpt lat="42.9046080" lon="1.4313450">
        <ele>1146.8</ele>
        <time>2022-06-26T07:01:01Z</time>
      </trkpt>
      <trkpt lat="42.9045660" lon="1.4312910">
        <ele>1146.7</ele>
        <time>2022-06-26T07:01:02Z</time>
      </trkpt>
      <trkpt lat="42.9045440" lon="1.4312220">
        <ele>1146.5</ele>
        <time>2022-06-26T07:01:04Z</time>
      </trkpt>
      <trkpt lat="42.9045410" lon="1.4310770">
        <ele>1146.1</ele>
        <time>2022-06-26T07:01:06Z</time>
      </trkpt>
      <trkpt lat="42.9045790" lon="1.4308290">
        <ele>1145.3</ele>
        <time>2022-06-26T07:01:08Z</time>
      </trkpt>
      <trkpt lat="42.9046090" lon="1.4306390">
        <ele>1144.7</ele>
        <time>2022-06-26T07:01:10Z</time>
      </trkpt>
      <trkpt lat="42.9046390" lon="1.4304430">
        <ele>1144.1</ele>
        <time>2022-06-26T07:01:13Z</time>
      </trkpt>
      <trkpt lat="42.9047020" lon="1.4302530">
        <ele>1143.5</ele>
        <time>2022-06-26T07:01:15Z</time>
      </trkpt>
      <trkpt lat="42.9049160" lon="1.4299430">
        <ele>1142.4</ele>
        <time>2022-06-26T07:01:19Z</time>
      </trkpt>
      <trkpt lat="42.9049750" lon="1.4298680">
        <ele>1142.2</ele>
        <time>2022-06-26T07:01:20Z</time>
      </trkpt>
      <trkpt lat="42.9052840" lon="1.4295160">
        <ele>1140.7</ele>
        <time>2022-06-26T07:01:25Z</time>
      </trkpt>
      <trkpt lat="42.9055710" lon="1.4293970">
        <ele>1139.7</ele>
        <time>2022-06-26T07:01:29Z</time>
      </trkpt>
      <trkpt lat="42.9059550" lon="1.4292450">
        <ele>1137.9</ele>
        <time>2022-06-26T07:01:34Z</time>
      </trkpt>
      <trkpt lat="42.9062760" lon="1.4290970">
        <ele>1136.4</ele>
        <time>2022-06-26T07:01:37Z</time>
      </trkpt>
      <trkpt lat="42.9063460" lon="1.4290510">
        <ele>1136.1</ele>
        <time>2022-06-26T07:01:38Z</time>
      </trkpt>
      <trkpt lat="42.9064070" lon="1.4289870">
        <ele>1135.8</ele>
        <time>2022-06-26T07:01:39Z</time>
      </trkpt>
      <trkpt lat="42.9065080" lon="1.4288170">
        <ele>1135.0</ele>
        <time>2022-06-26T07:01:41Z</time>
      </trkpt>
      <trkpt lat="42.9065320" lon="1.4287150">
        <ele>1134.5</ele>
        <time>2022-06-26T07:01:42Z</time>
      </trkpt>
      <trkpt lat="42.9064800" lon="1.4283750">
        <ele>1133.0</ele>
        <time>2022-06-26T07:01:45Z</time>
      </trkpt>
      <trkpt lat="42.9064420" lon="1.4283140">
        <ele>1132.7</ele>
        <time>2022-06-26T07:01:46Z</time>
      </trkpt>
      <trkpt lat="42.9064030" lon="1.4282530">
        <ele>1132.5</ele>
        <time>2022-06-26T07:01:47Z</time>
      </trkpt>
      <trkpt lat="42.9063270" lon="1.4281300">
        <ele>1132.0</ele>
        <time>2022-06-26T07:01:48Z</time>
      </trkpt>
      <trkpt lat="42.9062160" lon="1.4280590">
        <ele>1131.5</ele>
        <time>2022-06-26T07:01:51Z</time>
      </trkpt>
      <trkpt lat="42.9061240" lon="1.4279260">
        <ele>1130.8</ele>
        <time>2022-06-26T07:01:52Z</time>
      </trkpt>
      <trkpt lat="42.9061010" lon="1.4278430">
        <ele>1130.5</ele>
        <time>2022-06-26T07:01:53Z</time>
      </trkpt>
      <trkpt lat="42.9060950" lon="1.4277990">
        <ele>1130.3</ele>
        <time>2022-06-26T07:01:54Z</time>
      </trkpt>
      <trkpt lat="42.9060900" lon="1.4277540">
        <ele>1130.1</ele>
        <time>2022-06-26T07:01:55Z</time>
      </trkpt>
      <trkpt lat="42.9060770" lon="1.4274260">
        <ele>1128.5</ele>
        <time>2022-06-26T07:01:57Z</time>
      </trkpt>
      <trkpt lat="42.9060770" lon="1.4274260">
        <ele>1128.5</ele>
        <time>2022-06-26T07:01:58Z</time>
      </trkpt>
      <trkpt lat="42.9060260" lon="1.4267160">
        <ele>1125.3</ele>
        <time>2022-06-26T07:02:04Z</time>
      </trkpt>
      <trkpt lat="42.9060690" lon="1.4265050">
        <ele>1124.3</ele>
        <time>2022-06-26T07:02:06Z</time>
      </trkpt>
      <trkpt lat="42.9061110" lon="1.4264090">
        <ele>1123.8</ele>
        <time>2022-06-26T07:02:07Z</time>
      </trkpt>
      <trkpt lat="42.9061600" lon="1.4263220">
        <ele>1123.3</ele>
        <time>2022-06-26T07:02:08Z</time>
      </trkpt>
      <trkpt lat="42.9062790" lon="1.4261730">
        <ele>1122.2</ele>
        <time>2022-06-26T07:02:09Z</time>
      </trkpt>
      <trkpt lat="42.9063490" lon="1.4261030">
        <ele>1121.7</ele>
        <time>2022-06-26T07:02:11Z</time>
      </trkpt>
      <trkpt lat="42.9064240" lon="1.4260270">
        <ele>1121.1</ele>
        <time>2022-06-26T07:02:12Z</time>
      </trkpt>
      <trkpt lat="42.9069010" lon="1.4255660">
        <ele>1117.7</ele>
        <time>2022-06-26T07:02:17Z</time>
      </trkpt>
      <trkpt lat="42.9069870" lon="1.4255100">
        <ele>1117.2</ele>
        <time>2022-06-26T07:02:18Z</time>
      </trkpt>
      <trkpt lat="42.9070770" lon="1.4254580">
        <ele>1116.7</ele>
        <time>2022-06-26T07:02:19Z</time>
      </trkpt>
      <trkpt lat="42.9071680" lon="1.4254110">
        <ele>1116.3</ele>
        <time>2022-06-26T07:02:20Z</time>
      </trkpt>
      <trkpt lat="42.9072560" lon="1.4253720">
        <ele>1115.8</ele>
        <time>2022-06-26T07:02:21Z</time>
      </trkpt>
      <trkpt lat="42.9073380" lon="1.4253370">
        <ele>1115.4</ele>
        <time>2022-06-26T07:02:22Z</time>
      </trkpt>
      <trkpt lat="42.9074160" lon="1.4253090">
        <ele>1115.0</ele>
        <time>2022-06-26T07:02:23Z</time>
      </trkpt>
      <trkpt lat="42.9074890" lon="1.4252900">
        <ele>1114.6</ele>
        <time>2022-06-26T07:02:24Z</time>
      </trkpt>
      <trkpt lat="42.9075580" lon="1.4252720">
        <ele>1114.3</ele>
        <time>2022-06-26T07:02:25Z</time>
      </trkpt>
      <trkpt lat="42.9076200" lon="1.4252460">
        <ele>1113.9</ele>
        <time>2022-06-26T07:02:26Z</time>
      </trkpt>
      <trkpt lat="42.9077290" lon="1.4251500">
        <ele>1113.2</ele>
        <time>2022-06-26T07:02:28Z</time>
      </trkpt>
      <trkpt lat="42.9077730" lon="1.4250840">
        <ele>1112.8</ele>
        <time>2022-06-26T07:02:29Z</time>
      </trkpt>
      <trkpt lat="42.9078160" lon="1.4248950">
        <ele>1111.9</ele>
        <time>2022-06-26T07:02:31Z</time>
      </trkpt>
      <trkpt lat="42.9078230" lon="1.4247870">
        <ele>1111.4</ele>
        <time>2022-06-26T07:02:32Z</time>
      </trkpt>
      <trkpt lat="42.9077880" lon="1.4243270">
        <ele>1109.1</ele>
        <time>2022-06-26T07:02:36Z</time>
      </trkpt>
      <trkpt lat="42.9077600" lon="1.4242070">
        <ele>1108.6</ele>
        <time>2022-06-26T07:02:37Z</time>
      </trkpt>
      <trkpt lat="42.9076910" lon="1.4239720">
        <ele>1107.4</ele>
        <time>2022-06-26T07:02:39Z</time>
      </trkpt>
      <trkpt lat="42.9076490" lon="1.4238560">
        <ele>1106.8</ele>
        <time>2022-06-26T07:02:40Z</time>
      </trkpt>
      <trkpt lat="42.9076040" lon="1.4237520">
        <ele>1106.3</ele>
        <time>2022-06-26T07:02:41Z</time>
      </trkpt>
      <trkpt lat="42.9074760" lon="1.4235630">
        <ele>1105.0</ele>
        <time>2022-06-26T07:02:43Z</time>
      </trkpt>
      <trkpt lat="42.9073360" lon="1.4234460">
        <ele>1104.1</ele>
        <time>2022-06-26T07:02:45Z</time>
      </trkpt>
      <trkpt lat="42.9072630" lon="1.4233930">
        <ele>1103.6</ele>
        <time>2022-06-26T07:02:46Z</time>
      </trkpt>
      <trkpt lat="42.9071910" lon="1.4233410">
        <ele>1103.2</ele>
        <time>2022-06-26T07:02:47Z</time>
      </trkpt>
      <trkpt lat="42.9071210" lon="1.4232910">
        <ele>1102.7</ele>
        <time>2022-06-26T07:02:48Z</time>
      </trkpt>
      <trkpt lat="42.9069440" lon="1.4232400">
        <ele>1101.8</ele>
        <time>2022-06-26T07:02:50Z</time>
      </trkpt>
      <trkpt lat="42.9067650" lon="1.4232010">
        <ele>1101.0</ele>
        <time>2022-06-26T07:02:52Z</time>
      </trkpt>
      <trkpt lat="42.9066170" lon="1.4231570">
        <ele>1100.3</ele>
        <time>2022-06-26T07:02:54Z</time>
      </trkpt>
      <trkpt lat="42.9065770" lon="1.4231250">
        <ele>1100.2</ele>
        <time>2022-06-26T07:02:55Z</time>
      </trkpt>
      <trkpt lat="42.9065360" lon="1.4230930">
        <ele>1099.9</ele>
        <time>2022-06-26T07:02:56Z</time>
      </trkpt>
      <trkpt lat="42.9063760" lon="1.4229650">
        <ele>1099.1</ele>
        <time>2022-06-26T07:02:58Z</time>
      </trkpt>
      <trkpt lat="42.9063360" lon="1.4228920">
        <ele>1098.7</ele>
        <time>2022-06-26T07:03:00Z</time>
      </trkpt>
      <trkpt lat="42.9062970" lon="1.4228170">
        <ele>1098.4</ele>
        <time>2022-06-26T07:03:01Z</time>
      </trkpt>
      <trkpt lat="42.9062620" lon="1.4226390">
        <ele>1097.6</ele>
        <time>2022-06-26T07:03:02Z</time>
      </trkpt>
      <trkpt lat="42.9062560" lon="1.4225390">
        <ele>1097.1</ele>
        <time>2022-06-26T07:03:04Z</time>
      </trkpt>
      <trkpt lat="42.9062630" lon="1.4222290">
        <ele>1095.7</ele>
        <time>2022-06-26T07:03:07Z</time>
      </trkpt>
      <trkpt lat="42.9062770" lon="1.4220170">
        <ele>1094.7</ele>
        <time>2022-06-26T07:03:09Z</time>
      </trkpt>
      <trkpt lat="42.9062890" lon="1.4219090">
        <ele>1094.3</ele>
        <time>2022-06-26T07:03:10Z</time>
      </trkpt>
      <trkpt lat="42.9063030" lon="1.4217950">
        <ele>1093.9</ele>
        <time>2022-06-26T07:03:11Z</time>
      </trkpt>
      <trkpt lat="42.9063440" lon="1.4214440">
        <ele>1092.8</ele>
        <time>2022-06-26T07:03:13Z</time>
      </trkpt>
      <trkpt lat="42.9063850" lon="1.4212480">
        <ele>1092.1</ele>
        <time>2022-06-26T07:03:15Z</time>
      </trkpt>
      <trkpt lat="42.9064100" lon="1.4211620">
        <ele>1091.9</ele>
        <time>2022-06-26T07:03:16Z</time>
      </trkpt>
      <trkpt lat="42.9064910" lon="1.4210220">
        <ele>1091.2</ele>
        <time>2022-06-26T07:03:18Z</time>
      </trkpt>
      <trkpt lat="42.9065320" lon="1.4209920">
        <ele>1091.0</ele>
        <time>2022-06-26T07:03:19Z</time>
      </trkpt>
      <trkpt lat="42.9065740" lon="1.4209630">
        <ele>1090.7</ele>
        <time>2022-06-26T07:03:20Z</time>
      </trkpt>
      <trkpt lat="42.9067410" lon="1.4208450">
        <ele>1089.3</ele>
        <time>2022-06-26T07:03:22Z</time>
      </trkpt>
      <trkpt lat="42.9068270" lon="1.4206640">
        <ele>1088.1</ele>
        <time>2022-06-26T07:03:25Z</time>
      </trkpt>
      <trkpt lat="42.9069190" lon="1.4205030">
        <ele>1087.1</ele>
        <time>2022-06-26T07:03:26Z</time>
      </trkpt>
      <trkpt lat="42.9070160" lon="1.4203670">
        <ele>1086.3</ele>
        <time>2022-06-26T07:03:28Z</time>
      </trkpt>
      <trkpt lat="42.9070500" lon="1.4202880">
        <ele>1085.9</ele>
        <time>2022-06-26T07:03:30Z</time>
      </trkpt>
      <trkpt lat="42.9070600" lon="1.4201170">
        <ele>1085.1</ele>
        <time>2022-06-26T07:03:31Z</time>
      </trkpt>
      <trkpt lat="42.9070400" lon="1.4200390">
        <ele>1084.6</ele>
        <time>2022-06-26T07:03:32Z</time>
      </trkpt>
      <trkpt lat="42.9070180" lon="1.4199560">
        <ele>1084.1</ele>
        <time>2022-06-26T07:03:33Z</time>
      </trkpt>
      <trkpt lat="42.9069980" lon="1.4197580">
        <ele>1083.0</ele>
        <time>2022-06-26T07:03:35Z</time>
      </trkpt>
      <trkpt lat="42.9070050" lon="1.4196530">
        <ele>1082.4</ele>
        <time>2022-06-26T07:03:36Z</time>
      </trkpt>
      <trkpt lat="42.9070130" lon="1.4195540">
        <ele>1081.8</ele>
        <time>2022-06-26T07:03:37Z</time>
      </trkpt>
      <trkpt lat="42.9070170" lon="1.4194620">
        <ele>1081.3</ele>
        <time>2022-06-26T07:03:38Z</time>
      </trkpt>
      <trkpt lat="42.9070050" lon="1.4193720">
        <ele>1080.9</ele>
        <time>2022-06-26T07:03:39Z</time>
      </trkpt>
      <trkpt lat="42.9069770" lon="1.4192800">
        <ele>1080.4</ele>
        <time>2022-06-26T07:03:40Z</time>
      </trkpt>
      <trkpt lat="42.9069420" lon="1.4192060">
        <ele>1080.0</ele>
        <time>2022-06-26T07:03:41Z</time>
      </trkpt>
      <trkpt lat="42.9068520" lon="1.4190680">
        <ele>1079.2</ele>
        <time>2022-06-26T07:03:43Z</time>
      </trkpt>
      <trkpt lat="42.9068040" lon="1.4190070">
        <ele>1078.8</ele>
        <time>2022-06-26T07:03:44Z</time>
      </trkpt>
      <trkpt lat="42.9067590" lon="1.4189400">
        <ele>1078.4</ele>
        <time>2022-06-26T07:03:45Z</time>
      </trkpt>
      <trkpt lat="42.9066810" lon="1.4187860">
        <ele>1077.6</ele>
        <time>2022-06-26T07:03:47Z</time>
      </trkpt>
      <trkpt lat="42.9066790" lon="1.4186990">
        <ele>1077.2</ele>
        <time>2022-06-26T07:03:48Z</time>
      </trkpt>
      <trkpt lat="42.9067120" lon="1.4185130">
        <ele>1076.0</ele>
        <time>2022-06-26T07:03:50Z</time>
      </trkpt>
      <trkpt lat="42.9067420" lon="1.4184180">
        <ele>1075.4</ele>
        <time>2022-06-26T07:03:51Z</time>
      </trkpt>
      <trkpt lat="42.9067920" lon="1.4182690">
        <ele>1074.3</ele>
        <time>2022-06-26T07:03:52Z</time>
      </trkpt>
      <trkpt lat="42.9068420" lon="1.4181190">
        <ele>1073.3</ele>
        <time>2022-06-26T07:03:54Z</time>
      </trkpt>
      <trkpt lat="42.9069120" lon="1.4179030">
        <ele>1072.1</ele>
        <time>2022-06-26T07:03:56Z</time>
      </trkpt>
      <trkpt lat="42.9069480" lon="1.4177910">
        <ele>1071.5</ele>
        <time>2022-06-26T07:03:57Z</time>
      </trkpt>
      <trkpt lat="42.9070270" lon="1.4175680">
        <ele>1070.4</ele>
        <time>2022-06-26T07:03:59Z</time>
      </trkpt>
      <trkpt lat="42.9071170" lon="1.4173380">
        <ele>1069.3</ele>
        <time>2022-06-26T07:04:01Z</time>
      </trkpt>
      <trkpt lat="42.9071640" lon="1.4172230">
        <ele>1068.8</ele>
        <time>2022-06-26T07:04:02Z</time>
      </trkpt>
      <trkpt lat="42.9072090" lon="1.4171150">
        <ele>1068.3</ele>
        <time>2022-06-26T07:04:03Z</time>
      </trkpt>
      <trkpt lat="42.9073080" lon="1.4169100">
        <ele>1067.2</ele>
        <time>2022-06-26T07:04:05Z</time>
      </trkpt>
      <trkpt lat="42.9073680" lon="1.4168230">
        <ele>1066.8</ele>
        <time>2022-06-26T07:04:06Z</time>
      </trkpt>
      <trkpt lat="42.9074330" lon="1.4167450">
        <ele>1066.3</ele>
        <time>2022-06-26T07:04:07Z</time>
      </trkpt>
      <trkpt lat="42.9075730" lon="1.4166370">
        <ele>1065.6</ele>
        <time>2022-06-26T07:04:09Z</time>
      </trkpt>
      <trkpt lat="42.9076420" lon="1.4166070">
        <ele>1065.4</ele>
        <time>2022-06-26T07:04:10Z</time>
      </trkpt>
      <trkpt lat="42.9077040" lon="1.4165940">
        <ele>1065.2</ele>
        <time>2022-06-26T07:04:11Z</time>
      </trkpt>
      <trkpt lat="42.9078170" lon="1.4165990">
        <ele>1064.8</ele>
        <time>2022-06-26T07:04:13Z</time>
      </trkpt>
      <trkpt lat="42.9078690" lon="1.4165730">
        <ele>1064.8</ele>
        <time>2022-06-26T07:04:14Z</time>
      </trkpt>
      <trkpt lat="42.9079320" lon="1.4164780">
        <ele>1065.0</ele>
        <time>2022-06-26T07:04:16Z</time>
      </trkpt>
      <trkpt lat="42.9078890" lon="1.4162250">
        <ele>1063.8</ele>
        <time>2022-06-26T07:04:19Z</time>
      </trkpt>
      <trkpt lat="42.9076680" lon="1.4159390">
        <ele>1061.7</ele>
        <time>2022-06-26T07:04:23Z</time>
      </trkpt>
      <trkpt lat="42.9075980" lon="1.4158630">
        <ele>1061.1</ele>
        <time>2022-06-26T07:04:24Z</time>
      </trkpt>
      <trkpt lat="42.9074660" lon="1.4156960">
        <ele>1060.0</ele>
        <time>2022-06-26T07:04:26Z</time>
      </trkpt>
      <trkpt lat="42.9073980" lon="1.4156350">
        <ele>1059.6</ele>
        <time>2022-06-26T07:04:27Z</time>
      </trkpt>
      <trkpt lat="42.9071760" lon="1.4154550">
        <ele>1058.1</ele>
        <time>2022-06-26T07:04:30Z</time>
      </trkpt>
      <trkpt lat="42.9070490" lon="1.4153410">
        <ele>1057.2</ele>
        <time>2022-06-26T07:04:32Z</time>
      </trkpt>
      <trkpt lat="42.9069390" lon="1.4151740">
        <ele>1056.2</ele>
        <time>2022-06-26T07:04:34Z</time>
      </trkpt>
      <trkpt lat="42.9068880" lon="1.4150770">
        <ele>1055.6</ele>
        <time>2022-06-26T07:04:35Z</time>
      </trkpt>
      <trkpt lat="42.9068340" lon="1.4149760">
        <ele>1055.1</ele>
        <time>2022-06-26T07:04:36Z</time>
      </trkpt>
      <trkpt lat="42.9067710" lon="1.4148860">
        <ele>1054.5</ele>
        <time>2022-06-26T07:04:37Z</time>
      </trkpt>
      <trkpt lat="42.9067080" lon="1.4147950">
        <ele>1053.9</ele>
        <time>2022-06-26T07:04:38Z</time>
      </trkpt>
      <trkpt lat="42.9066410" lon="1.4147030">
        <ele>1053.3</ele>
        <time>2022-06-26T07:04:39Z</time>
      </trkpt>
      <trkpt lat="42.9065770" lon="1.4146090">
        <ele>1052.7</ele>
        <time>2022-06-26T07:04:40Z</time>
      </trkpt>
      <trkpt lat="42.9064180" lon="1.4143740">
        <ele>1051.3</ele>
        <time>2022-06-26T07:04:43Z</time>
      </trkpt>
      <trkpt lat="42.9062640" lon="1.4141770">
        <ele>1050.1</ele>
        <time>2022-06-26T07:04:46Z</time>
      </trkpt>
      <trkpt lat="42.9062360" lon="1.4140950">
        <ele>1049.7</ele>
        <time>2022-06-26T07:04:47Z</time>
      </trkpt>
      <trkpt lat="42.9062230" lon="1.4139110">
        <ele>1048.9</ele>
        <time>2022-06-26T07:04:49Z</time>
      </trkpt>
      <trkpt lat="42.9062320" lon="1.4138450">
        <ele>1048.7</ele>
        <time>2022-06-26T07:04:50Z</time>
      </trkpt>
      <trkpt lat="42.9062400" lon="1.4137790">
        <ele>1048.4</ele>
        <time>2022-06-26T07:04:51Z</time>
      </trkpt>
      <trkpt lat="42.9062930" lon="1.4133800">
        <ele>1046.5</ele>
        <time>2022-06-26T07:04:54Z</time>
      </trkpt>
      <trkpt lat="42.9063190" lon="1.4132050">
        <ele>1045.7</ele>
        <time>2022-06-26T07:04:55Z</time>
      </trkpt>
      <trkpt lat="42.9063440" lon="1.4130290">
        <ele>1044.9</ele>
        <time>2022-06-26T07:04:57Z</time>
      </trkpt>
      <trkpt lat="42.9063980" lon="1.4126740">
        <ele>1043.3</ele>
        <time>2022-06-26T07:05:00Z</time>
      </trkpt>
      <trkpt lat="42.9064190" lon="1.4125660">
        <ele>1042.8</ele>
        <time>2022-06-26T07:05:01Z</time>
      </trkpt>
      <trkpt lat="42.9064720" lon="1.4123600">
        <ele>1041.8</ele>
        <time>2022-06-26T07:05:03Z</time>
      </trkpt>
      <trkpt lat="42.9065090" lon="1.4122620">
        <ele>1041.3</ele>
        <time>2022-06-26T07:05:04Z</time>
      </trkpt>
      <trkpt lat="42.9065480" lon="1.4121660">
        <ele>1040.8</ele>
        <time>2022-06-26T07:05:05Z</time>
      </trkpt>
      <trkpt lat="42.9065920" lon="1.4120760">
        <ele>1040.3</ele>
        <time>2022-06-26T07:05:06Z</time>
      </trkpt>
      <trkpt lat="42.9066410" lon="1.4119870">
        <ele>1039.8</ele>
        <time>2022-06-26T07:05:07Z</time>
      </trkpt>
      <trkpt lat="42.9067390" lon="1.4118240">
        <ele>1038.8</ele>
        <time>2022-06-26T07:05:09Z</time>
      </trkpt>
      <trkpt lat="42.9067870" lon="1.4117440">
        <ele>1038.3</ele>
        <time>2022-06-26T07:05:10Z</time>
      </trkpt>
      <trkpt lat="42.9068820" lon="1.4116030">
        <ele>1037.4</ele>
        <time>2022-06-26T07:05:12Z</time>
      </trkpt>
      <trkpt lat="42.9069880" lon="1.4113870">
        <ele>1036.2</ele>
        <time>2022-06-26T07:05:15Z</time>
      </trkpt>
      <trkpt lat="42.9069510" lon="1.4111000">
        <ele>1034.8</ele>
        <time>2022-06-26T07:05:18Z</time>
      </trkpt>
      <trkpt lat="42.9069210" lon="1.4109950">
        <ele>1034.3</ele>
        <time>2022-06-26T07:05:19Z</time>
      </trkpt>
      <trkpt lat="42.9068950" lon="1.4108890">
        <ele>1033.8</ele>
        <time>2022-06-26T07:05:20Z</time>
      </trkpt>
      <trkpt lat="42.9068450" lon="1.4106750">
        <ele>1032.8</ele>
        <time>2022-06-26T07:05:23Z</time>
      </trkpt>
      <trkpt lat="42.9068360" lon="1.4105190">
        <ele>1032.2</ele>
        <time>2022-06-26T07:05:24Z</time>
      </trkpt>
      <trkpt lat="42.9068180" lon="1.4102070">
        <ele>1030.9</ele>
        <time>2022-06-26T07:05:26Z</time>
      </trkpt>
      <trkpt lat="42.9068390" lon="1.4100860">
        <ele>1030.4</ele>
        <time>2022-06-26T07:05:27Z</time>
      </trkpt>
      <trkpt lat="42.9069090" lon="1.4098500">
        <ele>1029.3</ele>
        <time>2022-06-26T07:05:29Z</time>
      </trkpt>
      <trkpt lat="42.9069480" lon="1.4097360">
        <ele>1028.7</ele>
        <time>2022-06-26T07:05:30Z</time>
      </trkpt>
      <trkpt lat="42.9069610" lon="1.4096830">
        <ele>1028.5</ele>
        <time>2022-06-26T07:05:31Z</time>
      </trkpt>
      <trkpt lat="42.9069740" lon="1.4096290">
        <ele>1028.2</ele>
        <time>2022-06-26T07:05:32Z</time>
      </trkpt>
      <trkpt lat="42.9069910" lon="1.4094420">
        <ele>1027.4</ele>
        <time>2022-06-26T07:05:33Z</time>
      </trkpt>
      <trkpt lat="42.9069820" lon="1.4093610">
        <ele>1027.0</ele>
        <time>2022-06-26T07:05:34Z</time>
      </trkpt>
      <trkpt lat="42.9069640" lon="1.4092010">
        <ele>1026.3</ele>
        <time>2022-06-26T07:05:35Z</time>
      </trkpt>
      <trkpt lat="42.9068680" lon="1.4090130">
        <ele>1025.4</ele>
        <time>2022-06-26T07:05:37Z</time>
      </trkpt>
      <trkpt lat="42.9068160" lon="1.4089250">
        <ele>1024.9</ele>
        <time>2022-06-26T07:05:38Z</time>
      </trkpt>
      <trkpt lat="42.9067700" lon="1.4088290">
        <ele>1024.4</ele>
        <time>2022-06-26T07:05:39Z</time>
      </trkpt>
      <trkpt lat="42.9067300" lon="1.4087230">
        <ele>1023.9</ele>
        <time>2022-06-26T07:05:40Z</time>
      </trkpt>
      <trkpt lat="42.9067040" lon="1.4086100">
        <ele>1023.5</ele>
        <time>2022-06-26T07:05:41Z</time>
      </trkpt>
      <trkpt lat="42.9066870" lon="1.4083680">
        <ele>1022.6</ele>
        <time>2022-06-26T07:05:43Z</time>
      </trkpt>
      <trkpt lat="42.9066900" lon="1.4081190">
        <ele>1021.7</ele>
        <time>2022-06-26T07:05:45Z</time>
      </trkpt>
      <trkpt lat="42.9066970" lon="1.4079930">
        <ele>1021.2</ele>
        <time>2022-06-26T07:05:46Z</time>
      </trkpt>
      <trkpt lat="42.9067130" lon="1.4077390">
        <ele>1020.3</ele>
        <time>2022-06-26T07:05:48Z</time>
      </trkpt>
      <trkpt lat="42.9067440" lon="1.4074840">
        <ele>1019.3</ele>
        <time>2022-06-26T07:05:50Z</time>
      </trkpt>
      <trkpt lat="42.9067930" lon="1.4072290">
        <ele>1018.3</ele>
        <time>2022-06-26T07:05:52Z</time>
      </trkpt>
      <trkpt lat="42.9068240" lon="1.4071000">
        <ele>1017.7</ele>
        <time>2022-06-26T07:05:53Z</time>
      </trkpt>
      <trkpt lat="42.9069180" lon="1.4067050">
        <ele>1016.0</ele>
        <time>2022-06-26T07:05:56Z</time>
      </trkpt>
      <trkpt lat="42.9069360" lon="1.4065700">
        <ele>1015.4</ele>
        <time>2022-06-26T07:05:57Z</time>
      </trkpt>
      <trkpt lat="42.9069630" lon="1.4062920">
        <ele>1014.1</ele>
        <time>2022-06-26T07:05:59Z</time>
      </trkpt>
      <trkpt lat="42.9069900" lon="1.4058800">
        <ele>1012.3</ele>
        <time>2022-06-26T07:06:02Z</time>
      </trkpt>
      <trkpt lat="42.9069930" lon="1.4057460">
        <ele>1011.8</ele>
        <time>2022-06-26T07:06:03Z</time>
      </trkpt>
      <trkpt lat="42.9069930" lon="1.4055560">
        <ele>1011.2</ele>
        <time>2022-06-26T07:06:04Z</time>
      </trkpt>
      <trkpt lat="42.9069930" lon="1.4053650">
        <ele>1010.6</ele>
        <time>2022-06-26T07:06:06Z</time>
      </trkpt>
      <trkpt lat="42.9070010" lon="1.4052460">
        <ele>1010.2</ele>
        <time>2022-06-26T07:06:07Z</time>
      </trkpt>
      <trkpt lat="42.9070150" lon="1.4051310">
        <ele>1009.8</ele>
        <time>2022-06-26T07:06:08Z</time>
      </trkpt>
      <trkpt lat="42.9070510" lon="1.4049080">
        <ele>1009.0</ele>
        <time>2022-06-26T07:06:10Z</time>
      </trkpt>
      <trkpt lat="42.9070820" lon="1.4048010">
        <ele>1008.6</ele>
        <time>2022-06-26T07:06:11Z</time>
      </trkpt>
      <trkpt lat="42.9071130" lon="1.4047410">
        <ele>1008.3</ele>
        <time>2022-06-26T07:06:12Z</time>
      </trkpt>
      <trkpt lat="42.9071450" lon="1.4046820">
        <ele>1008.0</ele>
        <time>2022-06-26T07:06:13Z</time>
      </trkpt>
      <trkpt lat="42.9073350" lon="1.4043250">
        <ele>1006.2</ele>
        <time>2022-06-26T07:06:16Z</time>
      </trkpt>
      <trkpt lat="42.9074560" lon="1.4041480">
        <ele>1005.3</ele>
        <time>2022-06-26T07:06:18Z</time>
      </trkpt>
      <trkpt lat="42.9075360" lon="1.4039350">
        <ele>1004.4</ele>
        <time>2022-06-26T07:06:20Z</time>
      </trkpt>
      <trkpt lat="42.9075750" lon="1.4036850">
        <ele>1003.5</ele>
        <time>2022-06-26T07:06:22Z</time>
      </trkpt>
      <trkpt lat="42.9075870" lon="1.4034190">
        <ele>1002.5</ele>
        <time>2022-06-26T07:06:24Z</time>
      </trkpt>
      <trkpt lat="42.9075720" lon="1.4031540">
        <ele>1001.5</ele>
        <time>2022-06-26T07:06:26Z</time>
      </trkpt>
      <trkpt lat="42.9075500" lon="1.4029050">
        <ele>1000.5</ele>
        <time>2022-06-26T07:06:28Z</time>
      </trkpt>
      <trkpt lat="42.9075070" lon="1.4025460">
        <ele>999.1</ele>
        <time>2022-06-26T07:06:31Z</time>
      </trkpt>
      <trkpt lat="42.9074370" lon="1.4023270">
        <ele>998.1</ele>
        <time>2022-06-26T07:06:33Z</time>
      </trkpt>
      <trkpt lat="42.9071490" lon="1.4017210">
        <ele>995.2</ele>
        <time>2022-06-26T07:06:39Z</time>
      </trkpt>
      <trkpt lat="42.9071100" lon="1.4016060">
        <ele>994.6</ele>
        <time>2022-06-26T07:06:40Z</time>
      </trkpt>
      <trkpt lat="42.9070100" lon="1.4012410">
        <ele>992.7</ele>
        <time>2022-06-26T07:06:43Z</time>
      </trkpt>
      <trkpt lat="42.9068280" lon="1.4004920">
        <ele>989.9</ele>
        <time>2022-06-26T07:06:49Z</time>
      </trkpt>
      <trkpt lat="42.9068010" lon="1.4003620">
        <ele>989.4</ele>
        <time>2022-06-26T07:06:50Z</time>
      </trkpt>
      <trkpt lat="42.9067630" lon="1.3999590">
        <ele>987.9</ele>
        <time>2022-06-26T07:06:53Z</time>
      </trkpt>
      <trkpt lat="42.9068160" lon="1.3989840">
        <ele>983.8</ele>
        <time>2022-06-26T07:07:00Z</time>
      </trkpt>
      <trkpt lat="42.9068830" lon="1.3985660">
        <ele>982.1</ele>
        <time>2022-06-26T07:07:03Z</time>
      </trkpt>
      <trkpt lat="42.9069660" lon="1.3982930">
        <ele>981.0</ele>
        <time>2022-06-26T07:07:05Z</time>
      </trkpt>
      <trkpt lat="42.9071280" lon="1.3979240">
        <ele>979.2</ele>
        <time>2022-06-26T07:07:08Z</time>
      </trkpt>
      <trkpt lat="42.9071830" lon="1.3978140">
        <ele>978.6</ele>
        <time>2022-06-26T07:07:09Z</time>
      </trkpt>
      <trkpt lat="42.9072640" lon="1.3975870">
        <ele>977.6</ele>
        <time>2022-06-26T07:07:11Z</time>
      </trkpt>
      <trkpt lat="42.9072920" lon="1.3974650">
        <ele>977.1</ele>
        <time>2022-06-26T07:07:13Z</time>
      </trkpt>
      <trkpt lat="42.9073020" lon="1.3973300">
        <ele>976.5</ele>
        <time>2022-06-26T07:07:14Z</time>
      </trkpt>
      <trkpt lat="42.9073210" lon="1.3970610">
        <ele>975.4</ele>
        <time>2022-06-26T07:07:16Z</time>
      </trkpt>
      <trkpt lat="42.9072960" lon="1.3968550">
        <ele>974.6</ele>
        <time>2022-06-26T07:07:17Z</time>
      </trkpt>
      <trkpt lat="42.9072720" lon="1.3966480">
        <ele>973.8</ele>
        <time>2022-06-26T07:07:18Z</time>
      </trkpt>
      <trkpt lat="42.9072240" lon="1.3963920">
        <ele>972.9</ele>
        <time>2022-06-26T07:07:20Z</time>
      </trkpt>
      <trkpt lat="42.9071910" lon="1.3961640">
        <ele>972.2</ele>
        <time>2022-06-26T07:07:22Z</time>
      </trkpt>
      <trkpt lat="42.9072080" lon="1.3959620">
        <ele>971.5</ele>
        <time>2022-06-26T07:07:24Z</time>
      </trkpt>
      <trkpt lat="42.9073120" lon="1.3956790">
        <ele>970.3</ele>
        <time>2022-06-26T07:07:27Z</time>
      </trkpt>
      <trkpt lat="42.9074770" lon="1.3954990">
        <ele>969.3</ele>
        <time>2022-06-26T07:07:30Z</time>
      </trkpt>
      <trkpt lat="42.9075260" lon="1.3954500">
        <ele>969.0</ele>
        <time>2022-06-26T07:07:31Z</time>
      </trkpt>
      <trkpt lat="42.9075780" lon="1.3952200">
        <ele>968.0</ele>
        <time>2022-06-26T07:07:34Z</time>
      </trkpt>
      <trkpt lat="42.9075120" lon="1.3950270">
        <ele>967.1</ele>
        <time>2022-06-26T07:07:37Z</time>
      </trkpt>
      <trkpt lat="42.9072590" lon="1.3944150">
        <ele>963.8</ele>
        <time>2022-06-26T07:07:42Z</time>
      </trkpt>
      <trkpt lat="42.9072190" lon="1.3943170">
        <ele>963.4</ele>
        <time>2022-06-26T07:07:43Z</time>
      </trkpt>
      <trkpt lat="42.9071790" lon="1.3942170">
        <ele>962.9</ele>
        <time>2022-06-26T07:07:44Z</time>
      </trkpt>
      <trkpt lat="42.9071190" lon="1.3939980">
        <ele>962.0</ele>
        <time>2022-06-26T07:07:46Z</time>
      </trkpt>
      <trkpt lat="42.9071060" lon="1.3936620">
        <ele>960.7</ele>
        <time>2022-06-26T07:07:49Z</time>
      </trkpt>
      <trkpt lat="42.9071790" lon="1.3933370">
        <ele>959.3</ele>
        <time>2022-06-26T07:07:52Z</time>
      </trkpt>
      <trkpt lat="42.9072100" lon="1.3932360">
        <ele>958.9</ele>
        <time>2022-06-26T07:07:53Z</time>
      </trkpt>
      <trkpt lat="42.9072240" lon="1.3929170">
        <ele>957.7</ele>
        <time>2022-06-26T07:07:56Z</time>
      </trkpt>
      <trkpt lat="42.9070980" lon="1.3926180">
        <ele>956.5</ele>
        <time>2022-06-26T07:07:59Z</time>
      </trkpt>
      <trkpt lat="42.9070430" lon="1.3925250">
        <ele>956.1</ele>
        <time>2022-06-26T07:08:00Z</time>
      </trkpt>
      <trkpt lat="42.9069840" lon="1.3924330">
        <ele>955.6</ele>
        <time>2022-06-26T07:08:01Z</time>
      </trkpt>
      <trkpt lat="42.9067750" lon="1.3920400">
        <ele>953.7</ele>
        <time>2022-06-26T07:08:05Z</time>
      </trkpt>
      <trkpt lat="42.9066700" lon="1.3917530">
        <ele>952.6</ele>
        <time>2022-06-26T07:08:08Z</time>
      </trkpt>
      <trkpt lat="42.9066520" lon="1.3916500">
        <ele>952.2</ele>
        <time>2022-06-26T07:08:09Z</time>
      </trkpt>
      <trkpt lat="42.9066110" lon="1.3914390">
        <ele>951.4</ele>
        <time>2022-06-26T07:08:11Z</time>
      </trkpt>
      <trkpt lat="42.9065870" lon="1.3913330">
        <ele>951.0</ele>
        <time>2022-06-26T07:08:12Z</time>
      </trkpt>
      <trkpt lat="42.9065650" lon="1.3912210">
        <ele>950.5</ele>
        <time>2022-06-26T07:08:14Z</time>
      </trkpt>
      <trkpt lat="42.9065400" lon="1.3911070">
        <ele>950.1</ele>
        <time>2022-06-26T07:08:15Z</time>
      </trkpt>
      <trkpt lat="42.9064540" lon="1.3907980">
        <ele>949.0</ele>
        <time>2022-06-26T07:08:18Z</time>
      </trkpt>
      <trkpt lat="42.9064350" lon="1.3907200">
        <ele>948.8</ele>
        <time>2022-06-26T07:08:19Z</time>
      </trkpt>
      <trkpt lat="42.9064290" lon="1.3905550">
        <ele>948.3</ele>
        <time>2022-06-26T07:08:22Z</time>
      </trkpt>
      <trkpt lat="42.9065200" lon="1.3905070">
        <ele>949.7</ele>
        <time>2022-06-26T07:08:25Z</time>
      </trkpt>
      <trkpt lat="42.9065310" lon="1.3905230">
        <ele>949.9</ele>
        <time>2022-06-26T07:08:26Z</time>
      </trkpt>
      <trkpt lat="42.9065350" lon="1.3905560">
        <ele>950.2</ele>
        <time>2022-06-26T07:08:28Z</time>
      </trkpt>
      <trkpt lat="42.9065360" lon="1.3905640">
        <ele>950.3</ele>
        <time>2022-06-26T07:08:29Z</time>
      </trkpt>
      <trkpt lat="42.9064970" lon="1.3906300">
        <ele>951.0</ele>
        <time>2022-06-26T07:11:51Z</time>
      </trkpt>
      <trkpt lat="42.9064910" lon="1.3906470">
        <ele>951.1</ele>
        <time>2022-06-26T07:11:52Z</time>
      </trkpt>
      <trkpt lat="42.9065110" lon="1.3907720">
        <ele>952.1</ele>
        <time>2022-06-26T07:11:56Z</time>
      </trkpt>
      <trkpt lat="42.9065150" lon="1.3908070">
        <ele>952.4</ele>
        <time>2022-06-26T07:11:57Z</time>
      </trkpt>
      <trkpt lat="42.9065190" lon="1.3908390">
        <ele>952.7</ele>
        <time>2022-06-26T07:11:58Z</time>
      </trkpt>
      <trkpt lat="42.9065370" lon="1.3909310">
        <ele>953.4</ele>
        <time>2022-06-26T07:12:01Z</time>
      </trkpt>
      <trkpt lat="42.9065570" lon="1.3910120">
        <ele>954.2</ele>
        <time>2022-06-26T07:12:04Z</time>
      </trkpt>
      <trkpt lat="42.9065750" lon="1.3910850">
        <ele>954.8</ele>
        <time>2022-06-26T07:12:07Z</time>
      </trkpt>
      <trkpt lat="42.9066050" lon="1.3911870">
        <ele>955.9</ele>
        <time>2022-06-26T07:12:11Z</time>
      </trkpt>
      <trkpt lat="42.9066150" lon="1.3912440">
        <ele>956.4</ele>
        <time>2022-06-26T07:12:13Z</time>
      </trkpt>
      <trkpt lat="42.9066210" lon="1.3913030">
        <ele>957.0</ele>
        <time>2022-06-26T07:12:15Z</time>
      </trkpt>
      <trkpt lat="42.9066440" lon="1.3914240">
        <ele>958.4</ele>
        <time>2022-06-26T07:12:20Z</time>
      </trkpt>
      <trkpt lat="42.9066550" lon="1.3914740">
        <ele>959.0</ele>
        <time>2022-06-26T07:12:22Z</time>
      </trkpt>
      <trkpt lat="42.9066970" lon="1.3916220">
        <ele>960.9</ele>
        <time>2022-06-26T07:12:28Z</time>
      </trkpt>
      <trkpt lat="42.9067750" lon="1.3917850">
        <ele>963.4</ele>
        <time>2022-06-26T07:12:36Z</time>
      </trkpt>
      <trkpt lat="42.9068360" lon="1.3918650">
        <ele>964.8</ele>
        <time>2022-06-26T07:12:41Z</time>
      </trkpt>
      <trkpt lat="42.9068570" lon="1.3918980">
        <ele>965.3</ele>
        <time>2022-06-26T07:12:43Z</time>
      </trkpt>
      <trkpt lat="42.9069000" lon="1.3919770">
        <ele>966.5</ele>
        <time>2022-06-26T07:12:48Z</time>
      </trkpt>
      <trkpt lat="42.9069300" lon="1.3920000">
        <ele>967.0</ele>
        <time>2022-06-26T07:12:51Z</time>
      </trkpt>
      <trkpt lat="42.9070690" lon="1.3921500">
        <ele>969.7</ele>
        <time>2022-06-26T07:13:03Z</time>
      </trkpt>
      <trkpt lat="42.9071070" lon="1.3921920">
        <ele>970.4</ele>
        <time>2022-06-26T07:13:06Z</time>
      </trkpt>
      <trkpt lat="42.9071230" lon="1.3922070">
        <ele>970.7</ele>
        <time>2022-06-26T07:13:07Z</time>
      </trkpt>
      <trkpt lat="42.9072290" lon="1.3922750">
        <ele>972.6</ele>
        <time>2022-06-26T07:13:14Z</time>
      </trkpt>
      <trkpt lat="42.9072430" lon="1.3922770">
        <ele>972.8</ele>
        <time>2022-06-26T07:13:15Z</time>
      </trkpt>
      <trkpt lat="42.9072900" lon="1.3923390">
        <ele>973.8</ele>
        <time>2022-06-26T07:13:19Z</time>
      </trkpt>
      <trkpt lat="42.9073310" lon="1.3923780">
        <ele>974.6</ele>
        <time>2022-06-26T07:13:23Z</time>
      </trkpt>
      <trkpt lat="42.9073310" lon="1.3923940">
        <ele>974.8</ele>
        <time>2022-06-26T07:13:24Z</time>
      </trkpt>
      <trkpt lat="42.9073960" lon="1.3924730">
        <ele>976.2</ele>
        <time>2022-06-26T07:13:31Z</time>
      </trkpt>
      <trkpt lat="42.9074200" lon="1.3925090">
        <ele>976.7</ele>
        <time>2022-06-26T07:13:34Z</time>
      </trkpt>
      <trkpt lat="42.9074400" lon="1.3925620">
        <ele>977.4</ele>
        <time>2022-06-26T07:13:36Z</time>
      </trkpt>
      <trkpt lat="42.9074780" lon="1.3926120">
        <ele>978.2</ele>
        <time>2022-06-26T07:13:40Z</time>
      </trkpt>
      <trkpt lat="42.9075010" lon="1.3926670">
        <ele>979.0</ele>
        <time>2022-06-26T07:13:43Z</time>
      </trkpt>
      <trkpt lat="42.9075440" lon="1.3927750">
        <ele>980.4</ele>
        <time>2022-06-26T07:13:49Z</time>
      </trkpt>
      <trkpt lat="42.9075610" lon="1.3928140">
        <ele>980.9</ele>
        <time>2022-06-26T07:13:51Z</time>
      </trkpt>
      <trkpt lat="42.9075890" lon="1.3929090">
        <ele>982.1</ele>
        <time>2022-06-26T07:13:56Z</time>
      </trkpt>
      <trkpt lat="42.9076440" lon="1.3930430">
        <ele>983.8</ele>
        <time>2022-06-26T07:14:04Z</time>
      </trkpt>
      <trkpt lat="42.9077140" lon="1.3931700">
        <ele>985.7</ele>
        <time>2022-06-26T07:14:12Z</time>
      </trkpt>
      <trkpt lat="42.9077380" lon="1.3931960">
        <ele>986.2</ele>
        <time>2022-06-26T07:14:14Z</time>
      </trkpt>
      <trkpt lat="42.9078070" lon="1.3932740">
        <ele>987.6</ele>
        <time>2022-06-26T07:14:20Z</time>
      </trkpt>
      <trkpt lat="42.9078170" lon="1.3932880">
        <ele>987.9</ele>
        <time>2022-06-26T07:14:21Z</time>
      </trkpt>
      <trkpt lat="42.9078410" lon="1.3933210">
        <ele>988.4</ele>
        <time>2022-06-26T07:14:24Z</time>
      </trkpt>
      <trkpt lat="42.9078530" lon="1.3933500">
        <ele>988.8</ele>
        <time>2022-06-26T07:14:26Z</time>
      </trkpt>
      <trkpt lat="42.9078680" lon="1.3934050">
        <ele>989.6</ele>
        <time>2022-06-26T07:14:29Z</time>
      </trkpt>
      <trkpt lat="42.9078840" lon="1.3934310">
        <ele>990.0</ele>
        <time>2022-06-26T07:14:31Z</time>
      </trkpt>
      <trkpt lat="42.9078950" lon="1.3935020">
        <ele>990.8</ele>
        <time>2022-06-26T07:14:35Z</time>
      </trkpt>
      <trkpt lat="42.9078930" lon="1.3935430">
        <ele>991.3</ele>
        <time>2022-06-26T07:14:37Z</time>
      </trkpt>
      <trkpt lat="42.9079000" lon="1.3935760">
        <ele>991.7</ele>
        <time>2022-06-26T07:14:39Z</time>
      </trkpt>
      <trkpt lat="42.9079080" lon="1.3936780">
        <ele>992.9</ele>
        <time>2022-06-26T07:14:44Z</time>
      </trkpt>
      <trkpt lat="42.9079020" lon="1.3936940">
        <ele>993.1</ele>
        <time>2022-06-26T07:14:45Z</time>
      </trkpt>
      <trkpt lat="42.9078760" lon="1.3937400">
        <ele>993.7</ele>
        <time>2022-06-26T07:14:48Z</time>
      </trkpt>
      <trkpt lat="42.9078670" lon="1.3937740">
        <ele>994.0</ele>
        <time>2022-06-26T07:14:50Z</time>
      </trkpt>
      <trkpt lat="42.9078490" lon="1.3939500">
        <ele>995.7</ele>
        <time>2022-06-26T07:15:00Z</time>
      </trkpt>
      <trkpt lat="42.9078570" lon="1.3940480">
        <ele>996.6</ele>
        <time>2022-06-26T07:15:05Z</time>
      </trkpt>
      <trkpt lat="42.9078670" lon="1.3941010">
        <ele>997.1</ele>
        <time>2022-06-26T07:15:08Z</time>
      </trkpt>
      <trkpt lat="42.9078770" lon="1.3942060">
        <ele>998.2</ele>
        <time>2022-06-26T07:15:13Z</time>
      </trkpt>
      <trkpt lat="42.9078800" lon="1.3942220">
        <ele>998.3</ele>
        <time>2022-06-26T07:15:14Z</time>
      </trkpt>
      <trkpt lat="42.9078920" lon="1.3942690">
        <ele>998.8</ele>
        <time>2022-06-26T07:15:17Z</time>
      </trkpt>
      <trkpt lat="42.9079100" lon="1.3943400">
        <ele>999.6</ele>
        <time>2022-06-26T07:15:21Z</time>
      </trkpt>
      <trkpt lat="42.9079140" lon="1.3943820">
        <ele>1000.1</ele>
        <time>2022-06-26T07:15:23Z</time>
      </trkpt>
      <trkpt lat="42.9079140" lon="1.3943970">
        <ele>1000.2</ele>
        <time>2022-06-26T07:15:24Z</time>
      </trkpt>
      <trkpt lat="42.9079140" lon="1.3944480">
        <ele>1000.8</ele>
        <time>2022-06-26T07:15:27Z</time>
      </trkpt>
      <trkpt lat="42.9079860" lon="1.3948230">
        <ele>1005.5</ele>
        <time>2022-06-26T07:15:49Z</time>
      </trkpt>
      <trkpt lat="42.9080160" lon="1.3949080">
        <ele>1006.7</ele>
        <time>2022-06-26T07:15:54Z</time>
      </trkpt>
      <trkpt lat="42.9080650" lon="1.3949790">
        <ele>1007.9</ele>
        <time>2022-06-26T07:15:59Z</time>
      </trkpt>
      <trkpt lat="42.9081240" lon="1.3950710">
        <ele>1009.4</ele>
        <time>2022-06-26T07:16:05Z</time>
      </trkpt>
      <trkpt lat="42.9081340" lon="1.3950880">
        <ele>1009.6</ele>
        <time>2022-06-26T07:16:06Z</time>
      </trkpt>
      <trkpt lat="42.9082000" lon="1.3951550">
        <ele>1010.9</ele>
        <time>2022-06-26T07:16:11Z</time>
      </trkpt>
      <trkpt lat="42.9082390" lon="1.3951900">
        <ele>1011.6</ele>
        <time>2022-06-26T07:16:14Z</time>
      </trkpt>
      <trkpt lat="42.9082910" lon="1.3952210">
        <ele>1012.5</ele>
        <time>2022-06-26T07:16:18Z</time>
      </trkpt>
      <trkpt lat="42.9083000" lon="1.3952280">
        <ele>1012.7</ele>
        <time>2022-06-26T07:16:19Z</time>
      </trkpt>
      <trkpt lat="42.9084080" lon="1.3953570">
        <ele>1015.0</ele>
        <time>2022-06-26T07:16:29Z</time>
      </trkpt>
      <trkpt lat="42.9084540" lon="1.3954220">
        <ele>1016.0</ele>
        <time>2022-06-26T07:16:34Z</time>
      </trkpt>
      <trkpt lat="42.9084660" lon="1.3954740">
        <ele>1016.7</ele>
        <time>2022-06-26T07:16:37Z</time>
      </trkpt>
      <trkpt lat="42.9084760" lon="1.3955050">
        <ele>1017.1</ele>
        <time>2022-06-26T07:16:39Z</time>
      </trkpt>
      <trkpt lat="42.9084790" lon="1.3955200">
        <ele>1017.2</ele>
        <time>2022-06-26T07:16:40Z</time>
      </trkpt>
      <trkpt lat="42.9086330" lon="1.3964840">
        <ele>1029.4</ele>
        <time>2022-06-26T07:17:38Z</time>
      </trkpt>
      <trkpt lat="42.9086110" lon="1.3965460">
        <ele>1030.1</ele>
        <time>2022-06-26T07:17:41Z</time>
      </trkpt>
      <trkpt lat="42.9086000" lon="1.3965730">
        <ele>1030.4</ele>
        <time>2022-06-26T07:17:42Z</time>
      </trkpt>
      <trkpt lat="42.9085730" lon="1.3966300">
        <ele>1031.1</ele>
        <time>2022-06-26T07:17:45Z</time>
      </trkpt>
      <trkpt lat="42.9085650" lon="1.3966490">
        <ele>1031.3</ele>
        <time>2022-06-26T07:17:46Z</time>
      </trkpt>
      <trkpt lat="42.9084090" lon="1.3969960">
        <ele>1035.8</ele>
        <time>2022-06-26T07:18:04Z</time>
      </trkpt>
      <trkpt lat="42.9083940" lon="1.3970390">
        <ele>1036.3</ele>
        <time>2022-06-26T07:18:06Z</time>
      </trkpt>
      <trkpt lat="42.9083630" lon="1.3972130">
        <ele>1038.4</ele>
        <time>2022-06-26T07:18:14Z</time>
      </trkpt>
      <trkpt lat="42.9083630" lon="1.3972760">
        <ele>1039.1</ele>
        <time>2022-06-26T07:18:18Z</time>
      </trkpt>
      <trkpt lat="42.9083760" lon="1.3973150">
        <ele>1039.5</ele>
        <time>2022-06-26T07:18:20Z</time>
      </trkpt>
      <trkpt lat="42.9083870" lon="1.3974460">
        <ele>1040.8</ele>
        <time>2022-06-26T07:18:27Z</time>
      </trkpt>
      <trkpt lat="42.9083920" lon="1.3974640">
        <ele>1041.0</ele>
        <time>2022-06-26T07:18:28Z</time>
      </trkpt>
      <trkpt lat="42.9084060" lon="1.3975190">
        <ele>1041.6</ele>
        <time>2022-06-26T07:18:31Z</time>
      </trkpt>
      <trkpt lat="42.9084090" lon="1.3975760">
        <ele>1042.2</ele>
        <time>2022-06-26T07:18:34Z</time>
      </trkpt>
      <trkpt lat="42.9084120" lon="1.3975950">
        <ele>1042.4</ele>
        <time>2022-06-26T07:18:35Z</time>
      </trkpt>
      <trkpt lat="42.9084100" lon="1.3976440">
        <ele>1042.8</ele>
        <time>2022-06-26T07:18:38Z</time>
      </trkpt>
      <trkpt lat="42.9083780" lon="1.3996150">
        <ele>1065.1</ele>
        <time>2022-06-26T07:20:25Z</time>
      </trkpt>
      <trkpt lat="42.9083930" lon="1.3997100">
        <ele>1066.2</ele>
        <time>2022-06-26T07:20:30Z</time>
      </trkpt>
      <trkpt lat="42.9084220" lon="1.3998570">
        <ele>1067.8</ele>
        <time>2022-06-26T07:20:36Z</time>
      </trkpt>
      <trkpt lat="42.9084410" lon="1.3999040">
        <ele>1068.4</ele>
        <time>2022-06-26T07:20:39Z</time>
      </trkpt>
      <trkpt lat="42.9084820" lon="1.4002020">
        <ele>1071.7</ele>
        <time>2022-06-26T07:20:52Z</time>
      </trkpt>
      <trkpt lat="42.9084870" lon="1.4002720">
        <ele>1072.4</ele>
        <time>2022-06-26T07:20:55Z</time>
      </trkpt>
      <trkpt lat="42.9084930" lon="1.4003400">
        <ele>1073.2</ele>
        <time>2022-06-26T07:20:58Z</time>
      </trkpt>
      <trkpt lat="42.9084860" lon="1.4004370">
        <ele>1074.3</ele>
        <time>2022-06-26T07:21:01Z</time>
      </trkpt>
      <trkpt lat="42.9085000" lon="1.4004990">
        <ele>1075.1</ele>
        <time>2022-06-26T07:21:04Z</time>
      </trkpt>
      <trkpt lat="42.9085050" lon="1.4005210">
        <ele>1075.4</ele>
        <time>2022-06-26T07:21:05Z</time>
      </trkpt>
      <trkpt lat="42.9085200" lon="1.4005740">
        <ele>1076.1</ele>
        <time>2022-06-26T07:21:07Z</time>
      </trkpt>
      <trkpt lat="42.9085200" lon="1.4005740">
        <ele>1076.1</ele>
        <time>2022-06-26T07:21:08Z</time>
      </trkpt>
      <trkpt lat="42.9086770" lon="1.4012260">
        <ele>1084.8</ele>
        <time>2022-06-26T07:21:45Z</time>
      </trkpt>
      <trkpt lat="42.9086990" lon="1.4013250">
        <ele>1086.1</ele>
        <time>2022-06-26T07:21:49Z</time>
      </trkpt>
      <trkpt lat="42.9086990" lon="1.4013250">
        <ele>1086.1</ele>
        <time>2022-06-26T07:21:50Z</time>
      </trkpt>
      <trkpt lat="42.9087660" lon="1.4015390">
        <ele>1089.0</ele>
        <time>2022-06-26T07:21:57Z</time>
      </trkpt>
      <trkpt lat="42.9088080" lon="1.4015500">
        <ele>1089.6</ele>
        <time>2022-06-26T07:21:59Z</time>
      </trkpt>
      <trkpt lat="42.9088400" lon="1.4015250">
        <ele>1090.0</ele>
        <time>2022-06-26T07:22:01Z</time>
      </trkpt>
      <trkpt lat="42.9088710" lon="1.4013920">
        <ele>1091.1</ele>
        <time>2022-06-26T07:22:06Z</time>
      </trkpt>
      <trkpt lat="42.9088630" lon="1.4013300">
        <ele>1091.6</ele>
        <time>2022-06-26T07:22:08Z</time>
      </trkpt>
      <trkpt lat="42.9088540" lon="1.4011880">
        <ele>1092.5</ele>
        <time>2022-06-26T07:22:13Z</time>
      </trkpt>
      <trkpt lat="42.9088240" lon="1.4010460">
        <ele>1093.5</ele>
        <time>2022-06-26T07:22:20Z</time>
      </trkpt>
      <trkpt lat="42.9088200" lon="1.4010230">
        <ele>1093.6</ele>
        <time>2022-06-26T07:22:21Z</time>
      </trkpt>
      <trkpt lat="42.9088100" lon="1.4009780">
        <ele>1093.9</ele>
        <time>2022-06-26T07:22:23Z</time>
      </trkpt>
      <trkpt lat="42.9088120" lon="1.4009540">
        <ele>1094.1</ele>
        <time>2022-06-26T07:22:24Z</time>
      </trkpt>
      <trkpt lat="42.9087970" lon="1.4008780">
        <ele>1094.6</ele>
        <time>2022-06-26T07:22:27Z</time>
      </trkpt>
      <trkpt lat="42.9087980" lon="1.4008500">
        <ele>1094.8</ele>
        <time>2022-06-26T07:22:28Z</time>
      </trkpt>
      <trkpt lat="42.9088150" lon="1.4007540">
        <ele>1095.4</ele>
        <time>2022-06-26T07:22:32Z</time>
      </trkpt>
      <trkpt lat="42.9088150" lon="1.4007320">
        <ele>1095.6</ele>
        <time>2022-06-26T07:22:33Z</time>
      </trkpt>
      <trkpt lat="42.9088140" lon="1.4007080">
        <ele>1095.8</ele>
        <time>2022-06-26T07:22:34Z</time>
      </trkpt>
      <trkpt lat="42.9088160" lon="1.4006070">
        <ele>1096.5</ele>
        <time>2022-06-26T07:22:38Z</time>
      </trkpt>
      <trkpt lat="42.9088170" lon="1.4005870">
        <ele>1096.6</ele>
        <time>2022-06-26T07:22:39Z</time>
      </trkpt>
      <trkpt lat="42.9088150" lon="1.4005530">
        <ele>1096.9</ele>
        <time>2022-06-26T07:22:41Z</time>
      </trkpt>
      <trkpt lat="42.9088280" lon="1.4004870">
        <ele>1097.4</ele>
        <time>2022-06-26T07:22:44Z</time>
      </trkpt>
      <trkpt lat="42.9088410" lon="1.4004280">
        <ele>1097.9</ele>
        <time>2022-06-26T07:22:46Z</time>
      </trkpt>
      <trkpt lat="42.9088440" lon="1.4003960">
        <ele>1098.2</ele>
        <time>2022-06-26T07:22:47Z</time>
      </trkpt>
      <trkpt lat="42.9088810" lon="1.4003010">
        <ele>1099.1</ele>
        <time>2022-06-26T07:22:51Z</time>
      </trkpt>
      <trkpt lat="42.9089380" lon="1.4001260">
        <ele>1100.7</ele>
        <time>2022-06-26T07:22:57Z</time>
      </trkpt>
      <trkpt lat="42.9089380" lon="1.4000990">
        <ele>1101.0</ele>
        <time>2022-06-26T07:22:58Z</time>
      </trkpt>
      <trkpt lat="42.9089930" lon="1.3999640">
        <ele>1102.3</ele>
        <time>2022-06-26T07:23:04Z</time>
      </trkpt>
      <trkpt lat="42.9089970" lon="1.3999370">
        <ele>1102.6</ele>
        <time>2022-06-26T07:23:05Z</time>
      </trkpt>
      <trkpt lat="42.9090240" lon="1.3998790">
        <ele>1103.2</ele>
        <time>2022-06-26T07:23:08Z</time>
      </trkpt>
      <trkpt lat="42.9090260" lon="1.3998550">
        <ele>1103.4</ele>
        <time>2022-06-26T07:23:09Z</time>
      </trkpt>
      <trkpt lat="42.9090320" lon="1.3997630">
        <ele>1104.3</ele>
        <time>2022-06-26T07:23:13Z</time>
      </trkpt>
      <trkpt lat="42.9090360" lon="1.3997470">
        <ele>1104.4</ele>
        <time>2022-06-26T07:23:14Z</time>
      </trkpt>
      <trkpt lat="42.9090450" lon="1.3996860">
        <ele>1105.0</ele>
        <time>2022-06-26T07:23:18Z</time>
      </trkpt>
      <trkpt lat="42.9090640" lon="1.3995680">
        <ele>1106.2</ele>
        <time>2022-06-26T07:23:22Z</time>
      </trkpt>
      <trkpt lat="42.9090690" lon="1.3995480">
        <ele>1106.4</ele>
        <time>2022-06-26T07:23:23Z</time>
      </trkpt>
      <trkpt lat="42.9090730" lon="1.3995320">
        <ele>1106.5</ele>
        <time>2022-06-26T07:23:25Z</time>
      </trkpt>
      <trkpt lat="42.9091630" lon="1.3993300">
        <ele>1108.9</ele>
        <time>2022-06-26T07:23:36Z</time>
      </trkpt>
      <trkpt lat="42.9091840" lon="1.3992970">
        <ele>1109.3</ele>
        <time>2022-06-26T07:23:38Z</time>
      </trkpt>
      <trkpt lat="42.9091940" lon="1.3992740">
        <ele>1109.6</ele>
        <time>2022-06-26T07:23:40Z</time>
      </trkpt>
      <trkpt lat="42.9092470" lon="1.3990950">
        <ele>1111.5</ele>
        <time>2022-06-26T07:23:47Z</time>
      </trkpt>
      <trkpt lat="42.9093230" lon="1.3989570">
        <ele>1113.3</ele>
        <time>2022-06-26T07:23:55Z</time>
      </trkpt>
      <trkpt lat="42.9093260" lon="1.3989430">
        <ele>1113.4</ele>
        <time>2022-06-26T07:23:56Z</time>
      </trkpt>
      <trkpt lat="42.9093490" lon="1.3988890">
        <ele>1114.1</ele>
        <time>2022-06-26T07:24:00Z</time>
      </trkpt>
      <trkpt lat="42.9093670" lon="1.3988600">
        <ele>1114.5</ele>
        <time>2022-06-26T07:24:02Z</time>
      </trkpt>
      <trkpt lat="42.9094250" lon="1.3987260">
        <ele>1116.2</ele>
        <time>2022-06-26T07:24:08Z</time>
      </trkpt>
      <trkpt lat="42.9094450" lon="1.3986790">
        <ele>1116.8</ele>
        <time>2022-06-26T07:24:10Z</time>
      </trkpt>
      <trkpt lat="42.9094680" lon="1.3986390">
        <ele>1117.3</ele>
        <time>2022-06-26T07:24:13Z</time>
      </trkpt>
      <trkpt lat="42.9094940" lon="1.3985870">
        <ele>1118.0</ele>
        <time>2022-06-26T07:24:15Z</time>
      </trkpt>
      <trkpt lat="42.9095200" lon="1.3985350">
        <ele>1118.7</ele>
        <time>2022-06-26T07:24:18Z</time>
      </trkpt>
      <trkpt lat="42.9095800" lon="1.3984740">
        <ele>1119.8</ele>
        <time>2022-06-26T07:24:24Z</time>
      </trkpt>
      <trkpt lat="42.9095980" lon="1.3984360">
        <ele>1120.3</ele>
        <time>2022-06-26T07:24:25Z</time>
      </trkpt>
      <trkpt lat="42.9096710" lon="1.3983150">
        <ele>1122.0</ele>
        <time>2022-06-26T07:24:27Z</time>
      </trkpt>
      <trkpt lat="42.9097320" lon="1.3982190">
        <ele>1123.5</ele>
        <time>2022-06-26T07:24:46Z</time>
      </trkpt>
      <trkpt lat="42.9097920" lon="1.3981220">
        <ele>1125.0</ele>
        <time>2022-06-26T07:24:47Z</time>
      </trkpt>
      <trkpt lat="42.9098010" lon="1.3981080">
        <ele>1125.2</ele>
        <time>2022-06-26T07:24:48Z</time>
      </trkpt>
      <trkpt lat="42.9099470" lon="1.3979600">
        <ele>1128.0</ele>
        <time>2022-06-26T07:24:59Z</time>
      </trkpt>
      <trkpt lat="42.9100060" lon="1.3979030">
        <ele>1129.1</ele>
        <time>2022-06-26T07:25:02Z</time>
      </trkpt>
      <trkpt lat="42.9101080" lon="1.3978390">
        <ele>1130.7</ele>
        <time>2022-06-26T07:25:09Z</time>
      </trkpt>
      <trkpt lat="42.9101810" lon="1.3977970">
        <ele>1131.9</ele>
        <time>2022-06-26T07:25:15Z</time>
      </trkpt>
      <trkpt lat="42.9102110" lon="1.3977550">
        <ele>1132.4</ele>
        <time>2022-06-26T07:25:19Z</time>
      </trkpt>
      <trkpt lat="42.9102430" lon="1.3977050">
        <ele>1133.1</ele>
        <time>2022-06-26T07:25:22Z</time>
      </trkpt>
      <trkpt lat="42.9103180" lon="1.3976720">
        <ele>1134.1</ele>
        <time>2022-06-26T07:25:27Z</time>
      </trkpt>
      <trkpt lat="42.9103990" lon="1.3976580">
        <ele>1135.1</ele>
        <time>2022-06-26T07:25:33Z</time>
      </trkpt>
      <trkpt lat="42.9104970" lon="1.3976170">
        <ele>1136.5</ele>
        <time>2022-06-26T07:25:39Z</time>
      </trkpt>
      <trkpt lat="42.9105100" lon="1.3976060">
        <ele>1136.7</ele>
        <time>2022-06-26T07:25:40Z</time>
      </trkpt>
      <trkpt lat="42.9105850" lon="1.3975380">
        <ele>1137.8</ele>
        <time>2022-06-26T07:25:45Z</time>
      </trkpt>
      <trkpt lat="42.9106870" lon="1.3974890">
        <ele>1139.4</ele>
        <time>2022-06-26T07:25:52Z</time>
      </trkpt>
      <trkpt lat="42.9107950" lon="1.3974080">
        <ele>1141.4</ele>
        <time>2022-06-26T07:25:58Z</time>
      </trkpt>
      <trkpt lat="42.9108760" lon="1.3973320">
        <ele>1143.1</ele>
        <time>2022-06-26T07:26:04Z</time>
      </trkpt>
      <trkpt lat="42.9108900" lon="1.3973200">
        <ele>1143.3</ele>
        <time>2022-06-26T07:26:05Z</time>
      </trkpt>
      <trkpt lat="42.9109550" lon="1.3972100">
        <ele>1145.1</ele>
        <time>2022-06-26T07:26:11Z</time>
      </trkpt>
      <trkpt lat="42.9109670" lon="1.3970640">
        <ele>1146.7</ele>
        <time>2022-06-26T07:26:17Z</time>
      </trkpt>
      <trkpt lat="42.9109700" lon="1.3969910">
        <ele>1147.5</ele>
        <time>2022-06-26T07:26:20Z</time>
      </trkpt>
      <trkpt lat="42.9109670" lon="1.3968940">
        <ele>1148.4</ele>
        <time>2022-06-26T07:26:24Z</time>
      </trkpt>
      <trkpt lat="42.9109660" lon="1.3968740">
        <ele>1148.6</ele>
        <time>2022-06-26T07:26:25Z</time>
      </trkpt>
      <trkpt lat="42.9109580" lon="1.3968060">
        <ele>1149.3</ele>
        <time>2022-06-26T07:26:28Z</time>
      </trkpt>
      <trkpt lat="42.9109580" lon="1.3967610">
        <ele>1149.7</ele>
        <time>2022-06-26T07:26:30Z</time>
      </trkpt>
      <trkpt lat="42.9109580" lon="1.3966940">
        <ele>1150.2</ele>
        <time>2022-06-26T07:26:33Z</time>
      </trkpt>
      <trkpt lat="42.9109460" lon="1.3966080">
        <ele>1151.0</ele>
        <time>2022-06-26T07:26:37Z</time>
      </trkpt>
      <trkpt lat="42.9109260" lon="1.3965250">
        <ele>1151.7</ele>
        <time>2022-06-26T07:26:41Z</time>
      </trkpt>
      <trkpt lat="42.9109190" lon="1.3964910">
        <ele>1152.0</ele>
        <time>2022-06-26T07:26:43Z</time>
      </trkpt>
      <trkpt lat="42.9109120" lon="1.3964560">
        <ele>1152.3</ele>
        <time>2022-06-26T07:26:45Z</time>
      </trkpt>
      <trkpt lat="42.9108980" lon="1.3964060">
        <ele>1152.7</ele>
        <time>2022-06-26T07:26:48Z</time>
      </trkpt>
      <trkpt lat="42.9108910" lon="1.3963920">
        <ele>1152.9</ele>
        <time>2022-06-26T07:26:49Z</time>
      </trkpt>
      <trkpt lat="42.9108720" lon="1.3963140">
        <ele>1153.6</ele>
        <time>2022-06-26T07:26:53Z</time>
      </trkpt>
      <trkpt lat="42.9108620" lon="1.3962930">
        <ele>1153.8</ele>
        <time>2022-06-26T07:26:54Z</time>
      </trkpt>
      <trkpt lat="42.9108460" lon="1.3962770">
        <ele>1154.1</ele>
        <time>2022-06-26T07:26:55Z</time>
      </trkpt>
      <trkpt lat="42.9108340" lon="1.3962600">
        <ele>1154.3</ele>
        <time>2022-06-26T07:26:56Z</time>
      </trkpt>
      <trkpt lat="42.9108190" lon="1.3962260">
        <ele>1154.7</ele>
        <time>2022-06-26T07:26:58Z</time>
      </trkpt>
      <trkpt lat="42.9108170" lon="1.3962080">
        <ele>1154.8</ele>
        <time>2022-06-26T07:26:59Z</time>
      </trkpt>
      <trkpt lat="42.9108120" lon="1.3961750">
        <ele>1155.1</ele>
        <time>2022-06-26T07:27:01Z</time>
      </trkpt>
      <trkpt lat="42.9108050" lon="1.3961580">
        <ele>1155.3</ele>
        <time>2022-06-26T07:27:02Z</time>
      </trkpt>
      <trkpt lat="42.9107860" lon="1.3961010">
        <ele>1155.9</ele>
        <time>2022-06-26T07:27:05Z</time>
      </trkpt>
      <trkpt lat="42.9107820" lon="1.3960770">
        <ele>1156.1</ele>
        <time>2022-06-26T07:27:06Z</time>
      </trkpt>
      <trkpt lat="42.9107680" lon="1.3959940">
        <ele>1157.0</ele>
        <time>2022-06-26T07:27:10Z</time>
      </trkpt>
      <trkpt lat="42.9107330" lon="1.3959090">
        <ele>1158.0</ele>
        <time>2022-06-26T07:27:14Z</time>
      </trkpt>
      <trkpt lat="42.9107280" lon="1.3958870">
        <ele>1158.3</ele>
        <time>2022-06-26T07:27:15Z</time>
      </trkpt>
      <trkpt lat="42.9107130" lon="1.3957840">
        <ele>1159.5</ele>
        <time>2022-06-26T07:27:20Z</time>
      </trkpt>
      <trkpt lat="42.9107040" lon="1.3957460">
        <ele>1159.9</ele>
        <time>2022-06-26T07:27:22Z</time>
      </trkpt>
      <trkpt lat="42.9107030" lon="1.3957010">
        <ele>1160.5</ele>
        <time>2022-06-26T07:27:24Z</time>
      </trkpt>
      <trkpt lat="42.9107030" lon="1.3957010">
        <ele>1160.5</ele>
        <time>2022-06-26T07:27:25Z</time>
      </trkpt>
      <trkpt lat="42.9106990" lon="1.3955950">
        <ele>1161.7</ele>
        <time>2022-06-26T07:27:29Z</time>
      </trkpt>
      <trkpt lat="42.9107010" lon="1.3955740">
        <ele>1161.9</ele>
        <time>2022-06-26T07:27:30Z</time>
      </trkpt>
      <trkpt lat="42.9107250" lon="1.3954690">
        <ele>1163.2</ele>
        <time>2022-06-26T07:27:35Z</time>
      </trkpt>
      <trkpt lat="42.9107260" lon="1.3954470">
        <ele>1163.4</ele>
        <time>2022-06-26T07:27:36Z</time>
      </trkpt>
      <trkpt lat="42.9107750" lon="1.3953590">
        <ele>1164.6</ele>
        <time>2022-06-26T07:27:41Z</time>
      </trkpt>
      <trkpt lat="42.9107870" lon="1.3953430">
        <ele>1164.8</ele>
        <time>2022-06-26T07:27:42Z</time>
      </trkpt>
      <trkpt lat="42.9108270" lon="1.3952870">
        <ele>1165.6</ele>
        <time>2022-06-26T07:27:45Z</time>
      </trkpt>
      <trkpt lat="42.9109100" lon="1.3952260">
        <ele>1166.8</ele>
        <time>2022-06-26T07:27:50Z</time>
      </trkpt>
      <trkpt lat="42.9109830" lon="1.3952020">
        <ele>1167.6</ele>
        <time>2022-06-26T07:27:55Z</time>
      </trkpt>
      <trkpt lat="42.9110100" lon="1.3951860">
        <ele>1168.0</ele>
        <time>2022-06-26T07:27:57Z</time>
      </trkpt>
      <trkpt lat="42.9110520" lon="1.3951700">
        <ele>1168.4</ele>
        <time>2022-06-26T07:28:00Z</time>
      </trkpt>
      <trkpt lat="42.9111450" lon="1.3951550">
        <ele>1169.5</ele>
        <time>2022-06-26T07:28:06Z</time>
      </trkpt>
      <trkpt lat="42.9112180" lon="1.3950990">
        <ele>1170.4</ele>
        <time>2022-06-26T07:28:11Z</time>
      </trkpt>
      <trkpt lat="42.9112650" lon="1.3950740">
        <ele>1170.9</ele>
        <time>2022-06-26T07:28:14Z</time>
      </trkpt>
      <trkpt lat="42.9112800" lon="1.3950660">
        <ele>1171.1</ele>
        <time>2022-06-26T07:28:15Z</time>
      </trkpt>
      <trkpt lat="42.9113630" lon="1.3950310">
        <ele>1172.1</ele>
        <time>2022-06-26T07:28:20Z</time>
      </trkpt>
      <trkpt lat="42.9114120" lon="1.3950220">
        <ele>1172.7</ele>
        <time>2022-06-26T07:28:23Z</time>
      </trkpt>
      <trkpt lat="42.9114420" lon="1.3950090">
        <ele>1173.1</ele>
        <time>2022-06-26T07:28:25Z</time>
      </trkpt>
      <trkpt lat="42.9114970" lon="1.3949800">
        <ele>1173.8</ele>
        <time>2022-06-26T07:28:29Z</time>
      </trkpt>
      <trkpt lat="42.9115380" lon="1.3949480">
        <ele>1174.4</ele>
        <time>2022-06-26T07:28:31Z</time>
      </trkpt>
      <trkpt lat="42.9115640" lon="1.3949210">
        <ele>1174.8</ele>
        <time>2022-06-26T07:28:34Z</time>
      </trkpt>
      <trkpt lat="42.9116480" lon="1.3948650">
        <ele>1176.0</ele>
        <time>2022-06-26T07:28:39Z</time>
      </trkpt>
      <trkpt lat="42.9116620" lon="1.3948530">
        <ele>1176.2</ele>
        <time>2022-06-26T07:28:40Z</time>
      </trkpt>
      <trkpt lat="42.9117320" lon="1.3948070">
        <ele>1177.3</ele>
        <time>2022-06-26T07:28:45Z</time>
      </trkpt>
      <trkpt lat="42.9117990" lon="1.3947550">
        <ele>1178.4</ele>
        <time>2022-06-26T07:28:50Z</time>
      </trkpt>
      <trkpt lat="42.9118130" lon="1.3947470">
        <ele>1178.6</ele>
        <time>2022-06-26T07:28:51Z</time>
      </trkpt>
      <trkpt lat="42.9118730" lon="1.3947000">
        <ele>1179.6</ele>
        <time>2022-06-26T07:28:56Z</time>
      </trkpt>
      <trkpt lat="42.9118980" lon="1.3946810">
        <ele>1180.1</ele>
        <time>2022-06-26T07:28:58Z</time>
      </trkpt>
      <trkpt lat="42.9119220" lon="1.3946610">
        <ele>1180.5</ele>
        <time>2022-06-26T07:29:01Z</time>
      </trkpt>
      <trkpt lat="42.9120190" lon="1.3946070">
        <ele>1182.1</ele>
        <time>2022-06-26T07:29:07Z</time>
      </trkpt>
      <trkpt lat="42.9120310" lon="1.3946000">
        <ele>1182.4</ele>
        <time>2022-06-26T07:29:08Z</time>
      </trkpt>
      <trkpt lat="42.9120900" lon="1.3945400">
        <ele>1183.5</ele>
        <time>2022-06-26T07:29:13Z</time>
      </trkpt>
      <trkpt lat="42.9121390" lon="1.3944910">
        <ele>1184.5</ele>
        <time>2022-06-26T07:29:17Z</time>
      </trkpt>
      <trkpt lat="42.9121640" lon="1.3944670">
        <ele>1185.1</ele>
        <time>2022-06-26T07:29:19Z</time>
      </trkpt>
      <trkpt lat="42.9122140" lon="1.3944320">
        <ele>1186.0</ele>
        <time>2022-06-26T07:29:23Z</time>
      </trkpt>
      <trkpt lat="42.9122370" lon="1.3944070">
        <ele>1186.5</ele>
        <time>2022-06-26T07:29:25Z</time>
      </trkpt>
      <trkpt lat="42.9122590" lon="1.3943810">
        <ele>1187.0</ele>
        <time>2022-06-26T07:29:27Z</time>
      </trkpt>
      <trkpt lat="42.9123520" lon="1.3942600">
        <ele>1189.1</ele>
        <time>2022-06-26T07:29:36Z</time>
      </trkpt>
      <trkpt lat="42.9124340" lon="1.3941570">
        <ele>1191.0</ele>
        <time>2022-06-26T07:29:44Z</time>
      </trkpt>
      <trkpt lat="42.9124470" lon="1.3941290">
        <ele>1191.4</ele>
        <time>2022-06-26T07:29:46Z</time>
      </trkpt>
      <trkpt lat="42.9124780" lon="1.3940870">
        <ele>1192.1</ele>
        <time>2022-06-26T07:29:50Z</time>
      </trkpt>
      <trkpt lat="42.9125040" lon="1.3940280">
        <ele>1192.9</ele>
        <time>2022-06-26T07:29:54Z</time>
      </trkpt>
      <trkpt lat="42.9125560" lon="1.3939230">
        <ele>1194.3</ele>
        <time>2022-06-26T07:30:01Z</time>
      </trkpt>
      <trkpt lat="42.9125610" lon="1.3939100">
        <ele>1194.5</ele>
        <time>2022-06-26T07:30:02Z</time>
      </trkpt>
      <trkpt lat="42.9128240" lon="1.3935070">
        <ele>1200.0</ele>
        <time>2022-06-26T07:30:37Z</time>
      </trkpt>
      <trkpt lat="42.9128680" lon="1.3934670">
        <ele>1200.8</ele>
        <time>2022-06-26T07:30:41Z</time>
      </trkpt>
      <trkpt lat="42.9128910" lon="1.3934530">
        <ele>1201.1</ele>
        <time>2022-06-26T07:30:43Z</time>
      </trkpt>
      <trkpt lat="42.9129130" lon="1.3934400">
        <ele>1201.4</ele>
        <time>2022-06-26T07:30:45Z</time>
      </trkpt>
      <trkpt lat="42.9129440" lon="1.3934110">
        <ele>1201.9</ele>
        <time>2022-06-26T07:30:48Z</time>
      </trkpt>
      <trkpt lat="42.9129550" lon="1.3934060">
        <ele>1202.1</ele>
        <time>2022-06-26T07:30:49Z</time>
      </trkpt>
      <trkpt lat="42.9129650" lon="1.3933990">
        <ele>1202.2</ele>
        <time>2022-06-26T07:30:50Z</time>
      </trkpt>
      <trkpt lat="42.9131390" lon="1.3932870">
        <ele>1204.8</ele>
        <time>2022-06-26T07:31:06Z</time>
      </trkpt>
      <trkpt lat="42.9131620" lon="1.3932750">
        <ele>1205.1</ele>
        <time>2022-06-26T07:31:08Z</time>
      </trkpt>
      <trkpt lat="42.9131820" lon="1.3932540">
        <ele>1205.5</ele>
        <time>2022-06-26T07:31:10Z</time>
      </trkpt>
      <trkpt lat="42.9132040" lon="1.3932360">
        <ele>1205.8</ele>
        <time>2022-06-26T07:31:12Z</time>
      </trkpt>
      <trkpt lat="42.9132290" lon="1.3932180">
        <ele>1206.2</ele>
        <time>2022-06-26T07:31:14Z</time>
      </trkpt>
      <trkpt lat="42.9132680" lon="1.3931920">
        <ele>1206.7</ele>
        <time>2022-06-26T07:31:17Z</time>
      </trkpt>
      <trkpt lat="42.9133170" lon="1.3931810">
        <ele>1207.4</ele>
        <time>2022-06-26T07:31:21Z</time>
      </trkpt>
      <trkpt lat="42.9133290" lon="1.3931760">
        <ele>1207.5</ele>
        <time>2022-06-26T07:31:22Z</time>
      </trkpt>
      <trkpt lat="42.9133980" lon="1.3931310">
        <ele>1208.6</ele>
        <time>2022-06-26T07:31:27Z</time>
      </trkpt>
      <trkpt lat="42.9134090" lon="1.3931180">
        <ele>1208.8</ele>
        <time>2022-06-26T07:31:28Z</time>
      </trkpt>
      <trkpt lat="42.9134840" lon="1.3930670">
        <ele>1209.9</ele>
        <time>2022-06-26T07:31:34Z</time>
      </trkpt>
      <trkpt lat="42.9135100" lon="1.3930400">
        <ele>1210.4</ele>
        <time>2022-06-26T07:31:36Z</time>
      </trkpt>
      <trkpt lat="42.9135230" lon="1.3930250">
        <ele>1210.6</ele>
        <time>2022-06-26T07:31:37Z</time>
      </trkpt>
      <trkpt lat="42.9135690" lon="1.3929970">
        <ele>1211.2</ele>
        <time>2022-06-26T07:31:40Z</time>
      </trkpt>
      <trkpt lat="42.9136140" lon="1.3929760">
        <ele>1211.8</ele>
        <time>2022-06-26T07:31:43Z</time>
      </trkpt>
      <trkpt lat="42.9136550" lon="1.3929520">
        <ele>1212.3</ele>
        <time>2022-06-26T07:31:46Z</time>
      </trkpt>
      <trkpt lat="42.9137210" lon="1.3929060">
        <ele>1213.2</ele>
        <time>2022-06-26T07:31:50Z</time>
      </trkpt>
      <trkpt lat="42.9138540" lon="1.3928490">
        <ele>1214.9</ele>
        <time>2022-06-26T07:31:58Z</time>
      </trkpt>
      <trkpt lat="42.9139600" lon="1.3927730">
        <ele>1216.3</ele>
        <time>2022-06-26T07:32:06Z</time>
      </trkpt>
      <trkpt lat="42.9140440" lon="1.3927030">
        <ele>1217.5</ele>
        <time>2022-06-26T07:32:11Z</time>
      </trkpt>
      <trkpt lat="42.9140830" lon="1.3926600">
        <ele>1218.2</ele>
        <time>2022-06-26T07:32:15Z</time>
      </trkpt>
      <trkpt lat="42.9141320" lon="1.3926080">
        <ele>1218.9</ele>
        <time>2022-06-26T07:32:18Z</time>
      </trkpt>
      <trkpt lat="42.9141570" lon="1.3925880">
        <ele>1219.3</ele>
        <time>2022-06-26T07:32:20Z</time>
      </trkpt>
      <trkpt lat="42.9141650" lon="1.3925680">
        <ele>1219.5</ele>
        <time>2022-06-26T07:32:21Z</time>
      </trkpt>
      <trkpt lat="42.9141920" lon="1.3925410">
        <ele>1220.0</ele>
        <time>2022-06-26T07:32:23Z</time>
      </trkpt>
      <trkpt lat="42.9142170" lon="1.3925120">
        <ele>1220.4</ele>
        <time>2022-06-26T07:32:26Z</time>
      </trkpt>
      <trkpt lat="42.9142390" lon="1.3924800">
        <ele>1220.8</ele>
        <time>2022-06-26T07:32:27Z</time>
      </trkpt>
      <trkpt lat="42.9142620" lon="1.3924440">
        <ele>1221.2</ele>
        <time>2022-06-26T07:32:29Z</time>
      </trkpt>
      <trkpt lat="42.9142930" lon="1.3923920">
        <ele>1221.9</ele>
        <time>2022-06-26T07:32:32Z</time>
      </trkpt>
      <trkpt lat="42.9143220" lon="1.3923300">
        <ele>1222.5</ele>
        <time>2022-06-26T07:32:35Z</time>
      </trkpt>
      <trkpt lat="42.9143320" lon="1.3923110">
        <ele>1222.7</ele>
        <time>2022-06-26T07:32:37Z</time>
      </trkpt>
      <trkpt lat="42.9143530" lon="1.3922730">
        <ele>1223.1</ele>
        <time>2022-06-26T07:32:39Z</time>
      </trkpt>
      <trkpt lat="42.9143850" lon="1.3921800">
        <ele>1224.0</ele>
        <time>2022-06-26T07:32:42Z</time>
      </trkpt>
      <trkpt lat="42.9144230" lon="1.3920840">
        <ele>1224.9</ele>
        <time>2022-06-26T07:32:46Z</time>
      </trkpt>
      <trkpt lat="42.9144410" lon="1.3920300">
        <ele>1225.4</ele>
        <time>2022-06-26T07:32:49Z</time>
      </trkpt>
      <trkpt lat="42.9144750" lon="1.3919440">
        <ele>1226.1</ele>
        <time>2022-06-26T07:32:53Z</time>
      </trkpt>
      <trkpt lat="42.9144930" lon="1.3918940">
        <ele>1226.6</ele>
        <time>2022-06-26T07:32:54Z</time>
      </trkpt>
      <trkpt lat="42.9145120" lon="1.3917800">
        <ele>1227.5</ele>
        <time>2022-06-26T07:32:58Z</time>
      </trkpt>
      <trkpt lat="42.9145200" lon="1.3917240">
        <ele>1227.9</ele>
        <time>2022-06-26T07:33:01Z</time>
      </trkpt>
      <trkpt lat="42.9145210" lon="1.3916730">
        <ele>1228.3</ele>
        <time>2022-06-26T07:33:03Z</time>
      </trkpt>
      <trkpt lat="42.9145310" lon="1.3915690">
        <ele>1229.1</ele>
        <time>2022-06-26T07:33:07Z</time>
      </trkpt>
      <trkpt lat="42.9145370" lon="1.3914810">
        <ele>1229.8</ele>
        <time>2022-06-26T07:33:10Z</time>
      </trkpt>
      <trkpt lat="42.9145470" lon="1.3914220">
        <ele>1230.2</ele>
        <time>2022-06-26T07:33:11Z</time>
      </trkpt>
      <trkpt lat="42.9145780" lon="1.3913090">
        <ele>1231.2</ele>
        <time>2022-06-26T07:33:15Z</time>
      </trkpt>
      <trkpt lat="42.9146070" lon="1.3912330">
        <ele>1231.9</ele>
        <time>2022-06-26T07:33:18Z</time>
      </trkpt>
      <trkpt lat="42.9146300" lon="1.3911870">
        <ele>1232.4</ele>
        <time>2022-06-26T07:33:20Z</time>
      </trkpt>
      <trkpt lat="42.9146830" lon="1.3911000">
        <ele>1233.4</ele>
        <time>2022-06-26T07:33:24Z</time>
      </trkpt>
      <trkpt lat="42.9147270" lon="1.3910410">
        <ele>1234.0</ele>
        <time>2022-06-26T07:33:27Z</time>
      </trkpt>
      <trkpt lat="42.9147510" lon="1.3910050">
        <ele>1234.4</ele>
        <time>2022-06-26T07:33:29Z</time>
      </trkpt>
      <trkpt lat="42.9148070" lon="1.3909530">
        <ele>1235.1</ele>
        <time>2022-06-26T07:33:33Z</time>
      </trkpt>
      <trkpt lat="42.9148410" lon="1.3909190">
        <ele>1235.5</ele>
        <time>2022-06-26T07:33:35Z</time>
      </trkpt>
      <trkpt lat="42.9148580" lon="1.3909110">
        <ele>1235.7</ele>
        <time>2022-06-26T07:33:36Z</time>
      </trkpt>
      <trkpt lat="42.9148840" lon="1.3908870">
        <ele>1236.0</ele>
        <time>2022-06-26T07:33:38Z</time>
      </trkpt>
      <trkpt lat="42.9148950" lon="1.3908710">
        <ele>1236.1</ele>
        <time>2022-06-26T07:33:39Z</time>
      </trkpt>
      <trkpt lat="42.9149240" lon="1.3908460">
        <ele>1236.5</ele>
        <time>2022-06-26T07:33:41Z</time>
      </trkpt>
      <trkpt lat="42.9149530" lon="1.3908320">
        <ele>1236.7</ele>
        <time>2022-06-26T07:33:44Z</time>
      </trkpt>
      <trkpt lat="42.9150050" lon="1.3908010">
        <ele>1237.3</ele>
        <time>2022-06-26T07:33:46Z</time>
      </trkpt>
      <trkpt lat="42.9150750" lon="1.3907650">
        <ele>1238.0</ele>
        <time>2022-06-26T07:33:50Z</time>
      </trkpt>
      <trkpt lat="42.9151290" lon="1.3907020">
        <ele>1238.7</ele>
        <time>2022-06-26T07:33:54Z</time>
      </trkpt>
      <trkpt lat="42.9151750" lon="1.3906670">
        <ele>1239.2</ele>
        <time>2022-06-26T07:33:58Z</time>
      </trkpt>
      <trkpt lat="42.9152440" lon="1.3906110">
        <ele>1240.0</ele>
        <time>2022-06-26T07:34:02Z</time>
      </trkpt>
      <trkpt lat="42.9152590" lon="1.3905980">
        <ele>1240.1</ele>
        <time>2022-06-26T07:34:03Z</time>
      </trkpt>
      <trkpt lat="42.9153070" lon="1.3905640">
        <ele>1240.7</ele>
        <time>2022-06-26T07:34:06Z</time>
      </trkpt>
      <trkpt lat="42.9153500" lon="1.3905220">
        <ele>1241.4</ele>
        <time>2022-06-26T07:34:10Z</time>
      </trkpt>
      <trkpt lat="42.9153790" lon="1.3904930">
        <ele>1241.8</ele>
        <time>2022-06-26T07:34:11Z</time>
      </trkpt>
      <trkpt lat="42.9154250" lon="1.3904490">
        <ele>1242.5</ele>
        <time>2022-06-26T07:34:14Z</time>
      </trkpt>
      <trkpt lat="42.9154700" lon="1.3904010">
        <ele>1243.3</ele>
        <time>2022-06-26T07:34:18Z</time>
      </trkpt>
      <trkpt lat="42.9155450" lon="1.3903040">
        <ele>1244.7</ele>
        <time>2022-06-26T07:34:23Z</time>
      </trkpt>
      <trkpt lat="42.9155570" lon="1.3902830">
        <ele>1245.0</ele>
        <time>2022-06-26T07:34:24Z</time>
      </trkpt>
      <trkpt lat="42.9155890" lon="1.3902270">
        <ele>1245.7</ele>
        <time>2022-06-26T07:34:27Z</time>
      </trkpt>
      <trkpt lat="42.9156170" lon="1.3901710">
        <ele>1246.4</ele>
        <time>2022-06-26T07:34:30Z</time>
      </trkpt>
      <trkpt lat="42.9156280" lon="1.3901510">
        <ele>1246.6</ele>
        <time>2022-06-26T07:34:31Z</time>
      </trkpt>
      <trkpt lat="42.9156280" lon="1.3901510">
        <ele>1246.6</ele>
        <time>2022-06-26T07:34:32Z</time>
      </trkpt>
      <trkpt lat="42.9156660" lon="1.3900180">
        <ele>1248.0</ele>
        <time>2022-06-26T07:34:36Z</time>
      </trkpt>
      <trkpt lat="42.9156810" lon="1.3899220">
        <ele>1248.9</ele>
        <time>2022-06-26T07:34:39Z</time>
      </trkpt>
      <trkpt lat="42.9156810" lon="1.3899220">
        <ele>1248.9</ele>
        <time>2022-06-26T07:34:40Z</time>
      </trkpt>
      <trkpt lat="42.9156990" lon="1.3897610">
        <ele>1250.3</ele>
        <time>2022-06-26T07:34:45Z</time>
      </trkpt>
      <trkpt lat="42.9156990" lon="1.3897610">
        <ele>1250.3</ele>
        <time>2022-06-26T07:34:46Z</time>
      </trkpt>
      <trkpt lat="42.9157230" lon="1.3896140">
        <ele>1251.7</ele>
        <time>2022-06-26T07:34:51Z</time>
      </trkpt>
      <trkpt lat="42.9157450" lon="1.3895250">
        <ele>1252.6</ele>
        <time>2022-06-26T07:34:53Z</time>
      </trkpt>
      <trkpt lat="42.9157580" lon="1.3894690">
        <ele>1253.1</ele>
        <time>2022-06-26T07:34:56Z</time>
      </trkpt>
      <trkpt lat="42.9157960" lon="1.3893780">
        <ele>1254.0</ele>
        <time>2022-06-26T07:35:00Z</time>
      </trkpt>
      <trkpt lat="42.9158260" lon="1.3893480">
        <ele>1254.4</ele>
        <time>2022-06-26T07:35:02Z</time>
      </trkpt>
      <trkpt lat="42.9158810" lon="1.3892950">
        <ele>1255.1</ele>
        <time>2022-06-26T07:35:05Z</time>
      </trkpt>
      <trkpt lat="42.9159050" lon="1.3892650">
        <ele>1255.4</ele>
        <time>2022-06-26T07:35:07Z</time>
      </trkpt>
      <trkpt lat="42.9159050" lon="1.3892650">
        <ele>1255.4</ele>
        <time>2022-06-26T07:35:08Z</time>
      </trkpt>
      <trkpt lat="42.9159890" lon="1.3891940">
        <ele>1256.4</ele>
        <time>2022-06-26T07:35:12Z</time>
      </trkpt>
      <trkpt lat="42.9160310" lon="1.3891540">
        <ele>1256.9</ele>
        <time>2022-06-26T07:35:15Z</time>
      </trkpt>
      <trkpt lat="42.9160420" lon="1.3891330">
        <ele>1257.1</ele>
        <time>2022-06-26T07:35:16Z</time>
      </trkpt>
      <trkpt lat="42.9160570" lon="1.3891190">
        <ele>1257.2</ele>
        <time>2022-06-26T07:35:17Z</time>
      </trkpt>
      <trkpt lat="42.9161030" lon="1.3890740">
        <ele>1257.8</ele>
        <time>2022-06-26T07:35:20Z</time>
      </trkpt>
      <trkpt lat="42.9161180" lon="1.3890590">
        <ele>1257.9</ele>
        <time>2022-06-26T07:35:22Z</time>
      </trkpt>
      <trkpt lat="42.9161450" lon="1.3890390">
        <ele>1258.2</ele>
        <time>2022-06-26T07:35:24Z</time>
      </trkpt>
      <trkpt lat="42.9162170" lon="1.3889710">
        <ele>1259.1</ele>
        <time>2022-06-26T07:35:28Z</time>
      </trkpt>
      <trkpt lat="42.9162300" lon="1.3889580">
        <ele>1259.2</ele>
        <time>2022-06-26T07:35:29Z</time>
      </trkpt>
      <trkpt lat="42.9162830" lon="1.3889300">
        <ele>1259.8</ele>
        <time>2022-06-26T07:35:32Z</time>
      </trkpt>
      <trkpt lat="42.9163120" lon="1.3889100">
        <ele>1260.2</ele>
        <time>2022-06-26T07:35:35Z</time>
      </trkpt>
      <trkpt lat="42.9163410" lon="1.3888950">
        <ele>1260.5</ele>
        <time>2022-06-26T07:35:37Z</time>
      </trkpt>
      <trkpt lat="42.9163720" lon="1.3888740">
        <ele>1260.8</ele>
        <time>2022-06-26T07:35:38Z</time>
      </trkpt>
      <trkpt lat="42.9164200" lon="1.3888420">
        <ele>1261.4</ele>
        <time>2022-06-26T07:35:41Z</time>
      </trkpt>
      <trkpt lat="42.9164630" lon="1.3888230">
        <ele>1262.0</ele>
        <time>2022-06-26T07:35:44Z</time>
      </trkpt>
      <trkpt lat="42.9164810" lon="1.3888140">
        <ele>1262.2</ele>
        <time>2022-06-26T07:35:45Z</time>
      </trkpt>
      <trkpt lat="42.9165120" lon="1.3887940">
        <ele>1262.6</ele>
        <time>2022-06-26T07:35:47Z</time>
      </trkpt>
      <trkpt lat="42.9165260" lon="1.3887930">
        <ele>1262.8</ele>
        <time>2022-06-26T07:35:48Z</time>
      </trkpt>
      <trkpt lat="42.9165340" lon="1.3887860">
        <ele>1262.9</ele>
        <time>2022-06-26T07:35:49Z</time>
      </trkpt>
      <trkpt lat="42.9165580" lon="1.3887630">
        <ele>1263.3</ele>
        <time>2022-06-26T07:35:51Z</time>
      </trkpt>
      <trkpt lat="42.9165850" lon="1.3887370">
        <ele>1263.7</ele>
        <time>2022-06-26T07:35:54Z</time>
      </trkpt>
      <trkpt lat="42.9166720" lon="1.3886620">
        <ele>1265.1</ele>
        <time>2022-06-26T07:35:59Z</time>
      </trkpt>
      <trkpt lat="42.9166890" lon="1.3886410">
        <ele>1265.4</ele>
        <time>2022-06-26T07:36:00Z</time>
      </trkpt>
      <trkpt lat="42.9168030" lon="1.3884830">
        <ele>1267.5</ele>
        <time>2022-06-26T07:36:07Z</time>
      </trkpt>
      <trkpt lat="42.9168030" lon="1.3884830">
        <ele>1267.5</ele>
        <time>2022-06-26T07:36:08Z</time>
      </trkpt>
      <trkpt lat="42.9168430" lon="1.3883270">
        <ele>1269.0</ele>
        <time>2022-06-26T07:36:13Z</time>
      </trkpt>
      <trkpt lat="42.9168560" lon="1.3881270">
        <ele>1270.9</ele>
        <time>2022-06-26T07:36:20Z</time>
      </trkpt>
      <trkpt lat="42.9168700" lon="1.3880060">
        <ele>1272.1</ele>
        <time>2022-06-26T07:36:25Z</time>
      </trkpt>
      <trkpt lat="42.9169000" lon="1.3878440">
        <ele>1273.7</ele>
        <time>2022-06-26T07:36:31Z</time>
      </trkpt>
      <trkpt lat="42.9169260" lon="1.3877710">
        <ele>1274.5</ele>
        <time>2022-06-26T07:36:34Z</time>
      </trkpt>
      <trkpt lat="42.9169790" lon="1.3876950">
        <ele>1275.5</ele>
        <time>2022-06-26T07:36:38Z</time>
      </trkpt>
      <trkpt lat="42.9170390" lon="1.3876580">
        <ele>1276.1</ele>
        <time>2022-06-26T07:36:42Z</time>
      </trkpt>
      <trkpt lat="42.9170860" lon="1.3876640">
        <ele>1276.6</ele>
        <time>2022-06-26T07:36:45Z</time>
      </trkpt>
      <trkpt lat="42.9171220" lon="1.3876550">
        <ele>1276.9</ele>
        <time>2022-06-26T07:36:47Z</time>
      </trkpt>
      <trkpt lat="42.9171630" lon="1.3876230">
        <ele>1277.4</ele>
        <time>2022-06-26T07:36:50Z</time>
      </trkpt>
      <trkpt lat="42.9171810" lon="1.3876210">
        <ele>1277.5</ele>
        <time>2022-06-26T07:36:52Z</time>
      </trkpt>
      <trkpt lat="42.9172570" lon="1.3875940">
        <ele>1278.3</ele>
        <time>2022-06-26T07:36:57Z</time>
      </trkpt>
      <trkpt lat="42.9173230" lon="1.3875570">
        <ele>1279.0</ele>
        <time>2022-06-26T07:37:01Z</time>
      </trkpt>
      <trkpt lat="42.9174020" lon="1.3874800">
        <ele>1280.2</ele>
        <time>2022-06-26T07:37:06Z</time>
      </trkpt>
      <trkpt lat="42.9174720" lon="1.3874080">
        <ele>1281.3</ele>
        <time>2022-06-26T07:37:10Z</time>
      </trkpt>
      <trkpt lat="42.9174720" lon="1.3874080">
        <ele>1281.3</ele>
        <time>2022-06-26T07:37:11Z</time>
      </trkpt>
      <trkpt lat="42.9174880" lon="1.3873880">
        <ele>1281.5</ele>
        <time>2022-06-26T07:37:12Z</time>
      </trkpt>
      <trkpt lat="42.9175600" lon="1.3873060">
        <ele>1282.7</ele>
        <time>2022-06-26T07:37:16Z</time>
      </trkpt>
      <trkpt lat="42.9175720" lon="1.3872800">
        <ele>1283.0</ele>
        <time>2022-06-26T07:37:17Z</time>
      </trkpt>
      <trkpt lat="42.9176780" lon="1.3870600">
        <ele>1285.2</ele>
        <time>2022-06-26T07:37:26Z</time>
      </trkpt>
      <trkpt lat="42.9177340" lon="1.3868630">
        <ele>1286.7</ele>
        <time>2022-06-26T07:37:33Z</time>
      </trkpt>
      <trkpt lat="42.9177430" lon="1.3868400">
        <ele>1286.9</ele>
        <time>2022-06-26T07:37:34Z</time>
      </trkpt>
      <trkpt lat="42.9177870" lon="1.3867480">
        <ele>1287.7</ele>
        <time>2022-06-26T07:37:38Z</time>
      </trkpt>
      <trkpt lat="42.9178180" lon="1.3866760">
        <ele>1288.3</ele>
        <time>2022-06-26T07:37:41Z</time>
      </trkpt>
      <trkpt lat="42.9178410" lon="1.3866310">
        <ele>1288.7</ele>
        <time>2022-06-26T07:37:43Z</time>
      </trkpt>
      <trkpt lat="42.9179210" lon="1.3864800">
        <ele>1290.2</ele>
        <time>2022-06-26T07:37:50Z</time>
      </trkpt>
      <trkpt lat="42.9179430" lon="1.3864350">
        <ele>1290.6</ele>
        <time>2022-06-26T07:37:52Z</time>
      </trkpt>
      <trkpt lat="42.9180100" lon="1.3863270">
        <ele>1291.8</ele>
        <time>2022-06-26T07:37:58Z</time>
      </trkpt>
      <trkpt lat="42.9180210" lon="1.3863080">
        <ele>1292.0</ele>
        <time>2022-06-26T07:37:59Z</time>
      </trkpt>
      <trkpt lat="42.9180780" lon="1.3861760">
        <ele>1293.3</ele>
        <time>2022-06-26T07:38:05Z</time>
      </trkpt>
      <trkpt lat="42.9181020" lon="1.3861100">
        <ele>1293.9</ele>
        <time>2022-06-26T07:38:08Z</time>
      </trkpt>
      <trkpt lat="42.9181380" lon="1.3859880">
        <ele>1295.0</ele>
        <time>2022-06-26T07:38:14Z</time>
      </trkpt>
      <trkpt lat="42.9181590" lon="1.3859150">
        <ele>1295.7</ele>
        <time>2022-06-26T07:38:17Z</time>
      </trkpt>
      <trkpt lat="42.9182040" lon="1.3857360">
        <ele>1297.3</ele>
        <time>2022-06-26T07:38:25Z</time>
      </trkpt>
      <trkpt lat="42.9182050" lon="1.3856880">
        <ele>1297.7</ele>
        <time>2022-06-26T07:38:27Z</time>
      </trkpt>
      <trkpt lat="42.9182240" lon="1.3855980">
        <ele>1298.5</ele>
        <time>2022-06-26T07:38:31Z</time>
      </trkpt>
      <trkpt lat="42.9182590" lon="1.3854150">
        <ele>1300.1</ele>
        <time>2022-06-26T07:38:37Z</time>
      </trkpt>
      <trkpt lat="42.9182650" lon="1.3853910">
        <ele>1300.3</ele>
        <time>2022-06-26T07:38:38Z</time>
      </trkpt>
      <trkpt lat="42.9183390" lon="1.3851650">
        <ele>1302.5</ele>
        <time>2022-06-26T07:38:48Z</time>
      </trkpt>
      <trkpt lat="42.9183470" lon="1.3851440">
        <ele>1302.7</ele>
        <time>2022-06-26T07:38:50Z</time>
      </trkpt>
      <trkpt lat="42.9184260" lon="1.3849540">
        <ele>1304.7</ele>
        <time>2022-06-26T07:38:58Z</time>
      </trkpt>
      <trkpt lat="42.9184370" lon="1.3849340">
        <ele>1304.9</ele>
        <time>2022-06-26T07:38:59Z</time>
      </trkpt>
      <trkpt lat="42.9184870" lon="1.3847730">
        <ele>1306.6</ele>
        <time>2022-06-26T07:39:06Z</time>
      </trkpt>
      <trkpt lat="42.9185040" lon="1.3847300">
        <ele>1307.0</ele>
        <time>2022-06-26T07:39:08Z</time>
      </trkpt>
      <trkpt lat="42.9185310" lon="1.3846690">
        <ele>1307.7</ele>
        <time>2022-06-26T07:39:12Z</time>
      </trkpt>
      <trkpt lat="42.9185580" lon="1.3845810">
        <ele>1308.6</ele>
        <time>2022-06-26T07:39:16Z</time>
      </trkpt>
      <trkpt lat="42.9185580" lon="1.3844570">
        <ele>1309.7</ele>
        <time>2022-06-26T07:39:21Z</time>
      </trkpt>
      <trkpt lat="42.9185540" lon="1.3844070">
        <ele>1310.1</ele>
        <time>2022-06-26T07:39:23Z</time>
      </trkpt>
      <trkpt lat="42.9185390" lon="1.3843390">
        <ele>1310.7</ele>
        <time>2022-06-26T07:39:26Z</time>
      </trkpt>
      <trkpt lat="42.9185300" lon="1.3842770">
        <ele>1311.3</ele>
        <time>2022-06-26T07:39:29Z</time>
      </trkpt>
      <trkpt lat="42.9185250" lon="1.3842210">
        <ele>1311.8</ele>
        <time>2022-06-26T07:39:31Z</time>
      </trkpt>
      <trkpt lat="42.9185260" lon="1.3840800">
        <ele>1313.0</ele>
        <time>2022-06-26T07:39:36Z</time>
      </trkpt>
      <trkpt lat="42.9185450" lon="1.3839600">
        <ele>1314.2</ele>
        <time>2022-06-26T07:39:40Z</time>
      </trkpt>
      <trkpt lat="42.9185580" lon="1.3838150">
        <ele>1315.7</ele>
        <time>2022-06-26T07:39:45Z</time>
      </trkpt>
      <trkpt lat="42.9185600" lon="1.3837840">
        <ele>1316.0</ele>
        <time>2022-06-26T07:39:46Z</time>
      </trkpt>
      <trkpt lat="42.9186130" lon="1.3835900">
        <ele>1318.2</ele>
        <time>2022-06-26T07:39:53Z</time>
      </trkpt>
      <trkpt lat="42.9186320" lon="1.3835790">
        <ele>1318.5</ele>
        <time>2022-06-26T07:39:54Z</time>
      </trkpt>
      <trkpt lat="42.9186800" lon="1.3836180">
        <ele>1319.1</ele>
        <time>2022-06-26T07:39:57Z</time>
      </trkpt>
      <trkpt lat="42.9186770" lon="1.3837070">
        <ele>1319.6</ele>
        <time>2022-06-26T07:40:00Z</time>
      </trkpt>
      <trkpt lat="42.9186760" lon="1.3837320">
        <ele>1319.7</ele>
        <time>2022-06-26T07:40:01Z</time>
      </trkpt>
      <trkpt lat="42.9186700" lon="1.3837870">
        <ele>1320.0</ele>
        <time>2022-06-26T07:40:03Z</time>
      </trkpt>
      <trkpt lat="42.9186560" lon="1.3839260">
        <ele>1320.6</ele>
        <time>2022-06-26T07:40:08Z</time>
      </trkpt>
      <trkpt lat="42.9186600" lon="1.3839530">
        <ele>1320.7</ele>
        <time>2022-06-26T07:40:09Z</time>
      </trkpt>
      <trkpt lat="42.9186670" lon="1.3840040">
        <ele>1321.0</ele>
        <time>2022-06-26T07:40:11Z</time>
      </trkpt>
      <trkpt lat="42.9186860" lon="1.3840820">
        <ele>1321.3</ele>
        <time>2022-06-26T07:40:14Z</time>
      </trkpt>
      <trkpt lat="42.9187190" lon="1.3842350">
        <ele>1322.0</ele>
        <time>2022-06-26T07:40:21Z</time>
      </trkpt>
      <trkpt lat="42.9187740" lon="1.3843990">
        <ele>1322.9</ele>
        <time>2022-06-26T07:40:28Z</time>
      </trkpt>
      <trkpt lat="42.9187870" lon="1.3844500">
        <ele>1323.2</ele>
        <time>2022-06-26T07:40:30Z</time>
      </trkpt>
      <trkpt lat="42.9188030" lon="1.3845800">
        <ele>1323.9</ele>
        <time>2022-06-26T07:40:35Z</time>
      </trkpt>
      <trkpt lat="42.9188100" lon="1.3846370">
        <ele>1324.2</ele>
        <time>2022-06-26T07:40:37Z</time>
      </trkpt>
      <trkpt lat="42.9188320" lon="1.3847490">
        <ele>1325.0</ele>
        <time>2022-06-26T07:40:41Z</time>
      </trkpt>
      <trkpt lat="42.9188490" lon="1.3848610">
        <ele>1325.8</ele>
        <time>2022-06-26T07:40:45Z</time>
      </trkpt>
      <trkpt lat="42.9188450" lon="1.3849320">
        <ele>1326.4</ele>
        <time>2022-06-26T07:40:47Z</time>
      </trkpt>
      <trkpt lat="42.9188450" lon="1.3850930">
        <ele>1327.8</ele>
        <time>2022-06-26T07:40:52Z</time>
      </trkpt>
      <trkpt lat="42.9188450" lon="1.3851180">
        <ele>1328.0</ele>
        <time>2022-06-26T07:40:53Z</time>
      </trkpt>
      <trkpt lat="42.9188380" lon="1.3851840">
        <ele>1328.6</ele>
        <time>2022-06-26T07:40:57Z</time>
      </trkpt>
      <trkpt lat="42.9188070" lon="1.3857060">
        <ele>1332.9</ele>
        <time>2022-06-26T07:41:21Z</time>
      </trkpt>
      <trkpt lat="42.9188130" lon="1.3857410">
        <ele>1333.1</ele>
        <time>2022-06-26T07:41:22Z</time>
      </trkpt>
      <trkpt lat="42.9188350" lon="1.3859400">
        <ele>1334.6</ele>
        <time>2022-06-26T07:41:29Z</time>
      </trkpt>
      <trkpt lat="42.9188270" lon="1.3861260">
        <ele>1336.1</ele>
        <time>2022-06-26T07:41:34Z</time>
      </trkpt>
      <trkpt lat="42.9188430" lon="1.3863130">
        <ele>1337.5</ele>
        <time>2022-06-26T07:41:41Z</time>
      </trkpt>
      <trkpt lat="42.9188330" lon="1.3864860">
        <ele>1338.9</ele>
        <time>2022-06-26T07:41:47Z</time>
      </trkpt>
      <trkpt lat="42.9188090" lon="1.3866080">
        <ele>1340.0</ele>
        <time>2022-06-26T07:41:52Z</time>
      </trkpt>
      <trkpt lat="42.9187640" lon="1.3867330">
        <ele>1341.1</ele>
        <time>2022-06-26T07:41:55Z</time>
      </trkpt>
      <trkpt lat="42.9187330" lon="1.3868610">
        <ele>1342.2</ele>
        <time>2022-06-26T07:41:58Z</time>
      </trkpt>
      <trkpt lat="42.9186860" lon="1.3869880">
        <ele>1343.4</ele>
        <time>2022-06-26T07:42:02Z</time>
      </trkpt>
      <trkpt lat="42.9186730" lon="1.3870220">
        <ele>1343.8</ele>
        <time>2022-06-26T07:42:03Z</time>
      </trkpt>
      <trkpt lat="42.9186420" lon="1.3871090">
        <ele>1344.7</ele>
        <time>2022-06-26T07:42:07Z</time>
      </trkpt>
      <trkpt lat="42.9186250" lon="1.3872360">
        <ele>1345.9</ele>
        <time>2022-06-26T07:42:12Z</time>
      </trkpt>
      <trkpt lat="42.9186130" lon="1.3873100">
        <ele>1346.7</ele>
        <time>2022-06-26T07:42:16Z</time>
      </trkpt>
      <trkpt lat="42.9185990" lon="1.3873730">
        <ele>1347.4</ele>
        <time>2022-06-26T07:42:19Z</time>
      </trkpt>
      <trkpt lat="42.9185950" lon="1.3873940">
        <ele>1347.6</ele>
        <time>2022-06-26T07:42:20Z</time>
      </trkpt>
      <trkpt lat="42.9185740" lon="1.3874770">
        <ele>1348.4</ele>
        <time>2022-06-26T07:42:24Z</time>
      </trkpt>
      <trkpt lat="42.9185640" lon="1.3875150">
        <ele>1348.8</ele>
        <time>2022-06-26T07:42:26Z</time>
      </trkpt>
      <trkpt lat="42.9185570" lon="1.3875900">
        <ele>1349.5</ele>
        <time>2022-06-26T07:42:29Z</time>
      </trkpt>
      <trkpt lat="42.9185360" lon="1.3876810">
        <ele>1350.3</ele>
        <time>2022-06-26T07:42:31Z</time>
      </trkpt>
      <trkpt lat="42.9184920" lon="1.3878450">
        <ele>1351.8</ele>
        <time>2022-06-26T07:42:37Z</time>
      </trkpt>
      <trkpt lat="42.9184420" lon="1.3881070">
        <ele>1354.1</ele>
        <time>2022-06-26T07:42:45Z</time>
      </trkpt>
      <trkpt lat="42.9184340" lon="1.3881450">
        <ele>1354.4</ele>
        <time>2022-06-26T07:42:46Z</time>
      </trkpt>
      <trkpt lat="42.9184050" lon="1.3883030">
        <ele>1355.8</ele>
        <time>2022-06-26T07:42:51Z</time>
      </trkpt>
      <trkpt lat="42.9183920" lon="1.3884280">
        <ele>1357.0</ele>
        <time>2022-06-26T07:42:55Z</time>
      </trkpt>
      <trkpt lat="42.9183630" lon="1.3886020">
        <ele>1358.5</ele>
        <time>2022-06-26T07:43:01Z</time>
      </trkpt>
      <trkpt lat="42.9183530" lon="1.3886890">
        <ele>1359.3</ele>
        <time>2022-06-26T07:43:04Z</time>
      </trkpt>
      <trkpt lat="42.9183530" lon="1.3887470">
        <ele>1359.8</ele>
        <time>2022-06-26T07:43:06Z</time>
      </trkpt>
      <trkpt lat="42.9183550" lon="1.3888910">
        <ele>1361.1</ele>
        <time>2022-06-26T07:43:11Z</time>
      </trkpt>
      <trkpt lat="42.9183580" lon="1.3889500">
        <ele>1361.6</ele>
        <time>2022-06-26T07:43:13Z</time>
      </trkpt>
      <trkpt lat="42.9183710" lon="1.3891920">
        <ele>1362.9</ele>
        <time>2022-06-26T07:43:21Z</time>
      </trkpt>
      <trkpt lat="42.9183930" lon="1.3893410">
        <ele>1362.8</ele>
        <time>2022-06-26T07:43:27Z</time>
      </trkpt>
      <trkpt lat="42.9184220" lon="1.3894450">
        <ele>1362.6</ele>
        <time>2022-06-26T07:43:31Z</time>
      </trkpt>
      <trkpt lat="42.9184280" lon="1.3894730">
        <ele>1362.5</ele>
        <time>2022-06-26T07:43:32Z</time>
      </trkpt>
      <trkpt lat="42.9184460" lon="1.3895610">
        <ele>1362.3</ele>
        <time>2022-06-26T07:43:35Z</time>
      </trkpt>
      <trkpt lat="42.9184650" lon="1.3896030">
        <ele>1362.2</ele>
        <time>2022-06-26T07:43:37Z</time>
      </trkpt>
      <trkpt lat="42.9184760" lon="1.3895980">
        <ele>1362.2</ele>
        <time>2022-06-26T07:43:38Z</time>
      </trkpt>
      <trkpt lat="42.9184510" lon="1.3895250">
        <ele>1362.0</ele>
        <time>2022-06-26T07:43:41Z</time>
      </trkpt>
      <trkpt lat="42.9184310" lon="1.3895000">
        <ele>1361.9</ele>
        <time>2022-06-26T07:43:42Z</time>
      </trkpt>
      <trkpt lat="42.9183710" lon="1.3894040">
        <ele>1361.7</ele>
        <time>2022-06-26T07:43:46Z</time>
      </trkpt>
      <trkpt lat="42.9183600" lon="1.3893810">
        <ele>1361.6</ele>
        <time>2022-06-26T07:43:47Z</time>
      </trkpt>
      <trkpt lat="42.9183490" lon="1.3893470">
        <ele>1361.5</ele>
        <time>2022-06-26T07:43:50Z</time>
      </trkpt>
      <trkpt lat="42.9183780" lon="1.3894260">
        <ele>1361.3</ele>
        <time>2022-06-26T07:45:46Z</time>
      </trkpt>
      <trkpt lat="42.9184530" lon="1.3896270">
        <ele>1360.9</ele>
        <time>2022-06-26T07:45:51Z</time>
      </trkpt>
      <trkpt lat="42.9185170" lon="1.3898540">
        <ele>1360.4</ele>
        <time>2022-06-26T07:45:57Z</time>
      </trkpt>
      <trkpt lat="42.9185200" lon="1.3898720">
        <ele>1360.3</ele>
        <time>2022-06-26T07:45:59Z</time>
      </trkpt>
      <trkpt lat="42.9185200" lon="1.3899740">
        <ele>1360.1</ele>
        <time>2022-06-26T07:46:11Z</time>
      </trkpt>
      <trkpt lat="42.9185170" lon="1.3900160">
        <ele>1360.0</ele>
        <time>2022-06-26T07:46:12Z</time>
      </trkpt>
      <trkpt lat="42.9184970" lon="1.3901690">
        <ele>1359.8</ele>
        <time>2022-06-26T07:46:15Z</time>
      </trkpt>
      <trkpt lat="42.9184670" lon="1.3902820">
        <ele>1359.5</ele>
        <time>2022-06-26T07:46:17Z</time>
      </trkpt>
      <trkpt lat="42.9183790" lon="1.3907250">
        <ele>1358.7</ele>
        <time>2022-06-26T07:46:24Z</time>
      </trkpt>
      <trkpt lat="42.9183740" lon="1.3909310">
        <ele>1358.3</ele>
        <time>2022-06-26T07:46:27Z</time>
      </trkpt>
      <trkpt lat="42.9184000" lon="1.3910770">
        <ele>1358.0</ele>
        <time>2022-06-26T07:46:29Z</time>
      </trkpt>
      <trkpt lat="42.9184370" lon="1.3912220">
        <ele>1357.7</ele>
        <time>2022-06-26T07:46:31Z</time>
      </trkpt>
      <trkpt lat="42.9185400" lon="1.3915110">
        <ele>1357.0</ele>
        <time>2022-06-26T07:46:35Z</time>
      </trkpt>
      <trkpt lat="42.9185640" lon="1.3915820">
        <ele>1356.8</ele>
        <time>2022-06-26T07:46:36Z</time>
      </trkpt>
      <trkpt lat="42.9186440" lon="1.3918880">
        <ele>1356.0</ele>
        <time>2022-06-26T07:46:40Z</time>
      </trkpt>
      <trkpt lat="42.9186700" lon="1.3920520">
        <ele>1355.7</ele>
        <time>2022-06-26T07:46:42Z</time>
      </trkpt>
      <trkpt lat="42.9186850" lon="1.3923120">
        <ele>1355.2</ele>
        <time>2022-06-26T07:46:45Z</time>
      </trkpt>
      <trkpt lat="42.9186890" lon="1.3924040">
        <ele>1355.0</ele>
        <time>2022-06-26T07:46:46Z</time>
      </trkpt>
      <trkpt lat="42.9186910" lon="1.3924960">
        <ele>1354.8</ele>
        <time>2022-06-26T07:46:47Z</time>
      </trkpt>
      <trkpt lat="42.9186920" lon="1.3928710">
        <ele>1354.3</ele>
        <time>2022-06-26T07:46:51Z</time>
      </trkpt>
      <trkpt lat="42.9186640" lon="1.3932540">
        <ele>1353.7</ele>
        <time>2022-06-26T07:46:55Z</time>
      </trkpt>
      <trkpt lat="42.9186510" lon="1.3933460">
        <ele>1353.5</ele>
        <time>2022-06-26T07:46:56Z</time>
      </trkpt>
      <trkpt lat="42.9186070" lon="1.3937170">
        <ele>1352.8</ele>
        <time>2022-06-26T07:47:00Z</time>
      </trkpt>
      <trkpt lat="42.9185640" lon="1.3939970">
        <ele>1352.3</ele>
        <time>2022-06-26T07:47:03Z</time>
      </trkpt>
      <trkpt lat="42.9185320" lon="1.3941830">
        <ele>1352.0</ele>
        <time>2022-06-26T07:47:05Z</time>
      </trkpt>
      <trkpt lat="42.9185090" lon="1.3942740">
        <ele>1351.8</ele>
        <time>2022-06-26T07:47:06Z</time>
      </trkpt>
      <trkpt lat="42.9184420" lon="1.3944440">
        <ele>1351.4</ele>
        <time>2022-06-26T07:47:08Z</time>
      </trkpt>
      <trkpt lat="42.9183970" lon="1.3945180">
        <ele>1351.3</ele>
        <time>2022-06-26T07:47:09Z</time>
      </trkpt>
      <trkpt lat="42.9182900" lon="1.3946520">
        <ele>1350.9</ele>
        <time>2022-06-26T07:47:11Z</time>
      </trkpt>
      <trkpt lat="42.9182350" lon="1.3947190">
        <ele>1350.7</ele>
        <time>2022-06-26T07:47:12Z</time>
      </trkpt>
      <trkpt lat="42.9181350" lon="1.3948550">
        <ele>1350.4</ele>
        <time>2022-06-26T07:47:13Z</time>
      </trkpt>
      <trkpt lat="42.9180390" lon="1.3949940">
        <ele>1350.1</ele>
        <time>2022-06-26T07:47:16Z</time>
      </trkpt>
      <trkpt lat="42.9180000" lon="1.3950700">
        <ele>1350.0</ele>
        <time>2022-06-26T07:47:17Z</time>
      </trkpt>
      <trkpt lat="42.9179680" lon="1.3951530">
        <ele>1349.9</ele>
        <time>2022-06-26T07:47:18Z</time>
      </trkpt>
      <trkpt lat="42.9178940" lon="1.3954180">
        <ele>1349.5</ele>
        <time>2022-06-26T07:47:21Z</time>
      </trkpt>
      <trkpt lat="42.9178480" lon="1.3956000">
        <ele>1349.3</ele>
        <time>2022-06-26T07:47:23Z</time>
      </trkpt>
      <trkpt lat="42.9178090" lon="1.3957930">
        <ele>1349.0</ele>
        <time>2022-06-26T07:47:25Z</time>
      </trkpt>
      <trkpt lat="42.9177060" lon="1.3961620">
        <ele>1348.2</ele>
        <time>2022-06-26T07:47:29Z</time>
      </trkpt>
      <trkpt lat="42.9176760" lon="1.3962470">
        <ele>1348.1</ele>
        <time>2022-06-26T07:47:30Z</time>
      </trkpt>
      <trkpt lat="42.9176600" lon="1.3963450">
        <ele>1347.9</ele>
        <time>2022-06-26T07:47:31Z</time>
      </trkpt>
      <trkpt lat="42.9176350" lon="1.3966400">
        <ele>1347.3</ele>
        <time>2022-06-26T07:47:34Z</time>
      </trkpt>
      <trkpt lat="42.9176340" lon="1.3967350">
        <ele>1347.1</ele>
        <time>2022-06-26T07:47:35Z</time>
      </trkpt>
      <trkpt lat="42.9176490" lon="1.3969260">
        <ele>1346.7</ele>
        <time>2022-06-26T07:47:37Z</time>
      </trkpt>
      <trkpt lat="42.9176810" lon="1.3971220">
        <ele>1346.2</ele>
        <time>2022-06-26T07:47:39Z</time>
      </trkpt>
      <trkpt lat="42.9177250" lon="1.3975170">
        <ele>1345.2</ele>
        <time>2022-06-26T07:47:43Z</time>
      </trkpt>
      <trkpt lat="42.9177460" lon="1.3976170">
        <ele>1345.0</ele>
        <time>2022-06-26T07:47:44Z</time>
      </trkpt>
      <trkpt lat="42.9178240" lon="1.3979150">
        <ele>1344.3</ele>
        <time>2022-06-26T07:47:47Z</time>
      </trkpt>
      <trkpt lat="42.9179320" lon="1.3981960">
        <ele>1343.7</ele>
        <time>2022-06-26T07:47:50Z</time>
      </trkpt>
      <trkpt lat="42.9180590" lon="1.3984650">
        <ele>1343.0</ele>
        <time>2022-06-26T07:47:53Z</time>
      </trkpt>
      <trkpt lat="42.9181980" lon="1.3987220">
        <ele>1342.2</ele>
        <time>2022-06-26T07:47:56Z</time>
      </trkpt>
      <trkpt lat="42.9182440" lon="1.3988090">
        <ele>1341.9</ele>
        <time>2022-06-26T07:47:57Z</time>
      </trkpt>
      <trkpt lat="42.9184310" lon="1.3991700">
        <ele>1340.7</ele>
        <time>2022-06-26T07:48:01Z</time>
      </trkpt>
      <trkpt lat="42.9185860" lon="1.3994400">
        <ele>1339.7</ele>
        <time>2022-06-26T07:48:04Z</time>
      </trkpt>
      <trkpt lat="42.9187420" lon="1.3997240">
        <ele>1338.8</ele>
        <time>2022-06-26T07:48:06Z</time>
      </trkpt>
      <trkpt lat="42.9188250" lon="1.3999280">
        <ele>1338.4</ele>
        <time>2022-06-26T07:48:09Z</time>
      </trkpt>
      <trkpt lat="42.9188550" lon="1.4000380">
        <ele>1338.2</ele>
        <time>2022-06-26T07:48:10Z</time>
      </trkpt>
      <trkpt lat="42.9189080" lon="1.4003780">
        <ele>1337.6</ele>
        <time>2022-06-26T07:48:13Z</time>
      </trkpt>
      <trkpt lat="42.9189380" lon="1.4005970">
        <ele>1337.2</ele>
        <time>2022-06-26T07:48:15Z</time>
      </trkpt>
      <trkpt lat="42.9190220" lon="1.4010090">
        <ele>1336.2</ele>
        <time>2022-06-26T07:48:19Z</time>
      </trkpt>
      <trkpt lat="42.9190530" lon="1.4011100">
        <ele>1336.0</ele>
        <time>2022-06-26T07:48:20Z</time>
      </trkpt>
      <trkpt lat="42.9191630" lon="1.4014040">
        <ele>1335.3</ele>
        <time>2022-06-26T07:48:22Z</time>
      </trkpt>
      <trkpt lat="42.9192500" lon="1.4015870">
        <ele>1334.9</ele>
        <time>2022-06-26T07:48:25Z</time>
      </trkpt>
      <trkpt lat="42.9195040" lon="1.4022550">
        <ele>1333.2</ele>
        <time>2022-06-26T07:48:32Z</time>
      </trkpt>
      <trkpt lat="42.9197150" lon="1.4027370">
        <ele>1331.6</ele>
        <time>2022-06-26T07:48:37Z</time>
      </trkpt>
      <trkpt lat="42.9197710" lon="1.4028260">
        <ele>1331.4</ele>
        <time>2022-06-26T07:48:38Z</time>
      </trkpt>
      <trkpt lat="42.9200230" lon="1.4031450">
        <ele>1330.4</ele>
        <time>2022-06-26T07:48:42Z</time>
      </trkpt>
      <trkpt lat="42.9201340" lon="1.4033180">
        <ele>1330.0</ele>
        <time>2022-06-26T07:48:43Z</time>
      </trkpt>
      <trkpt lat="42.9202270" lon="1.4035010">
        <ele>1329.6</ele>
        <time>2022-06-26T07:48:46Z</time>
      </trkpt>
      <trkpt lat="42.9203020" lon="1.4036670">
        <ele>1329.3</ele>
        <time>2022-06-26T07:48:48Z</time>
      </trkpt>
      <trkpt lat="42.9205280" lon="1.4038460">
        <ele>1328.6</ele>
        <time>2022-06-26T07:48:51Z</time>
      </trkpt>
      <trkpt lat="42.9205630" lon="1.4038570">
        <ele>1328.5</ele>
        <time>2022-06-26T07:48:52Z</time>
      </trkpt>
      <trkpt lat="42.9205970" lon="1.4038680">
        <ele>1328.4</ele>
        <time>2022-06-26T07:48:53Z</time>
      </trkpt>
      <trkpt lat="42.9208130" lon="1.4038760">
        <ele>1327.8</ele>
        <time>2022-06-26T07:48:56Z</time>
      </trkpt>
      <trkpt lat="42.9210850" lon="1.4037720">
        <ele>1327.0</ele>
        <time>2022-06-26T07:49:00Z</time>
      </trkpt>
      <trkpt lat="42.9211470" lon="1.4037160">
        <ele>1326.7</ele>
        <time>2022-06-26T07:49:01Z</time>
      </trkpt>
      <trkpt lat="42.9213100" lon="1.4034930">
        <ele>1326.0</ele>
        <time>2022-06-26T07:49:04Z</time>
      </trkpt>
      <trkpt lat="42.9214080" lon="1.4032960">
        <ele>1325.5</ele>
        <time>2022-06-26T07:49:06Z</time>
      </trkpt>
      <trkpt lat="42.9214890" lon="1.4031120">
        <ele>1325.1</ele>
        <time>2022-06-26T07:49:08Z</time>
      </trkpt>
      <trkpt lat="42.9217590" lon="1.4025810">
        <ele>1323.6</ele>
        <time>2022-06-26T07:49:14Z</time>
      </trkpt>
      <trkpt lat="42.9221910" lon="1.4019250">
        <ele>1322.0</ele>
        <time>2022-06-26T07:49:21Z</time>
      </trkpt>
      <trkpt lat="42.9222420" lon="1.4018480">
        <ele>1321.8</ele>
        <time>2022-06-26T07:49:23Z</time>
      </trkpt>
      <trkpt lat="42.9223380" lon="1.4017160">
        <ele>1321.5</ele>
        <time>2022-06-26T07:49:25Z</time>
      </trkpt>
      <trkpt lat="42.9224350" lon="1.4016380">
        <ele>1321.3</ele>
        <time>2022-06-26T07:49:27Z</time>
      </trkpt>
      <trkpt lat="42.9225570" lon="1.4016340">
        <ele>1320.9</ele>
        <time>2022-06-26T07:49:30Z</time>
      </trkpt>
      <trkpt lat="42.9226300" lon="1.4017580">
        <ele>1320.4</ele>
        <time>2022-06-26T07:49:34Z</time>
      </trkpt>
      <trkpt lat="42.9227240" lon="1.4020630">
        <ele>1319.8</ele>
        <time>2022-06-26T07:49:39Z</time>
      </trkpt>
      <trkpt lat="42.9229240" lon="1.4025700">
        <ele>1318.9</ele>
        <time>2022-06-26T07:49:46Z</time>
      </trkpt>
      <trkpt lat="42.9230120" lon="1.4027980">
        <ele>1318.6</ele>
        <time>2022-06-26T07:49:49Z</time>
      </trkpt>
      <trkpt lat="42.9231220" lon="1.4030240">
        <ele>1318.1</ele>
        <time>2022-06-26T07:49:52Z</time>
      </trkpt>
      <trkpt lat="42.9234130" lon="1.4034660">
        <ele>1316.6</ele>
        <time>2022-06-26T07:49:58Z</time>
      </trkpt>
      <trkpt lat="42.9236620" lon="1.4037410">
        <ele>1315.5</ele>
        <time>2022-06-26T07:50:01Z</time>
      </trkpt>
      <trkpt lat="42.9237260" lon="1.4038070">
        <ele>1315.2</ele>
        <time>2022-06-26T07:50:03Z</time>
      </trkpt>
      <trkpt lat="42.9242000" lon="1.4042600">
        <ele>1313.5</ele>
        <time>2022-06-26T07:50:09Z</time>
      </trkpt>
      <trkpt lat="42.9242580" lon="1.4043360">
        <ele>1313.3</ele>
        <time>2022-06-26T07:50:10Z</time>
      </trkpt>
      <trkpt lat="42.9243960" lon="1.4045990">
        <ele>1312.8</ele>
        <time>2022-06-26T07:50:13Z</time>
      </trkpt>
      <trkpt lat="42.9244390" lon="1.4046900">
        <ele>1312.7</ele>
        <time>2022-06-26T07:50:14Z</time>
      </trkpt>
      <trkpt lat="42.9246850" lon="1.4051040">
        <ele>1311.8</ele>
        <time>2022-06-26T07:50:19Z</time>
      </trkpt>
      <trkpt lat="42.9250270" lon="1.4056550">
        <ele>1310.9</ele>
        <time>2022-06-26T07:50:27Z</time>
      </trkpt>
      <trkpt lat="42.9251260" lon="1.4057860">
        <ele>1310.7</ele>
        <time>2022-06-26T07:50:29Z</time>
      </trkpt>
      <trkpt lat="42.9252340" lon="1.4058650">
        <ele>1310.4</ele>
        <time>2022-06-26T07:50:31Z</time>
      </trkpt>
      <trkpt lat="42.9254220" lon="1.4058400">
        <ele>1309.9</ele>
        <time>2022-06-26T07:50:34Z</time>
      </trkpt>
      <trkpt lat="42.9254760" lon="1.4057990">
        <ele>1309.7</ele>
        <time>2022-06-26T07:50:35Z</time>
      </trkpt>
      <trkpt lat="42.9255880" lon="1.4057130">
        <ele>1309.3</ele>
        <time>2022-06-26T07:50:37Z</time>
      </trkpt>
      <trkpt lat="42.9256510" lon="1.4056810">
        <ele>1309.0</ele>
        <time>2022-06-26T07:50:38Z</time>
      </trkpt>
      <trkpt lat="42.9260030" lon="1.4055770">
        <ele>1307.8</ele>
        <time>2022-06-26T07:50:43Z</time>
      </trkpt>
      <trkpt lat="42.9262290" lon="1.4055140">
        <ele>1307.0</ele>
        <time>2022-06-26T07:50:45Z</time>
      </trkpt>
      <trkpt lat="42.9264450" lon="1.4053910">
        <ele>1306.3</ele>
        <time>2022-06-26T07:50:48Z</time>
      </trkpt>
      <trkpt lat="42.9266580" lon="1.4052250">
        <ele>1305.7</ele>
        <time>2022-06-26T07:50:52Z</time>
      </trkpt>
      <trkpt lat="42.9268100" lon="1.4051760">
        <ele>1305.2</ele>
        <time>2022-06-26T07:50:54Z</time>
      </trkpt>
      <trkpt lat="42.9271260" lon="1.4052020">
        <ele>1304.1</ele>
        <time>2022-06-26T07:50:57Z</time>
      </trkpt>
      <trkpt lat="42.9272050" lon="1.4052170">
        <ele>1303.8</ele>
        <time>2022-06-26T07:50:58Z</time>
      </trkpt>
      <trkpt lat="42.9274340" lon="1.4052450">
        <ele>1303.1</ele>
        <time>2022-06-26T07:51:01Z</time>
      </trkpt>
      <trkpt lat="42.9277490" lon="1.4053000">
        <ele>1302.0</ele>
        <time>2022-06-26T07:51:05Z</time>
      </trkpt>
      <trkpt lat="42.9282020" lon="1.4054410">
        <ele>1300.5</ele>
        <time>2022-06-26T07:51:11Z</time>
      </trkpt>
      <trkpt lat="42.9283580" lon="1.4056610">
        <ele>1299.8</ele>
        <time>2022-06-26T07:51:14Z</time>
      </trkpt>
      <trkpt lat="42.9284320" lon="1.4059550">
        <ele>1299.1</ele>
        <time>2022-06-26T07:51:17Z</time>
      </trkpt>
      <trkpt lat="42.9284430" lon="1.4060600">
        <ele>1298.9</ele>
        <time>2022-06-26T07:51:18Z</time>
      </trkpt>
      <trkpt lat="42.9284510" lon="1.4061590">
        <ele>1298.7</ele>
        <time>2022-06-26T07:51:19Z</time>
      </trkpt>
      <trkpt lat="42.9284600" lon="1.4062590">
        <ele>1298.5</ele>
        <time>2022-06-26T07:51:21Z</time>
      </trkpt>
      <trkpt lat="42.9284740" lon="1.4063520">
        <ele>1298.3</ele>
        <time>2022-06-26T07:51:22Z</time>
      </trkpt>
      <trkpt lat="42.9285650" lon="1.4065990">
        <ele>1297.7</ele>
        <time>2022-06-26T07:51:24Z</time>
      </trkpt>
      <trkpt lat="42.9286070" lon="1.4066270">
        <ele>1297.5</ele>
        <time>2022-06-26T07:51:25Z</time>
      </trkpt>
      <trkpt lat="42.9286490" lon="1.4066550">
        <ele>1297.4</ele>
        <time>2022-06-26T07:51:26Z</time>
      </trkpt>
      <trkpt lat="42.9287340" lon="1.4067120">
        <ele>1297.1</ele>
        <time>2022-06-26T07:51:27Z</time>
      </trkpt>
      <trkpt lat="42.9288740" lon="1.4067280">
        <ele>1296.7</ele>
        <time>2022-06-26T07:51:29Z</time>
      </trkpt>
      <trkpt lat="42.9290190" lon="1.4067110">
        <ele>1296.2</ele>
        <time>2022-06-26T07:51:31Z</time>
      </trkpt>
      <trkpt lat="42.9290910" lon="1.4066960">
        <ele>1296.0</ele>
        <time>2022-06-26T07:51:32Z</time>
      </trkpt>
      <trkpt lat="42.9292420" lon="1.4066760">
        <ele>1295.6</ele>
        <time>2022-06-26T07:51:34Z</time>
      </trkpt>
      <trkpt lat="42.9293200" lon="1.4066610">
        <ele>1295.3</ele>
        <time>2022-06-26T07:51:36Z</time>
      </trkpt>
      <trkpt lat="42.9296060" lon="1.4065770">
        <ele>1294.7</ele>
        <time>2022-06-26T07:51:39Z</time>
      </trkpt>
      <trkpt lat="42.9297370" lon="1.4064960">
        <ele>1294.4</ele>
        <time>2022-06-26T07:51:41Z</time>
      </trkpt>
      <trkpt lat="42.9299210" lon="1.4063320">
        <ele>1294.0</ele>
        <time>2022-06-26T07:51:45Z</time>
      </trkpt>
      <trkpt lat="42.9301330" lon="1.4062260">
        <ele>1293.3</ele>
        <time>2022-06-26T07:51:48Z</time>
      </trkpt>
      <trkpt lat="42.9302900" lon="1.4062140">
        <ele>1292.7</ele>
        <time>2022-06-26T07:51:50Z</time>
      </trkpt>
      <trkpt lat="42.9305180" lon="1.4062220">
        <ele>1292.0</ele>
        <time>2022-06-26T07:51:52Z</time>
      </trkpt>
      <trkpt lat="42.9309890" lon="1.4062970">
        <ele>1290.3</ele>
        <time>2022-06-26T07:51:58Z</time>
      </trkpt>
      <trkpt lat="42.9310690" lon="1.4063050">
        <ele>1290.0</ele>
        <time>2022-06-26T07:51:59Z</time>
      </trkpt>
      <trkpt lat="42.9314700" lon="1.4064430">
        <ele>1288.7</ele>
        <time>2022-06-26T07:52:04Z</time>
      </trkpt>
      <trkpt lat="42.9314700" lon="1.4064430">
        <ele>1288.7</ele>
        <time>2022-06-26T07:52:05Z</time>
      </trkpt>
      <trkpt lat="42.9319510" lon="1.4066090">
        <ele>1287.3</ele>
        <time>2022-06-26T07:52:11Z</time>
      </trkpt>
      <trkpt lat="42.9321970" lon="1.4066290">
        <ele>1286.5</ele>
        <time>2022-06-26T07:52:13Z</time>
      </trkpt>
      <trkpt lat="42.9323640" lon="1.4065870">
        <ele>1285.9</ele>
        <time>2022-06-26T07:52:15Z</time>
      </trkpt>
      <trkpt lat="42.9325260" lon="1.4065130">
        <ele>1285.3</ele>
        <time>2022-06-26T07:52:17Z</time>
      </trkpt>
      <trkpt lat="42.9327650" lon="1.4063720">
        <ele>1284.5</ele>
        <time>2022-06-26T07:52:20Z</time>
      </trkpt>
      <trkpt lat="42.9330080" lon="1.4062130">
        <ele>1283.6</ele>
        <time>2022-06-26T07:52:24Z</time>
      </trkpt>
      <trkpt lat="42.9333320" lon="1.4059930">
        <ele>1282.5</ele>
        <time>2022-06-26T07:52:28Z</time>
      </trkpt>
      <trkpt lat="42.9337530" lon="1.4058230">
        <ele>1281.3</ele>
        <time>2022-06-26T07:52:33Z</time>
      </trkpt>
      <trkpt lat="42.9343020" lon="1.4056810">
        <ele>1279.8</ele>
        <time>2022-06-26T07:52:39Z</time>
      </trkpt>
      <trkpt lat="42.9344780" lon="1.4054710">
        <ele>1279.0</ele>
        <time>2022-06-26T07:52:42Z</time>
      </trkpt>
      <trkpt lat="42.9346360" lon="1.4050470">
        <ele>1277.6</ele>
        <time>2022-06-26T07:52:46Z</time>
      </trkpt>
      <trkpt lat="42.9346580" lon="1.4049980">
        <ele>1277.4</ele>
        <time>2022-06-26T07:52:47Z</time>
      </trkpt>
      <trkpt lat="42.9346800" lon="1.4049490">
        <ele>1277.3</ele>
        <time>2022-06-26T07:52:48Z</time>
      </trkpt>
      <trkpt lat="42.9348650" lon="1.4047690">
        <ele>1276.5</ele>
        <time>2022-06-26T07:52:50Z</time>
      </trkpt>
      <trkpt lat="42.9351670" lon="1.4047960">
        <ele>1275.6</ele>
        <time>2022-06-26T07:52:54Z</time>
      </trkpt>
      <trkpt lat="42.9352400" lon="1.4048440">
        <ele>1275.3</ele>
        <time>2022-06-26T07:52:56Z</time>
      </trkpt>
      <trkpt lat="42.9353100" lon="1.4048940">
        <ele>1275.0</ele>
        <time>2022-06-26T07:52:57Z</time>
      </trkpt>
      <trkpt lat="42.9353730" lon="1.4049480">
        <ele>1274.7</ele>
        <time>2022-06-26T07:52:58Z</time>
      </trkpt>
      <trkpt lat="42.9357360" lon="1.4053070">
        <ele>1273.0</ele>
        <time>2022-06-26T07:53:04Z</time>
      </trkpt>
      <trkpt lat="42.9359540" lon="1.4056050">
        <ele>1271.9</ele>
        <time>2022-06-26T07:53:08Z</time>
      </trkpt>
      <trkpt lat="42.9359990" lon="1.4056940">
        <ele>1271.6</ele>
        <time>2022-06-26T07:53:09Z</time>
      </trkpt>
      <trkpt lat="42.9362600" lon="1.4062390">
        <ele>1270.4</ele>
        <time>2022-06-26T07:53:14Z</time>
      </trkpt>
      <trkpt lat="42.9363130" lon="1.4063190">
        <ele>1270.2</ele>
        <time>2022-06-26T07:53:15Z</time>
      </trkpt>
      <trkpt lat="42.9365920" lon="1.4066950">
        <ele>1269.5</ele>
        <time>2022-06-26T07:53:20Z</time>
      </trkpt>
      <trkpt lat="42.9366510" lon="1.4067720">
        <ele>1269.3</ele>
        <time>2022-06-26T07:53:21Z</time>
      </trkpt>
      <trkpt lat="42.9368080" lon="1.4070190">
        <ele>1269.0</ele>
        <time>2022-06-26T07:53:24Z</time>
      </trkpt>
      <trkpt lat="42.9369250" lon="1.4072950">
        <ele>1268.8</ele>
        <time>2022-06-26T07:53:27Z</time>
      </trkpt>
      <trkpt lat="42.9369600" lon="1.4073840">
        <ele>1268.7</ele>
        <time>2022-06-26T07:53:29Z</time>
      </trkpt>
      <trkpt lat="42.9370970" lon="1.4076390">
        <ele>1268.5</ele>
        <time>2022-06-26T07:53:31Z</time>
      </trkpt>
      <trkpt lat="42.9372660" lon="1.4078680">
        <ele>1268.1</ele>
        <time>2022-06-26T07:53:34Z</time>
      </trkpt>
      <trkpt lat="42.9374700" lon="1.4080580">
        <ele>1267.4</ele>
        <time>2022-06-26T07:53:37Z</time>
      </trkpt>
      <trkpt lat="42.9376240" lon="1.4081480">
        <ele>1266.9</ele>
        <time>2022-06-26T07:53:39Z</time>
      </trkpt>
      <trkpt lat="42.9378580" lon="1.4082430">
        <ele>1266.1</ele>
        <time>2022-06-26T07:53:42Z</time>
      </trkpt>
      <trkpt lat="42.9380190" lon="1.4082730">
        <ele>1265.4</ele>
        <time>2022-06-26T07:53:44Z</time>
      </trkpt>
      <trkpt lat="42.9382680" lon="1.4082590">
        <ele>1264.3</ele>
        <time>2022-06-26T07:53:47Z</time>
      </trkpt>
      <trkpt lat="42.9383370" lon="1.4082250">
        <ele>1264.0</ele>
        <time>2022-06-26T07:53:48Z</time>
      </trkpt>
      <trkpt lat="42.9385740" lon="1.4080810">
        <ele>1262.9</ele>
        <time>2022-06-26T07:53:51Z</time>
      </trkpt>
      <trkpt lat="42.9386530" lon="1.4080170">
        <ele>1262.5</ele>
        <time>2022-06-26T07:53:53Z</time>
      </trkpt>
      <trkpt lat="42.9391280" lon="1.4076590">
        <ele>1260.4</ele>
        <time>2022-06-26T07:53:58Z</time>
      </trkpt>
      <trkpt lat="42.9392870" lon="1.4075280">
        <ele>1259.6</ele>
        <time>2022-06-26T07:54:00Z</time>
      </trkpt>
      <trkpt lat="42.9397510" lon="1.4071040">
        <ele>1257.3</ele>
        <time>2022-06-26T07:54:07Z</time>
      </trkpt>
      <trkpt lat="42.9398500" lon="1.4070620">
        <ele>1257.0</ele>
        <time>2022-06-26T07:54:08Z</time>
      </trkpt>
      <trkpt lat="42.9402440" lon="1.4068960">
        <ele>1255.4</ele>
        <time>2022-06-26T07:54:12Z</time>
      </trkpt>
      <trkpt lat="42.9403290" lon="1.4069160">
        <ele>1255.1</ele>
        <time>2022-06-26T07:54:14Z</time>
      </trkpt>
      <trkpt lat="42.9404140" lon="1.4069480">
        <ele>1254.8</ele>
        <time>2022-06-26T07:54:15Z</time>
      </trkpt>
      <trkpt lat="42.9404970" lon="1.4069870">
        <ele>1254.5</ele>
        <time>2022-06-26T07:54:16Z</time>
      </trkpt>
      <trkpt lat="42.9410700" lon="1.4072270">
        <ele>1252.2</ele>
        <time>2022-06-26T07:54:22Z</time>
      </trkpt>
      <trkpt lat="42.9411540" lon="1.4072640">
        <ele>1251.8</ele>
        <time>2022-06-26T07:54:24Z</time>
      </trkpt>
      <trkpt lat="42.9417060" lon="1.4073990">
        <ele>1249.5</ele>
        <time>2022-06-26T07:54:29Z</time>
      </trkpt>
      <trkpt lat="42.9420790" lon="1.4073290">
        <ele>1248.1</ele>
        <time>2022-06-26T07:54:33Z</time>
      </trkpt>
      <trkpt lat="42.9425700" lon="1.4071990">
        <ele>1246.2</ele>
        <time>2022-06-26T07:54:38Z</time>
      </trkpt>
      <trkpt lat="42.9427650" lon="1.4072330">
        <ele>1245.4</ele>
        <time>2022-06-26T07:54:40Z</time>
      </trkpt>
      <trkpt lat="42.9429550" lon="1.4072950">
        <ele>1244.7</ele>
        <time>2022-06-26T07:54:42Z</time>
      </trkpt>
      <trkpt lat="42.9434170" lon="1.4075190">
        <ele>1242.8</ele>
        <time>2022-06-26T07:54:47Z</time>
      </trkpt>
      <trkpt lat="42.9437540" lon="1.4076510">
        <ele>1241.4</ele>
        <time>2022-06-26T07:54:51Z</time>
      </trkpt>
      <trkpt lat="42.9438360" lon="1.4076640">
        <ele>1241.2</ele>
        <time>2022-06-26T07:54:52Z</time>
      </trkpt>
      <trkpt lat="42.9439920" lon="1.4076570">
        <ele>1240.7</ele>
        <time>2022-06-26T07:54:55Z</time>
      </trkpt>
      <trkpt lat="42.9441230" lon="1.4075840">
        <ele>1240.2</ele>
        <time>2022-06-26T07:54:56Z</time>
      </trkpt>
      <trkpt lat="42.9442810" lon="1.4073680">
        <ele>1239.5</ele>
        <time>2022-06-26T07:54:59Z</time>
      </trkpt>
      <trkpt lat="42.9443250" lon="1.4072820">
        <ele>1239.2</ele>
        <time>2022-06-26T07:55:00Z</time>
      </trkpt>
      <trkpt lat="42.9444240" lon="1.4071430">
        <ele>1238.7</ele>
        <time>2022-06-26T07:55:02Z</time>
      </trkpt>
      <trkpt lat="42.9444840" lon="1.4070990">
        <ele>1238.4</ele>
        <time>2022-06-26T07:55:03Z</time>
      </trkpt>
      <trkpt lat="42.9445150" lon="1.4070880">
        <ele>1238.3</ele>
        <time>2022-06-26T07:55:04Z</time>
      </trkpt>
      <trkpt lat="42.9445460" lon="1.4070760">
        <ele>1238.2</ele>
        <time>2022-06-26T07:55:05Z</time>
      </trkpt>
      <trkpt lat="42.9446650" lon="1.4071020">
        <ele>1237.9</ele>
        <time>2022-06-26T07:55:07Z</time>
      </trkpt>
      <trkpt lat="42.9447170" lon="1.4071370">
        <ele>1237.3</ele>
        <time>2022-06-26T07:55:08Z</time>
      </trkpt>
      <trkpt lat="42.9448360" lon="1.4073150">
        <ele>1236.5</ele>
        <time>2022-06-26T07:55:11Z</time>
      </trkpt>
      <trkpt lat="42.9448520" lon="1.4075790">
        <ele>1235.7</ele>
        <time>2022-06-26T07:55:14Z</time>
      </trkpt>
      <trkpt lat="42.9448470" lon="1.4076620">
        <ele>1235.5</ele>
        <time>2022-06-26T07:55:15Z</time>
      </trkpt>
      <trkpt lat="42.9448670" lon="1.4079550">
        <ele>1234.6</ele>
        <time>2022-06-26T07:55:18Z</time>
      </trkpt>
      <trkpt lat="42.9448860" lon="1.4080590">
        <ele>1234.2</ele>
        <time>2022-06-26T07:55:19Z</time>
      </trkpt>
      <trkpt lat="42.9449840" lon="1.4083390">
        <ele>1233.0</ele>
        <time>2022-06-26T07:55:22Z</time>
      </trkpt>
      <trkpt lat="42.9450880" lon="1.4085010">
        <ele>1232.0</ele>
        <time>2022-06-26T07:55:24Z</time>
      </trkpt>
      <trkpt lat="42.9452110" lon="1.4086620">
        <ele>1230.9</ele>
        <time>2022-06-26T07:55:26Z</time>
      </trkpt>
      <trkpt lat="42.9456170" lon="1.4091360">
        <ele>1228.2</ele>
        <time>2022-06-26T07:55:32Z</time>
      </trkpt>
      <trkpt lat="42.9459150" lon="1.4096160">
        <ele>1225.6</ele>
        <time>2022-06-26T07:55:37Z</time>
      </trkpt>
      <trkpt lat="42.9461560" lon="1.4102240">
        <ele>1222.6</ele>
        <time>2022-06-26T07:55:42Z</time>
      </trkpt>
      <trkpt lat="42.9463230" lon="1.4109270">
        <ele>1219.2</ele>
        <time>2022-06-26T07:55:47Z</time>
      </trkpt>
      <trkpt lat="42.9463600" lon="1.4110720">
        <ele>1218.4</ele>
        <time>2022-06-26T07:55:48Z</time>
      </trkpt>
      <trkpt lat="42.9465080" lon="1.4116470">
        <ele>1215.1</ele>
        <time>2022-06-26T07:55:52Z</time>
      </trkpt>
      <trkpt lat="42.9466160" lon="1.4121420">
        <ele>1212.4</ele>
        <time>2022-06-26T07:55:56Z</time>
      </trkpt>
      <trkpt lat="42.9466100" lon="1.4125030">
        <ele>1210.8</ele>
        <time>2022-06-26T07:55:59Z</time>
      </trkpt>
      <trkpt lat="42.9465720" lon="1.4127380">
        <ele>1209.7</ele>
        <time>2022-06-26T07:56:00Z</time>
      </trkpt>
      <trkpt lat="42.9465310" lon="1.4130820">
        <ele>1208.0</ele>
        <time>2022-06-26T07:56:04Z</time>
      </trkpt>
      <trkpt lat="42.9465840" lon="1.4134370">
        <ele>1206.1</ele>
        <time>2022-06-26T07:56:07Z</time>
      </trkpt>
      <trkpt lat="42.9467550" lon="1.4139300">
        <ele>1203.3</ele>
        <time>2022-06-26T07:56:11Z</time>
      </trkpt>
      <trkpt lat="42.9469310" lon="1.4145100">
        <ele>1200.2</ele>
        <time>2022-06-26T07:56:16Z</time>
      </trkpt>
      <trkpt lat="42.9469690" lon="1.4146010">
        <ele>1199.7</ele>
        <time>2022-06-26T07:56:17Z</time>
      </trkpt>
      <trkpt lat="42.9470620" lon="1.4147300">
        <ele>1198.8</ele>
        <time>2022-06-26T07:56:19Z</time>
      </trkpt>
      <trkpt lat="42.9471980" lon="1.4147880">
        <ele>1197.7</ele>
        <time>2022-06-26T07:56:21Z</time>
      </trkpt>
      <trkpt lat="42.9472790" lon="1.4148040">
        <ele>1197.1</ele>
        <time>2022-06-26T07:56:22Z</time>
      </trkpt>
      <trkpt lat="42.9473660" lon="1.4148150">
        <ele>1196.5</ele>
        <time>2022-06-26T07:56:23Z</time>
      </trkpt>
      <trkpt lat="42.9475410" lon="1.4148350">
        <ele>1195.2</ele>
        <time>2022-06-26T07:56:25Z</time>
      </trkpt>
      <trkpt lat="42.9478950" lon="1.4149610">
        <ele>1192.8</ele>
        <time>2022-06-26T07:56:29Z</time>
      </trkpt>
      <trkpt lat="42.9483170" lon="1.4152580">
        <ele>1190.5</ele>
        <time>2022-06-26T07:56:34Z</time>
      </trkpt>
      <trkpt lat="42.9488170" lon="1.4156500">
        <ele>1187.4</ele>
        <time>2022-06-26T07:56:40Z</time>
      </trkpt>
      <trkpt lat="42.9492900" lon="1.4160000">
        <ele>1184.1</ele>
        <time>2022-06-26T07:56:45Z</time>
      </trkpt>
      <trkpt lat="42.9497080" lon="1.4163120">
        <ele>1181.1</ele>
        <time>2022-06-26T07:56:49Z</time>
      </trkpt>
      <trkpt lat="42.9498090" lon="1.4164000">
        <ele>1180.3</ele>
        <time>2022-06-26T07:56:50Z</time>
      </trkpt>
      <trkpt lat="42.9501980" lon="1.4167770">
        <ele>1177.1</ele>
        <time>2022-06-26T07:56:54Z</time>
      </trkpt>
      <trkpt lat="42.9504860" lon="1.4170990">
        <ele>1174.3</ele>
        <time>2022-06-26T07:56:57Z</time>
      </trkpt>
      <trkpt lat="42.9507620" lon="1.4174260">
        <ele>1171.4</ele>
        <time>2022-06-26T07:57:00Z</time>
      </trkpt>
      <trkpt lat="42.9511540" lon="1.4177740">
        <ele>1168.0</ele>
        <time>2022-06-26T07:57:04Z</time>
      </trkpt>
      <trkpt lat="42.9513520" lon="1.4178980">
        <ele>1166.4</ele>
        <time>2022-06-26T07:57:06Z</time>
      </trkpt>
      <trkpt lat="42.9515330" lon="1.4180110">
        <ele>1164.9</ele>
        <time>2022-06-26T07:57:08Z</time>
      </trkpt>
      <trkpt lat="42.9518550" lon="1.4183210">
        <ele>1161.9</ele>
        <time>2022-06-26T07:57:12Z</time>
      </trkpt>
      <trkpt lat="42.9519250" lon="1.4184110">
        <ele>1161.2</ele>
        <time>2022-06-26T07:57:13Z</time>
      </trkpt>
      <trkpt lat="42.9522830" lon="1.4188740">
        <ele>1157.5</ele>
        <time>2022-06-26T07:57:18Z</time>
      </trkpt>
      <trkpt lat="42.9525180" lon="1.4191480">
        <ele>1155.0</ele>
        <time>2022-06-26T07:57:21Z</time>
      </trkpt>
      <trkpt lat="42.9526870" lon="1.4193270">
        <ele>1153.4</ele>
        <time>2022-06-26T07:57:23Z</time>
      </trkpt>
      <trkpt lat="42.9530760" lon="1.4196840">
        <ele>1149.2</ele>
        <time>2022-06-26T07:57:28Z</time>
      </trkpt>
      <trkpt lat="42.9532410" lon="1.4197380">
        <ele>1147.6</ele>
        <time>2022-06-26T07:57:30Z</time>
      </trkpt>
      <trkpt lat="42.9533300" lon="1.4197370">
        <ele>1146.7</ele>
        <time>2022-06-26T07:57:31Z</time>
      </trkpt>
      <trkpt lat="42.9534970" lon="1.4197100">
        <ele>1145.0</ele>
        <time>2022-06-26T07:57:33Z</time>
      </trkpt>
      <trkpt lat="42.9536410" lon="1.4196990">
        <ele>1143.3</ele>
        <time>2022-06-26T07:57:35Z</time>
      </trkpt>
      <trkpt lat="42.9537170" lon="1.4196940">
        <ele>1142.8</ele>
        <time>2022-06-26T07:57:36Z</time>
      </trkpt>
      <trkpt lat="42.9538480" lon="1.4197700">
        <ele>1141.8</ele>
        <time>2022-06-26T07:57:38Z</time>
      </trkpt>
      <trkpt lat="42.9539530" lon="1.4200730">
        <ele>1139.7</ele>
        <time>2022-06-26T07:57:41Z</time>
      </trkpt>
      <trkpt lat="42.9539680" lon="1.4202040">
        <ele>1138.8</ele>
        <time>2022-06-26T07:57:42Z</time>
      </trkpt>
      <trkpt lat="42.9539970" lon="1.4204040">
        <ele>1137.4</ele>
        <time>2022-06-26T07:57:43Z</time>
      </trkpt>
      <trkpt lat="42.9540100" lon="1.4204720">
        <ele>1137.0</ele>
        <time>2022-06-26T07:57:44Z</time>
      </trkpt>
      <trkpt lat="42.9540940" lon="1.4208820">
        <ele>1134.3</ele>
        <time>2022-06-26T07:57:47Z</time>
      </trkpt>
      <trkpt lat="42.9542090" lon="1.4212850">
        <ele>1131.9</ele>
        <time>2022-06-26T07:57:49Z</time>
      </trkpt>
      <trkpt lat="42.9542560" lon="1.4214170">
        <ele>1131.0</ele>
        <time>2022-06-26T07:57:50Z</time>
      </trkpt>
      <trkpt lat="42.9544090" lon="1.4217820">
        <ele>1128.3</ele>
        <time>2022-06-26T07:57:53Z</time>
      </trkpt>
      <trkpt lat="42.9544390" lon="1.4218350">
        <ele>1127.9</ele>
        <time>2022-06-26T07:57:54Z</time>
      </trkpt>
      <trkpt lat="42.9544680" lon="1.4218880">
        <ele>1127.4</ele>
        <time>2022-06-26T07:57:55Z</time>
      </trkpt>
      <trkpt lat="42.9546430" lon="1.4222060">
        <ele>1124.9</ele>
        <time>2022-06-26T07:57:58Z</time>
      </trkpt>
      <trkpt lat="42.9547570" lon="1.4225150">
        <ele>1122.8</ele>
        <time>2022-06-26T07:58:00Z</time>
      </trkpt>
      <trkpt lat="42.9547770" lon="1.4226320">
        <ele>1122.2</ele>
        <time>2022-06-26T07:58:01Z</time>
      </trkpt>
      <trkpt lat="42.9547800" lon="1.4230720">
        <ele>1119.5</ele>
        <time>2022-06-26T07:58:05Z</time>
      </trkpt>
      <trkpt lat="42.9547930" lon="1.4233760">
        <ele>1117.6</ele>
        <time>2022-06-26T07:58:08Z</time>
      </trkpt>
      <trkpt lat="42.9548090" lon="1.4234630">
        <ele>1117.0</ele>
        <time>2022-06-26T07:58:09Z</time>
      </trkpt>
      <trkpt lat="42.9548370" lon="1.4235340">
        <ele>1116.5</ele>
        <time>2022-06-26T07:58:10Z</time>
      </trkpt>
      <trkpt lat="42.9549220" lon="1.4236440">
        <ele>1115.4</ele>
        <time>2022-06-26T07:58:12Z</time>
      </trkpt>
      <trkpt lat="42.9550500" lon="1.4237040">
        <ele>1114.2</ele>
        <time>2022-06-26T07:58:15Z</time>
      </trkpt>
      <trkpt lat="42.9551750" lon="1.4237270">
        <ele>1113.2</ele>
        <time>2022-06-26T07:58:16Z</time>
      </trkpt>
      <trkpt lat="42.9554230" lon="1.4237720">
        <ele>1111.0</ele>
        <time>2022-06-26T07:58:18Z</time>
      </trkpt>
      <trkpt lat="42.9558380" lon="1.4239090">
        <ele>1107.1</ele>
        <time>2022-06-26T07:58:22Z</time>
      </trkpt>
      <trkpt lat="42.9559420" lon="1.4239410">
        <ele>1106.2</ele>
        <time>2022-06-26T07:58:23Z</time>
      </trkpt>
      <trkpt lat="42.9565100" lon="1.4241810">
        <ele>1101.3</ele>
        <time>2022-06-26T07:58:28Z</time>
      </trkpt>
      <trkpt lat="42.9566210" lon="1.4242320">
        <ele>1100.4</ele>
        <time>2022-06-26T07:58:29Z</time>
      </trkpt>
      <trkpt lat="42.9569280" lon="1.4244450">
        <ele>1097.5</ele>
        <time>2022-06-26T07:58:32Z</time>
      </trkpt>
      <trkpt lat="42.9570160" lon="1.4245120">
        <ele>1096.7</ele>
        <time>2022-06-26T07:58:33Z</time>
      </trkpt>
      <trkpt lat="42.9571760" lon="1.4246210">
        <ele>1095.2</ele>
        <time>2022-06-26T07:58:35Z</time>
      </trkpt>
      <trkpt lat="42.9572560" lon="1.4246590">
        <ele>1094.5</ele>
        <time>2022-06-26T07:58:36Z</time>
      </trkpt>
      <trkpt lat="42.9574970" lon="1.4246770">
        <ele>1092.5</ele>
        <time>2022-06-26T07:58:39Z</time>
      </trkpt>
      <trkpt lat="42.9577510" lon="1.4245850">
        <ele>1090.4</ele>
        <time>2022-06-26T07:58:42Z</time>
      </trkpt>
      <trkpt lat="42.9578350" lon="1.4245260">
        <ele>1089.5</ele>
        <time>2022-06-26T07:58:43Z</time>
      </trkpt>
      <trkpt lat="42.9580790" lon="1.4242890">
        <ele>1087.0</ele>
        <time>2022-06-26T07:58:46Z</time>
      </trkpt>
      <trkpt lat="42.9581550" lon="1.4241990">
        <ele>1086.2</ele>
        <time>2022-06-26T07:58:47Z</time>
      </trkpt>
      <trkpt lat="42.9584870" lon="1.4238620">
        <ele>1082.7</ele>
        <time>2022-06-26T07:58:52Z</time>
      </trkpt>
      <trkpt lat="42.9588890" lon="1.4235970">
        <ele>1079.0</ele>
        <time>2022-06-26T07:58:56Z</time>
      </trkpt>
      <trkpt lat="42.9591810" lon="1.4234690">
        <ele>1076.6</ele>
        <time>2022-06-26T07:58:59Z</time>
      </trkpt>
      <trkpt lat="42.9592820" lon="1.4234460">
        <ele>1075.7</ele>
        <time>2022-06-26T07:59:00Z</time>
      </trkpt>
      <trkpt lat="42.9595780" lon="1.4234230">
        <ele>1073.2</ele>
        <time>2022-06-26T07:59:02Z</time>
      </trkpt>
      <trkpt lat="42.9597650" lon="1.4234550">
        <ele>1071.6</ele>
        <time>2022-06-26T07:59:04Z</time>
      </trkpt>
      <trkpt lat="42.9599530" lon="1.4235160">
        <ele>1070.0</ele>
        <time>2022-06-26T07:59:06Z</time>
      </trkpt>
      <trkpt lat="42.9600450" lon="1.4235560">
        <ele>1069.2</ele>
        <time>2022-06-26T07:59:07Z</time>
      </trkpt>
      <trkpt lat="42.9601370" lon="1.4235970">
        <ele>1068.4</ele>
        <time>2022-06-26T07:59:09Z</time>
      </trkpt>
      <trkpt lat="42.9603160" lon="1.4237110">
        <ele>1066.7</ele>
        <time>2022-06-26T07:59:11Z</time>
      </trkpt>
      <trkpt lat="42.9604840" lon="1.4238440">
        <ele>1065.1</ele>
        <time>2022-06-26T07:59:13Z</time>
      </trkpt>
      <trkpt lat="42.9605610" lon="1.4239190">
        <ele>1064.3</ele>
        <time>2022-06-26T07:59:14Z</time>
      </trkpt>
      <trkpt lat="42.9608410" lon="1.4242000">
        <ele>1061.5</ele>
        <time>2022-06-26T07:59:18Z</time>
      </trkpt>
      <trkpt lat="42.9609700" lon="1.4243940">
        <ele>1060.0</ele>
        <time>2022-06-26T07:59:20Z</time>
      </trkpt>
      <trkpt lat="42.9611550" lon="1.4247470">
        <ele>1057.4</ele>
        <time>2022-06-26T07:59:23Z</time>
      </trkpt>
      <trkpt lat="42.9612220" lon="1.4248680">
        <ele>1056.5</ele>
        <time>2022-06-26T07:59:24Z</time>
      </trkpt>
      <trkpt lat="42.9614750" lon="1.4253160">
        <ele>1053.0</ele>
        <time>2022-06-26T07:59:28Z</time>
      </trkpt>
      <trkpt lat="42.9615310" lon="1.4254280">
        <ele>1052.2</ele>
        <time>2022-06-26T07:59:29Z</time>
      </trkpt>
      <trkpt lat="42.9616740" lon="1.4257130">
        <ele>1050.2</ele>
        <time>2022-06-26T07:59:32Z</time>
      </trkpt>
      <trkpt lat="42.9617170" lon="1.4257960">
        <ele>1049.7</ele>
        <time>2022-06-26T07:59:33Z</time>
      </trkpt>
      <trkpt lat="42.9617910" lon="1.4259590">
        <ele>1048.6</ele>
        <time>2022-06-26T07:59:35Z</time>
      </trkpt>
      <trkpt lat="42.9618180" lon="1.4261330">
        <ele>1047.6</ele>
        <time>2022-06-26T07:59:37Z</time>
      </trkpt>
      <trkpt lat="42.9618300" lon="1.4262230">
        <ele>1047.1</ele>
        <time>2022-06-26T07:59:38Z</time>
      </trkpt>
      <trkpt lat="42.9617890" lon="1.4263920">
        <ele>1046.0</ele>
        <time>2022-06-26T07:59:40Z</time>
      </trkpt>
      <trkpt lat="42.9616860" lon="1.4265410">
        <ele>1044.8</ele>
        <time>2022-06-26T07:59:42Z</time>
      </trkpt>
      <trkpt lat="42.9616220" lon="1.4266190">
        <ele>1044.1</ele>
        <time>2022-06-26T07:59:43Z</time>
      </trkpt>
      <trkpt lat="42.9615520" lon="1.4267040">
        <ele>1043.3</ele>
        <time>2022-06-26T07:59:44Z</time>
      </trkpt>
      <trkpt lat="42.9614840" lon="1.4267860">
        <ele>1042.5</ele>
        <time>2022-06-26T07:59:45Z</time>
      </trkpt>
      <trkpt lat="42.9613540" lon="1.4269830">
        <ele>1040.9</ele>
        <time>2022-06-26T07:59:47Z</time>
      </trkpt>
      <trkpt lat="42.9611100" lon="1.4274130">
        <ele>1037.6</ele>
        <time>2022-06-26T07:59:50Z</time>
      </trkpt>
      <trkpt lat="42.9610650" lon="1.4275480">
        <ele>1036.7</ele>
        <time>2022-06-26T07:59:51Z</time>
      </trkpt>
      <trkpt lat="42.9609440" lon="1.4281180">
        <ele>1033.1</ele>
        <time>2022-06-26T07:59:55Z</time>
      </trkpt>
      <trkpt lat="42.9609150" lon="1.4285600">
        <ele>1030.5</ele>
        <time>2022-06-26T07:59:58Z</time>
      </trkpt>
      <trkpt lat="42.9609250" lon="1.4287090">
        <ele>1029.6</ele>
        <time>2022-06-26T07:59:59Z</time>
      </trkpt>
      <trkpt lat="42.9609440" lon="1.4288630">
        <ele>1028.6</ele>
        <time>2022-06-26T08:00:00Z</time>
      </trkpt>
      <trkpt lat="42.9610300" lon="1.4293450">
        <ele>1025.5</ele>
        <time>2022-06-26T08:00:03Z</time>
      </trkpt>
      <trkpt lat="42.9610650" lon="1.4295000">
        <ele>1024.5</ele>
        <time>2022-06-26T08:00:04Z</time>
      </trkpt>
      <trkpt lat="42.9612160" lon="1.4300920">
        <ele>1020.6</ele>
        <time>2022-06-26T08:00:08Z</time>
      </trkpt>
      <trkpt lat="42.9612500" lon="1.4302390">
        <ele>1019.6</ele>
        <time>2022-06-26T08:00:09Z</time>
      </trkpt>
      <trkpt lat="42.9613070" lon="1.4306840">
        <ele>1016.8</ele>
        <time>2022-06-26T08:00:12Z</time>
      </trkpt>
      <trkpt lat="42.9613070" lon="1.4307660">
        <ele>1016.3</ele>
        <time>2022-06-26T08:00:13Z</time>
      </trkpt>
      <trkpt lat="42.9613060" lon="1.4308470">
        <ele>1015.8</ele>
        <time>2022-06-26T08:00:14Z</time>
      </trkpt>
      <trkpt lat="42.9613020" lon="1.4311730">
        <ele>1013.9</ele>
        <time>2022-06-26T08:00:16Z</time>
      </trkpt>
      <trkpt lat="42.9612870" lon="1.4313740">
        <ele>1012.7</ele>
        <time>2022-06-26T08:00:17Z</time>
      </trkpt>
      <trkpt lat="42.9612270" lon="1.4321810">
        <ele>1008.2</ele>
        <time>2022-06-26T08:00:21Z</time>
      </trkpt>
      <trkpt lat="42.9612190" lon="1.4323320">
        <ele>1007.3</ele>
        <time>2022-06-26T08:00:22Z</time>
      </trkpt>
      <trkpt lat="42.9612210" lon="1.4326370">
        <ele>1005.6</ele>
        <time>2022-06-26T08:00:24Z</time>
      </trkpt>
      <trkpt lat="42.9612310" lon="1.4327870">
        <ele>1004.7</ele>
        <time>2022-06-26T08:00:26Z</time>
      </trkpt>
      <trkpt lat="42.9612380" lon="1.4329360">
        <ele>1003.8</ele>
        <time>2022-06-26T08:00:27Z</time>
      </trkpt>
      <trkpt lat="42.9612440" lon="1.4332350">
        <ele>1002.0</ele>
        <time>2022-06-26T08:00:29Z</time>
      </trkpt>
      <trkpt lat="42.9612490" lon="1.4337740">
        <ele>998.6</ele>
        <time>2022-06-26T08:00:32Z</time>
      </trkpt>
      <trkpt lat="42.9612500" lon="1.4339090">
        <ele>997.8</ele>
        <time>2022-06-26T08:00:33Z</time>
      </trkpt>
      <trkpt lat="42.9612660" lon="1.4341900">
        <ele>996.0</ele>
        <time>2022-06-26T08:00:35Z</time>
      </trkpt>
      <trkpt lat="42.9613130" lon="1.4344780">
        <ele>994.4</ele>
        <time>2022-06-26T08:00:37Z</time>
      </trkpt>
      <trkpt lat="42.9613130" lon="1.4344780">
        <ele>994.4</ele>
        <time>2022-06-26T08:00:38Z</time>
      </trkpt>
      <trkpt lat="42.9614120" lon="1.4350480">
        <ele>991.3</ele>
        <time>2022-06-26T08:00:42Z</time>
      </trkpt>
      <trkpt lat="42.9614450" lon="1.4353040">
        <ele>990.1</ele>
        <time>2022-06-26T08:00:44Z</time>
      </trkpt>
      <trkpt lat="42.9614540" lon="1.4354300">
        <ele>989.5</ele>
        <time>2022-06-26T08:00:45Z</time>
      </trkpt>
      <trkpt lat="42.9614500" lon="1.4355630">
        <ele>988.9</ele>
        <time>2022-06-26T08:00:46Z</time>
      </trkpt>
      <trkpt lat="42.9614230" lon="1.4358220">
        <ele>987.7</ele>
        <time>2022-06-26T08:00:48Z</time>
      </trkpt>
      <trkpt lat="42.9614070" lon="1.4359490">
        <ele>987.1</ele>
        <time>2022-06-26T08:00:49Z</time>
      </trkpt>
      <trkpt lat="42.9613420" lon="1.4364000">
        <ele>985.8</ele>
        <time>2022-06-26T08:00:53Z</time>
      </trkpt>
      <trkpt lat="42.9613420" lon="1.4370690">
        <ele>981.8</ele>
        <time>2022-06-26T08:00:58Z</time>
      </trkpt>
      <trkpt lat="42.9613170" lon="1.4379180">
        <ele>978.4</ele>
        <time>2022-06-26T08:01:03Z</time>
      </trkpt>
      <trkpt lat="42.9613020" lon="1.4381330">
        <ele>977.6</ele>
        <time>2022-06-26T08:01:04Z</time>
      </trkpt>
      <trkpt lat="42.9612870" lon="1.4383480">
        <ele>976.7</ele>
        <time>2022-06-26T08:01:06Z</time>
      </trkpt>
      <trkpt lat="42.9612500" lon="1.4387080">
        <ele>975.2</ele>
        <time>2022-06-26T08:01:09Z</time>
      </trkpt>
      <trkpt lat="42.9612420" lon="1.4388180">
        <ele>974.8</ele>
        <time>2022-06-26T08:01:10Z</time>
      </trkpt>
      <trkpt lat="42.9612410" lon="1.4389290">
        <ele>974.3</ele>
        <time>2022-06-26T08:01:11Z</time>
      </trkpt>
      <trkpt lat="42.9612500" lon="1.4390420">
        <ele>973.9</ele>
        <time>2022-06-26T08:01:13Z</time>
      </trkpt>
      <trkpt lat="42.9612680" lon="1.4391560">
        <ele>973.5</ele>
        <time>2022-06-26T08:01:14Z</time>
      </trkpt>
      <trkpt lat="42.9613310" lon="1.4393730">
        <ele>972.6</ele>
        <time>2022-06-26T08:01:16Z</time>
      </trkpt>
      <trkpt lat="42.9613950" lon="1.4396020">
        <ele>971.6</ele>
        <time>2022-06-26T08:01:17Z</time>
      </trkpt>
      <trkpt lat="42.9614150" lon="1.4397240">
        <ele>971.1</ele>
        <time>2022-06-26T08:01:18Z</time>
      </trkpt>
      <trkpt lat="42.9614280" lon="1.4398510">
        <ele>970.6</ele>
        <time>2022-06-26T08:01:20Z</time>
      </trkpt>
      <trkpt lat="42.9614340" lon="1.4401120">
        <ele>969.6</ele>
        <time>2022-06-26T08:01:22Z</time>
      </trkpt>
      <trkpt lat="42.9614090" lon="1.4403740">
        <ele>968.5</ele>
        <time>2022-06-26T08:01:23Z</time>
      </trkpt>
      <trkpt lat="42.9613060" lon="1.4409000">
        <ele>966.2</ele>
        <time>2022-06-26T08:01:27Z</time>
      </trkpt>
      <trkpt lat="42.9612410" lon="1.4411680">
        <ele>965.0</ele>
        <time>2022-06-26T08:01:29Z</time>
      </trkpt>
      <trkpt lat="42.9611410" lon="1.4415670">
        <ele>963.3</ele>
        <time>2022-06-26T08:01:32Z</time>
      </trkpt>
      <trkpt lat="42.9610250" lon="1.4421470">
        <ele>960.9</ele>
        <time>2022-06-26T08:01:36Z</time>
      </trkpt>
      <trkpt lat="42.9608930" lon="1.4427090">
        <ele>958.6</ele>
        <time>2022-06-26T08:01:40Z</time>
      </trkpt>
      <trkpt lat="42.9608390" lon="1.4428410">
        <ele>958.0</ele>
        <time>2022-06-26T08:01:41Z</time>
      </trkpt>
      <trkpt lat="42.9606430" lon="1.4432130">
        <ele>956.0</ele>
        <time>2022-06-26T08:01:44Z</time>
      </trkpt>
      <trkpt lat="42.9605200" lon="1.4434440">
        <ele>954.7</ele>
        <time>2022-06-26T08:01:46Z</time>
      </trkpt>
      <trkpt lat="42.9603530" lon="1.4438400">
        <ele>952.8</ele>
        <time>2022-06-26T08:01:49Z</time>
      </trkpt>
      <trkpt lat="42.9602510" lon="1.4441140">
        <ele>951.6</ele>
        <time>2022-06-26T08:01:51Z</time>
      </trkpt>
      <trkpt lat="42.9601570" lon="1.4443670">
        <ele>950.5</ele>
        <time>2022-06-26T08:01:53Z</time>
      </trkpt>
      <trkpt lat="42.9600240" lon="1.4448140">
        <ele>948.5</ele>
        <time>2022-06-26T08:01:56Z</time>
      </trkpt>
      <trkpt lat="42.9599800" lon="1.4449520">
        <ele>947.9</ele>
        <time>2022-06-26T08:01:57Z</time>
      </trkpt>
      <trkpt lat="42.9598680" lon="1.4453210">
        <ele>946.3</ele>
        <time>2022-06-26T08:02:00Z</time>
      </trkpt>
      <trkpt lat="42.9598110" lon="1.4456300">
        <ele>945.0</ele>
        <time>2022-06-26T08:02:03Z</time>
      </trkpt>
      <trkpt lat="42.9598120" lon="1.4457340">
        <ele>944.5</ele>
        <time>2022-06-26T08:02:04Z</time>
      </trkpt>
      <trkpt lat="42.9598710" lon="1.4459290">
        <ele>943.7</ele>
        <time>2022-06-26T08:02:06Z</time>
      </trkpt>
      <trkpt lat="42.9599150" lon="1.4460180">
        <ele>943.2</ele>
        <time>2022-06-26T08:02:07Z</time>
      </trkpt>
      <trkpt lat="42.9599680" lon="1.4461120">
        <ele>942.7</ele>
        <time>2022-06-26T08:02:08Z</time>
      </trkpt>
      <trkpt lat="42.9600200" lon="1.4462080">
        <ele>942.2</ele>
        <time>2022-06-26T08:02:09Z</time>
      </trkpt>
      <trkpt lat="42.9600670" lon="1.4463090">
        <ele>941.7</ele>
        <time>2022-06-26T08:02:10Z</time>
      </trkpt>
      <trkpt lat="42.9601540" lon="1.4465130">
        <ele>940.7</ele>
        <time>2022-06-26T08:02:12Z</time>
      </trkpt>
      <trkpt lat="42.9602430" lon="1.4467210">
        <ele>939.8</ele>
        <time>2022-06-26T08:02:14Z</time>
      </trkpt>
      <trkpt lat="42.9602750" lon="1.4468290">
        <ele>939.3</ele>
        <time>2022-06-26T08:02:15Z</time>
      </trkpt>
      <trkpt lat="42.9602940" lon="1.4469460">
        <ele>938.8</ele>
        <time>2022-06-26T08:02:16Z</time>
      </trkpt>
      <trkpt lat="42.9602840" lon="1.4473070">
        <ele>937.4</ele>
        <time>2022-06-26T08:02:19Z</time>
      </trkpt>
      <trkpt lat="42.9602670" lon="1.4474200">
        <ele>937.0</ele>
        <time>2022-06-26T08:02:20Z</time>
      </trkpt>
      <trkpt lat="42.9601380" lon="1.4477020">
        <ele>935.7</ele>
        <time>2022-06-26T08:02:23Z</time>
      </trkpt>
      <trkpt lat="42.9600700" lon="1.4477710">
        <ele>935.3</ele>
        <time>2022-06-26T08:02:24Z</time>
      </trkpt>
      <trkpt lat="42.9599920" lon="1.4478190">
        <ele>934.8</ele>
        <time>2022-06-26T08:02:26Z</time>
      </trkpt>
      <trkpt lat="42.9596490" lon="1.4479950">
        <ele>932.6</ele>
        <time>2022-06-26T08:02:29Z</time>
      </trkpt>
      <trkpt lat="42.9595620" lon="1.4480450">
        <ele>932.1</ele>
        <time>2022-06-26T08:02:30Z</time>
      </trkpt>
      <trkpt lat="42.9593000" lon="1.4481930">
        <ele>930.5</ele>
        <time>2022-06-26T08:02:34Z</time>
      </trkpt>
      <trkpt lat="42.9588490" lon="1.4485120">
        <ele>927.9</ele>
        <time>2022-06-26T08:02:38Z</time>
      </trkpt>
      <trkpt lat="42.9587630" lon="1.4485930">
        <ele>927.3</ele>
        <time>2022-06-26T08:02:39Z</time>
      </trkpt>
      <trkpt lat="42.9585930" lon="1.4487740">
        <ele>926.2</ele>
        <time>2022-06-26T08:02:41Z</time>
      </trkpt>
      <trkpt lat="42.9585180" lon="1.4488760">
        <ele>925.7</ele>
        <time>2022-06-26T08:02:42Z</time>
      </trkpt>
      <trkpt lat="42.9582480" lon="1.4493360">
        <ele>923.4</ele>
        <time>2022-06-26T08:02:46Z</time>
      </trkpt>
      <trkpt lat="42.9581870" lon="1.4494660">
        <ele>922.7</ele>
        <time>2022-06-26T08:02:47Z</time>
      </trkpt>
      <trkpt lat="42.9579500" lon="1.4500230">
        <ele>920.2</ele>
        <time>2022-06-26T08:02:51Z</time>
      </trkpt>
      <trkpt lat="42.9579050" lon="1.4501710">
        <ele>919.7</ele>
        <time>2022-06-26T08:02:52Z</time>
      </trkpt>
      <trkpt lat="42.9578700" lon="1.4503200">
        <ele>919.1</ele>
        <time>2022-06-26T08:02:53Z</time>
      </trkpt>
      <trkpt lat="42.9578440" lon="1.4504690">
        <ele>918.6</ele>
        <time>2022-06-26T08:02:54Z</time>
      </trkpt>
      <trkpt lat="42.9578190" lon="1.4506060">
        <ele>918.1</ele>
        <time>2022-06-26T08:02:55Z</time>
      </trkpt>
      <trkpt lat="42.9577200" lon="1.4509760">
        <ele>916.7</ele>
        <time>2022-06-26T08:02:58Z</time>
      </trkpt>
      <trkpt lat="42.9576790" lon="1.4510780">
        <ele>916.2</ele>
        <time>2022-06-26T08:02:59Z</time>
      </trkpt>
      <trkpt lat="42.9575790" lon="1.4512510">
        <ele>915.4</ele>
        <time>2022-06-26T08:03:02Z</time>
      </trkpt>
      <trkpt lat="42.9575190" lon="1.4513230">
        <ele>915.0</ele>
        <time>2022-06-26T08:03:03Z</time>
      </trkpt>
      <trkpt lat="42.9572990" lon="1.4514090">
        <ele>913.9</ele>
        <time>2022-06-26T08:03:05Z</time>
      </trkpt>
      <trkpt lat="42.9570550" lon="1.4513180">
        <ele>912.6</ele>
        <time>2022-06-26T08:03:08Z</time>
      </trkpt>
      <trkpt lat="42.9569820" lon="1.4512810">
        <ele>912.2</ele>
        <time>2022-06-26T08:03:09Z</time>
      </trkpt>
      <trkpt lat="42.9569150" lon="1.4512540">
        <ele>911.8</ele>
        <time>2022-06-26T08:03:10Z</time>
      </trkpt>
      <trkpt lat="42.9567670" lon="1.4512380">
        <ele>910.9</ele>
        <time>2022-06-26T08:03:12Z</time>
      </trkpt>
      <trkpt lat="42.9566960" lon="1.4512630">
        <ele>910.5</ele>
        <time>2022-06-26T08:03:13Z</time>
      </trkpt>
      <trkpt lat="42.9565550" lon="1.4513240">
        <ele>909.7</ele>
        <time>2022-06-26T08:03:15Z</time>
      </trkpt>
      <trkpt lat="42.9564900" lon="1.4513750">
        <ele>909.3</ele>
        <time>2022-06-26T08:03:16Z</time>
      </trkpt>
      <trkpt lat="42.9563710" lon="1.4515130">
        <ele>908.4</ele>
        <time>2022-06-26T08:03:18Z</time>
      </trkpt>
      <trkpt lat="42.9562730" lon="1.4516940">
        <ele>907.4</ele>
        <time>2022-06-26T08:03:20Z</time>
      </trkpt>
      <trkpt lat="42.9561640" lon="1.4518980">
        <ele>906.3</ele>
        <time>2022-06-26T08:03:22Z</time>
      </trkpt>
      <trkpt lat="42.9560470" lon="1.4521210">
        <ele>905.2</ele>
        <time>2022-06-26T08:03:24Z</time>
      </trkpt>
      <trkpt lat="42.9559370" lon="1.4523510">
        <ele>904.1</ele>
        <time>2022-06-26T08:03:27Z</time>
      </trkpt>
      <trkpt lat="42.9558730" lon="1.4525200">
        <ele>903.4</ele>
        <time>2022-06-26T08:03:28Z</time>
      </trkpt>
      <trkpt lat="42.9557460" lon="1.4528580">
        <ele>901.8</ele>
        <time>2022-06-26T08:03:30Z</time>
      </trkpt>
      <trkpt lat="42.9556050" lon="1.4532680">
        <ele>900.1</ele>
        <time>2022-06-26T08:03:33Z</time>
      </trkpt>
      <trkpt lat="42.9555150" lon="1.4535340">
        <ele>899.1</ele>
        <time>2022-06-26T08:03:35Z</time>
      </trkpt>
      <trkpt lat="42.9554810" lon="1.4536650">
        <ele>898.6</ele>
        <time>2022-06-26T08:03:36Z</time>
      </trkpt>
      <trkpt lat="42.9554160" lon="1.4540330">
        <ele>897.3</ele>
        <time>2022-06-26T08:03:39Z</time>
      </trkpt>
      <trkpt lat="42.9554650" lon="1.4543890">
        <ele>895.9</ele>
        <time>2022-06-26T08:03:42Z</time>
      </trkpt>
      <trkpt lat="42.9554910" lon="1.4545130">
        <ele>895.4</ele>
        <time>2022-06-26T08:03:43Z</time>
      </trkpt>
      <trkpt lat="42.9555560" lon="1.4547670">
        <ele>894.3</ele>
        <time>2022-06-26T08:03:45Z</time>
      </trkpt>
      <trkpt lat="42.9556320" lon="1.4549910">
        <ele>893.3</ele>
        <time>2022-06-26T08:03:47Z</time>
      </trkpt>
      <trkpt lat="42.9556640" lon="1.4550940">
        <ele>892.8</ele>
        <time>2022-06-26T08:03:48Z</time>
      </trkpt>
      <trkpt lat="42.9556890" lon="1.4551870">
        <ele>892.4</ele>
        <time>2022-06-26T08:03:49Z</time>
      </trkpt>
      <trkpt lat="42.9556920" lon="1.4553800">
        <ele>891.5</ele>
        <time>2022-06-26T08:03:51Z</time>
      </trkpt>
      <trkpt lat="42.9556510" lon="1.4554610">
        <ele>891.1</ele>
        <time>2022-06-26T08:03:52Z</time>
      </trkpt>
      <trkpt lat="42.9556010" lon="1.4555460">
        <ele>890.6</ele>
        <time>2022-06-26T08:03:53Z</time>
      </trkpt>
      <trkpt lat="42.9554830" lon="1.4556920">
        <ele>889.6</ele>
        <time>2022-06-26T08:03:55Z</time>
      </trkpt>
      <trkpt lat="42.9554200" lon="1.4557700">
        <ele>889.2</ele>
        <time>2022-06-26T08:03:56Z</time>
      </trkpt>
      <trkpt lat="42.9553620" lon="1.4558440">
        <ele>888.7</ele>
        <time>2022-06-26T08:03:57Z</time>
      </trkpt>
      <trkpt lat="42.9552330" lon="1.4559670">
        <ele>887.9</ele>
        <time>2022-06-26T08:04:00Z</time>
      </trkpt>
      <trkpt lat="42.9549660" lon="1.4562720">
        <ele>885.9</ele>
        <time>2022-06-26T08:04:03Z</time>
      </trkpt>
      <trkpt lat="42.9547530" lon="1.4565500">
        <ele>884.1</ele>
        <time>2022-06-26T08:04:06Z</time>
      </trkpt>
      <trkpt lat="42.9546190" lon="1.4567400">
        <ele>883.1</ele>
        <time>2022-06-26T08:04:08Z</time>
      </trkpt>
      <trkpt lat="42.9545070" lon="1.4569130">
        <ele>882.3</ele>
        <time>2022-06-26T08:04:10Z</time>
      </trkpt>
      <trkpt lat="42.9544010" lon="1.4570450">
        <ele>881.5</ele>
        <time>2022-06-26T08:04:12Z</time>
      </trkpt>
      <trkpt lat="42.9543080" lon="1.4570850">
        <ele>881.0</ele>
        <time>2022-06-26T08:04:14Z</time>
      </trkpt>
      <trkpt lat="42.9542830" lon="1.4570790">
        <ele>880.9</ele>
        <time>2022-06-26T08:04:15Z</time>
      </trkpt>
      <trkpt lat="42.9542580" lon="1.4570730">
        <ele>880.7</ele>
        <time>2022-06-26T08:04:16Z</time>
      </trkpt>
      <trkpt lat="42.9541940" lon="1.4570560">
        <ele>880.4</ele>
        <time>2022-06-26T08:04:17Z</time>
      </trkpt>
      <trkpt lat="42.9540380" lon="1.4569900">
        <ele>879.4</ele>
        <time>2022-06-26T08:04:18Z</time>
      </trkpt>
      <trkpt lat="42.9538010" lon="1.4569060">
        <ele>877.9</ele>
        <time>2022-06-26T08:04:21Z</time>
      </trkpt>
      <trkpt lat="42.9536310" lon="1.4568810">
        <ele>876.9</ele>
        <time>2022-06-26T08:04:23Z</time>
      </trkpt>
      <trkpt lat="42.9531710" lon="1.4568230">
        <ele>874.5</ele>
        <time>2022-06-26T08:04:28Z</time>
      </trkpt>
      <trkpt lat="42.9529740" lon="1.4568310">
        <ele>873.3</ele>
        <time>2022-06-26T08:04:30Z</time>
      </trkpt>
      <trkpt lat="42.9526850" lon="1.4568510">
        <ele>871.7</ele>
        <time>2022-06-26T08:04:33Z</time>
      </trkpt>
      <trkpt lat="42.9525870" lon="1.4568480">
        <ele>871.1</ele>
        <time>2022-06-26T08:04:34Z</time>
      </trkpt>
      <trkpt lat="42.9523890" lon="1.4568200">
        <ele>870.1</ele>
        <time>2022-06-26T08:04:36Z</time>
      </trkpt>
      <trkpt lat="42.9522890" lon="1.4567950">
        <ele>869.6</ele>
        <time>2022-06-26T08:04:37Z</time>
      </trkpt>
      <trkpt lat="42.9520100" lon="1.4567100">
        <ele>868.2</ele>
        <time>2022-06-26T08:04:40Z</time>
      </trkpt>
      <trkpt lat="42.9519230" lon="1.4566930">
        <ele>867.7</ele>
        <time>2022-06-26T08:04:41Z</time>
      </trkpt>
      <trkpt lat="42.9518350" lon="1.4566850">
        <ele>867.2</ele>
        <time>2022-06-26T08:04:42Z</time>
      </trkpt>
      <trkpt lat="42.9515480" lon="1.4567010">
        <ele>865.4</ele>
        <time>2022-06-26T08:04:45Z</time>
      </trkpt>
      <trkpt lat="42.9514510" lon="1.4567250">
        <ele>864.8</ele>
        <time>2022-06-26T08:04:46Z</time>
      </trkpt>
      <trkpt lat="42.9510440" lon="1.4568880">
        <ele>862.1</ele>
        <time>2022-06-26T08:04:50Z</time>
      </trkpt>
      <trkpt lat="42.9509440" lon="1.4569430">
        <ele>861.5</ele>
        <time>2022-06-26T08:04:51Z</time>
      </trkpt>
      <trkpt lat="42.9506790" lon="1.4571320">
        <ele>859.6</ele>
        <time>2022-06-26T08:04:54Z</time>
      </trkpt>
      <trkpt lat="42.9505890" lon="1.4572110">
        <ele>858.9</ele>
        <time>2022-06-26T08:04:56Z</time>
      </trkpt>
      <trkpt lat="42.9504630" lon="1.4573610">
        <ele>857.8</ele>
        <time>2022-06-26T08:04:57Z</time>
      </trkpt>
      <trkpt lat="42.9503370" lon="1.4575100">
        <ele>856.8</ele>
        <time>2022-06-26T08:04:58Z</time>
      </trkpt>
      <trkpt lat="42.9503190" lon="1.4575710">
        <ele>856.5</ele>
        <time>2022-06-26T08:04:59Z</time>
      </trkpt>
      <trkpt lat="42.9503020" lon="1.4576330">
        <ele>856.2</ele>
        <time>2022-06-26T08:05:00Z</time>
      </trkpt>
      <trkpt lat="42.9500940" lon="1.4580590">
        <ele>854.1</ele>
        <time>2022-06-26T08:05:02Z</time>
      </trkpt>
      <trkpt lat="42.9499770" lon="1.4583320">
        <ele>852.7</ele>
        <time>2022-06-26T08:05:04Z</time>
      </trkpt>
      <trkpt lat="42.9498730" lon="1.4586120">
        <ele>851.2</ele>
        <time>2022-06-26T08:05:06Z</time>
      </trkpt>
      <trkpt lat="42.9498710" lon="1.4586850">
        <ele>850.9</ele>
        <time>2022-06-26T08:05:07Z</time>
      </trkpt>
      <trkpt lat="42.9498690" lon="1.4587580">
        <ele>850.5</ele>
        <time>2022-06-26T08:05:08Z</time>
      </trkpt>
      <trkpt lat="42.9498600" lon="1.4590500">
        <ele>849.1</ele>
        <time>2022-06-26T08:05:10Z</time>
      </trkpt>
      <trkpt lat="42.9498680" lon="1.4591900">
        <ele>848.5</ele>
        <time>2022-06-26T08:05:11Z</time>
      </trkpt>
      <trkpt lat="42.9499500" lon="1.4595820">
        <ele>846.8</ele>
        <time>2022-06-26T08:05:13Z</time>
      </trkpt>
      <trkpt lat="42.9500510" lon="1.4598250">
        <ele>845.6</ele>
        <time>2022-06-26T08:05:15Z</time>
      </trkpt>
      <trkpt lat="42.9501660" lon="1.4600610">
        <ele>844.4</ele>
        <time>2022-06-26T08:05:17Z</time>
      </trkpt>
      <trkpt lat="42.9502250" lon="1.4601820">
        <ele>843.9</ele>
        <time>2022-06-26T08:05:18Z</time>
      </trkpt>
      <trkpt lat="42.9503760" lon="1.4605510">
        <ele>842.2</ele>
        <time>2022-06-26T08:05:21Z</time>
      </trkpt>
      <trkpt lat="42.9504250" lon="1.4606540">
        <ele>841.7</ele>
        <time>2022-06-26T08:05:22Z</time>
      </trkpt>
      <trkpt lat="42.9505810" lon="1.4608910">
        <ele>840.5</ele>
        <time>2022-06-26T08:05:25Z</time>
      </trkpt>
      <trkpt lat="42.9506300" lon="1.4609510">
        <ele>840.1</ele>
        <time>2022-06-26T08:05:26Z</time>
      </trkpt>
      <trkpt lat="42.9506790" lon="1.4610040">
        <ele>839.8</ele>
        <time>2022-06-26T08:05:27Z</time>
      </trkpt>
      <trkpt lat="42.9507210" lon="1.4610640">
        <ele>839.5</ele>
        <time>2022-06-26T08:05:28Z</time>
      </trkpt>
      <trkpt lat="42.9507690" lon="1.4611300">
        <ele>839.1</ele>
        <time>2022-06-26T08:05:29Z</time>
      </trkpt>
      <trkpt lat="42.9507970" lon="1.4611870">
        <ele>838.8</ele>
        <time>2022-06-26T08:05:30Z</time>
      </trkpt>
      <trkpt lat="42.9508120" lon="1.4612670">
        <ele>838.5</ele>
        <time>2022-06-26T08:05:31Z</time>
      </trkpt>
      <trkpt lat="42.9507690" lon="1.4614480">
        <ele>837.2</ele>
        <time>2022-06-26T08:05:33Z</time>
      </trkpt>
      <trkpt lat="42.9507190" lon="1.4615260">
        <ele>836.6</ele>
        <time>2022-06-26T08:05:34Z</time>
      </trkpt>
      <trkpt lat="42.9506770" lon="1.4615990">
        <ele>836.1</ele>
        <time>2022-06-26T08:05:35Z</time>
      </trkpt>
      <trkpt lat="42.9505960" lon="1.4617600">
        <ele>835.1</ele>
        <time>2022-06-26T08:05:37Z</time>
      </trkpt>
      <trkpt lat="42.9505540" lon="1.4618380">
        <ele>834.6</ele>
        <time>2022-06-26T08:05:39Z</time>
      </trkpt>
      <trkpt lat="42.9505060" lon="1.4619520">
        <ele>834.0</ele>
        <time>2022-06-26T08:05:40Z</time>
      </trkpt>
      <trkpt lat="42.9503600" lon="1.4622970">
        <ele>832.2</ele>
        <time>2022-06-26T08:05:43Z</time>
      </trkpt>
      <trkpt lat="42.9503070" lon="1.4623950">
        <ele>831.6</ele>
        <time>2022-06-26T08:05:44Z</time>
      </trkpt>
      <trkpt lat="42.9500850" lon="1.4628700">
        <ele>829.0</ele>
        <time>2022-06-26T08:05:48Z</time>
      </trkpt>
      <trkpt lat="42.9500400" lon="1.4629950">
        <ele>828.3</ele>
        <time>2022-06-26T08:05:49Z</time>
      </trkpt>
      <trkpt lat="42.9499960" lon="1.4631190">
        <ele>827.7</ele>
        <time>2022-06-26T08:05:51Z</time>
      </trkpt>
      <trkpt lat="42.9499270" lon="1.4633710">
        <ele>826.5</ele>
        <time>2022-06-26T08:05:53Z</time>
      </trkpt>
      <trkpt lat="42.9498300" lon="1.4637930">
        <ele>824.5</ele>
        <time>2022-06-26T08:05:55Z</time>
      </trkpt>
      <trkpt lat="42.9497980" lon="1.4639390">
        <ele>823.7</ele>
        <time>2022-06-26T08:05:56Z</time>
      </trkpt>
      <trkpt lat="42.9496540" lon="1.4645090">
        <ele>820.8</ele>
        <time>2022-06-26T08:06:00Z</time>
      </trkpt>
      <trkpt lat="42.9496180" lon="1.4646620">
        <ele>820.0</ele>
        <time>2022-06-26T08:06:01Z</time>
      </trkpt>
      <trkpt lat="42.9495660" lon="1.4648010">
        <ele>819.3</ele>
        <time>2022-06-26T08:06:02Z</time>
      </trkpt>
      <trkpt lat="42.9495120" lon="1.4649380">
        <ele>818.5</ele>
        <time>2022-06-26T08:06:03Z</time>
      </trkpt>
      <trkpt lat="42.9494550" lon="1.4650590">
        <ele>817.9</ele>
        <time>2022-06-26T08:06:04Z</time>
      </trkpt>
      <trkpt lat="42.9493250" lon="1.4652360">
        <ele>816.8</ele>
        <time>2022-06-26T08:06:06Z</time>
      </trkpt>
      <trkpt lat="42.9491830" lon="1.4654160">
        <ele>815.7</ele>
        <time>2022-06-26T08:06:08Z</time>
      </trkpt>
      <trkpt lat="42.9491240" lon="1.4655110">
        <ele>815.1</ele>
        <time>2022-06-26T08:06:09Z</time>
      </trkpt>
      <trkpt lat="42.9489730" lon="1.4658470">
        <ele>813.3</ele>
        <time>2022-06-26T08:06:12Z</time>
      </trkpt>
      <trkpt lat="42.9489200" lon="1.4659620">
        <ele>812.7</ele>
        <time>2022-06-26T08:06:13Z</time>
      </trkpt>
      <trkpt lat="42.9487770" lon="1.4663280">
        <ele>810.7</ele>
        <time>2022-06-26T08:06:16Z</time>
      </trkpt>
      <trkpt lat="42.9487390" lon="1.4664650">
        <ele>810.1</ele>
        <time>2022-06-26T08:06:17Z</time>
      </trkpt>
      <trkpt lat="42.9486570" lon="1.4668870">
        <ele>808.1</ele>
        <time>2022-06-26T08:06:20Z</time>
      </trkpt>
      <trkpt lat="42.9486360" lon="1.4670400">
        <ele>807.4</ele>
        <time>2022-06-26T08:06:21Z</time>
      </trkpt>
      <trkpt lat="42.9486080" lon="1.4675040">
        <ele>805.1</ele>
        <time>2022-06-26T08:06:24Z</time>
      </trkpt>
      <trkpt lat="42.9486180" lon="1.4679700">
        <ele>802.5</ele>
        <time>2022-06-26T08:06:27Z</time>
      </trkpt>
      <trkpt lat="42.9486310" lon="1.4685420">
        <ele>798.8</ele>
        <time>2022-06-26T08:06:31Z</time>
      </trkpt>
      <trkpt lat="42.9486360" lon="1.4686680">
        <ele>798.0</ele>
        <time>2022-06-26T08:06:32Z</time>
      </trkpt>
      <trkpt lat="42.9486580" lon="1.4687930">
        <ele>797.1</ele>
        <time>2022-06-26T08:06:33Z</time>
      </trkpt>
      <trkpt lat="42.9487050" lon="1.4690290">
        <ele>795.3</ele>
        <time>2022-06-26T08:06:35Z</time>
      </trkpt>
      <trkpt lat="42.9487320" lon="1.4691370">
        <ele>794.4</ele>
        <time>2022-06-26T08:06:36Z</time>
      </trkpt>
      <trkpt lat="42.9487900" lon="1.4693160">
        <ele>792.8</ele>
        <time>2022-06-26T08:06:39Z</time>
      </trkpt>
      <trkpt lat="42.9488230" lon="1.4693970">
        <ele>792.1</ele>
        <time>2022-06-26T08:06:40Z</time>
      </trkpt>
      <trkpt lat="42.9488600" lon="1.4694720">
        <ele>791.5</ele>
        <time>2022-06-26T08:06:41Z</time>
      </trkpt>
      <trkpt lat="42.9489690" lon="1.4695740">
        <ele>790.2</ele>
        <time>2022-06-26T08:06:43Z</time>
      </trkpt>
      <trkpt lat="42.9489690" lon="1.4695740">
        <ele>790.2</ele>
        <time>2022-06-26T08:06:44Z</time>
      </trkpt>
      <trkpt lat="42.9491450" lon="1.4695310">
        <ele>788.4</ele>
        <time>2022-06-26T08:06:47Z</time>
      </trkpt>
      <trkpt lat="42.9492440" lon="1.4695190">
        <ele>787.4</ele>
        <time>2022-06-26T08:06:48Z</time>
      </trkpt>
      <trkpt lat="42.9494220" lon="1.4695450">
        <ele>785.6</ele>
        <time>2022-06-26T08:06:50Z</time>
      </trkpt>
      <trkpt lat="42.9496670" lon="1.4697240">
        <ele>782.5</ele>
        <time>2022-06-26T08:06:53Z</time>
      </trkpt>
      <trkpt lat="42.9497850" lon="1.4698940">
        <ele>780.5</ele>
        <time>2022-06-26T08:06:55Z</time>
      </trkpt>
      <trkpt lat="42.9499170" lon="1.4700390">
        <ele>778.6</ele>
        <time>2022-06-26T08:06:57Z</time>
      </trkpt>
      <trkpt lat="42.9499850" lon="1.4700980">
        <ele>777.9</ele>
        <time>2022-06-26T08:06:58Z</time>
      </trkpt>
      <trkpt lat="42.9500520" lon="1.4701430">
        <ele>777.2</ele>
        <time>2022-06-26T08:06:59Z</time>
      </trkpt>
      <trkpt lat="42.9501750" lon="1.4701840">
        <ele>776.2</ele>
        <time>2022-06-26T08:07:01Z</time>
      </trkpt>
      <trkpt lat="42.9502250" lon="1.4702030">
        <ele>775.7</ele>
        <time>2022-06-26T08:07:02Z</time>
      </trkpt>
      <trkpt lat="42.9503020" lon="1.4702470">
        <ele>775.0</ele>
        <time>2022-06-26T08:07:03Z</time>
      </trkpt>
      <trkpt lat="42.9503970" lon="1.4703920">
        <ele>773.7</ele>
        <time>2022-06-26T08:07:05Z</time>
      </trkpt>
      <trkpt lat="42.9504190" lon="1.4704850">
        <ele>773.0</ele>
        <time>2022-06-26T08:07:06Z</time>
      </trkpt>
      <trkpt lat="42.9504260" lon="1.4706010">
        <ele>772.1</ele>
        <time>2022-06-26T08:07:07Z</time>
      </trkpt>
      <trkpt lat="42.9503330" lon="1.4709250">
        <ele>769.3</ele>
        <time>2022-06-26T08:07:10Z</time>
      </trkpt>
      <trkpt lat="42.9501460" lon="1.4715520">
        <ele>764.1</ele>
        <time>2022-06-26T08:07:15Z</time>
      </trkpt>
      <trkpt lat="42.9501250" lon="1.4716800">
        <ele>763.1</ele>
        <time>2022-06-26T08:07:16Z</time>
      </trkpt>
      <trkpt lat="42.9501070" lon="1.4718180">
        <ele>762.0</ele>
        <time>2022-06-26T08:07:17Z</time>
      </trkpt>
      <trkpt lat="42.9500710" lon="1.4720790">
        <ele>760.0</ele>
        <time>2022-06-26T08:07:19Z</time>
      </trkpt>
      <trkpt lat="42.9500630" lon="1.4722150">
        <ele>759.0</ele>
        <time>2022-06-26T08:07:20Z</time>
      </trkpt>
      <trkpt lat="42.9500610" lon="1.4724890">
        <ele>757.0</ele>
        <time>2022-06-26T08:07:22Z</time>
      </trkpt>
      <trkpt lat="42.9500680" lon="1.4726260">
        <ele>756.1</ele>
        <time>2022-06-26T08:07:23Z</time>
      </trkpt>
      <trkpt lat="42.9500770" lon="1.4727640">
        <ele>755.2</ele>
        <time>2022-06-26T08:07:24Z</time>
      </trkpt>
      <trkpt lat="42.9501050" lon="1.4730240">
        <ele>753.2</ele>
        <time>2022-06-26T08:07:26Z</time>
      </trkpt>
      <trkpt lat="42.9501550" lon="1.4732580">
        <ele>751.3</ele>
        <time>2022-06-26T08:07:28Z</time>
      </trkpt>
      <trkpt lat="42.9501970" lon="1.4733720">
        <ele>750.2</ele>
        <time>2022-06-26T08:07:29Z</time>
      </trkpt>
      <trkpt lat="42.9503700" lon="1.4736800">
        <ele>747.2</ele>
        <time>2022-06-26T08:07:32Z</time>
      </trkpt>
      <trkpt lat="42.9505970" lon="1.4739510">
        <ele>745.2</ele>
        <time>2022-06-26T08:07:35Z</time>
      </trkpt>
      <trkpt lat="42.9506760" lon="1.4740400">
        <ele>744.6</ele>
        <time>2022-06-26T08:07:36Z</time>
      </trkpt>
      <trkpt lat="42.9509230" lon="1.4742630">
        <ele>742.8</ele>
        <time>2022-06-26T08:07:39Z</time>
      </trkpt>
      <trkpt lat="42.9511810" lon="1.4744890">
        <ele>740.2</ele>
        <time>2022-06-26T08:07:42Z</time>
      </trkpt>
      <trkpt lat="42.9514720" lon="1.4747740">
        <ele>737.1</ele>
        <time>2022-06-26T08:07:45Z</time>
      </trkpt>
      <trkpt lat="42.9515740" lon="1.4748700">
        <ele>736.0</ele>
        <time>2022-06-26T08:07:46Z</time>
      </trkpt>
      <trkpt lat="42.9516680" lon="1.4749620">
        <ele>735.0</ele>
        <time>2022-06-26T08:07:47Z</time>
      </trkpt>
      <trkpt lat="42.9519270" lon="1.4752350">
        <ele>732.6</ele>
        <time>2022-06-26T08:07:50Z</time>
      </trkpt>
      <trkpt lat="42.9521390" lon="1.4755730">
        <ele>729.9</ele>
        <time>2022-06-26T08:07:53Z</time>
      </trkpt>
      <trkpt lat="42.9522140" lon="1.4756860">
        <ele>728.8</ele>
        <time>2022-06-26T08:07:54Z</time>
      </trkpt>
      <trkpt lat="42.9523670" lon="1.4759030">
        <ele>726.4</ele>
        <time>2022-06-26T08:07:56Z</time>
      </trkpt>
      <trkpt lat="42.9525190" lon="1.4761160">
        <ele>724.1</ele>
        <time>2022-06-26T08:07:58Z</time>
      </trkpt>
      <trkpt lat="42.9525860" lon="1.4762130">
        <ele>723.1</ele>
        <time>2022-06-26T08:07:59Z</time>
      </trkpt>
      <trkpt lat="42.9527580" lon="1.4764840">
        <ele>720.4</ele>
        <time>2022-06-26T08:08:02Z</time>
      </trkpt>
      <trkpt lat="42.9528080" lon="1.4765620">
        <ele>719.7</ele>
        <time>2022-06-26T08:08:04Z</time>
      </trkpt>
      <trkpt lat="42.9529030" lon="1.4766880">
        <ele>718.2</ele>
        <time>2022-06-26T08:08:05Z</time>
      </trkpt>
      <trkpt lat="42.9529540" lon="1.4767220">
        <ele>717.6</ele>
        <time>2022-06-26T08:08:06Z</time>
      </trkpt>
      <trkpt lat="42.9530090" lon="1.4767500">
        <ele>717.0</ele>
        <time>2022-06-26T08:08:07Z</time>
      </trkpt>
      <trkpt lat="42.9531240" lon="1.4767100">
        <ele>715.8</ele>
        <time>2022-06-26T08:08:09Z</time>
      </trkpt>
      <trkpt lat="42.9532250" lon="1.4766320">
        <ele>714.6</ele>
        <time>2022-06-26T08:08:11Z</time>
      </trkpt>
      <trkpt lat="42.9532820" lon="1.4765870">
        <ele>714.0</ele>
        <time>2022-06-26T08:08:12Z</time>
      </trkpt>
      <trkpt lat="42.9533530" lon="1.4765430">
        <ele>713.3</ele>
        <time>2022-06-26T08:08:14Z</time>
      </trkpt>
      <trkpt lat="42.9534730" lon="1.4764700">
        <ele>712.0</ele>
        <time>2022-06-26T08:08:15Z</time>
      </trkpt>
      <trkpt lat="42.9536250" lon="1.4764430">
        <ele>708.5</ele>
        <time>2022-06-26T08:08:18Z</time>
      </trkpt>
      <trkpt lat="42.9536750" lon="1.4764910">
        <ele>707.7</ele>
        <time>2022-06-26T08:08:19Z</time>
      </trkpt>
      <trkpt lat="42.9537130" lon="1.4765660">
        <ele>706.9</ele>
        <time>2022-06-26T08:08:20Z</time>
      </trkpt>
      <trkpt lat="42.9538150" lon="1.4767550">
        <ele>705.0</ele>
        <time>2022-06-26T08:08:22Z</time>
      </trkpt>
      <trkpt lat="42.9538440" lon="1.4768410">
        <ele>704.3</ele>
        <time>2022-06-26T08:08:23Z</time>
      </trkpt>
      <trkpt lat="42.9538720" lon="1.4769220">
        <ele>703.5</ele>
        <time>2022-06-26T08:08:24Z</time>
      </trkpt>
      <trkpt lat="42.9539050" lon="1.4769880">
        <ele>702.8</ele>
        <time>2022-06-26T08:08:25Z</time>
      </trkpt>
      <trkpt lat="42.9540250" lon="1.4771010">
        <ele>701.2</ele>
        <time>2022-06-26T08:08:28Z</time>
      </trkpt>
      <trkpt lat="42.9540870" lon="1.4771180">
        <ele>700.5</ele>
        <time>2022-06-26T08:08:29Z</time>
      </trkpt>
      <trkpt lat="42.9542510" lon="1.4771600">
        <ele>699.0</ele>
        <time>2022-06-26T08:08:32Z</time>
      </trkpt>
      <trkpt lat="42.9543960" lon="1.4772610">
        <ele>697.7</ele>
        <time>2022-06-26T08:08:34Z</time>
      </trkpt>
      <trkpt lat="42.9544660" lon="1.4773550">
        <ele>697.2</ele>
        <time>2022-06-26T08:08:35Z</time>
      </trkpt>
      <trkpt lat="42.9546160" lon="1.4776780">
        <ele>696.0</ele>
        <time>2022-06-26T08:08:38Z</time>
      </trkpt>
      <trkpt lat="42.9546450" lon="1.4777940">
        <ele>695.7</ele>
        <time>2022-06-26T08:08:39Z</time>
      </trkpt>
      <trkpt lat="42.9546160" lon="1.4780000">
        <ele>695.4</ele>
        <time>2022-06-26T08:08:41Z</time>
      </trkpt>
      <trkpt lat="42.9545940" lon="1.4780940">
        <ele>695.2</ele>
        <time>2022-06-26T08:08:42Z</time>
      </trkpt>
      <trkpt lat="42.9544950" lon="1.4783380">
        <ele>694.6</ele>
        <time>2022-06-26T08:08:45Z</time>
      </trkpt>
      <trkpt lat="42.9544180" lon="1.4785120">
        <ele>694.0</ele>
        <time>2022-06-26T08:08:47Z</time>
      </trkpt>
      <trkpt lat="42.9543320" lon="1.4786810">
        <ele>693.3</ele>
        <time>2022-06-26T08:08:49Z</time>
      </trkpt>
      <trkpt lat="42.9541660" lon="1.4790800">
        <ele>692.0</ele>
        <time>2022-06-26T08:08:53Z</time>
      </trkpt>
      <trkpt lat="42.9540770" lon="1.4792900">
        <ele>691.1</ele>
        <time>2022-06-26T08:08:55Z</time>
      </trkpt>
      <trkpt lat="42.9540290" lon="1.4793970">
        <ele>690.7</ele>
        <time>2022-06-26T08:08:56Z</time>
      </trkpt>
      <trkpt lat="42.9539870" lon="1.4795040">
        <ele>690.3</ele>
        <time>2022-06-26T08:08:57Z</time>
      </trkpt>
      <trkpt lat="42.9539410" lon="1.4796010">
        <ele>689.9</ele>
        <time>2022-06-26T08:08:58Z</time>
      </trkpt>
      <trkpt lat="42.9538950" lon="1.4796890">
        <ele>689.5</ele>
        <time>2022-06-26T08:08:59Z</time>
      </trkpt>
      <trkpt lat="42.9537610" lon="1.4800530">
        <ele>688.3</ele>
        <time>2022-06-26T08:09:03Z</time>
      </trkpt>
      <trkpt lat="42.9537410" lon="1.4801410">
        <ele>688.1</ele>
        <time>2022-06-26T08:09:04Z</time>
      </trkpt>
      <trkpt lat="42.9536950" lon="1.4804290">
        <ele>687.0</ele>
        <time>2022-06-26T08:09:07Z</time>
      </trkpt>
      <trkpt lat="42.9536860" lon="1.4805190">
        <ele>686.6</ele>
        <time>2022-06-26T08:09:09Z</time>
      </trkpt>
      <trkpt lat="42.9536830" lon="1.4806050">
        <ele>686.2</ele>
        <time>2022-06-26T08:09:10Z</time>
      </trkpt>
      <trkpt lat="42.9536840" lon="1.4806890">
        <ele>685.7</ele>
        <time>2022-06-26T08:09:11Z</time>
      </trkpt>
      <trkpt lat="42.9537220" lon="1.4808340">
        <ele>684.9</ele>
        <time>2022-06-26T08:09:13Z</time>
      </trkpt>
      <trkpt lat="42.9537600" lon="1.4808850">
        <ele>684.4</ele>
        <time>2022-06-26T08:09:14Z</time>
      </trkpt>
      <trkpt lat="42.9538630" lon="1.4809060">
        <ele>683.6</ele>
        <time>2022-06-26T08:09:16Z</time>
      </trkpt>
      <trkpt lat="42.9539300" lon="1.4808880">
        <ele>683.1</ele>
        <time>2022-06-26T08:09:17Z</time>
      </trkpt>
      <trkpt lat="42.9540030" lon="1.4808630">
        <ele>682.5</ele>
        <time>2022-06-26T08:09:18Z</time>
      </trkpt>
      <trkpt lat="42.9541560" lon="1.4808270">
        <ele>681.4</ele>
        <time>2022-06-26T08:09:20Z</time>
      </trkpt>
      <trkpt lat="42.9543060" lon="1.4808390">
        <ele>680.3</ele>
        <time>2022-06-26T08:09:21Z</time>
      </trkpt>
      <trkpt lat="42.9543700" lon="1.4808860">
        <ele>679.8</ele>
        <time>2022-06-26T08:09:22Z</time>
      </trkpt>
      <trkpt lat="42.9544250" lon="1.4809550">
        <ele>679.3</ele>
        <time>2022-06-26T08:09:23Z</time>
      </trkpt>
      <trkpt lat="42.9545130" lon="1.4811360">
        <ele>678.1</ele>
        <time>2022-06-26T08:09:25Z</time>
      </trkpt>
      <trkpt lat="42.9545370" lon="1.4812460">
        <ele>677.5</ele>
        <time>2022-06-26T08:09:26Z</time>
      </trkpt>
      <trkpt lat="42.9545870" lon="1.4814710">
        <ele>676.0</ele>
        <time>2022-06-26T08:09:28Z</time>
      </trkpt>
      <trkpt lat="42.9546250" lon="1.4815890">
        <ele>675.1</ele>
        <time>2022-06-26T08:09:29Z</time>
      </trkpt>
      <trkpt lat="42.9546680" lon="1.4817090">
        <ele>674.2</ele>
        <time>2022-06-26T08:09:30Z</time>
      </trkpt>
      <trkpt lat="42.9547190" lon="1.4818350">
        <ele>673.3</ele>
        <time>2022-06-26T08:09:31Z</time>
      </trkpt>
      <trkpt lat="42.9548330" lon="1.4820840">
        <ele>671.8</ele>
        <time>2022-06-26T08:09:33Z</time>
      </trkpt>
      <trkpt lat="42.9548870" lon="1.4822180">
        <ele>671.1</ele>
        <time>2022-06-26T08:09:34Z</time>
      </trkpt>
      <trkpt lat="42.9549390" lon="1.4823570">
        <ele>670.5</ele>
        <time>2022-06-26T08:09:35Z</time>
      </trkpt>
      <trkpt lat="42.9550290" lon="1.4826180">
        <ele>669.0</ele>
        <time>2022-06-26T08:09:37Z</time>
      </trkpt>
      <trkpt lat="42.9551020" lon="1.4828390">
        <ele>667.8</ele>
        <time>2022-06-26T08:09:39Z</time>
      </trkpt>
      <trkpt lat="42.9551620" lon="1.4830580">
        <ele>666.6</ele>
        <time>2022-06-26T08:09:41Z</time>
      </trkpt>
      <trkpt lat="42.9551820" lon="1.4832910">
        <ele>665.2</ele>
        <time>2022-06-26T08:09:43Z</time>
      </trkpt>
      <trkpt lat="42.9551710" lon="1.4835470">
        <ele>663.7</ele>
        <time>2022-06-26T08:09:45Z</time>
      </trkpt>
      <trkpt lat="42.9551480" lon="1.4836890">
        <ele>662.9</ele>
        <time>2022-06-26T08:09:47Z</time>
      </trkpt>
      <trkpt lat="42.9550980" lon="1.4839740">
        <ele>661.2</ele>
        <time>2022-06-26T08:09:49Z</time>
      </trkpt>
      <trkpt lat="42.9550040" lon="1.4844690">
        <ele>658.2</ele>
        <time>2022-06-26T08:09:52Z</time>
      </trkpt>
      <trkpt lat="42.9549710" lon="1.4846780">
        <ele>656.9</ele>
        <time>2022-06-26T08:09:54Z</time>
      </trkpt>
      <trkpt lat="42.9549670" lon="1.4847850">
        <ele>656.3</ele>
        <time>2022-06-26T08:09:55Z</time>
      </trkpt>
      <trkpt lat="42.9549870" lon="1.4849870">
        <ele>655.0</ele>
        <time>2022-06-26T08:09:57Z</time>
      </trkpt>
      <trkpt lat="42.9549870" lon="1.4849870">
        <ele>655.0</ele>
        <time>2022-06-26T08:09:58Z</time>
      </trkpt>
      <trkpt lat="42.9550300" lon="1.4851480">
        <ele>654.0</ele>
        <time>2022-06-26T08:10:00Z</time>
      </trkpt>
      <trkpt lat="42.9550760" lon="1.4852700">
        <ele>653.3</ele>
        <time>2022-06-26T08:10:02Z</time>
      </trkpt>
      <trkpt lat="42.9551770" lon="1.4852710">
        <ele>652.6</ele>
        <time>2022-06-26T08:10:04Z</time>
      </trkpt>
      <trkpt lat="42.9553190" lon="1.4852120">
        <ele>651.7</ele>
        <time>2022-06-26T08:10:05Z</time>
      </trkpt>
      <trkpt lat="42.9556140" lon="1.4851720">
        <ele>649.5</ele>
        <time>2022-06-26T08:10:09Z</time>
      </trkpt>
      <trkpt lat="42.9556790" lon="1.4851960">
        <ele>649.0</ele>
        <time>2022-06-26T08:10:10Z</time>
      </trkpt>
      <trkpt lat="42.9557490" lon="1.4852160">
        <ele>648.5</ele>
        <time>2022-06-26T08:10:12Z</time>
      </trkpt>
      <trkpt lat="42.9561230" lon="1.4852560">
        <ele>645.8</ele>
        <time>2022-06-26T08:10:15Z</time>
      </trkpt>
      <trkpt lat="42.9562280" lon="1.4852900">
        <ele>645.1</ele>
        <time>2022-06-26T08:10:16Z</time>
      </trkpt>
      <trkpt lat="42.9564040" lon="1.4853760">
        <ele>643.8</ele>
        <time>2022-06-26T08:10:18Z</time>
      </trkpt>
      <trkpt lat="42.9565770" lon="1.4854420">
        <ele>642.5</ele>
        <time>2022-06-26T08:10:20Z</time>
      </trkpt>
      <trkpt lat="42.9566680" lon="1.4854570">
        <ele>641.8</ele>
        <time>2022-06-26T08:10:21Z</time>
      </trkpt>
      <trkpt lat="42.9568980" lon="1.4853980">
        <ele>639.9</ele>
        <time>2022-06-26T08:10:24Z</time>
      </trkpt>
      <trkpt lat="42.9570820" lon="1.4852350">
        <ele>638.2</ele>
        <time>2022-06-26T08:10:27Z</time>
      </trkpt>
      <trkpt lat="42.9571540" lon="1.4851620">
        <ele>637.5</ele>
        <time>2022-06-26T08:10:28Z</time>
      </trkpt>
      <trkpt lat="42.9572180" lon="1.4850570">
        <ele>636.9</ele>
        <time>2022-06-26T08:10:29Z</time>
      </trkpt>
      <trkpt lat="42.9572710" lon="1.4849290">
        <ele>636.2</ele>
        <time>2022-06-26T08:10:30Z</time>
      </trkpt>
      <trkpt lat="42.9573270" lon="1.4848040">
        <ele>635.5</ele>
        <time>2022-06-26T08:10:31Z</time>
      </trkpt>
      <trkpt lat="42.9574440" lon="1.4845670">
        <ele>634.2</ele>
        <time>2022-06-26T08:10:33Z</time>
      </trkpt>
      <trkpt lat="42.9575820" lon="1.4843530">
        <ele>632.9</ele>
        <time>2022-06-26T08:10:35Z</time>
      </trkpt>
      <trkpt lat="42.9576360" lon="1.4842970">
        <ele>632.5</ele>
        <time>2022-06-26T08:10:36Z</time>
      </trkpt>
      <trkpt lat="42.9576900" lon="1.4842400">
        <ele>632.0</ele>
        <time>2022-06-26T08:10:37Z</time>
      </trkpt>
      <trkpt lat="42.9579060" lon="1.4840150">
        <ele>630.0</ele>
        <time>2022-06-26T08:10:39Z</time>
      </trkpt>
      <trkpt lat="42.9579810" lon="1.4839220">
        <ele>629.2</ele>
        <time>2022-06-26T08:10:40Z</time>
      </trkpt>
      <trkpt lat="42.9581400" lon="1.4837400">
        <ele>627.7</ele>
        <time>2022-06-26T08:10:42Z</time>
      </trkpt>
      <trkpt lat="42.9583190" lon="1.4835700">
        <ele>625.9</ele>
        <time>2022-06-26T08:10:44Z</time>
      </trkpt>
      <trkpt lat="42.9584090" lon="1.4835170">
        <ele>625.1</ele>
        <time>2022-06-26T08:10:45Z</time>
      </trkpt>
      <trkpt lat="42.9585460" lon="1.4834140">
        <ele>623.9</ele>
        <time>2022-06-26T08:10:47Z</time>
      </trkpt>
      <trkpt lat="42.9586010" lon="1.4833630">
        <ele>623.3</ele>
        <time>2022-06-26T08:10:48Z</time>
      </trkpt>
      <trkpt lat="42.9587230" lon="1.4832290">
        <ele>622.2</ele>
        <time>2022-06-26T08:10:50Z</time>
      </trkpt>
      <trkpt lat="42.9587990" lon="1.4830270">
        <ele>621.1</ele>
        <time>2022-06-26T08:10:52Z</time>
      </trkpt>
      <trkpt lat="42.9588470" lon="1.4829180">
        <ele>620.4</ele>
        <time>2022-06-26T08:10:53Z</time>
      </trkpt>
      <trkpt lat="42.9589060" lon="1.4828100">
        <ele>619.7</ele>
        <time>2022-06-26T08:10:54Z</time>
      </trkpt>
      <trkpt lat="42.9590300" lon="1.4825920">
        <ele>618.4</ele>
        <time>2022-06-26T08:10:56Z</time>
      </trkpt>
      <trkpt lat="42.9591130" lon="1.4824090">
        <ele>617.4</ele>
        <time>2022-06-26T08:10:58Z</time>
      </trkpt>
      <trkpt lat="42.9591530" lon="1.4823360">
        <ele>617.0</ele>
        <time>2022-06-26T08:10:59Z</time>
      </trkpt>
      <trkpt lat="42.9592030" lon="1.4822890">
        <ele>616.6</ele>
        <time>2022-06-26T08:11:00Z</time>
      </trkpt>
      <trkpt lat="42.9592650" lon="1.4822610">
        <ele>616.1</ele>
        <time>2022-06-26T08:11:01Z</time>
      </trkpt>
      <trkpt lat="42.9594160" lon="1.4823200">
        <ele>615.0</ele>
        <time>2022-06-26T08:11:03Z</time>
      </trkpt>
      <trkpt lat="42.9594620" lon="1.4823690">
        <ele>614.6</ele>
        <time>2022-06-26T08:11:04Z</time>
      </trkpt>
      <trkpt lat="42.9594930" lon="1.4824370">
        <ele>614.2</ele>
        <time>2022-06-26T08:11:05Z</time>
      </trkpt>
      <trkpt lat="42.9594290" lon="1.4825720">
        <ele>613.5</ele>
        <time>2022-06-26T08:11:07Z</time>
      </trkpt>
      <trkpt lat="42.9594040" lon="1.4826540">
        <ele>613.1</ele>
        <time>2022-06-26T08:11:09Z</time>
      </trkpt>
      <trkpt lat="42.9593390" lon="1.4829390">
        <ele>612.0</ele>
        <time>2022-06-26T08:11:11Z</time>
      </trkpt>
      <trkpt lat="42.9593340" lon="1.4830410">
        <ele>611.7</ele>
        <time>2022-06-26T08:11:12Z</time>
      </trkpt>
      <trkpt lat="42.9593500" lon="1.4831390">
        <ele>611.4</ele>
        <time>2022-06-26T08:11:13Z</time>
      </trkpt>
      <trkpt lat="42.9593660" lon="1.4832520">
        <ele>611.1</ele>
        <time>2022-06-26T08:11:14Z</time>
      </trkpt>
      <trkpt lat="42.9593540" lon="1.4834590">
        <ele>610.5</ele>
        <time>2022-06-26T08:11:16Z</time>
      </trkpt>
      <trkpt lat="42.9592620" lon="1.4837680">
        <ele>609.5</ele>
        <time>2022-06-26T08:11:19Z</time>
      </trkpt>
      <trkpt lat="42.9591080" lon="1.4840550">
        <ele>608.3</ele>
        <time>2022-06-26T08:11:22Z</time>
      </trkpt>
      <trkpt lat="42.9589520" lon="1.4841870">
        <ele>607.4</ele>
        <time>2022-06-26T08:11:24Z</time>
      </trkpt>
      <trkpt lat="42.9588860" lon="1.4842680">
        <ele>607.0</ele>
        <time>2022-06-26T08:11:25Z</time>
      </trkpt>
      <trkpt lat="42.9586860" lon="1.4846790">
        <ele>605.6</ele>
        <time>2022-06-26T08:11:29Z</time>
      </trkpt>
      <trkpt lat="42.9585730" lon="1.4850160">
        <ele>604.5</ele>
        <time>2022-06-26T08:11:32Z</time>
      </trkpt>
      <trkpt lat="42.9585140" lon="1.4852620">
        <ele>603.8</ele>
        <time>2022-06-26T08:11:34Z</time>
      </trkpt>
      <trkpt lat="42.9584890" lon="1.4853870">
        <ele>603.5</ele>
        <time>2022-06-26T08:11:35Z</time>
      </trkpt>
      <trkpt lat="42.9584920" lon="1.4855240">
        <ele>603.3</ele>
        <time>2022-06-26T08:11:36Z</time>
      </trkpt>
      <trkpt lat="42.9584850" lon="1.4857690">
        <ele>602.8</ele>
        <time>2022-06-26T08:11:38Z</time>
      </trkpt>
      <trkpt lat="42.9584520" lon="1.4861160">
        <ele>602.1</ele>
        <time>2022-06-26T08:11:41Z</time>
      </trkpt>
      <trkpt lat="42.9583970" lon="1.4863650">
        <ele>601.4</ele>
        <time>2022-06-26T08:11:43Z</time>
      </trkpt>
      <trkpt lat="42.9583690" lon="1.4864880">
        <ele>601.1</ele>
        <time>2022-06-26T08:11:44Z</time>
      </trkpt>
      <trkpt lat="42.9582760" lon="1.4868470">
        <ele>600.0</ele>
        <time>2022-06-26T08:11:47Z</time>
      </trkpt>
      <trkpt lat="42.9582350" lon="1.4869690">
        <ele>599.7</ele>
        <time>2022-06-26T08:11:48Z</time>
      </trkpt>
      <trkpt lat="42.9581450" lon="1.4872030">
        <ele>599.0</ele>
        <time>2022-06-26T08:11:50Z</time>
      </trkpt>
      <trkpt lat="42.9580910" lon="1.4873060">
        <ele>598.6</ele>
        <time>2022-06-26T08:11:51Z</time>
      </trkpt>
      <trkpt lat="42.9580360" lon="1.4874010">
        <ele>598.3</ele>
        <time>2022-06-26T08:11:52Z</time>
      </trkpt>
      <trkpt lat="42.9579880" lon="1.4875020">
        <ele>598.0</ele>
        <time>2022-06-26T08:11:53Z</time>
      </trkpt>
      <trkpt lat="42.9579390" lon="1.4877340">
        <ele>597.3</ele>
        <time>2022-06-26T08:11:55Z</time>
      </trkpt>
      <trkpt lat="42.9579280" lon="1.4878520">
        <ele>597.0</ele>
        <time>2022-06-26T08:11:56Z</time>
      </trkpt>
      <trkpt lat="42.9579250" lon="1.4881000">
        <ele>596.4</ele>
        <time>2022-06-26T08:11:58Z</time>
      </trkpt>
      <trkpt lat="42.9579170" lon="1.4882310">
        <ele>596.0</ele>
        <time>2022-06-26T08:11:59Z</time>
      </trkpt>
      <trkpt lat="42.9579010" lon="1.4883580">
        <ele>595.6</ele>
        <time>2022-06-26T08:12:00Z</time>
      </trkpt>
      <trkpt lat="42.9578380" lon="1.4886160">
        <ele>594.7</ele>
        <time>2022-06-26T08:12:02Z</time>
      </trkpt>
      <trkpt lat="42.9578020" lon="1.4887390">
        <ele>594.3</ele>
        <time>2022-06-26T08:12:03Z</time>
      </trkpt>
      <trkpt lat="42.9577700" lon="1.4888560">
        <ele>594.0</ele>
        <time>2022-06-26T08:12:04Z</time>
      </trkpt>
      <trkpt lat="42.9577390" lon="1.4891070">
        <ele>593.1</ele>
        <time>2022-06-26T08:12:06Z</time>
      </trkpt>
      <trkpt lat="42.9577320" lon="1.4892300">
        <ele>592.8</ele>
        <time>2022-06-26T08:12:07Z</time>
      </trkpt>
      <trkpt lat="42.9577460" lon="1.4894700">
        <ele>592.1</ele>
        <time>2022-06-26T08:12:09Z</time>
      </trkpt>
      <trkpt lat="42.9577770" lon="1.4895910">
        <ele>591.7</ele>
        <time>2022-06-26T08:12:10Z</time>
      </trkpt>
      <trkpt lat="42.9578170" lon="1.4897040">
        <ele>591.4</ele>
        <time>2022-06-26T08:12:11Z</time>
      </trkpt>
      <trkpt lat="42.9578940" lon="1.4899090">
        <ele>590.8</ele>
        <time>2022-06-26T08:12:13Z</time>
      </trkpt>
      <trkpt lat="42.9579420" lon="1.4899970">
        <ele>590.5</ele>
        <time>2022-06-26T08:12:14Z</time>
      </trkpt>
      <trkpt lat="42.9579920" lon="1.4900790">
        <ele>590.2</ele>
        <time>2022-06-26T08:12:15Z</time>
      </trkpt>
      <trkpt lat="42.9580450" lon="1.4901540">
        <ele>589.9</ele>
        <time>2022-06-26T08:12:16Z</time>
      </trkpt>
      <trkpt lat="42.9581630" lon="1.4902890">
        <ele>589.3</ele>
        <time>2022-06-26T08:12:18Z</time>
      </trkpt>
      <trkpt lat="42.9582200" lon="1.4903510">
        <ele>589.0</ele>
        <time>2022-06-26T08:12:19Z</time>
      </trkpt>
      <trkpt lat="42.9583250" lon="1.4904420">
        <ele>588.5</ele>
        <time>2022-06-26T08:12:20Z</time>
      </trkpt>
      <trkpt lat="42.9584300" lon="1.4905320">
        <ele>587.9</ele>
        <time>2022-06-26T08:12:22Z</time>
      </trkpt>
      <trkpt lat="42.9585020" lon="1.4906120">
        <ele>587.5</ele>
        <time>2022-06-26T08:12:23Z</time>
      </trkpt>
      <trkpt lat="42.9585670" lon="1.4907020">
        <ele>587.1</ele>
        <time>2022-06-26T08:12:24Z</time>
      </trkpt>
      <trkpt lat="42.9586210" lon="1.4907970">
        <ele>586.7</ele>
        <time>2022-06-26T08:12:25Z</time>
      </trkpt>
      <trkpt lat="42.9586800" lon="1.4909030">
        <ele>586.3</ele>
        <time>2022-06-26T08:12:26Z</time>
      </trkpt>
      <trkpt lat="42.9587810" lon="1.4910920">
        <ele>585.6</ele>
        <time>2022-06-26T08:12:28Z</time>
      </trkpt>
      <trkpt lat="42.9588970" lon="1.4912790">
        <ele>584.9</ele>
        <time>2022-06-26T08:12:30Z</time>
      </trkpt>
      <trkpt lat="42.9590290" lon="1.4914390">
        <ele>584.2</ele>
        <time>2022-06-26T08:12:32Z</time>
      </trkpt>
      <trkpt lat="42.9591030" lon="1.4915110">
        <ele>583.8</ele>
        <time>2022-06-26T08:12:33Z</time>
      </trkpt>
      <trkpt lat="42.9592490" lon="1.4916580">
        <ele>583.1</ele>
        <time>2022-06-26T08:12:35Z</time>
      </trkpt>
      <trkpt lat="42.9593250" lon="1.4917340">
        <ele>582.7</ele>
        <time>2022-06-26T08:12:36Z</time>
      </trkpt>
      <trkpt lat="42.9594770" lon="1.4918830">
        <ele>582.1</ele>
        <time>2022-06-26T08:12:38Z</time>
      </trkpt>
      <trkpt lat="42.9595420" lon="1.4919720">
        <ele>581.8</ele>
        <time>2022-06-26T08:12:39Z</time>
      </trkpt>
      <trkpt lat="42.9596090" lon="1.4920650">
        <ele>581.4</ele>
        <time>2022-06-26T08:12:40Z</time>
      </trkpt>
      <trkpt lat="42.9596760" lon="1.4921620">
        <ele>581.1</ele>
        <time>2022-06-26T08:12:41Z</time>
      </trkpt>
      <trkpt lat="42.9597920" lon="1.4923640">
        <ele>580.4</ele>
        <time>2022-06-26T08:12:43Z</time>
      </trkpt>
      <trkpt lat="42.9598880" lon="1.4925650">
        <ele>579.6</ele>
        <time>2022-06-26T08:12:45Z</time>
      </trkpt>
      <trkpt lat="42.9599420" lon="1.4926570">
        <ele>579.1</ele>
        <time>2022-06-26T08:12:46Z</time>
      </trkpt>
      <trkpt lat="42.9600040" lon="1.4927490">
        <ele>578.6</ele>
        <time>2022-06-26T08:12:47Z</time>
      </trkpt>
      <trkpt lat="42.9601730" lon="1.4929390">
        <ele>577.3</ele>
        <time>2022-06-26T08:12:49Z</time>
      </trkpt>
      <trkpt lat="42.9602470" lon="1.4930330">
        <ele>576.6</ele>
        <time>2022-06-26T08:12:50Z</time>
      </trkpt>
      <trkpt lat="42.9604380" lon="1.4932610">
        <ele>575.0</ele>
        <time>2022-06-26T08:12:52Z</time>
      </trkpt>
      <trkpt lat="42.9604990" lon="1.4933820">
        <ele>574.3</ele>
        <time>2022-06-26T08:12:53Z</time>
      </trkpt>
      <trkpt lat="42.9605640" lon="1.4935160">
        <ele>573.6</ele>
        <time>2022-06-26T08:12:54Z</time>
      </trkpt>
      <trkpt lat="42.9606690" lon="1.4937890">
        <ele>572.4</ele>
        <time>2022-06-26T08:12:56Z</time>
      </trkpt>
      <trkpt lat="42.9607620" lon="1.4940670">
        <ele>571.3</ele>
        <time>2022-06-26T08:12:58Z</time>
      </trkpt>
      <trkpt lat="42.9608130" lon="1.4942040">
        <ele>570.8</ele>
        <time>2022-06-26T08:12:59Z</time>
      </trkpt>
      <trkpt lat="42.9609560" lon="1.4945470">
        <ele>569.6</ele>
        <time>2022-06-26T08:13:02Z</time>
      </trkpt>
      <trkpt lat="42.9610000" lon="1.4946400">
        <ele>569.4</ele>
        <time>2022-06-26T08:13:03Z</time>
      </trkpt>
      <trkpt lat="42.9610470" lon="1.4947190">
        <ele>569.1</ele>
        <time>2022-06-26T08:13:04Z</time>
      </trkpt>
      <trkpt lat="42.9611070" lon="1.4947850">
        <ele>568.9</ele>
        <time>2022-06-26T08:13:05Z</time>
      </trkpt>
      <trkpt lat="42.9611710" lon="1.4948340">
        <ele>568.6</ele>
        <time>2022-06-26T08:13:06Z</time>
      </trkpt>
      <trkpt lat="42.9613120" lon="1.4948760">
        <ele>568.0</ele>
        <time>2022-06-26T08:13:08Z</time>
      </trkpt>
      <trkpt lat="42.9613860" lon="1.4948850">
        <ele>567.7</ele>
        <time>2022-06-26T08:13:09Z</time>
      </trkpt>
      <trkpt lat="42.9615350" lon="1.4948970">
        <ele>567.1</ele>
        <time>2022-06-26T08:13:11Z</time>
      </trkpt>
      <trkpt lat="42.9616830" lon="1.4949200">
        <ele>566.5</ele>
        <time>2022-06-26T08:13:13Z</time>
      </trkpt>
      <trkpt lat="42.9617610" lon="1.4949400">
        <ele>566.2</ele>
        <time>2022-06-26T08:13:14Z</time>
      </trkpt>
      <trkpt lat="42.9618400" lon="1.4949770">
        <ele>565.9</ele>
        <time>2022-06-26T08:13:15Z</time>
      </trkpt>
      <trkpt lat="42.9619860" lon="1.4950770">
        <ele>565.1</ele>
        <time>2022-06-26T08:13:17Z</time>
      </trkpt>
      <trkpt lat="42.9622080" lon="1.4952470">
        <ele>564.0</ele>
        <time>2022-06-26T08:13:20Z</time>
      </trkpt>
      <trkpt lat="42.9622890" lon="1.4953040">
        <ele>563.6</ele>
        <time>2022-06-26T08:13:21Z</time>
      </trkpt>
      <trkpt lat="42.9624710" lon="1.4953880">
        <ele>562.7</ele>
        <time>2022-06-26T08:13:23Z</time>
      </trkpt>
      <trkpt lat="42.9625700" lon="1.4954260">
        <ele>562.3</ele>
        <time>2022-06-26T08:13:24Z</time>
      </trkpt>
      <trkpt lat="42.9627420" lon="1.4954870">
        <ele>561.5</ele>
        <time>2022-06-26T08:13:26Z</time>
      </trkpt>
      <trkpt lat="42.9629260" lon="1.4955440">
        <ele>560.6</ele>
        <time>2022-06-26T08:13:28Z</time>
      </trkpt>
      <trkpt lat="42.9631700" lon="1.4957490">
        <ele>559.4</ele>
        <time>2022-06-26T08:13:31Z</time>
      </trkpt>
      <trkpt lat="42.9633510" lon="1.4960440">
        <ele>558.3</ele>
        <time>2022-06-26T08:13:34Z</time>
      </trkpt>
      <trkpt lat="42.9634040" lon="1.4961510">
        <ele>557.9</ele>
        <time>2022-06-26T08:13:35Z</time>
      </trkpt>
      <trkpt lat="42.9634540" lon="1.4962520">
        <ele>557.6</ele>
        <time>2022-06-26T08:13:36Z</time>
      </trkpt>
      <trkpt lat="42.9635810" lon="1.4965740">
        <ele>556.5</ele>
        <time>2022-06-26T08:13:39Z</time>
      </trkpt>
      <trkpt lat="42.9636370" lon="1.4968180">
        <ele>555.9</ele>
        <time>2022-06-26T08:13:41Z</time>
      </trkpt>
      <trkpt lat="42.9636790" lon="1.4970650">
        <ele>555.1</ele>
        <time>2022-06-26T08:13:43Z</time>
      </trkpt>
      <trkpt lat="42.9637120" lon="1.4974280">
        <ele>553.8</ele>
        <time>2022-06-26T08:13:46Z</time>
      </trkpt>
      <trkpt lat="42.9637090" lon="1.4979320">
        <ele>552.5</ele>
        <time>2022-06-26T08:13:50Z</time>
      </trkpt>
      <trkpt lat="42.9637030" lon="1.4980440">
        <ele>552.2</ele>
        <time>2022-06-26T08:13:51Z</time>
      </trkpt>
      <trkpt lat="42.9636880" lon="1.4982550">
        <ele>551.6</ele>
        <time>2022-06-26T08:13:53Z</time>
      </trkpt>
      <trkpt lat="42.9636720" lon="1.4984690">
        <ele>551.1</ele>
        <time>2022-06-26T08:13:55Z</time>
      </trkpt>
      <trkpt lat="42.9636570" lon="1.4985700">
        <ele>550.8</ele>
        <time>2022-06-26T08:13:56Z</time>
      </trkpt>
      <trkpt lat="42.9636320" lon="1.4986620">
        <ele>550.6</ele>
        <time>2022-06-26T08:13:57Z</time>
      </trkpt>
      <trkpt lat="42.9635920" lon="1.4988680">
        <ele>549.9</ele>
        <time>2022-06-26T08:13:59Z</time>
      </trkpt>
      <trkpt lat="42.9635650" lon="1.4989670">
        <ele>549.7</ele>
        <time>2022-06-26T08:14:00Z</time>
      </trkpt>
      <trkpt lat="42.9635330" lon="1.4990650">
        <ele>549.4</ele>
        <time>2022-06-26T08:14:01Z</time>
      </trkpt>
      <trkpt lat="42.9635080" lon="1.4991710">
        <ele>549.1</ele>
        <time>2022-06-26T08:14:03Z</time>
      </trkpt>
      <trkpt lat="42.9634500" lon="1.4993830">
        <ele>548.4</ele>
        <time>2022-06-26T08:14:05Z</time>
      </trkpt>
      <trkpt lat="42.9633510" lon="1.4997000">
        <ele>547.1</ele>
        <time>2022-06-26T08:14:08Z</time>
      </trkpt>
      <trkpt lat="42.9632950" lon="1.4998890">
        <ele>546.3</ele>
        <time>2022-06-26T08:14:09Z</time>
      </trkpt>
      <trkpt lat="42.9632780" lon="1.5000030">
        <ele>545.9</ele>
        <time>2022-06-26T08:14:11Z</time>
      </trkpt>
      <trkpt lat="42.9632820" lon="1.5001310">
        <ele>545.4</ele>
        <time>2022-06-26T08:14:12Z</time>
      </trkpt>
      <trkpt lat="42.9633320" lon="1.5003640">
        <ele>544.6</ele>
        <time>2022-06-26T08:14:14Z</time>
      </trkpt>
      <trkpt lat="42.9635480" lon="1.5006940">
        <ele>543.3</ele>
        <time>2022-06-26T08:14:17Z</time>
      </trkpt>
      <trkpt lat="42.9636180" lon="1.5007510">
        <ele>542.9</ele>
        <time>2022-06-26T08:14:19Z</time>
      </trkpt>
      <trkpt lat="42.9636830" lon="1.5008010">
        <ele>542.7</ele>
        <time>2022-06-26T08:14:20Z</time>
      </trkpt>
      <trkpt lat="42.9638240" lon="1.5008940">
        <ele>542.1</ele>
        <time>2022-06-26T08:14:21Z</time>
      </trkpt>
      <trkpt lat="42.9639070" lon="1.5009350">
        <ele>541.8</ele>
        <time>2022-06-26T08:14:22Z</time>
      </trkpt>
      <trkpt lat="42.9640790" lon="1.5009860">
        <ele>541.2</ele>
        <time>2022-06-26T08:14:24Z</time>
      </trkpt>
      <trkpt lat="42.9642280" lon="1.5010510">
        <ele>540.7</ele>
        <time>2022-06-26T08:14:26Z</time>
      </trkpt>
      <trkpt lat="42.9642830" lon="1.5010940">
        <ele>540.4</ele>
        <time>2022-06-26T08:14:27Z</time>
      </trkpt>
      <trkpt lat="42.9643350" lon="1.5011500">
        <ele>540.2</ele>
        <time>2022-06-26T08:14:28Z</time>
      </trkpt>
      <trkpt lat="42.9644290" lon="1.5013260">
        <ele>539.7</ele>
        <time>2022-06-26T08:14:30Z</time>
      </trkpt>
      <trkpt lat="42.9644330" lon="1.5015270">
        <ele>539.1</ele>
        <time>2022-06-26T08:14:32Z</time>
      </trkpt>
      <trkpt lat="42.9644060" lon="1.5016150">
        <ele>538.4</ele>
        <time>2022-06-26T08:14:34Z</time>
      </trkpt>
      <trkpt lat="42.9643590" lon="1.5016830">
        <ele>538.1</ele>
        <time>2022-06-26T08:14:35Z</time>
      </trkpt>
      <trkpt lat="42.9643060" lon="1.5017490">
        <ele>537.8</ele>
        <time>2022-06-26T08:14:36Z</time>
      </trkpt>
      <trkpt lat="42.9642590" lon="1.5018230">
        <ele>537.6</ele>
        <time>2022-06-26T08:14:37Z</time>
      </trkpt>
      <trkpt lat="42.9642200" lon="1.5019170">
        <ele>537.2</ele>
        <time>2022-06-26T08:14:38Z</time>
      </trkpt>
      <trkpt lat="42.9641720" lon="1.5021390">
        <ele>536.5</ele>
        <time>2022-06-26T08:14:40Z</time>
      </trkpt>
      <trkpt lat="42.9641570" lon="1.5022500">
        <ele>536.3</ele>
        <time>2022-06-26T08:14:41Z</time>
      </trkpt>
      <trkpt lat="42.9641550" lon="1.5024930">
        <ele>535.6</ele>
        <time>2022-06-26T08:14:43Z</time>
      </trkpt>
      <trkpt lat="42.9641620" lon="1.5026170">
        <ele>535.2</ele>
        <time>2022-06-26T08:14:44Z</time>
      </trkpt>
      <trkpt lat="42.9641670" lon="1.5027420">
        <ele>534.8</ele>
        <time>2022-06-26T08:14:45Z</time>
      </trkpt>
      <trkpt lat="42.9641920" lon="1.5032490">
        <ele>533.3</ele>
        <time>2022-06-26T08:14:49Z</time>
      </trkpt>
      <trkpt lat="42.9641980" lon="1.5033740">
        <ele>532.9</ele>
        <time>2022-06-26T08:14:50Z</time>
      </trkpt>
      <trkpt lat="42.9642180" lon="1.5036290">
        <ele>532.1</ele>
        <time>2022-06-26T08:14:52Z</time>
      </trkpt>
      <trkpt lat="42.9642440" lon="1.5037610">
        <ele>531.7</ele>
        <time>2022-06-26T08:14:53Z</time>
      </trkpt>
      <trkpt lat="42.9643010" lon="1.5040110">
        <ele>530.9</ele>
        <time>2022-06-26T08:14:55Z</time>
      </trkpt>
      <trkpt lat="42.9644180" lon="1.5043660">
        <ele>529.8</ele>
        <time>2022-06-26T08:14:58Z</time>
      </trkpt>
      <trkpt lat="42.9645040" lon="1.5046230">
        <ele>528.9</ele>
        <time>2022-06-26T08:15:00Z</time>
      </trkpt>
      <trkpt lat="42.9645400" lon="1.5047560">
        <ele>528.5</ele>
        <time>2022-06-26T08:15:01Z</time>
      </trkpt>
      <trkpt lat="42.9646260" lon="1.5052660">
        <ele>527.2</ele>
        <time>2022-06-26T08:15:04Z</time>
      </trkpt>
      <trkpt lat="42.9646310" lon="1.5053300">
        <ele>527.0</ele>
        <time>2022-06-26T08:15:05Z</time>
      </trkpt>
      <trkpt lat="42.9646360" lon="1.5053950">
        <ele>526.9</ele>
        <time>2022-06-26T08:15:06Z</time>
      </trkpt>
      <trkpt lat="42.9646670" lon="1.5057840">
        <ele>525.9</ele>
        <time>2022-06-26T08:15:09Z</time>
      </trkpt>
      <trkpt lat="42.9646600" lon="1.5059040">
        <ele>525.6</ele>
        <time>2022-06-26T08:15:10Z</time>
      </trkpt>
      <trkpt lat="42.9646480" lon="1.5060270">
        <ele>525.3</ele>
        <time>2022-06-26T08:15:11Z</time>
      </trkpt>
      <trkpt lat="42.9646150" lon="1.5062680">
        <ele>524.6</ele>
        <time>2022-06-26T08:15:13Z</time>
      </trkpt>
      <trkpt lat="42.9645390" lon="1.5066250">
        <ele>523.5</ele>
        <time>2022-06-26T08:15:16Z</time>
      </trkpt>
      <trkpt lat="42.9645040" lon="1.5067440">
        <ele>523.2</ele>
        <time>2022-06-26T08:15:17Z</time>
      </trkpt>
      <trkpt lat="42.9643810" lon="1.5070920">
        <ele>522.0</ele>
        <time>2022-06-26T08:15:20Z</time>
      </trkpt>
      <trkpt lat="42.9642090" lon="1.5075650">
        <ele>520.5</ele>
        <time>2022-06-26T08:15:24Z</time>
      </trkpt>
      <trkpt lat="42.9641680" lon="1.5076870">
        <ele>520.2</ele>
        <time>2022-06-26T08:15:25Z</time>
      </trkpt>
      <trkpt lat="42.9640910" lon="1.5079300">
        <ele>519.6</ele>
        <time>2022-06-26T08:15:27Z</time>
      </trkpt>
      <trkpt lat="42.9640040" lon="1.5083080">
        <ele>518.7</ele>
        <time>2022-06-26T08:15:30Z</time>
      </trkpt>
      <trkpt lat="42.9639850" lon="1.5084360">
        <ele>518.5</ele>
        <time>2022-06-26T08:15:31Z</time>
      </trkpt>
      <trkpt lat="42.9639680" lon="1.5085610">
        <ele>518.4</ele>
        <time>2022-06-26T08:15:32Z</time>
      </trkpt>
      <trkpt lat="42.9639340" lon="1.5088040">
        <ele>518.1</ele>
        <time>2022-06-26T08:15:34Z</time>
      </trkpt>
      <trkpt lat="42.9638990" lon="1.5091770">
        <ele>517.7</ele>
        <time>2022-06-26T08:15:37Z</time>
      </trkpt>
      <trkpt lat="42.9638710" lon="1.5095160">
        <ele>517.2</ele>
        <time>2022-06-26T08:15:40Z</time>
      </trkpt>
      <trkpt lat="42.9638520" lon="1.5097360">
        <ele>517.0</ele>
        <time>2022-06-26T08:15:42Z</time>
      </trkpt>
      <trkpt lat="42.9638530" lon="1.5098550">
        <ele>516.8</ele>
        <time>2022-06-26T08:15:43Z</time>
      </trkpt>
      <trkpt lat="42.9638900" lon="1.5101910">
        <ele>516.7</ele>
        <time>2022-06-26T08:15:46Z</time>
      </trkpt>
      <trkpt lat="42.9639010" lon="1.5103000">
        <ele>516.6</ele>
        <time>2022-06-26T08:15:47Z</time>
      </trkpt>
      <trkpt lat="42.9639180" lon="1.5105230">
        <ele>516.5</ele>
        <time>2022-06-26T08:15:49Z</time>
      </trkpt>
      <trkpt lat="42.9639380" lon="1.5107420">
        <ele>516.4</ele>
        <time>2022-06-26T08:15:51Z</time>
      </trkpt>
      <trkpt lat="42.9639720" lon="1.5110680">
        <ele>516.1</ele>
        <time>2022-06-26T08:15:54Z</time>
      </trkpt>
      <trkpt lat="42.9640320" lon="1.5116080">
        <ele>515.6</ele>
        <time>2022-06-26T08:15:59Z</time>
      </trkpt>
      <trkpt lat="42.9640420" lon="1.5117150">
        <ele>515.6</ele>
        <time>2022-06-26T08:16:00Z</time>
      </trkpt>
      <trkpt lat="42.9640260" lon="1.5122360">
        <ele>514.8</ele>
        <time>2022-06-26T08:16:05Z</time>
      </trkpt>
      <trkpt lat="42.9640100" lon="1.5123440">
        <ele>514.6</ele>
        <time>2022-06-26T08:16:06Z</time>
      </trkpt>
      <trkpt lat="42.9639310" lon="1.5127820">
        <ele>513.5</ele>
        <time>2022-06-26T08:16:10Z</time>
      </trkpt>
      <trkpt lat="42.9638910" lon="1.5131300">
        <ele>512.5</ele>
        <time>2022-06-26T08:16:13Z</time>
      </trkpt>
      <trkpt lat="42.9638810" lon="1.5133650">
        <ele>511.7</ele>
        <time>2022-06-26T08:16:15Z</time>
      </trkpt>
      <trkpt lat="42.9638880" lon="1.5134830">
        <ele>511.3</ele>
        <time>2022-06-26T08:16:16Z</time>
      </trkpt>
      <trkpt lat="42.9639530" lon="1.5138600">
        <ele>510.2</ele>
        <time>2022-06-26T08:16:19Z</time>
      </trkpt>
      <trkpt lat="42.9640890" lon="1.5145080">
        <ele>508.3</ele>
        <time>2022-06-26T08:16:24Z</time>
      </trkpt>
      <trkpt lat="42.9641980" lon="1.5148910">
        <ele>507.6</ele>
        <time>2022-06-26T08:16:27Z</time>
      </trkpt>
      <trkpt lat="42.9642910" lon="1.5151270">
        <ele>507.2</ele>
        <time>2022-06-26T08:16:29Z</time>
      </trkpt>
      <trkpt lat="42.9644770" lon="1.5155750">
        <ele>506.6</ele>
        <time>2022-06-26T08:16:33Z</time>
      </trkpt>
      <trkpt lat="42.9645270" lon="1.5156790">
        <ele>506.5</ele>
        <time>2022-06-26T08:16:34Z</time>
      </trkpt>
      <trkpt lat="42.9646870" lon="1.5159820">
        <ele>506.2</ele>
        <time>2022-06-26T08:16:37Z</time>
      </trkpt>
      <trkpt lat="42.9648550" lon="1.5162680">
        <ele>505.9</ele>
        <time>2022-06-26T08:16:40Z</time>
      </trkpt>
      <trkpt lat="42.9649710" lon="1.5164500">
        <ele>505.8</ele>
        <time>2022-06-26T08:16:42Z</time>
      </trkpt>
      <trkpt lat="42.9651440" lon="1.5167100">
        <ele>505.6</ele>
        <time>2022-06-26T08:16:45Z</time>
      </trkpt>
      <trkpt lat="42.9654110" lon="1.5171260">
        <ele>505.3</ele>
        <time>2022-06-26T08:16:49Z</time>
      </trkpt>
      <trkpt lat="42.9654920" lon="1.5173100">
        <ele>504.8</ele>
        <time>2022-06-26T08:16:51Z</time>
      </trkpt>
      <trkpt lat="42.9655930" lon="1.5176110">
        <ele>504.1</ele>
        <time>2022-06-26T08:16:54Z</time>
      </trkpt>
      <trkpt lat="42.9657220" lon="1.5180400">
        <ele>503.2</ele>
        <time>2022-06-26T08:16:58Z</time>
      </trkpt>
      <trkpt lat="42.9658200" lon="1.5183760">
        <ele>502.4</ele>
        <time>2022-06-26T08:17:02Z</time>
      </trkpt>
      <trkpt lat="42.9659850" lon="1.5189460">
        <ele>501.4</ele>
        <time>2022-06-26T08:17:07Z</time>
      </trkpt>
      <trkpt lat="42.9660930" lon="1.5192840">
        <ele>500.9</ele>
        <time>2022-06-26T08:17:10Z</time>
      </trkpt>
      <trkpt lat="42.9662170" lon="1.5196080">
        <ele>500.6</ele>
        <time>2022-06-26T08:17:13Z</time>
      </trkpt>
      <trkpt lat="42.9663900" lon="1.5200140">
        <ele>500.1</ele>
        <time>2022-06-26T08:17:17Z</time>
      </trkpt>
      <trkpt lat="42.9665930" lon="1.5205100">
        <ele>499.7</ele>
        <time>2022-06-26T08:17:21Z</time>
      </trkpt>
      <trkpt lat="42.9667230" lon="1.5208040">
        <ele>499.5</ele>
        <time>2022-06-26T08:17:25Z</time>
      </trkpt>
      <trkpt lat="42.9668080" lon="1.5209950">
        <ele>499.4</ele>
        <time>2022-06-26T08:17:27Z</time>
      </trkpt>
      <trkpt lat="42.9669520" lon="1.5212710">
        <ele>499.2</ele>
        <time>2022-06-26T08:17:30Z</time>
      </trkpt>
      <trkpt lat="42.9672030" lon="1.5217130">
        <ele>498.9</ele>
        <time>2022-06-26T08:17:35Z</time>
      </trkpt>
      <trkpt lat="42.9674640" lon="1.5221380">
        <ele>498.6</ele>
        <time>2022-06-26T08:17:40Z</time>
      </trkpt>
      <trkpt lat="42.9675700" lon="1.5223090">
        <ele>498.4</ele>
        <time>2022-06-26T08:17:42Z</time>
      </trkpt>
      <trkpt lat="42.9677250" lon="1.5225710">
        <ele>498.2</ele>
        <time>2022-06-26T08:17:45Z</time>
      </trkpt>
      <trkpt lat="42.9679270" lon="1.5229140">
        <ele>497.9</ele>
        <time>2022-06-26T08:17:49Z</time>
      </trkpt>
      <trkpt lat="42.9680250" lon="1.5230810">
        <ele>497.8</ele>
        <time>2022-06-26T08:17:51Z</time>
      </trkpt>
      <trkpt lat="42.9681090" lon="1.5232560">
        <ele>497.6</ele>
        <time>2022-06-26T08:17:53Z</time>
      </trkpt>
      <trkpt lat="42.9682060" lon="1.5235380">
        <ele>497.3</ele>
        <time>2022-06-26T08:17:56Z</time>
      </trkpt>
      <trkpt lat="42.9682340" lon="1.5236330">
        <ele>497.2</ele>
        <time>2022-06-26T08:17:57Z</time>
      </trkpt>
      <trkpt lat="42.9683610" lon="1.5240100">
        <ele>496.4</ele>
        <time>2022-06-26T08:18:01Z</time>
      </trkpt>
      <trkpt lat="42.9684820" lon="1.5242860">
        <ele>495.7</ele>
        <time>2022-06-26T08:18:04Z</time>
      </trkpt>
      <trkpt lat="42.9685310" lon="1.5243770">
        <ele>495.4</ele>
        <time>2022-06-26T08:18:05Z</time>
      </trkpt>
      <trkpt lat="42.9687830" lon="1.5248540">
        <ele>493.7</ele>
        <time>2022-06-26T08:18:10Z</time>
      </trkpt>
      <trkpt lat="42.9689380" lon="1.5253580">
        <ele>491.9</ele>
        <time>2022-06-26T08:18:14Z</time>
      </trkpt>
      <trkpt lat="42.9689380" lon="1.5253580">
        <ele>491.9</ele>
        <time>2022-06-26T08:18:15Z</time>
      </trkpt>
      <trkpt lat="42.9689760" lon="1.5258160">
        <ele>490.5</ele>
        <time>2022-06-26T08:18:19Z</time>
      </trkpt>
      <trkpt lat="42.9689930" lon="1.5260540">
        <ele>490.1</ele>
        <time>2022-06-26T08:18:20Z</time>
      </trkpt>
      <trkpt lat="42.9690110" lon="1.5262970">
        <ele>489.7</ele>
        <time>2022-06-26T08:18:23Z</time>
      </trkpt>
      <trkpt lat="42.9689970" lon="1.5265370">
        <ele>489.3</ele>
        <time>2022-06-26T08:18:25Z</time>
      </trkpt>
      <trkpt lat="42.9689760" lon="1.5266550">
        <ele>489.1</ele>
        <time>2022-06-26T08:18:26Z</time>
      </trkpt>
      <trkpt lat="42.9689430" lon="1.5267690">
        <ele>488.8</ele>
        <time>2022-06-26T08:18:27Z</time>
      </trkpt>
      <trkpt lat="42.9687960" lon="1.5270730">
        <ele>488.2</ele>
        <time>2022-06-26T08:18:30Z</time>
      </trkpt>
      <trkpt lat="42.9687390" lon="1.5271650">
        <ele>488.1</ele>
        <time>2022-06-26T08:18:31Z</time>
      </trkpt>
      <trkpt lat="42.9685650" lon="1.5274310">
        <ele>487.7</ele>
        <time>2022-06-26T08:18:34Z</time>
      </trkpt>
      <trkpt lat="42.9683960" lon="1.5276940">
        <ele>487.3</ele>
        <time>2022-06-26T08:18:37Z</time>
      </trkpt>
      <trkpt lat="42.9682870" lon="1.5278710">
        <ele>487.1</ele>
        <time>2022-06-26T08:18:38Z</time>
      </trkpt>
      <trkpt lat="42.9680000" lon="1.5282680">
        <ele>486.7</ele>
        <time>2022-06-26T08:18:43Z</time>
      </trkpt>
      <trkpt lat="42.9679310" lon="1.5283310">
        <ele>486.6</ele>
        <time>2022-06-26T08:18:44Z</time>
      </trkpt>
      <trkpt lat="42.9677920" lon="1.5284310">
        <ele>486.4</ele>
        <time>2022-06-26T08:18:46Z</time>
      </trkpt>
      <trkpt lat="42.9677140" lon="1.5284570">
        <ele>486.3</ele>
        <time>2022-06-26T08:18:47Z</time>
      </trkpt>
      <trkpt lat="42.9676380" lon="1.5284720">
        <ele>486.2</ele>
        <time>2022-06-26T08:18:48Z</time>
      </trkpt>
      <trkpt lat="42.9674800" lon="1.5284940">
        <ele>485.9</ele>
        <time>2022-06-26T08:18:51Z</time>
      </trkpt>
      <trkpt lat="42.9673280" lon="1.5285440">
        <ele>485.6</ele>
        <time>2022-06-26T08:18:53Z</time>
      </trkpt>
      <trkpt lat="42.9671100" lon="1.5286980">
        <ele>485.2</ele>
        <time>2022-06-26T08:18:56Z</time>
      </trkpt>
      <trkpt lat="42.9670390" lon="1.5287590">
        <ele>485.0</ele>
        <time>2022-06-26T08:18:57Z</time>
      </trkpt>
      <trkpt lat="42.9667570" lon="1.5290170">
        <ele>484.2</ele>
        <time>2022-06-26T08:19:00Z</time>
      </trkpt>
      <trkpt lat="42.9666280" lon="1.5291500">
        <ele>483.8</ele>
        <time>2022-06-26T08:19:03Z</time>
      </trkpt>
      <trkpt lat="42.9664360" lon="1.5293490">
        <ele>483.3</ele>
        <time>2022-06-26T08:19:06Z</time>
      </trkpt>
      <trkpt lat="42.9661720" lon="1.5296370">
        <ele>482.5</ele>
        <time>2022-06-26T08:19:09Z</time>
      </trkpt>
      <trkpt lat="42.9661060" lon="1.5297130">
        <ele>482.3</ele>
        <time>2022-06-26T08:19:11Z</time>
      </trkpt>
      <trkpt lat="42.9658340" lon="1.5300180">
        <ele>481.7</ele>
        <time>2022-06-26T08:19:15Z</time>
      </trkpt>
      <trkpt lat="42.9657700" lon="1.5300970">
        <ele>481.5</ele>
        <time>2022-06-26T08:19:16Z</time>
      </trkpt>
      <trkpt lat="42.9654730" lon="1.5305240">
        <ele>480.5</ele>
        <time>2022-06-26T08:19:21Z</time>
      </trkpt>
      <trkpt lat="42.9654240" lon="1.5306150">
        <ele>480.3</ele>
        <time>2022-06-26T08:19:22Z</time>
      </trkpt>
      <trkpt lat="42.9652390" lon="1.5309820">
        <ele>479.5</ele>
        <time>2022-06-26T08:19:26Z</time>
      </trkpt>
      <trkpt lat="42.9650330" lon="1.5313690">
        <ele>478.6</ele>
        <time>2022-06-26T08:19:30Z</time>
      </trkpt>
      <trkpt lat="42.9647930" lon="1.5318670">
        <ele>478.3</ele>
        <time>2022-06-26T08:19:35Z</time>
      </trkpt>
      <trkpt lat="42.9647190" lon="1.5320670">
        <ele>478.2</ele>
        <time>2022-06-26T08:19:37Z</time>
      </trkpt>
      <trkpt lat="42.9646280" lon="1.5323680">
        <ele>477.9</ele>
        <time>2022-06-26T08:19:40Z</time>
      </trkpt>
      <trkpt lat="42.9645890" lon="1.5325680">
        <ele>477.8</ele>
        <time>2022-06-26T08:19:42Z</time>
      </trkpt>
      <trkpt lat="42.9645790" lon="1.5326750">
        <ele>477.7</ele>
        <time>2022-06-26T08:19:43Z</time>
      </trkpt>
      <trkpt lat="42.9645830" lon="1.5332080">
        <ele>477.7</ele>
        <time>2022-06-26T08:19:48Z</time>
      </trkpt>
      <trkpt lat="42.9646490" lon="1.5338220">
        <ele>477.8</ele>
        <time>2022-06-26T08:19:54Z</time>
      </trkpt>
      <trkpt lat="42.9646610" lon="1.5339230">
        <ele>477.7</ele>
        <time>2022-06-26T08:19:55Z</time>
      </trkpt>
      <trkpt lat="42.9646900" lon="1.5342280">
        <ele>477.6</ele>
        <time>2022-06-26T08:19:58Z</time>
      </trkpt>
      <trkpt lat="42.9647260" lon="1.5345270">
        <ele>477.4</ele>
        <time>2022-06-26T08:20:01Z</time>
      </trkpt>
      <trkpt lat="42.9647340" lon="1.5346300">
        <ele>477.3</ele>
        <time>2022-06-26T08:20:02Z</time>
      </trkpt>
      <trkpt lat="42.9647390" lon="1.5347330">
        <ele>477.3</ele>
        <time>2022-06-26T08:20:03Z</time>
      </trkpt>
      <trkpt lat="42.9647390" lon="1.5348360">
        <ele>477.2</ele>
        <time>2022-06-26T08:20:04Z</time>
      </trkpt>
      <trkpt lat="42.9647330" lon="1.5349400">
        <ele>477.1</ele>
        <time>2022-06-26T08:20:05Z</time>
      </trkpt>
      <trkpt lat="42.9647210" lon="1.5350420">
        <ele>477.0</ele>
        <time>2022-06-26T08:20:06Z</time>
      </trkpt>
      <trkpt lat="42.9647040" lon="1.5351430">
        <ele>476.9</ele>
        <time>2022-06-26T08:20:07Z</time>
      </trkpt>
      <trkpt lat="42.9646830" lon="1.5352420">
        <ele>476.8</ele>
        <time>2022-06-26T08:20:08Z</time>
      </trkpt>
      <trkpt lat="42.9646330" lon="1.5354410">
        <ele>476.6</ele>
        <time>2022-06-26T08:20:10Z</time>
      </trkpt>
      <trkpt lat="42.9645720" lon="1.5356320">
        <ele>476.5</ele>
        <time>2022-06-26T08:20:12Z</time>
      </trkpt>
      <trkpt lat="42.9645160" lon="1.5358210">
        <ele>476.5</ele>
        <time>2022-06-26T08:20:14Z</time>
      </trkpt>
      <trkpt lat="42.9644580" lon="1.5360060">
        <ele>476.5</ele>
        <time>2022-06-26T08:20:16Z</time>
      </trkpt>
      <trkpt lat="42.9643760" lon="1.5362840">
        <ele>476.7</ele>
        <time>2022-06-26T08:20:19Z</time>
      </trkpt>
      <trkpt lat="42.9642900" lon="1.5365480">
        <ele>476.9</ele>
        <time>2022-06-26T08:20:22Z</time>
      </trkpt>
      <trkpt lat="42.9641830" lon="1.5368980">
        <ele>477.3</ele>
        <time>2022-06-26T08:20:26Z</time>
      </trkpt>
      <trkpt lat="42.9641050" lon="1.5371490">
        <ele>477.5</ele>
        <time>2022-06-26T08:20:29Z</time>
      </trkpt>
      <trkpt lat="42.9640840" lon="1.5372320">
        <ele>477.5</ele>
        <time>2022-06-26T08:20:30Z</time>
      </trkpt>
      <trkpt lat="42.9640120" lon="1.5374780">
        <ele>478.0</ele>
        <time>2022-06-26T08:20:33Z</time>
      </trkpt>
      <trkpt lat="42.9639100" lon="1.5377900">
        <ele>478.7</ele>
        <time>2022-06-26T08:20:37Z</time>
      </trkpt>
      <trkpt lat="42.9638490" lon="1.5380130">
        <ele>479.3</ele>
        <time>2022-06-26T08:20:40Z</time>
      </trkpt>
      <trkpt lat="42.9638380" lon="1.5380870">
        <ele>479.4</ele>
        <time>2022-06-26T08:20:41Z</time>
      </trkpt>
      <trkpt lat="42.9638260" lon="1.5382410">
        <ele>479.7</ele>
        <time>2022-06-26T08:20:43Z</time>
      </trkpt>
      <trkpt lat="42.9638320" lon="1.5383960">
        <ele>480.0</ele>
        <time>2022-06-26T08:20:45Z</time>
      </trkpt>
      <trkpt lat="42.9638700" lon="1.5386190">
        <ele>480.4</ele>
        <time>2022-06-26T08:20:48Z</time>
      </trkpt>
      <trkpt lat="42.9639130" lon="1.5387580">
        <ele>480.5</ele>
        <time>2022-06-26T08:20:50Z</time>
      </trkpt>
      <trkpt lat="42.9640070" lon="1.5389690">
        <ele>480.7</ele>
        <time>2022-06-26T08:20:53Z</time>
      </trkpt>
      <trkpt lat="42.9640390" lon="1.5390320">
        <ele>480.7</ele>
        <time>2022-06-26T08:20:54Z</time>
      </trkpt>
      <trkpt lat="42.9640720" lon="1.5390950">
        <ele>480.8</ele>
        <time>2022-06-26T08:20:55Z</time>
      </trkpt>
      <trkpt lat="42.9641800" lon="1.5392970">
        <ele>480.6</ele>
        <time>2022-06-26T08:20:58Z</time>
      </trkpt>
      <trkpt lat="42.9642870" lon="1.5395170">
        <ele>480.3</ele>
        <time>2022-06-26T08:21:01Z</time>
      </trkpt>
      <trkpt lat="42.9643220" lon="1.5395960">
        <ele>480.2</ele>
        <time>2022-06-26T08:21:02Z</time>
      </trkpt>
      <trkpt lat="42.9643880" lon="1.5397620">
        <ele>480.0</ele>
        <time>2022-06-26T08:21:04Z</time>
      </trkpt>
      <trkpt lat="42.9644790" lon="1.5400230">
        <ele>479.4</ele>
        <time>2022-06-26T08:21:07Z</time>
      </trkpt>
      <trkpt lat="42.9645320" lon="1.5402110">
        <ele>479.0</ele>
        <time>2022-06-26T08:21:09Z</time>
      </trkpt>
      <trkpt lat="42.9645720" lon="1.5404100">
        <ele>478.6</ele>
        <time>2022-06-26T08:21:11Z</time>
      </trkpt>
      <trkpt lat="42.9646200" lon="1.5408260">
        <ele>477.7</ele>
        <time>2022-06-26T08:21:15Z</time>
      </trkpt>
      <trkpt lat="42.9646120" lon="1.5413700">
        <ele>476.5</ele>
        <time>2022-06-26T08:21:20Z</time>
      </trkpt>
      <trkpt lat="42.9646050" lon="1.5415930">
        <ele>476.0</ele>
        <time>2022-06-26T08:21:22Z</time>
      </trkpt>
      <trkpt lat="42.9645730" lon="1.5422790">
        <ele>474.9</ele>
        <time>2022-06-26T08:21:28Z</time>
      </trkpt>
      <trkpt lat="42.9645530" lon="1.5426240">
        <ele>474.6</ele>
        <time>2022-06-26T08:21:31Z</time>
      </trkpt>
      <trkpt lat="42.9645330" lon="1.5433830">
        <ele>474.2</ele>
        <time>2022-06-26T08:21:38Z</time>
      </trkpt>
      <trkpt lat="42.9645430" lon="1.5435900">
        <ele>474.0</ele>
        <time>2022-06-26T08:21:40Z</time>
      </trkpt>
      <trkpt lat="42.9645890" lon="1.5440080">
        <ele>473.6</ele>
        <time>2022-06-26T08:21:44Z</time>
      </trkpt>
      <trkpt lat="42.9646110" lon="1.5445460">
        <ele>472.8</ele>
        <time>2022-06-26T08:21:49Z</time>
      </trkpt>
      <trkpt lat="42.9646010" lon="1.5446530">
        <ele>472.7</ele>
        <time>2022-06-26T08:21:50Z</time>
      </trkpt>
      <trkpt lat="42.9645600" lon="1.5448660">
        <ele>472.3</ele>
        <time>2022-06-26T08:21:52Z</time>
      </trkpt>
      <trkpt lat="42.9645280" lon="1.5449660">
        <ele>472.1</ele>
        <time>2022-06-26T08:21:53Z</time>
      </trkpt>
      <trkpt lat="42.9644960" lon="1.5450660">
        <ele>472.0</ele>
        <time>2022-06-26T08:21:54Z</time>
      </trkpt>
      <trkpt lat="42.9643960" lon="1.5453650">
        <ele>471.4</ele>
        <time>2022-06-26T08:21:57Z</time>
      </trkpt>
      <trkpt lat="42.9641800" lon="1.5460900">
        <ele>469.9</ele>
        <time>2022-06-26T08:22:04Z</time>
      </trkpt>
      <trkpt lat="42.9641500" lon="1.5461960">
        <ele>469.7</ele>
        <time>2022-06-26T08:22:05Z</time>
      </trkpt>
      <trkpt lat="42.9640320" lon="1.5466320">
        <ele>468.6</ele>
        <time>2022-06-26T08:22:09Z</time>
      </trkpt>
      <trkpt lat="42.9639230" lon="1.5470910">
        <ele>467.2</ele>
        <time>2022-06-26T08:22:13Z</time>
      </trkpt>
      <trkpt lat="42.9638780" lon="1.5474560">
        <ele>466.0</ele>
        <time>2022-06-26T08:22:16Z</time>
      </trkpt>
      <trkpt lat="42.9638610" lon="1.5477070">
        <ele>465.3</ele>
        <time>2022-06-26T08:22:18Z</time>
      </trkpt>
      <trkpt lat="42.9638380" lon="1.5484480">
        <ele>463.3</ele>
        <time>2022-06-26T08:22:24Z</time>
      </trkpt>
      <trkpt lat="42.9638350" lon="1.5485710">
        <ele>463.0</ele>
        <time>2022-06-26T08:22:25Z</time>
      </trkpt>
      <trkpt lat="42.9638110" lon="1.5490740">
        <ele>461.7</ele>
        <time>2022-06-26T08:22:29Z</time>
      </trkpt>
      <trkpt lat="42.9638070" lon="1.5493230">
        <ele>461.2</ele>
        <time>2022-06-26T08:22:31Z</time>
      </trkpt>
      <trkpt lat="42.9637970" lon="1.5498140">
        <ele>460.4</ele>
        <time>2022-06-26T08:22:35Z</time>
      </trkpt>
      <trkpt lat="42.9637710" lon="1.5500480">
        <ele>460.0</ele>
        <time>2022-06-26T08:22:37Z</time>
      </trkpt>
      <trkpt lat="42.9636450" lon="1.5505790">
        <ele>459.3</ele>
        <time>2022-06-26T08:22:42Z</time>
      </trkpt>
      <trkpt lat="42.9635970" lon="1.5506630">
        <ele>459.2</ele>
        <time>2022-06-26T08:22:43Z</time>
      </trkpt>
      <trkpt lat="42.9634170" lon="1.5508800">
        <ele>459.1</ele>
        <time>2022-06-26T08:22:46Z</time>
      </trkpt>
      <trkpt lat="42.9631860" lon="1.5511630">
        <ele>459.1</ele>
        <time>2022-06-26T08:22:50Z</time>
      </trkpt>
      <trkpt lat="42.9629780" lon="1.5514640">
        <ele>458.9</ele>
        <time>2022-06-26T08:22:54Z</time>
      </trkpt>
      <trkpt lat="42.9628300" lon="1.5517010">
        <ele>458.7</ele>
        <time>2022-06-26T08:22:57Z</time>
      </trkpt>
      <trkpt lat="42.9626470" lon="1.5520370">
        <ele>458.5</ele>
        <time>2022-06-26T08:23:01Z</time>
      </trkpt>
      <trkpt lat="42.9624000" lon="1.5525820">
        <ele>457.6</ele>
        <time>2022-06-26T08:23:07Z</time>
      </trkpt>
      <trkpt lat="42.9622800" lon="1.5528710">
        <ele>457.1</ele>
        <time>2022-06-26T08:23:10Z</time>
      </trkpt>
      <trkpt lat="42.9622080" lon="1.5530770">
        <ele>456.6</ele>
        <time>2022-06-26T08:23:12Z</time>
      </trkpt>
      <trkpt lat="42.9621540" lon="1.5532990">
        <ele>456.1</ele>
        <time>2022-06-26T08:23:14Z</time>
      </trkpt>
      <trkpt lat="42.9621340" lon="1.5534130">
        <ele>455.8</ele>
        <time>2022-06-26T08:23:15Z</time>
      </trkpt>
      <trkpt lat="42.9621170" lon="1.5535250">
        <ele>455.6</ele>
        <time>2022-06-26T08:23:16Z</time>
      </trkpt>
      <trkpt lat="42.9620680" lon="1.5539900">
        <ele>454.5</ele>
        <time>2022-06-26T08:23:20Z</time>
      </trkpt>
      <trkpt lat="42.9620600" lon="1.5542240">
        <ele>454.1</ele>
        <time>2022-06-26T08:23:22Z</time>
      </trkpt>
      <trkpt lat="42.9620680" lon="1.5546950">
        <ele>453.8</ele>
        <time>2022-06-26T08:23:26Z</time>
      </trkpt>
      <trkpt lat="42.9620870" lon="1.5550370">
        <ele>453.8</ele>
        <time>2022-06-26T08:23:29Z</time>
      </trkpt>
      <trkpt lat="42.9621210" lon="1.5555830">
        <ele>453.9</ele>
        <time>2022-06-26T08:23:34Z</time>
      </trkpt>
      <trkpt lat="42.9620930" lon="1.5560910">
        <ele>453.8</ele>
        <time>2022-06-26T08:23:39Z</time>
      </trkpt>
      <trkpt lat="42.9620700" lon="1.5561910">
        <ele>453.7</ele>
        <time>2022-06-26T08:23:40Z</time>
      </trkpt>
      <trkpt lat="42.9619380" lon="1.5565650">
        <ele>453.7</ele>
        <time>2022-06-26T08:23:44Z</time>
      </trkpt>
      <trkpt lat="42.9618550" lon="1.5567360">
        <ele>453.7</ele>
        <time>2022-06-26T08:23:46Z</time>
      </trkpt>
      <trkpt lat="42.9615900" lon="1.5572460">
        <ele>453.3</ele>
        <time>2022-06-26T08:23:52Z</time>
      </trkpt>
      <trkpt lat="42.9613300" lon="1.5577650">
        <ele>452.8</ele>
        <time>2022-06-26T08:23:58Z</time>
      </trkpt>
      <trkpt lat="42.9612420" lon="1.5579380">
        <ele>452.6</ele>
        <time>2022-06-26T08:24:00Z</time>
      </trkpt>
      <trkpt lat="42.9610700" lon="1.5582840">
        <ele>452.1</ele>
        <time>2022-06-26T08:24:04Z</time>
      </trkpt>
      <trkpt lat="42.9609960" lon="1.5584700">
        <ele>451.8</ele>
        <time>2022-06-26T08:24:06Z</time>
      </trkpt>
      <trkpt lat="42.9608590" lon="1.5588430">
        <ele>451.1</ele>
        <time>2022-06-26T08:24:10Z</time>
      </trkpt>
      <trkpt lat="42.9608410" lon="1.5589410">
        <ele>451.0</ele>
        <time>2022-06-26T08:24:11Z</time>
      </trkpt>
      <trkpt lat="42.9607970" lon="1.5592610">
        <ele>450.4</ele>
        <time>2022-06-26T08:24:15Z</time>
      </trkpt>
      <trkpt lat="42.9607950" lon="1.5593410">
        <ele>450.1</ele>
        <time>2022-06-26T08:24:16Z</time>
      </trkpt>
      <trkpt lat="42.9607900" lon="1.5595000">
        <ele>450.1</ele>
        <time>2022-06-26T08:24:18Z</time>
      </trkpt>
      <trkpt lat="42.9607940" lon="1.5595880">
        <ele>450.1</ele>
        <time>2022-06-26T08:24:19Z</time>
      </trkpt>
      <trkpt lat="42.9608120" lon="1.5599630">
        <ele>449.8</ele>
        <time>2022-06-26T08:24:22Z</time>
      </trkpt>
      <trkpt lat="42.9608460" lon="1.5603580">
        <ele>449.8</ele>
        <time>2022-06-26T08:24:27Z</time>
      </trkpt>
      <trkpt lat="42.9608740" lon="1.5606420">
        <ele>450.0</ele>
        <time>2022-06-26T08:24:30Z</time>
      </trkpt>
      <trkpt lat="42.9608920" lon="1.5608480">
        <ele>450.0</ele>
        <time>2022-06-26T08:24:32Z</time>
      </trkpt>
      <trkpt lat="42.9609020" lon="1.5609460">
        <ele>450.0</ele>
        <time>2022-06-26T08:24:33Z</time>
      </trkpt>
      <trkpt lat="42.9609120" lon="1.5610410">
        <ele>450.0</ele>
        <time>2022-06-26T08:24:34Z</time>
      </trkpt>
      <trkpt lat="42.9609250" lon="1.5612250">
        <ele>450.0</ele>
        <time>2022-06-26T08:24:36Z</time>
      </trkpt>
      <trkpt lat="42.9609370" lon="1.5614100">
        <ele>450.1</ele>
        <time>2022-06-26T08:24:38Z</time>
      </trkpt>
      <trkpt lat="42.9609480" lon="1.5615920">
        <ele>450.2</ele>
        <time>2022-06-26T08:24:40Z</time>
      </trkpt>
      <trkpt lat="42.9609560" lon="1.5616830">
        <ele>450.2</ele>
        <time>2022-06-26T08:24:41Z</time>
      </trkpt>
      <trkpt lat="42.9609640" lon="1.5617750">
        <ele>450.3</ele>
        <time>2022-06-26T08:24:42Z</time>
      </trkpt>
      <trkpt lat="42.9609810" lon="1.5619580">
        <ele>450.4</ele>
        <time>2022-06-26T08:24:44Z</time>
      </trkpt>
      <trkpt lat="42.9609990" lon="1.5622280">
        <ele>450.7</ele>
        <time>2022-06-26T08:24:47Z</time>
      </trkpt>
      <trkpt lat="42.9610130" lon="1.5624080">
        <ele>450.8</ele>
        <time>2022-06-26T08:24:49Z</time>
      </trkpt>
      <trkpt lat="42.9610400" lon="1.5627700">
        <ele>451.0</ele>
        <time>2022-06-26T08:24:53Z</time>
      </trkpt>
      <trkpt lat="42.9610760" lon="1.5632200">
        <ele>451.4</ele>
        <time>2022-06-26T08:24:58Z</time>
      </trkpt>
      <trkpt lat="42.9611010" lon="1.5634870">
        <ele>451.7</ele>
        <time>2022-06-26T08:25:01Z</time>
      </trkpt>
      <trkpt lat="42.9611270" lon="1.5637580">
        <ele>451.9</ele>
        <time>2022-06-26T08:25:04Z</time>
      </trkpt>
      <trkpt lat="42.9611390" lon="1.5640350">
        <ele>452.1</ele>
        <time>2022-06-26T08:25:07Z</time>
      </trkpt>
      <trkpt lat="42.9611440" lon="1.5643150">
        <ele>452.3</ele>
        <time>2022-06-26T08:25:10Z</time>
      </trkpt>
      <trkpt lat="42.9611420" lon="1.5644090">
        <ele>452.4</ele>
        <time>2022-06-26T08:25:11Z</time>
      </trkpt>
      <trkpt lat="42.9611160" lon="1.5646880">
        <ele>452.6</ele>
        <time>2022-06-26T08:25:14Z</time>
      </trkpt>
      <trkpt lat="42.9610710" lon="1.5649570">
        <ele>452.8</ele>
        <time>2022-06-26T08:25:17Z</time>
      </trkpt>
      <trkpt lat="42.9610150" lon="1.5652240">
        <ele>453.0</ele>
        <time>2022-06-26T08:25:20Z</time>
      </trkpt>
      <trkpt lat="42.9609610" lon="1.5655860">
        <ele>453.2</ele>
        <time>2022-06-26T08:25:24Z</time>
      </trkpt>
      <trkpt lat="42.9609570" lon="1.5656790">
        <ele>453.3</ele>
        <time>2022-06-26T08:25:25Z</time>
      </trkpt>
      <trkpt lat="42.9609480" lon="1.5659450">
        <ele>453.4</ele>
        <time>2022-06-26T08:25:28Z</time>
      </trkpt>
      <trkpt lat="42.9609550" lon="1.5661310">
        <ele>453.4</ele>
        <time>2022-06-26T08:25:30Z</time>
      </trkpt>
      <trkpt lat="42.9609560" lon="1.5667120">
        <ele>453.3</ele>
        <time>2022-06-26T08:25:36Z</time>
      </trkpt>
      <trkpt lat="42.9608870" lon="1.5671830">
        <ele>453.2</ele>
        <time>2022-06-26T08:25:41Z</time>
      </trkpt>
      <trkpt lat="42.9608300" lon="1.5673540">
        <ele>453.2</ele>
        <time>2022-06-26T08:25:43Z</time>
      </trkpt>
      <trkpt lat="42.9606400" lon="1.5678610">
        <ele>452.8</ele>
        <time>2022-06-26T08:25:49Z</time>
      </trkpt>
      <trkpt lat="42.9605160" lon="1.5682050">
        <ele>452.5</ele>
        <time>2022-06-26T08:25:53Z</time>
      </trkpt>
      <trkpt lat="42.9603570" lon="1.5686500">
        <ele>452.2</ele>
        <time>2022-06-26T08:25:58Z</time>
      </trkpt>
      <trkpt lat="42.9602270" lon="1.5690140">
        <ele>451.8</ele>
        <time>2022-06-26T08:26:02Z</time>
      </trkpt>
      <trkpt lat="42.9599990" lon="1.5696730">
        <ele>450.7</ele>
        <time>2022-06-26T08:26:09Z</time>
      </trkpt>
      <trkpt lat="42.9599640" lon="1.5697700">
        <ele>450.6</ele>
        <time>2022-06-26T08:26:10Z</time>
      </trkpt>
      <trkpt lat="42.9596950" lon="1.5704500">
        <ele>449.1</ele>
        <time>2022-06-26T08:26:17Z</time>
      </trkpt>
      <trkpt lat="42.9594740" lon="1.5709300">
        <ele>448.1</ele>
        <time>2022-06-26T08:26:22Z</time>
      </trkpt>
      <trkpt lat="42.9593820" lon="1.5711230">
        <ele>447.7</ele>
        <time>2022-06-26T08:26:24Z</time>
      </trkpt>
      <trkpt lat="42.9593370" lon="1.5712210">
        <ele>447.4</ele>
        <time>2022-06-26T08:26:25Z</time>
      </trkpt>
      <trkpt lat="42.9592670" lon="1.5714280">
        <ele>447.1</ele>
        <time>2022-06-26T08:26:27Z</time>
      </trkpt>
      <trkpt lat="42.9592400" lon="1.5715360">
        <ele>446.9</ele>
        <time>2022-06-26T08:26:28Z</time>
      </trkpt>
      <trkpt lat="42.9592130" lon="1.5716450">
        <ele>446.7</ele>
        <time>2022-06-26T08:26:29Z</time>
      </trkpt>
      <trkpt lat="42.9591920" lon="1.5717590">
        <ele>446.5</ele>
        <time>2022-06-26T08:26:30Z</time>
      </trkpt>
      <trkpt lat="42.9591690" lon="1.5721020">
        <ele>446.0</ele>
        <time>2022-06-26T08:26:33Z</time>
      </trkpt>
      <trkpt lat="42.9592000" lon="1.5726870">
        <ele>445.0</ele>
        <time>2022-06-26T08:26:38Z</time>
      </trkpt>
      <trkpt lat="42.9592170" lon="1.5728020">
        <ele>444.8</ele>
        <time>2022-06-26T08:26:39Z</time>
      </trkpt>
      <trkpt lat="42.9593660" lon="1.5733550">
        <ele>443.8</ele>
        <time>2022-06-26T08:26:44Z</time>
      </trkpt>
      <trkpt lat="42.9594510" lon="1.5735530">
        <ele>443.4</ele>
        <time>2022-06-26T08:26:46Z</time>
      </trkpt>
      <trkpt lat="42.9596950" lon="1.5740430">
        <ele>442.2</ele>
        <time>2022-06-26T08:26:51Z</time>
      </trkpt>
      <trkpt lat="42.9597520" lon="1.5741360">
        <ele>441.9</ele>
        <time>2022-06-26T08:26:52Z</time>
      </trkpt>
      <trkpt lat="42.9600970" lon="1.5747000">
        <ele>440.4</ele>
        <time>2022-06-26T08:26:58Z</time>
      </trkpt>
      <trkpt lat="42.9602490" lon="1.5750050">
        <ele>439.8</ele>
        <time>2022-06-26T08:27:01Z</time>
      </trkpt>
      <trkpt lat="42.9603830" lon="1.5753320">
        <ele>439.5</ele>
        <time>2022-06-26T08:27:04Z</time>
      </trkpt>
      <trkpt lat="42.9605350" lon="1.5757770">
        <ele>439.4</ele>
        <time>2022-06-26T08:27:08Z</time>
      </trkpt>
      <trkpt lat="42.9606260" lon="1.5761140">
        <ele>439.3</ele>
        <time>2022-06-26T08:27:11Z</time>
      </trkpt>
      <trkpt lat="42.9606440" lon="1.5762280">
        <ele>439.3</ele>
        <time>2022-06-26T08:27:12Z</time>
      </trkpt>
      <trkpt lat="42.9606500" lon="1.5764520">
        <ele>439.5</ele>
        <time>2022-06-26T08:27:14Z</time>
      </trkpt>
      <trkpt lat="42.9606350" lon="1.5765580">
        <ele>439.6</ele>
        <time>2022-06-26T08:27:15Z</time>
      </trkpt>
      <trkpt lat="42.9605370" lon="1.5768410">
        <ele>439.6</ele>
        <time>2022-06-26T08:27:18Z</time>
      </trkpt>
      <trkpt lat="42.9604980" lon="1.5769300">
        <ele>439.5</ele>
        <time>2022-06-26T08:27:19Z</time>
      </trkpt>
      <trkpt lat="42.9602400" lon="1.5774370">
        <ele>439.3</ele>
        <time>2022-06-26T08:27:25Z</time>
      </trkpt>
      <trkpt lat="42.9601880" lon="1.5775110">
        <ele>439.3</ele>
        <time>2022-06-26T08:27:26Z</time>
      </trkpt>
      <trkpt lat="42.9599690" lon="1.5777890">
        <ele>439.4</ele>
        <time>2022-06-26T08:27:30Z</time>
      </trkpt>
      <trkpt lat="42.9598260" lon="1.5780190">
        <ele>439.4</ele>
        <time>2022-06-26T08:27:33Z</time>
      </trkpt>
      <trkpt lat="42.9597830" lon="1.5780980">
        <ele>439.5</ele>
        <time>2022-06-26T08:27:34Z</time>
      </trkpt>
      <trkpt lat="42.9595980" lon="1.5785110">
        <ele>439.7</ele>
        <time>2022-06-26T08:27:39Z</time>
      </trkpt>
      <trkpt lat="42.9595590" lon="1.5785940">
        <ele>439.7</ele>
        <time>2022-06-26T08:27:40Z</time>
      </trkpt>
      <trkpt lat="42.9593910" lon="1.5789020">
        <ele>439.8</ele>
        <time>2022-06-26T08:27:44Z</time>
      </trkpt>
      <trkpt lat="42.9593000" lon="1.5790460">
        <ele>439.8</ele>
        <time>2022-06-26T08:27:46Z</time>
      </trkpt>
      <trkpt lat="42.9591930" lon="1.5792770">
        <ele>439.6</ele>
        <time>2022-06-26T08:27:49Z</time>
      </trkpt>
      <trkpt lat="42.9591430" lon="1.5794500">
        <ele>439.4</ele>
        <time>2022-06-26T08:27:51Z</time>
      </trkpt>
      <trkpt lat="42.9591330" lon="1.5798420">
        <ele>439.2</ele>
        <time>2022-06-26T08:27:55Z</time>
      </trkpt>
      <trkpt lat="42.9592030" lon="1.5801230">
        <ele>439.1</ele>
        <time>2022-06-26T08:27:58Z</time>
      </trkpt>
      <trkpt lat="42.9592440" lon="1.5802080">
        <ele>439.0</ele>
        <time>2022-06-26T08:27:59Z</time>
      </trkpt>
      <trkpt lat="42.9594650" lon="1.5804910">
        <ele>439.0</ele>
        <time>2022-06-26T08:28:03Z</time>
      </trkpt>
      <trkpt lat="42.9595260" lon="1.5805550">
        <ele>438.9</ele>
        <time>2022-06-26T08:28:04Z</time>
      </trkpt>
      <trkpt lat="42.9598540" lon="1.5810010">
        <ele>438.8</ele>
        <time>2022-06-26T08:28:10Z</time>
      </trkpt>
      <trkpt lat="42.9598960" lon="1.5810900">
        <ele>438.8</ele>
        <time>2022-06-26T08:28:11Z</time>
      </trkpt>
      <trkpt lat="42.9600310" lon="1.5814580">
        <ele>438.8</ele>
        <time>2022-06-26T08:28:15Z</time>
      </trkpt>
      <trkpt lat="42.9601460" lon="1.5818230">
        <ele>438.8</ele>
        <time>2022-06-26T08:28:19Z</time>
      </trkpt>
      <trkpt lat="42.9602570" lon="1.5822960">
        <ele>438.7</ele>
        <time>2022-06-26T08:28:24Z</time>
      </trkpt>
      <trkpt lat="42.9603570" lon="1.5829980">
        <ele>438.3</ele>
        <time>2022-06-26T08:28:31Z</time>
      </trkpt>
      <trkpt lat="42.9604080" lon="1.5835120">
        <ele>438.0</ele>
        <time>2022-06-26T08:28:36Z</time>
      </trkpt>
      <trkpt lat="42.9604150" lon="1.5836150">
        <ele>438.0</ele>
        <time>2022-06-26T08:28:37Z</time>
      </trkpt>
      <trkpt lat="42.9604350" lon="1.5841300">
        <ele>438.0</ele>
        <time>2022-06-26T08:28:42Z</time>
      </trkpt>
      <trkpt lat="42.9604400" lon="1.5843290">
        <ele>438.1</ele>
        <time>2022-06-26T08:28:44Z</time>
      </trkpt>
      <trkpt lat="42.9604540" lon="1.5845240">
        <ele>438.3</ele>
        <time>2022-06-26T08:28:46Z</time>
      </trkpt>
      <trkpt lat="42.9604920" lon="1.5849020">
        <ele>438.5</ele>
        <time>2022-06-26T08:28:50Z</time>
      </trkpt>
      <trkpt lat="42.9604730" lon="1.5851710">
        <ele>438.6</ele>
        <time>2022-06-26T08:28:53Z</time>
      </trkpt>
      <trkpt lat="42.9604440" lon="1.5853440">
        <ele>438.6</ele>
        <time>2022-06-26T08:28:55Z</time>
      </trkpt>
      <trkpt lat="42.9603220" lon="1.5858720">
        <ele>438.2</ele>
        <time>2022-06-26T08:29:01Z</time>
      </trkpt>
      <trkpt lat="42.9603010" lon="1.5859600">
        <ele>438.2</ele>
        <time>2022-06-26T08:29:02Z</time>
      </trkpt>
      <trkpt lat="42.9602150" lon="1.5865310">
        <ele>437.6</ele>
        <time>2022-06-26T08:29:08Z</time>
      </trkpt>
      <trkpt lat="42.9602030" lon="1.5866330">
        <ele>437.5</ele>
        <time>2022-06-26T08:29:09Z</time>
      </trkpt>
      <trkpt lat="42.9601290" lon="1.5871370">
        <ele>437.3</ele>
        <time>2022-06-26T08:29:14Z</time>
      </trkpt>
      <trkpt lat="42.9601090" lon="1.5872350">
        <ele>437.2</ele>
        <time>2022-06-26T08:29:15Z</time>
      </trkpt>
      <trkpt lat="42.9599730" lon="1.5877040">
        <ele>436.9</ele>
        <time>2022-06-26T08:29:20Z</time>
      </trkpt>
      <trkpt lat="42.9598640" lon="1.5879750">
        <ele>436.8</ele>
        <time>2022-06-26T08:29:23Z</time>
      </trkpt>
      <trkpt lat="42.9597850" lon="1.5881480">
        <ele>436.8</ele>
        <time>2022-06-26T08:29:25Z</time>
      </trkpt>
      <trkpt lat="42.9597000" lon="1.5883190">
        <ele>436.7</ele>
        <time>2022-06-26T08:29:27Z</time>
      </trkpt>
      <trkpt lat="42.9596090" lon="1.5884880">
        <ele>436.5</ele>
        <time>2022-06-26T08:29:29Z</time>
      </trkpt>
      <trkpt lat="42.9595230" lon="1.5886620">
        <ele>436.4</ele>
        <time>2022-06-26T08:29:31Z</time>
      </trkpt>
      <trkpt lat="42.9594380" lon="1.5888410">
        <ele>436.3</ele>
        <time>2022-06-26T08:29:33Z</time>
      </trkpt>
      <trkpt lat="42.9593980" lon="1.5889310">
        <ele>436.3</ele>
        <time>2022-06-26T08:29:34Z</time>
      </trkpt>
      <trkpt lat="42.9593240" lon="1.5891170">
        <ele>436.3</ele>
        <time>2022-06-26T08:29:36Z</time>
      </trkpt>
      <trkpt lat="42.9592130" lon="1.5893880">
        <ele>436.3</ele>
        <time>2022-06-26T08:29:39Z</time>
      </trkpt>
      <trkpt lat="42.9590910" lon="1.5896490">
        <ele>436.1</ele>
        <time>2022-06-26T08:29:42Z</time>
      </trkpt>
      <trkpt lat="42.9590450" lon="1.5897300">
        <ele>436.0</ele>
        <time>2022-06-26T08:29:43Z</time>
      </trkpt>
      <trkpt lat="42.9588130" lon="1.5900110">
        <ele>435.4</ele>
        <time>2022-06-26T08:29:47Z</time>
      </trkpt>
      <trkpt lat="42.9587530" lon="1.5900750">
        <ele>435.3</ele>
        <time>2022-06-26T08:29:48Z</time>
      </trkpt>
      <trkpt lat="42.9586380" lon="1.5902170">
        <ele>434.9</ele>
        <time>2022-06-26T08:29:50Z</time>
      </trkpt>
      <trkpt lat="42.9585570" lon="1.5903970">
        <ele>434.7</ele>
        <time>2022-06-26T08:29:52Z</time>
      </trkpt>
      <trkpt lat="42.9585290" lon="1.5904970">
        <ele>434.6</ele>
        <time>2022-06-26T08:29:53Z</time>
      </trkpt>
      <trkpt lat="42.9585050" lon="1.5906030">
        <ele>434.4</ele>
        <time>2022-06-26T08:29:54Z</time>
      </trkpt>
      <trkpt lat="42.9584280" lon="1.5909260">
        <ele>434.0</ele>
        <time>2022-06-26T08:29:57Z</time>
      </trkpt>
      <trkpt lat="42.9583310" lon="1.5913550">
        <ele>433.4</ele>
        <time>2022-06-26T08:30:01Z</time>
      </trkpt>
      <trkpt lat="42.9582770" lon="1.5918080">
        <ele>432.3</ele>
        <time>2022-06-26T08:30:04Z</time>
      </trkpt>
      <trkpt lat="42.9582750" lon="1.5919270">
        <ele>432.0</ele>
        <time>2022-06-26T08:30:05Z</time>
      </trkpt>
      <trkpt lat="42.9582730" lon="1.5921700">
        <ele>431.3</ele>
        <time>2022-06-26T08:30:08Z</time>
      </trkpt>
      <trkpt lat="42.9582750" lon="1.5924220">
        <ele>430.6</ele>
        <time>2022-06-26T08:30:10Z</time>
      </trkpt>
      <trkpt lat="42.9582630" lon="1.5926750">
        <ele>430.2</ele>
        <time>2022-06-26T08:30:12Z</time>
      </trkpt>
      <trkpt lat="42.9582180" lon="1.5929120">
        <ele>429.9</ele>
        <time>2022-06-26T08:30:14Z</time>
      </trkpt>
      <trkpt lat="42.9582020" lon="1.5930210">
        <ele>429.8</ele>
        <time>2022-06-26T08:30:15Z</time>
      </trkpt>
      <trkpt lat="42.9582040" lon="1.5931270">
        <ele>429.7</ele>
        <time>2022-06-26T08:30:16Z</time>
      </trkpt>
      <trkpt lat="42.9582290" lon="1.5932180">
        <ele>429.5</ele>
        <time>2022-06-26T08:30:17Z</time>
      </trkpt>
      <trkpt lat="42.9582850" lon="1.5932810">
        <ele>429.4</ele>
        <time>2022-06-26T08:30:18Z</time>
      </trkpt>
      <trkpt lat="42.9584210" lon="1.5933090">
        <ele>428.9</ele>
        <time>2022-06-26T08:30:20Z</time>
      </trkpt>
      <trkpt lat="42.9584900" lon="1.5932820">
        <ele>428.6</ele>
        <time>2022-06-26T08:30:21Z</time>
      </trkpt>
      <trkpt lat="42.9586300" lon="1.5931880">
        <ele>427.8</ele>
        <time>2022-06-26T08:30:23Z</time>
      </trkpt>
      <trkpt lat="42.9587000" lon="1.5931340">
        <ele>427.4</ele>
        <time>2022-06-26T08:30:24Z</time>
      </trkpt>
      <trkpt lat="42.9587760" lon="1.5930820">
        <ele>427.0</ele>
        <time>2022-06-26T08:30:25Z</time>
      </trkpt>
      <trkpt lat="42.9590920" lon="1.5929120">
        <ele>425.6</ele>
        <time>2022-06-26T08:30:28Z</time>
      </trkpt>
      <trkpt lat="42.9591740" lon="1.5928690">
        <ele>425.3</ele>
        <time>2022-06-26T08:30:29Z</time>
      </trkpt>
      <trkpt lat="42.9594970" lon="1.5926410">
        <ele>423.6</ele>
        <time>2022-06-26T08:30:33Z</time>
      </trkpt>
      <trkpt lat="42.9598800" lon="1.5922650">
        <ele>421.1</ele>
        <time>2022-06-26T08:30:38Z</time>
      </trkpt>
      <trkpt lat="42.9599250" lon="1.5922390">
        <ele>420.9</ele>
        <time>2022-06-26T08:30:39Z</time>
      </trkpt>
      <trkpt lat="42.9599700" lon="1.5922130">
        <ele>420.6</ele>
        <time>2022-06-26T08:30:40Z</time>
      </trkpt>
      <trkpt lat="42.9601510" lon="1.5921690">
        <ele>419.7</ele>
        <time>2022-06-26T08:30:42Z</time>
      </trkpt>
      <trkpt lat="42.9604540" lon="1.5921820">
        <ele>418.5</ele>
        <time>2022-06-26T08:30:44Z</time>
      </trkpt>
      <trkpt lat="42.9606440" lon="1.5922170">
        <ele>417.8</ele>
        <time>2022-06-26T08:30:46Z</time>
      </trkpt>
      <trkpt lat="42.9607340" lon="1.5922390">
        <ele>417.5</ele>
        <time>2022-06-26T08:30:47Z</time>
      </trkpt>
      <trkpt lat="42.9609110" lon="1.5923380">
        <ele>416.8</ele>
        <time>2022-06-26T08:30:49Z</time>
      </trkpt>
      <trkpt lat="42.9612670" lon="1.5926770">
        <ele>415.0</ele>
        <time>2022-06-26T08:30:53Z</time>
      </trkpt>
      <trkpt lat="42.9612670" lon="1.5926770">
        <ele>415.0</ele>
        <time>2022-06-26T08:30:54Z</time>
      </trkpt>
      <trkpt lat="42.9617130" lon="1.5933680">
        <ele>411.4</ele>
        <time>2022-06-26T08:30:59Z</time>
      </trkpt>
      <trkpt lat="42.9620860" lon="1.5939330">
        <ele>408.8</ele>
        <time>2022-06-26T08:31:04Z</time>
      </trkpt>
      <trkpt lat="42.9621300" lon="1.5940040">
        <ele>408.5</ele>
        <time>2022-06-26T08:31:05Z</time>
      </trkpt>
      <trkpt lat="42.9621740" lon="1.5940760">
        <ele>408.2</ele>
        <time>2022-06-26T08:31:06Z</time>
      </trkpt>
      <trkpt lat="42.9624370" lon="1.5945050">
        <ele>406.8</ele>
        <time>2022-06-26T08:31:09Z</time>
      </trkpt>
      <trkpt lat="42.9624870" lon="1.5946310">
        <ele>406.4</ele>
        <time>2022-06-26T08:31:11Z</time>
      </trkpt>
      <trkpt lat="42.9626250" lon="1.5951550">
        <ele>405.2</ele>
        <time>2022-06-26T08:31:15Z</time>
      </trkpt>
      <trkpt lat="42.9626580" lon="1.5952780">
        <ele>405.0</ele>
        <time>2022-06-26T08:31:16Z</time>
      </trkpt>
      <trkpt lat="42.9627590" lon="1.5954900">
        <ele>404.4</ele>
        <time>2022-06-26T08:31:18Z</time>
      </trkpt>
      <trkpt lat="42.9629740" lon="1.5957460">
        <ele>403.4</ele>
        <time>2022-06-26T08:31:20Z</time>
      </trkpt>
      <trkpt lat="42.9631270" lon="1.5959140">
        <ele>402.8</ele>
        <time>2022-06-26T08:31:23Z</time>
      </trkpt>
      <trkpt lat="42.9632780" lon="1.5960790">
        <ele>402.2</ele>
        <time>2022-06-26T08:31:25Z</time>
      </trkpt>
      <trkpt lat="42.9635850" lon="1.5964090">
        <ele>401.2</ele>
        <time>2022-06-26T08:31:29Z</time>
      </trkpt>
      <trkpt lat="42.9638700" lon="1.5967170">
        <ele>400.1</ele>
        <time>2022-06-26T08:31:32Z</time>
      </trkpt>
      <trkpt lat="42.9639380" lon="1.5967950">
        <ele>399.7</ele>
        <time>2022-06-26T08:31:33Z</time>
      </trkpt>
      <trkpt lat="42.9641590" lon="1.5970350">
        <ele>398.9</ele>
        <time>2022-06-26T08:31:37Z</time>
      </trkpt>
      <trkpt lat="42.9642830" lon="1.5971830">
        <ele>398.5</ele>
        <time>2022-06-26T08:31:39Z</time>
      </trkpt>
      <trkpt lat="42.9643800" lon="1.5973160">
        <ele>398.2</ele>
        <time>2022-06-26T08:31:40Z</time>
      </trkpt>
      <trkpt lat="42.9643950" lon="1.5973730">
        <ele>398.1</ele>
        <time>2022-06-26T08:31:41Z</time>
      </trkpt>
      <trkpt lat="42.9644100" lon="1.5974290">
        <ele>397.8</ele>
        <time>2022-06-26T08:31:42Z</time>
      </trkpt>
      <trkpt lat="42.9644410" lon="1.5975420">
        <ele>397.7</ele>
        <time>2022-06-26T08:31:43Z</time>
      </trkpt>
      <trkpt lat="42.9644040" lon="1.5977150">
        <ele>397.4</ele>
        <time>2022-06-26T08:31:45Z</time>
      </trkpt>
      <trkpt lat="42.9643810" lon="1.5978030">
        <ele>397.2</ele>
        <time>2022-06-26T08:31:46Z</time>
      </trkpt>
      <trkpt lat="42.9643530" lon="1.5978910">
        <ele>397.1</ele>
        <time>2022-06-26T08:31:47Z</time>
      </trkpt>
      <trkpt lat="42.9643230" lon="1.5979800">
        <ele>396.9</ele>
        <time>2022-06-26T08:31:49Z</time>
      </trkpt>
      <trkpt lat="42.9643000" lon="1.5980760">
        <ele>396.7</ele>
        <time>2022-06-26T08:31:50Z</time>
      </trkpt>
      <trkpt lat="42.9642800" lon="1.5982810">
        <ele>396.5</ele>
        <time>2022-06-26T08:31:51Z</time>
      </trkpt>
      <trkpt lat="42.9643130" lon="1.5987180">
        <ele>396.3</ele>
        <time>2022-06-26T08:31:55Z</time>
      </trkpt>
      <trkpt lat="42.9643530" lon="1.5990290">
        <ele>396.3</ele>
        <time>2022-06-26T08:31:58Z</time>
      </trkpt>
      <trkpt lat="42.9643640" lon="1.5991290">
        <ele>396.3</ele>
        <time>2022-06-26T08:31:59Z</time>
      </trkpt>
      <trkpt lat="42.9643940" lon="1.5995130">
        <ele>396.4</ele>
        <time>2022-06-26T08:32:03Z</time>
      </trkpt>
      <trkpt lat="42.9643930" lon="1.5996920">
        <ele>396.5</ele>
        <time>2022-06-26T08:32:05Z</time>
      </trkpt>
      <trkpt lat="42.9643510" lon="1.6001160">
        <ele>396.9</ele>
        <time>2022-06-26T08:32:10Z</time>
      </trkpt>
      <trkpt lat="42.9643400" lon="1.6002840">
        <ele>397.1</ele>
        <time>2022-06-26T08:32:12Z</time>
      </trkpt>
      <trkpt lat="42.9643410" lon="1.6008520">
        <ele>398.0</ele>
        <time>2022-06-26T08:32:19Z</time>
      </trkpt>
      <trkpt lat="42.9643490" lon="1.6009330">
        <ele>398.1</ele>
        <time>2022-06-26T08:32:20Z</time>
      </trkpt>
      <trkpt lat="42.9643430" lon="1.6014110">
        <ele>399.1</ele>
        <time>2022-06-26T08:32:27Z</time>
      </trkpt>
      <trkpt lat="42.9643230" lon="1.6015400">
        <ele>399.4</ele>
        <time>2022-06-26T08:32:30Z</time>
      </trkpt>
      <trkpt lat="42.9643320" lon="1.6016910">
        <ele>399.6</ele>
        <time>2022-06-26T08:32:33Z</time>
      </trkpt>
      <trkpt lat="42.9643290" lon="1.6019500">
        <ele>399.6</ele>
        <time>2022-06-26T08:32:38Z</time>
      </trkpt>
      <trkpt lat="42.9643480" lon="1.6020990">
        <ele>399.7</ele>
        <time>2022-06-26T08:32:40Z</time>
      </trkpt>
      <trkpt lat="42.9643920" lon="1.6023280">
        <ele>399.7</ele>
        <time>2022-06-26T08:32:43Z</time>
      </trkpt>
      <trkpt lat="42.9644630" lon="1.6026500">
        <ele>399.6</ele>
        <time>2022-06-26T08:32:47Z</time>
      </trkpt>
      <trkpt lat="42.9644770" lon="1.6028140">
        <ele>399.6</ele>
        <time>2022-06-26T08:32:49Z</time>
      </trkpt>
      <trkpt lat="42.9644660" lon="1.6028920">
        <ele>399.5</ele>
        <time>2022-06-26T08:32:50Z</time>
      </trkpt>
      <trkpt lat="42.9643590" lon="1.6030860">
        <ele>399.4</ele>
        <time>2022-06-26T08:32:52Z</time>
      </trkpt>
      <trkpt lat="42.9643590" lon="1.6030860">
        <ele>399.4</ele>
        <time>2022-06-26T08:32:53Z</time>
      </trkpt>
      <trkpt lat="42.9642020" lon="1.6032460">
        <ele>399.5</ele>
        <time>2022-06-26T08:32:56Z</time>
      </trkpt>
      <trkpt lat="42.9641440" lon="1.6032970">
        <ele>399.5</ele>
        <time>2022-06-26T08:32:57Z</time>
      </trkpt>
      <trkpt lat="42.9640880" lon="1.6033520">
        <ele>399.5</ele>
        <time>2022-06-26T08:32:58Z</time>
      </trkpt>
      <trkpt lat="42.9639830" lon="1.6034700">
        <ele>399.3</ele>
        <time>2022-06-26T08:33:00Z</time>
      </trkpt>
      <trkpt lat="42.9638310" lon="1.6036560">
        <ele>398.7</ele>
        <time>2022-06-26T08:33:03Z</time>
      </trkpt>
      <trkpt lat="42.9636590" lon="1.6038490">
        <ele>397.7</ele>
        <time>2022-06-26T08:33:05Z</time>
      </trkpt>
      <trkpt lat="42.9635960" lon="1.6039150">
        <ele>397.3</ele>
        <time>2022-06-26T08:33:07Z</time>
      </trkpt>
      <trkpt lat="42.9634000" lon="1.6041010">
        <ele>396.9</ele>
        <time>2022-06-26T08:33:10Z</time>
      </trkpt>
      <trkpt lat="42.9633440" lon="1.6041490">
        <ele>396.9</ele>
        <time>2022-06-26T08:33:11Z</time>
      </trkpt>
      <trkpt lat="42.9632910" lon="1.6041760">
        <ele>396.8</ele>
        <time>2022-06-26T08:33:12Z</time>
      </trkpt>
      <trkpt lat="42.9632350" lon="1.6041760">
        <ele>396.8</ele>
        <time>2022-06-26T08:33:13Z</time>
      </trkpt>
      <trkpt lat="42.9631270" lon="1.6041280">
        <ele>396.9</ele>
        <time>2022-06-26T08:33:15Z</time>
      </trkpt>
      <trkpt lat="42.9630690" lon="1.6041000">
        <ele>396.9</ele>
        <time>2022-06-26T08:33:16Z</time>
      </trkpt>
      <trkpt lat="42.9628970" lon="1.6040110">
        <ele>397.2</ele>
        <time>2022-06-26T08:33:18Z</time>
      </trkpt>
      <trkpt lat="42.9628430" lon="1.6039840">
        <ele>397.3</ele>
        <time>2022-06-26T08:33:20Z</time>
      </trkpt>
      <trkpt lat="42.9626260" lon="1.6038880">
        <ele>398.0</ele>
        <time>2022-06-26T08:33:23Z</time>
      </trkpt>
      <trkpt lat="42.9624760" lon="1.6038460">
        <ele>398.6</ele>
        <time>2022-06-26T08:33:27Z</time>
      </trkpt>
      <trkpt lat="42.9623900" lon="1.6038210">
        <ele>399.0</ele>
        <time>2022-06-26T08:33:29Z</time>
      </trkpt>
      <trkpt lat="42.9622980" lon="1.6038190">
        <ele>399.5</ele>
        <time>2022-06-26T08:33:30Z</time>
      </trkpt>
      <trkpt lat="42.9622070" lon="1.6038180">
        <ele>399.9</ele>
        <time>2022-06-26T08:33:33Z</time>
      </trkpt>
      <trkpt lat="42.9621620" lon="1.6038200">
        <ele>400.1</ele>
        <time>2022-06-26T08:33:34Z</time>
      </trkpt>
      <trkpt lat="42.9620700" lon="1.6038290">
        <ele>400.4</ele>
        <time>2022-06-26T08:33:35Z</time>
      </trkpt>
      <trkpt lat="42.9620200" lon="1.6038460">
        <ele>400.7</ele>
        <time>2022-06-26T08:33:37Z</time>
      </trkpt>
      <trkpt lat="42.9619300" lon="1.6038800">
        <ele>401.1</ele>
        <time>2022-06-26T08:33:39Z</time>
      </trkpt>
      <trkpt lat="42.9617960" lon="1.6039280">
        <ele>401.7</ele>
        <time>2022-06-26T08:33:41Z</time>
      </trkpt>
      <trkpt lat="42.9617530" lon="1.6039520">
        <ele>401.9</ele>
        <time>2022-06-26T08:33:43Z</time>
      </trkpt>
      <trkpt lat="42.9614600" lon="1.6040880">
        <ele>403.4</ele>
        <time>2022-06-26T08:33:50Z</time>
      </trkpt>
      <trkpt lat="42.9613560" lon="1.6041380">
        <ele>403.9</ele>
        <time>2022-06-26T08:33:52Z</time>
      </trkpt>
      <trkpt lat="42.9611380" lon="1.6042510">
        <ele>405.0</ele>
        <time>2022-06-26T08:33:57Z</time>
      </trkpt>
      <trkpt lat="42.9610980" lon="1.6042740">
        <ele>405.2</ele>
        <time>2022-06-26T08:33:59Z</time>
      </trkpt>
      <trkpt lat="42.9608210" lon="1.6044620">
        <ele>406.6</ele>
        <time>2022-06-26T08:34:05Z</time>
      </trkpt>
      <trkpt lat="42.9607790" lon="1.6044880">
        <ele>406.9</ele>
        <time>2022-06-26T08:34:07Z</time>
      </trkpt>
      <trkpt lat="42.9605280" lon="1.6046600">
        <ele>408.2</ele>
        <time>2022-06-26T08:34:13Z</time>
      </trkpt>
      <trkpt lat="42.9603310" lon="1.6047980">
        <ele>409.3</ele>
        <time>2022-06-26T08:34:18Z</time>
      </trkpt>
      <trkpt lat="42.9600900" lon="1.6050000">
        <ele>410.6</ele>
        <time>2022-06-26T08:34:24Z</time>
      </trkpt>
      <trkpt lat="42.9600570" lon="1.6050310">
        <ele>410.8</ele>
        <time>2022-06-26T08:34:26Z</time>
      </trkpt>
      <trkpt lat="42.9598420" lon="1.6052290">
        <ele>412.1</ele>
        <time>2022-06-26T08:34:31Z</time>
      </trkpt>
      <trkpt lat="42.9598030" lon="1.6052590">
        <ele>412.3</ele>
        <time>2022-06-26T08:34:32Z</time>
      </trkpt>
      <trkpt lat="42.9596930" lon="1.6053560">
        <ele>412.9</ele>
        <time>2022-06-26T08:34:35Z</time>
      </trkpt>
      <trkpt lat="42.9595270" lon="1.6055270">
        <ele>413.9</ele>
        <time>2022-06-26T08:34:41Z</time>
      </trkpt>
      <trkpt lat="42.9594270" lon="1.6056190">
        <ele>414.5</ele>
        <time>2022-06-26T08:34:44Z</time>
      </trkpt>
      <trkpt lat="42.9593600" lon="1.6056810">
        <ele>414.8</ele>
        <time>2022-06-26T08:34:46Z</time>
      </trkpt>
      <trkpt lat="42.9591590" lon="1.6058600">
        <ele>416.0</ele>
        <time>2022-06-26T08:34:52Z</time>
      </trkpt>
      <trkpt lat="42.9590530" lon="1.6059480">
        <ele>416.5</ele>
        <time>2022-06-26T08:34:55Z</time>
      </trkpt>
      <trkpt lat="42.9589060" lon="1.6060530">
        <ele>417.4</ele>
        <time>2022-06-26T08:34:59Z</time>
      </trkpt>
      <trkpt lat="42.9586860" lon="1.6061880">
        <ele>418.6</ele>
        <time>2022-06-26T08:35:05Z</time>
      </trkpt>
      <trkpt lat="42.9585690" lon="1.6062140">
        <ele>419.3</ele>
        <time>2022-06-26T08:35:08Z</time>
      </trkpt>
      <trkpt lat="42.9584500" lon="1.6061960">
        <ele>420.0</ele>
        <time>2022-06-26T08:35:11Z</time>
      </trkpt>
      <trkpt lat="42.9583840" lon="1.6061450">
        <ele>420.4</ele>
        <time>2022-06-26T08:35:13Z</time>
      </trkpt>
      <trkpt lat="42.9583250" lon="1.6060740">
        <ele>420.9</ele>
        <time>2022-06-26T08:35:15Z</time>
      </trkpt>
      <trkpt lat="42.9582990" lon="1.6060330">
        <ele>421.1</ele>
        <time>2022-06-26T08:35:16Z</time>
      </trkpt>
      <trkpt lat="42.9582750" lon="1.6059920">
        <ele>421.3</ele>
        <time>2022-06-26T08:35:17Z</time>
      </trkpt>
      <trkpt lat="42.9582110" lon="1.6058530">
        <ele>422.0</ele>
        <time>2022-06-26T08:35:20Z</time>
      </trkpt>
      <trkpt lat="42.9581920" lon="1.6058040">
        <ele>422.2</ele>
        <time>2022-06-26T08:35:21Z</time>
      </trkpt>
      <trkpt lat="42.9580900" lon="1.6055700">
        <ele>423.4</ele>
        <time>2022-06-26T08:35:26Z</time>
      </trkpt>
      <trkpt lat="42.9580110" lon="1.6054490">
        <ele>424.3</ele>
        <time>2022-06-26T08:35:29Z</time>
      </trkpt>
      <trkpt lat="42.9579790" lon="1.6054190">
        <ele>424.5</ele>
        <time>2022-06-26T08:35:30Z</time>
      </trkpt>
      <trkpt lat="42.9579010" lon="1.6054090">
        <ele>425.3</ele>
        <time>2022-06-26T08:35:32Z</time>
      </trkpt>
      <trkpt lat="42.9577760" lon="1.6054670">
        <ele>425.7</ele>
        <time>2022-06-26T08:35:35Z</time>
      </trkpt>
      <trkpt lat="42.9576540" lon="1.6055340">
        <ele>426.0</ele>
        <time>2022-06-26T08:35:38Z</time>
      </trkpt>
      <trkpt lat="42.9575380" lon="1.6056090">
        <ele>426.4</ele>
        <time>2022-06-26T08:35:41Z</time>
      </trkpt>
      <trkpt lat="42.9573590" lon="1.6057570">
        <ele>427.6</ele>
        <time>2022-06-26T08:35:46Z</time>
      </trkpt>
      <trkpt lat="42.9572350" lon="1.6058590">
        <ele>428.7</ele>
        <time>2022-06-26T08:35:50Z</time>
      </trkpt>
      <trkpt lat="42.9571410" lon="1.6059140">
        <ele>429.5</ele>
        <time>2022-06-26T08:35:53Z</time>
      </trkpt>
      <trkpt lat="42.9569030" lon="1.6059250">
        <ele>431.4</ele>
        <time>2022-06-26T08:35:59Z</time>
      </trkpt>
      <trkpt lat="42.9568370" lon="1.6059150">
        <ele>431.7</ele>
        <time>2022-06-26T08:36:02Z</time>
      </trkpt>
      <trkpt lat="42.9567260" lon="1.6059060">
        <ele>432.4</ele>
        <time>2022-06-26T08:36:06Z</time>
      </trkpt>
      <trkpt lat="42.9567030" lon="1.6059040">
        <ele>432.6</ele>
        <time>2022-06-26T08:36:07Z</time>
      </trkpt>
      <trkpt lat="42.9566780" lon="1.6058990">
        <ele>432.8</ele>
        <time>2022-06-26T08:36:08Z</time>
      </trkpt>
      <trkpt lat="42.9566260" lon="1.6058860">
        <ele>433.3</ele>
        <time>2022-06-26T08:36:10Z</time>
      </trkpt>
      <trkpt lat="42.9566010" lon="1.6058820">
        <ele>433.5</ele>
        <time>2022-06-26T08:36:11Z</time>
      </trkpt>
      <trkpt lat="42.9565760" lon="1.6058760">
        <ele>433.7</ele>
        <time>2022-06-26T08:36:12Z</time>
      </trkpt>
      <trkpt lat="42.9565250" lon="1.6058710">
        <ele>434.1</ele>
        <time>2022-06-26T08:36:14Z</time>
      </trkpt>
      <trkpt lat="42.9564220" lon="1.6058740">
        <ele>434.8</ele>
        <time>2022-06-26T08:36:17Z</time>
      </trkpt>
      <trkpt lat="42.9562360" lon="1.6058320">
        <ele>436.1</ele>
        <time>2022-06-26T08:36:22Z</time>
      </trkpt>
      <trkpt lat="42.9561980" lon="1.6058220">
        <ele>436.3</ele>
        <time>2022-06-26T08:36:23Z</time>
      </trkpt>
      <trkpt lat="42.9559440" lon="1.6056840">
        <ele>437.5</ele>
        <time>2022-06-26T08:36:31Z</time>
      </trkpt>
      <trkpt lat="42.9559110" lon="1.6056570">
        <ele>437.7</ele>
        <time>2022-06-26T08:36:32Z</time>
      </trkpt>
      <trkpt lat="42.9558030" lon="1.6055930">
        <ele>438.3</ele>
        <time>2022-06-26T08:36:35Z</time>
      </trkpt>
      <trkpt lat="42.9557750" lon="1.6055990">
        <ele>438.4</ele>
        <time>2022-06-26T08:36:36Z</time>
      </trkpt>
      <trkpt lat="42.9557260" lon="1.6056820">
        <ele>438.7</ele>
        <time>2022-06-26T08:36:38Z</time>
      </trkpt>
      <trkpt lat="42.9557040" lon="1.6057410">
        <ele>438.7</ele>
        <time>2022-06-26T08:36:39Z</time>
      </trkpt>
      <trkpt lat="42.9556610" lon="1.6058590">
        <ele>438.8</ele>
        <time>2022-06-26T08:36:41Z</time>
      </trkpt>
      <trkpt lat="42.9556380" lon="1.6059150">
        <ele>438.9</ele>
        <time>2022-06-26T08:36:42Z</time>
      </trkpt>
      <trkpt lat="42.9556130" lon="1.6059770">
        <ele>439.0</ele>
        <time>2022-06-26T08:36:43Z</time>
      </trkpt>
      <trkpt lat="42.9555690" lon="1.6060890">
        <ele>439.2</ele>
        <time>2022-06-26T08:36:45Z</time>
      </trkpt>
      <trkpt lat="42.9555180" lon="1.6061970">
        <ele>439.4</ele>
        <time>2022-06-26T08:36:47Z</time>
      </trkpt>
      <trkpt lat="42.9553340" lon="1.6065150">
        <ele>439.9</ele>
        <time>2022-06-26T08:36:53Z</time>
      </trkpt>
      <trkpt lat="42.9552230" lon="1.6066530">
        <ele>440.2</ele>
        <time>2022-06-26T08:36:56Z</time>
      </trkpt>
      <trkpt lat="42.9550730" lon="1.6068080">
        <ele>440.9</ele>
        <time>2022-06-26T08:36:59Z</time>
      </trkpt>
      <trkpt lat="42.9547870" lon="1.6070480">
        <ele>442.5</ele>
        <time>2022-06-26T08:37:08Z</time>
      </trkpt>
      <trkpt lat="42.9546210" lon="1.6072020">
        <ele>443.5</ele>
        <time>2022-06-26T08:37:13Z</time>
      </trkpt>
      <trkpt lat="42.9545870" lon="1.6072300">
        <ele>443.6</ele>
        <time>2022-06-26T08:37:14Z</time>
      </trkpt>
      <trkpt lat="42.9542570" lon="1.6075220">
        <ele>445.6</ele>
        <time>2022-06-26T08:37:23Z</time>
      </trkpt>
      <trkpt lat="42.9542250" lon="1.6075500">
        <ele>445.8</ele>
        <time>2022-06-26T08:37:25Z</time>
      </trkpt>
      <trkpt lat="42.9541930" lon="1.6075790">
        <ele>445.9</ele>
        <time>2022-06-26T08:37:26Z</time>
      </trkpt>
      <trkpt lat="42.9540650" lon="1.6076830">
        <ele>446.7</ele>
        <time>2022-06-26T08:37:30Z</time>
      </trkpt>
      <trkpt lat="42.9539570" lon="1.6077310">
        <ele>447.3</ele>
        <time>2022-06-26T08:37:33Z</time>
      </trkpt>
      <trkpt lat="42.9539200" lon="1.6077390">
        <ele>447.5</ele>
        <time>2022-06-26T08:37:34Z</time>
      </trkpt>
      <trkpt lat="42.9537690" lon="1.6077160">
        <ele>448.3</ele>
        <time>2022-06-26T08:37:38Z</time>
      </trkpt>
      <trkpt lat="42.9534160" lon="1.6075500">
        <ele>450.0</ele>
        <time>2022-06-26T08:37:47Z</time>
      </trkpt>
      <trkpt lat="42.9532370" lon="1.6075620">
        <ele>450.8</ele>
        <time>2022-06-26T08:37:51Z</time>
      </trkpt>
      <trkpt lat="42.9531270" lon="1.6076420">
        <ele>451.3</ele>
        <time>2022-06-26T08:37:54Z</time>
      </trkpt>
      <trkpt lat="42.9530340" lon="1.6077400">
        <ele>451.8</ele>
        <time>2022-06-26T08:37:56Z</time>
      </trkpt>
      <trkpt lat="42.9527710" lon="1.6080900">
        <ele>453.5</ele>
        <time>2022-06-26T08:38:05Z</time>
      </trkpt>
      <trkpt lat="42.9526420" lon="1.6082180">
        <ele>454.2</ele>
        <time>2022-06-26T08:38:10Z</time>
      </trkpt>
      <trkpt lat="42.9526060" lon="1.6082420">
        <ele>454.3</ele>
        <time>2022-06-26T08:38:11Z</time>
      </trkpt>
      <trkpt lat="42.9525290" lon="1.6082780">
        <ele>454.7</ele>
        <time>2022-06-26T08:38:13Z</time>
      </trkpt>
      <trkpt lat="42.9522650" lon="1.6083210">
        <ele>455.8</ele>
        <time>2022-06-26T08:38:20Z</time>
      </trkpt>
      <trkpt lat="42.9519540" lon="1.6083540">
        <ele>457.2</ele>
        <time>2022-06-26T08:38:28Z</time>
      </trkpt>
      <trkpt lat="42.9516380" lon="1.6084200">
        <ele>458.7</ele>
        <time>2022-06-26T08:38:36Z</time>
      </trkpt>
      <trkpt lat="42.9515160" lon="1.6084150">
        <ele>459.2</ele>
        <time>2022-06-26T08:38:39Z</time>
      </trkpt>
      <trkpt lat="42.9514030" lon="1.6083710">
        <ele>459.7</ele>
        <time>2022-06-26T08:38:42Z</time>
      </trkpt>
      <trkpt lat="42.9510980" lon="1.6081720">
        <ele>461.5</ele>
        <time>2022-06-26T08:38:49Z</time>
      </trkpt>
      <trkpt lat="42.9510690" lon="1.6081380">
        <ele>461.7</ele>
        <time>2022-06-26T08:38:50Z</time>
      </trkpt>
      <trkpt lat="42.9509510" lon="1.6079170">
        <ele>463.2</ele>
        <time>2022-06-26T08:38:56Z</time>
      </trkpt>
      <trkpt lat="42.9508350" lon="1.6075970">
        <ele>465.5</ele>
        <time>2022-06-26T08:39:05Z</time>
      </trkpt>
      <trkpt lat="42.9506800" lon="1.6073800">
        <ele>467.6</ele>
        <time>2022-06-26T08:39:13Z</time>
      </trkpt>
      <trkpt lat="42.9505430" lon="1.6073850">
        <ele>468.8</ele>
        <time>2022-06-26T08:39:19Z</time>
      </trkpt>
      <trkpt lat="42.9504930" lon="1.6074150">
        <ele>469.2</ele>
        <time>2022-06-26T08:39:20Z</time>
      </trkpt>
      <trkpt lat="42.9504470" lon="1.6074640">
        <ele>469.7</ele>
        <time>2022-06-26T08:39:23Z</time>
      </trkpt>
      <trkpt lat="42.9503590" lon="1.6076950">
        <ele>471.0</ele>
        <time>2022-06-26T08:39:29Z</time>
      </trkpt>
      <trkpt lat="42.9503050" lon="1.6079780">
        <ele>472.6</ele>
        <time>2022-06-26T08:39:37Z</time>
      </trkpt>
      <trkpt lat="42.9502980" lon="1.6080140">
        <ele>472.8</ele>
        <time>2022-06-26T08:39:38Z</time>
      </trkpt>
      <trkpt lat="42.9502760" lon="1.6081900">
        <ele>473.9</ele>
        <time>2022-06-26T08:39:43Z</time>
      </trkpt>
      <trkpt lat="42.9502640" lon="1.6084800">
        <ele>475.8</ele>
        <time>2022-06-26T08:39:51Z</time>
      </trkpt>
      <trkpt lat="42.9502640" lon="1.6085170">
        <ele>476.0</ele>
        <time>2022-06-26T08:39:52Z</time>
      </trkpt>
      <trkpt lat="42.9502930" lon="1.6088410">
        <ele>478.0</ele>
        <time>2022-06-26T08:40:01Z</time>
      </trkpt>
      <trkpt lat="42.9503190" lon="1.6091310">
        <ele>479.9</ele>
        <time>2022-06-26T08:40:09Z</time>
      </trkpt>
      <trkpt lat="42.9503370" lon="1.6093380">
        <ele>481.3</ele>
        <time>2022-06-26T08:40:15Z</time>
      </trkpt>
      <trkpt lat="42.9503210" lon="1.6095500">
        <ele>482.8</ele>
        <time>2022-06-26T08:40:21Z</time>
      </trkpt>
      <trkpt lat="42.9502810" lon="1.6097500">
        <ele>484.4</ele>
        <time>2022-06-26T08:40:27Z</time>
      </trkpt>
      <trkpt lat="42.9502510" lon="1.6099500">
        <ele>485.8</ele>
        <time>2022-06-26T08:40:34Z</time>
      </trkpt>
      <trkpt lat="42.9502440" lon="1.6100190">
        <ele>486.3</ele>
        <time>2022-06-26T08:40:36Z</time>
      </trkpt>
      <trkpt lat="42.9502030" lon="1.6102150">
        <ele>487.6</ele>
        <time>2022-06-26T08:40:42Z</time>
      </trkpt>
      <trkpt lat="42.9501830" lon="1.6102780">
        <ele>488.1</ele>
        <time>2022-06-26T08:40:44Z</time>
      </trkpt>
      <trkpt lat="42.9501590" lon="1.6104200">
        <ele>489.1</ele>
        <time>2022-06-26T08:40:48Z</time>
      </trkpt>
      <trkpt lat="42.9501530" lon="1.6105240">
        <ele>489.8</ele>
        <time>2022-06-26T08:40:51Z</time>
      </trkpt>
      <trkpt lat="42.9501220" lon="1.6106540">
        <ele>490.7</ele>
        <time>2022-06-26T08:40:55Z</time>
      </trkpt>
      <trkpt lat="42.9501060" lon="1.6107520">
        <ele>491.4</ele>
        <time>2022-06-26T08:40:58Z</time>
      </trkpt>
      <trkpt lat="42.9501390" lon="1.6109160">
        <ele>492.5</ele>
        <time>2022-06-26T08:41:03Z</time>
      </trkpt>
      <trkpt lat="42.9501260" lon="1.6110180">
        <ele>493.2</ele>
        <time>2022-06-26T08:41:06Z</time>
      </trkpt>
      <trkpt lat="42.9501120" lon="1.6110850">
        <ele>493.7</ele>
        <time>2022-06-26T08:41:08Z</time>
      </trkpt>
      <trkpt lat="42.9501080" lon="1.6111500">
        <ele>494.2</ele>
        <time>2022-06-26T08:41:10Z</time>
      </trkpt>
      <trkpt lat="42.9500150" lon="1.6114030">
        <ele>496.1</ele>
        <time>2022-06-26T08:41:18Z</time>
      </trkpt>
      <trkpt lat="42.9499440" lon="1.6115070">
        <ele>497.0</ele>
        <time>2022-06-26T08:41:22Z</time>
      </trkpt>
      <trkpt lat="42.9498760" lon="1.6115570">
        <ele>497.7</ele>
        <time>2022-06-26T08:41:25Z</time>
      </trkpt>
      <trkpt lat="42.9497130" lon="1.6115820">
        <ele>499.2</ele>
        <time>2022-06-26T08:41:31Z</time>
      </trkpt>
      <trkpt lat="42.9496130" lon="1.6114890">
        <ele>500.4</ele>
        <time>2022-06-26T08:41:36Z</time>
      </trkpt>
      <trkpt lat="42.9494840" lon="1.6112450">
        <ele>502.5</ele>
        <time>2022-06-26T08:41:44Z</time>
      </trkpt>
      <trkpt lat="42.9493930" lon="1.6110180">
        <ele>504.0</ele>
        <time>2022-06-26T08:41:51Z</time>
      </trkpt>
      <trkpt lat="42.9492240" lon="1.6107500">
        <ele>505.4</ele>
        <time>2022-06-26T08:41:59Z</time>
      </trkpt>
      <trkpt lat="42.9492000" lon="1.6107140">
        <ele>505.5</ele>
        <time>2022-06-26T08:42:00Z</time>
      </trkpt>
      <trkpt lat="42.9490350" lon="1.6105050">
        <ele>505.8</ele>
        <time>2022-06-26T08:42:07Z</time>
      </trkpt>
      <trkpt lat="42.9488090" lon="1.6102820">
        <ele>506.2</ele>
        <time>2022-06-26T08:42:15Z</time>
      </trkpt>
      <trkpt lat="42.9487850" lon="1.6102540">
        <ele>506.2</ele>
        <time>2022-06-26T08:42:16Z</time>
      </trkpt>
      <trkpt lat="42.9486340" lon="1.6101130">
        <ele>506.4</ele>
        <time>2022-06-26T08:42:21Z</time>
      </trkpt>
      <trkpt lat="42.9483890" lon="1.6098810">
        <ele>506.7</ele>
        <time>2022-06-26T08:42:28Z</time>
      </trkpt>
      <trkpt lat="42.9483580" lon="1.6098400">
        <ele>506.7</ele>
        <time>2022-06-26T08:42:29Z</time>
      </trkpt>
      <trkpt lat="42.9482380" lon="1.6096070">
        <ele>507.2</ele>
        <time>2022-06-26T08:42:34Z</time>
      </trkpt>
      <trkpt lat="42.9480460" lon="1.6090810">
        <ele>509.2</ele>
        <time>2022-06-26T08:42:45Z</time>
      </trkpt>
      <trkpt lat="42.9479840" lon="1.6087610">
        <ele>510.8</ele>
        <time>2022-06-26T08:42:52Z</time>
      </trkpt>
      <trkpt lat="42.9479890" lon="1.6084760">
        <ele>512.5</ele>
        <time>2022-06-26T08:42:59Z</time>
      </trkpt>
      <trkpt lat="42.9479790" lon="1.6081530">
        <ele>514.7</ele>
        <time>2022-06-26T08:43:09Z</time>
      </trkpt>
      <trkpt lat="42.9479620" lon="1.6079630">
        <ele>516.0</ele>
        <time>2022-06-26T08:43:15Z</time>
      </trkpt>
      <trkpt lat="42.9479590" lon="1.6079320">
        <ele>516.2</ele>
        <time>2022-06-26T08:43:16Z</time>
      </trkpt>
      <trkpt lat="42.9479310" lon="1.6077380">
        <ele>517.6</ele>
        <time>2022-06-26T08:43:22Z</time>
      </trkpt>
      <trkpt lat="42.9478680" lon="1.6075190">
        <ele>519.1</ele>
        <time>2022-06-26T08:43:30Z</time>
      </trkpt>
      <trkpt lat="42.9477780" lon="1.6072810">
        <ele>520.8</ele>
        <time>2022-06-26T08:43:38Z</time>
      </trkpt>
      <trkpt lat="42.9476700" lon="1.6070250">
        <ele>522.8</ele>
        <time>2022-06-26T08:43:46Z</time>
      </trkpt>
      <trkpt lat="42.9475240" lon="1.6067240">
        <ele>525.1</ele>
        <time>2022-06-26T08:43:56Z</time>
      </trkpt>
      <trkpt lat="42.9473280" lon="1.6064090">
        <ele>527.5</ele>
        <time>2022-06-26T08:44:07Z</time>
      </trkpt>
      <trkpt lat="42.9470870" lon="1.6061540">
        <ele>529.4</ele>
        <time>2022-06-26T08:44:17Z</time>
      </trkpt>
      <trkpt lat="42.9468760" lon="1.6059810">
        <ele>530.9</ele>
        <time>2022-06-26T08:44:25Z</time>
      </trkpt>
      <trkpt lat="42.9467920" lon="1.6059230">
        <ele>531.3</ele>
        <time>2022-06-26T08:44:28Z</time>
      </trkpt>
      <trkpt lat="42.9467070" lon="1.6058680">
        <ele>531.8</ele>
        <time>2022-06-26T08:44:31Z</time>
      </trkpt>
      <trkpt lat="42.9465870" lon="1.6057910">
        <ele>532.3</ele>
        <time>2022-06-26T08:44:35Z</time>
      </trkpt>
      <trkpt lat="42.9465270" lon="1.6057460">
        <ele>532.5</ele>
        <time>2022-06-26T08:44:37Z</time>
      </trkpt>
      <trkpt lat="42.9462570" lon="1.6055500">
        <ele>533.6</ele>
        <time>2022-06-26T08:44:46Z</time>
      </trkpt>
      <trkpt lat="42.9459730" lon="1.6052930">
        <ele>534.6</ele>
        <time>2022-06-26T08:44:56Z</time>
      </trkpt>
      <trkpt lat="42.9458740" lon="1.6050080">
        <ele>535.1</ele>
        <time>2022-06-26T08:45:01Z</time>
      </trkpt>
      <trkpt lat="42.9458250" lon="1.6047390">
        <ele>536.5</ele>
        <time>2022-06-26T08:45:06Z</time>
      </trkpt>
      <trkpt lat="42.9458060" lon="1.6046050">
        <ele>537.6</ele>
        <time>2022-06-26T08:45:09Z</time>
      </trkpt>
      <trkpt lat="42.9458080" lon="1.6043160">
        <ele>540.1</ele>
        <time>2022-06-26T08:45:17Z</time>
      </trkpt>
      <trkpt lat="42.9458450" lon="1.6041300">
        <ele>541.8</ele>
        <time>2022-06-26T08:45:25Z</time>
      </trkpt>
      <trkpt lat="42.9458670" lon="1.6039880">
        <ele>543.0</ele>
        <time>2022-06-26T08:45:33Z</time>
      </trkpt>
      <trkpt lat="42.9458680" lon="1.6039680">
        <ele>543.2</ele>
        <time>2022-06-26T08:45:34Z</time>
      </trkpt>
      <trkpt lat="42.9458820" lon="1.6039120">
        <ele>543.7</ele>
        <time>2022-06-26T08:45:37Z</time>
      </trkpt>
      <trkpt lat="42.9458830" lon="1.6038890">
        <ele>543.9</ele>
        <time>2022-06-26T08:45:38Z</time>
      </trkpt>
      <trkpt lat="42.9458950" lon="1.6038530">
        <ele>544.2</ele>
        <time>2022-06-26T08:45:40Z</time>
      </trkpt>
      <trkpt lat="42.9459030" lon="1.6038350">
        <ele>544.4</ele>
        <time>2022-06-26T08:45:41Z</time>
      </trkpt>
      <trkpt lat="42.9459240" lon="1.6037680">
        <ele>545.0</ele>
        <time>2022-06-26T08:45:45Z</time>
      </trkpt>
      <trkpt lat="42.9459480" lon="1.6036910">
        <ele>545.8</ele>
        <time>2022-06-26T08:45:48Z</time>
      </trkpt>
      <trkpt lat="42.9460570" lon="1.6035220">
        <ele>547.7</ele>
        <time>2022-06-26T08:45:56Z</time>
      </trkpt>
      <trkpt lat="42.9460840" lon="1.6034840">
        <ele>548.1</ele>
        <time>2022-06-26T08:45:58Z</time>
      </trkpt>
      <trkpt lat="42.9461530" lon="1.6033900">
        <ele>549.3</ele>
        <time>2022-06-26T08:46:03Z</time>
      </trkpt>
      <trkpt lat="42.9462820" lon="1.6031960">
        <ele>551.5</ele>
        <time>2022-06-26T08:46:13Z</time>
      </trkpt>
      <trkpt lat="42.9463380" lon="1.6030160">
        <ele>553.2</ele>
        <time>2022-06-26T08:46:21Z</time>
      </trkpt>
      <trkpt lat="42.9463070" lon="1.6028280">
        <ele>554.9</ele>
        <time>2022-06-26T08:46:27Z</time>
      </trkpt>
      <trkpt lat="42.9462490" lon="1.6026700">
        <ele>556.4</ele>
        <time>2022-06-26T08:46:33Z</time>
      </trkpt>
      <trkpt lat="42.9462520" lon="1.6026390">
        <ele>556.7</ele>
        <time>2022-06-26T08:46:34Z</time>
      </trkpt>
      <trkpt lat="42.9462700" lon="1.6025810">
        <ele>557.2</ele>
        <time>2022-06-26T08:46:37Z</time>
      </trkpt>
      <trkpt lat="42.9462830" lon="1.6025580">
        <ele>557.4</ele>
        <time>2022-06-26T08:46:38Z</time>
      </trkpt>
      <trkpt lat="42.9463170" lon="1.6025350">
        <ele>557.9</ele>
        <time>2022-06-26T08:46:39Z</time>
      </trkpt>
      <trkpt lat="42.9464140" lon="1.6025750">
        <ele>559.1</ele>
        <time>2022-06-26T08:46:44Z</time>
      </trkpt>
      <trkpt lat="42.9464140" lon="1.6025750">
        <ele>559.1</ele>
        <time>2022-06-26T08:46:45Z</time>
      </trkpt>
      <trkpt lat="42.9465240" lon="1.6026880">
        <ele>560.7</ele>
        <time>2022-06-26T08:46:51Z</time>
      </trkpt>
      <trkpt lat="42.9465690" lon="1.6027580">
        <ele>561.5</ele>
        <time>2022-06-26T08:46:54Z</time>
      </trkpt>
      <trkpt lat="42.9466180" lon="1.6028860">
        <ele>562.7</ele>
        <time>2022-06-26T08:46:58Z</time>
      </trkpt>
      <trkpt lat="42.9466220" lon="1.6029360">
        <ele>563.2</ele>
        <time>2022-06-26T08:47:01Z</time>
      </trkpt>
      <trkpt lat="42.9466360" lon="1.6030420">
        <ele>564.1</ele>
        <time>2022-06-26T08:47:05Z</time>
      </trkpt>
      <trkpt lat="42.9466380" lon="1.6031510">
        <ele>565.0</ele>
        <time>2022-06-26T08:47:09Z</time>
      </trkpt>
      <trkpt lat="42.9466540" lon="1.6033410">
        <ele>566.7</ele>
        <time>2022-06-26T08:47:16Z</time>
      </trkpt>
      <trkpt lat="42.9466580" lon="1.6033650">
        <ele>566.9</ele>
        <time>2022-06-26T08:47:17Z</time>
      </trkpt>
      <trkpt lat="42.9466990" lon="1.6035070">
        <ele>568.2</ele>
        <time>2022-06-26T08:47:23Z</time>
      </trkpt>
      <trkpt lat="42.9467880" lon="1.6036710">
        <ele>569.9</ele>
        <time>2022-06-26T08:47:30Z</time>
      </trkpt>
      <trkpt lat="42.9468540" lon="1.6037570">
        <ele>571.0</ele>
        <time>2022-06-26T08:47:35Z</time>
      </trkpt>
      <trkpt lat="42.9468880" lon="1.6037800">
        <ele>571.4</ele>
        <time>2022-06-26T08:47:37Z</time>
      </trkpt>
      <trkpt lat="42.9469200" lon="1.6038070">
        <ele>571.9</ele>
        <time>2022-06-26T08:47:39Z</time>
      </trkpt>
      <trkpt lat="42.9470120" lon="1.6038740">
        <ele>573.1</ele>
        <time>2022-06-26T08:47:45Z</time>
      </trkpt>
      <trkpt lat="42.9470560" lon="1.6039030">
        <ele>573.7</ele>
        <time>2022-06-26T08:47:48Z</time>
      </trkpt>
      <trkpt lat="42.9471590" lon="1.6039810">
        <ele>575.1</ele>
        <time>2022-06-26T08:47:55Z</time>
      </trkpt>
      <trkpt lat="42.9472430" lon="1.6040540">
        <ele>576.2</ele>
        <time>2022-06-26T08:48:01Z</time>
      </trkpt>
      <trkpt lat="42.9472740" lon="1.6040700">
        <ele>576.6</ele>
        <time>2022-06-26T08:48:03Z</time>
      </trkpt>
      <trkpt lat="42.9473580" lon="1.6040900">
        <ele>577.6</ele>
        <time>2022-06-26T08:48:08Z</time>
      </trkpt>
      <trkpt lat="42.9474700" lon="1.6040310">
        <ele>579.0</ele>
        <time>2022-06-26T08:48:14Z</time>
      </trkpt>
      <trkpt lat="42.9475270" lon="1.6038830">
        <ele>580.5</ele>
        <time>2022-06-26T08:48:20Z</time>
      </trkpt>
      <trkpt lat="42.9475420" lon="1.6038340">
        <ele>580.9</ele>
        <time>2022-06-26T08:48:22Z</time>
      </trkpt>
      <trkpt lat="42.9475760" lon="1.6036650">
        <ele>582.4</ele>
        <time>2022-06-26T08:48:29Z</time>
      </trkpt>
      <trkpt lat="42.9475890" lon="1.6034470">
        <ele>584.3</ele>
        <time>2022-06-26T08:48:38Z</time>
      </trkpt>
      <trkpt lat="42.9475820" lon="1.6032040">
        <ele>586.4</ele>
        <time>2022-06-26T08:48:46Z</time>
      </trkpt>
      <trkpt lat="42.9475720" lon="1.6029800">
        <ele>588.3</ele>
        <time>2022-06-26T08:48:55Z</time>
      </trkpt>
      <trkpt lat="42.9475530" lon="1.6027970">
        <ele>589.9</ele>
        <time>2022-06-26T08:49:01Z</time>
      </trkpt>
      <trkpt lat="42.9475150" lon="1.6025330">
        <ele>592.2</ele>
        <time>2022-06-26T08:49:10Z</time>
      </trkpt>
      <trkpt lat="42.9475130" lon="1.6025040">
        <ele>592.5</ele>
        <time>2022-06-26T08:49:11Z</time>
      </trkpt>
      <trkpt lat="42.9474880" lon="1.6022910">
        <ele>594.3</ele>
        <time>2022-06-26T08:49:19Z</time>
      </trkpt>
      <trkpt lat="42.9474700" lon="1.6021560">
        <ele>595.5</ele>
        <time>2022-06-26T08:49:24Z</time>
      </trkpt>
      <trkpt lat="42.9474630" lon="1.6020940">
        <ele>596.0</ele>
        <time>2022-06-26T08:49:26Z</time>
      </trkpt>
      <trkpt lat="42.9474440" lon="1.6018720">
        <ele>597.9</ele>
        <time>2022-06-26T08:49:34Z</time>
      </trkpt>
      <trkpt lat="42.9474030" lon="1.6016540">
        <ele>599.9</ele>
        <time>2022-06-26T08:49:42Z</time>
      </trkpt>
      <trkpt lat="42.9473920" lon="1.6015250">
        <ele>601.0</ele>
        <time>2022-06-26T08:49:47Z</time>
      </trkpt>
      <trkpt lat="42.9473380" lon="1.6013320">
        <ele>602.8</ele>
        <time>2022-06-26T08:49:54Z</time>
      </trkpt>
      <trkpt lat="42.9473170" lon="1.6012510">
        <ele>603.5</ele>
        <time>2022-06-26T08:49:57Z</time>
      </trkpt>
      <trkpt lat="42.9472930" lon="1.6011730">
        <ele>604.2</ele>
        <time>2022-06-26T08:50:00Z</time>
      </trkpt>
      <trkpt lat="42.9472100" lon="1.6009140">
        <ele>606.6</ele>
        <time>2022-06-26T08:50:10Z</time>
      </trkpt>
      <trkpt lat="42.9471430" lon="1.6007600">
        <ele>608.2</ele>
        <time>2022-06-26T08:50:16Z</time>
      </trkpt>
      <trkpt lat="42.9470090" lon="1.6006300">
        <ele>610.1</ele>
        <time>2022-06-26T08:50:23Z</time>
      </trkpt>
      <trkpt lat="42.9469120" lon="1.6005710">
        <ele>611.4</ele>
        <time>2022-06-26T08:50:28Z</time>
      </trkpt>
      <trkpt lat="42.9467950" lon="1.6004300">
        <ele>613.2</ele>
        <time>2022-06-26T08:50:36Z</time>
      </trkpt>
      <trkpt lat="42.9467570" lon="1.6003680">
        <ele>613.9</ele>
        <time>2022-06-26T08:50:39Z</time>
      </trkpt>
      <trkpt lat="42.9467320" lon="1.6003100">
        <ele>614.5</ele>
        <time>2022-06-26T08:50:42Z</time>
      </trkpt>
      <trkpt lat="42.9467230" lon="1.6001760">
        <ele>615.6</ele>
        <time>2022-06-26T08:50:48Z</time>
      </trkpt>
      <trkpt lat="42.9467310" lon="1.6000420">
        <ele>616.8</ele>
        <time>2022-06-26T08:50:54Z</time>
      </trkpt>
      <trkpt lat="42.9467180" lon="1.5999460">
        <ele>617.6</ele>
        <time>2022-06-26T08:50:58Z</time>
      </trkpt>
      <trkpt lat="42.9467040" lon="1.5998510">
        <ele>618.4</ele>
        <time>2022-06-26T08:51:02Z</time>
      </trkpt>
      <trkpt lat="42.9466520" lon="1.5996720">
        <ele>620.1</ele>
        <time>2022-06-26T08:51:10Z</time>
      </trkpt>
      <trkpt lat="42.9465780" lon="1.5995580">
        <ele>621.4</ele>
        <time>2022-06-26T08:51:16Z</time>
      </trkpt>
      <trkpt lat="42.9464870" lon="1.5994020">
        <ele>623.4</ele>
        <time>2022-06-26T08:51:24Z</time>
      </trkpt>
      <trkpt lat="42.9464650" lon="1.5992860">
        <ele>624.6</ele>
        <time>2022-06-26T08:51:29Z</time>
      </trkpt>
      <trkpt lat="42.9464550" lon="1.5992390">
        <ele>625.1</ele>
        <time>2022-06-26T08:51:31Z</time>
      </trkpt>
      <trkpt lat="42.9464350" lon="1.5990940">
        <ele>626.6</ele>
        <time>2022-06-26T08:51:37Z</time>
      </trkpt>
      <trkpt lat="42.9464420" lon="1.5989310">
        <ele>628.2</ele>
        <time>2022-06-26T08:51:44Z</time>
      </trkpt>
      <trkpt lat="42.9464620" lon="1.5988430">
        <ele>629.1</ele>
        <time>2022-06-26T08:51:48Z</time>
      </trkpt>
      <trkpt lat="42.9464630" lon="1.5987940">
        <ele>629.6</ele>
        <time>2022-06-26T08:51:50Z</time>
      </trkpt>
      <trkpt lat="42.9464730" lon="1.5987490">
        <ele>630.1</ele>
        <time>2022-06-26T08:51:52Z</time>
      </trkpt>
      <trkpt lat="42.9465100" lon="1.5986190">
        <ele>631.5</ele>
        <time>2022-06-26T08:51:58Z</time>
      </trkpt>
      <trkpt lat="42.9465370" lon="1.5985320">
        <ele>632.4</ele>
        <time>2022-06-26T08:52:02Z</time>
      </trkpt>
      <trkpt lat="42.9467860" lon="1.5969390">
        <ele>647.5</ele>
        <time>2022-06-26T08:53:16Z</time>
      </trkpt>
      <trkpt lat="42.9467270" lon="1.5968090">
        <ele>648.6</ele>
        <time>2022-06-26T08:53:21Z</time>
      </trkpt>
      <trkpt lat="42.9467060" lon="1.5967710">
        <ele>649.0</ele>
        <time>2022-06-26T08:53:23Z</time>
      </trkpt>
      <trkpt lat="42.9466480" lon="1.5966340">
        <ele>649.9</ele>
        <time>2022-06-26T08:53:30Z</time>
      </trkpt>
      <trkpt lat="42.9466070" lon="1.5965430">
        <ele>650.4</ele>
        <time>2022-06-26T08:53:34Z</time>
      </trkpt>
      <trkpt lat="42.9465520" lon="1.5964400">
        <ele>651.2</ele>
        <time>2022-06-26T08:53:38Z</time>
      </trkpt>
      <trkpt lat="42.9464370" lon="1.5963590">
        <ele>652.7</ele>
        <time>2022-06-26T08:53:45Z</time>
      </trkpt>
      <trkpt lat="42.9463370" lon="1.5963000">
        <ele>653.9</ele>
        <time>2022-06-26T08:53:51Z</time>
      </trkpt>
      <trkpt lat="42.9462860" lon="1.5962750">
        <ele>654.4</ele>
        <time>2022-06-26T08:53:54Z</time>
      </trkpt>
      <trkpt lat="42.9462270" lon="1.5962540">
        <ele>655.0</ele>
        <time>2022-06-26T08:53:57Z</time>
      </trkpt>
      <trkpt lat="42.9461670" lon="1.5962270">
        <ele>655.5</ele>
        <time>2022-06-26T08:54:00Z</time>
      </trkpt>
      <trkpt lat="42.9461120" lon="1.5962090">
        <ele>655.9</ele>
        <time>2022-06-26T08:54:03Z</time>
      </trkpt>
      <trkpt lat="42.9460530" lon="1.5961920">
        <ele>656.3</ele>
        <time>2022-06-26T08:54:06Z</time>
      </trkpt>
      <trkpt lat="42.9460150" lon="1.5961770">
        <ele>656.6</ele>
        <time>2022-06-26T08:54:08Z</time>
      </trkpt>
      <trkpt lat="42.9459650" lon="1.5961630">
        <ele>656.9</ele>
        <time>2022-06-26T08:54:10Z</time>
      </trkpt>
      <trkpt lat="42.9458690" lon="1.5961290">
        <ele>657.5</ele>
        <time>2022-06-26T08:54:14Z</time>
      </trkpt>
      <trkpt lat="42.9457930" lon="1.5961110">
        <ele>658.0</ele>
        <time>2022-06-26T08:54:17Z</time>
      </trkpt>
      <trkpt lat="42.9457430" lon="1.5961050">
        <ele>658.3</ele>
        <time>2022-06-26T08:54:19Z</time>
      </trkpt>
      <trkpt lat="42.9456680" lon="1.5960970">
        <ele>658.7</ele>
        <time>2022-06-26T08:54:22Z</time>
      </trkpt>
      <trkpt lat="42.9455920" lon="1.5960800">
        <ele>659.1</ele>
        <time>2022-06-26T08:54:25Z</time>
      </trkpt>
      <trkpt lat="42.9455410" lon="1.5960630">
        <ele>659.4</ele>
        <time>2022-06-26T08:54:27Z</time>
      </trkpt>
      <trkpt lat="42.9454900" lon="1.5960540">
        <ele>659.8</ele>
        <time>2022-06-26T08:54:29Z</time>
      </trkpt>
      <trkpt lat="42.9453960" lon="1.5960010">
        <ele>660.6</ele>
        <time>2022-06-26T08:54:33Z</time>
      </trkpt>
      <trkpt lat="42.9453110" lon="1.5959280">
        <ele>661.5</ele>
        <time>2022-06-26T08:54:37Z</time>
      </trkpt>
      <trkpt lat="42.9452180" lon="1.5958210">
        <ele>662.4</ele>
        <time>2022-06-26T08:54:42Z</time>
      </trkpt>
      <trkpt lat="42.9451230" lon="1.5956700">
        <ele>663.5</ele>
        <time>2022-06-26T08:54:48Z</time>
      </trkpt>
      <trkpt lat="42.9450860" lon="1.5955990">
        <ele>663.9</ele>
        <time>2022-06-26T08:54:51Z</time>
      </trkpt>
      <trkpt lat="42.9450340" lon="1.5954800">
        <ele>664.6</ele>
        <time>2022-06-26T08:54:56Z</time>
      </trkpt>
      <trkpt lat="42.9450080" lon="1.5954330">
        <ele>664.9</ele>
        <time>2022-06-26T08:54:58Z</time>
      </trkpt>
      <trkpt lat="42.9449840" lon="1.5953850">
        <ele>665.2</ele>
        <time>2022-06-26T08:55:00Z</time>
      </trkpt>
      <trkpt lat="42.9449230" lon="1.5952870">
        <ele>665.9</ele>
        <time>2022-06-26T08:55:04Z</time>
      </trkpt>
      <trkpt lat="42.9449090" lon="1.5952630">
        <ele>666.0</ele>
        <time>2022-06-26T08:55:05Z</time>
      </trkpt>
      <trkpt lat="42.9448500" lon="1.5951920">
        <ele>666.5</ele>
        <time>2022-06-26T08:55:08Z</time>
      </trkpt>
      <trkpt lat="42.9447450" lon="1.5951400">
        <ele>667.1</ele>
        <time>2022-06-26T08:55:12Z</time>
      </trkpt>
      <trkpt lat="42.9447220" lon="1.5951320">
        <ele>667.3</ele>
        <time>2022-06-26T08:55:13Z</time>
      </trkpt>
      <trkpt lat="42.9446350" lon="1.5950980">
        <ele>667.9</ele>
        <time>2022-06-26T08:55:17Z</time>
      </trkpt>
      <trkpt lat="42.9445950" lon="1.5950770">
        <ele>668.2</ele>
        <time>2022-06-26T08:55:19Z</time>
      </trkpt>
      <trkpt lat="42.9445780" lon="1.5950660">
        <ele>668.4</ele>
        <time>2022-06-26T08:55:20Z</time>
      </trkpt>
      <trkpt lat="42.9445070" lon="1.5950230">
        <ele>669.2</ele>
        <time>2022-06-26T08:55:24Z</time>
      </trkpt>
      <trkpt lat="42.9444710" lon="1.5950040">
        <ele>669.6</ele>
        <time>2022-06-26T08:55:26Z</time>
      </trkpt>
      <trkpt lat="42.9444350" lon="1.5949750">
        <ele>670.0</ele>
        <time>2022-06-26T08:55:28Z</time>
      </trkpt>
      <trkpt lat="42.9443760" lon="1.5949090">
        <ele>670.7</ele>
        <time>2022-06-26T08:55:32Z</time>
      </trkpt>
      <trkpt lat="42.9443600" lon="1.5948970">
        <ele>670.8</ele>
        <time>2022-06-26T08:55:33Z</time>
      </trkpt>
      <trkpt lat="42.9443170" lon="1.5948540">
        <ele>671.3</ele>
        <time>2022-06-26T08:55:36Z</time>
      </trkpt>
      <trkpt lat="42.9442810" lon="1.5948230">
        <ele>671.6</ele>
        <time>2022-06-26T08:55:38Z</time>
      </trkpt>
      <trkpt lat="42.9442490" lon="1.5947950">
        <ele>671.8</ele>
        <time>2022-06-26T08:55:40Z</time>
      </trkpt>
      <trkpt lat="42.9441740" lon="1.5947380">
        <ele>672.4</ele>
        <time>2022-06-26T08:55:44Z</time>
      </trkpt>
      <trkpt lat="42.9440950" lon="1.5946780">
        <ele>673.0</ele>
        <time>2022-06-26T08:55:48Z</time>
      </trkpt>
      <trkpt lat="42.9440140" lon="1.5946500">
        <ele>673.6</ele>
        <time>2022-06-26T08:55:51Z</time>
      </trkpt>
      <trkpt lat="42.9439050" lon="1.5946410">
        <ele>674.3</ele>
        <time>2022-06-26T08:55:55Z</time>
      </trkpt>
      <trkpt lat="42.9438590" lon="1.5946490">
        <ele>674.6</ele>
        <time>2022-06-26T08:55:57Z</time>
      </trkpt>
      <trkpt lat="42.9438110" lon="1.5946600">
        <ele>675.0</ele>
        <time>2022-06-26T08:55:59Z</time>
      </trkpt>
      <trkpt lat="42.9437230" lon="1.5947080">
        <ele>675.8</ele>
        <time>2022-06-26T08:56:03Z</time>
      </trkpt>
      <trkpt lat="42.9436120" lon="1.5947100">
        <ele>676.6</ele>
        <time>2022-06-26T08:56:07Z</time>
      </trkpt>
      <trkpt lat="42.9435900" lon="1.5946890">
        <ele>676.8</ele>
        <time>2022-06-26T08:56:08Z</time>
      </trkpt>
      <trkpt lat="42.9435490" lon="1.5946400">
        <ele>677.1</ele>
        <time>2022-06-26T08:56:10Z</time>
      </trkpt>
      <trkpt lat="42.9435010" lon="1.5945640">
        <ele>677.6</ele>
        <time>2022-06-26T08:56:13Z</time>
      </trkpt>
      <trkpt lat="42.9434950" lon="1.5945340">
        <ele>677.7</ele>
        <time>2022-06-26T08:56:14Z</time>
      </trkpt>
      <trkpt lat="42.9434830" lon="1.5944100">
        <ele>678.4</ele>
        <time>2022-06-26T08:56:18Z</time>
      </trkpt>
      <trkpt lat="42.9434790" lon="1.5943540">
        <ele>678.7</ele>
        <time>2022-06-26T08:56:20Z</time>
      </trkpt>
      <trkpt lat="42.9434690" lon="1.5942720">
        <ele>679.3</ele>
        <time>2022-06-26T08:56:23Z</time>
      </trkpt>
      <trkpt lat="42.9434760" lon="1.5941740">
        <ele>680.0</ele>
        <time>2022-06-26T08:56:27Z</time>
      </trkpt>
      <trkpt lat="42.9434780" lon="1.5940740">
        <ele>680.8</ele>
        <time>2022-06-26T08:56:30Z</time>
      </trkpt>
      <trkpt lat="42.9434730" lon="1.5940040">
        <ele>681.4</ele>
        <time>2022-06-26T08:56:32Z</time>
      </trkpt>
      <trkpt lat="42.9434530" lon="1.5939150">
        <ele>682.2</ele>
        <time>2022-06-26T08:56:35Z</time>
      </trkpt>
      <trkpt lat="42.9434320" lon="1.5938280">
        <ele>682.8</ele>
        <time>2022-06-26T08:56:38Z</time>
      </trkpt>
      <trkpt lat="42.9434170" lon="1.5937750">
        <ele>683.2</ele>
        <time>2022-06-26T08:56:40Z</time>
      </trkpt>
      <trkpt lat="42.9433700" lon="1.5936690">
        <ele>684.0</ele>
        <time>2022-06-26T08:56:44Z</time>
      </trkpt>
      <trkpt lat="42.9433580" lon="1.5936470">
        <ele>684.2</ele>
        <time>2022-06-26T08:56:45Z</time>
      </trkpt>
      <trkpt lat="42.9433220" lon="1.5935790">
        <ele>684.8</ele>
        <time>2022-06-26T08:56:48Z</time>
      </trkpt>
      <trkpt lat="42.9432710" lon="1.5935270">
        <ele>685.5</ele>
        <time>2022-06-26T08:56:51Z</time>
      </trkpt>
      <trkpt lat="42.9432210" lon="1.5934760">
        <ele>686.3</ele>
        <time>2022-06-26T08:56:54Z</time>
      </trkpt>
      <trkpt lat="42.9431820" lon="1.5934150">
        <ele>687.1</ele>
        <time>2022-06-26T08:56:57Z</time>
      </trkpt>
      <trkpt lat="42.9431690" lon="1.5933940">
        <ele>687.4</ele>
        <time>2022-06-26T08:56:58Z</time>
      </trkpt>
      <trkpt lat="42.9431120" lon="1.5933230">
        <ele>688.8</ele>
        <time>2022-06-26T08:57:02Z</time>
      </trkpt>
      <trkpt lat="42.9430960" lon="1.5933010">
        <ele>689.2</ele>
        <time>2022-06-26T08:57:03Z</time>
      </trkpt>
      <trkpt lat="42.9430560" lon="1.5932310">
        <ele>690.3</ele>
        <time>2022-06-26T08:57:06Z</time>
      </trkpt>
      <trkpt lat="42.9430070" lon="1.5931350">
        <ele>691.5</ele>
        <time>2022-06-26T08:57:10Z</time>
      </trkpt>
      <trkpt lat="42.9429830" lon="1.5930840">
        <ele>692.0</ele>
        <time>2022-06-26T08:57:12Z</time>
      </trkpt>
      <trkpt lat="42.9429570" lon="1.5930340">
        <ele>692.5</ele>
        <time>2022-06-26T08:57:14Z</time>
      </trkpt>
      <trkpt lat="42.9429100" lon="1.5929390">
        <ele>693.5</ele>
        <time>2022-06-26T08:57:18Z</time>
      </trkpt>
      <trkpt lat="42.9428990" lon="1.5929140">
        <ele>693.8</ele>
        <time>2022-06-26T08:57:19Z</time>
      </trkpt>
      <trkpt lat="42.9428560" lon="1.5928280">
        <ele>694.8</ele>
        <time>2022-06-26T08:57:23Z</time>
      </trkpt>
      <trkpt lat="42.9428170" lon="1.5927570">
        <ele>695.6</ele>
        <time>2022-06-26T08:57:26Z</time>
      </trkpt>
      <trkpt lat="42.9428010" lon="1.5927360">
        <ele>695.9</ele>
        <time>2022-06-26T08:57:27Z</time>
      </trkpt>
      <trkpt lat="42.9427440" lon="1.5926600">
        <ele>696.8</ele>
        <time>2022-06-26T08:57:31Z</time>
      </trkpt>
      <trkpt lat="42.9427170" lon="1.5926210">
        <ele>697.3</ele>
        <time>2022-06-26T08:57:33Z</time>
      </trkpt>
      <trkpt lat="42.9426890" lon="1.5925840">
        <ele>697.7</ele>
        <time>2022-06-26T08:57:35Z</time>
      </trkpt>
      <trkpt lat="42.9426180" lon="1.5925270">
        <ele>698.7</ele>
        <time>2022-06-26T08:57:39Z</time>
      </trkpt>
      <trkpt lat="42.9425990" lon="1.5925130">
        <ele>698.9</ele>
        <time>2022-06-26T08:57:40Z</time>
      </trkpt>
      <trkpt lat="42.9425230" lon="1.5924640">
        <ele>699.9</ele>
        <time>2022-06-26T08:57:44Z</time>
      </trkpt>
      <trkpt lat="42.9424680" lon="1.5924380">
        <ele>700.6</ele>
        <time>2022-06-26T08:57:47Z</time>
      </trkpt>
      <trkpt lat="42.9424360" lon="1.5924290">
        <ele>701.0</ele>
        <time>2022-06-26T08:57:49Z</time>
      </trkpt>
      <trkpt lat="42.9423660" lon="1.5924160">
        <ele>701.9</ele>
        <time>2022-06-26T08:57:53Z</time>
      </trkpt>
      <trkpt lat="42.9423340" lon="1.5924030">
        <ele>702.3</ele>
        <time>2022-06-26T08:57:55Z</time>
      </trkpt>
      <trkpt lat="42.9422630" lon="1.5924110">
        <ele>703.1</ele>
        <time>2022-06-26T08:57:59Z</time>
      </trkpt>
      <trkpt lat="42.9422090" lon="1.5924230">
        <ele>703.8</ele>
        <time>2022-06-26T08:58:02Z</time>
      </trkpt>
      <trkpt lat="42.9421520" lon="1.5924190">
        <ele>704.5</ele>
        <time>2022-06-26T08:58:05Z</time>
      </trkpt>
      <trkpt lat="42.9420970" lon="1.5924370">
        <ele>705.3</ele>
        <time>2022-06-26T08:58:08Z</time>
      </trkpt>
      <trkpt lat="42.9420560" lon="1.5924640">
        <ele>705.9</ele>
        <time>2022-06-26T08:58:10Z</time>
      </trkpt>
      <trkpt lat="42.9419530" lon="1.5924810">
        <ele>707.2</ele>
        <time>2022-06-26T08:58:15Z</time>
      </trkpt>
      <trkpt lat="42.9419360" lon="1.5924870">
        <ele>707.5</ele>
        <time>2022-06-26T08:58:16Z</time>
      </trkpt>
      <trkpt lat="42.9418870" lon="1.5925240">
        <ele>708.2</ele>
        <time>2022-06-26T08:58:19Z</time>
      </trkpt>
      <trkpt lat="42.9418310" lon="1.5925470">
        <ele>708.9</ele>
        <time>2022-06-26T08:58:22Z</time>
      </trkpt>
      <trkpt lat="42.9417910" lon="1.5925400">
        <ele>709.4</ele>
        <time>2022-06-26T08:58:24Z</time>
      </trkpt>
      <trkpt lat="42.9416900" lon="1.5925280">
        <ele>710.7</ele>
        <time>2022-06-26T08:58:29Z</time>
      </trkpt>
      <trkpt lat="42.9415780" lon="1.5924440">
        <ele>712.4</ele>
        <time>2022-06-26T08:58:35Z</time>
      </trkpt>
      <trkpt lat="42.9415620" lon="1.5924300">
        <ele>712.7</ele>
        <time>2022-06-26T08:58:36Z</time>
      </trkpt>
      <trkpt lat="42.9414960" lon="1.5923330">
        <ele>713.8</ele>
        <time>2022-06-26T08:58:41Z</time>
      </trkpt>
      <trkpt lat="42.9414840" lon="1.5923080">
        <ele>714.0</ele>
        <time>2022-06-26T08:58:42Z</time>
      </trkpt>
      <trkpt lat="42.9414530" lon="1.5922010">
        <ele>714.8</ele>
        <time>2022-06-26T08:58:46Z</time>
      </trkpt>
      <trkpt lat="42.9414390" lon="1.5921420">
        <ele>715.3</ele>
        <time>2022-06-26T08:58:48Z</time>
      </trkpt>
      <trkpt lat="42.9414160" lon="1.5920630">
        <ele>715.9</ele>
        <time>2022-06-26T08:58:51Z</time>
      </trkpt>
      <trkpt lat="42.9413830" lon="1.5919530">
        <ele>716.9</ele>
        <time>2022-06-26T08:58:55Z</time>
      </trkpt>
      <trkpt lat="42.9413690" lon="1.5918880">
        <ele>717.5</ele>
        <time>2022-06-26T08:58:57Z</time>
      </trkpt>
      <trkpt lat="42.9413350" lon="1.5917210">
        <ele>719.1</ele>
        <time>2022-06-26T08:59:02Z</time>
      </trkpt>
      <trkpt lat="42.9413110" lon="1.5916310">
        <ele>719.9</ele>
        <time>2022-06-26T08:59:05Z</time>
      </trkpt>
      <trkpt lat="42.9412850" lon="1.5915090">
        <ele>720.8</ele>
        <time>2022-06-26T08:59:09Z</time>
      </trkpt>
      <trkpt lat="42.9412410" lon="1.5913590">
        <ele>722.0</ele>
        <time>2022-06-26T08:59:14Z</time>
      </trkpt>
      <trkpt lat="42.9412350" lon="1.5913260">
        <ele>722.2</ele>
        <time>2022-06-26T08:59:15Z</time>
      </trkpt>
      <trkpt lat="42.9411930" lon="1.5911160">
        <ele>723.7</ele>
        <time>2022-06-26T08:59:21Z</time>
      </trkpt>
      <trkpt lat="42.9411520" lon="1.5909660">
        <ele>724.4</ele>
        <time>2022-06-26T08:59:25Z</time>
      </trkpt>
      <trkpt lat="42.9410930" lon="1.5907560">
        <ele>725.0</ele>
        <time>2022-06-26T08:59:30Z</time>
      </trkpt>
      <trkpt lat="42.9410630" lon="1.5906610">
        <ele>725.1</ele>
        <time>2022-06-26T08:59:32Z</time>
      </trkpt>
      <trkpt lat="42.9409870" lon="1.5905220">
        <ele>725.0</ele>
        <time>2022-06-26T08:59:35Z</time>
      </trkpt>
      <trkpt lat="42.9409050" lon="1.5904360">
        <ele>724.7</ele>
        <time>2022-06-26T08:59:37Z</time>
      </trkpt>
      <trkpt lat="42.9407550" lon="1.5903550">
        <ele>724.3</ele>
        <time>2022-06-26T08:59:40Z</time>
      </trkpt>
      <trkpt lat="42.9407040" lon="1.5903300">
        <ele>724.2</ele>
        <time>2022-06-26T08:59:41Z</time>
      </trkpt>
      <trkpt lat="42.9406520" lon="1.5903090">
        <ele>724.1</ele>
        <time>2022-06-26T08:59:42Z</time>
      </trkpt>
      <trkpt lat="42.9406000" lon="1.5902940">
        <ele>724.1</ele>
        <time>2022-06-26T08:59:43Z</time>
      </trkpt>
      <trkpt lat="42.9403680" lon="1.5902320">
        <ele>724.1</ele>
        <time>2022-06-26T08:59:48Z</time>
      </trkpt>
      <trkpt lat="42.9402790" lon="1.5902000">
        <ele>724.2</ele>
        <time>2022-06-26T08:59:50Z</time>
      </trkpt>
      <trkpt lat="42.9400490" lon="1.5901270">
        <ele>724.4</ele>
        <time>2022-06-26T08:59:55Z</time>
      </trkpt>
      <trkpt lat="42.9398740" lon="1.5900590">
        <ele>724.8</ele>
        <time>2022-06-26T08:59:59Z</time>
      </trkpt>
      <trkpt lat="42.9397060" lon="1.5899770">
        <ele>725.4</ele>
        <time>2022-06-26T09:00:03Z</time>
      </trkpt>
      <trkpt lat="42.9396060" lon="1.5899030">
        <ele>726.0</ele>
        <time>2022-06-26T09:00:06Z</time>
      </trkpt>
      <trkpt lat="42.9394880" lon="1.5897690">
        <ele>727.6</ele>
        <time>2022-06-26T09:00:11Z</time>
      </trkpt>
      <trkpt lat="42.9394490" lon="1.5897140">
        <ele>728.2</ele>
        <time>2022-06-26T09:00:13Z</time>
      </trkpt>
      <trkpt lat="42.9394360" lon="1.5896870">
        <ele>728.5</ele>
        <time>2022-06-26T09:00:14Z</time>
      </trkpt>
      <trkpt lat="42.9393970" lon="1.5896130">
        <ele>729.3</ele>
        <time>2022-06-26T09:00:17Z</time>
      </trkpt>
      <trkpt lat="42.9393840" lon="1.5895920">
        <ele>729.5</ele>
        <time>2022-06-26T09:00:18Z</time>
      </trkpt>
      <trkpt lat="42.9393440" lon="1.5895300">
        <ele>730.2</ele>
        <time>2022-06-26T09:00:21Z</time>
      </trkpt>
      <trkpt lat="42.9393010" lon="1.5894710">
        <ele>730.9</ele>
        <time>2022-06-26T09:00:24Z</time>
      </trkpt>
      <trkpt lat="42.9392860" lon="1.5894480">
        <ele>731.2</ele>
        <time>2022-06-26T09:00:25Z</time>
      </trkpt>
      <trkpt lat="42.9392690" lon="1.5894290">
        <ele>731.4</ele>
        <time>2022-06-26T09:00:26Z</time>
      </trkpt>
      <trkpt lat="42.9392020" lon="1.5893650">
        <ele>732.4</ele>
        <time>2022-06-26T09:00:30Z</time>
      </trkpt>
      <trkpt lat="42.9391710" lon="1.5893340">
        <ele>732.8</ele>
        <time>2022-06-26T09:00:32Z</time>
      </trkpt>
      <trkpt lat="42.9391270" lon="1.5892910">
        <ele>733.4</ele>
        <time>2022-06-26T09:00:35Z</time>
      </trkpt>
      <trkpt lat="42.9390690" lon="1.5892290">
        <ele>734.3</ele>
        <time>2022-06-26T09:00:39Z</time>
      </trkpt>
      <trkpt lat="42.9390150" lon="1.5891670">
        <ele>735.2</ele>
        <time>2022-06-26T09:00:43Z</time>
      </trkpt>
      <trkpt lat="42.9389620" lon="1.5891020">
        <ele>736.1</ele>
        <time>2022-06-26T09:00:47Z</time>
      </trkpt>
      <trkpt lat="42.9389410" lon="1.5890610">
        <ele>736.6</ele>
        <time>2022-06-26T09:00:49Z</time>
      </trkpt>
      <trkpt lat="42.9388590" lon="1.5889510">
        <ele>738.2</ele>
        <time>2022-06-26T09:00:55Z</time>
      </trkpt>
      <trkpt lat="42.9388300" lon="1.5889220">
        <ele>738.6</ele>
        <time>2022-06-26T09:00:57Z</time>
      </trkpt>
      <trkpt lat="42.9387810" lon="1.5889050">
        <ele>739.4</ele>
        <time>2022-06-26T09:01:00Z</time>
      </trkpt>
      <trkpt lat="42.9387660" lon="1.5889100">
        <ele>739.6</ele>
        <time>2022-06-26T09:01:01Z</time>
      </trkpt>
      <trkpt lat="42.9387120" lon="1.5889810">
        <ele>740.7</ele>
        <time>2022-06-26T09:01:05Z</time>
      </trkpt>
      <trkpt lat="42.9387080" lon="1.5890850">
        <ele>741.8</ele>
        <time>2022-06-26T09:01:09Z</time>
      </trkpt>
      <trkpt lat="42.9387110" lon="1.5891120">
        <ele>742.1</ele>
        <time>2022-06-26T09:01:10Z</time>
      </trkpt>
      <trkpt lat="42.9387120" lon="1.5891420">
        <ele>742.3</ele>
        <time>2022-06-26T09:01:11Z</time>
      </trkpt>
      <trkpt lat="42.9387690" lon="1.5892830">
        <ele>743.7</ele>
        <time>2022-06-26T09:01:16Z</time>
      </trkpt>
      <trkpt lat="42.9387840" lon="1.5893090">
        <ele>743.9</ele>
        <time>2022-06-26T09:01:17Z</time>
      </trkpt>
      <trkpt lat="42.9388160" lon="1.5894580">
        <ele>745.0</ele>
        <time>2022-06-26T09:01:22Z</time>
      </trkpt>
      <trkpt lat="42.9388210" lon="1.5894870">
        <ele>745.2</ele>
        <time>2022-06-26T09:01:23Z</time>
      </trkpt>
      <trkpt lat="42.9388470" lon="1.5896580">
        <ele>746.4</ele>
        <time>2022-06-26T09:01:29Z</time>
      </trkpt>
      <trkpt lat="42.9388470" lon="1.5896840">
        <ele>746.6</ele>
        <time>2022-06-26T09:01:30Z</time>
      </trkpt>
      <trkpt lat="42.9388410" lon="1.5897780">
        <ele>747.4</ele>
        <time>2022-06-26T09:01:34Z</time>
      </trkpt>
      <trkpt lat="42.9388320" lon="1.5898230">
        <ele>747.8</ele>
        <time>2022-06-26T09:01:36Z</time>
      </trkpt>
      <trkpt lat="42.9388250" lon="1.5898480">
        <ele>748.0</ele>
        <time>2022-06-26T09:01:37Z</time>
      </trkpt>
      <trkpt lat="42.9388040" lon="1.5899260">
        <ele>748.8</ele>
        <time>2022-06-26T09:01:40Z</time>
      </trkpt>
      <trkpt lat="42.9387920" lon="1.5899790">
        <ele>749.2</ele>
        <time>2022-06-26T09:01:42Z</time>
      </trkpt>
      <trkpt lat="42.9387350" lon="1.5901590">
        <ele>751.0</ele>
        <time>2022-06-26T09:01:49Z</time>
      </trkpt>
      <trkpt lat="42.9387180" lon="1.5902090">
        <ele>751.6</ele>
        <time>2022-06-26T09:01:51Z</time>
      </trkpt>
      <trkpt lat="42.9386490" lon="1.5903350">
        <ele>753.1</ele>
        <time>2022-06-26T09:01:57Z</time>
      </trkpt>
      <trkpt lat="42.9386270" lon="1.5903820">
        <ele>753.7</ele>
        <time>2022-06-26T09:01:59Z</time>
      </trkpt>
      <trkpt lat="42.9386100" lon="1.5903960">
        <ele>753.9</ele>
        <time>2022-06-26T09:02:00Z</time>
      </trkpt>
      <trkpt lat="42.9385720" lon="1.5903910">
        <ele>754.5</ele>
        <time>2022-06-26T09:02:02Z</time>
      </trkpt>
      <trkpt lat="42.9385380" lon="1.5902950">
        <ele>755.6</ele>
        <time>2022-06-26T09:02:06Z</time>
      </trkpt>
      <trkpt lat="42.9385540" lon="1.5902060">
        <ele>756.6</ele>
        <time>2022-06-26T09:02:11Z</time>
      </trkpt>
      <trkpt lat="42.9385630" lon="1.5901900">
        <ele>756.8</ele>
        <time>2022-06-26T09:02:12Z</time>
      </trkpt>
      <trkpt lat="42.9385930" lon="1.5901310">
        <ele>757.5</ele>
        <time>2022-06-26T09:02:15Z</time>
      </trkpt>
      <trkpt lat="42.9386000" lon="1.5901120">
        <ele>757.7</ele>
        <time>2022-06-26T09:02:16Z</time>
      </trkpt>
      <trkpt lat="42.9386000" lon="1.5900490">
        <ele>758.4</ele>
        <time>2022-06-26T09:02:20Z</time>
      </trkpt>
      <trkpt lat="42.9384280" lon="1.5896830">
        <ele>762.6</ele>
        <time>2022-06-26T09:02:44Z</time>
      </trkpt>
      <trkpt lat="42.9384180" lon="1.5896670">
        <ele>762.8</ele>
        <time>2022-06-26T09:02:45Z</time>
      </trkpt>
      <trkpt lat="42.9383850" lon="1.5896160">
        <ele>763.4</ele>
        <time>2022-06-26T09:02:48Z</time>
      </trkpt>
      <trkpt lat="42.9383450" lon="1.5895640">
        <ele>764.1</ele>
        <time>2022-06-26T09:02:51Z</time>
      </trkpt>
      <trkpt lat="42.9382630" lon="1.5894790">
        <ele>765.3</ele>
        <time>2022-06-26T09:02:58Z</time>
      </trkpt>
      <trkpt lat="42.9382340" lon="1.5894570">
        <ele>765.7</ele>
        <time>2022-06-26T09:03:00Z</time>
      </trkpt>
      <trkpt lat="42.9381760" lon="1.5894130">
        <ele>766.6</ele>
        <time>2022-06-26T09:03:04Z</time>
      </trkpt>
      <trkpt lat="42.9380850" lon="1.5893370">
        <ele>767.9</ele>
        <time>2022-06-26T09:03:10Z</time>
      </trkpt>
      <trkpt lat="42.9380700" lon="1.5893220">
        <ele>768.2</ele>
        <time>2022-06-26T09:03:11Z</time>
      </trkpt>
      <trkpt lat="42.9380290" lon="1.5892820">
        <ele>768.9</ele>
        <time>2022-06-26T09:03:14Z</time>
      </trkpt>
      <trkpt lat="42.9380030" lon="1.5892530">
        <ele>769.3</ele>
        <time>2022-06-26T09:03:16Z</time>
      </trkpt>
      <trkpt lat="42.9379600" lon="1.5892290">
        <ele>769.9</ele>
        <time>2022-06-26T09:03:19Z</time>
      </trkpt>
      <trkpt lat="42.9379440" lon="1.5892230">
        <ele>770.1</ele>
        <time>2022-06-26T09:03:20Z</time>
      </trkpt>
      <trkpt lat="42.9379090" lon="1.5891950">
        <ele>770.7</ele>
        <time>2022-06-26T09:03:22Z</time>
      </trkpt>
      <trkpt lat="42.9377980" lon="1.5891110">
        <ele>772.3</ele>
        <time>2022-06-26T09:03:29Z</time>
      </trkpt>
      <trkpt lat="42.9377200" lon="1.5890610">
        <ele>773.3</ele>
        <time>2022-06-26T09:03:34Z</time>
      </trkpt>
      <trkpt lat="42.9376870" lon="1.5890290">
        <ele>773.8</ele>
        <time>2022-06-26T09:03:37Z</time>
      </trkpt>
      <trkpt lat="42.9376650" lon="1.5889970">
        <ele>774.2</ele>
        <time>2022-06-26T09:03:39Z</time>
      </trkpt>
      <trkpt lat="42.9376480" lon="1.5889870">
        <ele>774.4</ele>
        <time>2022-06-26T09:03:40Z</time>
      </trkpt>
      <trkpt lat="42.9376340" lon="1.5889780">
        <ele>774.6</ele>
        <time>2022-06-26T09:03:41Z</time>
      </trkpt>
      <trkpt lat="42.9375750" lon="1.5889030">
        <ele>775.6</ele>
        <time>2022-06-26T09:03:46Z</time>
      </trkpt>
      <trkpt lat="42.9375660" lon="1.5888870">
        <ele>775.8</ele>
        <time>2022-06-26T09:03:47Z</time>
      </trkpt>
      <trkpt lat="42.9375580" lon="1.5888710">
        <ele>776.0</ele>
        <time>2022-06-26T09:03:48Z</time>
      </trkpt>
      <trkpt lat="42.9375000" lon="1.5887960">
        <ele>777.0</ele>
        <time>2022-06-26T09:03:52Z</time>
      </trkpt>
      <trkpt lat="42.9374410" lon="1.5887510">
        <ele>777.8</ele>
        <time>2022-06-26T09:03:56Z</time>
      </trkpt>
      <trkpt lat="42.9374360" lon="1.5887380">
        <ele>777.9</ele>
        <time>2022-06-26T09:03:57Z</time>
      </trkpt>
      <trkpt lat="42.9373850" lon="1.5887060">
        <ele>778.6</ele>
        <time>2022-06-26T09:04:00Z</time>
      </trkpt>
      <trkpt lat="42.9373670" lon="1.5887000">
        <ele>778.9</ele>
        <time>2022-06-26T09:04:01Z</time>
      </trkpt>
      <trkpt lat="42.9373330" lon="1.5886720">
        <ele>779.4</ele>
        <time>2022-06-26T09:04:03Z</time>
      </trkpt>
      <trkpt lat="42.9373110" lon="1.5886540">
        <ele>779.7</ele>
        <time>2022-06-26T09:04:05Z</time>
      </trkpt>
      <trkpt lat="42.9372330" lon="1.5885990">
        <ele>780.8</ele>
        <time>2022-06-26T09:04:10Z</time>
      </trkpt>
      <trkpt lat="42.9371690" lon="1.5885220">
        <ele>781.9</ele>
        <time>2022-06-26T09:04:15Z</time>
      </trkpt>
      <trkpt lat="42.9371380" lon="1.5884920">
        <ele>782.4</ele>
        <time>2022-06-26T09:04:17Z</time>
      </trkpt>
      <trkpt lat="42.9370740" lon="1.5884090">
        <ele>783.4</ele>
        <time>2022-06-26T09:04:22Z</time>
      </trkpt>
      <trkpt lat="42.9370590" lon="1.5883950">
        <ele>783.7</ele>
        <time>2022-06-26T09:04:23Z</time>
      </trkpt>
      <trkpt lat="42.9370100" lon="1.5883630">
        <ele>784.3</ele>
        <time>2022-06-26T09:04:26Z</time>
      </trkpt>
      <trkpt lat="42.9369970" lon="1.5883470">
        <ele>784.6</ele>
        <time>2022-06-26T09:04:27Z</time>
      </trkpt>
      <trkpt lat="42.9369740" lon="1.5883190">
        <ele>784.9</ele>
        <time>2022-06-26T09:04:29Z</time>
      </trkpt>
      <trkpt lat="42.9369220" lon="1.5882690">
        <ele>785.8</ele>
        <time>2022-06-26T09:04:33Z</time>
      </trkpt>
      <trkpt lat="42.9368740" lon="1.5882260">
        <ele>786.5</ele>
        <time>2022-06-26T09:04:36Z</time>
      </trkpt>
      <trkpt lat="42.9368250" lon="1.5881910">
        <ele>787.2</ele>
        <time>2022-06-26T09:04:39Z</time>
      </trkpt>
      <trkpt lat="42.9368090" lon="1.5881800">
        <ele>787.4</ele>
        <time>2022-06-26T09:04:40Z</time>
      </trkpt>
      <trkpt lat="42.9367790" lon="1.5881570">
        <ele>787.9</ele>
        <time>2022-06-26T09:04:42Z</time>
      </trkpt>
      <trkpt lat="42.9367430" lon="1.5881200">
        <ele>788.5</ele>
        <time>2022-06-26T09:04:45Z</time>
      </trkpt>
      <trkpt lat="42.9367280" lon="1.5881050">
        <ele>788.7</ele>
        <time>2022-06-26T09:04:46Z</time>
      </trkpt>
      <trkpt lat="42.9366700" lon="1.5880270">
        <ele>789.8</ele>
        <time>2022-06-26T09:04:51Z</time>
      </trkpt>
      <trkpt lat="42.9366640" lon="1.5880130">
        <ele>790.0</ele>
        <time>2022-06-26T09:04:52Z</time>
      </trkpt>
      <trkpt lat="42.9366490" lon="1.5879840">
        <ele>790.3</ele>
        <time>2022-06-26T09:04:54Z</time>
      </trkpt>
      <trkpt lat="42.9366380" lon="1.5879600">
        <ele>790.6</ele>
        <time>2022-06-26T09:04:56Z</time>
      </trkpt>
      <trkpt lat="42.9365660" lon="1.5875480">
        <ele>794.9</ele>
        <time>2022-06-26T09:05:16Z</time>
      </trkpt>
      <trkpt lat="42.9365560" lon="1.5874360">
        <ele>795.9</ele>
        <time>2022-06-26T09:05:21Z</time>
      </trkpt>
      <trkpt lat="42.9365500" lon="1.5874170">
        <ele>796.1</ele>
        <time>2022-06-26T09:05:22Z</time>
      </trkpt>
      <trkpt lat="42.9365460" lon="1.5871370">
        <ele>798.5</ele>
        <time>2022-06-26T09:05:32Z</time>
      </trkpt>
      <trkpt lat="42.9364960" lon="1.5870590">
        <ele>799.4</ele>
        <time>2022-06-26T09:05:35Z</time>
      </trkpt>
      <trkpt lat="42.9364650" lon="1.5870050">
        <ele>800.0</ele>
        <time>2022-06-26T09:05:37Z</time>
      </trkpt>
      <trkpt lat="42.9364090" lon="1.5868970">
        <ele>801.1</ele>
        <time>2022-06-26T09:05:41Z</time>
      </trkpt>
      <trkpt lat="42.9363000" lon="1.5867620">
        <ele>802.9</ele>
        <time>2022-06-26T09:05:47Z</time>
      </trkpt>
      <trkpt lat="42.9362880" lon="1.5867370">
        <ele>803.2</ele>
        <time>2022-06-26T09:05:48Z</time>
      </trkpt>
      <trkpt lat="42.9362560" lon="1.5866930">
        <ele>803.8</ele>
        <time>2022-06-26T09:05:50Z</time>
      </trkpt>
      <trkpt lat="42.9361930" lon="1.5866520">
        <ele>804.7</ele>
        <time>2022-06-26T09:05:53Z</time>
      </trkpt>
      <trkpt lat="42.9361580" lon="1.5866160">
        <ele>805.2</ele>
        <time>2022-06-26T09:05:55Z</time>
      </trkpt>
      <trkpt lat="42.9360390" lon="1.5865100">
        <ele>807.0</ele>
        <time>2022-06-26T09:06:02Z</time>
      </trkpt>
      <trkpt lat="42.9359230" lon="1.5864150">
        <ele>808.6</ele>
        <time>2022-06-26T09:06:09Z</time>
      </trkpt>
      <trkpt lat="42.9358650" lon="1.5863610">
        <ele>809.5</ele>
        <time>2022-06-26T09:06:13Z</time>
      </trkpt>
      <trkpt lat="42.9358380" lon="1.5863230">
        <ele>809.9</ele>
        <time>2022-06-26T09:06:15Z</time>
      </trkpt>
      <trkpt lat="42.9357900" lon="1.5862810">
        <ele>810.6</ele>
        <time>2022-06-26T09:06:18Z</time>
      </trkpt>
      <trkpt lat="42.9357100" lon="1.5862180">
        <ele>811.6</ele>
        <time>2022-06-26T09:06:23Z</time>
      </trkpt>
      <trkpt lat="42.9356750" lon="1.5861950">
        <ele>812.0</ele>
        <time>2022-06-26T09:06:25Z</time>
      </trkpt>
      <trkpt lat="42.9356420" lon="1.5861700">
        <ele>812.4</ele>
        <time>2022-06-26T09:06:27Z</time>
      </trkpt>
      <trkpt lat="42.9355260" lon="1.5860720">
        <ele>813.9</ele>
        <time>2022-06-26T09:06:34Z</time>
      </trkpt>
      <trkpt lat="42.9354480" lon="1.5860140">
        <ele>814.9</ele>
        <time>2022-06-26T09:06:39Z</time>
      </trkpt>
      <trkpt lat="42.9353980" lon="1.5859880">
        <ele>815.5</ele>
        <time>2022-06-26T09:06:42Z</time>
      </trkpt>
      <trkpt lat="42.9353460" lon="1.5859630">
        <ele>816.2</ele>
        <time>2022-06-26T09:06:45Z</time>
      </trkpt>
      <trkpt lat="42.9352850" lon="1.5859410">
        <ele>816.9</ele>
        <time>2022-06-26T09:06:49Z</time>
      </trkpt>
      <trkpt lat="42.9352690" lon="1.5859350">
        <ele>817.1</ele>
        <time>2022-06-26T09:06:50Z</time>
      </trkpt>
      <trkpt lat="42.9351750" lon="1.5859080">
        <ele>818.2</ele>
        <time>2022-06-26T09:06:56Z</time>
      </trkpt>
      <trkpt lat="42.9351460" lon="1.5858980">
        <ele>818.5</ele>
        <time>2022-06-26T09:06:58Z</time>
      </trkpt>
      <trkpt lat="42.9351030" lon="1.5858720">
        <ele>819.1</ele>
        <time>2022-06-26T09:07:01Z</time>
      </trkpt>
      <trkpt lat="42.9350070" lon="1.5858650">
        <ele>820.3</ele>
        <time>2022-06-26T09:07:07Z</time>
      </trkpt>
      <trkpt lat="42.9349930" lon="1.5858640">
        <ele>820.4</ele>
        <time>2022-06-26T09:07:08Z</time>
      </trkpt>
      <trkpt lat="42.9349450" lon="1.5858330">
        <ele>821.1</ele>
        <time>2022-06-26T09:07:12Z</time>
      </trkpt>
      <trkpt lat="42.9349320" lon="1.5858290">
        <ele>821.3</ele>
        <time>2022-06-26T09:07:13Z</time>
      </trkpt>
      <trkpt lat="42.9349170" lon="1.5858290">
        <ele>821.5</ele>
        <time>2022-06-26T09:07:14Z</time>
      </trkpt>
      <trkpt lat="42.9348560" lon="1.5858120">
        <ele>822.3</ele>
        <time>2022-06-26T09:07:18Z</time>
      </trkpt>
      <trkpt lat="42.9348100" lon="1.5858030">
        <ele>822.8</ele>
        <time>2022-06-26T09:07:21Z</time>
      </trkpt>
      <trkpt lat="42.9347970" lon="1.5857990">
        <ele>823.0</ele>
        <time>2022-06-26T09:07:22Z</time>
      </trkpt>
      <trkpt lat="42.9347800" lon="1.5857980">
        <ele>823.2</ele>
        <time>2022-06-26T09:07:23Z</time>
      </trkpt>
      <trkpt lat="42.9346940" lon="1.5857900">
        <ele>824.3</ele>
        <time>2022-06-26T09:07:29Z</time>
      </trkpt>
      <trkpt lat="42.9346770" lon="1.5857850">
        <ele>824.5</ele>
        <time>2022-06-26T09:07:30Z</time>
      </trkpt>
      <trkpt lat="42.9345890" lon="1.5857870">
        <ele>825.5</ele>
        <time>2022-06-26T09:07:36Z</time>
      </trkpt>
      <trkpt lat="42.9345550" lon="1.5857830">
        <ele>825.9</ele>
        <time>2022-06-26T09:07:38Z</time>
      </trkpt>
      <trkpt lat="42.9344740" lon="1.5857680">
        <ele>826.9</ele>
        <time>2022-06-26T09:07:43Z</time>
      </trkpt>
      <trkpt lat="42.9344280" lon="1.5857710">
        <ele>827.5</ele>
        <time>2022-06-26T09:07:46Z</time>
      </trkpt>
      <trkpt lat="42.9343590" lon="1.5857660">
        <ele>828.4</ele>
        <time>2022-06-26T09:07:50Z</time>
      </trkpt>
      <trkpt lat="42.9342730" lon="1.5857660">
        <ele>829.4</ele>
        <time>2022-06-26T09:07:55Z</time>
      </trkpt>
      <trkpt lat="42.9342530" lon="1.5857680">
        <ele>829.7</ele>
        <time>2022-06-26T09:07:56Z</time>
      </trkpt>
      <trkpt lat="42.9341760" lon="1.5857500">
        <ele>830.7</ele>
        <time>2022-06-26T09:08:01Z</time>
      </trkpt>
      <trkpt lat="42.9340820" lon="1.5857480">
        <ele>831.9</ele>
        <time>2022-06-26T09:08:07Z</time>
      </trkpt>
      <trkpt lat="42.9340040" lon="1.5857420">
        <ele>832.9</ele>
        <time>2022-06-26T09:08:12Z</time>
      </trkpt>
      <trkpt lat="42.9339200" lon="1.5857440">
        <ele>833.9</ele>
        <time>2022-06-26T09:08:17Z</time>
      </trkpt>
      <trkpt lat="42.9337870" lon="1.5857690">
        <ele>835.7</ele>
        <time>2022-06-26T09:08:25Z</time>
      </trkpt>
      <trkpt lat="42.9337420" lon="1.5858150">
        <ele>836.5</ele>
        <time>2022-06-26T09:08:28Z</time>
      </trkpt>
      <trkpt lat="42.9337240" lon="1.5858920">
        <ele>837.3</ele>
        <time>2022-06-26T09:08:31Z</time>
      </trkpt>
      <trkpt lat="42.9337790" lon="1.5860050">
        <ele>841.2</ele>
        <time>2022-06-26T09:08:37Z</time>
      </trkpt>
      <trkpt lat="42.9338410" lon="1.5860130">
        <ele>841.6</ele>
        <time>2022-06-26T09:08:40Z</time>
      </trkpt>
      <trkpt lat="42.9339320" lon="1.5860120">
        <ele>842.2</ele>
        <time>2022-06-26T09:08:44Z</time>
      </trkpt>
      <trkpt lat="42.9339960" lon="1.5860210">
        <ele>842.5</ele>
        <time>2022-06-26T09:08:47Z</time>
      </trkpt>
      <trkpt lat="42.9340650" lon="1.5860370">
        <ele>842.9</ele>
        <time>2022-06-26T09:08:50Z</time>
      </trkpt>
      <trkpt lat="42.9341740" lon="1.5860730">
        <ele>843.6</ele>
        <time>2022-06-26T09:08:55Z</time>
      </trkpt>
      <trkpt lat="42.9342130" lon="1.5861000">
        <ele>843.9</ele>
        <time>2022-06-26T09:08:57Z</time>
      </trkpt>
      <trkpt lat="42.9343220" lon="1.5861930">
        <ele>844.9</ele>
        <time>2022-06-26T09:09:03Z</time>
      </trkpt>
      <trkpt lat="42.9343420" lon="1.5862110">
        <ele>845.1</ele>
        <time>2022-06-26T09:09:04Z</time>
      </trkpt>
      <trkpt lat="42.9344120" lon="1.5862800">
        <ele>845.8</ele>
        <time>2022-06-26T09:09:08Z</time>
      </trkpt>
      <trkpt lat="42.9344560" lon="1.5863370">
        <ele>846.4</ele>
        <time>2022-06-26T09:09:11Z</time>
      </trkpt>
      <trkpt lat="42.9345040" lon="1.5864110">
        <ele>847.0</ele>
        <time>2022-06-26T09:09:14Z</time>
      </trkpt>
      <trkpt lat="42.9345920" lon="1.5865390">
        <ele>848.1</ele>
        <time>2022-06-26T09:09:20Z</time>
      </trkpt>
      <trkpt lat="42.9346090" lon="1.5865880">
        <ele>848.5</ele>
        <time>2022-06-26T09:09:22Z</time>
      </trkpt>
      <trkpt lat="42.9346540" lon="1.5866860">
        <ele>849.3</ele>
        <time>2022-06-26T09:09:26Z</time>
      </trkpt>
      <trkpt lat="42.9346980" lon="1.5868000">
        <ele>850.1</ele>
        <time>2022-06-26T09:09:30Z</time>
      </trkpt>
      <trkpt lat="42.9347080" lon="1.5868300">
        <ele>850.3</ele>
        <time>2022-06-26T09:09:31Z</time>
      </trkpt>
      <trkpt lat="42.9347700" lon="1.5869630">
        <ele>851.2</ele>
        <time>2022-06-26T09:09:36Z</time>
      </trkpt>
      <trkpt lat="42.9347860" lon="1.5870250">
        <ele>851.6</ele>
        <time>2022-06-26T09:09:38Z</time>
      </trkpt>
      <trkpt lat="42.9348060" lon="1.5871470">
        <ele>852.4</ele>
        <time>2022-06-26T09:09:42Z</time>
      </trkpt>
      <trkpt lat="42.9348430" lon="1.5873330">
        <ele>853.6</ele>
        <time>2022-06-26T09:09:48Z</time>
      </trkpt>
      <trkpt lat="42.9348540" lon="1.5873990">
        <ele>854.0</ele>
        <time>2022-06-26T09:09:50Z</time>
      </trkpt>
      <trkpt lat="42.9348560" lon="1.5876280">
        <ele>855.5</ele>
        <time>2022-06-26T09:09:57Z</time>
      </trkpt>
      <trkpt lat="42.9348490" lon="1.5876960">
        <ele>855.9</ele>
        <time>2022-06-26T09:09:59Z</time>
      </trkpt>
      <trkpt lat="42.9347950" lon="1.5878880">
        <ele>857.1</ele>
        <time>2022-06-26T09:10:05Z</time>
      </trkpt>
      <trkpt lat="42.9347630" lon="1.5879810">
        <ele>857.7</ele>
        <time>2022-06-26T09:10:08Z</time>
      </trkpt>
      <trkpt lat="42.9346890" lon="1.5881540">
        <ele>859.0</ele>
        <time>2022-06-26T09:10:14Z</time>
      </trkpt>
      <trkpt lat="42.9346270" lon="1.5882490">
        <ele>859.9</ele>
        <time>2022-06-26T09:10:18Z</time>
      </trkpt>
      <trkpt lat="42.9345660" lon="1.5883300">
        <ele>860.7</ele>
        <time>2022-06-26T09:10:22Z</time>
      </trkpt>
      <trkpt lat="42.9345050" lon="1.5884050">
        <ele>861.4</ele>
        <time>2022-06-26T09:10:26Z</time>
      </trkpt>
      <trkpt lat="42.9344480" lon="1.5884510">
        <ele>862.1</ele>
        <time>2022-06-26T09:10:29Z</time>
      </trkpt>
      <trkpt lat="42.9343600" lon="1.5885210">
        <ele>863.0</ele>
        <time>2022-06-26T09:10:34Z</time>
      </trkpt>
      <trkpt lat="42.9343060" lon="1.5885640">
        <ele>863.6</ele>
        <time>2022-06-26T09:10:37Z</time>
      </trkpt>
      <trkpt lat="42.9341990" lon="1.5886420">
        <ele>864.7</ele>
        <time>2022-06-26T09:10:43Z</time>
      </trkpt>
      <trkpt lat="42.9340280" lon="1.5888080">
        <ele>866.6</ele>
        <time>2022-06-26T09:10:52Z</time>
      </trkpt>
      <trkpt lat="42.9340120" lon="1.5888270">
        <ele>866.8</ele>
        <time>2022-06-26T09:10:53Z</time>
      </trkpt>
      <trkpt lat="42.9339180" lon="1.5889330">
        <ele>868.1</ele>
        <time>2022-06-26T09:10:58Z</time>
      </trkpt>
      <trkpt lat="42.9338760" lon="1.5889450">
        <ele>868.5</ele>
        <time>2022-06-26T09:11:00Z</time>
      </trkpt>
      <trkpt lat="42.9338630" lon="1.5889290">
        <ele>868.7</ele>
        <time>2022-06-26T09:11:01Z</time>
      </trkpt>
      <trkpt lat="42.9339030" lon="1.5888170">
        <ele>869.6</ele>
        <time>2022-06-26T09:11:05Z</time>
      </trkpt>
      <trkpt lat="42.9339390" lon="1.5887640">
        <ele>870.1</ele>
        <time>2022-06-26T09:11:07Z</time>
      </trkpt>
      <trkpt lat="42.9340590" lon="1.5885620">
        <ele>871.4</ele>
        <time>2022-06-26T09:11:14Z</time>
      </trkpt>
      <trkpt lat="42.9340750" lon="1.5885280">
        <ele>871.6</ele>
        <time>2022-06-26T09:11:15Z</time>
      </trkpt>
      <trkpt lat="42.9341360" lon="1.5883590">
        <ele>872.3</ele>
        <time>2022-06-26T09:11:20Z</time>
      </trkpt>
      <trkpt lat="42.9341510" lon="1.5882890">
        <ele>872.7</ele>
        <time>2022-06-26T09:11:22Z</time>
      </trkpt>
      <trkpt lat="42.9341710" lon="1.5880230">
        <ele>874.1</ele>
        <time>2022-06-26T09:11:29Z</time>
      </trkpt>
      <trkpt lat="42.9341650" lon="1.5879510">
        <ele>874.5</ele>
        <time>2022-06-26T09:11:31Z</time>
      </trkpt>
      <trkpt lat="42.9341470" lon="1.5878140">
        <ele>875.3</ele>
        <time>2022-06-26T09:11:35Z</time>
      </trkpt>
      <trkpt lat="42.9341110" lon="1.5876850">
        <ele>876.2</ele>
        <time>2022-06-26T09:11:39Z</time>
      </trkpt>
      <trkpt lat="42.9340200" lon="1.5874710">
        <ele>877.7</ele>
        <time>2022-06-26T09:11:46Z</time>
      </trkpt>
      <trkpt lat="42.9338020" lon="1.5871860">
        <ele>880.4</ele>
        <time>2022-06-26T09:11:58Z</time>
      </trkpt>
      <trkpt lat="42.9336160" lon="1.5870500">
        <ele>882.2</ele>
        <time>2022-06-26T09:12:07Z</time>
      </trkpt>
      <trkpt lat="42.9334120" lon="1.5870040">
        <ele>884.2</ele>
        <time>2022-06-26T09:12:16Z</time>
      </trkpt>
      <trkpt lat="42.9332760" lon="1.5870080">
        <ele>885.5</ele>
        <time>2022-06-26T09:12:22Z</time>
      </trkpt>
      <trkpt lat="42.9330740" lon="1.5869950">
        <ele>887.4</ele>
        <time>2022-06-26T09:12:31Z</time>
      </trkpt>
      <trkpt lat="42.9330270" lon="1.5869870">
        <ele>887.9</ele>
        <time>2022-06-26T09:12:33Z</time>
      </trkpt>
      <trkpt lat="42.9328860" lon="1.5869220">
        <ele>889.2</ele>
        <time>2022-06-26T09:12:40Z</time>
      </trkpt>
      <trkpt lat="42.9327960" lon="1.5868020">
        <ele>890.3</ele>
        <time>2022-06-26T09:12:46Z</time>
      </trkpt>
      <trkpt lat="42.9327860" lon="1.5867760">
        <ele>890.5</ele>
        <time>2022-06-26T09:12:47Z</time>
      </trkpt>
      <trkpt lat="42.9327350" lon="1.5866800">
        <ele>891.3</ele>
        <time>2022-06-26T09:12:51Z</time>
      </trkpt>
      <trkpt lat="42.9326990" lon="1.5866030">
        <ele>892.0</ele>
        <time>2022-06-26T09:12:54Z</time>
      </trkpt>
      <trkpt lat="42.9326020" lon="1.5863610">
        <ele>894.0</ele>
        <time>2022-06-26T09:13:03Z</time>
      </trkpt>
      <trkpt lat="42.9325700" lon="1.5862520">
        <ele>894.9</ele>
        <time>2022-06-26T09:13:07Z</time>
      </trkpt>
      <trkpt lat="42.9325320" lon="1.5861150">
        <ele>896.0</ele>
        <time>2022-06-26T09:13:12Z</time>
      </trkpt>
      <trkpt lat="42.9324950" lon="1.5860090">
        <ele>896.9</ele>
        <time>2022-06-26T09:13:16Z</time>
      </trkpt>
      <trkpt lat="42.9324810" lon="1.5859560">
        <ele>897.3</ele>
        <time>2022-06-26T09:13:18Z</time>
      </trkpt>
      <trkpt lat="42.9324690" lon="1.5859020">
        <ele>897.7</ele>
        <time>2022-06-26T09:13:20Z</time>
      </trkpt>
      <trkpt lat="42.9324570" lon="1.5858440">
        <ele>898.1</ele>
        <time>2022-06-26T09:13:22Z</time>
      </trkpt>
      <trkpt lat="42.9324370" lon="1.5857620">
        <ele>898.8</ele>
        <time>2022-06-26T09:13:25Z</time>
      </trkpt>
      <trkpt lat="42.9324280" lon="1.5857060">
        <ele>899.2</ele>
        <time>2022-06-26T09:13:27Z</time>
      </trkpt>
      <trkpt lat="42.9324210" lon="1.5856770">
        <ele>899.4</ele>
        <time>2022-06-26T09:13:28Z</time>
      </trkpt>
      <trkpt lat="42.9323970" lon="1.5855940">
        <ele>900.1</ele>
        <time>2022-06-26T09:13:31Z</time>
      </trkpt>
      <trkpt lat="42.9323840" lon="1.5855040">
        <ele>900.8</ele>
        <time>2022-06-26T09:13:34Z</time>
      </trkpt>
      <trkpt lat="42.9323530" lon="1.5853540">
        <ele>902.0</ele>
        <time>2022-06-26T09:13:39Z</time>
      </trkpt>
      <trkpt lat="42.9323290" lon="1.5852690">
        <ele>902.6</ele>
        <time>2022-06-26T09:13:42Z</time>
      </trkpt>
      <trkpt lat="42.9323230" lon="1.5852410">
        <ele>902.8</ele>
        <time>2022-06-26T09:13:43Z</time>
      </trkpt>
      <trkpt lat="42.9323160" lon="1.5852130">
        <ele>903.1</ele>
        <time>2022-06-26T09:13:44Z</time>
      </trkpt>
      <trkpt lat="42.9322990" lon="1.5851600">
        <ele>903.5</ele>
        <time>2022-06-26T09:13:46Z</time>
      </trkpt>
      <trkpt lat="42.9322790" lon="1.5850810">
        <ele>904.1</ele>
        <time>2022-06-26T09:13:49Z</time>
      </trkpt>
      <trkpt lat="42.9322690" lon="1.5850240">
        <ele>904.5</ele>
        <time>2022-06-26T09:13:51Z</time>
      </trkpt>
      <trkpt lat="42.9322260" lon="1.5849250">
        <ele>905.5</ele>
        <time>2022-06-26T09:13:55Z</time>
      </trkpt>
      <trkpt lat="42.9321490" lon="1.5847540">
        <ele>907.2</ele>
        <time>2022-06-26T09:14:02Z</time>
      </trkpt>
      <trkpt lat="42.9321060" lon="1.5846860">
        <ele>908.0</ele>
        <time>2022-06-26T09:14:05Z</time>
      </trkpt>
      <trkpt lat="42.9320350" lon="1.5845730">
        <ele>909.3</ele>
        <time>2022-06-26T09:14:10Z</time>
      </trkpt>
      <trkpt lat="42.9320190" lon="1.5845530">
        <ele>909.5</ele>
        <time>2022-06-26T09:14:11Z</time>
      </trkpt>
      <trkpt lat="42.9319770" lon="1.5844870">
        <ele>910.2</ele>
        <time>2022-06-26T09:14:14Z</time>
      </trkpt>
      <trkpt lat="42.9319280" lon="1.5844340">
        <ele>910.9</ele>
        <time>2022-06-26T09:14:17Z</time>
      </trkpt>
      <trkpt lat="42.9319110" lon="1.5844170">
        <ele>911.1</ele>
        <time>2022-06-26T09:14:18Z</time>
      </trkpt>
      <trkpt lat="42.9318590" lon="1.5843710">
        <ele>911.8</ele>
        <time>2022-06-26T09:14:21Z</time>
      </trkpt>
      <trkpt lat="42.9317600" lon="1.5842700">
        <ele>913.1</ele>
        <time>2022-06-26T09:14:27Z</time>
      </trkpt>
      <trkpt lat="42.9317440" lon="1.5842520">
        <ele>913.3</ele>
        <time>2022-06-26T09:14:28Z</time>
      </trkpt>
      <trkpt lat="42.9316330" lon="1.5841800">
        <ele>914.7</ele>
        <time>2022-06-26T09:14:34Z</time>
      </trkpt>
      <trkpt lat="42.9314100" lon="1.5840930">
        <ele>917.1</ele>
        <time>2022-06-26T09:14:45Z</time>
      </trkpt>
      <trkpt lat="42.9313250" lon="1.5840750">
        <ele>918.1</ele>
        <time>2022-06-26T09:14:49Z</time>
      </trkpt>
      <trkpt lat="42.9311920" lon="1.5840770">
        <ele>919.5</ele>
        <time>2022-06-26T09:14:55Z</time>
      </trkpt>
      <trkpt lat="42.9309510" lon="1.5840780">
        <ele>921.7</ele>
        <time>2022-06-26T09:15:06Z</time>
      </trkpt>
      <trkpt lat="42.9307530" lon="1.5840380">
        <ele>923.6</ele>
        <time>2022-06-26T09:15:15Z</time>
      </trkpt>
      <trkpt lat="42.9305570" lon="1.5839940">
        <ele>925.2</ele>
        <time>2022-06-26T09:15:24Z</time>
      </trkpt>
      <trkpt lat="42.9305230" lon="1.5840290">
        <ele>925.6</ele>
        <time>2022-06-26T09:15:26Z</time>
      </trkpt>
      <trkpt lat="42.9305300" lon="1.5840760">
        <ele>925.9</ele>
        <time>2022-06-26T09:15:28Z</time>
      </trkpt>
      <trkpt lat="42.9306250" lon="1.5841490">
        <ele>926.7</ele>
        <time>2022-06-26T09:15:32Z</time>
      </trkpt>
      <trkpt lat="42.9306540" lon="1.5841630">
        <ele>927.0</ele>
        <time>2022-06-26T09:15:33Z</time>
      </trkpt>
      <trkpt lat="42.9309010" lon="1.5842550">
        <ele>928.2</ele>
        <time>2022-06-26T09:15:41Z</time>
      </trkpt>
      <trkpt lat="42.9311500" lon="1.5843570">
        <ele>929.3</ele>
        <time>2022-06-26T09:15:49Z</time>
      </trkpt>
      <trkpt lat="42.9312080" lon="1.5843870">
        <ele>929.5</ele>
        <time>2022-06-26T09:15:51Z</time>
      </trkpt>
      <trkpt lat="42.9313970" lon="1.5845700">
        <ele>930.9</ele>
        <time>2022-06-26T09:15:59Z</time>
      </trkpt>
      <trkpt lat="42.9315060" lon="1.5848270">
        <ele>932.5</ele>
        <time>2022-06-26T09:16:07Z</time>
      </trkpt>
      <trkpt lat="42.9315630" lon="1.5851120">
        <ele>934.5</ele>
        <time>2022-06-26T09:16:15Z</time>
      </trkpt>
      <trkpt lat="42.9315850" lon="1.5854050">
        <ele>936.3</ele>
        <time>2022-06-26T09:16:23Z</time>
      </trkpt>
      <trkpt lat="42.9315760" lon="1.5857160">
        <ele>938.0</ele>
        <time>2022-06-26T09:16:32Z</time>
      </trkpt>
      <trkpt lat="42.9315750" lon="1.5859500">
        <ele>939.4</ele>
        <time>2022-06-26T09:16:39Z</time>
      </trkpt>
      <trkpt lat="42.9315420" lon="1.5861430">
        <ele>940.7</ele>
        <time>2022-06-26T09:16:45Z</time>
      </trkpt>
      <trkpt lat="42.9315250" lon="1.5864080">
        <ele>942.4</ele>
        <time>2022-06-26T09:16:53Z</time>
      </trkpt>
      <trkpt lat="42.9315150" lon="1.5864750">
        <ele>942.8</ele>
        <time>2022-06-26T09:16:55Z</time>
      </trkpt>
      <trkpt lat="42.9314870" lon="1.5865920">
        <ele>943.5</ele>
        <time>2022-06-26T09:16:59Z</time>
      </trkpt>
      <trkpt lat="42.9314760" lon="1.5867200">
        <ele>944.3</ele>
        <time>2022-06-26T09:17:03Z</time>
      </trkpt>
      <trkpt lat="42.9314670" lon="1.5867850">
        <ele>944.7</ele>
        <time>2022-06-26T09:17:05Z</time>
      </trkpt>
      <trkpt lat="42.9314300" lon="1.5869820">
        <ele>945.9</ele>
        <time>2022-06-26T09:17:11Z</time>
      </trkpt>
      <trkpt lat="42.9314260" lon="1.5870140">
        <ele>946.1</ele>
        <time>2022-06-26T09:17:12Z</time>
      </trkpt>
      <trkpt lat="42.9314130" lon="1.5872080">
        <ele>947.2</ele>
        <time>2022-06-26T09:17:18Z</time>
      </trkpt>
      <trkpt lat="42.9313940" lon="1.5873780">
        <ele>948.2</ele>
        <time>2022-06-26T09:17:23Z</time>
      </trkpt>
      <trkpt lat="42.9313890" lon="1.5874120">
        <ele>948.4</ele>
        <time>2022-06-26T09:17:24Z</time>
      </trkpt>
      <trkpt lat="42.9313750" lon="1.5876860">
        <ele>950.1</ele>
        <time>2022-06-26T09:17:32Z</time>
      </trkpt>
      <trkpt lat="42.9313530" lon="1.5878570">
        <ele>951.2</ele>
        <time>2022-06-26T09:17:37Z</time>
      </trkpt>
      <trkpt lat="42.9313240" lon="1.5879910">
        <ele>952.0</ele>
        <time>2022-06-26T09:17:41Z</time>
      </trkpt>
      <trkpt lat="42.9313190" lon="1.5880240">
        <ele>952.2</ele>
        <time>2022-06-26T09:17:42Z</time>
      </trkpt>
      <trkpt lat="42.9313060" lon="1.5882280">
        <ele>953.6</ele>
        <time>2022-06-26T09:17:48Z</time>
      </trkpt>
      <trkpt lat="42.9313000" lon="1.5882640">
        <ele>953.8</ele>
        <time>2022-06-26T09:17:49Z</time>
      </trkpt>
      <trkpt lat="42.9312780" lon="1.5884450">
        <ele>954.9</ele>
        <time>2022-06-26T09:17:54Z</time>
      </trkpt>
      <trkpt lat="42.9312570" lon="1.5885510">
        <ele>955.6</ele>
        <time>2022-06-26T09:17:57Z</time>
      </trkpt>
      <trkpt lat="42.9311790" lon="1.5888160">
        <ele>957.5</ele>
        <time>2022-06-26T09:18:05Z</time>
      </trkpt>
      <trkpt lat="42.9311680" lon="1.5888470">
        <ele>957.7</ele>
        <time>2022-06-26T09:18:06Z</time>
      </trkpt>
      <trkpt lat="42.9310970" lon="1.5890660">
        <ele>959.2</ele>
        <time>2022-06-26T09:18:13Z</time>
      </trkpt>
      <trkpt lat="42.9310620" lon="1.5891570">
        <ele>959.8</ele>
        <time>2022-06-26T09:18:16Z</time>
      </trkpt>
      <trkpt lat="42.9309650" lon="1.5894500">
        <ele>961.6</ele>
        <time>2022-06-26T09:18:25Z</time>
      </trkpt>
      <trkpt lat="42.9309430" lon="1.5895500">
        <ele>962.3</ele>
        <time>2022-06-26T09:18:28Z</time>
      </trkpt>
      <trkpt lat="42.9308730" lon="1.5897430">
        <ele>963.5</ele>
        <time>2022-06-26T09:18:34Z</time>
      </trkpt>
      <trkpt lat="42.9307740" lon="1.5900220">
        <ele>965.2</ele>
        <time>2022-06-26T09:18:43Z</time>
      </trkpt>
      <trkpt lat="42.9307090" lon="1.5902850">
        <ele>966.8</ele>
        <time>2022-06-26T09:18:51Z</time>
      </trkpt>
      <trkpt lat="42.9306260" lon="1.5905400">
        <ele>968.4</ele>
        <time>2022-06-26T09:18:59Z</time>
      </trkpt>
      <trkpt lat="42.9306150" lon="1.5905710">
        <ele>968.6</ele>
        <time>2022-06-26T09:19:00Z</time>
      </trkpt>
      <trkpt lat="42.9305880" lon="1.5907050">
        <ele>969.4</ele>
        <time>2022-06-26T09:19:04Z</time>
      </trkpt>
      <trkpt lat="42.9305720" lon="1.5908110">
        <ele>970.1</ele>
        <time>2022-06-26T09:19:07Z</time>
      </trkpt>
      <trkpt lat="42.9305610" lon="1.5908430">
        <ele>970.3</ele>
        <time>2022-06-26T09:19:08Z</time>
      </trkpt>
      <trkpt lat="42.9305010" lon="1.5909940">
        <ele>971.3</ele>
        <time>2022-06-26T09:19:13Z</time>
      </trkpt>
      <trkpt lat="42.9304800" lon="1.5910550">
        <ele>971.7</ele>
        <time>2022-06-26T09:19:15Z</time>
      </trkpt>
      <trkpt lat="42.9304700" lon="1.5910870">
        <ele>971.9</ele>
        <time>2022-06-26T09:19:16Z</time>
      </trkpt>
      <trkpt lat="42.9304320" lon="1.5912160">
        <ele>972.7</ele>
        <time>2022-06-26T09:19:20Z</time>
      </trkpt>
      <trkpt lat="42.9303890" lon="1.5913510">
        <ele>973.5</ele>
        <time>2022-06-26T09:19:24Z</time>
      </trkpt>
      <trkpt lat="42.9303690" lon="1.5914190">
        <ele>973.9</ele>
        <time>2022-06-26T09:19:26Z</time>
      </trkpt>
      <trkpt lat="42.9303580" lon="1.5914530">
        <ele>974.1</ele>
        <time>2022-06-26T09:19:27Z</time>
      </trkpt>
      <trkpt lat="42.9303230" lon="1.5915560">
        <ele>974.7</ele>
        <time>2022-06-26T09:19:30Z</time>
      </trkpt>
      <trkpt lat="42.9302950" lon="1.5916230">
        <ele>975.0</ele>
        <time>2022-06-26T09:19:32Z</time>
      </trkpt>
      <trkpt lat="42.9302400" lon="1.5917210">
        <ele>975.6</ele>
        <time>2022-06-26T09:19:35Z</time>
      </trkpt>
      <trkpt lat="42.9301620" lon="1.5918450">
        <ele>976.4</ele>
        <time>2022-06-26T09:19:39Z</time>
      </trkpt>
      <trkpt lat="42.9300150" lon="1.5920610">
        <ele>977.5</ele>
        <time>2022-06-26T09:19:46Z</time>
      </trkpt>
      <trkpt lat="42.9298730" lon="1.5921650">
        <ele>978.2</ele>
        <time>2022-06-26T09:19:51Z</time>
      </trkpt>
      <trkpt lat="42.9297510" lon="1.5921990">
        <ele>978.6</ele>
        <time>2022-06-26T09:19:55Z</time>
      </trkpt>
      <trkpt lat="42.9296860" lon="1.5922380">
        <ele>978.8</ele>
        <time>2022-06-26T09:19:57Z</time>
      </trkpt>
      <trkpt lat="42.9296550" lon="1.5922630">
        <ele>978.9</ele>
        <time>2022-06-26T09:19:58Z</time>
      </trkpt>
      <trkpt lat="42.9294750" lon="1.5924680">
        <ele>979.6</ele>
        <time>2022-06-26T09:20:05Z</time>
      </trkpt>
      <trkpt lat="42.9294470" lon="1.5926570">
        <ele>980.3</ele>
        <time>2022-06-26T09:20:09Z</time>
      </trkpt>
      <trkpt lat="42.9294790" lon="1.5929030">
        <ele>981.4</ele>
        <time>2022-06-26T09:20:15Z</time>
      </trkpt>
      <trkpt lat="42.9294850" lon="1.5929470">
        <ele>981.6</ele>
        <time>2022-06-26T09:20:16Z</time>
      </trkpt>
      <trkpt lat="42.9295050" lon="1.5930720">
        <ele>982.2</ele>
        <time>2022-06-26T09:20:19Z</time>
      </trkpt>
      <trkpt lat="42.9295060" lon="1.5931920">
        <ele>982.8</ele>
        <time>2022-06-26T09:20:22Z</time>
      </trkpt>
      <trkpt lat="42.9294890" lon="1.5933210">
        <ele>983.3</ele>
        <time>2022-06-26T09:20:25Z</time>
      </trkpt>
      <trkpt lat="42.9294620" lon="1.5934580">
        <ele>983.9</ele>
        <time>2022-06-26T09:20:28Z</time>
      </trkpt>
      <trkpt lat="42.9294500" lon="1.5935470">
        <ele>984.1</ele>
        <time>2022-06-26T09:20:30Z</time>
      </trkpt>
      <trkpt lat="42.9294440" lon="1.5935900">
        <ele>984.2</ele>
        <time>2022-06-26T09:20:31Z</time>
      </trkpt>
      <trkpt lat="42.9294220" lon="1.5937170">
        <ele>984.6</ele>
        <time>2022-06-26T09:20:34Z</time>
      </trkpt>
      <trkpt lat="42.9294090" lon="1.5938420">
        <ele>985.1</ele>
        <time>2022-06-26T09:20:37Z</time>
      </trkpt>
      <trkpt lat="42.9294000" lon="1.5938800">
        <ele>985.2</ele>
        <time>2022-06-26T09:20:38Z</time>
      </trkpt>
      <trkpt lat="42.9293580" lon="1.5939900">
        <ele>985.8</ele>
        <time>2022-06-26T09:20:41Z</time>
      </trkpt>
      <trkpt lat="42.9292940" lon="1.5941260">
        <ele>986.7</ele>
        <time>2022-06-26T09:20:45Z</time>
      </trkpt>
      <trkpt lat="42.9292200" lon="1.5943010">
        <ele>987.9</ele>
        <time>2022-06-26T09:20:50Z</time>
      </trkpt>
      <trkpt lat="42.9291700" lon="1.5944380">
        <ele>988.8</ele>
        <time>2022-06-26T09:20:54Z</time>
      </trkpt>
      <trkpt lat="42.9291290" lon="1.5944910">
        <ele>989.3</ele>
        <time>2022-06-26T09:20:56Z</time>
      </trkpt>
      <trkpt lat="42.9290640" lon="1.5945700">
        <ele>990.0</ele>
        <time>2022-06-26T09:20:59Z</time>
      </trkpt>
      <trkpt lat="42.9290450" lon="1.5945980">
        <ele>990.3</ele>
        <time>2022-06-26T09:21:00Z</time>
      </trkpt>
      <trkpt lat="42.9290110" lon="1.5946600">
        <ele>990.7</ele>
        <time>2022-06-26T09:21:02Z</time>
      </trkpt>
      <trkpt lat="42.9289510" lon="1.5947380">
        <ele>991.4</ele>
        <time>2022-06-26T09:21:05Z</time>
      </trkpt>
      <trkpt lat="42.9288740" lon="1.5947910">
        <ele>992.2</ele>
        <time>2022-06-26T09:21:08Z</time>
      </trkpt>
      <trkpt lat="42.9288210" lon="1.5948270">
        <ele>992.7</ele>
        <time>2022-06-26T09:21:10Z</time>
      </trkpt>
      <trkpt lat="42.9286890" lon="1.5949130">
        <ele>993.9</ele>
        <time>2022-06-26T09:21:15Z</time>
      </trkpt>
      <trkpt lat="42.9285810" lon="1.5949600">
        <ele>994.8</ele>
        <time>2022-06-26T09:21:19Z</time>
      </trkpt>
      <trkpt lat="42.9285540" lon="1.5949700">
        <ele>995.0</ele>
        <time>2022-06-26T09:21:20Z</time>
      </trkpt>
      <trkpt lat="42.9284470" lon="1.5950140">
        <ele>995.9</ele>
        <time>2022-06-26T09:21:24Z</time>
      </trkpt>
      <trkpt lat="42.9283400" lon="1.5950470">
        <ele>996.8</ele>
        <time>2022-06-26T09:21:28Z</time>
      </trkpt>
      <trkpt lat="42.9283140" lon="1.5950570">
        <ele>997.0</ele>
        <time>2022-06-26T09:21:29Z</time>
      </trkpt>
      <trkpt lat="42.9281860" lon="1.5950940">
        <ele>998.1</ele>
        <time>2022-06-26T09:21:34Z</time>
      </trkpt>
      <trkpt lat="42.9280790" lon="1.5951240">
        <ele>998.9</ele>
        <time>2022-06-26T09:21:38Z</time>
      </trkpt>
      <trkpt lat="42.9280290" lon="1.5951470">
        <ele>999.3</ele>
        <time>2022-06-26T09:21:40Z</time>
      </trkpt>
      <trkpt lat="42.9278580" lon="1.5952540">
        <ele>1000.7</ele>
        <time>2022-06-26T09:21:47Z</time>
      </trkpt>
      <trkpt lat="42.9278120" lon="1.5952880">
        <ele>1001.1</ele>
        <time>2022-06-26T09:21:49Z</time>
      </trkpt>
      <trkpt lat="42.9276550" lon="1.5954230">
        <ele>1002.6</ele>
        <time>2022-06-26T09:21:56Z</time>
      </trkpt>
      <trkpt lat="42.9276330" lon="1.5954450">
        <ele>1002.8</ele>
        <time>2022-06-26T09:21:57Z</time>
      </trkpt>
      <trkpt lat="42.9275040" lon="1.5955680">
        <ele>1004.1</ele>
        <time>2022-06-26T09:22:03Z</time>
      </trkpt>
      <trkpt lat="42.9274100" lon="1.5956340">
        <ele>1005.0</ele>
        <time>2022-06-26T09:22:07Z</time>
      </trkpt>
      <trkpt lat="42.9272540" lon="1.5956980">
        <ele>1006.4</ele>
        <time>2022-06-26T09:22:13Z</time>
      </trkpt>
      <trkpt lat="42.9271650" lon="1.5956990">
        <ele>1007.1</ele>
        <time>2022-06-26T09:22:16Z</time>
      </trkpt>
      <trkpt lat="42.9270190" lon="1.5956100">
        <ele>1008.2</ele>
        <time>2022-06-26T09:22:21Z</time>
      </trkpt>
      <trkpt lat="42.9269700" lon="1.5955650">
        <ele>1008.6</ele>
        <time>2022-06-26T09:22:23Z</time>
      </trkpt>
      <trkpt lat="42.9268340" lon="1.5954030">
        <ele>1009.9</ele>
        <time>2022-06-26T09:22:29Z</time>
      </trkpt>
      <trkpt lat="42.9267770" lon="1.5953180">
        <ele>1010.5</ele>
        <time>2022-06-26T09:22:32Z</time>
      </trkpt>
      <trkpt lat="42.9266880" lon="1.5951690">
        <ele>1011.6</ele>
        <time>2022-06-26T09:22:37Z</time>
      </trkpt>
      <trkpt lat="42.9266250" lon="1.5950050">
        <ele>1012.6</ele>
        <time>2022-06-26T09:22:42Z</time>
      </trkpt>
      <trkpt lat="42.9266140" lon="1.5949730">
        <ele>1012.8</ele>
        <time>2022-06-26T09:22:43Z</time>
      </trkpt>
      <trkpt lat="42.9265190" lon="1.5946680">
        <ele>1014.7</ele>
        <time>2022-06-26T09:22:52Z</time>
      </trkpt>
      <trkpt lat="42.9264620" lon="1.5942610">
        <ele>1017.0</ele>
        <time>2022-06-26T09:23:03Z</time>
      </trkpt>
      <trkpt lat="42.9264480" lon="1.5940800">
        <ele>1018.1</ele>
        <time>2022-06-26T09:23:08Z</time>
      </trkpt>
      <trkpt lat="42.9264390" lon="1.5939720">
        <ele>1018.7</ele>
        <time>2022-06-26T09:23:11Z</time>
      </trkpt>
      <trkpt lat="42.9264340" lon="1.5939000">
        <ele>1019.1</ele>
        <time>2022-06-26T09:23:13Z</time>
      </trkpt>
      <trkpt lat="42.9264370" lon="1.5935970">
        <ele>1020.9</ele>
        <time>2022-06-26T09:23:21Z</time>
      </trkpt>
      <trkpt lat="42.9264470" lon="1.5931590">
        <ele>1023.5</ele>
        <time>2022-06-26T09:23:33Z</time>
      </trkpt>
      <trkpt lat="42.9264460" lon="1.5931210">
        <ele>1023.8</ele>
        <time>2022-06-26T09:23:34Z</time>
      </trkpt>
      <trkpt lat="42.9264380" lon="1.5928240">
        <ele>1025.7</ele>
        <time>2022-06-26T09:23:42Z</time>
      </trkpt>
      <trkpt lat="42.9264350" lon="1.5927130">
        <ele>1026.6</ele>
        <time>2022-06-26T09:23:45Z</time>
      </trkpt>
      <trkpt lat="42.9264740" lon="1.5926620">
        <ele>1027.2</ele>
        <time>2022-06-26T09:23:47Z</time>
      </trkpt>
      <trkpt lat="42.9265270" lon="1.5927120">
        <ele>1028.0</ele>
        <time>2022-06-26T09:23:50Z</time>
      </trkpt>
      <trkpt lat="42.9265390" lon="1.5928350">
        <ele>1028.4</ele>
        <time>2022-06-26T09:23:53Z</time>
      </trkpt>
      <trkpt lat="42.9265460" lon="1.5929190">
        <ele>1028.7</ele>
        <time>2022-06-26T09:23:55Z</time>
      </trkpt>
      <trkpt lat="42.9266160" lon="1.5932530">
        <ele>1029.8</ele>
        <time>2022-06-26T09:24:03Z</time>
      </trkpt>
      <trkpt lat="42.9266670" lon="1.5934060">
        <ele>1030.5</ele>
        <time>2022-06-26T09:24:07Z</time>
      </trkpt>
      <trkpt lat="42.9267270" lon="1.5935430">
        <ele>1031.2</ele>
        <time>2022-06-26T09:24:11Z</time>
      </trkpt>
      <trkpt lat="42.9267770" lon="1.5936390">
        <ele>1031.8</ele>
        <time>2022-06-26T09:24:14Z</time>
      </trkpt>
      <trkpt lat="42.9268790" lon="1.5938190">
        <ele>1032.9</ele>
        <time>2022-06-26T09:24:20Z</time>
      </trkpt>
      <trkpt lat="42.9269410" lon="1.5938930">
        <ele>1033.5</ele>
        <time>2022-06-26T09:24:23Z</time>
      </trkpt>
      <trkpt lat="42.9269830" lon="1.5939430">
        <ele>1033.9</ele>
        <time>2022-06-26T09:24:25Z</time>
      </trkpt>
      <trkpt lat="42.9270780" lon="1.5940220">
        <ele>1034.7</ele>
        <time>2022-06-26T09:24:29Z</time>
      </trkpt>
      <trkpt lat="42.9271730" lon="1.5940780">
        <ele>1035.6</ele>
        <time>2022-06-26T09:24:33Z</time>
      </trkpt>
      <trkpt lat="42.9272750" lon="1.5941020">
        <ele>1036.3</ele>
        <time>2022-06-26T09:24:37Z</time>
      </trkpt>
      <trkpt lat="42.9273800" lon="1.5940780">
        <ele>1037.0</ele>
        <time>2022-06-26T09:24:41Z</time>
      </trkpt>
      <trkpt lat="42.9274520" lon="1.5940370">
        <ele>1037.5</ele>
        <time>2022-06-26T09:24:44Z</time>
      </trkpt>
      <trkpt lat="42.9274760" lon="1.5940220">
        <ele>1037.7</ele>
        <time>2022-06-26T09:24:45Z</time>
      </trkpt>
      <trkpt lat="42.9275740" lon="1.5939460">
        <ele>1038.5</ele>
        <time>2022-06-26T09:24:49Z</time>
      </trkpt>
      <trkpt lat="42.9276640" lon="1.5938610">
        <ele>1039.3</ele>
        <time>2022-06-26T09:24:53Z</time>
      </trkpt>
      <trkpt lat="42.9277200" lon="1.5937860">
        <ele>1040.0</ele>
        <time>2022-06-26T09:24:56Z</time>
      </trkpt>
      <trkpt lat="42.9277940" lon="1.5936850">
        <ele>1040.8</ele>
        <time>2022-06-26T09:25:00Z</time>
      </trkpt>
      <trkpt lat="42.9278120" lon="1.5936600">
        <ele>1041.0</ele>
        <time>2022-06-26T09:25:01Z</time>
      </trkpt>
      <trkpt lat="42.9278610" lon="1.5935790">
        <ele>1041.6</ele>
        <time>2022-06-26T09:25:04Z</time>
      </trkpt>
      <trkpt lat="42.9279450" lon="1.5934320">
        <ele>1042.6</ele>
        <time>2022-06-26T09:25:09Z</time>
      </trkpt>
      <trkpt lat="42.9279950" lon="1.5933390">
        <ele>1043.3</ele>
        <time>2022-06-26T09:25:12Z</time>
      </trkpt>
      <trkpt lat="42.9280290" lon="1.5932770">
        <ele>1043.7</ele>
        <time>2022-06-26T09:25:14Z</time>
      </trkpt>
      <trkpt lat="42.9280890" lon="1.5931550">
        <ele>1044.5</ele>
        <time>2022-06-26T09:25:18Z</time>
      </trkpt>
      <trkpt lat="42.9281280" lon="1.5930650">
        <ele>1045.1</ele>
        <time>2022-06-26T09:25:21Z</time>
      </trkpt>
      <trkpt lat="42.9281790" lon="1.5929320">
        <ele>1045.9</ele>
        <time>2022-06-26T09:25:25Z</time>
      </trkpt>
      <trkpt lat="42.9282590" lon="1.5927100">
        <ele>1047.4</ele>
        <time>2022-06-26T09:25:32Z</time>
      </trkpt>
      <trkpt lat="42.9282720" lon="1.5926790">
        <ele>1047.6</ele>
        <time>2022-06-26T09:25:33Z</time>
      </trkpt>
      <trkpt lat="42.9283480" lon="1.5924010">
        <ele>1049.4</ele>
        <time>2022-06-26T09:25:41Z</time>
      </trkpt>
      <trkpt lat="42.9283740" lon="1.5923020">
        <ele>1050.1</ele>
        <time>2022-06-26T09:25:44Z</time>
      </trkpt>
      <trkpt lat="42.9284050" lon="1.5921280">
        <ele>1051.2</ele>
        <time>2022-06-26T09:25:49Z</time>
      </trkpt>
      <trkpt lat="42.9284110" lon="1.5920530">
        <ele>1051.7</ele>
        <time>2022-06-26T09:25:51Z</time>
      </trkpt>
      <trkpt lat="42.9284170" lon="1.5919200">
        <ele>1052.5</ele>
        <time>2022-06-26T09:25:55Z</time>
      </trkpt>
      <trkpt lat="42.9284230" lon="1.5918890">
        <ele>1052.7</ele>
        <time>2022-06-26T09:25:56Z</time>
      </trkpt>
      <trkpt lat="42.9284280" lon="1.5917590">
        <ele>1053.4</ele>
        <time>2022-06-26T09:26:00Z</time>
      </trkpt>
      <trkpt lat="42.9284240" lon="1.5916630">
        <ele>1053.9</ele>
        <time>2022-06-26T09:26:03Z</time>
      </trkpt>
      <trkpt lat="42.9284190" lon="1.5915980">
        <ele>1054.3</ele>
        <time>2022-06-26T09:26:05Z</time>
      </trkpt>
      <trkpt lat="42.9284120" lon="1.5913980">
        <ele>1055.4</ele>
        <time>2022-06-26T09:26:11Z</time>
      </trkpt>
      <trkpt lat="42.9284090" lon="1.5913330">
        <ele>1055.8</ele>
        <time>2022-06-26T09:26:13Z</time>
      </trkpt>
      <trkpt lat="42.9283980" lon="1.5912080">
        <ele>1056.5</ele>
        <time>2022-06-26T09:26:17Z</time>
      </trkpt>
      <trkpt lat="42.9283870" lon="1.5910450">
        <ele>1057.5</ele>
        <time>2022-06-26T09:26:22Z</time>
      </trkpt>
      <trkpt lat="42.9283800" lon="1.5909790">
        <ele>1057.9</ele>
        <time>2022-06-26T09:26:24Z</time>
      </trkpt>
      <trkpt lat="42.9283190" lon="1.5907700">
        <ele>1059.1</ele>
        <time>2022-06-26T09:26:30Z</time>
      </trkpt>
      <trkpt lat="42.9283070" lon="1.5907320">
        <ele>1059.3</ele>
        <time>2022-06-26T09:26:31Z</time>
      </trkpt>
      <trkpt lat="42.9282320" lon="1.5905170">
        <ele>1060.5</ele>
        <time>2022-06-26T09:26:37Z</time>
      </trkpt>
      <trkpt lat="42.9281940" lon="1.5904120">
        <ele>1061.1</ele>
        <time>2022-06-26T09:26:40Z</time>
      </trkpt>
      <trkpt lat="42.9281760" lon="1.5903360">
        <ele>1061.5</ele>
        <time>2022-06-26T09:26:42Z</time>
      </trkpt>
      <trkpt lat="42.9281660" lon="1.5901570">
        <ele>1062.5</ele>
        <time>2022-06-26T09:26:47Z</time>
      </trkpt>
      <trkpt lat="42.9281660" lon="1.5901230">
        <ele>1062.7</ele>
        <time>2022-06-26T09:26:48Z</time>
      </trkpt>
      <trkpt lat="42.9281660" lon="1.5899510">
        <ele>1063.7</ele>
        <time>2022-06-26T09:26:53Z</time>
      </trkpt>
      <trkpt lat="42.9281640" lon="1.5898030">
        <ele>1064.5</ele>
        <time>2022-06-26T09:26:57Z</time>
      </trkpt>
      <trkpt lat="42.9281670" lon="1.5895710">
        <ele>1065.7</ele>
        <time>2022-06-26T09:27:03Z</time>
      </trkpt>
      <trkpt lat="42.9281840" lon="1.5894170">
        <ele>1066.5</ele>
        <time>2022-06-26T09:27:07Z</time>
      </trkpt>
      <trkpt lat="42.9281960" lon="1.5893450">
        <ele>1066.9</ele>
        <time>2022-06-26T09:27:09Z</time>
      </trkpt>
      <trkpt lat="42.9282130" lon="1.5891210">
        <ele>1068.1</ele>
        <time>2022-06-26T09:27:15Z</time>
      </trkpt>
      <trkpt lat="42.9282130" lon="1.5890800">
        <ele>1068.2</ele>
        <time>2022-06-26T09:27:16Z</time>
      </trkpt>
      <trkpt lat="42.9281990" lon="1.5889520">
        <ele>1068.8</ele>
        <time>2022-06-26T09:27:19Z</time>
      </trkpt>
      <trkpt lat="42.9281780" lon="1.5888720">
        <ele>1069.2</ele>
        <time>2022-06-26T09:27:21Z</time>
      </trkpt>
      <trkpt lat="42.9281490" lon="1.5887930">
        <ele>1069.5</ele>
        <time>2022-06-26T09:27:23Z</time>
      </trkpt>
      <trkpt lat="42.9280930" lon="1.5886790">
        <ele>1070.1</ele>
        <time>2022-06-26T09:27:26Z</time>
      </trkpt>
      <trkpt lat="42.9280240" lon="1.5885680">
        <ele>1070.5</ele>
        <time>2022-06-26T09:27:29Z</time>
      </trkpt>
      <trkpt lat="42.9280030" lon="1.5885310">
        <ele>1070.6</ele>
        <time>2022-06-26T09:27:30Z</time>
      </trkpt>
      <trkpt lat="42.9278050" lon="1.5882290">
        <ele>1071.5</ele>
        <time>2022-06-26T09:27:38Z</time>
      </trkpt>
      <trkpt lat="42.9276240" lon="1.5878700">
        <ele>1072.6</ele>
        <time>2022-06-26T09:27:46Z</time>
      </trkpt>
      <trkpt lat="42.9276030" lon="1.5878250">
        <ele>1072.8</ele>
        <time>2022-06-26T09:27:47Z</time>
      </trkpt>
      <trkpt lat="42.9275680" lon="1.5877320">
        <ele>1073.2</ele>
        <time>2022-06-26T09:27:49Z</time>
      </trkpt>
      <trkpt lat="42.9275270" lon="1.5875940">
        <ele>1073.9</ele>
        <time>2022-06-26T09:27:52Z</time>
      </trkpt>
      <trkpt lat="42.9274960" lon="1.5874690">
        <ele>1074.6</ele>
        <time>2022-06-26T09:27:55Z</time>
      </trkpt>
      <trkpt lat="42.9274870" lon="1.5874320">
        <ele>1074.9</ele>
        <time>2022-06-26T09:27:56Z</time>
      </trkpt>
      <trkpt lat="42.9273960" lon="1.5871450">
        <ele>1076.8</ele>
        <time>2022-06-26T09:28:04Z</time>
      </trkpt>
      <trkpt lat="42.9273820" lon="1.5871100">
        <ele>1077.0</ele>
        <time>2022-06-26T09:28:05Z</time>
      </trkpt>
      <trkpt lat="42.9272740" lon="1.5868630">
        <ele>1078.7</ele>
        <time>2022-06-26T09:28:12Z</time>
      </trkpt>
      <trkpt lat="42.9272290" lon="1.5867650">
        <ele>1079.4</ele>
        <time>2022-06-26T09:28:15Z</time>
      </trkpt>
      <trkpt lat="42.9271690" lon="1.5866420">
        <ele>1080.3</ele>
        <time>2022-06-26T09:28:19Z</time>
      </trkpt>
      <trkpt lat="42.9271210" lon="1.5865590">
        <ele>1080.9</ele>
        <time>2022-06-26T09:28:22Z</time>
      </trkpt>
      <trkpt lat="42.9271030" lon="1.5865330">
        <ele>1081.1</ele>
        <time>2022-06-26T09:28:23Z</time>
      </trkpt>
      <trkpt lat="42.9270670" lon="1.5864830">
        <ele>1081.5</ele>
        <time>2022-06-26T09:28:25Z</time>
      </trkpt>
      <trkpt lat="42.9270140" lon="1.5864110">
        <ele>1082.1</ele>
        <time>2022-06-26T09:28:28Z</time>
      </trkpt>
      <trkpt lat="42.9269640" lon="1.5863410">
        <ele>1082.8</ele>
        <time>2022-06-26T09:28:31Z</time>
      </trkpt>
      <trkpt lat="42.9269280" lon="1.5862970">
        <ele>1083.2</ele>
        <time>2022-06-26T09:28:33Z</time>
      </trkpt>
      <trkpt lat="42.9269080" lon="1.5862760">
        <ele>1083.4</ele>
        <time>2022-06-26T09:28:34Z</time>
      </trkpt>
      <trkpt lat="42.9268490" lon="1.5862160">
        <ele>1084.1</ele>
        <time>2022-06-26T09:28:37Z</time>
      </trkpt>
      <trkpt lat="42.9267690" lon="1.5861340">
        <ele>1085.0</ele>
        <time>2022-06-26T09:28:41Z</time>
      </trkpt>
      <trkpt lat="42.9267300" lon="1.5860920">
        <ele>1085.4</ele>
        <time>2022-06-26T09:28:43Z</time>
      </trkpt>
      <trkpt lat="42.9266880" lon="1.5860480">
        <ele>1085.8</ele>
        <time>2022-06-26T09:28:45Z</time>
      </trkpt>
      <trkpt lat="42.9266010" lon="1.5859610">
        <ele>1086.7</ele>
        <time>2022-06-26T09:28:49Z</time>
      </trkpt>
      <trkpt lat="42.9265420" lon="1.5858830">
        <ele>1087.4</ele>
        <time>2022-06-26T09:28:52Z</time>
      </trkpt>
      <trkpt lat="42.9265260" lon="1.5858550">
        <ele>1087.5</ele>
        <time>2022-06-26T09:28:53Z</time>
      </trkpt>
      <trkpt lat="42.9264770" lon="1.5857660">
        <ele>1088.2</ele>
        <time>2022-06-26T09:28:56Z</time>
      </trkpt>
      <trkpt lat="42.9264320" lon="1.5856740">
        <ele>1088.8</ele>
        <time>2022-06-26T09:28:59Z</time>
      </trkpt>
      <trkpt lat="42.9263780" lon="1.5855430">
        <ele>1089.6</ele>
        <time>2022-06-26T09:29:03Z</time>
      </trkpt>
      <trkpt lat="42.9263660" lon="1.5855110">
        <ele>1089.8</ele>
        <time>2022-06-26T09:29:04Z</time>
      </trkpt>
      <trkpt lat="42.9263350" lon="1.5854120">
        <ele>1090.4</ele>
        <time>2022-06-26T09:29:07Z</time>
      </trkpt>
      <trkpt lat="42.9262830" lon="1.5852910">
        <ele>1091.2</ele>
        <time>2022-06-26T09:29:11Z</time>
      </trkpt>
      <trkpt lat="42.9262720" lon="1.5852600">
        <ele>1091.4</ele>
        <time>2022-06-26T09:29:12Z</time>
      </trkpt>
      <trkpt lat="42.9262370" lon="1.5851680">
        <ele>1092.0</ele>
        <time>2022-06-26T09:29:15Z</time>
      </trkpt>
      <trkpt lat="42.9261990" lon="1.5850790">
        <ele>1092.6</ele>
        <time>2022-06-26T09:29:18Z</time>
      </trkpt>
      <trkpt lat="42.9261580" lon="1.5849900">
        <ele>1093.2</ele>
        <time>2022-06-26T09:29:21Z</time>
      </trkpt>
      <trkpt lat="42.9261440" lon="1.5849600">
        <ele>1093.4</ele>
        <time>2022-06-26T09:29:22Z</time>
      </trkpt>
      <trkpt lat="42.9261020" lon="1.5848720">
        <ele>1094.1</ele>
        <time>2022-06-26T09:29:25Z</time>
      </trkpt>
      <trkpt lat="42.9260280" lon="1.5847730">
        <ele>1095.0</ele>
        <time>2022-06-26T09:29:29Z</time>
      </trkpt>
      <trkpt lat="42.9260100" lon="1.5847450">
        <ele>1095.2</ele>
        <time>2022-06-26T09:29:30Z</time>
      </trkpt>
      <trkpt lat="42.9259600" lon="1.5846550">
        <ele>1095.9</ele>
        <time>2022-06-26T09:29:33Z</time>
      </trkpt>
      <trkpt lat="42.9259080" lon="1.5845690">
        <ele>1096.5</ele>
        <time>2022-06-26T09:29:36Z</time>
      </trkpt>
      <trkpt lat="42.9258560" lon="1.5844820">
        <ele>1097.2</ele>
        <time>2022-06-26T09:29:39Z</time>
      </trkpt>
      <trkpt lat="42.9258060" lon="1.5843970">
        <ele>1097.8</ele>
        <time>2022-06-26T09:29:42Z</time>
      </trkpt>
      <trkpt lat="42.9257900" lon="1.5843690">
        <ele>1098.0</ele>
        <time>2022-06-26T09:29:43Z</time>
      </trkpt>
      <trkpt lat="42.9257640" lon="1.5843120">
        <ele>1098.4</ele>
        <time>2022-06-26T09:29:45Z</time>
      </trkpt>
      <trkpt lat="42.9257340" lon="1.5842600">
        <ele>1098.8</ele>
        <time>2022-06-26T09:29:47Z</time>
      </trkpt>
      <trkpt lat="42.9257200" lon="1.5842330">
        <ele>1099.0</ele>
        <time>2022-06-26T09:29:48Z</time>
      </trkpt>
      <trkpt lat="42.9256800" lon="1.5841490">
        <ele>1099.7</ele>
        <time>2022-06-26T09:29:51Z</time>
      </trkpt>
      <trkpt lat="42.9256360" lon="1.5840280">
        <ele>1100.5</ele>
        <time>2022-06-26T09:29:55Z</time>
      </trkpt>
      <trkpt lat="42.9255800" lon="1.5838900">
        <ele>1101.6</ele>
        <time>2022-06-26T09:30:00Z</time>
      </trkpt>
      <trkpt lat="42.9255320" lon="1.5837490">
        <ele>1102.6</ele>
        <time>2022-06-26T09:30:05Z</time>
      </trkpt>
      <trkpt lat="42.9255240" lon="1.5837190">
        <ele>1102.9</ele>
        <time>2022-06-26T09:30:06Z</time>
      </trkpt>
      <trkpt lat="42.9254890" lon="1.5835400">
        <ele>1104.1</ele>
        <time>2022-06-26T09:30:12Z</time>
      </trkpt>
      <trkpt lat="42.9254700" lon="1.5834080">
        <ele>1104.9</ele>
        <time>2022-06-26T09:30:16Z</time>
      </trkpt>
      <trkpt lat="42.9254460" lon="1.5833020">
        <ele>1105.5</ele>
        <time>2022-06-26T09:30:19Z</time>
      </trkpt>
      <trkpt lat="42.9254370" lon="1.5832680">
        <ele>1105.8</ele>
        <time>2022-06-26T09:30:20Z</time>
      </trkpt>
      <trkpt lat="42.9253790" lon="1.5830940">
        <ele>1106.8</ele>
        <time>2022-06-26T09:30:25Z</time>
      </trkpt>
      <trkpt lat="42.9253420" lon="1.5829940">
        <ele>1107.4</ele>
        <time>2022-06-26T09:30:28Z</time>
      </trkpt>
      <trkpt lat="42.9253150" lon="1.5829300">
        <ele>1107.8</ele>
        <time>2022-06-26T09:30:30Z</time>
      </trkpt>
      <trkpt lat="42.9252310" lon="1.5827880">
        <ele>1108.8</ele>
        <time>2022-06-26T09:30:35Z</time>
      </trkpt>
      <trkpt lat="42.9252120" lon="1.5827610">
        <ele>1109.0</ele>
        <time>2022-06-26T09:30:36Z</time>
      </trkpt>
      <trkpt lat="42.9250940" lon="1.5826040">
        <ele>1110.2</ele>
        <time>2022-06-26T09:30:42Z</time>
      </trkpt>
      <trkpt lat="42.9250510" lon="1.5825630">
        <ele>1110.6</ele>
        <time>2022-06-26T09:30:44Z</time>
      </trkpt>
      <trkpt lat="42.9249850" lon="1.5824990">
        <ele>1111.2</ele>
        <time>2022-06-26T09:30:47Z</time>
      </trkpt>
      <trkpt lat="42.9249000" lon="1.5824060">
        <ele>1112.0</ele>
        <time>2022-06-26T09:30:51Z</time>
      </trkpt>
      <trkpt lat="42.9248520" lon="1.5823700">
        <ele>1112.5</ele>
        <time>2022-06-26T09:30:53Z</time>
      </trkpt>
      <trkpt lat="42.9247840" lon="1.5823040">
        <ele>1113.1</ele>
        <time>2022-06-26T09:30:56Z</time>
      </trkpt>
      <trkpt lat="42.9246910" lon="1.5822200">
        <ele>1114.0</ele>
        <time>2022-06-26T09:31:00Z</time>
      </trkpt>
      <trkpt lat="42.9246460" lon="1.5821760">
        <ele>1114.4</ele>
        <time>2022-06-26T09:31:02Z</time>
      </trkpt>
      <trkpt lat="42.9245810" lon="1.5821020">
        <ele>1115.0</ele>
        <time>2022-06-26T09:31:05Z</time>
      </trkpt>
      <trkpt lat="42.9244950" lon="1.5820120">
        <ele>1115.9</ele>
        <time>2022-06-26T09:31:09Z</time>
      </trkpt>
      <trkpt lat="42.9244540" lon="1.5819620">
        <ele>1116.3</ele>
        <time>2022-06-26T09:31:11Z</time>
      </trkpt>
      <trkpt lat="42.9243440" lon="1.5818150">
        <ele>1117.7</ele>
        <time>2022-06-26T09:31:17Z</time>
      </trkpt>
      <trkpt lat="42.9242750" lon="1.5817850">
        <ele>1118.4</ele>
        <time>2022-06-26T09:31:20Z</time>
      </trkpt>
      <trkpt lat="42.9242510" lon="1.5817950">
        <ele>1118.6</ele>
        <time>2022-06-26T09:31:21Z</time>
      </trkpt>
      <trkpt lat="42.9242310" lon="1.5818720">
        <ele>1119.1</ele>
        <time>2022-06-26T09:31:24Z</time>
      </trkpt>
      <trkpt lat="42.9242430" lon="1.5819040">
        <ele>1119.3</ele>
        <time>2022-06-26T09:31:25Z</time>
      </trkpt>
      <trkpt lat="42.9242590" lon="1.5819380">
        <ele>1119.5</ele>
        <time>2022-06-26T09:31:26Z</time>
      </trkpt>
      <trkpt lat="42.9243210" lon="1.5820330">
        <ele>1120.1</ele>
        <time>2022-06-26T09:31:29Z</time>
      </trkpt>
      <trkpt lat="42.9243680" lon="1.5820840">
        <ele>1120.5</ele>
        <time>2022-06-26T09:31:31Z</time>
      </trkpt>
      <trkpt lat="42.9244500" lon="1.5822120">
        <ele>1121.1</ele>
        <time>2022-06-26T09:31:35Z</time>
      </trkpt>
      <trkpt lat="42.9244700" lon="1.5822450">
        <ele>1121.3</ele>
        <time>2022-06-26T09:31:36Z</time>
      </trkpt>
      <trkpt lat="42.9245540" lon="1.5823810">
        <ele>1121.9</ele>
        <time>2022-06-26T09:31:40Z</time>
      </trkpt>
      <trkpt lat="42.9246340" lon="1.5825100">
        <ele>1122.4</ele>
        <time>2022-06-26T09:31:44Z</time>
      </trkpt>
      <trkpt lat="42.9247060" lon="1.5826420">
        <ele>1123.0</ele>
        <time>2022-06-26T09:31:48Z</time>
      </trkpt>
      <trkpt lat="42.9247170" lon="1.5826800">
        <ele>1123.2</ele>
        <time>2022-06-26T09:31:49Z</time>
      </trkpt>
      <trkpt lat="42.9247390" lon="1.5827540">
        <ele>1123.5</ele>
        <time>2022-06-26T09:31:51Z</time>
      </trkpt>
      <trkpt lat="42.9247870" lon="1.5828950">
        <ele>1124.1</ele>
        <time>2022-06-26T09:31:55Z</time>
      </trkpt>
      <trkpt lat="42.9248010" lon="1.5830080">
        <ele>1124.6</ele>
        <time>2022-06-26T09:31:58Z</time>
      </trkpt>
      <trkpt lat="42.9248030" lon="1.5830490">
        <ele>1124.7</ele>
        <time>2022-06-26T09:31:59Z</time>
      </trkpt>
      <trkpt lat="42.9248040" lon="1.5832510">
        <ele>1125.6</ele>
        <time>2022-06-26T09:32:04Z</time>
      </trkpt>
      <trkpt lat="42.9248020" lon="1.5833730">
        <ele>1126.1</ele>
        <time>2022-06-26T09:32:07Z</time>
      </trkpt>
      <trkpt lat="42.9247910" lon="1.5834530">
        <ele>1126.5</ele>
        <time>2022-06-26T09:32:09Z</time>
      </trkpt>
      <trkpt lat="42.9247800" lon="1.5836070">
        <ele>1127.2</ele>
        <time>2022-06-26T09:32:13Z</time>
      </trkpt>
      <trkpt lat="42.9247710" lon="1.5836850">
        <ele>1127.6</ele>
        <time>2022-06-26T09:32:15Z</time>
      </trkpt>
      <trkpt lat="42.9247630" lon="1.5837230">
        <ele>1127.7</ele>
        <time>2022-06-26T09:32:16Z</time>
      </trkpt>
      <trkpt lat="42.9247410" lon="1.5838360">
        <ele>1128.3</ele>
        <time>2022-06-26T09:32:19Z</time>
      </trkpt>
      <trkpt lat="42.9247240" lon="1.5839920">
        <ele>1129.1</ele>
        <time>2022-06-26T09:32:23Z</time>
      </trkpt>
      <trkpt lat="42.9247250" lon="1.5840290">
        <ele>1129.3</ele>
        <time>2022-06-26T09:32:24Z</time>
      </trkpt>
      <trkpt lat="42.9246980" lon="1.5841640">
        <ele>1130.1</ele>
        <time>2022-06-26T09:32:28Z</time>
      </trkpt>
      <trkpt lat="42.9246890" lon="1.5841950">
        <ele>1130.3</ele>
        <time>2022-06-26T09:32:29Z</time>
      </trkpt>
      <trkpt lat="42.9246550" lon="1.5842860">
        <ele>1130.9</ele>
        <time>2022-06-26T09:32:32Z</time>
      </trkpt>
      <trkpt lat="42.9246380" lon="1.5844170">
        <ele>1131.6</ele>
        <time>2022-06-26T09:32:36Z</time>
      </trkpt>
      <trkpt lat="42.9246340" lon="1.5844520">
        <ele>1131.9</ele>
        <time>2022-06-26T09:32:37Z</time>
      </trkpt>
      <trkpt lat="42.9245990" lon="1.5845780">
        <ele>1132.6</ele>
        <time>2022-06-26T09:32:41Z</time>
      </trkpt>
      <trkpt lat="42.9245910" lon="1.5846070">
        <ele>1132.8</ele>
        <time>2022-06-26T09:32:42Z</time>
      </trkpt>
      <trkpt lat="42.9245740" lon="1.5846670">
        <ele>1133.2</ele>
        <time>2022-06-26T09:32:44Z</time>
      </trkpt>
      <trkpt lat="42.9245190" lon="1.5848070">
        <ele>1134.2</ele>
        <time>2022-06-26T09:32:49Z</time>
      </trkpt>
      <trkpt lat="42.9245060" lon="1.5848330">
        <ele>1134.4</ele>
        <time>2022-06-26T09:32:50Z</time>
      </trkpt>
      <trkpt lat="42.9244720" lon="1.5849620">
        <ele>1135.2</ele>
        <time>2022-06-26T09:32:54Z</time>
      </trkpt>
      <trkpt lat="42.9244470" lon="1.5850260">
        <ele>1135.6</ele>
        <time>2022-06-26T09:32:56Z</time>
      </trkpt>
      <trkpt lat="42.9243590" lon="1.5851970">
        <ele>1136.8</ele>
        <time>2022-06-26T09:33:02Z</time>
      </trkpt>
      <trkpt lat="42.9243330" lon="1.5852560">
        <ele>1137.2</ele>
        <time>2022-06-26T09:33:04Z</time>
      </trkpt>
      <trkpt lat="42.9242950" lon="1.5853490">
        <ele>1137.8</ele>
        <time>2022-06-26T09:33:07Z</time>
      </trkpt>
      <trkpt lat="42.9242070" lon="1.5855210">
        <ele>1138.9</ele>
        <time>2022-06-26T09:33:13Z</time>
      </trkpt>
      <trkpt lat="42.9241940" lon="1.5855530">
        <ele>1139.1</ele>
        <time>2022-06-26T09:33:14Z</time>
      </trkpt>
      <trkpt lat="42.9241400" lon="1.5856890">
        <ele>1139.9</ele>
        <time>2022-06-26T09:33:18Z</time>
      </trkpt>
      <trkpt lat="42.9240520" lon="1.5858430">
        <ele>1140.9</ele>
        <time>2022-06-26T09:33:23Z</time>
      </trkpt>
      <trkpt lat="42.9240330" lon="1.5858720">
        <ele>1141.0</ele>
        <time>2022-06-26T09:33:24Z</time>
      </trkpt>
      <trkpt lat="42.9239210" lon="1.5860540">
        <ele>1142.2</ele>
        <time>2022-06-26T09:33:30Z</time>
      </trkpt>
      <trkpt lat="42.9238630" lon="1.5861450">
        <ele>1142.7</ele>
        <time>2022-06-26T09:33:33Z</time>
      </trkpt>
      <trkpt lat="42.9237980" lon="1.5862750">
        <ele>1143.5</ele>
        <time>2022-06-26T09:33:37Z</time>
      </trkpt>
      <trkpt lat="42.9237420" lon="1.5863710">
        <ele>1144.1</ele>
        <time>2022-06-26T09:33:40Z</time>
      </trkpt>
      <trkpt lat="42.9236800" lon="1.5864550">
        <ele>1144.6</ele>
        <time>2022-06-26T09:33:43Z</time>
      </trkpt>
      <trkpt lat="42.9235540" lon="1.5866120">
        <ele>1145.7</ele>
        <time>2022-06-26T09:33:49Z</time>
      </trkpt>
      <trkpt lat="42.9234330" lon="1.5867710">
        <ele>1146.9</ele>
        <time>2022-06-26T09:33:55Z</time>
      </trkpt>
      <trkpt lat="42.9233290" lon="1.5868940">
        <ele>1147.9</ele>
        <time>2022-06-26T09:34:00Z</time>
      </trkpt>
      <trkpt lat="42.9232920" lon="1.5869500">
        <ele>1148.3</ele>
        <time>2022-06-26T09:34:02Z</time>
      </trkpt>
      <trkpt lat="42.9231510" lon="1.5871420">
        <ele>1149.8</ele>
        <time>2022-06-26T09:34:09Z</time>
      </trkpt>
      <trkpt lat="42.9231330" lon="1.5871730">
        <ele>1150.1</ele>
        <time>2022-06-26T09:34:10Z</time>
      </trkpt>
      <trkpt lat="42.9229860" lon="1.5873500">
        <ele>1151.7</ele>
        <time>2022-06-26T09:34:17Z</time>
      </trkpt>
      <trkpt lat="42.9228120" lon="1.5875760">
        <ele>1153.4</ele>
        <time>2022-06-26T09:34:26Z</time>
      </trkpt>
      <trkpt lat="42.9226110" lon="1.5878330">
        <ele>1155.5</ele>
        <time>2022-06-26T09:34:36Z</time>
      </trkpt>
      <trkpt lat="42.9223820" lon="1.5881260">
        <ele>1157.7</ele>
        <time>2022-06-26T09:34:47Z</time>
      </trkpt>
      <trkpt lat="42.9222030" lon="1.5883840">
        <ele>1159.3</ele>
        <time>2022-06-26T09:34:56Z</time>
      </trkpt>
      <trkpt lat="42.9219860" lon="1.5886510">
        <ele>1161.0</ele>
        <time>2022-06-26T09:35:06Z</time>
      </trkpt>
      <trkpt lat="42.9219150" lon="1.5887300">
        <ele>1161.5</ele>
        <time>2022-06-26T09:35:09Z</time>
      </trkpt>
      <trkpt lat="42.9217790" lon="1.5888860">
        <ele>1162.7</ele>
        <time>2022-06-26T09:35:15Z</time>
      </trkpt>
      <trkpt lat="42.9217300" lon="1.5889330">
        <ele>1163.1</ele>
        <time>2022-06-26T09:35:17Z</time>
      </trkpt>
      <trkpt lat="42.9215700" lon="1.5891350">
        <ele>1164.5</ele>
        <time>2022-06-26T09:35:24Z</time>
      </trkpt>
      <trkpt lat="42.9215480" lon="1.5891650">
        <ele>1164.7</ele>
        <time>2022-06-26T09:35:25Z</time>
      </trkpt>
      <trkpt lat="42.9213450" lon="1.5893710">
        <ele>1166.3</ele>
        <time>2022-06-26T09:35:33Z</time>
      </trkpt>
      <trkpt lat="42.9213210" lon="1.5893980">
        <ele>1166.5</ele>
        <time>2022-06-26T09:35:34Z</time>
      </trkpt>
      <trkpt lat="42.9211260" lon="1.5896210">
        <ele>1168.0</ele>
        <time>2022-06-26T09:35:42Z</time>
      </trkpt>
      <trkpt lat="42.9209320" lon="1.5898420">
        <ele>1169.5</ele>
        <time>2022-06-26T09:35:50Z</time>
      </trkpt>
      <trkpt lat="42.9207130" lon="1.5900040">
        <ele>1171.0</ele>
        <time>2022-06-26T09:35:58Z</time>
      </trkpt>
      <trkpt lat="42.9204100" lon="1.5901270">
        <ele>1172.9</ele>
        <time>2022-06-26T09:36:08Z</time>
      </trkpt>
      <trkpt lat="42.9201360" lon="1.5900520">
        <ele>1174.3</ele>
        <time>2022-06-26T09:36:16Z</time>
      </trkpt>
      <trkpt lat="42.9199390" lon="1.5899020">
        <ele>1175.6</ele>
        <time>2022-06-26T09:36:22Z</time>
      </trkpt>
      <trkpt lat="42.9198870" lon="1.5898200">
        <ele>1176.0</ele>
        <time>2022-06-26T09:36:24Z</time>
      </trkpt>
      <trkpt lat="42.9198120" lon="1.5896950">
        <ele>1176.6</ele>
        <time>2022-06-26T09:36:27Z</time>
      </trkpt>
      <trkpt lat="42.9197490" lon="1.5895610">
        <ele>1177.3</ele>
        <time>2022-06-26T09:36:30Z</time>
      </trkpt>
      <trkpt lat="42.9197300" lon="1.5895160">
        <ele>1177.5</ele>
        <time>2022-06-26T09:36:31Z</time>
      </trkpt>
      <trkpt lat="42.9196770" lon="1.5893760">
        <ele>1178.1</ele>
        <time>2022-06-26T09:36:34Z</time>
      </trkpt>
      <trkpt lat="42.9196350" lon="1.5892250">
        <ele>1178.6</ele>
        <time>2022-06-26T09:36:37Z</time>
      </trkpt>
      <trkpt lat="42.9196240" lon="1.5891780">
        <ele>1178.8</ele>
        <time>2022-06-26T09:36:38Z</time>
      </trkpt>
      <trkpt lat="42.9196130" lon="1.5891330">
        <ele>1179.0</ele>
        <time>2022-06-26T09:36:39Z</time>
      </trkpt>
      <trkpt lat="42.9195820" lon="1.5890020">
        <ele>1179.5</ele>
        <time>2022-06-26T09:36:42Z</time>
      </trkpt>
      <trkpt lat="42.9195680" lon="1.5889140">
        <ele>1179.9</ele>
        <time>2022-06-26T09:36:44Z</time>
      </trkpt>
      <trkpt lat="42.9195470" lon="1.5887840">
        <ele>1180.4</ele>
        <time>2022-06-26T09:36:47Z</time>
      </trkpt>
      <trkpt lat="42.9195320" lon="1.5886480">
        <ele>1180.9</ele>
        <time>2022-06-26T09:36:50Z</time>
      </trkpt>
      <trkpt lat="42.9195330" lon="1.5885100">
        <ele>1181.5</ele>
        <time>2022-06-26T09:36:53Z</time>
      </trkpt>
      <trkpt lat="42.9195370" lon="1.5884190">
        <ele>1181.8</ele>
        <time>2022-06-26T09:36:55Z</time>
      </trkpt>
      <trkpt lat="42.9195440" lon="1.5883260">
        <ele>1182.2</ele>
        <time>2022-06-26T09:36:57Z</time>
      </trkpt>
      <trkpt lat="42.9195580" lon="1.5881810">
        <ele>1182.7</ele>
        <time>2022-06-26T09:37:00Z</time>
      </trkpt>
      <trkpt lat="42.9195870" lon="1.5879900">
        <ele>1183.5</ele>
        <time>2022-06-26T09:37:04Z</time>
      </trkpt>
      <trkpt lat="42.9195940" lon="1.5879440">
        <ele>1183.6</ele>
        <time>2022-06-26T09:37:05Z</time>
      </trkpt>
      <trkpt lat="42.9196620" lon="1.5875690">
        <ele>1184.9</ele>
        <time>2022-06-26T09:37:13Z</time>
      </trkpt>
      <trkpt lat="42.9198130" lon="1.5871880">
        <ele>1185.9</ele>
        <time>2022-06-26T09:37:21Z</time>
      </trkpt>
      <trkpt lat="42.9199170" lon="1.5869510">
        <ele>1186.6</ele>
        <time>2022-06-26T09:37:26Z</time>
      </trkpt>
      <trkpt lat="42.9199760" lon="1.5868020">
        <ele>1187.0</ele>
        <time>2022-06-26T09:37:29Z</time>
      </trkpt>
      <trkpt lat="42.9199950" lon="1.5867460">
        <ele>1187.1</ele>
        <time>2022-06-26T09:37:30Z</time>
      </trkpt>
      <trkpt lat="42.9200530" lon="1.5865850">
        <ele>1187.5</ele>
        <time>2022-06-26T09:37:33Z</time>
      </trkpt>
      <trkpt lat="42.9201120" lon="1.5864300">
        <ele>1187.8</ele>
        <time>2022-06-26T09:37:36Z</time>
      </trkpt>
      <trkpt lat="42.9201490" lon="1.5863280">
        <ele>1188.0</ele>
        <time>2022-06-26T09:37:38Z</time>
      </trkpt>
      <trkpt lat="42.9201670" lon="1.5862780">
        <ele>1188.1</ele>
        <time>2022-06-26T09:37:39Z</time>
      </trkpt>
      <trkpt lat="42.9202250" lon="1.5861240">
        <ele>1188.4</ele>
        <time>2022-06-26T09:37:42Z</time>
      </trkpt>
      <trkpt lat="42.9202450" lon="1.5860740">
        <ele>1188.5</ele>
        <time>2022-06-26T09:37:43Z</time>
      </trkpt>
      <trkpt lat="42.9202850" lon="1.5859710">
        <ele>1188.7</ele>
        <time>2022-06-26T09:37:45Z</time>
      </trkpt>
      <trkpt lat="42.9203200" lon="1.5858660">
        <ele>1188.9</ele>
        <time>2022-06-26T09:37:47Z</time>
      </trkpt>
      <trkpt lat="42.9203550" lon="1.5857610">
        <ele>1189.1</ele>
        <time>2022-06-26T09:37:49Z</time>
      </trkpt>
      <trkpt lat="42.9204070" lon="1.5856000">
        <ele>1189.4</ele>
        <time>2022-06-26T09:37:52Z</time>
      </trkpt>
      <trkpt lat="42.9204570" lon="1.5854380">
        <ele>1189.7</ele>
        <time>2022-06-26T09:37:55Z</time>
      </trkpt>
      <trkpt lat="42.9205100" lon="1.5852720">
        <ele>1190.0</ele>
        <time>2022-06-26T09:37:58Z</time>
      </trkpt>
      <trkpt lat="42.9205620" lon="1.5851090">
        <ele>1190.3</ele>
        <time>2022-06-26T09:38:01Z</time>
      </trkpt>
      <trkpt lat="42.9206200" lon="1.5849520">
        <ele>1190.7</ele>
        <time>2022-06-26T09:38:04Z</time>
      </trkpt>
      <trkpt lat="42.9206900" lon="1.5848000">
        <ele>1191.0</ele>
        <time>2022-06-26T09:38:07Z</time>
      </trkpt>
      <trkpt lat="42.9207450" lon="1.5847060">
        <ele>1191.2</ele>
        <time>2022-06-26T09:38:09Z</time>
      </trkpt>
      <trkpt lat="42.9207740" lon="1.5846590">
        <ele>1191.3</ele>
        <time>2022-06-26T09:38:10Z</time>
      </trkpt>
      <trkpt lat="42.9208340" lon="1.5845660">
        <ele>1191.5</ele>
        <time>2022-06-26T09:38:12Z</time>
      </trkpt>
      <trkpt lat="42.9209250" lon="1.5844300">
        <ele>1191.9</ele>
        <time>2022-06-26T09:38:15Z</time>
      </trkpt>
      <trkpt lat="42.9210090" lon="1.5842840">
        <ele>1192.1</ele>
        <time>2022-06-26T09:38:18Z</time>
      </trkpt>
      <trkpt lat="42.9210910" lon="1.5841380">
        <ele>1192.4</ele>
        <time>2022-06-26T09:38:21Z</time>
      </trkpt>
      <trkpt lat="42.9211410" lon="1.5840360">
        <ele>1192.6</ele>
        <time>2022-06-26T09:38:23Z</time>
      </trkpt>
      <trkpt lat="42.9212100" lon="1.5838790">
        <ele>1192.9</ele>
        <time>2022-06-26T09:38:26Z</time>
      </trkpt>
      <trkpt lat="42.9212320" lon="1.5838250">
        <ele>1192.9</ele>
        <time>2022-06-26T09:38:27Z</time>
      </trkpt>
      <trkpt lat="42.9212740" lon="1.5837110">
        <ele>1193.1</ele>
        <time>2022-06-26T09:38:29Z</time>
      </trkpt>
      <trkpt lat="42.9213300" lon="1.5835370">
        <ele>1193.4</ele>
        <time>2022-06-26T09:38:32Z</time>
      </trkpt>
      <trkpt lat="42.9213890" lon="1.5833620">
        <ele>1193.6</ele>
        <time>2022-06-26T09:38:35Z</time>
      </trkpt>
      <trkpt lat="42.9214310" lon="1.5832420">
        <ele>1193.8</ele>
        <time>2022-06-26T09:38:37Z</time>
      </trkpt>
      <trkpt lat="42.9214540" lon="1.5831830">
        <ele>1193.9</ele>
        <time>2022-06-26T09:38:38Z</time>
      </trkpt>
      <trkpt lat="42.9215260" lon="1.5830120">
        <ele>1194.1</ele>
        <time>2022-06-26T09:38:41Z</time>
      </trkpt>
      <trkpt lat="42.9215670" lon="1.5829000">
        <ele>1194.3</ele>
        <time>2022-06-26T09:38:43Z</time>
      </trkpt>
      <trkpt lat="42.9215850" lon="1.5828430">
        <ele>1194.3</ele>
        <time>2022-06-26T09:38:44Z</time>
      </trkpt>
      <trkpt lat="42.9215990" lon="1.5827840">
        <ele>1194.4</ele>
        <time>2022-06-26T09:38:45Z</time>
      </trkpt>
      <trkpt lat="42.9216090" lon="1.5827230">
        <ele>1194.5</ele>
        <time>2022-06-26T09:38:46Z</time>
      </trkpt>
      <trkpt lat="42.9216140" lon="1.5825990">
        <ele>1194.7</ele>
        <time>2022-06-26T09:38:48Z</time>
      </trkpt>
      <trkpt lat="42.9216130" lon="1.5825370">
        <ele>1194.8</ele>
        <time>2022-06-26T09:38:49Z</time>
      </trkpt>
      <trkpt lat="42.9216070" lon="1.5824120">
        <ele>1194.9</ele>
        <time>2022-06-26T09:38:51Z</time>
      </trkpt>
      <trkpt lat="42.9215790" lon="1.5821560">
        <ele>1195.0</ele>
        <time>2022-06-26T09:38:55Z</time>
      </trkpt>
      <trkpt lat="42.9215770" lon="1.5820930">
        <ele>1195.0</ele>
        <time>2022-06-26T09:38:56Z</time>
      </trkpt>
      <trkpt lat="42.9215710" lon="1.5819060">
        <ele>1195.0</ele>
        <time>2022-06-26T09:39:00Z</time>
      </trkpt>
      <trkpt lat="42.9215720" lon="1.5818910">
        <ele>1195.0</ele>
        <time>2022-06-26T09:39:02Z</time>
      </trkpt>
      <trkpt lat="42.9215720" lon="1.5819650">
        <ele>1195.0</ele>
        <time>2022-06-26T09:40:57Z</time>
      </trkpt>
      <trkpt lat="42.9215730" lon="1.5819840">
        <ele>1195.0</ele>
        <time>2022-06-26T09:40:58Z</time>
      </trkpt>
      <trkpt lat="42.9215790" lon="1.5820720">
        <ele>1194.9</ele>
        <time>2022-06-26T09:41:01Z</time>
      </trkpt>
      <trkpt lat="42.9215820" lon="1.5821510">
        <ele>1194.8</ele>
        <time>2022-06-26T09:41:03Z</time>
      </trkpt>
      <trkpt lat="42.9215830" lon="1.5821920">
        <ele>1194.8</ele>
        <time>2022-06-26T09:41:04Z</time>
      </trkpt>
      <trkpt lat="42.9216080" lon="1.5824100">
        <ele>1194.6</ele>
        <time>2022-06-26T09:41:09Z</time>
      </trkpt>
      <trkpt lat="42.9216100" lon="1.5824500">
        <ele>1194.5</ele>
        <time>2022-06-26T09:41:10Z</time>
      </trkpt>
      <trkpt lat="42.9216170" lon="1.5826640">
        <ele>1194.3</ele>
        <time>2022-06-26T09:41:15Z</time>
      </trkpt>
      <trkpt lat="42.9216180" lon="1.5827280">
        <ele>1194.2</ele>
        <time>2022-06-26T09:41:17Z</time>
      </trkpt>
      <trkpt lat="42.9216050" lon="1.5827510">
        <ele>1194.2</ele>
        <time>2022-06-26T09:41:19Z</time>
      </trkpt>
      <trkpt lat="42.9216050" lon="1.5827520">
        <ele>1194.2</ele>
        <time>2022-06-26T09:41:20Z</time>
      </trkpt>
      <trkpt lat="42.9216030" lon="1.5827920">
        <ele>1194.1</ele>
        <time>2022-06-26T09:41:26Z</time>
      </trkpt>
      <trkpt lat="42.9215910" lon="1.5828570">
        <ele>1194.1</ele>
        <time>2022-06-26T09:41:29Z</time>
      </trkpt>
      <trkpt lat="42.9215770" lon="1.5829360">
        <ele>1194.0</ele>
        <time>2022-06-26T09:41:32Z</time>
      </trkpt>
      <trkpt lat="42.9215660" lon="1.5829650">
        <ele>1194.0</ele>
        <time>2022-06-26T09:41:33Z</time>
      </trkpt>
      <trkpt lat="42.9215390" lon="1.5830180">
        <ele>1193.9</ele>
        <time>2022-06-26T09:41:35Z</time>
      </trkpt>
      <trkpt lat="42.9215230" lon="1.5830320">
        <ele>1193.9</ele>
        <time>2022-06-26T09:41:36Z</time>
      </trkpt>
      <trkpt lat="42.9215120" lon="1.5830320">
        <ele>1193.9</ele>
        <time>2022-06-26T09:41:37Z</time>
      </trkpt>
      <trkpt lat="42.9215100" lon="1.5830350">
        <ele>1193.9</ele>
        <time>2022-06-26T09:41:38Z</time>
      </trkpt>
      <trkpt lat="42.9214990" lon="1.5830620">
        <ele>1193.8</ele>
        <time>2022-06-26T09:41:40Z</time>
      </trkpt>
      <trkpt lat="42.9214830" lon="1.5831140">
        <ele>1193.8</ele>
        <time>2022-06-26T09:41:42Z</time>
      </trkpt>
      <trkpt lat="42.9214110" lon="1.5832630">
        <ele>1193.6</ele>
        <time>2022-06-26T09:41:46Z</time>
      </trkpt>
      <trkpt lat="42.9213910" lon="1.5833100">
        <ele>1193.5</ele>
        <time>2022-06-26T09:41:47Z</time>
      </trkpt>
      <trkpt lat="42.9213330" lon="1.5834680">
        <ele>1193.3</ele>
        <time>2022-06-26T09:41:50Z</time>
      </trkpt>
      <trkpt lat="42.9212400" lon="1.5837700">
        <ele>1193.0</ele>
        <time>2022-06-26T09:41:55Z</time>
      </trkpt>
      <trkpt lat="42.9211690" lon="1.5839650">
        <ele>1192.7</ele>
        <time>2022-06-26T09:41:58Z</time>
      </trkpt>
      <trkpt lat="42.9210470" lon="1.5842220">
        <ele>1192.3</ele>
        <time>2022-06-26T09:42:02Z</time>
      </trkpt>
      <trkpt lat="42.9210110" lon="1.5842840">
        <ele>1192.1</ele>
        <time>2022-06-26T09:42:03Z</time>
      </trkpt>
      <trkpt lat="42.9209740" lon="1.5843450">
        <ele>1192.0</ele>
        <time>2022-06-26T09:42:04Z</time>
      </trkpt>
      <trkpt lat="42.9208560" lon="1.5845280">
        <ele>1191.6</ele>
        <time>2022-06-26T09:42:07Z</time>
      </trkpt>
      <trkpt lat="42.9207340" lon="1.5847070">
        <ele>1191.2</ele>
        <time>2022-06-26T09:42:10Z</time>
      </trkpt>
      <trkpt lat="42.9206590" lon="1.5848370">
        <ele>1190.9</ele>
        <time>2022-06-26T09:42:12Z</time>
      </trkpt>
      <trkpt lat="42.9206260" lon="1.5849100">
        <ele>1190.7</ele>
        <time>2022-06-26T09:42:13Z</time>
      </trkpt>
      <trkpt lat="42.9205420" lon="1.5851400">
        <ele>1190.3</ele>
        <time>2022-06-26T09:42:16Z</time>
      </trkpt>
      <trkpt lat="42.9204920" lon="1.5853040">
        <ele>1189.9</ele>
        <time>2022-06-26T09:42:18Z</time>
      </trkpt>
      <trkpt lat="42.9204660" lon="1.5853860">
        <ele>1189.8</ele>
        <time>2022-06-26T09:42:19Z</time>
      </trkpt>
      <trkpt lat="42.9203970" lon="1.5856400">
        <ele>1189.3</ele>
        <time>2022-06-26T09:42:22Z</time>
      </trkpt>
      <trkpt lat="42.9203180" lon="1.5858910">
        <ele>1188.8</ele>
        <time>2022-06-26T09:42:25Z</time>
      </trkpt>
      <trkpt lat="42.9202330" lon="1.5861380">
        <ele>1188.4</ele>
        <time>2022-06-26T09:42:28Z</time>
      </trkpt>
      <trkpt lat="42.9201370" lon="1.5863810">
        <ele>1187.9</ele>
        <time>2022-06-26T09:42:31Z</time>
      </trkpt>
      <trkpt lat="42.9200700" lon="1.5865440">
        <ele>1187.6</ele>
        <time>2022-06-26T09:42:33Z</time>
      </trkpt>
      <trkpt lat="42.9199740" lon="1.5867920">
        <ele>1187.0</ele>
        <time>2022-06-26T09:42:36Z</time>
      </trkpt>
      <trkpt lat="42.9198810" lon="1.5870440">
        <ele>1186.3</ele>
        <time>2022-06-26T09:42:39Z</time>
      </trkpt>
      <trkpt lat="42.9198500" lon="1.5871300">
        <ele>1186.1</ele>
        <time>2022-06-26T09:42:40Z</time>
      </trkpt>
      <trkpt lat="42.9197770" lon="1.5873010">
        <ele>1185.6</ele>
        <time>2022-06-26T09:42:42Z</time>
      </trkpt>
      <trkpt lat="42.9196700" lon="1.5875600">
        <ele>1184.9</ele>
        <time>2022-06-26T09:42:45Z</time>
      </trkpt>
      <trkpt lat="42.9196190" lon="1.5877480">
        <ele>1184.3</ele>
        <time>2022-06-26T09:42:47Z</time>
      </trkpt>
      <trkpt lat="42.9195990" lon="1.5878470">
        <ele>1184.0</ele>
        <time>2022-06-26T09:42:48Z</time>
      </trkpt>
      <trkpt lat="42.9195810" lon="1.5879500">
        <ele>1183.6</ele>
        <time>2022-06-26T09:42:49Z</time>
      </trkpt>
      <trkpt lat="42.9195510" lon="1.5881660">
        <ele>1182.8</ele>
        <time>2022-06-26T09:42:51Z</time>
      </trkpt>
      <trkpt lat="42.9195270" lon="1.5883900">
        <ele>1181.9</ele>
        <time>2022-06-26T09:42:53Z</time>
      </trkpt>
      <trkpt lat="42.9195190" lon="1.5885040">
        <ele>1181.5</ele>
        <time>2022-06-26T09:42:54Z</time>
      </trkpt>
      <trkpt lat="42.9195180" lon="1.5887410">
        <ele>1180.6</ele>
        <time>2022-06-26T09:42:56Z</time>
      </trkpt>
      <trkpt lat="42.9195300" lon="1.5888620">
        <ele>1180.1</ele>
        <time>2022-06-26T09:42:57Z</time>
      </trkpt>
      <trkpt lat="42.9195940" lon="1.5891760">
        <ele>1178.8</ele>
        <time>2022-06-26T09:43:00Z</time>
      </trkpt>
      <trkpt lat="42.9196140" lon="1.5892490">
        <ele>1178.6</ele>
        <time>2022-06-26T09:43:01Z</time>
      </trkpt>
      <trkpt lat="42.9196340" lon="1.5893170">
        <ele>1178.3</ele>
        <time>2022-06-26T09:43:02Z</time>
      </trkpt>
      <trkpt lat="42.9196970" lon="1.5895400">
        <ele>1177.5</ele>
        <time>2022-06-26T09:43:05Z</time>
      </trkpt>
      <trkpt lat="42.9197630" lon="1.5896940">
        <ele>1176.8</ele>
        <time>2022-06-26T09:43:07Z</time>
      </trkpt>
      <trkpt lat="42.9198020" lon="1.5897700">
        <ele>1176.4</ele>
        <time>2022-06-26T09:43:08Z</time>
      </trkpt>
      <trkpt lat="42.9198950" lon="1.5899100">
        <ele>1175.7</ele>
        <time>2022-06-26T09:43:10Z</time>
      </trkpt>
      <trkpt lat="42.9199510" lon="1.5899720">
        <ele>1175.3</ele>
        <time>2022-06-26T09:43:11Z</time>
      </trkpt>
      <trkpt lat="42.9201500" lon="1.5901130">
        <ele>1174.2</ele>
        <time>2022-06-26T09:43:14Z</time>
      </trkpt>
      <trkpt lat="42.9202210" lon="1.5901470">
        <ele>1173.8</ele>
        <time>2022-06-26T09:43:15Z</time>
      </trkpt>
      <trkpt lat="42.9202910" lon="1.5901730">
        <ele>1173.4</ele>
        <time>2022-06-26T09:43:16Z</time>
      </trkpt>
      <trkpt lat="42.9204350" lon="1.5901780">
        <ele>1172.7</ele>
        <time>2022-06-26T09:43:18Z</time>
      </trkpt>
      <trkpt lat="42.9205840" lon="1.5901210">
        <ele>1171.8</ele>
        <time>2022-06-26T09:43:20Z</time>
      </trkpt>
      <trkpt lat="42.9206590" lon="1.5900840">
        <ele>1171.4</ele>
        <time>2022-06-26T09:43:21Z</time>
      </trkpt>
      <trkpt lat="42.9207320" lon="1.5900410">
        <ele>1170.9</ele>
        <time>2022-06-26T09:43:22Z</time>
      </trkpt>
      <trkpt lat="42.9208740" lon="1.5899300">
        <ele>1169.9</ele>
        <time>2022-06-26T09:43:24Z</time>
      </trkpt>
      <trkpt lat="42.9210090" lon="1.5897930">
        <ele>1168.9</ele>
        <time>2022-06-26T09:43:26Z</time>
      </trkpt>
      <trkpt lat="42.9211400" lon="1.5896420">
        <ele>1167.9</ele>
        <time>2022-06-26T09:43:28Z</time>
      </trkpt>
      <trkpt lat="42.9214220" lon="1.5893210">
        <ele>1165.8</ele>
        <time>2022-06-26T09:43:32Z</time>
      </trkpt>
      <trkpt lat="42.9214930" lon="1.5892340">
        <ele>1165.2</ele>
        <time>2022-06-26T09:43:33Z</time>
      </trkpt>
      <trkpt lat="42.9217720" lon="1.5888940">
        <ele>1162.7</ele>
        <time>2022-06-26T09:43:37Z</time>
      </trkpt>
      <trkpt lat="42.9219840" lon="1.5886460">
        <ele>1161.0</ele>
        <time>2022-06-26T09:43:40Z</time>
      </trkpt>
      <trkpt lat="42.9221900" lon="1.5883780">
        <ele>1159.4</ele>
        <time>2022-06-26T09:43:43Z</time>
      </trkpt>
      <trkpt lat="42.9224580" lon="1.5880140">
        <ele>1157.1</ele>
        <time>2022-06-26T09:43:47Z</time>
      </trkpt>
      <trkpt lat="42.9228050" lon="1.5875730">
        <ele>1153.7</ele>
        <time>2022-06-26T09:43:52Z</time>
      </trkpt>
      <trkpt lat="42.9231500" lon="1.5871100">
        <ele>1150.1</ele>
        <time>2022-06-26T09:43:57Z</time>
      </trkpt>
      <trkpt lat="42.9233610" lon="1.5868280">
        <ele>1147.8</ele>
        <time>2022-06-26T09:44:00Z</time>
      </trkpt>
      <trkpt lat="42.9235750" lon="1.5865520">
        <ele>1145.8</ele>
        <time>2022-06-26T09:44:03Z</time>
      </trkpt>
      <trkpt lat="42.9237680" lon="1.5862890">
        <ele>1144.1</ele>
        <time>2022-06-26T09:44:06Z</time>
      </trkpt>
      <trkpt lat="42.9238830" lon="1.5860960">
        <ele>1142.9</ele>
        <time>2022-06-26T09:44:08Z</time>
      </trkpt>
      <trkpt lat="42.9241470" lon="1.5856480">
        <ele>1140.2</ele>
        <time>2022-06-26T09:44:13Z</time>
      </trkpt>
      <trkpt lat="42.9241890" lon="1.5855680">
        <ele>1139.7</ele>
        <time>2022-06-26T09:44:14Z</time>
      </trkpt>
      <trkpt lat="42.9243480" lon="1.5852110">
        <ele>1137.6</ele>
        <time>2022-06-26T09:44:18Z</time>
      </trkpt>
      <trkpt lat="42.9244810" lon="1.5849080">
        <ele>1135.7</ele>
        <time>2022-06-26T09:44:21Z</time>
      </trkpt>
      <trkpt lat="42.9245590" lon="1.5846880">
        <ele>1134.2</ele>
        <time>2022-06-26T09:44:23Z</time>
      </trkpt>
      <trkpt lat="42.9246870" lon="1.5842240">
        <ele>1131.3</ele>
        <time>2022-06-26T09:44:27Z</time>
      </trkpt>
      <trkpt lat="42.9247410" lon="1.5839980">
        <ele>1130.0</ele>
        <time>2022-06-26T09:44:29Z</time>
      </trkpt>
      <trkpt lat="42.9248090" lon="1.5835190">
        <ele>1127.5</ele>
        <time>2022-06-26T09:44:33Z</time>
      </trkpt>
      <trkpt lat="42.9248310" lon="1.5832880">
        <ele>1126.5</ele>
        <time>2022-06-26T09:44:35Z</time>
      </trkpt>
      <trkpt lat="42.9248370" lon="1.5830670">
        <ele>1125.6</ele>
        <time>2022-06-26T09:44:37Z</time>
      </trkpt>
      <trkpt lat="42.9248080" lon="1.5828460">
        <ele>1124.6</ele>
        <time>2022-06-26T09:44:39Z</time>
      </trkpt>
      <trkpt lat="42.9246440" lon="1.5824400">
        <ele>1122.8</ele>
        <time>2022-06-26T09:44:43Z</time>
      </trkpt>
      <trkpt lat="42.9245880" lon="1.5823510">
        <ele>1122.4</ele>
        <time>2022-06-26T09:44:44Z</time>
      </trkpt>
      <trkpt lat="42.9243960" lon="1.5820550">
        <ele>1121.1</ele>
        <time>2022-06-26T09:44:48Z</time>
      </trkpt>
      <trkpt lat="42.9242210" lon="1.5818400">
        <ele>1119.9</ele>
        <time>2022-06-26T09:44:53Z</time>
      </trkpt>
      <trkpt lat="42.9242130" lon="1.5817070">
        <ele>1119.2</ele>
        <time>2022-06-26T09:44:56Z</time>
      </trkpt>
      <trkpt lat="42.9242500" lon="1.5816880">
        <ele>1118.9</ele>
        <time>2022-06-26T09:44:59Z</time>
      </trkpt>
      <trkpt lat="42.9242890" lon="1.5817400">
        <ele>1118.4</ele>
        <time>2022-06-26T09:46:40Z</time>
      </trkpt>
      <trkpt lat="42.9243190" lon="1.5817650">
        <ele>1118.1</ele>
        <time>2022-06-26T09:46:41Z</time>
      </trkpt>
      <trkpt lat="42.9243530" lon="1.5817970">
        <ele>1117.7</ele>
        <time>2022-06-26T09:46:42Z</time>
      </trkpt>
      <trkpt lat="42.9244550" lon="1.5819490">
        <ele>1116.4</ele>
        <time>2022-06-26T09:46:45Z</time>
      </trkpt>
      <trkpt lat="42.9246590" lon="1.5821780">
        <ele>1114.3</ele>
        <time>2022-06-26T09:46:49Z</time>
      </trkpt>
      <trkpt lat="42.9247200" lon="1.5822370">
        <ele>1113.7</ele>
        <time>2022-06-26T09:46:50Z</time>
      </trkpt>
      <trkpt lat="42.9250460" lon="1.5825620">
        <ele>1110.6</ele>
        <time>2022-06-26T09:46:55Z</time>
      </trkpt>
      <trkpt lat="42.9251080" lon="1.5826380">
        <ele>1110.0</ele>
        <time>2022-06-26T09:46:56Z</time>
      </trkpt>
      <trkpt lat="42.9253290" lon="1.5829900">
        <ele>1107.5</ele>
        <time>2022-06-26T09:47:00Z</time>
      </trkpt>
      <trkpt lat="42.9253700" lon="1.5830940">
        <ele>1106.9</ele>
        <time>2022-06-26T09:47:01Z</time>
      </trkpt>
      <trkpt lat="42.9254720" lon="1.5835490">
        <ele>1104.1</ele>
        <time>2022-06-26T09:47:05Z</time>
      </trkpt>
      <trkpt lat="42.9255660" lon="1.5838850">
        <ele>1101.7</ele>
        <time>2022-06-26T09:47:08Z</time>
      </trkpt>
      <trkpt lat="42.9256120" lon="1.5839970">
        <ele>1100.8</ele>
        <time>2022-06-26T09:47:09Z</time>
      </trkpt>
      <trkpt lat="42.9259440" lon="1.5846550">
        <ele>1096.0</ele>
        <time>2022-06-26T09:47:15Z</time>
      </trkpt>
      <trkpt lat="42.9262380" lon="1.5851680">
        <ele>1092.0</ele>
        <time>2022-06-26T09:47:20Z</time>
      </trkpt>
      <trkpt lat="42.9262840" lon="1.5852830">
        <ele>1091.3</ele>
        <time>2022-06-26T09:47:21Z</time>
      </trkpt>
      <trkpt lat="42.9264620" lon="1.5857430">
        <ele>1088.4</ele>
        <time>2022-06-26T09:47:25Z</time>
      </trkpt>
      <trkpt lat="42.9265770" lon="1.5859430">
        <ele>1087.0</ele>
        <time>2022-06-26T09:47:27Z</time>
      </trkpt>
      <trkpt lat="42.9267220" lon="1.5861130">
        <ele>1085.5</ele>
        <time>2022-06-26T09:47:29Z</time>
      </trkpt>
      <trkpt lat="42.9271460" lon="1.5865850">
        <ele>1080.7</ele>
        <time>2022-06-26T09:47:35Z</time>
      </trkpt>
      <trkpt lat="42.9273910" lon="1.5870790">
        <ele>1077.3</ele>
        <time>2022-06-26T09:47:40Z</time>
      </trkpt>
      <trkpt lat="42.9275010" lon="1.5873830">
        <ele>1075.2</ele>
        <time>2022-06-26T09:47:43Z</time>
      </trkpt>
      <trkpt lat="42.9275440" lon="1.5875890">
        <ele>1074.0</ele>
        <time>2022-06-26T09:47:45Z</time>
      </trkpt>
      <trkpt lat="42.9275900" lon="1.5877750">
        <ele>1073.1</ele>
        <time>2022-06-26T09:47:47Z</time>
      </trkpt>
      <trkpt lat="42.9276540" lon="1.5879430">
        <ele>1072.4</ele>
        <time>2022-06-26T09:47:49Z</time>
      </trkpt>
      <trkpt lat="42.9277300" lon="1.5881010">
        <ele>1071.9</ele>
        <time>2022-06-26T09:47:51Z</time>
      </trkpt>
      <trkpt lat="42.9279100" lon="1.5884050">
        <ele>1071.1</ele>
        <time>2022-06-26T09:47:55Z</time>
      </trkpt>
      <trkpt lat="42.9281380" lon="1.5887450">
        <ele>1069.8</ele>
        <time>2022-06-26T09:48:00Z</time>
      </trkpt>
      <trkpt lat="42.9281690" lon="1.5888170">
        <ele>1069.5</ele>
        <time>2022-06-26T09:48:01Z</time>
      </trkpt>
      <trkpt lat="42.9282380" lon="1.5891430">
        <ele>1068.0</ele>
        <time>2022-06-26T09:48:05Z</time>
      </trkpt>
      <trkpt lat="42.9282230" lon="1.5893210">
        <ele>1067.1</ele>
        <time>2022-06-26T09:48:09Z</time>
      </trkpt>
      <trkpt lat="42.9282200" lon="1.5893280">
        <ele>1067.1</ele>
        <time>2022-06-26T09:48:10Z</time>
      </trkpt>
      <trkpt lat="42.9282120" lon="1.5893600">
        <ele>1066.9</ele>
        <time>2022-06-26T09:48:17Z</time>
      </trkpt>
      <trkpt lat="42.9282050" lon="1.5893900">
        <ele>1066.7</ele>
        <time>2022-06-26T09:48:18Z</time>
      </trkpt>
      <trkpt lat="42.9281990" lon="1.5894260">
        <ele>1066.5</ele>
        <time>2022-06-26T09:48:19Z</time>
      </trkpt>
      <trkpt lat="42.9281680" lon="1.5896210">
        <ele>1065.5</ele>
        <time>2022-06-26T09:48:23Z</time>
      </trkpt>
      <trkpt lat="42.9281680" lon="1.5897540">
        <ele>1064.8</ele>
        <time>2022-06-26T09:48:25Z</time>
      </trkpt>
      <trkpt lat="42.9281720" lon="1.5899480">
        <ele>1063.8</ele>
        <time>2022-06-26T09:48:28Z</time>
      </trkpt>
      <trkpt lat="42.9281700" lon="1.5900960">
        <ele>1062.9</ele>
        <time>2022-06-26T09:48:31Z</time>
      </trkpt>
      <trkpt lat="42.9281610" lon="1.5902320">
        <ele>1062.2</ele>
        <time>2022-06-26T09:48:34Z</time>
      </trkpt>
      <trkpt lat="42.9281590" lon="1.5902580">
        <ele>1062.0</ele>
        <time>2022-06-26T09:48:35Z</time>
      </trkpt>
      <trkpt lat="42.9281590" lon="1.5902850">
        <ele>1061.9</ele>
        <time>2022-06-26T09:48:37Z</time>
      </trkpt>
      <trkpt lat="42.9281580" lon="1.5902880">
        <ele>1061.8</ele>
        <time>2022-06-26T09:48:38Z</time>
      </trkpt>
      <trkpt lat="42.9281590" lon="1.5903170">
        <ele>1061.7</ele>
        <time>2022-06-26T09:49:04Z</time>
      </trkpt>
      <trkpt lat="42.9281610" lon="1.5903450">
        <ele>1061.6</ele>
        <time>2022-06-26T09:49:05Z</time>
      </trkpt>
      <trkpt lat="42.9281910" lon="1.5904480">
        <ele>1061.0</ele>
        <time>2022-06-26T09:49:09Z</time>
      </trkpt>
      <trkpt lat="42.9282000" lon="1.5904510">
        <ele>1060.9</ele>
        <time>2022-06-26T09:49:10Z</time>
      </trkpt>
      <trkpt lat="42.9282010" lon="1.5904480">
        <ele>1060.9</ele>
        <time>2022-06-26T09:49:11Z</time>
      </trkpt>
      <trkpt lat="42.9282140" lon="1.5904490">
        <ele>1060.8</ele>
        <time>2022-06-26T09:49:47Z</time>
      </trkpt>
      <trkpt lat="42.9282180" lon="1.5904760">
        <ele>1060.7</ele>
        <time>2022-06-26T09:49:48Z</time>
      </trkpt>
      <trkpt lat="42.9282480" lon="1.5905970">
        <ele>1060.0</ele>
        <time>2022-06-26T09:49:51Z</time>
      </trkpt>
      <trkpt lat="42.9282680" lon="1.5906500">
        <ele>1059.7</ele>
        <time>2022-06-26T09:49:52Z</time>
      </trkpt>
      <trkpt lat="42.9283410" lon="1.5908450">
        <ele>1058.6</ele>
        <time>2022-06-26T09:49:55Z</time>
      </trkpt>
      <trkpt lat="42.9283550" lon="1.5909240">
        <ele>1058.2</ele>
        <time>2022-06-26T09:49:56Z</time>
      </trkpt>
      <trkpt lat="42.9283980" lon="1.5914180">
        <ele>1055.3</ele>
        <time>2022-06-26T09:50:01Z</time>
      </trkpt>
      <trkpt lat="42.9284010" lon="1.5920150">
        <ele>1051.9</ele>
        <time>2022-06-26T09:50:06Z</time>
      </trkpt>
      <trkpt lat="42.9283920" lon="1.5921340">
        <ele>1051.2</ele>
        <time>2022-06-26T09:50:07Z</time>
      </trkpt>
      <trkpt lat="42.9283260" lon="1.5924950">
        <ele>1048.9</ele>
        <time>2022-06-26T09:50:10Z</time>
      </trkpt>
      <trkpt lat="42.9282600" lon="1.5927300">
        <ele>1047.4</ele>
        <time>2022-06-26T09:50:12Z</time>
      </trkpt>
      <trkpt lat="42.9281320" lon="1.5930890">
        <ele>1045.0</ele>
        <time>2022-06-26T09:50:15Z</time>
      </trkpt>
      <trkpt lat="42.9278500" lon="1.5936500">
        <ele>1041.3</ele>
        <time>2022-06-26T09:50:20Z</time>
      </trkpt>
      <trkpt lat="42.9275680" lon="1.5940010">
        <ele>1038.3</ele>
        <time>2022-06-26T09:50:24Z</time>
      </trkpt>
      <trkpt lat="42.9274920" lon="1.5940610">
        <ele>1037.8</ele>
        <time>2022-06-26T09:50:25Z</time>
      </trkpt>
      <trkpt lat="42.9273370" lon="1.5941340">
        <ele>1036.7</ele>
        <time>2022-06-26T09:50:27Z</time>
      </trkpt>
      <trkpt lat="42.9270970" lon="1.5940710">
        <ele>1034.9</ele>
        <time>2022-06-26T09:50:30Z</time>
      </trkpt>
      <trkpt lat="42.9268860" lon="1.5938480">
        <ele>1032.9</ele>
        <time>2022-06-26T09:50:33Z</time>
      </trkpt>
      <trkpt lat="42.9267680" lon="1.5936560">
        <ele>1031.7</ele>
        <time>2022-06-26T09:50:35Z</time>
      </trkpt>
      <trkpt lat="42.9266750" lon="1.5934540">
        <ele>1030.6</ele>
        <time>2022-06-26T09:50:37Z</time>
      </trkpt>
      <trkpt lat="42.9266040" lon="1.5932370">
        <ele>1029.7</ele>
        <time>2022-06-26T09:50:39Z</time>
      </trkpt>
      <trkpt lat="42.9265660" lon="1.5930340">
        <ele>1029.1</ele>
        <time>2022-06-26T09:50:41Z</time>
      </trkpt>
      <trkpt lat="42.9265560" lon="1.5929380">
        <ele>1028.8</ele>
        <time>2022-06-26T09:50:42Z</time>
      </trkpt>
      <trkpt lat="42.9265460" lon="1.5927170">
        <ele>1028.0</ele>
        <time>2022-06-26T09:50:45Z</time>
      </trkpt>
      <trkpt lat="42.9265290" lon="1.5926680">
        <ele>1027.8</ele>
        <time>2022-06-26T09:50:46Z</time>
      </trkpt>
      <trkpt lat="42.9264560" lon="1.5926350">
        <ele>1027.1</ele>
        <time>2022-06-26T09:50:48Z</time>
      </trkpt>
      <trkpt lat="42.9264280" lon="1.5927240">
        <ele>1026.3</ele>
        <time>2022-06-26T09:50:50Z</time>
      </trkpt>
      <trkpt lat="42.9264440" lon="1.5929620">
        <ele>1024.6</ele>
        <time>2022-06-26T09:50:53Z</time>
      </trkpt>
      <trkpt lat="42.9264450" lon="1.5930590">
        <ele>1024.0</ele>
        <time>2022-06-26T09:50:54Z</time>
      </trkpt>
      <trkpt lat="42.9264350" lon="1.5935060">
        <ele>1021.3</ele>
        <time>2022-06-26T09:50:58Z</time>
      </trkpt>
      <trkpt lat="42.9264480" lon="1.5941700">
        <ele>1017.5</ele>
        <time>2022-06-26T09:51:03Z</time>
      </trkpt>
      <trkpt lat="42.9265510" lon="1.5948480">
        <ele>1013.7</ele>
        <time>2022-06-26T09:51:08Z</time>
      </trkpt>
      <trkpt lat="42.9267430" lon="1.5953200">
        <ele>1010.7</ele>
        <time>2022-06-26T09:51:12Z</time>
      </trkpt>
      <trkpt lat="42.9270250" lon="1.5956640">
        <ele>1008.0</ele>
        <time>2022-06-26T09:51:16Z</time>
      </trkpt>
      <trkpt lat="42.9270920" lon="1.5957190">
        <ele>1007.5</ele>
        <time>2022-06-26T09:51:17Z</time>
      </trkpt>
      <trkpt lat="42.9272460" lon="1.5957450">
        <ele>1006.3</ele>
        <time>2022-06-26T09:51:19Z</time>
      </trkpt>
      <trkpt lat="42.9274860" lon="1.5956250">
        <ele>1004.2</ele>
        <time>2022-06-26T09:51:22Z</time>
      </trkpt>
      <trkpt lat="42.9276440" lon="1.5954860">
        <ele>1002.6</ele>
        <time>2022-06-26T09:51:24Z</time>
      </trkpt>
      <trkpt lat="42.9278050" lon="1.5953250">
        <ele>1001.1</ele>
        <time>2022-06-26T09:51:26Z</time>
      </trkpt>
      <trkpt lat="42.9280630" lon="1.5951390">
        <ele>998.9</ele>
        <time>2022-06-26T09:51:29Z</time>
      </trkpt>
      <trkpt lat="42.9281570" lon="1.5951020">
        <ele>998.2</ele>
        <time>2022-06-26T09:51:30Z</time>
      </trkpt>
      <trkpt lat="42.9286410" lon="1.5949520">
        <ele>994.3</ele>
        <time>2022-06-26T09:51:35Z</time>
      </trkpt>
      <trkpt lat="42.9288190" lon="1.5948590">
        <ele>992.7</ele>
        <time>2022-06-26T09:51:37Z</time>
      </trkpt>
      <trkpt lat="42.9289810" lon="1.5947160">
        <ele>991.1</ele>
        <time>2022-06-26T09:51:39Z</time>
      </trkpt>
      <trkpt lat="42.9291820" lon="1.5944360">
        <ele>988.7</ele>
        <time>2022-06-26T09:51:42Z</time>
      </trkpt>
      <trkpt lat="42.9292390" lon="1.5943250">
        <ele>987.9</ele>
        <time>2022-06-26T09:51:43Z</time>
      </trkpt>
      <trkpt lat="42.9292930" lon="1.5942080">
        <ele>987.1</ele>
        <time>2022-06-26T09:51:44Z</time>
      </trkpt>
      <trkpt lat="42.9294360" lon="1.5938410">
        <ele>985.0</ele>
        <time>2022-06-26T09:51:47Z</time>
      </trkpt>
      <trkpt lat="42.9294700" lon="1.5937190">
        <ele>984.6</ele>
        <time>2022-06-26T09:51:48Z</time>
      </trkpt>
      <trkpt lat="42.9295620" lon="1.5932300">
        <ele>982.9</ele>
        <time>2022-06-26T09:51:52Z</time>
      </trkpt>
      <trkpt lat="42.9295660" lon="1.5931130">
        <ele>982.4</ele>
        <time>2022-06-26T09:51:53Z</time>
      </trkpt>
      <trkpt lat="42.9295200" lon="1.5926870">
        <ele>980.4</ele>
        <time>2022-06-26T09:51:57Z</time>
      </trkpt>
      <trkpt lat="42.9295750" lon="1.5924390">
        <ele>979.5</ele>
        <time>2022-06-26T09:52:00Z</time>
      </trkpt>
      <trkpt lat="42.9297460" lon="1.5922760">
        <ele>978.9</ele>
        <time>2022-06-26T09:52:03Z</time>
      </trkpt>
      <trkpt lat="42.9299410" lon="1.5921920">
        <ele>978.2</ele>
        <time>2022-06-26T09:52:06Z</time>
      </trkpt>
      <trkpt lat="42.9300020" lon="1.5921590">
        <ele>978.0</ele>
        <time>2022-06-26T09:52:07Z</time>
      </trkpt>
      <trkpt lat="42.9301530" lon="1.5919610">
        <ele>977.1</ele>
        <time>2022-06-26T09:52:10Z</time>
      </trkpt>
      <trkpt lat="42.9303410" lon="1.5916490">
        <ele>975.3</ele>
        <time>2022-06-26T09:52:14Z</time>
      </trkpt>
      <trkpt lat="42.9303780" lon="1.5915540">
        <ele>974.8</ele>
        <time>2022-06-26T09:52:15Z</time>
      </trkpt>
      <trkpt lat="42.9305510" lon="1.5910280">
        <ele>971.7</ele>
        <time>2022-06-26T09:52:20Z</time>
      </trkpt>
      <trkpt lat="42.9306920" lon="1.5904780">
        <ele>968.2</ele>
        <time>2022-06-26T09:52:25Z</time>
      </trkpt>
      <trkpt lat="42.9308720" lon="1.5898330">
        <ele>964.3</ele>
        <time>2022-06-26T09:52:30Z</time>
      </trkpt>
      <trkpt lat="42.9310540" lon="1.5893120">
        <ele>961.0</ele>
        <time>2022-06-26T09:52:34Z</time>
      </trkpt>
      <trkpt lat="42.9311760" lon="1.5889270">
        <ele>958.6</ele>
        <time>2022-06-26T09:52:37Z</time>
      </trkpt>
      <trkpt lat="42.9312940" lon="1.5885570">
        <ele>956.0</ele>
        <time>2022-06-26T09:52:40Z</time>
      </trkpt>
      <trkpt lat="42.9313220" lon="1.5884260">
        <ele>955.1</ele>
        <time>2022-06-26T09:52:41Z</time>
      </trkpt>
      <trkpt lat="42.9313680" lon="1.5879960">
        <ele>952.4</ele>
        <time>2022-06-26T09:52:44Z</time>
      </trkpt>
      <trkpt lat="42.9313830" lon="1.5878440">
        <ele>951.4</ele>
        <time>2022-06-26T09:52:45Z</time>
      </trkpt>
      <trkpt lat="42.9314670" lon="1.5871050">
        <ele>946.9</ele>
        <time>2022-06-26T09:52:50Z</time>
      </trkpt>
      <trkpt lat="42.9315550" lon="1.5864240">
        <ele>942.8</ele>
        <time>2022-06-26T09:52:55Z</time>
      </trkpt>
      <trkpt lat="42.9316080" lon="1.5860070">
        <ele>940.2</ele>
        <time>2022-06-26T09:52:58Z</time>
      </trkpt>
      <trkpt lat="42.9316360" lon="1.5855710">
        <ele>937.6</ele>
        <time>2022-06-26T09:53:01Z</time>
      </trkpt>
      <trkpt lat="42.9316140" lon="1.5850210">
        <ele>934.4</ele>
        <time>2022-06-26T09:53:05Z</time>
      </trkpt>
      <trkpt lat="42.9314770" lon="1.5845720">
        <ele>931.3</ele>
        <time>2022-06-26T09:53:09Z</time>
      </trkpt>
      <trkpt lat="42.9314220" lon="1.5844830">
        <ele>930.7</ele>
        <time>2022-06-26T09:53:10Z</time>
      </trkpt>
      <trkpt lat="42.9312800" lon="1.5843530">
        <ele>929.7</ele>
        <time>2022-06-26T09:53:12Z</time>
      </trkpt>
      <trkpt lat="42.9311110" lon="1.5842730">
        <ele>928.9</ele>
        <time>2022-06-26T09:53:14Z</time>
      </trkpt>
      <trkpt lat="42.9310220" lon="1.5842390">
        <ele>928.6</ele>
        <time>2022-06-26T09:53:15Z</time>
      </trkpt>
      <trkpt lat="42.9308460" lon="1.5841770">
        <ele>927.9</ele>
        <time>2022-06-26T09:53:17Z</time>
      </trkpt>
      <trkpt lat="42.9306410" lon="1.5841100">
        <ele>926.6</ele>
        <time>2022-06-26T09:53:20Z</time>
      </trkpt>
      <trkpt lat="42.9305930" lon="1.5840890">
        <ele>926.3</ele>
        <time>2022-06-26T09:53:21Z</time>
      </trkpt>
      <trkpt lat="42.9305390" lon="1.5839880">
        <ele>925.5</ele>
        <time>2022-06-26T09:53:24Z</time>
      </trkpt>
      <trkpt lat="42.9305600" lon="1.5839570">
        <ele>925.2</ele>
        <time>2022-06-26T09:53:25Z</time>
      </trkpt>
      <trkpt lat="42.9306310" lon="1.5839670">
        <ele>924.7</ele>
        <time>2022-06-26T09:53:27Z</time>
      </trkpt>
      <trkpt lat="42.9308540" lon="1.5840720">
        <ele>922.6</ele>
        <time>2022-06-26T09:53:31Z</time>
      </trkpt>
      <trkpt lat="42.9310010" lon="1.5841040">
        <ele>921.2</ele>
        <time>2022-06-26T09:53:33Z</time>
      </trkpt>
      <trkpt lat="42.9311600" lon="1.5841080">
        <ele>919.8</ele>
        <time>2022-06-26T09:53:35Z</time>
      </trkpt>
      <trkpt lat="42.9314060" lon="1.5841100">
        <ele>917.2</ele>
        <time>2022-06-26T09:53:38Z</time>
      </trkpt>
      <trkpt lat="42.9314890" lon="1.5841260">
        <ele>916.4</ele>
        <time>2022-06-26T09:53:39Z</time>
      </trkpt>
      <trkpt lat="42.9315690" lon="1.5841540">
        <ele>915.5</ele>
        <time>2022-06-26T09:53:40Z</time>
      </trkpt>
      <trkpt lat="42.9318800" lon="1.5843810">
        <ele>911.8</ele>
        <time>2022-06-26T09:53:44Z</time>
      </trkpt>
      <trkpt lat="42.9320180" lon="1.5845530">
        <ele>909.8</ele>
        <time>2022-06-26T09:53:46Z</time>
      </trkpt>
      <trkpt lat="42.9321420" lon="1.5847510">
        <ele>907.7</ele>
        <time>2022-06-26T09:53:48Z</time>
      </trkpt>
      <trkpt lat="42.9322500" lon="1.5849740">
        <ele>905.4</ele>
        <time>2022-06-26T09:53:50Z</time>
      </trkpt>
      <trkpt lat="42.9322950" lon="1.5850950">
        <ele>904.3</ele>
        <time>2022-06-26T09:53:51Z</time>
      </trkpt>
      <trkpt lat="42.9323330" lon="1.5852250">
        <ele>903.3</ele>
        <time>2022-06-26T09:53:52Z</time>
      </trkpt>
      <trkpt lat="42.9324490" lon="1.5857680">
        <ele>899.2</ele>
        <time>2022-06-26T09:53:56Z</time>
      </trkpt>
      <trkpt lat="42.9324810" lon="1.5859030">
        <ele>898.2</ele>
        <time>2022-06-26T09:53:57Z</time>
      </trkpt>
      <trkpt lat="42.9325890" lon="1.5862950">
        <ele>895.1</ele>
        <time>2022-06-26T09:54:00Z</time>
      </trkpt>
      <trkpt lat="42.9327230" lon="1.5866610">
        <ele>892.2</ele>
        <time>2022-06-26T09:54:03Z</time>
      </trkpt>
      <trkpt lat="42.9328290" lon="1.5868620">
        <ele>890.5</ele>
        <time>2022-06-26T09:54:05Z</time>
      </trkpt>
      <trkpt lat="42.9328930" lon="1.5869400">
        <ele>889.7</ele>
        <time>2022-06-26T09:54:06Z</time>
      </trkpt>
      <trkpt lat="42.9331440" lon="1.5870560">
        <ele>887.4</ele>
        <time>2022-06-26T09:54:09Z</time>
      </trkpt>
      <trkpt lat="42.9333230" lon="1.5870490">
        <ele>885.8</ele>
        <time>2022-06-26T09:54:11Z</time>
      </trkpt>
      <trkpt lat="42.9334870" lon="1.5870450">
        <ele>884.2</ele>
        <time>2022-06-26T09:54:13Z</time>
      </trkpt>
      <trkpt lat="42.9335700" lon="1.5870590">
        <ele>883.4</ele>
        <time>2022-06-26T09:54:14Z</time>
      </trkpt>
      <trkpt lat="42.9337230" lon="1.5871280">
        <ele>881.9</ele>
        <time>2022-06-26T09:54:16Z</time>
      </trkpt>
      <trkpt lat="42.9339300" lon="1.5873400">
        <ele>879.7</ele>
        <time>2022-06-26T09:54:19Z</time>
      </trkpt>
      <trkpt lat="42.9341240" lon="1.5877470">
        <ele>876.6</ele>
        <time>2022-06-26T09:54:23Z</time>
      </trkpt>
      <trkpt lat="42.9341610" lon="1.5880860">
        <ele>874.6</ele>
        <time>2022-06-26T09:54:26Z</time>
      </trkpt>
      <trkpt lat="42.9341590" lon="1.5881800">
        <ele>874.1</ele>
        <time>2022-06-26T09:54:27Z</time>
      </trkpt>
      <trkpt lat="42.9341040" lon="1.5884510">
        <ele>872.7</ele>
        <time>2022-06-26T09:54:30Z</time>
      </trkpt>
      <trkpt lat="42.9339750" lon="1.5887140">
        <ele>871.3</ele>
        <time>2022-06-26T09:54:33Z</time>
      </trkpt>
      <trkpt lat="42.9339280" lon="1.5887790">
        <ele>870.9</ele>
        <time>2022-06-26T09:54:34Z</time>
      </trkpt>
      <trkpt lat="42.9338830" lon="1.5888320">
        <ele>870.5</ele>
        <time>2022-06-26T09:54:35Z</time>
      </trkpt>
      <trkpt lat="42.9338480" lon="1.5888820">
        <ele>870.1</ele>
        <time>2022-06-26T09:54:36Z</time>
      </trkpt>
      <trkpt lat="42.9338190" lon="1.5889780">
        <ele>869.5</ele>
        <time>2022-06-26T09:54:38Z</time>
      </trkpt>
      <trkpt lat="42.9338270" lon="1.5890130">
        <ele>869.2</ele>
        <time>2022-06-26T09:54:39Z</time>
      </trkpt>
      <trkpt lat="42.9338740" lon="1.5890380">
        <ele>868.7</ele>
        <time>2022-06-26T09:54:41Z</time>
      </trkpt>
      <trkpt lat="42.9339690" lon="1.5889200">
        <ele>867.4</ele>
        <time>2022-06-26T09:54:44Z</time>
      </trkpt>
      <trkpt lat="42.9341400" lon="1.5887530">
        <ele>865.5</ele>
        <time>2022-06-26T09:54:47Z</time>
      </trkpt>
      <trkpt lat="42.9342100" lon="1.5886980">
        <ele>864.8</ele>
        <time>2022-06-26T09:54:48Z</time>
      </trkpt>
      <trkpt lat="42.9342840" lon="1.5886430">
        <ele>864.0</ele>
        <time>2022-06-26T09:54:49Z</time>
      </trkpt>
      <trkpt lat="42.9345860" lon="1.5883680">
        <ele>860.7</ele>
        <time>2022-06-26T09:54:53Z</time>
      </trkpt>
      <trkpt lat="42.9347090" lon="1.5881910">
        <ele>859.1</ele>
        <time>2022-06-26T09:54:55Z</time>
      </trkpt>
      <trkpt lat="42.9348060" lon="1.5879670">
        <ele>857.4</ele>
        <time>2022-06-26T09:54:57Z</time>
      </trkpt>
      <trkpt lat="42.9348830" lon="1.5876040">
        <ele>855.2</ele>
        <time>2022-06-26T09:55:00Z</time>
      </trkpt>
      <trkpt lat="42.9348820" lon="1.5874730">
        <ele>854.4</ele>
        <time>2022-06-26T09:55:01Z</time>
      </trkpt>
      <trkpt lat="42.9348100" lon="1.5870660">
        <ele>851.6</ele>
        <time>2022-06-26T09:55:04Z</time>
      </trkpt>
      <trkpt lat="42.9347720" lon="1.5869360">
        <ele>850.7</ele>
        <time>2022-06-26T09:55:05Z</time>
      </trkpt>
      <trkpt lat="42.9346250" lon="1.5865840">
        <ele>848.0</ele>
        <time>2022-06-26T09:55:08Z</time>
      </trkpt>
      <trkpt lat="42.9345680" lon="1.5864790">
        <ele>847.1</ele>
        <time>2022-06-26T09:55:09Z</time>
      </trkpt>
      <trkpt lat="42.9344370" lon="1.5862900">
        <ele>845.3</ele>
        <time>2022-06-26T09:55:11Z</time>
      </trkpt>
      <trkpt lat="42.9343690" lon="1.5862170">
        <ele>844.6</ele>
        <time>2022-06-26T09:55:12Z</time>
      </trkpt>
      <trkpt lat="42.9342180" lon="1.5860840">
        <ele>843.2</ele>
        <time>2022-06-26T09:55:14Z</time>
      </trkpt>
      <trkpt lat="42.9340620" lon="1.5859920">
        <ele>842.2</ele>
        <time>2022-06-26T09:55:16Z</time>
      </trkpt>
      <trkpt lat="42.9338510" lon="1.5859770">
        <ele>840.6</ele>
        <time>2022-06-26T09:55:19Z</time>
      </trkpt>
      <trkpt lat="42.9337980" lon="1.5859720">
        <ele>840.0</ele>
        <time>2022-06-26T09:55:20Z</time>
      </trkpt>
      <trkpt lat="42.9337160" lon="1.5859230">
        <ele>838.8</ele>
        <time>2022-06-26T09:55:22Z</time>
      </trkpt>
      <trkpt lat="42.9337310" lon="1.5857910">
        <ele>837.4</ele>
        <time>2022-06-26T09:55:25Z</time>
      </trkpt>
      <trkpt lat="42.9337800" lon="1.5857640">
        <ele>836.4</ele>
        <time>2022-06-26T09:55:26Z</time>
      </trkpt>
      <trkpt lat="42.9339100" lon="1.5857550">
        <ele>834.5</ele>
        <time>2022-06-26T09:55:28Z</time>
      </trkpt>
      <trkpt lat="42.9339920" lon="1.5857590">
        <ele>833.4</ele>
        <time>2022-06-26T09:55:29Z</time>
      </trkpt>
      <trkpt lat="42.9342750" lon="1.5857740">
        <ele>829.7</ele>
        <time>2022-06-26T09:55:32Z</time>
      </trkpt>
      <trkpt lat="42.9344770" lon="1.5857830">
        <ele>827.1</ele>
        <time>2022-06-26T09:55:34Z</time>
      </trkpt>
      <trkpt lat="42.9347890" lon="1.5858460">
        <ele>823.1</ele>
        <time>2022-06-26T09:55:37Z</time>
      </trkpt>
      <trkpt lat="42.9349010" lon="1.5858790">
        <ele>821.6</ele>
        <time>2022-06-26T09:55:38Z</time>
      </trkpt>
      <trkpt lat="42.9352090" lon="1.5859800">
        <ele>817.6</ele>
        <time>2022-06-26T09:55:41Z</time>
      </trkpt>
      <trkpt lat="42.9353030" lon="1.5860180">
        <ele>816.5</ele>
        <time>2022-06-26T09:55:42Z</time>
      </trkpt>
      <trkpt lat="42.9355720" lon="1.5861650">
        <ele>813.0</ele>
        <time>2022-06-26T09:55:45Z</time>
      </trkpt>
      <trkpt lat="42.9356580" lon="1.5862370">
        <ele>811.9</ele>
        <time>2022-06-26T09:55:46Z</time>
      </trkpt>
      <trkpt lat="42.9360280" lon="1.5865370">
        <ele>806.9</ele>
        <time>2022-06-26T09:55:50Z</time>
      </trkpt>
      <trkpt lat="42.9362670" lon="1.5867390">
        <ele>803.3</ele>
        <time>2022-06-26T09:55:53Z</time>
      </trkpt>
      <trkpt lat="42.9363380" lon="1.5868150">
        <ele>802.2</ele>
        <time>2022-06-26T09:55:54Z</time>
      </trkpt>
      <trkpt lat="42.9363980" lon="1.5868970">
        <ele>801.2</ele>
        <time>2022-06-26T09:55:55Z</time>
      </trkpt>
      <trkpt lat="42.9365260" lon="1.5871820">
        <ele>798.3</ele>
        <time>2022-06-26T09:55:58Z</time>
      </trkpt>
      <trkpt lat="42.9365500" lon="1.5875410">
        <ele>795.0</ele>
        <time>2022-06-26T09:56:01Z</time>
      </trkpt>
      <trkpt lat="42.9365620" lon="1.5876610">
        <ele>793.8</ele>
        <time>2022-06-26T09:56:02Z</time>
      </trkpt>
      <trkpt lat="42.9366080" lon="1.5878720">
        <ele>791.6</ele>
        <time>2022-06-26T09:56:04Z</time>
      </trkpt>
      <trkpt lat="42.9367720" lon="1.5881450">
        <ele>788.0</ele>
        <time>2022-06-26T09:56:07Z</time>
      </trkpt>
      <trkpt lat="42.9368500" lon="1.5882230">
        <ele>786.8</ele>
        <time>2022-06-26T09:56:08Z</time>
      </trkpt>
      <trkpt lat="42.9370900" lon="1.5884810">
        <ele>782.9</ele>
        <time>2022-06-26T09:56:11Z</time>
      </trkpt>
      <trkpt lat="42.9371630" lon="1.5885760">
        <ele>781.6</ele>
        <time>2022-06-26T09:56:12Z</time>
      </trkpt>
      <trkpt lat="42.9374130" lon="1.5888420">
        <ele>777.6</ele>
        <time>2022-06-26T09:56:15Z</time>
      </trkpt>
      <trkpt lat="42.9376950" lon="1.5890750">
        <ele>773.4</ele>
        <time>2022-06-26T09:56:18Z</time>
      </trkpt>
      <trkpt lat="42.9380520" lon="1.5893360">
        <ele>768.5</ele>
        <time>2022-06-26T09:56:22Z</time>
      </trkpt>
      <trkpt lat="42.9381210" lon="1.5894050">
        <ele>767.3</ele>
        <time>2022-06-26T09:56:23Z</time>
      </trkpt>
      <trkpt lat="42.9382400" lon="1.5895530">
        <ele>765.1</ele>
        <time>2022-06-26T09:56:25Z</time>
      </trkpt>
      <trkpt lat="42.9383880" lon="1.5898070">
        <ele>761.9</ele>
        <time>2022-06-26T09:56:28Z</time>
      </trkpt>
      <trkpt lat="42.9384260" lon="1.5898960">
        <ele>760.9</ele>
        <time>2022-06-26T09:56:29Z</time>
      </trkpt>
      <trkpt lat="42.9384540" lon="1.5901290">
        <ele>758.3</ele>
        <time>2022-06-26T09:56:32Z</time>
      </trkpt>
      <trkpt lat="42.9384290" lon="1.5901850">
        <ele>757.6</ele>
        <time>2022-06-26T09:56:33Z</time>
      </trkpt>
      <trkpt lat="42.9384140" lon="1.5902400">
        <ele>756.9</ele>
        <time>2022-06-26T09:56:34Z</time>
      </trkpt>
      <trkpt lat="42.9384240" lon="1.5902940">
        <ele>756.3</ele>
        <time>2022-06-26T09:56:35Z</time>
      </trkpt>
      <trkpt lat="42.9384440" lon="1.5903400">
        <ele>755.7</ele>
        <time>2022-06-26T09:56:36Z</time>
      </trkpt>
      <trkpt lat="42.9385180" lon="1.5903870">
        <ele>754.4</ele>
        <time>2022-06-26T09:56:38Z</time>
      </trkpt>
      <trkpt lat="42.9385540" lon="1.5903660">
        <ele>753.8</ele>
        <time>2022-06-26T09:56:39Z</time>
      </trkpt>
      <trkpt lat="42.9386650" lon="1.5901610">
        <ele>751.1</ele>
        <time>2022-06-26T09:56:42Z</time>
      </trkpt>
      <trkpt lat="42.9387330" lon="1.5899580">
        <ele>748.9</ele>
        <time>2022-06-26T09:56:44Z</time>
      </trkpt>
      <trkpt lat="42.9387600" lon="1.5898380">
        <ele>747.7</ele>
        <time>2022-06-26T09:56:45Z</time>
      </trkpt>
      <trkpt lat="42.9387750" lon="1.5897130">
        <ele>746.6</ele>
        <time>2022-06-26T09:56:46Z</time>
      </trkpt>
      <trkpt lat="42.9387730" lon="1.5894720">
        <ele>744.7</ele>
        <time>2022-06-26T09:56:48Z</time>
      </trkpt>
      <trkpt lat="42.9387320" lon="1.5892950">
        <ele>743.3</ele>
        <time>2022-06-26T09:56:50Z</time>
      </trkpt>
      <trkpt lat="42.9387080" lon="1.5892280">
        <ele>742.6</ele>
        <time>2022-06-26T09:56:51Z</time>
      </trkpt>
      <trkpt lat="42.9386800" lon="1.5891160">
        <ele>741.3</ele>
        <time>2022-06-26T09:56:53Z</time>
      </trkpt>
      <trkpt lat="42.9386910" lon="1.5890690">
        <ele>740.8</ele>
        <time>2022-06-26T09:56:54Z</time>
      </trkpt>
      <trkpt lat="42.9387610" lon="1.5890560">
        <ele>739.6</ele>
        <time>2022-06-26T09:56:56Z</time>
      </trkpt>
      <trkpt lat="42.9388000" lon="1.5890790">
        <ele>739.0</ele>
        <time>2022-06-26T09:56:57Z</time>
      </trkpt>
      <trkpt lat="42.9388460" lon="1.5891130">
        <ele>738.2</ele>
        <time>2022-06-26T09:56:58Z</time>
      </trkpt>
      <trkpt lat="42.9388970" lon="1.5891560">
        <ele>737.3</ele>
        <time>2022-06-26T09:56:59Z</time>
      </trkpt>
      <trkpt lat="42.9389480" lon="1.5892170">
        <ele>736.3</ele>
        <time>2022-06-26T09:57:00Z</time>
      </trkpt>
      <trkpt lat="42.9390600" lon="1.5893520">
        <ele>734.2</ele>
        <time>2022-06-26T09:57:02Z</time>
      </trkpt>
      <trkpt lat="42.9392030" lon="1.5894980">
        <ele>732.0</ele>
        <time>2022-06-26T09:57:04Z</time>
      </trkpt>
      <trkpt lat="42.9392710" lon="1.5895870">
        <ele>730.8</ele>
        <time>2022-06-26T09:57:05Z</time>
      </trkpt>
      <trkpt lat="42.9394260" lon="1.5897870">
        <ele>728.1</ele>
        <time>2022-06-26T09:57:07Z</time>
      </trkpt>
      <trkpt lat="42.9395280" lon="1.5898860">
        <ele>726.7</ele>
        <time>2022-06-26T09:57:08Z</time>
      </trkpt>
      <trkpt lat="42.9396370" lon="1.5899730">
        <ele>725.7</ele>
        <time>2022-06-26T09:57:09Z</time>
      </trkpt>
      <trkpt lat="42.9397500" lon="1.5900510">
        <ele>725.1</ele>
        <time>2022-06-26T09:57:10Z</time>
      </trkpt>
      <trkpt lat="42.9399750" lon="1.5901570">
        <ele>724.5</ele>
        <time>2022-06-26T09:57:12Z</time>
      </trkpt>
      <trkpt lat="42.9400910" lon="1.5901950">
        <ele>724.4</ele>
        <time>2022-06-26T09:57:13Z</time>
      </trkpt>
      <trkpt lat="42.9403200" lon="1.5902600">
        <ele>724.1</ele>
        <time>2022-06-26T09:57:15Z</time>
      </trkpt>
      <trkpt lat="42.9405380" lon="1.5903160">
        <ele>724.0</ele>
        <time>2022-06-26T09:57:17Z</time>
      </trkpt>
      <trkpt lat="42.9407370" lon="1.5903750">
        <ele>724.3</ele>
        <time>2022-06-26T09:57:19Z</time>
      </trkpt>
      <trkpt lat="42.9408260" lon="1.5904220">
        <ele>724.5</ele>
        <time>2022-06-26T09:57:20Z</time>
      </trkpt>
      <trkpt lat="42.9409700" lon="1.5905530">
        <ele>725.0</ele>
        <time>2022-06-26T09:57:22Z</time>
      </trkpt>
      <trkpt lat="42.9410180" lon="1.5906330">
        <ele>725.1</ele>
        <time>2022-06-26T09:57:23Z</time>
      </trkpt>
      <trkpt lat="42.9410870" lon="1.5908050">
        <ele>724.9</ele>
        <time>2022-06-26T09:57:25Z</time>
      </trkpt>
      <trkpt lat="42.9411280" lon="1.5909800">
        <ele>724.4</ele>
        <time>2022-06-26T09:57:27Z</time>
      </trkpt>
      <trkpt lat="42.9411450" lon="1.5910690">
        <ele>724.0</ele>
        <time>2022-06-26T09:57:28Z</time>
      </trkpt>
      <trkpt lat="42.9411870" lon="1.5912570">
        <ele>722.8</ele>
        <time>2022-06-26T09:57:30Z</time>
      </trkpt>
      <trkpt lat="42.9412620" lon="1.5915790">
        <ele>720.3</ele>
        <time>2022-06-26T09:57:33Z</time>
      </trkpt>
      <trkpt lat="42.9413160" lon="1.5918320">
        <ele>718.2</ele>
        <time>2022-06-26T09:57:35Z</time>
      </trkpt>
      <trkpt lat="42.9414070" lon="1.5923130">
        <ele>714.2</ele>
        <time>2022-06-26T09:57:39Z</time>
      </trkpt>
      <trkpt lat="42.9415400" lon="1.5925510">
        <ele>711.5</ele>
        <time>2022-06-26T09:57:42Z</time>
      </trkpt>
      <trkpt lat="42.9415940" lon="1.5925940">
        <ele>710.7</ele>
        <time>2022-06-26T09:57:43Z</time>
      </trkpt>
      <trkpt lat="42.9417370" lon="1.5925920">
        <ele>708.8</ele>
        <time>2022-06-26T09:57:45Z</time>
      </trkpt>
      <trkpt lat="42.9418180" lon="1.5925600">
        <ele>707.8</ele>
        <time>2022-06-26T09:57:46Z</time>
      </trkpt>
      <trkpt lat="42.9419070" lon="1.5925240">
        <ele>706.6</ele>
        <time>2022-06-26T09:57:47Z</time>
      </trkpt>
      <trkpt lat="42.9421080" lon="1.5924670">
        <ele>703.9</ele>
        <time>2022-06-26T09:57:49Z</time>
      </trkpt>
      <trkpt lat="42.9422940" lon="1.5924530">
        <ele>701.6</ele>
        <time>2022-06-26T09:57:51Z</time>
      </trkpt>
      <trkpt lat="42.9423830" lon="1.5924760">
        <ele>700.6</ele>
        <time>2022-06-26T09:57:52Z</time>
      </trkpt>
      <trkpt lat="42.9426410" lon="1.5926450">
        <ele>697.2</ele>
        <time>2022-06-26T09:57:55Z</time>
      </trkpt>
      <trkpt lat="42.9428390" lon="1.5929620">
        <ele>693.4</ele>
        <time>2022-06-26T09:57:58Z</time>
      </trkpt>
      <trkpt lat="42.9429000" lon="1.5930800">
        <ele>692.1</ele>
        <time>2022-06-26T09:57:59Z</time>
      </trkpt>
      <trkpt lat="42.9430230" lon="1.5933100">
        <ele>689.2</ele>
        <time>2022-06-26T09:58:01Z</time>
      </trkpt>
      <trkpt lat="42.9431550" lon="1.5935050">
        <ele>686.0</ele>
        <time>2022-06-26T09:58:03Z</time>
      </trkpt>
      <trkpt lat="42.9432220" lon="1.5935990">
        <ele>685.0</ele>
        <time>2022-06-26T09:58:04Z</time>
      </trkpt>
      <trkpt lat="42.9433230" lon="1.5937990">
        <ele>683.3</ele>
        <time>2022-06-26T09:58:06Z</time>
      </trkpt>
      <trkpt lat="42.9433520" lon="1.5939060">
        <ele>682.5</ele>
        <time>2022-06-26T09:58:07Z</time>
      </trkpt>
      <trkpt lat="42.9433620" lon="1.5940220">
        <ele>681.6</ele>
        <time>2022-06-26T09:58:08Z</time>
      </trkpt>
      <trkpt lat="42.9433760" lon="1.5942700">
        <ele>679.6</ele>
        <time>2022-06-26T09:58:10Z</time>
      </trkpt>
      <trkpt lat="42.9433760" lon="1.5943920">
        <ele>678.7</ele>
        <time>2022-06-26T09:58:11Z</time>
      </trkpt>
      <trkpt lat="42.9433820" lon="1.5945210">
        <ele>678.0</ele>
        <time>2022-06-26T09:58:12Z</time>
      </trkpt>
      <trkpt lat="42.9433990" lon="1.5946380">
        <ele>677.4</ele>
        <time>2022-06-26T09:58:13Z</time>
      </trkpt>
      <trkpt lat="42.9434480" lon="1.5947830">
        <ele>676.7</ele>
        <time>2022-06-26T09:58:15Z</time>
      </trkpt>
      <trkpt lat="42.9434870" lon="1.5948170">
        <ele>676.4</ele>
        <time>2022-06-26T09:58:16Z</time>
      </trkpt>
      <trkpt lat="42.9435920" lon="1.5948050">
        <ele>675.5</ele>
        <time>2022-06-26T09:58:18Z</time>
      </trkpt>
      <trkpt lat="42.9436500" lon="1.5947920">
        <ele>675.0</ele>
        <time>2022-06-26T09:58:19Z</time>
      </trkpt>
      <trkpt lat="42.9437680" lon="1.5947780">
        <ele>674.2</ele>
        <time>2022-06-26T09:58:21Z</time>
      </trkpt>
      <trkpt lat="42.9438430" lon="1.5947960">
        <ele>673.7</ele>
        <time>2022-06-26T09:58:22Z</time>
      </trkpt>
      <trkpt lat="42.9439240" lon="1.5948330">
        <ele>673.1</ele>
        <time>2022-06-26T09:58:23Z</time>
      </trkpt>
      <trkpt lat="42.9440870" lon="1.5949640">
        <ele>671.8</ele>
        <time>2022-06-26T09:58:25Z</time>
      </trkpt>
      <trkpt lat="42.9441650" lon="1.5950400">
        <ele>671.1</ele>
        <time>2022-06-26T09:58:26Z</time>
      </trkpt>
      <trkpt lat="42.9443370" lon="1.5951670">
        <ele>669.3</ele>
        <time>2022-06-26T09:58:28Z</time>
      </trkpt>
      <trkpt lat="42.9445100" lon="1.5952380">
        <ele>667.7</ele>
        <time>2022-06-26T09:58:30Z</time>
      </trkpt>
      <trkpt lat="42.9446020" lon="1.5952680">
        <ele>667.1</ele>
        <time>2022-06-26T09:58:31Z</time>
      </trkpt>
      <trkpt lat="42.9447840" lon="1.5954010">
        <ele>665.9</ele>
        <time>2022-06-26T09:58:33Z</time>
      </trkpt>
      <trkpt lat="42.9449170" lon="1.5956010">
        <ele>664.5</ele>
        <time>2022-06-26T09:58:35Z</time>
      </trkpt>
      <trkpt lat="42.9449760" lon="1.5957060">
        <ele>663.9</ele>
        <time>2022-06-26T09:58:36Z</time>
      </trkpt>
      <trkpt lat="42.9450970" lon="1.5959000">
        <ele>662.5</ele>
        <time>2022-06-26T09:58:38Z</time>
      </trkpt>
      <trkpt lat="42.9452270" lon="1.5960420">
        <ele>661.2</ele>
        <time>2022-06-26T09:58:40Z</time>
      </trkpt>
      <trkpt lat="42.9454770" lon="1.5961550">
        <ele>659.1</ele>
        <time>2022-06-26T09:58:43Z</time>
      </trkpt>
      <trkpt lat="42.9455710" lon="1.5961780">
        <ele>658.6</ele>
        <time>2022-06-26T09:58:44Z</time>
      </trkpt>
      <trkpt lat="42.9456690" lon="1.5962030">
        <ele>658.1</ele>
        <time>2022-06-26T09:58:45Z</time>
      </trkpt>
      <trkpt lat="42.9458660" lon="1.5962730">
        <ele>656.8</ele>
        <time>2022-06-26T09:58:47Z</time>
      </trkpt>
      <trkpt lat="42.9459650" lon="1.5963100">
        <ele>656.1</ele>
        <time>2022-06-26T09:58:48Z</time>
      </trkpt>
      <trkpt lat="42.9460650" lon="1.5963500">
        <ele>655.4</ele>
        <time>2022-06-26T09:58:49Z</time>
      </trkpt>
      <trkpt lat="42.9462550" lon="1.5964150">
        <ele>653.6</ele>
        <time>2022-06-26T09:58:51Z</time>
      </trkpt>
      <trkpt lat="42.9463380" lon="1.5964560">
        <ele>652.6</ele>
        <time>2022-06-26T09:58:52Z</time>
      </trkpt>
      <trkpt lat="42.9464140" lon="1.5965150">
        <ele>651.5</ele>
        <time>2022-06-26T09:58:53Z</time>
      </trkpt>
      <trkpt lat="42.9465440" lon="1.5967020">
        <ele>650.0</ele>
        <time>2022-06-26T09:58:55Z</time>
      </trkpt>
      <trkpt lat="42.9466090" lon="1.5968150">
        <ele>649.3</ele>
        <time>2022-06-26T09:58:56Z</time>
      </trkpt>
      <trkpt lat="42.9466770" lon="1.5969370">
        <ele>648.1</ele>
        <time>2022-06-26T09:58:57Z</time>
      </trkpt>
      <trkpt lat="42.9467980" lon="1.5971600">
        <ele>646.0</ele>
        <time>2022-06-26T09:58:59Z</time>
      </trkpt>
      <trkpt lat="42.9468820" lon="1.5973510">
        <ele>644.3</ele>
        <time>2022-06-26T09:59:01Z</time>
      </trkpt>
      <trkpt lat="42.9469050" lon="1.5974500">
        <ele>643.4</ele>
        <time>2022-06-26T09:59:02Z</time>
      </trkpt>
      <trkpt lat="42.9468830" lon="1.5976620">
        <ele>641.5</ele>
        <time>2022-06-26T09:59:04Z</time>
      </trkpt>
      <trkpt lat="42.9468360" lon="1.5977650">
        <ele>640.5</ele>
        <time>2022-06-26T09:59:05Z</time>
      </trkpt>
      <trkpt lat="42.9467230" lon="1.5979560">
        <ele>638.3</ele>
        <time>2022-06-26T09:59:07Z</time>
      </trkpt>
      <trkpt lat="42.9466720" lon="1.5980530">
        <ele>637.2</ele>
        <time>2022-06-26T09:59:08Z</time>
      </trkpt>
      <trkpt lat="42.9465900" lon="1.5982850">
        <ele>634.9</ele>
        <time>2022-06-26T09:59:10Z</time>
      </trkpt>
      <trkpt lat="42.9465300" lon="1.5985390">
        <ele>632.4</ele>
        <time>2022-06-26T09:59:12Z</time>
      </trkpt>
      <trkpt lat="42.9464780" lon="1.5987710">
        <ele>630.1</ele>
        <time>2022-06-26T09:59:14Z</time>
      </trkpt>
      <trkpt lat="42.9464290" lon="1.5991100">
        <ele>626.6</ele>
        <time>2022-06-26T09:59:17Z</time>
      </trkpt>
      <trkpt lat="42.9464350" lon="1.5992220">
        <ele>625.5</ele>
        <time>2022-06-26T09:59:18Z</time>
      </trkpt>
      <trkpt lat="42.9464840" lon="1.5994400">
        <ele>623.1</ele>
        <time>2022-06-26T09:59:20Z</time>
      </trkpt>
      <trkpt lat="42.9465280" lon="1.5995370">
        <ele>621.9</ele>
        <time>2022-06-26T09:59:21Z</time>
      </trkpt>
      <trkpt lat="42.9465780" lon="1.5996300">
        <ele>620.9</ele>
        <time>2022-06-26T09:59:22Z</time>
      </trkpt>
      <trkpt lat="42.9466220" lon="1.5997340">
        <ele>619.9</ele>
        <time>2022-06-26T09:59:23Z</time>
      </trkpt>
      <trkpt lat="42.9466740" lon="1.5999570">
        <ele>617.9</ele>
        <time>2022-06-26T09:59:25Z</time>
      </trkpt>
      <trkpt lat="42.9466860" lon="1.6001700">
        <ele>616.1</ele>
        <time>2022-06-26T09:59:27Z</time>
      </trkpt>
      <trkpt lat="42.9467040" lon="1.6003730">
        <ele>614.3</ele>
        <time>2022-06-26T09:59:29Z</time>
      </trkpt>
      <trkpt lat="42.9467380" lon="1.6004660">
        <ele>613.4</ele>
        <time>2022-06-26T09:59:30Z</time>
      </trkpt>
      <trkpt lat="42.9467930" lon="1.6005460">
        <ele>612.5</ele>
        <time>2022-06-26T09:59:31Z</time>
      </trkpt>
      <trkpt lat="42.9469490" lon="1.6006770">
        <ele>610.4</ele>
        <time>2022-06-26T09:59:33Z</time>
      </trkpt>
      <trkpt lat="42.9470930" lon="1.6008570">
        <ele>608.1</ele>
        <time>2022-06-26T09:59:35Z</time>
      </trkpt>
      <trkpt lat="42.9471530" lon="1.6009650">
        <ele>606.9</ele>
        <time>2022-06-26T09:59:36Z</time>
      </trkpt>
      <trkpt lat="42.9472440" lon="1.6012210">
        <ele>604.5</ele>
        <time>2022-06-26T09:59:38Z</time>
      </trkpt>
      <trkpt lat="42.9472850" lon="1.6013660">
        <ele>603.2</ele>
        <time>2022-06-26T09:59:39Z</time>
      </trkpt>
      <trkpt lat="42.9473240" lon="1.6015200">
        <ele>601.8</ele>
        <time>2022-06-26T09:59:40Z</time>
      </trkpt>
      <trkpt lat="42.9473840" lon="1.6018540">
        <ele>598.8</ele>
        <time>2022-06-26T09:59:42Z</time>
      </trkpt>
      <trkpt lat="42.9474050" lon="1.6020290">
        <ele>597.3</ele>
        <time>2022-06-26T09:59:43Z</time>
      </trkpt>
      <trkpt lat="42.9474230" lon="1.6022040">
        <ele>595.8</ele>
        <time>2022-06-26T09:59:44Z</time>
      </trkpt>
      <trkpt lat="42.9474600" lon="1.6025450">
        <ele>592.9</ele>
        <time>2022-06-26T09:59:46Z</time>
      </trkpt>
      <trkpt lat="42.9474980" lon="1.6028640">
        <ele>590.1</ele>
        <time>2022-06-26T09:59:48Z</time>
      </trkpt>
      <trkpt lat="42.9475270" lon="1.6031700">
        <ele>587.5</ele>
        <time>2022-06-26T09:59:50Z</time>
      </trkpt>
      <trkpt lat="42.9475410" lon="1.6034280">
        <ele>585.3</ele>
        <time>2022-06-26T09:59:52Z</time>
      </trkpt>
      <trkpt lat="42.9475420" lon="1.6035360">
        <ele>584.4</ele>
        <time>2022-06-26T09:59:53Z</time>
      </trkpt>
      <trkpt lat="42.9475430" lon="1.6036410">
        <ele>583.5</ele>
        <time>2022-06-26T09:59:54Z</time>
      </trkpt>
      <trkpt lat="42.9475380" lon="1.6038340">
        <ele>581.8</ele>
        <time>2022-06-26T09:59:56Z</time>
      </trkpt>
      <trkpt lat="42.9475320" lon="1.6039220">
        <ele>581.1</ele>
        <time>2022-06-26T09:59:57Z</time>
      </trkpt>
      <trkpt lat="42.9475130" lon="1.6039970">
        <ele>580.4</ele>
        <time>2022-06-26T09:59:58Z</time>
      </trkpt>
      <trkpt lat="42.9474160" lon="1.6041170">
        <ele>578.9</ele>
        <time>2022-06-26T10:00:00Z</time>
      </trkpt>
      <trkpt lat="42.9472850" lon="1.6040830">
        <ele>577.3</ele>
        <time>2022-06-26T10:00:02Z</time>
      </trkpt>
      <trkpt lat="42.9472140" lon="1.6040370">
        <ele>576.4</ele>
        <time>2022-06-26T10:00:03Z</time>
      </trkpt>
      <trkpt lat="42.9470480" lon="1.6039160">
        <ele>574.2</ele>
        <time>2022-06-26T10:00:05Z</time>
      </trkpt>
      <trkpt lat="42.9468820" lon="1.6037380">
        <ele>571.7</ele>
        <time>2022-06-26T10:00:07Z</time>
      </trkpt>
      <trkpt lat="42.9467480" lon="1.6035310">
        <ele>569.4</ele>
        <time>2022-06-26T10:00:09Z</time>
      </trkpt>
      <trkpt lat="42.9466620" lon="1.6032930">
        <ele>567.1</ele>
        <time>2022-06-26T10:00:11Z</time>
      </trkpt>
      <trkpt lat="42.9466460" lon="1.6031710">
        <ele>566.0</ele>
        <time>2022-06-26T10:00:12Z</time>
      </trkpt>
      <trkpt lat="42.9466300" lon="1.6029390">
        <ele>564.1</ele>
        <time>2022-06-26T10:00:14Z</time>
      </trkpt>
      <trkpt lat="42.9466100" lon="1.6028260">
        <ele>563.1</ele>
        <time>2022-06-26T10:00:15Z</time>
      </trkpt>
      <trkpt lat="42.9465740" lon="1.6027240">
        <ele>562.1</ele>
        <time>2022-06-26T10:00:16Z</time>
      </trkpt>
      <trkpt lat="42.9465240" lon="1.6026350">
        <ele>561.1</ele>
        <time>2022-06-26T10:00:17Z</time>
      </trkpt>
      <trkpt lat="42.9464210" lon="1.6025220">
        <ele>559.6</ele>
        <time>2022-06-26T10:00:19Z</time>
      </trkpt>
      <trkpt lat="42.9463260" lon="1.6024730">
        <ele>558.4</ele>
        <time>2022-06-26T10:00:21Z</time>
      </trkpt>
      <trkpt lat="42.9462850" lon="1.6024860">
        <ele>557.9</ele>
        <time>2022-06-26T10:00:22Z</time>
      </trkpt>
      <trkpt lat="42.9462460" lon="1.6026010">
        <ele>556.8</ele>
        <time>2022-06-26T10:00:24Z</time>
      </trkpt>
      <trkpt lat="42.9462920" lon="1.6027510">
        <ele>555.5</ele>
        <time>2022-06-26T10:00:26Z</time>
      </trkpt>
      <trkpt lat="42.9463200" lon="1.6028370">
        <ele>554.7</ele>
        <time>2022-06-26T10:00:27Z</time>
      </trkpt>
      <trkpt lat="42.9463260" lon="1.6029370">
        <ele>553.8</ele>
        <time>2022-06-26T10:00:28Z</time>
      </trkpt>
      <trkpt lat="42.9462980" lon="1.6030400">
        <ele>552.9</ele>
        <time>2022-06-26T10:00:29Z</time>
      </trkpt>
      <trkpt lat="42.9462450" lon="1.6031390">
        <ele>551.8</ele>
        <time>2022-06-26T10:00:30Z</time>
      </trkpt>
      <trkpt lat="42.9461150" lon="1.6033180">
        <ele>549.7</ele>
        <time>2022-06-26T10:00:32Z</time>
      </trkpt>
      <trkpt lat="42.9460560" lon="1.6033910">
        <ele>548.7</ele>
        <time>2022-06-26T10:00:33Z</time>
      </trkpt>
      <trkpt lat="42.9460060" lon="1.6034660">
        <ele>547.9</ele>
        <time>2022-06-26T10:00:34Z</time>
      </trkpt>
      <trkpt lat="42.9459260" lon="1.6036510">
        <ele>546.0</ele>
        <time>2022-06-26T10:00:36Z</time>
      </trkpt>
      <trkpt lat="42.9458950" lon="1.6037600">
        <ele>545.0</ele>
        <time>2022-06-26T10:00:37Z</time>
      </trkpt>
      <trkpt lat="42.9458640" lon="1.6038790">
        <ele>544.0</ele>
        <time>2022-06-26T10:00:38Z</time>
      </trkpt>
      <trkpt lat="42.9458370" lon="1.6040080">
        <ele>542.8</ele>
        <time>2022-06-26T10:00:39Z</time>
      </trkpt>
      <trkpt lat="42.9458170" lon="1.6041450">
        <ele>541.6</ele>
        <time>2022-06-26T10:00:40Z</time>
      </trkpt>
      <trkpt lat="42.9458020" lon="1.6042830">
        <ele>540.4</ele>
        <time>2022-06-26T10:00:41Z</time>
      </trkpt>
      <trkpt lat="42.9457970" lon="1.6045810">
        <ele>537.9</ele>
        <time>2022-06-26T10:00:43Z</time>
      </trkpt>
      <trkpt lat="42.9458120" lon="1.6047310">
        <ele>536.6</ele>
        <time>2022-06-26T10:00:44Z</time>
      </trkpt>
      <trkpt lat="42.9458580" lon="1.6050020">
        <ele>535.1</ele>
        <time>2022-06-26T10:00:46Z</time>
      </trkpt>
      <trkpt lat="42.9458900" lon="1.6051280">
        <ele>534.9</ele>
        <time>2022-06-26T10:00:47Z</time>
      </trkpt>
      <trkpt lat="42.9459260" lon="1.6052400">
        <ele>534.8</ele>
        <time>2022-06-26T10:00:48Z</time>
      </trkpt>
      <trkpt lat="42.9459700" lon="1.6053300">
        <ele>534.6</ele>
        <time>2022-06-26T10:00:49Z</time>
      </trkpt>
      <trkpt lat="42.9460270" lon="1.6054110">
        <ele>534.3</ele>
        <time>2022-06-26T10:00:50Z</time>
      </trkpt>
      <trkpt lat="42.9461630" lon="1.6055320">
        <ele>533.8</ele>
        <time>2022-06-26T10:00:52Z</time>
      </trkpt>
      <trkpt lat="42.9463050" lon="1.6056520">
        <ele>533.2</ele>
        <time>2022-06-26T10:00:54Z</time>
      </trkpt>
      <trkpt lat="42.9464550" lon="1.6057700">
        <ele>532.7</ele>
        <time>2022-06-26T10:00:56Z</time>
      </trkpt>
      <trkpt lat="42.9465300" lon="1.6058250">
        <ele>532.3</ele>
        <time>2022-06-26T10:00:57Z</time>
      </trkpt>
      <trkpt lat="42.9466050" lon="1.6058830">
        <ele>532.0</ele>
        <time>2022-06-26T10:00:58Z</time>
      </trkpt>
      <trkpt lat="42.9466800" lon="1.6059430">
        <ele>531.6</ele>
        <time>2022-06-26T10:00:59Z</time>
      </trkpt>
      <trkpt lat="42.9469130" lon="1.6061230">
        <ele>530.3</ele>
        <time>2022-06-26T10:01:02Z</time>
      </trkpt>
      <trkpt lat="42.9469910" lon="1.6061860">
        <ele>529.7</ele>
        <time>2022-06-26T10:01:03Z</time>
      </trkpt>
      <trkpt lat="42.9471580" lon="1.6063130">
        <ele>528.6</ele>
        <time>2022-06-26T10:01:05Z</time>
      </trkpt>
      <trkpt lat="42.9472390" lon="1.6063880">
        <ele>527.9</ele>
        <time>2022-06-26T10:01:06Z</time>
      </trkpt>
      <trkpt lat="42.9473880" lon="1.6065740">
        <ele>526.5</ele>
        <time>2022-06-26T10:01:08Z</time>
      </trkpt>
      <trkpt lat="42.9474550" lon="1.6066830">
        <ele>525.6</ele>
        <time>2022-06-26T10:01:09Z</time>
      </trkpt>
      <trkpt lat="42.9475180" lon="1.6068010">
        <ele>524.7</ele>
        <time>2022-06-26T10:01:10Z</time>
      </trkpt>
      <trkpt lat="42.9476370" lon="1.6070540">
        <ele>522.7</ele>
        <time>2022-06-26T10:01:12Z</time>
      </trkpt>
      <trkpt lat="42.9477990" lon="1.6074610">
        <ele>519.7</ele>
        <time>2022-06-26T10:01:15Z</time>
      </trkpt>
      <trkpt lat="42.9478900" lon="1.6077370">
        <ele>517.7</ele>
        <time>2022-06-26T10:01:17Z</time>
      </trkpt>
      <trkpt lat="42.9479250" lon="1.6078830">
        <ele>516.6</ele>
        <time>2022-06-26T10:01:18Z</time>
      </trkpt>
      <trkpt lat="42.9479490" lon="1.6080330">
        <ele>515.5</ele>
        <time>2022-06-26T10:01:19Z</time>
      </trkpt>
      <trkpt lat="42.9479650" lon="1.6081820">
        <ele>514.5</ele>
        <time>2022-06-26T10:01:20Z</time>
      </trkpt>
      <trkpt lat="42.9479770" lon="1.6084700">
        <ele>512.5</ele>
        <time>2022-06-26T10:01:22Z</time>
      </trkpt>
      <trkpt lat="42.9479800" lon="1.6087390">
        <ele>510.9</ele>
        <time>2022-06-26T10:01:24Z</time>
      </trkpt>
      <trkpt lat="42.9480010" lon="1.6089980">
        <ele>509.6</ele>
        <time>2022-06-26T10:01:26Z</time>
      </trkpt>
      <trkpt lat="42.9480600" lon="1.6092380">
        <ele>508.6</ele>
        <time>2022-06-26T10:01:28Z</time>
      </trkpt>
      <trkpt lat="42.9481470" lon="1.6094790">
        <ele>507.6</ele>
        <time>2022-06-26T10:01:30Z</time>
      </trkpt>
      <trkpt lat="42.9482410" lon="1.6097120">
        <ele>506.9</ele>
        <time>2022-06-26T10:01:32Z</time>
      </trkpt>
      <trkpt lat="42.9483500" lon="1.6099370">
        <ele>506.7</ele>
        <time>2022-06-26T10:01:34Z</time>
      </trkpt>
      <trkpt lat="42.9485640" lon="1.6101950">
        <ele>506.5</ele>
        <time>2022-06-26T10:01:37Z</time>
      </trkpt>
      <trkpt lat="42.9486400" lon="1.6102650">
        <ele>506.4</ele>
        <time>2022-06-26T10:01:38Z</time>
      </trkpt>
      <trkpt lat="42.9487880" lon="1.6103990">
        <ele>506.2</ele>
        <time>2022-06-26T10:01:40Z</time>
      </trkpt>
      <trkpt lat="42.9490650" lon="1.6106780">
        <ele>505.8</ele>
        <time>2022-06-26T10:01:44Z</time>
      </trkpt>
      <trkpt lat="42.9492460" lon="1.6109010">
        <ele>505.2</ele>
        <time>2022-06-26T10:01:47Z</time>
      </trkpt>
      <trkpt lat="42.9492990" lon="1.6109780">
        <ele>504.9</ele>
        <time>2022-06-26T10:01:48Z</time>
      </trkpt>
      <trkpt lat="42.9493460" lon="1.6110620">
        <ele>504.4</ele>
        <time>2022-06-26T10:01:49Z</time>
      </trkpt>
      <trkpt lat="42.9493880" lon="1.6111560">
        <ele>503.9</ele>
        <time>2022-06-26T10:01:50Z</time>
      </trkpt>
      <trkpt lat="42.9494610" lon="1.6113530">
        <ele>502.5</ele>
        <time>2022-06-26T10:01:52Z</time>
      </trkpt>
      <trkpt lat="42.9494930" lon="1.6114430">
        <ele>501.9</ele>
        <time>2022-06-26T10:01:53Z</time>
      </trkpt>
      <trkpt lat="42.9495340" lon="1.6115250">
        <ele>501.2</ele>
        <time>2022-06-26T10:01:54Z</time>
      </trkpt>
      <trkpt lat="42.9495820" lon="1.6115940">
        <ele>500.6</ele>
        <time>2022-06-26T10:01:55Z</time>
      </trkpt>
      <trkpt lat="42.9496330" lon="1.6116470">
        <ele>500.0</ele>
        <time>2022-06-26T10:01:56Z</time>
      </trkpt>
      <trkpt lat="42.9497540" lon="1.6116880">
        <ele>498.8</ele>
        <time>2022-06-26T10:01:58Z</time>
      </trkpt>
      <trkpt lat="42.9498220" lon="1.6116670">
        <ele>498.2</ele>
        <time>2022-06-26T10:01:59Z</time>
      </trkpt>
      <trkpt lat="42.9499920" lon="1.6114510">
        <ele>496.1</ele>
        <time>2022-06-26T10:02:02Z</time>
      </trkpt>
      <trkpt lat="42.9500880" lon="1.6112450">
        <ele>494.5</ele>
        <time>2022-06-26T10:02:04Z</time>
      </trkpt>
      <trkpt lat="42.9501300" lon="1.6111280">
        <ele>493.6</ele>
        <time>2022-06-26T10:02:05Z</time>
      </trkpt>
      <trkpt lat="42.9501690" lon="1.6110050">
        <ele>492.7</ele>
        <time>2022-06-26T10:02:06Z</time>
      </trkpt>
      <trkpt lat="42.9502650" lon="1.6106010">
        <ele>489.9</ele>
        <time>2022-06-26T10:02:09Z</time>
      </trkpt>
      <trkpt lat="42.9503070" lon="1.6103010">
        <ele>487.9</ele>
        <time>2022-06-26T10:02:11Z</time>
      </trkpt>
      <trkpt lat="42.9503260" lon="1.6101460">
        <ele>486.9</ele>
        <time>2022-06-26T10:02:12Z</time>
      </trkpt>
      <trkpt lat="42.9503520" lon="1.6096660">
        <ele>483.5</ele>
        <time>2022-06-26T10:02:15Z</time>
      </trkpt>
      <trkpt lat="42.9503540" lon="1.6095030">
        <ele>482.3</ele>
        <time>2022-06-26T10:02:16Z</time>
      </trkpt>
      <trkpt lat="42.9503430" lon="1.6091780">
        <ele>480.2</ele>
        <time>2022-06-26T10:02:18Z</time>
      </trkpt>
      <trkpt lat="42.9503200" lon="1.6088730">
        <ele>478.2</ele>
        <time>2022-06-26T10:02:20Z</time>
      </trkpt>
      <trkpt lat="42.9503070" lon="1.6087140">
        <ele>477.2</ele>
        <time>2022-06-26T10:02:21Z</time>
      </trkpt>
      <trkpt lat="42.9502880" lon="1.6084280">
        <ele>475.5</ele>
        <time>2022-06-26T10:02:23Z</time>
      </trkpt>
      <trkpt lat="42.9502940" lon="1.6082910">
        <ele>474.6</ele>
        <time>2022-06-26T10:02:24Z</time>
      </trkpt>
      <trkpt lat="42.9503020" lon="1.6081520">
        <ele>473.7</ele>
        <time>2022-06-26T10:02:25Z</time>
      </trkpt>
      <trkpt lat="42.9503240" lon="1.6080160">
        <ele>472.9</ele>
        <time>2022-06-26T10:02:26Z</time>
      </trkpt>
      <trkpt lat="42.9503990" lon="1.6077710">
        <ele>471.2</ele>
        <time>2022-06-26T10:02:28Z</time>
      </trkpt>
      <trkpt lat="42.9504830" lon="1.6075860">
        <ele>470.0</ele>
        <time>2022-06-26T10:02:30Z</time>
      </trkpt>
      <trkpt lat="42.9505360" lon="1.6075240">
        <ele>469.4</ele>
        <time>2022-06-26T10:02:31Z</time>
      </trkpt>
      <trkpt lat="42.9506680" lon="1.6074830">
        <ele>468.2</ele>
        <time>2022-06-26T10:02:33Z</time>
      </trkpt>
      <trkpt lat="42.9508400" lon="1.6076870">
        <ele>465.9</ele>
        <time>2022-06-26T10:02:35Z</time>
      </trkpt>
      <trkpt lat="42.9508930" lon="1.6077910">
        <ele>465.0</ele>
        <time>2022-06-26T10:02:36Z</time>
      </trkpt>
      <trkpt lat="42.9509660" lon="1.6079930">
        <ele>463.4</ele>
        <time>2022-06-26T10:02:38Z</time>
      </trkpt>
      <trkpt lat="42.9510510" lon="1.6082050">
        <ele>461.9</ele>
        <time>2022-06-26T10:02:40Z</time>
      </trkpt>
      <trkpt lat="42.9511030" lon="1.6083000">
        <ele>461.3</ele>
        <time>2022-06-26T10:02:41Z</time>
      </trkpt>
      <trkpt lat="42.9511710" lon="1.6083800">
        <ele>460.8</ele>
        <time>2022-06-26T10:02:42Z</time>
      </trkpt>
      <trkpt lat="42.9514130" lon="1.6085500">
        <ele>459.6</ele>
        <time>2022-06-26T10:02:45Z</time>
      </trkpt>
      <trkpt lat="42.9515050" lon="1.6085760">
        <ele>459.2</ele>
        <time>2022-06-26T10:02:46Z</time>
      </trkpt>
      <trkpt lat="42.9516870" lon="1.6085670">
        <ele>458.4</ele>
        <time>2022-06-26T10:02:48Z</time>
      </trkpt>
      <trkpt lat="42.9517770" lon="1.6085470">
        <ele>458.0</ele>
        <time>2022-06-26T10:02:49Z</time>
      </trkpt>
      <trkpt lat="42.9518700" lon="1.6085230">
        <ele>457.5</ele>
        <time>2022-06-26T10:02:50Z</time>
      </trkpt>
      <trkpt lat="42.9519670" lon="1.6085020">
        <ele>457.1</ele>
        <time>2022-06-26T10:02:51Z</time>
      </trkpt>
      <trkpt lat="42.9523560" lon="1.6084540">
        <ele>455.3</ele>
        <time>2022-06-26T10:02:55Z</time>
      </trkpt>
      <trkpt lat="42.9525460" lon="1.6084080">
        <ele>454.5</ele>
        <time>2022-06-26T10:02:57Z</time>
      </trkpt>
      <trkpt lat="42.9526390" lon="1.6083660">
        <ele>454.1</ele>
        <time>2022-06-26T10:02:58Z</time>
      </trkpt>
      <trkpt lat="42.9527270" lon="1.6083030">
        <ele>453.7</ele>
        <time>2022-06-26T10:02:59Z</time>
      </trkpt>
      <trkpt lat="42.9528820" lon="1.6081400">
        <ele>452.8</ele>
        <time>2022-06-26T10:03:01Z</time>
      </trkpt>
      <trkpt lat="42.9529510" lon="1.6080460">
        <ele>452.4</ele>
        <time>2022-06-26T10:03:02Z</time>
      </trkpt>
      <trkpt lat="42.9530180" lon="1.6079480">
        <ele>451.9</ele>
        <time>2022-06-26T10:03:03Z</time>
      </trkpt>
      <trkpt lat="42.9531590" lon="1.6077650">
        <ele>451.1</ele>
        <time>2022-06-26T10:03:05Z</time>
      </trkpt>
      <trkpt lat="42.9532430" lon="1.6076970">
        <ele>450.7</ele>
        <time>2022-06-26T10:03:06Z</time>
      </trkpt>
      <trkpt lat="42.9534290" lon="1.6076560">
        <ele>449.9</ele>
        <time>2022-06-26T10:03:08Z</time>
      </trkpt>
      <trkpt lat="42.9535180" lon="1.6076850">
        <ele>449.5</ele>
        <time>2022-06-26T10:03:09Z</time>
      </trkpt>
      <trkpt lat="42.9536720" lon="1.6077930">
        <ele>448.7</ele>
        <time>2022-06-26T10:03:11Z</time>
      </trkpt>
      <trkpt lat="42.9537440" lon="1.6078380">
        <ele>448.3</ele>
        <time>2022-06-26T10:03:12Z</time>
      </trkpt>
      <trkpt lat="42.9538200" lon="1.6078640">
        <ele>448.1</ele>
        <time>2022-06-26T10:03:13Z</time>
      </trkpt>
      <trkpt lat="42.9539000" lon="1.6078670">
        <ele>447.7</ele>
        <time>2022-06-26T10:03:14Z</time>
      </trkpt>
      <trkpt lat="42.9540590" lon="1.6078140">
        <ele>446.9</ele>
        <time>2022-06-26T10:03:16Z</time>
      </trkpt>
      <trkpt lat="42.9541360" lon="1.6077580">
        <ele>446.5</ele>
        <time>2022-06-26T10:03:17Z</time>
      </trkpt>
      <trkpt lat="42.9542110" lon="1.6076920">
        <ele>446.0</ele>
        <time>2022-06-26T10:03:18Z</time>
      </trkpt>
      <trkpt lat="42.9544380" lon="1.6074770">
        <ele>444.8</ele>
        <time>2022-06-26T10:03:21Z</time>
      </trkpt>
      <trkpt lat="42.9546720" lon="1.6072620">
        <ele>443.4</ele>
        <time>2022-06-26T10:03:24Z</time>
      </trkpt>
      <trkpt lat="42.9549120" lon="1.6070450">
        <ele>442.0</ele>
        <time>2022-06-26T10:03:27Z</time>
      </trkpt>
      <trkpt lat="42.9551590" lon="1.6068240">
        <ele>440.6</ele>
        <time>2022-06-26T10:03:30Z</time>
      </trkpt>
      <trkpt lat="42.9553090" lon="1.6066430">
        <ele>440.0</ele>
        <time>2022-06-26T10:03:32Z</time>
      </trkpt>
      <trkpt lat="42.9554290" lon="1.6064290">
        <ele>439.8</ele>
        <time>2022-06-26T10:03:34Z</time>
      </trkpt>
      <trkpt lat="42.9555690" lon="1.6061190">
        <ele>439.2</ele>
        <time>2022-06-26T10:03:37Z</time>
      </trkpt>
      <trkpt lat="42.9556090" lon="1.6060230">
        <ele>439.1</ele>
        <time>2022-06-26T10:03:38Z</time>
      </trkpt>
      <trkpt lat="42.9556490" lon="1.6059360">
        <ele>438.9</ele>
        <time>2022-06-26T10:03:39Z</time>
      </trkpt>
      <trkpt lat="42.9557320" lon="1.6058020">
        <ele>438.7</ele>
        <time>2022-06-26T10:03:41Z</time>
      </trkpt>
      <trkpt lat="42.9558440" lon="1.6057550">
        <ele>437.9</ele>
        <time>2022-06-26T10:03:43Z</time>
      </trkpt>
      <trkpt lat="42.9559050" lon="1.6057590">
        <ele>437.6</ele>
        <time>2022-06-26T10:03:44Z</time>
      </trkpt>
      <trkpt lat="42.9559630" lon="1.6057770">
        <ele>437.3</ele>
        <time>2022-06-26T10:03:45Z</time>
      </trkpt>
      <trkpt lat="42.9560210" lon="1.6058050">
        <ele>437.0</ele>
        <time>2022-06-26T10:03:46Z</time>
      </trkpt>
      <trkpt lat="42.9560810" lon="1.6058400">
        <ele>436.7</ele>
        <time>2022-06-26T10:03:47Z</time>
      </trkpt>
      <trkpt lat="42.9561420" lon="1.6058800">
        <ele>436.4</ele>
        <time>2022-06-26T10:03:48Z</time>
      </trkpt>
      <trkpt lat="42.9562070" lon="1.6059190">
        <ele>436.1</ele>
        <time>2022-06-26T10:03:49Z</time>
      </trkpt>
      <trkpt lat="42.9563450" lon="1.6059790">
        <ele>435.4</ele>
        <time>2022-06-26T10:03:51Z</time>
      </trkpt>
      <trkpt lat="42.9564860" lon="1.6059950">
        <ele>434.4</ele>
        <time>2022-06-26T10:03:53Z</time>
      </trkpt>
      <trkpt lat="42.9565580" lon="1.6059940">
        <ele>433.8</ele>
        <time>2022-06-26T10:03:54Z</time>
      </trkpt>
      <trkpt lat="42.9567680" lon="1.6059890">
        <ele>432.1</ele>
        <time>2022-06-26T10:03:57Z</time>
      </trkpt>
      <trkpt lat="42.9568270" lon="1.6059930">
        <ele>431.7</ele>
        <time>2022-06-26T10:03:58Z</time>
      </trkpt>
      <trkpt lat="42.9568760" lon="1.6059950">
        <ele>431.5</ele>
        <time>2022-06-26T10:03:59Z</time>
      </trkpt>
      <trkpt lat="42.9569650" lon="1.6060110">
        <ele>431.1</ele>
        <time>2022-06-26T10:04:01Z</time>
      </trkpt>
      <trkpt lat="42.9570160" lon="1.6060140">
        <ele>430.7</ele>
        <time>2022-06-26T10:04:02Z</time>
      </trkpt>
      <trkpt lat="42.9571330" lon="1.6059890">
        <ele>429.7</ele>
        <time>2022-06-26T10:04:04Z</time>
      </trkpt>
      <trkpt lat="42.9571970" lon="1.6059550">
        <ele>429.1</ele>
        <time>2022-06-26T10:04:05Z</time>
      </trkpt>
      <trkpt lat="42.9573270" lon="1.6058590">
        <ele>428.0</ele>
        <time>2022-06-26T10:04:07Z</time>
      </trkpt>
      <trkpt lat="42.9574570" lon="1.6057420">
        <ele>427.0</ele>
        <time>2022-06-26T10:04:09Z</time>
      </trkpt>
      <trkpt lat="42.9575200" lon="1.6056800">
        <ele>426.6</ele>
        <time>2022-06-26T10:04:10Z</time>
      </trkpt>
      <trkpt lat="42.9575800" lon="1.6056270">
        <ele>426.3</ele>
        <time>2022-06-26T10:04:11Z</time>
      </trkpt>
      <trkpt lat="42.9576950" lon="1.6055400">
        <ele>425.9</ele>
        <time>2022-06-26T10:04:13Z</time>
      </trkpt>
      <trkpt lat="42.9577480" lon="1.6055050">
        <ele>425.7</ele>
        <time>2022-06-26T10:04:14Z</time>
      </trkpt>
      <trkpt lat="42.9578000" lon="1.6054760">
        <ele>425.6</ele>
        <time>2022-06-26T10:04:15Z</time>
      </trkpt>
      <trkpt lat="42.9578530" lon="1.6054540">
        <ele>425.5</ele>
        <time>2022-06-26T10:04:16Z</time>
      </trkpt>
      <trkpt lat="42.9579520" lon="1.6054430">
        <ele>424.6</ele>
        <time>2022-06-26T10:04:18Z</time>
      </trkpt>
      <trkpt lat="42.9580240" lon="1.6055110">
        <ele>424.0</ele>
        <time>2022-06-26T10:04:20Z</time>
      </trkpt>
      <trkpt lat="42.9580550" lon="1.6055690">
        <ele>423.6</ele>
        <time>2022-06-26T10:04:21Z</time>
      </trkpt>
      <trkpt lat="42.9580840" lon="1.6056340">
        <ele>423.2</ele>
        <time>2022-06-26T10:04:22Z</time>
      </trkpt>
      <trkpt lat="42.9581420" lon="1.6057790">
        <ele>422.5</ele>
        <time>2022-06-26T10:04:24Z</time>
      </trkpt>
      <trkpt lat="42.9582030" lon="1.6059380">
        <ele>421.8</ele>
        <time>2022-06-26T10:04:26Z</time>
      </trkpt>
      <trkpt lat="42.9582400" lon="1.6060150">
        <ele>421.4</ele>
        <time>2022-06-26T10:04:27Z</time>
      </trkpt>
      <trkpt lat="42.9582850" lon="1.6060880">
        <ele>421.0</ele>
        <time>2022-06-26T10:04:28Z</time>
      </trkpt>
      <trkpt lat="42.9583990" lon="1.6061960">
        <ele>420.2</ele>
        <time>2022-06-26T10:04:30Z</time>
      </trkpt>
      <trkpt lat="42.9585310" lon="1.6062360">
        <ele>419.5</ele>
        <time>2022-06-26T10:04:32Z</time>
      </trkpt>
      <trkpt lat="42.9586010" lon="1.6062300">
        <ele>419.1</ele>
        <time>2022-06-26T10:04:33Z</time>
      </trkpt>
      <trkpt lat="42.9587440" lon="1.6061830">
        <ele>418.3</ele>
        <time>2022-06-26T10:04:35Z</time>
      </trkpt>
      <trkpt lat="42.9588910" lon="1.6060990">
        <ele>417.5</ele>
        <time>2022-06-26T10:04:37Z</time>
      </trkpt>
      <trkpt lat="42.9589630" lon="1.6060510">
        <ele>417.1</ele>
        <time>2022-06-26T10:04:38Z</time>
      </trkpt>
      <trkpt lat="42.9591080" lon="1.6059460">
        <ele>416.3</ele>
        <time>2022-06-26T10:04:40Z</time>
      </trkpt>
      <trkpt lat="42.9592420" lon="1.6058310">
        <ele>415.6</ele>
        <time>2022-06-26T10:04:42Z</time>
      </trkpt>
      <trkpt lat="42.9592960" lon="1.6057830">
        <ele>415.3</ele>
        <time>2022-06-26T10:04:43Z</time>
      </trkpt>
      <trkpt lat="42.9593420" lon="1.6057400">
        <ele>415.0</ele>
        <time>2022-06-26T10:04:44Z</time>
      </trkpt>
      <trkpt lat="42.9593870" lon="1.6056960">
        <ele>414.7</ele>
        <time>2022-06-26T10:04:45Z</time>
      </trkpt>
      <trkpt lat="42.9594350" lon="1.6056530">
        <ele>414.5</ele>
        <time>2022-06-26T10:04:46Z</time>
      </trkpt>
      <trkpt lat="42.9595380" lon="1.6055610">
        <ele>413.9</ele>
        <time>2022-06-26T10:04:48Z</time>
      </trkpt>
      <trkpt lat="42.9596470" lon="1.6054580">
        <ele>413.3</ele>
        <time>2022-06-26T10:04:50Z</time>
      </trkpt>
      <trkpt lat="42.9597610" lon="1.6053500">
        <ele>412.6</ele>
        <time>2022-06-26T10:04:52Z</time>
      </trkpt>
      <trkpt lat="42.9598810" lon="1.6052410">
        <ele>411.9</ele>
        <time>2022-06-26T10:04:54Z</time>
      </trkpt>
      <trkpt lat="42.9599420" lon="1.6051860">
        <ele>411.6</ele>
        <time>2022-06-26T10:04:55Z</time>
      </trkpt>
      <trkpt lat="42.9601340" lon="1.6050210">
        <ele>410.4</ele>
        <time>2022-06-26T10:04:58Z</time>
      </trkpt>
      <trkpt lat="42.9603380" lon="1.6048540">
        <ele>409.3</ele>
        <time>2022-06-26T10:05:01Z</time>
      </trkpt>
      <trkpt lat="42.9605550" lon="1.6046920">
        <ele>408.1</ele>
        <time>2022-06-26T10:05:04Z</time>
      </trkpt>
      <trkpt lat="42.9607030" lon="1.6045870">
        <ele>407.3</ele>
        <time>2022-06-26T10:05:06Z</time>
      </trkpt>
      <trkpt lat="42.9607780" lon="1.6045360">
        <ele>406.9</ele>
        <time>2022-06-26T10:05:07Z</time>
      </trkpt>
      <trkpt lat="42.9609280" lon="1.6044390">
        <ele>406.1</ele>
        <time>2022-06-26T10:05:09Z</time>
      </trkpt>
      <trkpt lat="42.9610820" lon="1.6043480">
        <ele>405.4</ele>
        <time>2022-06-26T10:05:11Z</time>
      </trkpt>
      <trkpt lat="42.9612420" lon="1.6042720">
        <ele>404.6</ele>
        <time>2022-06-26T10:05:13Z</time>
      </trkpt>
      <trkpt lat="42.9614050" lon="1.6042010">
        <ele>403.7</ele>
        <time>2022-06-26T10:05:15Z</time>
      </trkpt>
      <trkpt lat="42.9614890" lon="1.6041660">
        <ele>403.3</ele>
        <time>2022-06-26T10:05:16Z</time>
      </trkpt>
      <trkpt lat="42.9617450" lon="1.6040650">
        <ele>402.0</ele>
        <time>2022-06-26T10:05:19Z</time>
      </trkpt>
      <trkpt lat="42.9620960" lon="1.6039230">
        <ele>400.4</ele>
        <time>2022-06-26T10:05:23Z</time>
      </trkpt>
      <trkpt lat="42.9621820" lon="1.6038990">
        <ele>400.0</ele>
        <time>2022-06-26T10:05:24Z</time>
      </trkpt>
      <trkpt lat="42.9624190" lon="1.6038810">
        <ele>398.9</ele>
        <time>2022-06-26T10:05:27Z</time>
      </trkpt>
      <trkpt lat="42.9624940" lon="1.6038950">
        <ele>398.5</ele>
        <time>2022-06-26T10:05:28Z</time>
      </trkpt>
      <trkpt lat="42.9626450" lon="1.6039420">
        <ele>397.9</ele>
        <time>2022-06-26T10:05:30Z</time>
      </trkpt>
      <trkpt lat="42.9628690" lon="1.6040440">
        <ele>397.3</ele>
        <time>2022-06-26T10:05:33Z</time>
      </trkpt>
      <trkpt lat="42.9629420" lon="1.6040760">
        <ele>397.1</ele>
        <time>2022-06-26T10:05:34Z</time>
      </trkpt>
      <trkpt lat="42.9630110" lon="1.6041090">
        <ele>397.0</ele>
        <time>2022-06-26T10:05:35Z</time>
      </trkpt>
      <trkpt lat="42.9631390" lon="1.6041690">
        <ele>396.9</ele>
        <time>2022-06-26T10:05:37Z</time>
      </trkpt>
      <trkpt lat="42.9632370" lon="1.6042000">
        <ele>396.8</ele>
        <time>2022-06-26T10:05:39Z</time>
      </trkpt>
      <trkpt lat="42.9633020" lon="1.6042150">
        <ele>396.9</ele>
        <time>2022-06-26T10:05:41Z</time>
      </trkpt>
      <trkpt lat="42.9633570" lon="1.6042110">
        <ele>396.9</ele>
        <time>2022-06-26T10:05:43Z</time>
      </trkpt>
      <trkpt lat="42.9633790" lon="1.6042130">
        <ele>396.9</ele>
        <time>2022-06-26T10:05:44Z</time>
      </trkpt>
      <trkpt lat="42.9633980" lon="1.6042260">
        <ele>396.9</ele>
        <time>2022-06-26T10:05:45Z</time>
      </trkpt>
      <trkpt lat="42.9634170" lon="1.6042510">
        <ele>396.9</ele>
        <time>2022-06-26T10:05:47Z</time>
      </trkpt>
      <trkpt lat="42.9634220" lon="1.6042600">
        <ele>396.9</ele>
        <time>2022-06-26T10:05:48Z</time>
      </trkpt>
      <trkpt lat="42.9634560" lon="1.6043050">
        <ele>396.6</ele>
        <time>2022-06-26T10:06:07Z</time>
      </trkpt>
      <trkpt lat="42.9634760" lon="1.6043480">
        <ele>396.4</ele>
        <time>2022-06-26T10:06:09Z</time>
      </trkpt>
      <trkpt lat="42.9635050" lon="1.6044120">
        <ele>396.1</ele>
        <time>2022-06-26T10:06:11Z</time>
      </trkpt>
      <trkpt lat="42.9635210" lon="1.6045040">
        <ele>396.0</ele>
        <time>2022-06-26T10:06:13Z</time>
      </trkpt>
      <trkpt lat="42.9635400" lon="1.6046510">
        <ele>395.8</ele>
        <time>2022-06-26T10:06:16Z</time>
      </trkpt>
      <trkpt lat="42.9635530" lon="1.6047080">
        <ele>395.7</ele>
        <time>2022-06-26T10:06:18Z</time>
      </trkpt>
      <trkpt lat="42.9635590" lon="1.6047270">
        <ele>395.7</ele>
        <time>2022-06-26T10:06:19Z</time>
      </trkpt>
      <trkpt lat="42.9635620" lon="1.6047370">
        <ele>395.7</ele>
        <time>2022-06-26T10:06:21Z</time>
      </trkpt>
      <trkpt lat="42.9636410" lon="1.6047360">
        <ele>395.6</ele>
        <time>2022-06-26T10:06:34Z</time>
      </trkpt>
      <trkpt lat="42.9636800" lon="1.6047210">
        <ele>395.5</ele>
        <time>2022-06-26T10:06:36Z</time>
      </trkpt>
      <trkpt lat="42.9637180" lon="1.6047250">
        <ele>395.4</ele>
        <time>2022-06-26T10:06:38Z</time>
      </trkpt>
      <trkpt lat="42.9637330" lon="1.6047230">
        <ele>395.4</ele>
        <time>2022-06-26T10:06:39Z</time>
      </trkpt>
      <trkpt lat="42.9637500" lon="1.6047220">
        <ele>395.4</ele>
        <time>2022-06-26T10:06:41Z</time>
      </trkpt>
      <trkpt lat="42.9637450" lon="1.6047200">
        <ele>395.4</ele>
        <time>2022-06-26T10:06:42Z</time>
      </trkpt>
      <trkpt lat="42.9636880" lon="1.6046620">
        <ele>395.2</ele>
        <time>2022-06-26T10:06:49Z</time>
      </trkpt>
      <trkpt lat="42.9636670" lon="1.6046250">
        <ele>395.2</ele>
        <time>2022-06-26T10:06:51Z</time>
      </trkpt>
      <trkpt lat="42.9636530" lon="1.6045810">
        <ele>395.1</ele>
        <time>2022-06-26T10:06:53Z</time>
      </trkpt>
      <trkpt lat="42.9636470" lon="1.6045480">
        <ele>395.1</ele>
        <time>2022-06-26T10:06:54Z</time>
      </trkpt>
      <trkpt lat="42.9636400" lon="1.6045110">
        <ele>395.1</ele>
        <time>2022-06-26T10:06:55Z</time>
      </trkpt>
      <trkpt lat="42.9636190" lon="1.6044420">
        <ele>395.0</ele>
        <time>2022-06-26T10:06:57Z</time>
      </trkpt>
      <trkpt lat="42.9635750" lon="1.6044140">
        <ele>394.9</ele>
        <time>2022-06-26T10:06:59Z</time>
      </trkpt>
      <trkpt lat="42.9635510" lon="1.6044150">
        <ele>394.9</ele>
        <time>2022-06-26T10:07:00Z</time>
      </trkpt>
      <trkpt lat="42.9635170" lon="1.6044260">
        <ele>394.8</ele>
        <time>2022-06-26T10:07:02Z</time>
      </trkpt>
      <trkpt lat="42.9635030" lon="1.6044220">
        <ele>394.8</ele>
        <time>2022-06-26T10:07:03Z</time>
      </trkpt>
      <trkpt lat="42.9634950" lon="1.6044170">
        <ele>394.8</ele>
        <time>2022-06-26T10:07:04Z</time>
      </trkpt>
      <trkpt lat="42.9635240" lon="1.6044420">
        <ele>394.7</ele>
        <time>2022-06-26T10:09:13Z</time>
      </trkpt>
      <trkpt lat="42.9635310" lon="1.6044670">
        <ele>394.7</ele>
        <time>2022-06-26T10:09:14Z</time>
      </trkpt>
      <trkpt lat="42.9635500" lon="1.6045400">
        <ele>394.6</ele>
        <time>2022-06-26T10:09:16Z</time>
      </trkpt>
      <trkpt lat="42.9635680" lon="1.6046370">
        <ele>394.6</ele>
        <time>2022-06-26T10:09:18Z</time>
      </trkpt>
      <trkpt lat="42.9635810" lon="1.6047400">
        <ele>394.5</ele>
        <time>2022-06-26T10:09:20Z</time>
      </trkpt>
      <trkpt lat="42.9635970" lon="1.6049200">
        <ele>394.3</ele>
        <time>2022-06-26T10:09:23Z</time>
      </trkpt>
      <trkpt lat="42.9636060" lon="1.6049870">
        <ele>394.3</ele>
        <time>2022-06-26T10:09:24Z</time>
      </trkpt>
      <trkpt lat="42.9636390" lon="1.6051920">
        <ele>393.9</ele>
        <time>2022-06-26T10:09:27Z</time>
      </trkpt>
      <trkpt lat="42.9636730" lon="1.6054230">
        <ele>393.5</ele>
        <time>2022-06-26T10:09:30Z</time>
      </trkpt>
      <trkpt lat="42.9636980" lon="1.6056630">
        <ele>392.9</ele>
        <time>2022-06-26T10:09:33Z</time>
      </trkpt>
      <trkpt lat="42.9637230" lon="1.6059000">
        <ele>392.4</ele>
        <time>2022-06-26T10:09:36Z</time>
      </trkpt>
      <trkpt lat="42.9637200" lon="1.6059770">
        <ele>392.3</ele>
        <time>2022-06-26T10:09:37Z</time>
      </trkpt>
      <trkpt lat="42.9637070" lon="1.6060490">
        <ele>392.3</ele>
        <time>2022-06-26T10:09:38Z</time>
      </trkpt>
      <trkpt lat="42.9636880" lon="1.6061130">
        <ele>392.2</ele>
        <time>2022-06-26T10:09:39Z</time>
      </trkpt>
      <trkpt lat="42.9636410" lon="1.6062360">
        <ele>392.0</ele>
        <time>2022-06-26T10:09:42Z</time>
      </trkpt>
      <trkpt lat="42.9636230" lon="1.6062840">
        <ele>391.9</ele>
        <time>2022-06-26T10:09:44Z</time>
      </trkpt>
      <trkpt lat="42.9635940" lon="1.6063820">
        <ele>391.7</ele>
        <time>2022-06-26T10:09:47Z</time>
      </trkpt>
      <trkpt lat="42.9635500" lon="1.6065580">
        <ele>391.5</ele>
        <time>2022-06-26T10:09:50Z</time>
      </trkpt>
      <trkpt lat="42.9635470" lon="1.6066250">
        <ele>391.4</ele>
        <time>2022-06-26T10:09:51Z</time>
      </trkpt>
      <trkpt lat="42.9635480" lon="1.6067660">
        <ele>391.2</ele>
        <time>2022-06-26T10:09:53Z</time>
      </trkpt>
      <trkpt lat="42.9635540" lon="1.6069690">
        <ele>391.0</ele>
        <time>2022-06-26T10:09:56Z</time>
      </trkpt>
      <trkpt lat="42.9635580" lon="1.6070410">
        <ele>390.9</ele>
        <time>2022-06-26T10:09:57Z</time>
      </trkpt>
      <trkpt lat="42.9635690" lon="1.6071900">
        <ele>390.8</ele>
        <time>2022-06-26T10:09:59Z</time>
      </trkpt>
      <trkpt lat="42.9636200" lon="1.6076720">
        <ele>390.7</ele>
        <time>2022-06-26T10:10:05Z</time>
      </trkpt>
      <trkpt lat="42.9636290" lon="1.6077540">
        <ele>390.7</ele>
        <time>2022-06-26T10:10:06Z</time>
      </trkpt>
      <trkpt lat="42.9637410" lon="1.6084050">
        <ele>390.9</ele>
        <time>2022-06-26T10:10:14Z</time>
      </trkpt>
      <trkpt lat="42.9637670" lon="1.6084860">
        <ele>390.9</ele>
        <time>2022-06-26T10:10:15Z</time>
      </trkpt>
      <trkpt lat="42.9638690" lon="1.6087290">
        <ele>390.8</ele>
        <time>2022-06-26T10:10:18Z</time>
      </trkpt>
      <trkpt lat="42.9639210" lon="1.6090050">
        <ele>390.5</ele>
        <time>2022-06-26T10:10:22Z</time>
      </trkpt>
      <trkpt lat="42.9639260" lon="1.6090440">
        <ele>390.4</ele>
        <time>2022-06-26T10:10:24Z</time>
      </trkpt>
      <trkpt lat="42.9639430" lon="1.6091990">
        <ele>390.3</ele>
        <time>2022-06-26T10:12:16Z</time>
      </trkpt>
      <trkpt lat="42.9639650" lon="1.6093690">
        <ele>390.2</ele>
        <time>2022-06-26T10:12:21Z</time>
      </trkpt>
      <trkpt lat="42.9639900" lon="1.6095770">
        <ele>389.7</ele>
        <time>2022-06-26T10:12:25Z</time>
      </trkpt>
      <trkpt lat="42.9639910" lon="1.6096400">
        <ele>389.5</ele>
        <time>2022-06-26T10:12:26Z</time>
      </trkpt>
      <trkpt lat="42.9640000" lon="1.6097870">
        <ele>389.0</ele>
        <time>2022-06-26T10:12:28Z</time>
      </trkpt>
      <trkpt lat="42.9640270" lon="1.6100410">
        <ele>388.1</ele>
        <time>2022-06-26T10:12:31Z</time>
      </trkpt>
      <trkpt lat="42.9640340" lon="1.6101320">
        <ele>387.9</ele>
        <time>2022-06-26T10:12:32Z</time>
      </trkpt>
      <trkpt lat="42.9640370" lon="1.6103170">
        <ele>387.5</ele>
        <time>2022-06-26T10:12:34Z</time>
      </trkpt>
      <trkpt lat="42.9640220" lon="1.6105100">
        <ele>387.3</ele>
        <time>2022-06-26T10:12:36Z</time>
      </trkpt>
      <trkpt lat="42.9640230" lon="1.6106120">
        <ele>387.3</ele>
        <time>2022-06-26T10:12:37Z</time>
      </trkpt>
      <trkpt lat="42.9640340" lon="1.6108130">
        <ele>387.3</ele>
        <time>2022-06-26T10:12:39Z</time>
      </trkpt>
      <trkpt lat="42.9640450" lon="1.6109160">
        <ele>387.3</ele>
        <time>2022-06-26T10:12:40Z</time>
      </trkpt>
      <trkpt lat="42.9640980" lon="1.6114320">
        <ele>387.4</ele>
        <time>2022-06-26T10:12:45Z</time>
      </trkpt>
      <trkpt lat="42.9640910" lon="1.6115290">
        <ele>387.4</ele>
        <time>2022-06-26T10:12:46Z</time>
      </trkpt>
      <trkpt lat="42.9640230" lon="1.6116760">
        <ele>387.6</ele>
        <time>2022-06-26T10:12:48Z</time>
      </trkpt>
      <trkpt lat="42.9639720" lon="1.6117290">
        <ele>387.7</ele>
        <time>2022-06-26T10:12:49Z</time>
      </trkpt>
      <trkpt lat="42.9639190" lon="1.6117790">
        <ele>387.8</ele>
        <time>2022-06-26T10:12:50Z</time>
      </trkpt>
      <trkpt lat="42.9638190" lon="1.6118860">
        <ele>388.1</ele>
        <time>2022-06-26T10:12:52Z</time>
      </trkpt>
      <trkpt lat="42.9637210" lon="1.6119910">
        <ele>388.5</ele>
        <time>2022-06-26T10:12:54Z</time>
      </trkpt>
      <trkpt lat="42.9635310" lon="1.6121940">
        <ele>389.2</ele>
        <time>2022-06-26T10:12:58Z</time>
      </trkpt>
      <trkpt lat="42.9633080" lon="1.6124280">
        <ele>390.2</ele>
        <time>2022-06-26T10:13:03Z</time>
      </trkpt>
      <trkpt lat="42.9630540" lon="1.6126780">
        <ele>391.3</ele>
        <time>2022-06-26T10:13:09Z</time>
      </trkpt>
      <trkpt lat="42.9630110" lon="1.6127140">
        <ele>391.5</ele>
        <time>2022-06-26T10:13:10Z</time>
      </trkpt>
      <trkpt lat="42.9629190" lon="1.6127760">
        <ele>391.9</ele>
        <time>2022-06-26T10:13:12Z</time>
      </trkpt>
      <trkpt lat="42.9628280" lon="1.6128380">
        <ele>392.2</ele>
        <time>2022-06-26T10:13:14Z</time>
      </trkpt>
      <trkpt lat="42.9626930" lon="1.6129160">
        <ele>392.8</ele>
        <time>2022-06-26T10:13:17Z</time>
      </trkpt>
      <trkpt lat="42.9625560" lon="1.6129710">
        <ele>393.4</ele>
        <time>2022-06-26T10:13:20Z</time>
      </trkpt>
      <trkpt lat="42.9624150" lon="1.6130290">
        <ele>393.9</ele>
        <time>2022-06-26T10:13:23Z</time>
      </trkpt>
      <trkpt lat="42.9623690" lon="1.6130500">
        <ele>394.1</ele>
        <time>2022-06-26T10:13:24Z</time>
      </trkpt>
      <trkpt lat="42.9622390" lon="1.6131340">
        <ele>394.7</ele>
        <time>2022-06-26T10:13:27Z</time>
      </trkpt>
      <trkpt lat="42.9622000" lon="1.6131700">
        <ele>394.9</ele>
        <time>2022-06-26T10:13:28Z</time>
      </trkpt>
      <trkpt lat="42.9621220" lon="1.6132540">
        <ele>395.3</ele>
        <time>2022-06-26T10:13:30Z</time>
      </trkpt>
      <trkpt lat="42.9620470" lon="1.6133440">
        <ele>395.6</ele>
        <time>2022-06-26T10:13:32Z</time>
      </trkpt>
      <trkpt lat="42.9618510" lon="1.6135830">
        <ele>396.4</ele>
        <time>2022-06-26T10:13:37Z</time>
      </trkpt>
      <trkpt lat="42.9617350" lon="1.6137320">
        <ele>397.0</ele>
        <time>2022-06-26T10:13:40Z</time>
      </trkpt>
      <trkpt lat="42.9613910" lon="1.6141660">
        <ele>398.2</ele>
        <time>2022-06-26T10:13:49Z</time>
      </trkpt>
      <trkpt lat="42.9609800" lon="1.6146870">
        <ele>399.3</ele>
        <time>2022-06-26T10:13:59Z</time>
      </trkpt>
      <trkpt lat="42.9609390" lon="1.6147390">
        <ele>399.4</ele>
        <time>2022-06-26T10:14:00Z</time>
      </trkpt>
      <trkpt lat="42.9608970" lon="1.6147920">
        <ele>399.5</ele>
        <time>2022-06-26T10:14:01Z</time>
      </trkpt>
      <trkpt lat="42.9605230" lon="1.6152700">
        <ele>400.3</ele>
        <time>2022-06-26T10:14:10Z</time>
      </trkpt>
      <trkpt lat="42.9604800" lon="1.6153270">
        <ele>400.3</ele>
        <time>2022-06-26T10:14:11Z</time>
      </trkpt>
      <trkpt lat="42.9600570" lon="1.6158560">
        <ele>400.4</ele>
        <time>2022-06-26T10:14:20Z</time>
      </trkpt>
      <trkpt lat="42.9600060" lon="1.6159200">
        <ele>400.4</ele>
        <time>2022-06-26T10:14:21Z</time>
      </trkpt>
      <trkpt lat="42.9596820" lon="1.6163070">
        <ele>400.4</ele>
        <time>2022-06-26T10:14:27Z</time>
      </trkpt>
      <trkpt lat="42.9593130" lon="1.6167750">
        <ele>400.4</ele>
        <time>2022-06-26T10:14:34Z</time>
      </trkpt>
      <trkpt lat="42.9589130" lon="1.6173080">
        <ele>400.8</ele>
        <time>2022-06-26T10:14:42Z</time>
      </trkpt>
      <trkpt lat="42.9588660" lon="1.6173740">
        <ele>400.8</ele>
        <time>2022-06-26T10:14:43Z</time>
      </trkpt>
      <trkpt lat="42.9585970" lon="1.6177670">
        <ele>401.1</ele>
        <time>2022-06-26T10:14:49Z</time>
      </trkpt>
      <trkpt lat="42.9585230" lon="1.6179170">
        <ele>400.9</ele>
        <time>2022-06-26T10:14:51Z</time>
      </trkpt>
      <trkpt lat="42.9584340" lon="1.6181780">
        <ele>400.8</ele>
        <time>2022-06-26T10:14:54Z</time>
      </trkpt>
      <trkpt lat="42.9582580" lon="1.6187400">
        <ele>400.3</ele>
        <time>2022-06-26T10:15:00Z</time>
      </trkpt>
      <trkpt lat="42.9580080" lon="1.6193930">
        <ele>400.1</ele>
        <time>2022-06-26T10:15:07Z</time>
      </trkpt>
      <trkpt lat="42.9579340" lon="1.6195750">
        <ele>400.0</ele>
        <time>2022-06-26T10:15:09Z</time>
      </trkpt>
      <trkpt lat="42.9576370" lon="1.6203060">
        <ele>400.5</ele>
        <time>2022-06-26T10:15:17Z</time>
      </trkpt>
      <trkpt lat="42.9575660" lon="1.6204820">
        <ele>400.7</ele>
        <time>2022-06-26T10:15:19Z</time>
      </trkpt>
      <trkpt lat="42.9575290" lon="1.6205670">
        <ele>400.9</ele>
        <time>2022-06-26T10:15:20Z</time>
      </trkpt>
      <trkpt lat="42.9572670" lon="1.6212040">
        <ele>402.3</ele>
        <time>2022-06-26T10:15:28Z</time>
      </trkpt>
      <trkpt lat="42.9570000" lon="1.6218480">
        <ele>403.8</ele>
        <time>2022-06-26T10:15:37Z</time>
      </trkpt>
      <trkpt lat="42.9569700" lon="1.6219150">
        <ele>404.0</ele>
        <time>2022-06-26T10:15:38Z</time>
      </trkpt>
      <trkpt lat="42.9568820" lon="1.6221100">
        <ele>404.5</ele>
        <time>2022-06-26T10:15:41Z</time>
      </trkpt>
      <trkpt lat="42.9566870" lon="1.6224740">
        <ele>405.4</ele>
        <time>2022-06-26T10:15:47Z</time>
      </trkpt>
      <trkpt lat="42.9565760" lon="1.6226420">
        <ele>405.7</ele>
        <time>2022-06-26T10:15:50Z</time>
      </trkpt>
      <trkpt lat="42.9563500" lon="1.6229540">
        <ele>406.5</ele>
        <time>2022-06-26T10:15:56Z</time>
      </trkpt>
      <trkpt lat="42.9561650" lon="1.6232000">
        <ele>407.1</ele>
        <time>2022-06-26T10:16:01Z</time>
      </trkpt>
      <trkpt lat="42.9558550" lon="1.6235970">
        <ele>407.9</ele>
        <time>2022-06-26T10:16:09Z</time>
      </trkpt>
      <trkpt lat="42.9557340" lon="1.6237500">
        <ele>408.2</ele>
        <time>2022-06-26T10:16:12Z</time>
      </trkpt>
      <trkpt lat="42.9556690" lon="1.6238440">
        <ele>408.3</ele>
        <time>2022-06-26T10:16:14Z</time>
      </trkpt>
      <trkpt lat="42.9555250" lon="1.6239320">
        <ele>408.5</ele>
        <time>2022-06-26T10:16:17Z</time>
      </trkpt>
      <trkpt lat="42.9554670" lon="1.6239440">
        <ele>408.6</ele>
        <time>2022-06-26T10:16:18Z</time>
      </trkpt>
      <trkpt lat="42.9553490" lon="1.6239620">
        <ele>408.9</ele>
        <time>2022-06-26T10:16:20Z</time>
      </trkpt>
      <trkpt lat="42.9552290" lon="1.6239390">
        <ele>409.1</ele>
        <time>2022-06-26T10:16:22Z</time>
      </trkpt>
      <trkpt lat="42.9549060" lon="1.6238040">
        <ele>409.9</ele>
        <time>2022-06-26T10:16:28Z</time>
      </trkpt>
      <trkpt lat="42.9544570" lon="1.6235900">
        <ele>411.4</ele>
        <time>2022-06-26T10:16:37Z</time>
      </trkpt>
      <trkpt lat="42.9541620" lon="1.6234590">
        <ele>412.6</ele>
        <time>2022-06-26T10:16:43Z</time>
      </trkpt>
      <trkpt lat="42.9540650" lon="1.6234170">
        <ele>412.9</ele>
        <time>2022-06-26T10:16:45Z</time>
      </trkpt>
      <trkpt lat="42.9535620" lon="1.6232690">
        <ele>414.6</ele>
        <time>2022-06-26T10:16:55Z</time>
      </trkpt>
      <trkpt lat="42.9534610" lon="1.6232650">
        <ele>414.9</ele>
        <time>2022-06-26T10:16:57Z</time>
      </trkpt>
      <trkpt lat="42.9532040" lon="1.6233060">
        <ele>415.6</ele>
        <time>2022-06-26T10:17:02Z</time>
      </trkpt>
      <trkpt lat="42.9528900" lon="1.6234270">
        <ele>416.1</ele>
        <time>2022-06-26T10:17:08Z</time>
      </trkpt>
      <trkpt lat="42.9528360" lon="1.6234530">
        <ele>416.1</ele>
        <time>2022-06-26T10:17:09Z</time>
      </trkpt>
      <trkpt lat="42.9525150" lon="1.6236340">
        <ele>416.5</ele>
        <time>2022-06-26T10:17:15Z</time>
      </trkpt>
      <trkpt lat="42.9524630" lon="1.6236660">
        <ele>416.6</ele>
        <time>2022-06-26T10:17:16Z</time>
      </trkpt>
      <trkpt lat="42.9520010" lon="1.6239400">
        <ele>417.5</ele>
        <time>2022-06-26T10:17:25Z</time>
      </trkpt>
      <trkpt lat="42.9519490" lon="1.6239710">
        <ele>417.6</ele>
        <time>2022-06-26T10:17:26Z</time>
      </trkpt>
      <trkpt lat="42.9514240" lon="1.6242910">
        <ele>418.8</ele>
        <time>2022-06-26T10:17:36Z</time>
      </trkpt>
      <trkpt lat="42.9513700" lon="1.6243200">
        <ele>418.8</ele>
        <time>2022-06-26T10:17:37Z</time>
      </trkpt>
      <trkpt lat="42.9512610" lon="1.6243820">
        <ele>419.0</ele>
        <time>2022-06-26T10:17:39Z</time>
      </trkpt>
      <trkpt lat="42.9509350" lon="1.6245720">
        <ele>419.5</ele>
        <time>2022-06-26T10:17:45Z</time>
      </trkpt>
      <trkpt lat="42.9508820" lon="1.6246000">
        <ele>419.5</ele>
        <time>2022-06-26T10:17:46Z</time>
      </trkpt>
      <trkpt lat="42.9507300" lon="1.6246850">
        <ele>419.8</ele>
        <time>2022-06-26T10:17:49Z</time>
      </trkpt>
      <trkpt lat="42.9505760" lon="1.6247640">
        <ele>420.1</ele>
        <time>2022-06-26T10:17:52Z</time>
      </trkpt>
      <trkpt lat="42.9503190" lon="1.6249040">
        <ele>420.3</ele>
        <time>2022-06-26T10:17:57Z</time>
      </trkpt>
      <trkpt lat="42.9501560" lon="1.6249980">
        <ele>420.5</ele>
        <time>2022-06-26T10:18:00Z</time>
      </trkpt>
      <trkpt lat="42.9496070" lon="1.6253230">
        <ele>421.2</ele>
        <time>2022-06-26T10:18:10Z</time>
      </trkpt>
      <trkpt lat="42.9493820" lon="1.6254370">
        <ele>421.5</ele>
        <time>2022-06-26T10:18:14Z</time>
      </trkpt>
      <trkpt lat="42.9491500" lon="1.6255100">
        <ele>421.9</ele>
        <time>2022-06-26T10:18:18Z</time>
      </trkpt>
      <trkpt lat="42.9489510" lon="1.6257000">
        <ele>422.2</ele>
        <time>2022-06-26T10:18:22Z</time>
      </trkpt>
      <trkpt lat="42.9488350" lon="1.6257710">
        <ele>422.2</ele>
        <time>2022-06-26T10:18:24Z</time>
      </trkpt>
      <trkpt lat="42.9487180" lon="1.6258450">
        <ele>422.4</ele>
        <time>2022-06-26T10:18:26Z</time>
      </trkpt>
      <trkpt lat="42.9485990" lon="1.6259130">
        <ele>422.5</ele>
        <time>2022-06-26T10:18:28Z</time>
      </trkpt>
      <trkpt lat="42.9482280" lon="1.6261300">
        <ele>422.8</ele>
        <time>2022-06-26T10:18:35Z</time>
      </trkpt>
      <trkpt lat="42.9478100" lon="1.6263770">
        <ele>423.3</ele>
        <time>2022-06-26T10:18:43Z</time>
      </trkpt>
      <trkpt lat="42.9473670" lon="1.6266360">
        <ele>423.8</ele>
        <time>2022-06-26T10:18:51Z</time>
      </trkpt>
      <trkpt lat="42.9473110" lon="1.6266680">
        <ele>423.9</ele>
        <time>2022-06-26T10:18:52Z</time>
      </trkpt>
      <trkpt lat="42.9470220" lon="1.6268410">
        <ele>424.2</ele>
        <time>2022-06-26T10:18:57Z</time>
      </trkpt>
      <trkpt lat="42.9467300" lon="1.6270150">
        <ele>424.7</ele>
        <time>2022-06-26T10:19:02Z</time>
      </trkpt>
      <trkpt lat="42.9462290" lon="1.6273100">
        <ele>425.4</ele>
        <time>2022-06-26T10:19:11Z</time>
      </trkpt>
      <trkpt lat="42.9461730" lon="1.6273410">
        <ele>425.4</ele>
        <time>2022-06-26T10:19:12Z</time>
      </trkpt>
      <trkpt lat="42.9461180" lon="1.6273690">
        <ele>425.5</ele>
        <time>2022-06-26T10:19:13Z</time>
      </trkpt>
      <trkpt lat="42.9456070" lon="1.6276520">
        <ele>426.1</ele>
        <time>2022-06-26T10:19:22Z</time>
      </trkpt>
      <trkpt lat="42.9455490" lon="1.6276830">
        <ele>426.2</ele>
        <time>2022-06-26T10:19:23Z</time>
      </trkpt>
      <trkpt lat="42.9454330" lon="1.6277480">
        <ele>426.4</ele>
        <time>2022-06-26T10:19:25Z</time>
      </trkpt>
      <trkpt lat="42.9449140" lon="1.6279940">
        <ele>427.4</ele>
        <time>2022-06-26T10:19:34Z</time>
      </trkpt>
      <trkpt lat="42.9447260" lon="1.6280080">
        <ele>427.7</ele>
        <time>2022-06-26T10:19:37Z</time>
      </trkpt>
      <trkpt lat="42.9446680" lon="1.6280380">
        <ele>427.8</ele>
        <time>2022-06-26T10:19:38Z</time>
      </trkpt>
      <trkpt lat="42.9445410" lon="1.6282220">
        <ele>428.1</ele>
        <time>2022-06-26T10:19:41Z</time>
      </trkpt>
      <trkpt lat="42.9444910" lon="1.6282710">
        <ele>428.1</ele>
        <time>2022-06-26T10:19:42Z</time>
      </trkpt>
      <trkpt lat="42.9443790" lon="1.6283490">
        <ele>428.3</ele>
        <time>2022-06-26T10:19:44Z</time>
      </trkpt>
      <trkpt lat="42.9443210" lon="1.6283850">
        <ele>428.4</ele>
        <time>2022-06-26T10:19:45Z</time>
      </trkpt>
      <trkpt lat="42.9438360" lon="1.6286580">
        <ele>429.0</ele>
        <time>2022-06-26T10:19:53Z</time>
      </trkpt>
      <trkpt lat="42.9436480" lon="1.6287680">
        <ele>429.2</ele>
        <time>2022-06-26T10:19:56Z</time>
      </trkpt>
      <trkpt lat="42.9431480" lon="1.6290730">
        <ele>430.0</ele>
        <time>2022-06-26T10:20:04Z</time>
      </trkpt>
      <trkpt lat="42.9430250" lon="1.6291460">
        <ele>430.1</ele>
        <time>2022-06-26T10:20:06Z</time>
      </trkpt>
      <trkpt lat="42.9425290" lon="1.6294340">
        <ele>430.7</ele>
        <time>2022-06-26T10:20:14Z</time>
      </trkpt>
      <trkpt lat="42.9424080" lon="1.6295070">
        <ele>430.8</ele>
        <time>2022-06-26T10:20:16Z</time>
      </trkpt>
      <trkpt lat="42.9419100" lon="1.6297970">
        <ele>430.9</ele>
        <time>2022-06-26T10:20:24Z</time>
      </trkpt>
      <trkpt lat="42.9417840" lon="1.6298690">
        <ele>431.0</ele>
        <time>2022-06-26T10:20:26Z</time>
      </trkpt>
      <trkpt lat="42.9412300" lon="1.6301840">
        <ele>431.0</ele>
        <time>2022-06-26T10:20:35Z</time>
      </trkpt>
      <trkpt lat="42.9407910" lon="1.6304260">
        <ele>431.1</ele>
        <time>2022-06-26T10:20:42Z</time>
      </trkpt>
      <trkpt lat="42.9403050" lon="1.6306750">
        <ele>431.2</ele>
        <time>2022-06-26T10:20:50Z</time>
      </trkpt>
      <trkpt lat="42.9398130" lon="1.6309570">
        <ele>431.4</ele>
        <time>2022-06-26T10:20:58Z</time>
      </trkpt>
      <trkpt lat="42.9393050" lon="1.6312630">
        <ele>431.4</ele>
        <time>2022-06-26T10:21:06Z</time>
      </trkpt>
      <trkpt lat="42.9387840" lon="1.6315630">
        <ele>431.6</ele>
        <time>2022-06-26T10:21:14Z</time>
      </trkpt>
      <trkpt lat="42.9382530" lon="1.6318740">
        <ele>431.9</ele>
        <time>2022-06-26T10:21:22Z</time>
      </trkpt>
      <trkpt lat="42.9379910" lon="1.6320230">
        <ele>431.9</ele>
        <time>2022-06-26T10:21:26Z</time>
      </trkpt>
      <trkpt lat="42.9374810" lon="1.6323220">
        <ele>432.2</ele>
        <time>2022-06-26T10:21:34Z</time>
      </trkpt>
      <trkpt lat="42.9372280" lon="1.6324740">
        <ele>432.4</ele>
        <time>2022-06-26T10:21:38Z</time>
      </trkpt>
      <trkpt lat="42.9367260" lon="1.6327630">
        <ele>432.7</ele>
        <time>2022-06-26T10:21:46Z</time>
      </trkpt>
      <trkpt lat="42.9365430" lon="1.6328650">
        <ele>432.8</ele>
        <time>2022-06-26T10:21:49Z</time>
      </trkpt>
      <trkpt lat="42.9362320" lon="1.6330380">
        <ele>433.0</ele>
        <time>2022-06-26T10:21:54Z</time>
      </trkpt>
      <trkpt lat="42.9358400" lon="1.6332430">
        <ele>433.2</ele>
        <time>2022-06-26T10:22:00Z</time>
      </trkpt>
      <trkpt lat="42.9352950" lon="1.6334790">
        <ele>433.5</ele>
        <time>2022-06-26T10:22:08Z</time>
      </trkpt>
      <trkpt lat="42.9351600" lon="1.6335380">
        <ele>433.6</ele>
        <time>2022-06-26T10:22:10Z</time>
      </trkpt>
      <trkpt lat="42.9346180" lon="1.6337850">
        <ele>433.9</ele>
        <time>2022-06-26T10:22:18Z</time>
      </trkpt>
      <trkpt lat="42.9344850" lon="1.6338400">
        <ele>434.0</ele>
        <time>2022-06-26T10:22:20Z</time>
      </trkpt>
      <trkpt lat="42.9342840" lon="1.6339120">
        <ele>434.2</ele>
        <time>2022-06-26T10:22:23Z</time>
      </trkpt>
      <trkpt lat="42.9339570" lon="1.6340450">
        <ele>434.6</ele>
        <time>2022-06-26T10:22:28Z</time>
      </trkpt>
      <trkpt lat="42.9335160" lon="1.6342270">
        <ele>435.1</ele>
        <time>2022-06-26T10:22:35Z</time>
      </trkpt>
      <trkpt lat="42.9332150" lon="1.6343720">
        <ele>435.5</ele>
        <time>2022-06-26T10:22:40Z</time>
      </trkpt>
      <trkpt lat="42.9329620" lon="1.6344850">
        <ele>435.7</ele>
        <time>2022-06-26T10:22:44Z</time>
      </trkpt>
      <trkpt lat="42.9323920" lon="1.6347370">
        <ele>436.6</ele>
        <time>2022-06-26T10:22:53Z</time>
      </trkpt>
      <trkpt lat="42.9322680" lon="1.6347900">
        <ele>436.8</ele>
        <time>2022-06-26T10:22:55Z</time>
      </trkpt>
      <trkpt lat="42.9321490" lon="1.6348380">
        <ele>437.0</ele>
        <time>2022-06-26T10:22:57Z</time>
      </trkpt>
      <trkpt lat="42.9316590" lon="1.6350460">
        <ele>438.0</ele>
        <time>2022-06-26T10:23:05Z</time>
      </trkpt>
      <trkpt lat="42.9313510" lon="1.6351920">
        <ele>438.6</ele>
        <time>2022-06-26T10:23:10Z</time>
      </trkpt>
      <trkpt lat="42.9311660" lon="1.6352740">
        <ele>438.8</ele>
        <time>2022-06-26T10:23:13Z</time>
      </trkpt>
      <trkpt lat="42.9310430" lon="1.6353280">
        <ele>439.0</ele>
        <time>2022-06-26T10:23:15Z</time>
      </trkpt>
      <trkpt lat="42.9309820" lon="1.6353550">
        <ele>439.1</ele>
        <time>2022-06-26T10:23:16Z</time>
      </trkpt>
      <trkpt lat="42.9308010" lon="1.6354360">
        <ele>439.4</ele>
        <time>2022-06-26T10:23:19Z</time>
      </trkpt>
      <trkpt lat="42.9305670" lon="1.6355390">
        <ele>439.9</ele>
        <time>2022-06-26T10:23:23Z</time>
      </trkpt>
      <trkpt lat="42.9305080" lon="1.6355600">
        <ele>440.0</ele>
        <time>2022-06-26T10:23:24Z</time>
      </trkpt>
      <trkpt lat="42.9303360" lon="1.6356320">
        <ele>440.4</ele>
        <time>2022-06-26T10:23:27Z</time>
      </trkpt>
      <trkpt lat="42.9301660" lon="1.6357020">
        <ele>440.9</ele>
        <time>2022-06-26T10:23:30Z</time>
      </trkpt>
      <trkpt lat="42.9299960" lon="1.6357530">
        <ele>441.2</ele>
        <time>2022-06-26T10:23:33Z</time>
      </trkpt>
      <trkpt lat="42.9298840" lon="1.6357660">
        <ele>441.6</ele>
        <time>2022-06-26T10:23:35Z</time>
      </trkpt>
      <trkpt lat="42.9297260" lon="1.6357560">
        <ele>442.2</ele>
        <time>2022-06-26T10:23:38Z</time>
      </trkpt>
      <trkpt lat="42.9295250" lon="1.6357140">
        <ele>443.0</ele>
        <time>2022-06-26T10:23:42Z</time>
      </trkpt>
      <trkpt lat="42.9291740" lon="1.6356350">
        <ele>444.3</ele>
        <time>2022-06-26T10:23:49Z</time>
      </trkpt>
      <trkpt lat="42.9288230" lon="1.6355470">
        <ele>445.3</ele>
        <time>2022-06-26T10:23:56Z</time>
      </trkpt>
      <trkpt lat="42.9286170" lon="1.6354980">
        <ele>445.7</ele>
        <time>2022-06-26T10:24:00Z</time>
      </trkpt>
      <trkpt lat="42.9284050" lon="1.6354560">
        <ele>446.1</ele>
        <time>2022-06-26T10:24:04Z</time>
      </trkpt>
      <trkpt lat="42.9283520" lon="1.6354480">
        <ele>446.2</ele>
        <time>2022-06-26T10:24:05Z</time>
      </trkpt>
      <trkpt lat="42.9281300" lon="1.6354310">
        <ele>446.6</ele>
        <time>2022-06-26T10:24:09Z</time>
      </trkpt>
      <trkpt lat="42.9279020" lon="1.6354340">
        <ele>446.9</ele>
        <time>2022-06-26T10:24:13Z</time>
      </trkpt>
      <trkpt lat="42.9273880" lon="1.6354630">
        <ele>447.7</ele>
        <time>2022-06-26T10:24:22Z</time>
      </trkpt>
      <trkpt lat="42.9267980" lon="1.6355160">
        <ele>448.5</ele>
        <time>2022-06-26T10:24:32Z</time>
      </trkpt>
      <trkpt lat="42.9263930" lon="1.6356640">
        <ele>449.2</ele>
        <time>2022-06-26T10:24:39Z</time>
      </trkpt>
      <trkpt lat="42.9260360" lon="1.6358200">
        <ele>449.5</ele>
        <time>2022-06-26T10:24:45Z</time>
      </trkpt>
      <trkpt lat="42.9259060" lon="1.6358410">
        <ele>449.6</ele>
        <time>2022-06-26T10:24:47Z</time>
      </trkpt>
      <trkpt lat="42.9257120" lon="1.6358150">
        <ele>449.7</ele>
        <time>2022-06-26T10:24:50Z</time>
      </trkpt>
      <trkpt lat="42.9256520" lon="1.6357910">
        <ele>449.8</ele>
        <time>2022-06-26T10:24:51Z</time>
      </trkpt>
      <trkpt lat="42.9254080" lon="1.6357280">
        <ele>450.0</ele>
        <time>2022-06-26T10:24:55Z</time>
      </trkpt>
      <trkpt lat="42.9253460" lon="1.6357300">
        <ele>450.1</ele>
        <time>2022-06-26T10:24:56Z</time>
      </trkpt>
      <trkpt lat="42.9252240" lon="1.6357540">
        <ele>450.4</ele>
        <time>2022-06-26T10:24:58Z</time>
      </trkpt>
      <trkpt lat="42.9251650" lon="1.6357800">
        <ele>450.5</ele>
        <time>2022-06-26T10:24:59Z</time>
      </trkpt>
      <trkpt lat="42.9251090" lon="1.6358100">
        <ele>450.6</ele>
        <time>2022-06-26T10:25:00Z</time>
      </trkpt>
      <trkpt lat="42.9249550" lon="1.6359190">
        <ele>450.9</ele>
        <time>2022-06-26T10:25:03Z</time>
      </trkpt>
      <trkpt lat="42.9249070" lon="1.6359610">
        <ele>451.0</ele>
        <time>2022-06-26T10:25:04Z</time>
      </trkpt>
      <trkpt lat="42.9248600" lon="1.6360100">
        <ele>451.2</ele>
        <time>2022-06-26T10:25:05Z</time>
      </trkpt>
      <trkpt lat="42.9248130" lon="1.6360600">
        <ele>451.4</ele>
        <time>2022-06-26T10:25:06Z</time>
      </trkpt>
      <trkpt lat="42.9246560" lon="1.6362010">
        <ele>452.0</ele>
        <time>2022-06-26T10:25:09Z</time>
      </trkpt>
      <trkpt lat="42.9245630" lon="1.6362930">
        <ele>452.5</ele>
        <time>2022-06-26T10:25:11Z</time>
      </trkpt>
      <trkpt lat="42.9244720" lon="1.6363840">
        <ele>453.0</ele>
        <time>2022-06-26T10:25:13Z</time>
      </trkpt>
      <trkpt lat="42.9241480" lon="1.6366470">
        <ele>454.1</ele>
        <time>2022-06-26T10:25:20Z</time>
      </trkpt>
      <trkpt lat="42.9237530" lon="1.6369180">
        <ele>455.0</ele>
        <time>2022-06-26T10:25:28Z</time>
      </trkpt>
      <trkpt lat="42.9236070" lon="1.6370180">
        <ele>455.2</ele>
        <time>2022-06-26T10:25:31Z</time>
      </trkpt>
      <trkpt lat="42.9231080" lon="1.6373660">
        <ele>456.2</ele>
        <time>2022-06-26T10:25:41Z</time>
      </trkpt>
      <trkpt lat="42.9225980" lon="1.6377290">
        <ele>457.2</ele>
        <time>2022-06-26T10:25:51Z</time>
      </trkpt>
      <trkpt lat="42.9225460" lon="1.6377640">
        <ele>457.3</ele>
        <time>2022-06-26T10:25:52Z</time>
      </trkpt>
      <trkpt lat="42.9220320" lon="1.6381270">
        <ele>457.9</ele>
        <time>2022-06-26T10:26:02Z</time>
      </trkpt>
      <trkpt lat="42.9219800" lon="1.6381680">
        <ele>457.9</ele>
        <time>2022-06-26T10:26:03Z</time>
      </trkpt>
      <trkpt lat="42.9216030" lon="1.6384610">
        <ele>458.3</ele>
        <time>2022-06-26T10:26:10Z</time>
      </trkpt>
      <trkpt lat="42.9213270" lon="1.6386760">
        <ele>458.5</ele>
        <time>2022-06-26T10:26:15Z</time>
      </trkpt>
      <trkpt lat="42.9208790" lon="1.6390090">
        <ele>459.2</ele>
        <time>2022-06-26T10:26:23Z</time>
      </trkpt>
      <trkpt lat="42.9207650" lon="1.6390780">
        <ele>459.3</ele>
        <time>2022-06-26T10:26:25Z</time>
      </trkpt>
      <trkpt lat="42.9202440" lon="1.6393670">
        <ele>459.9</ele>
        <time>2022-06-26T10:26:34Z</time>
      </trkpt>
      <trkpt lat="42.9200020" lon="1.6394990">
        <ele>460.2</ele>
        <time>2022-06-26T10:26:38Z</time>
      </trkpt>
      <trkpt lat="42.9196470" lon="1.6396910">
        <ele>460.6</ele>
        <time>2022-06-26T10:26:44Z</time>
      </trkpt>
      <trkpt lat="42.9195870" lon="1.6397230">
        <ele>460.7</ele>
        <time>2022-06-26T10:26:45Z</time>
      </trkpt>
      <trkpt lat="42.9190640" lon="1.6400090">
        <ele>461.7</ele>
        <time>2022-06-26T10:26:54Z</time>
      </trkpt>
      <trkpt lat="42.9186770" lon="1.6402230">
        <ele>462.5</ele>
        <time>2022-06-26T10:27:01Z</time>
      </trkpt>
      <trkpt lat="42.9184420" lon="1.6403290">
        <ele>462.9</ele>
        <time>2022-06-26T10:27:05Z</time>
      </trkpt>
      <trkpt lat="42.9183790" lon="1.6403310">
        <ele>463.0</ele>
        <time>2022-06-26T10:27:06Z</time>
      </trkpt>
      <trkpt lat="42.9182500" lon="1.6403410">
        <ele>463.1</ele>
        <time>2022-06-26T10:27:08Z</time>
      </trkpt>
      <trkpt lat="42.9180510" lon="1.6404050">
        <ele>463.4</ele>
        <time>2022-06-26T10:27:11Z</time>
      </trkpt>
      <trkpt lat="42.9175280" lon="1.6405900">
        <ele>463.8</ele>
        <time>2022-06-26T10:27:19Z</time>
      </trkpt>
      <trkpt lat="42.9174620" lon="1.6406060">
        <ele>463.8</ele>
        <time>2022-06-26T10:27:20Z</time>
      </trkpt>
      <trkpt lat="42.9170090" lon="1.6407020">
        <ele>464.0</ele>
        <time>2022-06-26T10:27:27Z</time>
      </trkpt>
      <trkpt lat="42.9167620" lon="1.6407540">
        <ele>464.1</ele>
        <time>2022-06-26T10:27:31Z</time>
      </trkpt>
      <trkpt lat="42.9166330" lon="1.6407800">
        <ele>464.2</ele>
        <time>2022-06-26T10:27:33Z</time>
      </trkpt>
      <trkpt lat="42.9161780" lon="1.6408260">
        <ele>464.4</ele>
        <time>2022-06-26T10:27:40Z</time>
      </trkpt>
      <trkpt lat="42.9157070" lon="1.6409570">
        <ele>464.5</ele>
        <time>2022-06-26T10:27:47Z</time>
      </trkpt>
      <trkpt lat="42.9152340" lon="1.6411000">
        <ele>464.5</ele>
        <time>2022-06-26T10:27:54Z</time>
      </trkpt>
      <trkpt lat="42.9151670" lon="1.6411270">
        <ele>464.5</ele>
        <time>2022-06-26T10:27:55Z</time>
      </trkpt>
      <trkpt lat="42.9149760" lon="1.6412510">
        <ele>464.7</ele>
        <time>2022-06-26T10:27:58Z</time>
      </trkpt>
      <trkpt lat="42.9147680" lon="1.6414960">
        <ele>465.5</ele>
        <time>2022-06-26T10:28:02Z</time>
      </trkpt>
      <trkpt lat="42.9146170" lon="1.6418700">
        <ele>466.5</ele>
        <time>2022-06-26T10:28:07Z</time>
      </trkpt>
      <trkpt lat="42.9144920" lon="1.6423230">
        <ele>467.3</ele>
        <time>2022-06-26T10:28:13Z</time>
      </trkpt>
      <trkpt lat="42.9144690" lon="1.6423980">
        <ele>467.4</ele>
        <time>2022-06-26T10:28:14Z</time>
      </trkpt>
      <trkpt lat="42.9144350" lon="1.6424710">
        <ele>467.4</ele>
        <time>2022-06-26T10:28:15Z</time>
      </trkpt>
      <trkpt lat="42.9142280" lon="1.6426760">
        <ele>467.5</ele>
        <time>2022-06-26T10:28:19Z</time>
      </trkpt>
      <trkpt lat="42.9141670" lon="1.6427070">
        <ele>467.5</ele>
        <time>2022-06-26T10:28:20Z</time>
      </trkpt>
      <trkpt lat="42.9141040" lon="1.6427310">
        <ele>467.5</ele>
        <time>2022-06-26T10:28:21Z</time>
      </trkpt>
      <trkpt lat="42.9138340" lon="1.6428290">
        <ele>467.3</ele>
        <time>2022-06-26T10:28:25Z</time>
      </trkpt>
      <trkpt lat="42.9134950" lon="1.6429990">
        <ele>467.3</ele>
        <time>2022-06-26T10:28:30Z</time>
      </trkpt>
      <trkpt lat="42.9132370" lon="1.6431450">
        <ele>467.4</ele>
        <time>2022-06-26T10:28:34Z</time>
      </trkpt>
      <trkpt lat="42.9129090" lon="1.6432900">
        <ele>467.6</ele>
        <time>2022-06-26T10:28:39Z</time>
      </trkpt>
      <trkpt lat="42.9127780" lon="1.6433240">
        <ele>467.8</ele>
        <time>2022-06-26T10:28:41Z</time>
      </trkpt>
      <trkpt lat="42.9124540" lon="1.6433850">
        <ele>468.4</ele>
        <time>2022-06-26T10:28:46Z</time>
      </trkpt>
      <trkpt lat="42.9122590" lon="1.6434040">
        <ele>468.8</ele>
        <time>2022-06-26T10:28:49Z</time>
      </trkpt>
      <trkpt lat="42.9118100" lon="1.6433920">
        <ele>469.5</ele>
        <time>2022-06-26T10:28:56Z</time>
      </trkpt>
      <trkpt lat="42.9117450" lon="1.6433820">
        <ele>469.6</ele>
        <time>2022-06-26T10:28:57Z</time>
      </trkpt>
      <trkpt lat="42.9113470" lon="1.6433310">
        <ele>470.2</ele>
        <time>2022-06-26T10:29:03Z</time>
      </trkpt>
      <trkpt lat="42.9112820" lon="1.6433230">
        <ele>470.3</ele>
        <time>2022-06-26T10:29:04Z</time>
      </trkpt>
      <trkpt lat="42.9106800" lon="1.6432360">
        <ele>470.8</ele>
        <time>2022-06-26T10:29:13Z</time>
      </trkpt>
      <trkpt lat="42.9106120" lon="1.6432240">
        <ele>470.8</ele>
        <time>2022-06-26T10:29:14Z</time>
      </trkpt>
      <trkpt lat="42.9100150" lon="1.6431000">
        <ele>471.7</ele>
        <time>2022-06-26T10:29:23Z</time>
      </trkpt>
      <trkpt lat="42.9096990" lon="1.6430100">
        <ele>472.2</ele>
        <time>2022-06-26T10:29:28Z</time>
      </trkpt>
      <trkpt lat="42.9095150" lon="1.6429400">
        <ele>472.5</ele>
        <time>2022-06-26T10:29:31Z</time>
      </trkpt>
      <trkpt lat="42.9090900" lon="1.6427380">
        <ele>473.2</ele>
        <time>2022-06-26T10:29:38Z</time>
      </trkpt>
      <trkpt lat="42.9090330" lon="1.6427100">
        <ele>473.3</ele>
        <time>2022-06-26T10:29:39Z</time>
      </trkpt>
      <trkpt lat="42.9085980" lon="1.6424710">
        <ele>474.9</ele>
        <time>2022-06-26T10:29:47Z</time>
      </trkpt>
      <trkpt lat="42.9082750" lon="1.6423460">
        <ele>476.1</ele>
        <time>2022-06-26T10:29:53Z</time>
      </trkpt>
      <trkpt lat="42.9082210" lon="1.6423330">
        <ele>476.2</ele>
        <time>2022-06-26T10:29:54Z</time>
      </trkpt>
      <trkpt lat="42.9077830" lon="1.6422900">
        <ele>477.7</ele>
        <time>2022-06-26T10:30:02Z</time>
      </trkpt>
      <trkpt lat="42.9076720" lon="1.6422940">
        <ele>478.0</ele>
        <time>2022-06-26T10:30:04Z</time>
      </trkpt>
      <trkpt lat="42.9073330" lon="1.6423610">
        <ele>478.0</ele>
        <time>2022-06-26T10:30:10Z</time>
      </trkpt>
      <trkpt lat="42.9070210" lon="1.6424330">
        <ele>477.5</ele>
        <time>2022-06-26T10:30:15Z</time>
      </trkpt>
      <trkpt lat="42.9069550" lon="1.6424440">
        <ele>477.5</ele>
        <time>2022-06-26T10:30:16Z</time>
      </trkpt>
      <trkpt lat="42.9064340" lon="1.6424760">
        <ele>478.1</ele>
        <time>2022-06-26T10:30:24Z</time>
      </trkpt>
      <trkpt lat="42.9059640" lon="1.6424090">
        <ele>479.1</ele>
        <time>2022-06-26T10:30:32Z</time>
      </trkpt>
      <trkpt lat="42.9058500" lon="1.6423700">
        <ele>479.2</ele>
        <time>2022-06-26T10:30:34Z</time>
      </trkpt>
      <trkpt lat="42.9056120" lon="1.6422780">
        <ele>479.2</ele>
        <time>2022-06-26T10:30:38Z</time>
      </trkpt>
      <trkpt lat="42.9051900" lon="1.6421350">
        <ele>479.2</ele>
        <time>2022-06-26T10:30:45Z</time>
      </trkpt>
      <trkpt lat="42.9049310" lon="1.6420490">
        <ele>479.1</ele>
        <time>2022-06-26T10:30:49Z</time>
      </trkpt>
      <trkpt lat="42.9047410" lon="1.6419770">
        <ele>479.1</ele>
        <time>2022-06-26T10:30:52Z</time>
      </trkpt>
      <trkpt lat="42.9042300" lon="1.6417170">
        <ele>479.2</ele>
        <time>2022-06-26T10:31:00Z</time>
      </trkpt>
      <trkpt lat="42.9039300" lon="1.6415180">
        <ele>479.8</ele>
        <time>2022-06-26T10:31:05Z</time>
      </trkpt>
      <trkpt lat="42.9037700" lon="1.6414050">
        <ele>480.5</ele>
        <time>2022-06-26T10:31:08Z</time>
      </trkpt>
      <trkpt lat="42.9034540" lon="1.6411900">
        <ele>481.5</ele>
        <time>2022-06-26T10:31:14Z</time>
      </trkpt>
      <trkpt lat="42.9031340" lon="1.6409660">
        <ele>482.0</ele>
        <time>2022-06-26T10:31:20Z</time>
      </trkpt>
      <trkpt lat="42.9029680" lon="1.6408410">
        <ele>482.2</ele>
        <time>2022-06-26T10:31:23Z</time>
      </trkpt>
      <trkpt lat="42.9027990" lon="1.6407300">
        <ele>482.4</ele>
        <time>2022-06-26T10:31:26Z</time>
      </trkpt>
      <trkpt lat="42.9022710" lon="1.6404190">
        <ele>482.8</ele>
        <time>2022-06-26T10:31:35Z</time>
      </trkpt>
      <trkpt lat="42.9022090" lon="1.6403860">
        <ele>482.8</ele>
        <time>2022-06-26T10:31:36Z</time>
      </trkpt>
      <trkpt lat="42.9016590" lon="1.6400760">
        <ele>483.4</ele>
        <time>2022-06-26T10:31:45Z</time>
      </trkpt>
      <trkpt lat="42.9014760" lon="1.6399760">
        <ele>483.7</ele>
        <time>2022-06-26T10:31:48Z</time>
      </trkpt>
      <trkpt lat="42.9009200" lon="1.6396840">
        <ele>485.0</ele>
        <time>2022-06-26T10:31:57Z</time>
      </trkpt>
      <trkpt lat="42.9008000" lon="1.6396150">
        <ele>485.4</ele>
        <time>2022-06-26T10:31:59Z</time>
      </trkpt>
      <trkpt lat="42.9002730" lon="1.6393320">
        <ele>487.4</ele>
        <time>2022-06-26T10:32:08Z</time>
      </trkpt>
      <trkpt lat="42.9002170" lon="1.6393030">
        <ele>487.6</ele>
        <time>2022-06-26T10:32:09Z</time>
      </trkpt>
      <trkpt lat="42.8997670" lon="1.6390580">
        <ele>490.0</ele>
        <time>2022-06-26T10:32:18Z</time>
      </trkpt>
      <trkpt lat="42.8992220" lon="1.6387570">
        <ele>492.4</ele>
        <time>2022-06-26T10:32:29Z</time>
      </trkpt>
      <trkpt lat="42.8991730" lon="1.6387310">
        <ele>492.6</ele>
        <time>2022-06-26T10:32:30Z</time>
      </trkpt>
      <trkpt lat="42.8987290" lon="1.6385150">
        <ele>493.4</ele>
        <time>2022-06-26T10:32:39Z</time>
      </trkpt>
      <trkpt lat="42.8982710" lon="1.6383200">
        <ele>493.8</ele>
        <time>2022-06-26T10:32:48Z</time>
      </trkpt>
      <trkpt lat="42.8978400" lon="1.6381410">
        <ele>494.0</ele>
        <time>2022-06-26T10:32:56Z</time>
      </trkpt>
      <trkpt lat="42.8973220" lon="1.6379130">
        <ele>494.2</ele>
        <time>2022-06-26T10:33:05Z</time>
      </trkpt>
      <trkpt lat="42.8972650" lon="1.6378880">
        <ele>494.2</ele>
        <time>2022-06-26T10:33:06Z</time>
      </trkpt>
      <trkpt lat="42.8968080" lon="1.6376940">
        <ele>494.6</ele>
        <time>2022-06-26T10:33:14Z</time>
      </trkpt>
      <trkpt lat="42.8962880" lon="1.6374690">
        <ele>495.4</ele>
        <time>2022-06-26T10:33:23Z</time>
      </trkpt>
      <trkpt lat="42.8962280" lon="1.6374480">
        <ele>495.5</ele>
        <time>2022-06-26T10:33:24Z</time>
      </trkpt>
      <trkpt lat="42.8957100" lon="1.6372220">
        <ele>496.5</ele>
        <time>2022-06-26T10:33:33Z</time>
      </trkpt>
      <trkpt lat="42.8956570" lon="1.6371970">
        <ele>496.7</ele>
        <time>2022-06-26T10:33:34Z</time>
      </trkpt>
      <trkpt lat="42.8952700" lon="1.6370360">
        <ele>498.3</ele>
        <time>2022-06-26T10:33:42Z</time>
      </trkpt>
      <trkpt lat="42.8948300" lon="1.6368510">
        <ele>500.2</ele>
        <time>2022-06-26T10:33:51Z</time>
      </trkpt>
      <trkpt lat="42.8943990" lon="1.6366760">
        <ele>502.1</ele>
        <time>2022-06-26T10:34:00Z</time>
      </trkpt>
      <trkpt lat="42.8938820" lon="1.6364480">
        <ele>503.4</ele>
        <time>2022-06-26T10:34:11Z</time>
      </trkpt>
      <trkpt lat="42.8937830" lon="1.6363890">
        <ele>503.5</ele>
        <time>2022-06-26T10:34:13Z</time>
      </trkpt>
      <trkpt lat="42.8933780" lon="1.6361120">
        <ele>504.1</ele>
        <time>2022-06-26T10:34:21Z</time>
      </trkpt>
      <trkpt lat="42.8931740" lon="1.6359730">
        <ele>504.2</ele>
        <time>2022-06-26T10:34:25Z</time>
      </trkpt>
      <trkpt lat="42.8929110" lon="1.6357870">
        <ele>504.3</ele>
        <time>2022-06-26T10:34:30Z</time>
      </trkpt>
      <trkpt lat="42.8925150" lon="1.6355050">
        <ele>504.1</ele>
        <time>2022-06-26T10:34:38Z</time>
      </trkpt>
      <trkpt lat="42.8924630" lon="1.6354650">
        <ele>504.0</ele>
        <time>2022-06-26T10:34:39Z</time>
      </trkpt>
      <trkpt lat="42.8921120" lon="1.6352190">
        <ele>503.2</ele>
        <time>2022-06-26T10:34:45Z</time>
      </trkpt>
      <trkpt lat="42.8917100" lon="1.6349320">
        <ele>502.4</ele>
        <time>2022-06-26T10:34:51Z</time>
      </trkpt>
      <trkpt lat="42.8915090" lon="1.6347880">
        <ele>502.4</ele>
        <time>2022-06-26T10:34:54Z</time>
      </trkpt>
      <trkpt lat="42.8912500" lon="1.6346210">
        <ele>502.5</ele>
        <time>2022-06-26T10:34:58Z</time>
      </trkpt>
      <trkpt lat="42.8911900" lon="1.6345730">
        <ele>502.6</ele>
        <time>2022-06-26T10:34:59Z</time>
      </trkpt>
      <trkpt lat="42.8911300" lon="1.6345250">
        <ele>502.6</ele>
        <time>2022-06-26T10:35:00Z</time>
      </trkpt>
      <trkpt lat="42.8907100" lon="1.6341730">
        <ele>502.6</ele>
        <time>2022-06-26T10:35:07Z</time>
      </trkpt>
      <trkpt lat="42.8905260" lon="1.6340310">
        <ele>502.7</ele>
        <time>2022-06-26T10:35:10Z</time>
      </trkpt>
      <trkpt lat="42.8903450" lon="1.6338930">
        <ele>502.7</ele>
        <time>2022-06-26T10:35:13Z</time>
      </trkpt>
      <trkpt lat="42.8899290" lon="1.6335740">
        <ele>502.3</ele>
        <time>2022-06-26T10:35:20Z</time>
      </trkpt>
      <trkpt lat="42.8898690" lon="1.6335260">
        <ele>502.2</ele>
        <time>2022-06-26T10:35:21Z</time>
      </trkpt>
      <trkpt lat="42.8894840" lon="1.6332250">
        <ele>500.9</ele>
        <time>2022-06-26T10:35:27Z</time>
      </trkpt>
      <trkpt lat="42.8890880" lon="1.6330490">
        <ele>498.9</ele>
        <time>2022-06-26T10:35:32Z</time>
      </trkpt>
      <trkpt lat="42.8889110" lon="1.6329970">
        <ele>497.9</ele>
        <time>2022-06-26T10:35:34Z</time>
      </trkpt>
      <trkpt lat="42.8886230" lon="1.6329500">
        <ele>496.1</ele>
        <time>2022-06-26T10:35:37Z</time>
      </trkpt>
      <trkpt lat="42.8883160" lon="1.6329310">
        <ele>494.3</ele>
        <time>2022-06-26T10:35:40Z</time>
      </trkpt>
      <trkpt lat="42.8879940" lon="1.6329230">
        <ele>492.2</ele>
        <time>2022-06-26T10:35:43Z</time>
      </trkpt>
      <trkpt lat="42.8876560" lon="1.6329020">
        <ele>490.0</ele>
        <time>2022-06-26T10:35:46Z</time>
      </trkpt>
      <trkpt lat="42.8874260" lon="1.6328550">
        <ele>488.4</ele>
        <time>2022-06-26T10:35:48Z</time>
      </trkpt>
      <trkpt lat="42.8869780" lon="1.6326410">
        <ele>486.4</ele>
        <time>2022-06-26T10:35:52Z</time>
      </trkpt>
      <trkpt lat="42.8868720" lon="1.6325660">
        <ele>486.1</ele>
        <time>2022-06-26T10:35:53Z</time>
      </trkpt>
      <trkpt lat="42.8865790" lon="1.6323160">
        <ele>485.5</ele>
        <time>2022-06-26T10:35:56Z</time>
      </trkpt>
      <trkpt lat="42.8863910" lon="1.6321580">
        <ele>485.1</ele>
        <time>2022-06-26T10:35:58Z</time>
      </trkpt>
      <trkpt lat="42.8860350" lon="1.6318730">
        <ele>484.8</ele>
        <time>2022-06-26T10:36:02Z</time>
      </trkpt>
      <trkpt lat="42.8859470" lon="1.6318090">
        <ele>484.8</ele>
        <time>2022-06-26T10:36:03Z</time>
      </trkpt>
      <trkpt lat="42.8854220" lon="1.6314380">
        <ele>484.2</ele>
        <time>2022-06-26T10:36:09Z</time>
      </trkpt>
      <trkpt lat="42.8851630" lon="1.6312670">
        <ele>484.0</ele>
        <time>2022-06-26T10:36:12Z</time>
      </trkpt>
      <trkpt lat="42.8846590" lon="1.6309320">
        <ele>483.6</ele>
        <time>2022-06-26T10:36:18Z</time>
      </trkpt>
      <trkpt lat="42.8841680" lon="1.6306100">
        <ele>483.3</ele>
        <time>2022-06-26T10:36:24Z</time>
      </trkpt>
      <trkpt lat="42.8840060" lon="1.6305010">
        <ele>483.1</ele>
        <time>2022-06-26T10:36:26Z</time>
      </trkpt>
      <trkpt lat="42.8835070" lon="1.6301830">
        <ele>482.2</ele>
        <time>2022-06-26T10:36:32Z</time>
      </trkpt>
      <trkpt lat="42.8833380" lon="1.6300780">
        <ele>482.0</ele>
        <time>2022-06-26T10:36:34Z</time>
      </trkpt>
      <trkpt lat="42.8830040" lon="1.6298610">
        <ele>481.7</ele>
        <time>2022-06-26T10:36:38Z</time>
      </trkpt>
      <trkpt lat="42.8825040" lon="1.6295400">
        <ele>481.3</ele>
        <time>2022-06-26T10:36:44Z</time>
      </trkpt>
      <trkpt lat="42.8823390" lon="1.6294320">
        <ele>481.2</ele>
        <time>2022-06-26T10:36:46Z</time>
      </trkpt>
      <trkpt lat="42.8820840" lon="1.6292880">
        <ele>481.3</ele>
        <time>2022-06-26T10:36:49Z</time>
      </trkpt>
      <trkpt lat="42.8819960" lon="1.6292530">
        <ele>481.4</ele>
        <time>2022-06-26T10:36:50Z</time>
      </trkpt>
      <trkpt lat="42.8819060" lon="1.6292310">
        <ele>481.5</ele>
        <time>2022-06-26T10:36:51Z</time>
      </trkpt>
      <trkpt lat="42.8814800" lon="1.6291880">
        <ele>482.2</ele>
        <time>2022-06-26T10:36:56Z</time>
      </trkpt>
      <trkpt lat="42.8814010" lon="1.6291820">
        <ele>482.3</ele>
        <time>2022-06-26T10:36:57Z</time>
      </trkpt>
      <trkpt lat="42.8811180" lon="1.6291580">
        <ele>482.9</ele>
        <time>2022-06-26T10:37:01Z</time>
      </trkpt>
      <trkpt lat="42.8809870" lon="1.6291500">
        <ele>483.2</ele>
        <time>2022-06-26T10:37:03Z</time>
      </trkpt>
      <trkpt lat="42.8808590" lon="1.6291400">
        <ele>483.5</ele>
        <time>2022-06-26T10:37:05Z</time>
      </trkpt>
      <trkpt lat="42.8804760" lon="1.6291160">
        <ele>484.4</ele>
        <time>2022-06-26T10:37:11Z</time>
      </trkpt>
      <trkpt lat="42.8804130" lon="1.6291130">
        <ele>484.6</ele>
        <time>2022-06-26T10:37:12Z</time>
      </trkpt>
      <trkpt lat="42.8801120" lon="1.6290950">
        <ele>485.5</ele>
        <time>2022-06-26T10:37:17Z</time>
      </trkpt>
      <trkpt lat="42.8798240" lon="1.6290990">
        <ele>486.3</ele>
        <time>2022-06-26T10:37:22Z</time>
      </trkpt>
      <trkpt lat="42.8797080" lon="1.6291190">
        <ele>486.4</ele>
        <time>2022-06-26T10:37:24Z</time>
      </trkpt>
      <trkpt lat="42.8794670" lon="1.6291290">
        <ele>486.5</ele>
        <time>2022-06-26T10:37:28Z</time>
      </trkpt>
      <trkpt lat="42.8793420" lon="1.6291170">
        <ele>486.5</ele>
        <time>2022-06-26T10:37:30Z</time>
      </trkpt>
      <trkpt lat="42.8792150" lon="1.6291010">
        <ele>486.3</ele>
        <time>2022-06-26T10:37:32Z</time>
      </trkpt>
      <trkpt lat="42.8790280" lon="1.6290530">
        <ele>486.1</ele>
        <time>2022-06-26T10:37:35Z</time>
      </trkpt>
      <trkpt lat="42.8786890" lon="1.6290060">
        <ele>485.1</ele>
        <time>2022-06-26T10:37:40Z</time>
      </trkpt>
      <trkpt lat="42.8786120" lon="1.6290020">
        <ele>484.8</ele>
        <time>2022-06-26T10:37:41Z</time>
      </trkpt>
      <trkpt lat="42.8783670" lon="1.6289720">
        <ele>483.9</ele>
        <time>2022-06-26T10:37:44Z</time>
      </trkpt>
      <trkpt lat="42.8782860" lon="1.6289340">
        <ele>483.4</ele>
        <time>2022-06-26T10:37:45Z</time>
      </trkpt>
      <trkpt lat="42.8782070" lon="1.6288800">
        <ele>483.1</ele>
        <time>2022-06-26T10:37:46Z</time>
      </trkpt>
      <trkpt lat="42.8779780" lon="1.6286820">
        <ele>482.1</ele>
        <time>2022-06-26T10:37:49Z</time>
      </trkpt>
      <trkpt lat="42.8779000" lon="1.6286150">
        <ele>481.8</ele>
        <time>2022-06-26T10:37:50Z</time>
      </trkpt>
      <trkpt lat="42.8775270" lon="1.6282990">
        <ele>481.2</ele>
        <time>2022-06-26T10:37:55Z</time>
      </trkpt>
      <trkpt lat="42.8774540" lon="1.6282430">
        <ele>481.2</ele>
        <time>2022-06-26T10:37:56Z</time>
      </trkpt>
      <trkpt lat="42.8770950" lon="1.6279580">
        <ele>481.2</ele>
        <time>2022-06-26T10:38:01Z</time>
      </trkpt>
      <trkpt lat="42.8768200" lon="1.6277240">
        <ele>481.4</ele>
        <time>2022-06-26T10:38:05Z</time>
      </trkpt>
      <trkpt lat="42.8764840" lon="1.6274370">
        <ele>481.7</ele>
        <time>2022-06-26T10:38:10Z</time>
      </trkpt>
      <trkpt lat="42.8761550" lon="1.6271550">
        <ele>481.9</ele>
        <time>2022-06-26T10:38:15Z</time>
      </trkpt>
      <trkpt lat="42.8757750" lon="1.6268270">
        <ele>482.1</ele>
        <time>2022-06-26T10:38:21Z</time>
      </trkpt>
      <trkpt lat="42.8757120" lon="1.6267750">
        <ele>482.1</ele>
        <time>2022-06-26T10:38:22Z</time>
      </trkpt>
      <trkpt lat="42.8752210" lon="1.6263580">
        <ele>482.2</ele>
        <time>2022-06-26T10:38:30Z</time>
      </trkpt>
      <trkpt lat="42.8751030" lon="1.6262470">
        <ele>482.2</ele>
        <time>2022-06-26T10:38:32Z</time>
      </trkpt>
      <trkpt lat="42.8745940" lon="1.6258370">
        <ele>482.1</ele>
        <time>2022-06-26T10:38:40Z</time>
      </trkpt>
      <trkpt lat="42.8744040" lon="1.6256810">
        <ele>482.1</ele>
        <time>2022-06-26T10:38:43Z</time>
      </trkpt>
      <trkpt lat="42.8739000" lon="1.6252510">
        <ele>482.2</ele>
        <time>2022-06-26T10:38:51Z</time>
      </trkpt>
      <trkpt lat="42.8738360" lon="1.6251950">
        <ele>482.2</ele>
        <time>2022-06-26T10:38:52Z</time>
      </trkpt>
      <trkpt lat="42.8734460" lon="1.6248550">
        <ele>482.2</ele>
        <time>2022-06-26T10:38:58Z</time>
      </trkpt>
      <trkpt lat="42.8731290" lon="1.6245690">
        <ele>482.3</ele>
        <time>2022-06-26T10:39:03Z</time>
      </trkpt>
      <trkpt lat="42.8728790" lon="1.6243370">
        <ele>482.2</ele>
        <time>2022-06-26T10:39:07Z</time>
      </trkpt>
      <trkpt lat="42.8725660" lon="1.6240300">
        <ele>482.1</ele>
        <time>2022-06-26T10:39:12Z</time>
      </trkpt>
      <trkpt lat="42.8724430" lon="1.6239030">
        <ele>482.2</ele>
        <time>2022-06-26T10:39:14Z</time>
      </trkpt>
      <trkpt lat="42.8722010" lon="1.6236600">
        <ele>482.5</ele>
        <time>2022-06-26T10:39:18Z</time>
      </trkpt>
      <trkpt lat="42.8719040" lon="1.6233630">
        <ele>482.8</ele>
        <time>2022-06-26T10:39:23Z</time>
      </trkpt>
      <trkpt lat="42.8717870" lon="1.6232450">
        <ele>483.0</ele>
        <time>2022-06-26T10:39:25Z</time>
      </trkpt>
      <trkpt lat="42.8713980" lon="1.6228400">
        <ele>483.6</ele>
        <time>2022-06-26T10:39:32Z</time>
      </trkpt>
      <trkpt lat="42.8713440" lon="1.6227830">
        <ele>483.7</ele>
        <time>2022-06-26T10:39:33Z</time>
      </trkpt>
      <trkpt lat="42.8709230" lon="1.6223500">
        <ele>484.3</ele>
        <time>2022-06-26T10:39:41Z</time>
      </trkpt>
      <trkpt lat="42.8708210" lon="1.6222430">
        <ele>484.6</ele>
        <time>2022-06-26T10:39:43Z</time>
      </trkpt>
      <trkpt lat="42.8705140" lon="1.6219270">
        <ele>485.3</ele>
        <time>2022-06-26T10:39:49Z</time>
      </trkpt>
      <trkpt lat="42.8703690" lon="1.6217720">
        <ele>485.7</ele>
        <time>2022-06-26T10:39:52Z</time>
      </trkpt>
      <trkpt lat="42.8702250" lon="1.6216030">
        <ele>486.1</ele>
        <time>2022-06-26T10:39:55Z</time>
      </trkpt>
      <trkpt lat="42.8699620" lon="1.6212200">
        <ele>486.9</ele>
        <time>2022-06-26T10:40:01Z</time>
      </trkpt>
      <trkpt lat="42.8698130" lon="1.6209350">
        <ele>487.4</ele>
        <time>2022-06-26T10:40:05Z</time>
      </trkpt>
      <trkpt lat="42.8697480" lon="1.6207800">
        <ele>487.5</ele>
        <time>2022-06-26T10:40:07Z</time>
      </trkpt>
      <trkpt lat="42.8694720" lon="1.6200630">
        <ele>487.6</ele>
        <time>2022-06-26T10:40:16Z</time>
      </trkpt>
      <trkpt lat="42.8694370" lon="1.6199850">
        <ele>487.6</ele>
        <time>2022-06-26T10:40:17Z</time>
      </trkpt>
      <trkpt lat="42.8691060" lon="1.6193840">
        <ele>487.0</ele>
        <time>2022-06-26T10:40:25Z</time>
      </trkpt>
      <trkpt lat="42.8689100" lon="1.6190860">
        <ele>486.3</ele>
        <time>2022-06-26T10:40:29Z</time>
      </trkpt>
      <trkpt lat="42.8687520" lon="1.6188480">
        <ele>485.4</ele>
        <time>2022-06-26T10:40:32Z</time>
      </trkpt>
      <trkpt lat="42.8686980" lon="1.6187630">
        <ele>485.1</ele>
        <time>2022-06-26T10:40:33Z</time>
      </trkpt>
      <trkpt lat="42.8684810" lon="1.6183960">
        <ele>483.8</ele>
        <time>2022-06-26T10:40:37Z</time>
      </trkpt>
      <trkpt lat="42.8684240" lon="1.6183020">
        <ele>483.5</ele>
        <time>2022-06-26T10:40:38Z</time>
      </trkpt>
      <trkpt lat="42.8682560" lon="1.6180050">
        <ele>482.6</ele>
        <time>2022-06-26T10:40:41Z</time>
      </trkpt>
      <trkpt lat="42.8680280" lon="1.6175870">
        <ele>481.4</ele>
        <time>2022-06-26T10:40:45Z</time>
      </trkpt>
      <trkpt lat="42.8679170" lon="1.6173720">
        <ele>480.7</ele>
        <time>2022-06-26T10:40:47Z</time>
      </trkpt>
      <trkpt lat="42.8677560" lon="1.6170330">
        <ele>479.7</ele>
        <time>2022-06-26T10:40:50Z</time>
      </trkpt>
      <trkpt lat="42.8675490" lon="1.6165630">
        <ele>478.3</ele>
        <time>2022-06-26T10:40:54Z</time>
      </trkpt>
      <trkpt lat="42.8674980" lon="1.6164430">
        <ele>478.2</ele>
        <time>2022-06-26T10:40:55Z</time>
      </trkpt>
      <trkpt lat="42.8673320" lon="1.6160940">
        <ele>477.1</ele>
        <time>2022-06-26T10:40:58Z</time>
      </trkpt>
      <trkpt lat="42.8671410" lon="1.6157560">
        <ele>475.9</ele>
        <time>2022-06-26T10:41:01Z</time>
      </trkpt>
      <trkpt lat="42.8670670" lon="1.6156500">
        <ele>475.5</ele>
        <time>2022-06-26T10:41:02Z</time>
      </trkpt>
      <trkpt lat="42.8668220" lon="1.6153640">
        <ele>474.4</ele>
        <time>2022-06-26T10:41:05Z</time>
      </trkpt>
      <trkpt lat="42.8667290" lon="1.6152910">
        <ele>474.1</ele>
        <time>2022-06-26T10:41:06Z</time>
      </trkpt>
      <trkpt lat="42.8665410" lon="1.6151470">
        <ele>473.5</ele>
        <time>2022-06-26T10:41:08Z</time>
      </trkpt>
      <trkpt lat="42.8664550" lon="1.6150560">
        <ele>473.3</ele>
        <time>2022-06-26T10:41:09Z</time>
      </trkpt>
      <trkpt lat="42.8662560" lon="1.6147170">
        <ele>471.5</ele>
        <time>2022-06-26T10:41:12Z</time>
      </trkpt>
      <trkpt lat="42.8662000" lon="1.6145970">
        <ele>471.3</ele>
        <time>2022-06-26T10:41:13Z</time>
      </trkpt>
      <trkpt lat="42.8660310" lon="1.6142440">
        <ele>470.5</ele>
        <time>2022-06-26T10:41:16Z</time>
      </trkpt>
      <trkpt lat="42.8658740" lon="1.6138850">
        <ele>469.9</ele>
        <time>2022-06-26T10:41:19Z</time>
      </trkpt>
      <trkpt lat="42.8657760" lon="1.6136430">
        <ele>469.7</ele>
        <time>2022-06-26T10:41:21Z</time>
      </trkpt>
      <trkpt lat="42.8656860" lon="1.6133980">
        <ele>469.6</ele>
        <time>2022-06-26T10:41:23Z</time>
      </trkpt>
      <trkpt lat="42.8655970" lon="1.6131550">
        <ele>469.5</ele>
        <time>2022-06-26T10:41:25Z</time>
      </trkpt>
      <trkpt lat="42.8655080" lon="1.6129150">
        <ele>469.5</ele>
        <time>2022-06-26T10:41:27Z</time>
      </trkpt>
      <trkpt lat="42.8654220" lon="1.6126800">
        <ele>469.4</ele>
        <time>2022-06-26T10:41:29Z</time>
      </trkpt>
      <trkpt lat="42.8653020" lon="1.6123370">
        <ele>469.5</ele>
        <time>2022-06-26T10:41:32Z</time>
      </trkpt>
      <trkpt lat="42.8652370" lon="1.6121080">
        <ele>469.6</ele>
        <time>2022-06-26T10:41:34Z</time>
      </trkpt>
      <trkpt lat="42.8652070" lon="1.6119960">
        <ele>469.7</ele>
        <time>2022-06-26T10:41:35Z</time>
      </trkpt>
      <trkpt lat="42.8651480" lon="1.6117740">
        <ele>469.8</ele>
        <time>2022-06-26T10:41:37Z</time>
      </trkpt>
      <trkpt lat="42.8650710" lon="1.6114520">
        <ele>470.0</ele>
        <time>2022-06-26T10:41:40Z</time>
      </trkpt>
      <trkpt lat="42.8650210" lon="1.6112430">
        <ele>470.2</ele>
        <time>2022-06-26T10:41:42Z</time>
      </trkpt>
      <trkpt lat="42.8649980" lon="1.6111400">
        <ele>470.3</ele>
        <time>2022-06-26T10:41:43Z</time>
      </trkpt>
      <trkpt lat="42.8649300" lon="1.6108370">
        <ele>470.5</ele>
        <time>2022-06-26T10:41:46Z</time>
      </trkpt>
      <trkpt lat="42.8648600" lon="1.6105390">
        <ele>470.7</ele>
        <time>2022-06-26T10:41:49Z</time>
      </trkpt>
      <trkpt lat="42.8647940" lon="1.6102420">
        <ele>470.9</ele>
        <time>2022-06-26T10:41:52Z</time>
      </trkpt>
      <trkpt lat="42.8647720" lon="1.6101460">
        <ele>471.0</ele>
        <time>2022-06-26T10:41:53Z</time>
      </trkpt>
      <trkpt lat="42.8647480" lon="1.6100500">
        <ele>471.2</ele>
        <time>2022-06-26T10:41:54Z</time>
      </trkpt>
      <trkpt lat="42.8647060" lon="1.6098600">
        <ele>471.4</ele>
        <time>2022-06-26T10:41:56Z</time>
      </trkpt>
      <trkpt lat="42.8646620" lon="1.6096720">
        <ele>471.6</ele>
        <time>2022-06-26T10:41:58Z</time>
      </trkpt>
      <trkpt lat="42.8646410" lon="1.6095790">
        <ele>471.7</ele>
        <time>2022-06-26T10:41:59Z</time>
      </trkpt>
      <trkpt lat="42.8646200" lon="1.6094860">
        <ele>471.8</ele>
        <time>2022-06-26T10:42:00Z</time>
      </trkpt>
      <trkpt lat="42.8645810" lon="1.6093000">
        <ele>472.1</ele>
        <time>2022-06-26T10:42:02Z</time>
      </trkpt>
      <trkpt lat="42.8645380" lon="1.6091150">
        <ele>472.4</ele>
        <time>2022-06-26T10:42:04Z</time>
      </trkpt>
      <trkpt lat="42.8644940" lon="1.6089310">
        <ele>472.8</ele>
        <time>2022-06-26T10:42:06Z</time>
      </trkpt>
      <trkpt lat="42.8644490" lon="1.6087470">
        <ele>473.1</ele>
        <time>2022-06-26T10:42:08Z</time>
      </trkpt>
      <trkpt lat="42.8644030" lon="1.6085640">
        <ele>473.6</ele>
        <time>2022-06-26T10:42:10Z</time>
      </trkpt>
      <trkpt lat="42.8643590" lon="1.6083840">
        <ele>474.0</ele>
        <time>2022-06-26T10:42:12Z</time>
      </trkpt>
      <trkpt lat="42.8643150" lon="1.6082090">
        <ele>474.5</ele>
        <time>2022-06-26T10:42:14Z</time>
      </trkpt>
      <trkpt lat="42.8642720" lon="1.6080400">
        <ele>475.0</ele>
        <time>2022-06-26T10:42:16Z</time>
      </trkpt>
      <trkpt lat="42.8642090" lon="1.6077950">
        <ele>475.7</ele>
        <time>2022-06-26T10:42:19Z</time>
      </trkpt>
      <trkpt lat="42.8641420" lon="1.6075620">
        <ele>476.4</ele>
        <time>2022-06-26T10:42:22Z</time>
      </trkpt>
      <trkpt lat="42.8641210" lon="1.6074860">
        <ele>476.7</ele>
        <time>2022-06-26T10:42:23Z</time>
      </trkpt>
      <trkpt lat="42.8640990" lon="1.6074120">
        <ele>476.9</ele>
        <time>2022-06-26T10:42:24Z</time>
      </trkpt>
      <trkpt lat="42.8640760" lon="1.6073400">
        <ele>477.2</ele>
        <time>2022-06-26T10:42:25Z</time>
      </trkpt>
      <trkpt lat="42.8639970" lon="1.6071360">
        <ele>477.9</ele>
        <time>2022-06-26T10:42:28Z</time>
      </trkpt>
      <trkpt lat="42.8639370" lon="1.6070080">
        <ele>478.4</ele>
        <time>2022-06-26T10:42:30Z</time>
      </trkpt>
      <trkpt lat="42.8639080" lon="1.6069440">
        <ele>478.6</ele>
        <time>2022-06-26T10:42:31Z</time>
      </trkpt>
      <trkpt lat="42.8638160" lon="1.6067590">
        <ele>479.3</ele>
        <time>2022-06-26T10:42:34Z</time>
      </trkpt>
      <trkpt lat="42.8636900" lon="1.6065280">
        <ele>479.9</ele>
        <time>2022-06-26T10:42:38Z</time>
      </trkpt>
      <trkpt lat="42.8636260" lon="1.6064150">
        <ele>480.1</ele>
        <time>2022-06-26T10:42:40Z</time>
      </trkpt>
      <trkpt lat="42.8635280" lon="1.6062360">
        <ele>480.5</ele>
        <time>2022-06-26T10:42:43Z</time>
      </trkpt>
      <trkpt lat="42.8633990" lon="1.6060060">
        <ele>480.9</ele>
        <time>2022-06-26T10:42:47Z</time>
      </trkpt>
      <trkpt lat="42.8633640" lon="1.6059380">
        <ele>481.0</ele>
        <time>2022-06-26T10:42:48Z</time>
      </trkpt>
      <trkpt lat="42.8631500" lon="1.6055910">
        <ele>481.6</ele>
        <time>2022-06-26T10:42:54Z</time>
      </trkpt>
      <trkpt lat="42.8629840" lon="1.6054060">
        <ele>482.0</ele>
        <time>2022-06-26T10:42:58Z</time>
      </trkpt>
      <trkpt lat="42.8628560" lon="1.6052710">
        <ele>482.3</ele>
        <time>2022-06-26T10:43:01Z</time>
      </trkpt>
      <trkpt lat="42.8625700" lon="1.6050060">
        <ele>482.6</ele>
        <time>2022-06-26T10:43:07Z</time>
      </trkpt>
      <trkpt lat="42.8625180" lon="1.6049640">
        <ele>482.7</ele>
        <time>2022-06-26T10:43:08Z</time>
      </trkpt>
      <trkpt lat="42.8621810" lon="1.6047320">
        <ele>482.7</ele>
        <time>2022-06-26T10:43:14Z</time>
      </trkpt>
      <trkpt lat="42.8619960" lon="1.6046240">
        <ele>482.5</ele>
        <time>2022-06-26T10:43:17Z</time>
      </trkpt>
      <trkpt lat="42.8616850" lon="1.6044290">
        <ele>482.1</ele>
        <time>2022-06-26T10:43:22Z</time>
      </trkpt>
      <trkpt lat="42.8614920" lon="1.6043010">
        <ele>481.8</ele>
        <time>2022-06-26T10:43:25Z</time>
      </trkpt>
      <trkpt lat="42.8614270" lon="1.6042570">
        <ele>481.7</ele>
        <time>2022-06-26T10:43:26Z</time>
      </trkpt>
      <trkpt lat="42.8609800" lon="1.6038860">
        <ele>480.2</ele>
        <time>2022-06-26T10:43:33Z</time>
      </trkpt>
      <trkpt lat="42.8607160" lon="1.6036320">
        <ele>479.1</ele>
        <time>2022-06-26T10:43:37Z</time>
      </trkpt>
      <trkpt lat="42.8605170" lon="1.6034150">
        <ele>478.1</ele>
        <time>2022-06-26T10:43:40Z</time>
      </trkpt>
      <trkpt lat="42.8600410" lon="1.6028770">
        <ele>475.5</ele>
        <time>2022-06-26T10:43:47Z</time>
      </trkpt>
      <trkpt lat="42.8599700" lon="1.6028020">
        <ele>475.1</ele>
        <time>2022-06-26T10:43:48Z</time>
      </trkpt>
      <trkpt lat="42.8595120" lon="1.6023830">
        <ele>472.6</ele>
        <time>2022-06-26T10:43:54Z</time>
      </trkpt>
      <trkpt lat="42.8594300" lon="1.6023210">
        <ele>472.3</ele>
        <time>2022-06-26T10:43:55Z</time>
      </trkpt>
      <trkpt lat="42.8589370" lon="1.6019960">
        <ele>470.9</ele>
        <time>2022-06-26T10:44:01Z</time>
      </trkpt>
      <trkpt lat="42.8588560" lon="1.6019510">
        <ele>470.9</ele>
        <time>2022-06-26T10:44:02Z</time>
      </trkpt>
      <trkpt lat="42.8583110" lon="1.6017290">
        <ele>470.9</ele>
        <time>2022-06-26T10:44:09Z</time>
      </trkpt>
      <trkpt lat="42.8577350" lon="1.6015200">
        <ele>470.9</ele>
        <time>2022-06-26T10:44:17Z</time>
      </trkpt>
      <trkpt lat="42.8572970" lon="1.6013730">
        <ele>471.0</ele>
        <time>2022-06-26T10:44:23Z</time>
      </trkpt>
      <trkpt lat="42.8568680" lon="1.6012280">
        <ele>471.2</ele>
        <time>2022-06-26T10:44:29Z</time>
      </trkpt>
      <trkpt lat="42.8564430" lon="1.6011190">
        <ele>471.5</ele>
        <time>2022-06-26T10:44:35Z</time>
      </trkpt>
      <trkpt lat="42.8560750" lon="1.6011820">
        <ele>471.5</ele>
        <time>2022-06-26T10:44:40Z</time>
      </trkpt>
      <trkpt lat="42.8559290" lon="1.6012420">
        <ele>471.7</ele>
        <time>2022-06-26T10:44:42Z</time>
      </trkpt>
      <trkpt lat="42.8555790" lon="1.6014280">
        <ele>471.9</ele>
        <time>2022-06-26T10:44:47Z</time>
      </trkpt>
      <trkpt lat="42.8551730" lon="1.6016510">
        <ele>472.1</ele>
        <time>2022-06-26T10:44:53Z</time>
      </trkpt>
      <trkpt lat="42.8549050" lon="1.6017950">
        <ele>472.3</ele>
        <time>2022-06-26T10:44:57Z</time>
      </trkpt>
      <trkpt lat="42.8543690" lon="1.6020980">
        <ele>472.6</ele>
        <time>2022-06-26T10:45:05Z</time>
      </trkpt>
      <trkpt lat="42.8542390" lon="1.6021810">
        <ele>472.6</ele>
        <time>2022-06-26T10:45:07Z</time>
      </trkpt>
      <trkpt lat="42.8541730" lon="1.6022180">
        <ele>472.6</ele>
        <time>2022-06-26T10:45:08Z</time>
      </trkpt>
      <trkpt lat="42.8537160" lon="1.6024610">
        <ele>472.8</ele>
        <time>2022-06-26T10:45:15Z</time>
      </trkpt>
      <trkpt lat="42.8532600" lon="1.6027090">
        <ele>472.9</ele>
        <time>2022-06-26T10:45:22Z</time>
      </trkpt>
      <trkpt lat="42.8530650" lon="1.6028160">
        <ele>473.0</ele>
        <time>2022-06-26T10:45:25Z</time>
      </trkpt>
      <trkpt lat="42.8529350" lon="1.6028800">
        <ele>473.1</ele>
        <time>2022-06-26T10:45:27Z</time>
      </trkpt>
      <trkpt lat="42.8526120" lon="1.6030230">
        <ele>473.3</ele>
        <time>2022-06-26T10:45:32Z</time>
      </trkpt>
      <trkpt lat="42.8525490" lon="1.6030570">
        <ele>473.3</ele>
        <time>2022-06-26T10:45:33Z</time>
      </trkpt>
      <trkpt lat="42.8522980" lon="1.6031950">
        <ele>473.6</ele>
        <time>2022-06-26T10:45:37Z</time>
      </trkpt>
      <trkpt lat="42.8520460" lon="1.6033190">
        <ele>473.8</ele>
        <time>2022-06-26T10:45:41Z</time>
      </trkpt>
      <trkpt lat="42.8516750" lon="1.6035030">
        <ele>474.0</ele>
        <time>2022-06-26T10:45:47Z</time>
      </trkpt>
      <trkpt lat="42.8513790" lon="1.6036680">
        <ele>474.5</ele>
        <time>2022-06-26T10:45:52Z</time>
      </trkpt>
      <trkpt lat="42.8510230" lon="1.6038500">
        <ele>475.1</ele>
        <time>2022-06-26T10:45:58Z</time>
      </trkpt>
      <trkpt lat="42.8508540" lon="1.6039420">
        <ele>475.4</ele>
        <time>2022-06-26T10:46:01Z</time>
      </trkpt>
      <trkpt lat="42.8505790" lon="1.6040940">
        <ele>475.9</ele>
        <time>2022-06-26T10:46:06Z</time>
      </trkpt>
      <trkpt lat="42.8504700" lon="1.6041480">
        <ele>476.1</ele>
        <time>2022-06-26T10:46:08Z</time>
      </trkpt>
      <trkpt lat="42.8502550" lon="1.6042660">
        <ele>476.5</ele>
        <time>2022-06-26T10:46:12Z</time>
      </trkpt>
      <trkpt lat="42.8499820" lon="1.6044180">
        <ele>476.9</ele>
        <time>2022-06-26T10:46:17Z</time>
      </trkpt>
      <trkpt lat="42.8498720" lon="1.6044780">
        <ele>476.9</ele>
        <time>2022-06-26T10:46:19Z</time>
      </trkpt>
      <trkpt lat="42.8496460" lon="1.6046010">
        <ele>477.1</ele>
        <time>2022-06-26T10:46:23Z</time>
      </trkpt>
      <trkpt lat="42.8492450" lon="1.6048090">
        <ele>477.5</ele>
        <time>2022-06-26T10:46:30Z</time>
      </trkpt>
      <trkpt lat="42.8491310" lon="1.6048710">
        <ele>477.7</ele>
        <time>2022-06-26T10:46:32Z</time>
      </trkpt>
      <trkpt lat="42.8489050" lon="1.6049950">
        <ele>478.0</ele>
        <time>2022-06-26T10:46:36Z</time>
      </trkpt>
      <trkpt lat="42.8486100" lon="1.6051470">
        <ele>478.3</ele>
        <time>2022-06-26T10:46:41Z</time>
      </trkpt>
      <trkpt lat="42.8484390" lon="1.6052450">
        <ele>478.5</ele>
        <time>2022-06-26T10:46:44Z</time>
      </trkpt>
      <trkpt lat="42.8480430" lon="1.6054510">
        <ele>478.9</ele>
        <time>2022-06-26T10:46:51Z</time>
      </trkpt>
      <trkpt lat="42.8478690" lon="1.6055390">
        <ele>479.1</ele>
        <time>2022-06-26T10:46:54Z</time>
      </trkpt>
      <trkpt lat="42.8475220" lon="1.6057190">
        <ele>479.5</ele>
        <time>2022-06-26T10:47:00Z</time>
      </trkpt>
      <trkpt lat="42.8474650" lon="1.6057500">
        <ele>479.6</ele>
        <time>2022-06-26T10:47:01Z</time>
      </trkpt>
      <trkpt lat="42.8473470" lon="1.6057970">
        <ele>479.8</ele>
        <time>2022-06-26T10:47:03Z</time>
      </trkpt>
      <trkpt lat="42.8472270" lon="1.6057710">
        <ele>479.9</ele>
        <time>2022-06-26T10:47:05Z</time>
      </trkpt>
      <trkpt lat="42.8470980" lon="1.6055870">
        <ele>479.8</ele>
        <time>2022-06-26T10:47:08Z</time>
      </trkpt>
      <trkpt lat="42.8470680" lon="1.6055060">
        <ele>479.7</ele>
        <time>2022-06-26T10:47:09Z</time>
      </trkpt>
      <trkpt lat="42.8470140" lon="1.6053400">
        <ele>479.6</ele>
        <time>2022-06-26T10:47:11Z</time>
      </trkpt>
      <trkpt lat="42.8469670" lon="1.6051720">
        <ele>479.5</ele>
        <time>2022-06-26T10:47:13Z</time>
      </trkpt>
      <trkpt lat="42.8469630" lon="1.6050890">
        <ele>479.4</ele>
        <time>2022-06-26T10:47:14Z</time>
      </trkpt>
      <trkpt lat="42.8470440" lon="1.6048570">
        <ele>478.7</ele>
        <time>2022-06-26T10:47:17Z</time>
      </trkpt>
      <trkpt lat="42.8470840" lon="1.6047810">
        <ele>478.5</ele>
        <time>2022-06-26T10:47:18Z</time>
      </trkpt>
      <trkpt lat="42.8471960" lon="1.6045210">
        <ele>477.9</ele>
        <time>2022-06-26T10:47:21Z</time>
      </trkpt>
      <trkpt lat="42.8472690" lon="1.6043370">
        <ele>477.5</ele>
        <time>2022-06-26T10:47:23Z</time>
      </trkpt>
      <trkpt lat="42.8473740" lon="1.6040680">
        <ele>477.0</ele>
        <time>2022-06-26T10:47:26Z</time>
      </trkpt>
      <trkpt lat="42.8475370" lon="1.6037360">
        <ele>476.6</ele>
        <time>2022-06-26T10:47:30Z</time>
      </trkpt>
      <trkpt lat="42.8476460" lon="1.6035040">
        <ele>476.5</ele>
        <time>2022-06-26T10:47:33Z</time>
      </trkpt>
      <trkpt lat="42.8476550" lon="1.6034170">
        <ele>476.5</ele>
        <time>2022-06-26T10:47:34Z</time>
      </trkpt>
      <trkpt lat="42.8476500" lon="1.6033270">
        <ele>476.5</ele>
        <time>2022-06-26T10:47:35Z</time>
      </trkpt>
      <trkpt lat="42.8476200" lon="1.6031490">
        <ele>476.5</ele>
        <time>2022-06-26T10:47:37Z</time>
      </trkpt>
      <trkpt lat="42.8476010" lon="1.6030660">
        <ele>476.5</ele>
        <time>2022-06-26T10:47:38Z</time>
      </trkpt>
      <trkpt lat="42.8475450" lon="1.6028140">
        <ele>476.6</ele>
        <time>2022-06-26T10:47:42Z</time>
      </trkpt>
      <trkpt lat="42.8474460" lon="1.6027140">
        <ele>476.5</ele>
        <time>2022-06-26T10:47:45Z</time>
      </trkpt>
      <trkpt lat="42.8473450" lon="1.6027340">
        <ele>476.4</ele>
        <time>2022-06-26T10:47:47Z</time>
      </trkpt>
      <trkpt lat="42.8472910" lon="1.6027490">
        <ele>476.3</ele>
        <time>2022-06-26T10:47:48Z</time>
      </trkpt>
      <trkpt lat="42.8471760" lon="1.6027770">
        <ele>476.3</ele>
        <time>2022-06-26T10:47:50Z</time>
      </trkpt>
      <trkpt lat="42.8468680" lon="1.6028180">
        <ele>476.6</ele>
        <time>2022-06-26T10:47:55Z</time>
      </trkpt>
      <trkpt lat="42.8468040" lon="1.6028300">
        <ele>476.6</ele>
        <time>2022-06-26T10:47:56Z</time>
      </trkpt>
      <trkpt lat="42.8463480" lon="1.6029160">
        <ele>477.1</ele>
        <time>2022-06-26T10:48:03Z</time>
      </trkpt>
      <trkpt lat="42.8461540" lon="1.6029420">
        <ele>477.3</ele>
        <time>2022-06-26T10:48:06Z</time>
      </trkpt>
      <trkpt lat="42.8460000" lon="1.6028310">
        <ele>478.0</ele>
        <time>2022-06-26T10:48:09Z</time>
      </trkpt>
      <trkpt lat="42.8459480" lon="1.6026940">
        <ele>478.5</ele>
        <time>2022-06-26T10:48:11Z</time>
      </trkpt>
      <trkpt lat="42.8458790" lon="1.6025000">
        <ele>479.6</ele>
        <time>2022-06-26T10:48:14Z</time>
      </trkpt>
      <trkpt lat="42.8458080" lon="1.6023210">
        <ele>480.6</ele>
        <time>2022-06-26T10:48:17Z</time>
      </trkpt>
      <trkpt lat="42.8456720" lon="1.6019830">
        <ele>482.5</ele>
        <time>2022-06-26T10:48:23Z</time>
      </trkpt>
      <trkpt lat="42.8456500" lon="1.6019270">
        <ele>482.8</ele>
        <time>2022-06-26T10:48:24Z</time>
      </trkpt>
      <trkpt lat="42.8455560" lon="1.6017000">
        <ele>483.7</ele>
        <time>2022-06-26T10:48:28Z</time>
      </trkpt>
      <trkpt lat="42.8454590" lon="1.6014620">
        <ele>484.4</ele>
        <time>2022-06-26T10:48:32Z</time>
      </trkpt>
      <trkpt lat="42.8454100" lon="1.6013410">
        <ele>484.5</ele>
        <time>2022-06-26T10:48:34Z</time>
      </trkpt>
      <trkpt lat="42.8453860" lon="1.6012800">
        <ele>484.6</ele>
        <time>2022-06-26T10:48:35Z</time>
      </trkpt>
      <trkpt lat="42.8453420" lon="1.6011500">
        <ele>484.7</ele>
        <time>2022-06-26T10:48:37Z</time>
      </trkpt>
      <trkpt lat="42.8453070" lon="1.6009440">
        <ele>484.9</ele>
        <time>2022-06-26T10:48:40Z</time>
      </trkpt>
      <trkpt lat="42.8452890" lon="1.6008760">
        <ele>484.9</ele>
        <time>2022-06-26T10:48:41Z</time>
      </trkpt>
      <trkpt lat="42.8451950" lon="1.6006940">
        <ele>484.6</ele>
        <time>2022-06-26T10:48:44Z</time>
      </trkpt>
      <trkpt lat="42.8451310" lon="1.6005660">
        <ele>484.0</ele>
        <time>2022-06-26T10:48:46Z</time>
      </trkpt>
      <trkpt lat="42.8451070" lon="1.6004930">
        <ele>483.8</ele>
        <time>2022-06-26T10:48:47Z</time>
      </trkpt>
      <trkpt lat="42.8450900" lon="1.6004140">
        <ele>483.5</ele>
        <time>2022-06-26T10:48:48Z</time>
      </trkpt>
      <trkpt lat="42.8451200" lon="1.6001090">
        <ele>482.5</ele>
        <time>2022-06-26T10:48:52Z</time>
      </trkpt>
      <trkpt lat="42.8452640" lon="1.6000210">
        <ele>481.8</ele>
        <time>2022-06-26T10:48:55Z</time>
      </trkpt>
      <trkpt lat="42.8453280" lon="1.5999800">
        <ele>481.6</ele>
        <time>2022-06-26T10:48:58Z</time>
      </trkpt>
      <trkpt lat="42.8453300" lon="1.5999780">
        <ele>481.6</ele>
        <time>2022-06-26T10:48:59Z</time>
      </trkpt>
    </trkseg>
  </trk>
</gpx>
